<?xml version='1.0' encoding='UTF-8'?><gpx version="1.1" creator="JPX - https://github.com/jenetics/jpx" xmlns="http://www.topografix.com/GPX/1/1"><trk><trkseg><trkpt lat="32.2247832" lon="-111.0216447"><ele>755.5</ele><time>2026-05-02T13:17:32.247Z</time></trkpt><trkpt lat="32.2248579" lon="-111.0216394"><ele>755.0</ele><time>2026-05-02T13:17:35.247Z</time></trkpt><trkpt lat="32.2249148" lon="-111.0215831"><ele>754.5</ele><time>2026-05-02T13:17:38.246Z</time></trkpt><trkpt lat="32.2249346" lon="-111.0214682"><ele>754.0</ele><time>2026-05-02T13:17:40.247Z</time></trkpt><trkpt lat="32.2249375" lon="-111.0213829"><ele>753.5</ele><time>2026-05-02T13:17:41.246Z</time></trkpt><trkpt lat="32.2249389" lon="-111.0212874"><ele>753.0</ele><time>2026-05-02T13:17:42.246Z</time></trkpt><trkpt lat="32.2249399" lon="-111.0211844"><ele>753.0</ele><time>2026-05-02T13:17:43.246Z</time></trkpt><trkpt lat="32.2249426" lon="-111.0210791"><ele>753.0</ele><time>2026-05-02T13:17:44.247Z</time></trkpt><trkpt lat="32.2249479" lon="-111.0209767"><ele>753.0</ele><time>2026-05-02T13:17:45.247Z</time></trkpt><trkpt lat="32.2249547" lon="-111.0208781"><ele>753.0</ele><time>2026-05-02T13:17:46.246Z</time></trkpt><trkpt lat="32.2249606" lon="-111.0207832"><ele>753.0</ele><time>2026-05-02T13:17:47.246Z</time></trkpt><trkpt lat="32.2249646" lon="-111.0206926"><ele>753.0</ele><time>2026-05-02T13:17:48.246Z</time></trkpt><trkpt lat="32.2249666" lon="-111.0206094"><ele>752.0</ele><time>2026-05-02T13:17:49.246Z</time></trkpt><trkpt lat="32.2249678" lon="-111.0205313"><ele>751.0</ele><time>2026-05-02T13:17:50.247Z</time></trkpt><trkpt lat="32.2249701" lon="-111.0204555"><ele>750.0</ele><time>2026-05-02T13:17:51.246Z</time></trkpt><trkpt lat="32.2250149" lon="-111.0203228"><ele>749.0</ele><time>2026-05-02T13:17:53.246Z</time></trkpt><trkpt lat="32.2251369" lon="-111.0202628"><ele>748.0</ele><time>2026-05-02T13:17:55.247Z</time></trkpt><trkpt lat="32.2252179" lon="-111.0202554"><ele>748.0</ele><time>2026-05-02T13:17:56.247Z</time></trkpt><trkpt lat="32.2253037" lon="-111.0202504"><ele>748.0</ele><time>2026-05-02T13:17:57.246Z</time></trkpt><trkpt lat="32.2254055" lon="-111.0202524"><ele>748.0</ele><time>2026-05-02T13:17:58.247Z</time></trkpt><trkpt lat="32.2255087" lon="-111.0202532"><ele>748.0</ele><time>2026-05-02T13:17:59.248Z</time></trkpt><trkpt lat="32.22562" lon="-111.0202547"><ele>748.0</ele><time>2026-05-02T13:18:00.246Z</time></trkpt><trkpt lat="32.2257388" lon="-111.0202569"><ele>748.25</ele><time>2026-05-02T13:18:01.247Z</time></trkpt><trkpt lat="32.2258634" lon="-111.0202577"><ele>748.5</ele><time>2026-05-02T13:18:02.247Z</time></trkpt><trkpt lat="32.2259918" lon="-111.0202587"><ele>748.75</ele><time>2026-05-02T13:18:03.247Z</time></trkpt><trkpt lat="32.2261254" lon="-111.0202605"><ele>749.0</ele><time>2026-05-02T13:18:04.246Z</time></trkpt><trkpt lat="32.2262631" lon="-111.0202613"><ele>749.0</ele><time>2026-05-02T13:18:05.246Z</time></trkpt><trkpt lat="32.2264037" lon="-111.0202618"><ele>749.0</ele><time>2026-05-02T13:18:06.247Z</time></trkpt><trkpt lat="32.2265478" lon="-111.0202627"><ele>749.0</ele><time>2026-05-02T13:18:07.247Z</time></trkpt><trkpt lat="32.2266939" lon="-111.020264"><ele>749.0</ele><time>2026-05-02T13:18:08.248Z</time></trkpt><trkpt lat="32.2268435" lon="-111.0202649"><ele>748.6666666666666</ele><time>2026-05-02T13:18:09.246Z</time></trkpt><trkpt lat="32.2269943" lon="-111.0202664"><ele>748.3333333333334</ele><time>2026-05-02T13:18:10.246Z</time></trkpt><trkpt lat="32.2271469" lon="-111.0202686"><ele>748.0</ele><time>2026-05-02T13:18:11.247Z</time></trkpt><trkpt lat="32.2273023" lon="-111.0202709"><ele>748.6666666666667</ele><time>2026-05-02T13:18:12.247Z</time></trkpt><trkpt lat="32.2274592" lon="-111.0202726"><ele>749.3333333333334</ele><time>2026-05-02T13:18:13.247Z</time></trkpt><trkpt lat="32.2276177" lon="-111.0202742"><ele>750.0</ele><time>2026-05-02T13:18:14.248Z</time></trkpt><trkpt lat="32.2277774" lon="-111.0202761"><ele>750.0</ele><time>2026-05-02T13:18:15.248Z</time></trkpt><trkpt lat="32.2279365" lon="-111.0202778"><ele>750.0</ele><time>2026-05-02T13:18:16.247Z</time></trkpt><trkpt lat="32.2280958" lon="-111.02028"><ele>750.0</ele><time>2026-05-02T13:18:17.247Z</time></trkpt><trkpt lat="32.2282567" lon="-111.0202821"><ele>748.6666666666666</ele><time>2026-05-02T13:18:18.246Z</time></trkpt><trkpt lat="32.2284179" lon="-111.0202828"><ele>747.3333333333333</ele><time>2026-05-02T13:18:19.248Z</time></trkpt><trkpt lat="32.2285785" lon="-111.0202817"><ele>746.0</ele><time>2026-05-02T13:18:20.246Z</time></trkpt><trkpt lat="32.228738" lon="-111.0202814"><ele>746.0</ele><time>2026-05-02T13:18:21.247Z</time></trkpt><trkpt lat="32.2288966" lon="-111.0202823"><ele>746.0</ele><time>2026-05-02T13:18:22.248Z</time></trkpt><trkpt lat="32.2290557" lon="-111.020285"><ele>746.0</ele><time>2026-05-02T13:18:23.246Z</time></trkpt><trkpt lat="32.2292166" lon="-111.0202882"><ele>744.0</ele><time>2026-05-02T13:18:24.248Z</time></trkpt><trkpt lat="32.2293777" lon="-111.0202909"><ele>742.0</ele><time>2026-05-02T13:18:25.248Z</time></trkpt><trkpt lat="32.2295378" lon="-111.0202929"><ele>740.0</ele><time>2026-05-02T13:18:26.248Z</time></trkpt><trkpt lat="32.2296991" lon="-111.0202946"><ele>740.0</ele><time>2026-05-02T13:18:27.248Z</time></trkpt><trkpt lat="32.2298587" lon="-111.020296"><ele>740.0</ele><time>2026-05-02T13:18:28.247Z</time></trkpt><trkpt lat="32.230016" lon="-111.0202982"><ele>740.0</ele><time>2026-05-02T13:18:29.247Z</time></trkpt><trkpt lat="32.2301703" lon="-111.0203013"><ele>740.0</ele><time>2026-05-02T13:18:30.247Z</time></trkpt><trkpt lat="32.2303256" lon="-111.0203058"><ele>740.0</ele><time>2026-05-02T13:18:31.247Z</time></trkpt><trkpt lat="32.2304803" lon="-111.0203099"><ele>740.0</ele><time>2026-05-02T13:18:32.247Z</time></trkpt><trkpt lat="32.2306364" lon="-111.0203129"><ele>739.6666666666666</ele><time>2026-05-02T13:18:33.248Z</time></trkpt><trkpt lat="32.2307945" lon="-111.0203165"><ele>739.3333333333334</ele><time>2026-05-02T13:18:34.247Z</time></trkpt><trkpt lat="32.230954" lon="-111.020322"><ele>739.0</ele><time>2026-05-02T13:18:35.247Z</time></trkpt><trkpt lat="32.2311144" lon="-111.020329"><ele>739.0</ele><time>2026-05-02T13:18:36.247Z</time></trkpt><trkpt lat="32.231275" lon="-111.0203371"><ele>739.0</ele><time>2026-05-02T13:18:37.248Z</time></trkpt><trkpt lat="32.2314357" lon="-111.0203464"><ele>739.0</ele><time>2026-05-02T13:18:38.247Z</time></trkpt><trkpt lat="32.2315966" lon="-111.0203557"><ele>739.3333333333334</ele><time>2026-05-02T13:18:39.247Z</time></trkpt><trkpt lat="32.2317579" lon="-111.0203648"><ele>739.6666666666666</ele><time>2026-05-02T13:18:40.248Z</time></trkpt><trkpt lat="32.2319194" lon="-111.0203752"><ele>740.0</ele><time>2026-05-02T13:18:41.247Z</time></trkpt><trkpt lat="32.2320803" lon="-111.0203897"><ele>740.0</ele><time>2026-05-02T13:18:42.247Z</time></trkpt><trkpt lat="32.2322403" lon="-111.0204137"><ele>740.0</ele><time>2026-05-02T13:18:43.247Z</time></trkpt><trkpt lat="32.2323997" lon="-111.0204482"><ele>740.0</ele><time>2026-05-02T13:18:44.247Z</time></trkpt><trkpt lat="32.2325588" lon="-111.0204904"><ele>740.6666666666666</ele><time>2026-05-02T13:18:45.247Z</time></trkpt><trkpt lat="32.2327182" lon="-111.0205389"><ele>741.3333333333334</ele><time>2026-05-02T13:18:46.247Z</time></trkpt><trkpt lat="32.2328787" lon="-111.0205926"><ele>742.0</ele><time>2026-05-02T13:18:47.248Z</time></trkpt><trkpt lat="32.2330405" lon="-111.0206513"><ele>743.0</ele><time>2026-05-02T13:18:48.248Z</time></trkpt><trkpt lat="32.2332002" lon="-111.0207115"><ele>744.0</ele><time>2026-05-02T13:18:49.248Z</time></trkpt><trkpt lat="32.2333562" lon="-111.0207708"><ele>745.0</ele><time>2026-05-02T13:18:50.247Z</time></trkpt><trkpt lat="32.2335087" lon="-111.0208295"><ele>745.6666666666667</ele><time>2026-05-02T13:18:51.247Z</time></trkpt><trkpt lat="32.2336602" lon="-111.0208899"><ele>746.3333333333334</ele><time>2026-05-02T13:18:52.248Z</time></trkpt><trkpt lat="32.2338115" lon="-111.0209502"><ele>747.0</ele><time>2026-05-02T13:18:53.248Z</time></trkpt><trkpt lat="32.2339621" lon="-111.0210085"><ele>746.0</ele><time>2026-05-02T13:18:54.247Z</time></trkpt><trkpt lat="32.2341154" lon="-111.0210666"><ele>745.0</ele><time>2026-05-02T13:18:55.248Z</time></trkpt><trkpt lat="32.2342705" lon="-111.0211256"><ele>744.0</ele><time>2026-05-02T13:18:56.248Z</time></trkpt><trkpt lat="32.2344251" lon="-111.0211848"><ele>744.0</ele><time>2026-05-02T13:18:57.248Z</time></trkpt><trkpt lat="32.2345775" lon="-111.021242"><ele>744.0</ele><time>2026-05-02T13:18:58.248Z</time></trkpt><trkpt lat="32.2347336" lon="-111.0212987"><ele>744.0</ele><time>2026-05-02T13:18:59.247Z</time></trkpt><trkpt lat="32.2348812" lon="-111.02135"><ele>743.5</ele><time>2026-05-02T13:19:00.247Z</time></trkpt><trkpt lat="32.2350244" lon="-111.0213963"><ele>743.0</ele><time>2026-05-02T13:19:01.247Z</time></trkpt><trkpt lat="32.235161" lon="-111.0214344"><ele>742.5</ele><time>2026-05-02T13:19:02.248Z</time></trkpt><trkpt lat="32.235289" lon="-111.021462"><ele>742.0</ele><time>2026-05-02T13:19:03.248Z</time></trkpt><trkpt lat="32.2354008" lon="-111.0214782"><ele>742.0</ele><time>2026-05-02T13:19:04.248Z</time></trkpt><trkpt lat="32.2354985" lon="-111.0214882"><ele>742.0</ele><time>2026-05-02T13:19:05.248Z</time></trkpt><trkpt lat="32.2355821" lon="-111.0214936"><ele>742.0</ele><time>2026-05-02T13:19:06.248Z</time></trkpt><trkpt lat="32.2356502" lon="-111.0214954"><ele>742.0</ele><time>2026-05-02T13:19:07.247Z</time></trkpt><trkpt lat="32.2357523" lon="-111.0214847"><ele>742.0</ele><time>2026-05-02T13:19:09.248Z</time></trkpt><trkpt lat="32.2358145" lon="-111.0214586"><ele>742.0</ele><time>2026-05-02T13:19:11.248Z</time></trkpt><trkpt lat="32.2358765" lon="-111.0213675"><ele>741.8</ele><time>2026-05-02T13:19:13.247Z</time></trkpt><trkpt lat="32.2358941" lon="-111.0212842"><ele>741.6</ele><time>2026-05-02T13:19:14.247Z</time></trkpt><trkpt lat="32.2359029" lon="-111.0211798"><ele>741.4</ele><time>2026-05-02T13:19:15.247Z</time></trkpt><trkpt lat="32.2359054" lon="-111.021062"><ele>741.1999999999999</ele><time>2026-05-02T13:19:16.248Z</time></trkpt><trkpt lat="32.2359051" lon="-111.0209325"><ele>741.0</ele><time>2026-05-02T13:19:17.248Z</time></trkpt><trkpt lat="32.2359038" lon="-111.0207914"><ele>741.0</ele><time>2026-05-02T13:19:18.248Z</time></trkpt><trkpt lat="32.2359034" lon="-111.0206409"><ele>741.0</ele><time>2026-05-02T13:19:19.247Z</time></trkpt><trkpt lat="32.2359028" lon="-111.0204837"><ele>741.0</ele><time>2026-05-02T13:19:20.247Z</time></trkpt><trkpt lat="32.2359021" lon="-111.0203249"><ele>741.0</ele><time>2026-05-02T13:19:21.248Z</time></trkpt><trkpt lat="32.235902" lon="-111.020161"><ele>741.0</ele><time>2026-05-02T13:19:22.248Z</time></trkpt><trkpt lat="32.2359021" lon="-111.0199905"><ele>741.0</ele><time>2026-05-02T13:19:23.247Z</time></trkpt><trkpt lat="32.2359027" lon="-111.0198159"><ele>741.0</ele><time>2026-05-02T13:19:24.247Z</time></trkpt><trkpt lat="32.2359032" lon="-111.019638"><ele>741.0</ele><time>2026-05-02T13:19:25.248Z</time></trkpt><trkpt lat="32.2359031" lon="-111.0194569"><ele>742.0</ele><time>2026-05-02T13:19:26.247Z</time></trkpt><trkpt lat="32.2359032" lon="-111.0192733"><ele>743.0</ele><time>2026-05-02T13:19:27.248Z</time></trkpt><trkpt lat="32.2359029" lon="-111.0190876"><ele>744.0</ele><time>2026-05-02T13:19:28.248Z</time></trkpt><trkpt lat="32.2359024" lon="-111.0189003"><ele>744.0</ele><time>2026-05-02T13:19:29.247Z</time></trkpt><trkpt lat="32.2359021" lon="-111.0187113"><ele>744.0</ele><time>2026-05-02T13:19:30.248Z</time></trkpt><trkpt lat="32.2359022" lon="-111.0185218"><ele>744.0</ele><time>2026-05-02T13:19:31.247Z</time></trkpt><trkpt lat="32.2359022" lon="-111.0183315"><ele>741.6666666666666</ele><time>2026-05-02T13:19:32.248Z</time></trkpt><trkpt lat="32.2359021" lon="-111.0181399"><ele>739.3333333333333</ele><time>2026-05-02T13:19:33.248Z</time></trkpt><trkpt lat="32.2359016" lon="-111.0179459"><ele>737.0</ele><time>2026-05-02T13:19:34.248Z</time></trkpt><trkpt lat="32.2359008" lon="-111.01775"><ele>737.0</ele><time>2026-05-02T13:19:35.247Z</time></trkpt><trkpt lat="32.2359001" lon="-111.0175515"><ele>737.0</ele><time>2026-05-02T13:19:36.248Z</time></trkpt><trkpt lat="32.2358995" lon="-111.0173498"><ele>737.0</ele><time>2026-05-02T13:19:37.248Z</time></trkpt><trkpt lat="32.235899" lon="-111.0171451"><ele>735.0</ele><time>2026-05-02T13:19:38.249Z</time></trkpt><trkpt lat="32.2358989" lon="-111.0169392"><ele>733.0</ele><time>2026-05-02T13:19:39.248Z</time></trkpt><trkpt lat="32.2358993" lon="-111.016733"><ele>731.0</ele><time>2026-05-02T13:19:40.248Z</time></trkpt><trkpt lat="32.2358995" lon="-111.0165266"><ele>730.0</ele><time>2026-05-02T13:19:41.247Z</time></trkpt><trkpt lat="32.2358997" lon="-111.0163209"><ele>729.0</ele><time>2026-05-02T13:19:42.248Z</time></trkpt><trkpt lat="32.2359002" lon="-111.0161127"><ele>728.0</ele><time>2026-05-02T13:19:43.248Z</time></trkpt><trkpt lat="32.2358993" lon="-111.0159056"><ele>728.0</ele><time>2026-05-02T13:19:44.248Z</time></trkpt><trkpt lat="32.2358991" lon="-111.0156972"><ele>728.0</ele><time>2026-05-02T13:19:45.248Z</time></trkpt><trkpt lat="32.2358974" lon="-111.0154939"><ele>728.0</ele><time>2026-05-02T13:19:46.248Z</time></trkpt><trkpt lat="32.235891" lon="-111.0152835"><ele>728.0</ele><time>2026-05-02T13:19:47.248Z</time></trkpt><trkpt lat="32.2358848" lon="-111.0150787"><ele>728.0</ele><time>2026-05-02T13:19:48.249Z</time></trkpt><trkpt lat="32.2358839" lon="-111.014871"><ele>728.0</ele><time>2026-05-02T13:19:49.248Z</time></trkpt><trkpt lat="32.2358865" lon="-111.0146632"><ele>728.3333333333333</ele><time>2026-05-02T13:19:50.248Z</time></trkpt><trkpt lat="32.2358835" lon="-111.0144658"><ele>728.6666666666666</ele><time>2026-05-02T13:19:51.248Z</time></trkpt><trkpt lat="32.2358827" lon="-111.0142623"><ele>729.0</ele><time>2026-05-02T13:19:52.247Z</time></trkpt><trkpt lat="32.2358847" lon="-111.0140639"><ele>729.6666666666666</ele><time>2026-05-02T13:19:53.248Z</time></trkpt><trkpt lat="32.2358866" lon="-111.013864"><ele>730.3333333333333</ele><time>2026-05-02T13:19:54.248Z</time></trkpt><trkpt lat="32.2358849" lon="-111.013673"><ele>731.0</ele><time>2026-05-02T13:19:55.248Z</time></trkpt><trkpt lat="32.2358843" lon="-111.0134812"><ele>732.3333333333333</ele><time>2026-05-02T13:19:56.247Z</time></trkpt><trkpt lat="32.2358835" lon="-111.0132825"><ele>733.6666666666666</ele><time>2026-05-02T13:19:57.247Z</time></trkpt><trkpt lat="32.2358797" lon="-111.0130827"><ele>735.0</ele><time>2026-05-02T13:19:58.247Z</time></trkpt><trkpt lat="32.2358757" lon="-111.012885"><ele>735.0</ele><time>2026-05-02T13:19:59.248Z</time></trkpt><trkpt lat="32.235864" lon="-111.0126858"><ele>735.0</ele><time>2026-05-02T13:20:00.247Z</time></trkpt><trkpt lat="32.2358454" lon="-111.0124831"><ele>735.0</ele><time>2026-05-02T13:20:01.248Z</time></trkpt><trkpt lat="32.2358195" lon="-111.0122805"><ele>733.6666666666666</ele><time>2026-05-02T13:20:02.248Z</time></trkpt><trkpt lat="32.2357907" lon="-111.0120798"><ele>732.3333333333333</ele><time>2026-05-02T13:20:03.248Z</time></trkpt><trkpt lat="32.2357534" lon="-111.0118791"><ele>731.0</ele><time>2026-05-02T13:20:04.248Z</time></trkpt><trkpt lat="32.2357117" lon="-111.0116762"><ele>730.6666666666666</ele><time>2026-05-02T13:20:05.249Z</time></trkpt><trkpt lat="32.2356676" lon="-111.0114771"><ele>730.3333333333334</ele><time>2026-05-02T13:20:06.249Z</time></trkpt><trkpt lat="32.2356172" lon="-111.0112777"><ele>730.0</ele><time>2026-05-02T13:20:07.249Z</time></trkpt><trkpt lat="32.2355668" lon="-111.0110816"><ele>730.0</ele><time>2026-05-02T13:20:08.248Z</time></trkpt><trkpt lat="32.2355162" lon="-111.010883"><ele>730.0</ele><time>2026-05-02T13:20:09.248Z</time></trkpt><trkpt lat="32.2354674" lon="-111.0106872"><ele>730.0</ele><time>2026-05-02T13:20:10.249Z</time></trkpt><trkpt lat="32.2354183" lon="-111.0104924"><ele>730.3333333333334</ele><time>2026-05-02T13:20:11.248Z</time></trkpt><trkpt lat="32.2353693" lon="-111.0103007"><ele>730.6666666666666</ele><time>2026-05-02T13:20:12.248Z</time></trkpt><trkpt lat="32.2353234" lon="-111.0101052"><ele>731.0</ele><time>2026-05-02T13:20:13.249Z</time></trkpt><trkpt lat="32.2352855" lon="-111.0099097"><ele>730.0</ele><time>2026-05-02T13:20:14.249Z</time></trkpt><trkpt lat="32.235248" lon="-111.0097122"><ele>729.0</ele><time>2026-05-02T13:20:15.248Z</time></trkpt><trkpt lat="32.2352167" lon="-111.0095107"><ele>728.0</ele><time>2026-05-02T13:20:16.249Z</time></trkpt><trkpt lat="32.2351908" lon="-111.0093106"><ele>727.3333333333333</ele><time>2026-05-02T13:20:17.249Z</time></trkpt><trkpt lat="32.2351722" lon="-111.0091114"><ele>726.6666666666666</ele><time>2026-05-02T13:20:18.248Z</time></trkpt><trkpt lat="32.2351602" lon="-111.008911"><ele>726.0</ele><time>2026-05-02T13:20:19.248Z</time></trkpt><trkpt lat="32.2351513" lon="-111.0087099"><ele>726.0</ele><time>2026-05-02T13:20:20.248Z</time></trkpt><trkpt lat="32.2351519" lon="-111.0085107"><ele>726.0</ele><time>2026-05-02T13:20:21.249Z</time></trkpt><trkpt lat="32.2351556" lon="-111.0083106"><ele>726.0</ele><time>2026-05-02T13:20:22.248Z</time></trkpt><trkpt lat="32.2351658" lon="-111.0081153"><ele>723.3333333333334</ele><time>2026-05-02T13:20:23.248Z</time></trkpt><trkpt lat="32.2351815" lon="-111.0079211"><ele>720.6666666666667</ele><time>2026-05-02T13:20:24.249Z</time></trkpt><trkpt lat="32.2352026" lon="-111.0077257"><ele>718.0</ele><time>2026-05-02T13:20:25.248Z</time></trkpt><trkpt lat="32.2352303" lon="-111.0075337"><ele>717.3333333333334</ele><time>2026-05-02T13:20:26.248Z</time></trkpt><trkpt lat="32.2352569" lon="-111.0073463"><ele>716.6666666666666</ele><time>2026-05-02T13:20:27.249Z</time></trkpt><trkpt lat="32.2352877" lon="-111.0071603"><ele>716.0</ele><time>2026-05-02T13:20:28.248Z</time></trkpt><trkpt lat="32.2353276" lon="-111.0069755"><ele>716.0</ele><time>2026-05-02T13:20:29.249Z</time></trkpt><trkpt lat="32.2353703" lon="-111.0067932"><ele>716.0</ele><time>2026-05-02T13:20:30.248Z</time></trkpt><trkpt lat="32.2354138" lon="-111.0066054"><ele>716.0</ele><time>2026-05-02T13:20:31.248Z</time></trkpt><trkpt lat="32.2354536" lon="-111.0064261"><ele>714.6666666666666</ele><time>2026-05-02T13:20:32.248Z</time></trkpt><trkpt lat="32.2354899" lon="-111.0062418"><ele>713.3333333333334</ele><time>2026-05-02T13:20:33.248Z</time></trkpt><trkpt lat="32.2355154" lon="-111.0060554"><ele>712.0</ele><time>2026-05-02T13:20:34.248Z</time></trkpt><trkpt lat="32.2355359" lon="-111.0058633"><ele>711.3333333333334</ele><time>2026-05-02T13:20:35.249Z</time></trkpt><trkpt lat="32.2355466" lon="-111.005665"><ele>710.6666666666666</ele><time>2026-05-02T13:20:36.249Z</time></trkpt><trkpt lat="32.2355539" lon="-111.0054728"><ele>710.0</ele><time>2026-05-02T13:20:37.248Z</time></trkpt><trkpt lat="32.2355486" lon="-111.005274"><ele>710.0</ele><time>2026-05-02T13:20:38.249Z</time></trkpt><trkpt lat="32.2355511" lon="-111.0050778"><ele>710.0</ele><time>2026-05-02T13:20:39.248Z</time></trkpt><trkpt lat="32.2355518" lon="-111.0048831"><ele>710.0</ele><time>2026-05-02T13:20:40.249Z</time></trkpt><trkpt lat="32.2355532" lon="-111.0046904"><ele>710.3333333333333</ele><time>2026-05-02T13:20:41.248Z</time></trkpt><trkpt lat="32.2355544" lon="-111.0044937"><ele>710.6666666666666</ele><time>2026-05-02T13:20:42.249Z</time></trkpt><trkpt lat="32.2355544" lon="-111.0042982"><ele>711.0</ele><time>2026-05-02T13:20:43.249Z</time></trkpt><trkpt lat="32.2355561" lon="-111.0041075"><ele>711.3333333333334</ele><time>2026-05-02T13:20:44.249Z</time></trkpt><trkpt lat="32.2355577" lon="-111.0039165"><ele>711.6666666666667</ele><time>2026-05-02T13:20:45.249Z</time></trkpt><trkpt lat="32.235558" lon="-111.0037215"><ele>712.0</ele><time>2026-05-02T13:20:46.248Z</time></trkpt><trkpt lat="32.2355592" lon="-111.0035284"><ele>712.0</ele><time>2026-05-02T13:20:47.248Z</time></trkpt><trkpt lat="32.2355618" lon="-111.0033331"><ele>712.0</ele><time>2026-05-02T13:20:48.249Z</time></trkpt><trkpt lat="32.2355609" lon="-111.003139"><ele>712.0</ele><time>2026-05-02T13:20:49.248Z</time></trkpt><trkpt lat="32.2355594" lon="-111.0029433"><ele>711.6666666666667</ele><time>2026-05-02T13:20:50.249Z</time></trkpt><trkpt lat="32.2355593" lon="-111.0027508"><ele>711.3333333333334</ele><time>2026-05-02T13:20:51.248Z</time></trkpt><trkpt lat="32.2355582" lon="-111.0025487"><ele>711.0</ele><time>2026-05-02T13:20:52.249Z</time></trkpt><trkpt lat="32.2355597" lon="-111.0023483"><ele>710.3333333333334</ele><time>2026-05-02T13:20:53.249Z</time></trkpt><trkpt lat="32.2355622" lon="-111.0021463"><ele>709.6666666666667</ele><time>2026-05-02T13:20:54.249Z</time></trkpt><trkpt lat="32.235562" lon="-111.0019462"><ele>709.0</ele><time>2026-05-02T13:20:55.248Z</time></trkpt><trkpt lat="32.2355641" lon="-111.0017414"><ele>708.6666666666667</ele><time>2026-05-02T13:20:56.248Z</time></trkpt><trkpt lat="32.2355643" lon="-111.0015403"><ele>708.3333333333334</ele><time>2026-05-02T13:20:57.248Z</time></trkpt><trkpt lat="32.2355677" lon="-111.001339"><ele>708.0</ele><time>2026-05-02T13:20:58.249Z</time></trkpt><trkpt lat="32.2355681" lon="-111.0011439"><ele>708.0</ele><time>2026-05-02T13:20:59.249Z</time></trkpt><trkpt lat="32.2355703" lon="-111.0009458"><ele>708.0</ele><time>2026-05-02T13:21:00.249Z</time></trkpt><trkpt lat="32.2355701" lon="-111.0007465"><ele>708.0</ele><time>2026-05-02T13:21:01.248Z</time></trkpt><trkpt lat="32.2355706" lon="-111.0005403"><ele>708.6666666666666</ele><time>2026-05-02T13:21:02.249Z</time></trkpt><trkpt lat="32.235575" lon="-111.0003388"><ele>709.3333333333333</ele><time>2026-05-02T13:21:03.248Z</time></trkpt><trkpt lat="32.2355789" lon="-111.0001313"><ele>710.0</ele><time>2026-05-02T13:21:04.248Z</time></trkpt><trkpt lat="32.2355834" lon="-110.9999293"><ele>710.0</ele><time>2026-05-02T13:21:05.248Z</time></trkpt><trkpt lat="32.2355873" lon="-110.999726"><ele>710.0</ele><time>2026-05-02T13:21:06.249Z</time></trkpt><trkpt lat="32.2355948" lon="-110.9995198"><ele>710.0</ele><time>2026-05-02T13:21:07.248Z</time></trkpt><trkpt lat="32.2356004" lon="-110.999319"><ele>710.0</ele><time>2026-05-02T13:21:08.249Z</time></trkpt><trkpt lat="32.2356076" lon="-110.9991108"><ele>710.0</ele><time>2026-05-02T13:21:09.248Z</time></trkpt><trkpt lat="32.2356079" lon="-110.9989042"><ele>710.0</ele><time>2026-05-02T13:21:10.249Z</time></trkpt><trkpt lat="32.235607" lon="-110.9987006"><ele>710.0</ele><time>2026-05-02T13:21:11.249Z</time></trkpt><trkpt lat="32.235614" lon="-110.9984919"><ele>710.0</ele><time>2026-05-02T13:21:12.25Z</time></trkpt><trkpt lat="32.2356199" lon="-110.9982857"><ele>710.0</ele><time>2026-05-02T13:21:13.249Z</time></trkpt><trkpt lat="32.2356264" lon="-110.9980802"><ele>710.3333333333333</ele><time>2026-05-02T13:21:14.25Z</time></trkpt><trkpt lat="32.2356322" lon="-110.9978761"><ele>710.6666666666666</ele><time>2026-05-02T13:21:15.249Z</time></trkpt><trkpt lat="32.235638" lon="-110.9976729"><ele>711.0</ele><time>2026-05-02T13:21:16.248Z</time></trkpt><trkpt lat="32.2356416" lon="-110.997468"><ele>710.0</ele><time>2026-05-02T13:21:17.25Z</time></trkpt><trkpt lat="32.2356475" lon="-110.9972669"><ele>709.0</ele><time>2026-05-02T13:21:18.249Z</time></trkpt><trkpt lat="32.235648" lon="-110.997062"><ele>708.0</ele><time>2026-05-02T13:21:19.25Z</time></trkpt><trkpt lat="32.2356527" lon="-110.9968622"><ele>708.3333333333334</ele><time>2026-05-02T13:21:20.249Z</time></trkpt><trkpt lat="32.2356539" lon="-110.9966597"><ele>708.6666666666667</ele><time>2026-05-02T13:21:21.25Z</time></trkpt><trkpt lat="32.235654" lon="-110.9964564"><ele>709.0</ele><time>2026-05-02T13:21:22.249Z</time></trkpt><trkpt lat="32.2356559" lon="-110.9962546"><ele>709.0</ele><time>2026-05-02T13:21:23.25Z</time></trkpt><trkpt lat="32.2356568" lon="-110.9960496"><ele>709.0</ele><time>2026-05-02T13:21:24.25Z</time></trkpt><trkpt lat="32.2356582" lon="-110.9958489"><ele>709.0</ele><time>2026-05-02T13:21:25.249Z</time></trkpt><trkpt lat="32.2356584" lon="-110.9956458"><ele>709.6666666666667</ele><time>2026-05-02T13:21:26.25Z</time></trkpt><trkpt lat="32.23566" lon="-110.9954346"><ele>710.3333333333334</ele><time>2026-05-02T13:21:27.248Z</time></trkpt><trkpt lat="32.2356588" lon="-110.9952272"><ele>711.0</ele><time>2026-05-02T13:21:28.249Z</time></trkpt><trkpt lat="32.235661" lon="-110.9950168"><ele>711.0</ele><time>2026-05-02T13:21:29.249Z</time></trkpt><trkpt lat="32.2356618" lon="-110.9948119"><ele>711.0</ele><time>2026-05-02T13:21:30.249Z</time></trkpt><trkpt lat="32.2356625" lon="-110.9946097"><ele>711.0</ele><time>2026-05-02T13:21:31.25Z</time></trkpt><trkpt lat="32.2356618" lon="-110.9944065"><ele>711.0</ele><time>2026-05-02T13:21:32.249Z</time></trkpt><trkpt lat="32.2356587" lon="-110.9941979"><ele>711.0</ele><time>2026-05-02T13:21:33.25Z</time></trkpt><trkpt lat="32.2356512" lon="-110.9939918"><ele>711.0</ele><time>2026-05-02T13:21:34.249Z</time></trkpt><trkpt lat="32.2356458" lon="-110.9937855"><ele>711.0</ele><time>2026-05-02T13:21:35.249Z</time></trkpt><trkpt lat="32.2356442" lon="-110.9935777"><ele>711.0</ele><time>2026-05-02T13:21:36.25Z</time></trkpt><trkpt lat="32.2356398" lon="-110.993372"><ele>711.0</ele><time>2026-05-02T13:21:37.249Z</time></trkpt><trkpt lat="32.2356343" lon="-110.9931667"><ele>710.3333333333334</ele><time>2026-05-02T13:21:38.249Z</time></trkpt><trkpt lat="32.2356254" lon="-110.992959"><ele>709.6666666666667</ele><time>2026-05-02T13:21:39.25Z</time></trkpt><trkpt lat="32.2356157" lon="-110.9927539"><ele>709.0</ele><time>2026-05-02T13:21:40.25Z</time></trkpt><trkpt lat="32.235608" lon="-110.9925458"><ele>708.6666666666667</ele><time>2026-05-02T13:21:41.249Z</time></trkpt><trkpt lat="32.2356044" lon="-110.9923408"><ele>708.3333333333334</ele><time>2026-05-02T13:21:42.25Z</time></trkpt><trkpt lat="32.2355976" lon="-110.992134"><ele>708.0</ele><time>2026-05-02T13:21:43.249Z</time></trkpt><trkpt lat="32.2355891" lon="-110.9919276"><ele>708.0</ele><time>2026-05-02T13:21:44.249Z</time></trkpt><trkpt lat="32.2355833" lon="-110.9917202"><ele>708.0</ele><time>2026-05-02T13:21:45.25Z</time></trkpt><trkpt lat="32.2355775" lon="-110.9915134"><ele>708.0</ele><time>2026-05-02T13:21:46.249Z</time></trkpt><trkpt lat="32.2355771" lon="-110.9913112"><ele>708.0</ele><time>2026-05-02T13:21:47.249Z</time></trkpt><trkpt lat="32.2355773" lon="-110.9911079"><ele>708.0</ele><time>2026-05-02T13:21:48.249Z</time></trkpt><trkpt lat="32.2355768" lon="-110.9909034"><ele>708.0</ele><time>2026-05-02T13:21:49.249Z</time></trkpt><trkpt lat="32.2355739" lon="-110.9907053"><ele>708.0</ele><time>2026-05-02T13:21:50.249Z</time></trkpt><trkpt lat="32.2355703" lon="-110.9905044"><ele>708.0</ele><time>2026-05-02T13:21:51.249Z</time></trkpt><trkpt lat="32.2355694" lon="-110.9903026"><ele>708.0</ele><time>2026-05-02T13:21:52.25Z</time></trkpt><trkpt lat="32.2355684" lon="-110.9900965"><ele>707.6666666666666</ele><time>2026-05-02T13:21:53.25Z</time></trkpt><trkpt lat="32.2355655" lon="-110.9898885"><ele>707.3333333333333</ele><time>2026-05-02T13:21:54.249Z</time></trkpt><trkpt lat="32.2355639" lon="-110.9896759"><ele>707.0</ele><time>2026-05-02T13:21:55.249Z</time></trkpt><trkpt lat="32.2355615" lon="-110.9894666"><ele>707.0</ele><time>2026-05-02T13:21:56.249Z</time></trkpt><trkpt lat="32.2355611" lon="-110.9892624"><ele>707.0</ele><time>2026-05-02T13:21:57.249Z</time></trkpt><trkpt lat="32.2355619" lon="-110.9890502"><ele>707.0</ele><time>2026-05-02T13:21:58.249Z</time></trkpt><trkpt lat="32.2355583" lon="-110.9888439"><ele>707.3333333333333</ele><time>2026-05-02T13:21:59.249Z</time></trkpt><trkpt lat="32.2355578" lon="-110.9886404"><ele>707.6666666666666</ele><time>2026-05-02T13:22:00.249Z</time></trkpt><trkpt lat="32.235557" lon="-110.9884336"><ele>708.0</ele><time>2026-05-02T13:22:01.249Z</time></trkpt><trkpt lat="32.2355563" lon="-110.9882334"><ele>708.3333333333334</ele><time>2026-05-02T13:22:02.249Z</time></trkpt><trkpt lat="32.2355534" lon="-110.9880325"><ele>708.6666666666667</ele><time>2026-05-02T13:22:03.249Z</time></trkpt><trkpt lat="32.2355539" lon="-110.9878367"><ele>709.0</ele><time>2026-05-02T13:22:04.25Z</time></trkpt><trkpt lat="32.2355512" lon="-110.9876352"><ele>708.3333333333334</ele><time>2026-05-02T13:22:05.249Z</time></trkpt><trkpt lat="32.2355507" lon="-110.9874354"><ele>707.6666666666666</ele><time>2026-05-02T13:22:06.249Z</time></trkpt><trkpt lat="32.2355509" lon="-110.9872293"><ele>707.0</ele><time>2026-05-02T13:22:07.249Z</time></trkpt><trkpt lat="32.2355472" lon="-110.9870201"><ele>707.0</ele><time>2026-05-02T13:22:08.25Z</time></trkpt><trkpt lat="32.2355477" lon="-110.9868079"><ele>707.0</ele><time>2026-05-02T13:22:09.25Z</time></trkpt><trkpt lat="32.235553" lon="-110.9866002"><ele>707.0</ele><time>2026-05-02T13:22:10.249Z</time></trkpt><trkpt lat="32.2355641" lon="-110.986396"><ele>706.0</ele><time>2026-05-02T13:22:11.249Z</time></trkpt><trkpt lat="32.235572" lon="-110.9862042"><ele>705.0</ele><time>2026-05-02T13:22:12.249Z</time></trkpt><trkpt lat="32.2355821" lon="-110.9860161"><ele>704.0</ele><time>2026-05-02T13:22:13.249Z</time></trkpt><trkpt lat="32.2355919" lon="-110.9858291"><ele>703.3333333333333</ele><time>2026-05-02T13:22:14.249Z</time></trkpt><trkpt lat="32.2356018" lon="-110.98565"><ele>702.6666666666666</ele><time>2026-05-02T13:22:15.249Z</time></trkpt><trkpt lat="32.235612" lon="-110.9854732"><ele>702.0</ele><time>2026-05-02T13:22:16.25Z</time></trkpt><trkpt lat="32.2356188" lon="-110.9852947"><ele>702.0</ele><time>2026-05-02T13:22:17.249Z</time></trkpt><trkpt lat="32.2356248" lon="-110.9851271"><ele>702.0</ele><time>2026-05-02T13:22:18.25Z</time></trkpt><trkpt lat="32.2356317" lon="-110.9849562"><ele>702.0</ele><time>2026-05-02T13:22:19.25Z</time></trkpt><trkpt lat="32.2356413" lon="-110.9847648"><ele>702.0</ele><time>2026-05-02T13:22:20.25Z</time></trkpt><trkpt lat="32.2356476" lon="-110.9845714"><ele>702.75</ele><time>2026-05-02T13:22:21.249Z</time></trkpt><trkpt lat="32.2356593" lon="-110.9843934"><ele>703.5</ele><time>2026-05-02T13:22:22.25Z</time></trkpt><trkpt lat="32.2356692" lon="-110.9842387"><ele>704.25</ele><time>2026-05-02T13:22:23.249Z</time></trkpt><trkpt lat="32.235676" lon="-110.9840989"><ele>705.0</ele><time>2026-05-02T13:22:24.249Z</time></trkpt><trkpt lat="32.2356828" lon="-110.9839771"><ele>705.0</ele><time>2026-05-02T13:22:25.249Z</time></trkpt><trkpt lat="32.2356454" lon="-110.9838571"><ele>705.0</ele><time>2026-05-02T13:22:33.249Z</time></trkpt><trkpt lat="32.2357189" lon="-110.9837378"><ele>705.0</ele><time>2026-05-02T13:22:38.25Z</time></trkpt><trkpt lat="32.2357171" lon="-110.9836001"><ele>705.0</ele><time>2026-05-02T13:22:40.25Z</time></trkpt><trkpt lat="32.2357205" lon="-110.9834723"><ele>705.0</ele><time>2026-05-02T13:22:41.25Z</time></trkpt><trkpt lat="32.2357281" lon="-110.9833436"><ele>705.0</ele><time>2026-05-02T13:22:42.25Z</time></trkpt><trkpt lat="32.2357335" lon="-110.9832158"><ele>705.0</ele><time>2026-05-02T13:22:43.25Z</time></trkpt><trkpt lat="32.2357372" lon="-110.9830853"><ele>705.0</ele><time>2026-05-02T13:22:44.251Z</time></trkpt><trkpt lat="32.2357476" lon="-110.9829492"><ele>705.0</ele><time>2026-05-02T13:22:45.25Z</time></trkpt><trkpt lat="32.2357593" lon="-110.982806"><ele>705.0</ele><time>2026-05-02T13:22:46.25Z</time></trkpt><trkpt lat="32.2357686" lon="-110.9826591"><ele>705.0</ele><time>2026-05-02T13:22:47.251Z</time></trkpt><trkpt lat="32.2357776" lon="-110.9825061"><ele>705.0</ele><time>2026-05-02T13:22:48.25Z</time></trkpt><trkpt lat="32.2357828" lon="-110.9823463"><ele>705.0</ele><time>2026-05-02T13:22:49.251Z</time></trkpt><trkpt lat="32.235788" lon="-110.9821825"><ele>706.75</ele><time>2026-05-02T13:22:50.25Z</time></trkpt><trkpt lat="32.2357929" lon="-110.9820108"><ele>708.5</ele><time>2026-05-02T13:22:51.25Z</time></trkpt><trkpt lat="32.2357964" lon="-110.981847"><ele>710.25</ele><time>2026-05-02T13:22:52.249Z</time></trkpt><trkpt lat="32.2357945" lon="-110.9816852"><ele>712.0</ele><time>2026-05-02T13:22:53.251Z</time></trkpt><trkpt lat="32.2357906" lon="-110.9815262"><ele>712.0</ele><time>2026-05-02T13:22:54.25Z</time></trkpt><trkpt lat="32.2357781" lon="-110.9813631"><ele>712.0</ele><time>2026-05-02T13:22:55.25Z</time></trkpt><trkpt lat="32.2357809" lon="-110.9811926"><ele>712.0</ele><time>2026-05-02T13:22:56.251Z</time></trkpt><trkpt lat="32.2357812" lon="-110.9810288"><ele>712.0</ele><time>2026-05-02T13:22:57.25Z</time></trkpt><trkpt lat="32.2357777" lon="-110.9808587"><ele>712.3333333333334</ele><time>2026-05-02T13:22:58.25Z</time></trkpt><trkpt lat="32.2357754" lon="-110.9806785"><ele>712.6666666666666</ele><time>2026-05-02T13:22:59.25Z</time></trkpt><trkpt lat="32.2357739" lon="-110.98049"><ele>713.0</ele><time>2026-05-02T13:23:00.25Z</time></trkpt><trkpt lat="32.2357746" lon="-110.9803082"><ele>713.0</ele><time>2026-05-02T13:23:01.251Z</time></trkpt><trkpt lat="32.2357779" lon="-110.9801306"><ele>713.0</ele><time>2026-05-02T13:23:02.249Z</time></trkpt><trkpt lat="32.2357796" lon="-110.9799575"><ele>713.0</ele><time>2026-05-02T13:23:03.251Z</time></trkpt><trkpt lat="32.2357818" lon="-110.9797853"><ele>713.0</ele><time>2026-05-02T13:23:04.249Z</time></trkpt><trkpt lat="32.2357852" lon="-110.9796088"><ele>714.0</ele><time>2026-05-02T13:23:05.251Z</time></trkpt><trkpt lat="32.2357915" lon="-110.9794298"><ele>715.0</ele><time>2026-05-02T13:23:06.251Z</time></trkpt><trkpt lat="32.2357998" lon="-110.9792483"><ele>716.0</ele><time>2026-05-02T13:23:07.249Z</time></trkpt><trkpt lat="32.2358048" lon="-110.9790627"><ele>716.3333333333333</ele><time>2026-05-02T13:23:08.25Z</time></trkpt><trkpt lat="32.235807" lon="-110.9788738"><ele>716.6666666666666</ele><time>2026-05-02T13:23:09.25Z</time></trkpt><trkpt lat="32.2358075" lon="-110.9786774"><ele>717.0</ele><time>2026-05-02T13:23:10.25Z</time></trkpt><trkpt lat="32.2358066" lon="-110.9784789"><ele>716.0</ele><time>2026-05-02T13:23:11.251Z</time></trkpt><trkpt lat="32.2358062" lon="-110.9782744"><ele>715.0</ele><time>2026-05-02T13:23:12.251Z</time></trkpt><trkpt lat="32.2358068" lon="-110.9780672"><ele>714.0</ele><time>2026-05-02T13:23:13.251Z</time></trkpt><trkpt lat="32.2358087" lon="-110.9778574"><ele>714.0</ele><time>2026-05-02T13:23:14.25Z</time></trkpt><trkpt lat="32.2358117" lon="-110.9776472"><ele>714.0</ele><time>2026-05-02T13:23:15.25Z</time></trkpt><trkpt lat="32.2358167" lon="-110.977437"><ele>714.0</ele><time>2026-05-02T13:23:16.25Z</time></trkpt><trkpt lat="32.2358227" lon="-110.9772309"><ele>715.0</ele><time>2026-05-02T13:23:17.25Z</time></trkpt><trkpt lat="32.235829" lon="-110.9770319"><ele>716.0</ele><time>2026-05-02T13:23:18.251Z</time></trkpt><trkpt lat="32.235836" lon="-110.9768383"><ele>717.0</ele><time>2026-05-02T13:23:19.25Z</time></trkpt><trkpt lat="32.2358432" lon="-110.9766453"><ele>717.0</ele><time>2026-05-02T13:23:20.25Z</time></trkpt><trkpt lat="32.2358496" lon="-110.9764537"><ele>717.0</ele><time>2026-05-02T13:23:21.251Z</time></trkpt><trkpt lat="32.2358588" lon="-110.9762648"><ele>717.0</ele><time>2026-05-02T13:23:22.251Z</time></trkpt><trkpt lat="32.2358652" lon="-110.9760756"><ele>717.0</ele><time>2026-05-02T13:23:23.25Z</time></trkpt><trkpt lat="32.2358728" lon="-110.9758901"><ele>717.0</ele><time>2026-05-02T13:23:24.251Z</time></trkpt><trkpt lat="32.2358745" lon="-110.9757055"><ele>717.0</ele><time>2026-05-02T13:23:25.25Z</time></trkpt><trkpt lat="32.2358801" lon="-110.9755196"><ele>717.25</ele><time>2026-05-02T13:23:26.25Z</time></trkpt><trkpt lat="32.2358857" lon="-110.9753421"><ele>717.5</ele><time>2026-05-02T13:23:27.251Z</time></trkpt><trkpt lat="32.2358859" lon="-110.9751719"><ele>717.75</ele><time>2026-05-02T13:23:28.251Z</time></trkpt><trkpt lat="32.2358889" lon="-110.9750023"><ele>718.0</ele><time>2026-05-02T13:23:29.25Z</time></trkpt><trkpt lat="32.2358913" lon="-110.9748329"><ele>718.25</ele><time>2026-05-02T13:23:30.25Z</time></trkpt><trkpt lat="32.2358924" lon="-110.9746585"><ele>718.5</ele><time>2026-05-02T13:23:31.251Z</time></trkpt><trkpt lat="32.2358962" lon="-110.9744879"><ele>718.75</ele><time>2026-05-02T13:23:32.251Z</time></trkpt><trkpt lat="32.2358969" lon="-110.9743174"><ele>719.0</ele><time>2026-05-02T13:23:33.25Z</time></trkpt><trkpt lat="32.2358969" lon="-110.9741547"><ele>719.0</ele><time>2026-05-02T13:23:34.25Z</time></trkpt><trkpt lat="32.2358995" lon="-110.9739916"><ele>719.0</ele><time>2026-05-02T13:23:35.25Z</time></trkpt><trkpt lat="32.2359025" lon="-110.9738325"><ele>719.0</ele><time>2026-05-02T13:23:36.25Z</time></trkpt><trkpt lat="32.235903" lon="-110.9736725"><ele>719.0</ele><time>2026-05-02T13:23:37.251Z</time></trkpt><trkpt lat="32.2359004" lon="-110.9735113"><ele>720.3333333333333</ele><time>2026-05-02T13:23:38.251Z</time></trkpt><trkpt lat="32.2359" lon="-110.9733408"><ele>721.6666666666666</ele><time>2026-05-02T13:23:39.251Z</time></trkpt><trkpt lat="32.2358998" lon="-110.9731626"><ele>723.0</ele><time>2026-05-02T13:23:40.25Z</time></trkpt><trkpt lat="32.2358987" lon="-110.9729797"><ele>723.0</ele><time>2026-05-02T13:23:41.251Z</time></trkpt><trkpt lat="32.2359007" lon="-110.972798"><ele>723.0</ele><time>2026-05-02T13:23:42.25Z</time></trkpt><trkpt lat="32.2358948" lon="-110.9726142"><ele>723.0</ele><time>2026-05-02T13:23:43.25Z</time></trkpt><trkpt lat="32.2358903" lon="-110.9724324"><ele>723.3333333333334</ele><time>2026-05-02T13:23:44.251Z</time></trkpt><trkpt lat="32.2358852" lon="-110.9722509"><ele>723.6666666666667</ele><time>2026-05-02T13:23:45.25Z</time></trkpt><trkpt lat="32.2358804" lon="-110.9720639"><ele>724.0</ele><time>2026-05-02T13:23:46.25Z</time></trkpt><trkpt lat="32.2358777" lon="-110.9718759"><ele>725.6666666666667</ele><time>2026-05-02T13:23:47.25Z</time></trkpt><trkpt lat="32.2358755" lon="-110.9716858"><ele>727.3333333333334</ele><time>2026-05-02T13:23:48.25Z</time></trkpt><trkpt lat="32.2358718" lon="-110.9714917"><ele>729.0</ele><time>2026-05-02T13:23:49.25Z</time></trkpt><trkpt lat="32.2358689" lon="-110.9713002"><ele>729.0</ele><time>2026-05-02T13:23:50.251Z</time></trkpt><trkpt lat="32.2358668" lon="-110.9711096"><ele>729.0</ele><time>2026-05-02T13:23:51.251Z</time></trkpt><trkpt lat="32.2358673" lon="-110.970919"><ele>729.0</ele><time>2026-05-02T13:23:52.251Z</time></trkpt><trkpt lat="32.2358724" lon="-110.9707254"><ele>729.0</ele><time>2026-05-02T13:23:53.25Z</time></trkpt><trkpt lat="32.2358728" lon="-110.970537"><ele>729.0</ele><time>2026-05-02T13:23:54.251Z</time></trkpt><trkpt lat="32.2358718" lon="-110.9703504"><ele>729.0</ele><time>2026-05-02T13:23:55.25Z</time></trkpt><trkpt lat="32.2358716" lon="-110.9701642"><ele>728.3333333333334</ele><time>2026-05-02T13:23:56.25Z</time></trkpt><trkpt lat="32.2358718" lon="-110.969978"><ele>727.6666666666667</ele><time>2026-05-02T13:23:57.251Z</time></trkpt><trkpt lat="32.2358707" lon="-110.9697934"><ele>727.0</ele><time>2026-05-02T13:23:58.25Z</time></trkpt><trkpt lat="32.2358732" lon="-110.9696077"><ele>727.0</ele><time>2026-05-02T13:23:59.251Z</time></trkpt><trkpt lat="32.235874" lon="-110.9694231"><ele>727.0</ele><time>2026-05-02T13:24:00.25Z</time></trkpt><trkpt lat="32.2358729" lon="-110.9692406"><ele>727.0</ele><time>2026-05-02T13:24:01.251Z</time></trkpt><trkpt lat="32.2358756" lon="-110.9690537"><ele>727.6666666666667</ele><time>2026-05-02T13:24:02.25Z</time></trkpt><trkpt lat="32.2358758" lon="-110.9688673"><ele>728.3333333333334</ele><time>2026-05-02T13:24:03.251Z</time></trkpt><trkpt lat="32.2358771" lon="-110.9686859"><ele>729.0</ele><time>2026-05-02T13:24:04.25Z</time></trkpt><trkpt lat="32.2358788" lon="-110.9684989"><ele>729.6666666666666</ele><time>2026-05-02T13:24:05.251Z</time></trkpt><trkpt lat="32.2358785" lon="-110.9683111"><ele>730.3333333333333</ele><time>2026-05-02T13:24:06.251Z</time></trkpt><trkpt lat="32.2358819" lon="-110.9681218"><ele>731.0</ele><time>2026-05-02T13:24:07.251Z</time></trkpt><trkpt lat="32.2358829" lon="-110.9679313"><ele>731.0</ele><time>2026-05-02T13:24:08.25Z</time></trkpt><trkpt lat="32.235882" lon="-110.9677423"><ele>731.0</ele><time>2026-05-02T13:24:09.251Z</time></trkpt><trkpt lat="32.2358857" lon="-110.967549"><ele>731.0</ele><time>2026-05-02T13:24:10.25Z</time></trkpt><trkpt lat="32.2358868" lon="-110.9673566"><ele>730.6666666666666</ele><time>2026-05-02T13:24:11.252Z</time></trkpt><trkpt lat="32.2358874" lon="-110.9671601"><ele>730.3333333333334</ele><time>2026-05-02T13:24:12.251Z</time></trkpt><trkpt lat="32.235889" lon="-110.9669672"><ele>730.0</ele><time>2026-05-02T13:24:13.251Z</time></trkpt><trkpt lat="32.2358896" lon="-110.9667689"><ele>729.3333333333334</ele><time>2026-05-02T13:24:14.251Z</time></trkpt><trkpt lat="32.2358903" lon="-110.966575"><ele>728.6666666666666</ele><time>2026-05-02T13:24:15.251Z</time></trkpt><trkpt lat="32.2358915" lon="-110.96638"><ele>728.0</ele><time>2026-05-02T13:24:16.25Z</time></trkpt><trkpt lat="32.2358947" lon="-110.966189"><ele>728.0</ele><time>2026-05-02T13:24:17.251Z</time></trkpt><trkpt lat="32.2358933" lon="-110.9659997"><ele>728.0</ele><time>2026-05-02T13:24:18.252Z</time></trkpt><trkpt lat="32.2358968" lon="-110.9658039"><ele>728.0</ele><time>2026-05-02T13:24:19.252Z</time></trkpt><trkpt lat="32.2358976" lon="-110.965613"><ele>728.3333333333333</ele><time>2026-05-02T13:24:20.252Z</time></trkpt><trkpt lat="32.2358995" lon="-110.9654197"><ele>728.6666666666666</ele><time>2026-05-02T13:24:21.252Z</time></trkpt><trkpt lat="32.2359008" lon="-110.9652284"><ele>729.0</ele><time>2026-05-02T13:24:22.251Z</time></trkpt><trkpt lat="32.2359029" lon="-110.9650359"><ele>730.6666666666666</ele><time>2026-05-02T13:24:23.252Z</time></trkpt><trkpt lat="32.2359021" lon="-110.9648401"><ele>732.3333333333333</ele><time>2026-05-02T13:24:24.251Z</time></trkpt><trkpt lat="32.2359013" lon="-110.9646444"><ele>734.0</ele><time>2026-05-02T13:24:25.252Z</time></trkpt><trkpt lat="32.2359017" lon="-110.964446"><ele>734.0</ele><time>2026-05-02T13:24:26.251Z</time></trkpt><trkpt lat="32.2359019" lon="-110.9642531"><ele>734.0</ele><time>2026-05-02T13:24:27.252Z</time></trkpt><trkpt lat="32.235904" lon="-110.9640597"><ele>734.0</ele><time>2026-05-02T13:24:28.25Z</time></trkpt><trkpt lat="32.2359073" lon="-110.9638648"><ele>734.0</ele><time>2026-05-02T13:24:29.251Z</time></trkpt><trkpt lat="32.2359078" lon="-110.9636713"><ele>734.0</ele><time>2026-05-02T13:24:30.251Z</time></trkpt><trkpt lat="32.2359086" lon="-110.9634789"><ele>734.0</ele><time>2026-05-02T13:24:31.251Z</time></trkpt><trkpt lat="32.2359094" lon="-110.9632873"><ele>734.0</ele><time>2026-05-02T13:24:32.252Z</time></trkpt><trkpt lat="32.23591" lon="-110.9630926"><ele>734.0</ele><time>2026-05-02T13:24:33.25Z</time></trkpt><trkpt lat="32.2359099" lon="-110.9629038"><ele>734.0</ele><time>2026-05-02T13:24:34.252Z</time></trkpt><trkpt lat="32.2359115" lon="-110.9627102"><ele>734.0</ele><time>2026-05-02T13:24:35.251Z</time></trkpt><trkpt lat="32.235915" lon="-110.9625211"><ele>734.0</ele><time>2026-05-02T13:24:36.252Z</time></trkpt><trkpt lat="32.2359227" lon="-110.9623275"><ele>734.0</ele><time>2026-05-02T13:24:37.252Z</time></trkpt><trkpt lat="32.2359278" lon="-110.9621321"><ele>734.0</ele><time>2026-05-02T13:24:38.252Z</time></trkpt><trkpt lat="32.2359307" lon="-110.9619401"><ele>734.0</ele><time>2026-05-02T13:24:39.251Z</time></trkpt><trkpt lat="32.2359365" lon="-110.9617516"><ele>734.0</ele><time>2026-05-02T13:24:40.252Z</time></trkpt><trkpt lat="32.2359396" lon="-110.9615649"><ele>734.0</ele><time>2026-05-02T13:24:41.251Z</time></trkpt><trkpt lat="32.2359405" lon="-110.961381"><ele>734.0</ele><time>2026-05-02T13:24:42.252Z</time></trkpt><trkpt lat="32.2359464" lon="-110.9611945"><ele>734.0</ele><time>2026-05-02T13:24:43.251Z</time></trkpt><trkpt lat="32.2359503" lon="-110.9610126"><ele>733.75</ele><time>2026-05-02T13:24:44.251Z</time></trkpt><trkpt lat="32.2359561" lon="-110.9608302"><ele>733.5</ele><time>2026-05-02T13:24:45.251Z</time></trkpt><trkpt lat="32.2359621" lon="-110.9606603"><ele>733.25</ele><time>2026-05-02T13:24:46.251Z</time></trkpt><trkpt lat="32.2359675" lon="-110.9604977"><ele>733.0</ele><time>2026-05-02T13:24:47.251Z</time></trkpt><trkpt lat="32.2359749" lon="-110.9603519"><ele>733.0</ele><time>2026-05-02T13:24:48.251Z</time></trkpt><trkpt lat="32.235986" lon="-110.960221"><ele>733.0</ele><time>2026-05-02T13:24:49.252Z</time></trkpt><trkpt lat="32.2359949" lon="-110.9601045"><ele>733.0</ele><time>2026-05-02T13:24:50.252Z</time></trkpt><trkpt lat="32.2360029" lon="-110.9600081"><ele>733.0</ele><time>2026-05-02T13:24:51.252Z</time></trkpt><trkpt lat="32.2360023" lon="-110.9599188"><ele>733.0</ele><time>2026-05-02T13:24:52.252Z</time></trkpt><trkpt lat="32.2360038" lon="-110.959791"><ele>733.5</ele><time>2026-05-02T13:24:54.252Z</time></trkpt><trkpt lat="32.236007" lon="-110.9597058"><ele>734.0</ele><time>2026-05-02T13:24:57.251Z</time></trkpt><trkpt lat="32.2360197" lon="-110.9596144"><ele>734.5</ele><time>2026-05-02T13:25:45.251Z</time></trkpt><trkpt lat="32.2360934" lon="-110.959533"><ele>735.0</ele><time>2026-05-02T13:25:47.252Z</time></trkpt><trkpt lat="32.2361539" lon="-110.9595023"><ele>735.5</ele><time>2026-05-02T13:25:48.252Z</time></trkpt><trkpt lat="32.2362327" lon="-110.9594804"><ele>736.0</ele><time>2026-05-02T13:25:49.252Z</time></trkpt><trkpt lat="32.2363314" lon="-110.9594695"><ele>736.0</ele><time>2026-05-02T13:25:50.252Z</time></trkpt><trkpt lat="32.2364449" lon="-110.9594675"><ele>736.0</ele><time>2026-05-02T13:25:51.252Z</time></trkpt><trkpt lat="32.2365722" lon="-110.9594675"><ele>736.0</ele><time>2026-05-02T13:25:52.252Z</time></trkpt><trkpt lat="32.2367174" lon="-110.9594686"><ele>736.0</ele><time>2026-05-02T13:25:53.251Z</time></trkpt><trkpt lat="32.2368732" lon="-110.9594715"><ele>735.6666666666667</ele><time>2026-05-02T13:25:54.253Z</time></trkpt><trkpt lat="32.2370408" lon="-110.9594742"><ele>735.3333333333334</ele><time>2026-05-02T13:25:55.252Z</time></trkpt><trkpt lat="32.2372157" lon="-110.9594751"><ele>735.0</ele><time>2026-05-02T13:25:56.251Z</time></trkpt><trkpt lat="32.237396" lon="-110.959476"><ele>736.0</ele><time>2026-05-02T13:25:57.251Z</time></trkpt><trkpt lat="32.2375799" lon="-110.9594775"><ele>737.0</ele><time>2026-05-02T13:25:58.251Z</time></trkpt><trkpt lat="32.2377659" lon="-110.9594787"><ele>738.0</ele><time>2026-05-02T13:25:59.252Z</time></trkpt><trkpt lat="32.2379512" lon="-110.9594795"><ele>738.0</ele><time>2026-05-02T13:26:00.253Z</time></trkpt><trkpt lat="32.2381342" lon="-110.95948"><ele>738.0</ele><time>2026-05-02T13:26:01.251Z</time></trkpt><trkpt lat="32.2383162" lon="-110.9594811"><ele>738.0</ele><time>2026-05-02T13:26:02.252Z</time></trkpt><trkpt lat="32.2384974" lon="-110.9594829"><ele>736.3333333333334</ele><time>2026-05-02T13:26:03.251Z</time></trkpt><trkpt lat="32.2386776" lon="-110.9594854"><ele>734.6666666666667</ele><time>2026-05-02T13:26:04.251Z</time></trkpt><trkpt lat="32.2388563" lon="-110.959487"><ele>733.0</ele><time>2026-05-02T13:26:05.251Z</time></trkpt><trkpt lat="32.2390359" lon="-110.9594881"><ele>733.0</ele><time>2026-05-02T13:26:06.252Z</time></trkpt><trkpt lat="32.2392156" lon="-110.9594911"><ele>733.0</ele><time>2026-05-02T13:26:07.251Z</time></trkpt><trkpt lat="32.2393945" lon="-110.9594927"><ele>733.0</ele><time>2026-05-02T13:26:08.252Z</time></trkpt><trkpt lat="32.2395678" lon="-110.959495"><ele>733.0</ele><time>2026-05-02T13:26:09.252Z</time></trkpt><trkpt lat="32.2397431" lon="-110.9594968"><ele>733.0</ele><time>2026-05-02T13:26:10.253Z</time></trkpt><trkpt lat="32.239918" lon="-110.9594949"><ele>733.0</ele><time>2026-05-02T13:26:11.253Z</time></trkpt><trkpt lat="32.2400978" lon="-110.9594977"><ele>733.0</ele><time>2026-05-02T13:26:12.252Z</time></trkpt><trkpt lat="32.240282" lon="-110.9594975"><ele>733.0</ele><time>2026-05-02T13:26:13.253Z</time></trkpt><trkpt lat="32.2404636" lon="-110.9594992"><ele>733.0</ele><time>2026-05-02T13:26:14.252Z</time></trkpt><trkpt lat="32.240649" lon="-110.9594996"><ele>734.3333333333334</ele><time>2026-05-02T13:26:15.252Z</time></trkpt><trkpt lat="32.2408309" lon="-110.9595045"><ele>735.6666666666666</ele><time>2026-05-02T13:26:16.253Z</time></trkpt><trkpt lat="32.2410142" lon="-110.9595072"><ele>737.0</ele><time>2026-05-02T13:26:17.253Z</time></trkpt><trkpt lat="32.2411927" lon="-110.9595082"><ele>737.0</ele><time>2026-05-02T13:26:18.252Z</time></trkpt><trkpt lat="32.2413763" lon="-110.9595095"><ele>737.0</ele><time>2026-05-02T13:26:19.252Z</time></trkpt><trkpt lat="32.2415558" lon="-110.9595125"><ele>737.0</ele><time>2026-05-02T13:26:20.252Z</time></trkpt><trkpt lat="32.2417374" lon="-110.9595148"><ele>737.0</ele><time>2026-05-02T13:26:21.252Z</time></trkpt><trkpt lat="32.2419188" lon="-110.95952"><ele>737.0</ele><time>2026-05-02T13:26:22.252Z</time></trkpt><trkpt lat="32.2420939" lon="-110.9595244"><ele>737.0</ele><time>2026-05-02T13:26:23.252Z</time></trkpt><trkpt lat="32.2422722" lon="-110.9595244"><ele>736.6666666666666</ele><time>2026-05-02T13:26:24.252Z</time></trkpt><trkpt lat="32.2424496" lon="-110.9595279"><ele>736.3333333333334</ele><time>2026-05-02T13:26:25.252Z</time></trkpt><trkpt lat="32.2426264" lon="-110.9595295"><ele>736.0</ele><time>2026-05-02T13:26:26.253Z</time></trkpt><trkpt lat="32.2428007" lon="-110.9595285"><ele>736.0</ele><time>2026-05-02T13:26:27.253Z</time></trkpt><trkpt lat="32.2429795" lon="-110.9595277"><ele>736.0</ele><time>2026-05-02T13:26:28.252Z</time></trkpt><trkpt lat="32.24316" lon="-110.9595335"><ele>736.0</ele><time>2026-05-02T13:26:29.252Z</time></trkpt><trkpt lat="32.2433449" lon="-110.9595363"><ele>734.6666666666667</ele><time>2026-05-02T13:26:30.252Z</time></trkpt><trkpt lat="32.2435239" lon="-110.9595343"><ele>733.3333333333334</ele><time>2026-05-02T13:26:31.253Z</time></trkpt><trkpt lat="32.2437068" lon="-110.9595368"><ele>732.0</ele><time>2026-05-02T13:26:32.253Z</time></trkpt><trkpt lat="32.2438908" lon="-110.959538"><ele>732.0</ele><time>2026-05-02T13:26:33.252Z</time></trkpt><trkpt lat="32.2440759" lon="-110.9595366"><ele>732.0</ele><time>2026-05-02T13:26:34.252Z</time></trkpt><trkpt lat="32.2442607" lon="-110.959535"><ele>732.0</ele><time>2026-05-02T13:26:35.252Z</time></trkpt><trkpt lat="32.2444428" lon="-110.959537"><ele>732.0</ele><time>2026-05-02T13:26:36.253Z</time></trkpt><trkpt lat="32.2446254" lon="-110.959538"><ele>732.0</ele><time>2026-05-02T13:26:37.253Z</time></trkpt><trkpt lat="32.2448157" lon="-110.9595373"><ele>732.0</ele><time>2026-05-02T13:26:38.252Z</time></trkpt><trkpt lat="32.2450052" lon="-110.9595415"><ele>732.3333333333334</ele><time>2026-05-02T13:26:39.253Z</time></trkpt><trkpt lat="32.2451958" lon="-110.95954"><ele>732.6666666666667</ele><time>2026-05-02T13:26:40.252Z</time></trkpt><trkpt lat="32.2453839" lon="-110.959542"><ele>733.0</ele><time>2026-05-02T13:26:41.252Z</time></trkpt><trkpt lat="32.2455683" lon="-110.9595398"><ele>732.6666666666667</ele><time>2026-05-02T13:26:42.253Z</time></trkpt><trkpt lat="32.245752" lon="-110.9595388"><ele>732.3333333333334</ele><time>2026-05-02T13:26:43.253Z</time></trkpt><trkpt lat="32.2459332" lon="-110.9595421"><ele>732.0</ele><time>2026-05-02T13:26:44.253Z</time></trkpt><trkpt lat="32.2461136" lon="-110.9595415"><ele>732.0</ele><time>2026-05-02T13:26:45.252Z</time></trkpt><trkpt lat="32.2462984" lon="-110.9595444"><ele>732.0</ele><time>2026-05-02T13:26:46.252Z</time></trkpt><trkpt lat="32.2464781" lon="-110.9595431"><ele>732.0</ele><time>2026-05-02T13:26:47.253Z</time></trkpt><trkpt lat="32.2466588" lon="-110.9595468"><ele>732.3333333333334</ele><time>2026-05-02T13:26:48.252Z</time></trkpt><trkpt lat="32.2468384" lon="-110.9595538"><ele>732.6666666666667</ele><time>2026-05-02T13:26:49.253Z</time></trkpt><trkpt lat="32.2470146" lon="-110.9595733"><ele>733.0</ele><time>2026-05-02T13:26:50.252Z</time></trkpt><trkpt lat="32.2471857" lon="-110.9596106"><ele>734.0</ele><time>2026-05-02T13:26:51.253Z</time></trkpt><trkpt lat="32.2473585" lon="-110.959675"><ele>735.0</ele><time>2026-05-02T13:26:52.252Z</time></trkpt><trkpt lat="32.2475261" lon="-110.9597599"><ele>736.0</ele><time>2026-05-02T13:26:53.252Z</time></trkpt><trkpt lat="32.2476848" lon="-110.9598635"><ele>736.0</ele><time>2026-05-02T13:26:54.253Z</time></trkpt><trkpt lat="32.2478368" lon="-110.9599804"><ele>736.0</ele><time>2026-05-02T13:26:55.253Z</time></trkpt><trkpt lat="32.2479853" lon="-110.9600977"><ele>736.0</ele><time>2026-05-02T13:26:56.252Z</time></trkpt><trkpt lat="32.2481333" lon="-110.9602164"><ele>736.6666666666667</ele><time>2026-05-02T13:26:57.252Z</time></trkpt><trkpt lat="32.2482816" lon="-110.9603277"><ele>737.3333333333334</ele><time>2026-05-02T13:26:58.253Z</time></trkpt><trkpt lat="32.2484285" lon="-110.9604325"><ele>738.0</ele><time>2026-05-02T13:26:59.253Z</time></trkpt><trkpt lat="32.2485744" lon="-110.960524"><ele>738.0</ele><time>2026-05-02T13:27:00.252Z</time></trkpt><trkpt lat="32.2487253" lon="-110.9606112"><ele>738.0</ele><time>2026-05-02T13:27:01.252Z</time></trkpt><trkpt lat="32.2488782" lon="-110.96069"><ele>738.0</ele><time>2026-05-02T13:27:02.253Z</time></trkpt><trkpt lat="32.2490336" lon="-110.9607565"><ele>737.5</ele><time>2026-05-02T13:27:03.253Z</time></trkpt><trkpt lat="32.2491852" lon="-110.9608121"><ele>737.0</ele><time>2026-05-02T13:27:04.252Z</time></trkpt><trkpt lat="32.2493207" lon="-110.9608546"><ele>736.5</ele><time>2026-05-02T13:27:05.252Z</time></trkpt><trkpt lat="32.2494496" lon="-110.9608895"><ele>736.0</ele><time>2026-05-02T13:27:06.253Z</time></trkpt><trkpt lat="32.2495636" lon="-110.9609102"><ele>735.5999999999999</ele><time>2026-05-02T13:27:07.253Z</time></trkpt><trkpt lat="32.2496709" lon="-110.9609329"><ele>735.2</ele><time>2026-05-02T13:27:08.252Z</time></trkpt><trkpt lat="32.2497589" lon="-110.9609429"><ele>734.8</ele><time>2026-05-02T13:27:09.253Z</time></trkpt><trkpt lat="32.2498319" lon="-110.9609535"><ele>734.4000000000001</ele><time>2026-05-02T13:27:10.252Z</time></trkpt><trkpt lat="32.2499386" lon="-110.9609688"><ele>734.0</ele><time>2026-05-02T13:27:12.253Z</time></trkpt><trkpt lat="32.2500137" lon="-110.9609747"><ele>733.4000000000001</ele><time>2026-05-02T13:27:14.253Z</time></trkpt><trkpt lat="32.2501094" lon="-110.9609781"><ele>732.8</ele><time>2026-05-02T13:27:42.254Z</time></trkpt><trkpt lat="32.2502456" lon="-110.9609774"><ele>732.2</ele><time>2026-05-02T13:27:44.253Z</time></trkpt><trkpt lat="32.2503376" lon="-110.9609766"><ele>731.5999999999999</ele><time>2026-05-02T13:27:45.254Z</time></trkpt><trkpt lat="32.2504467" lon="-110.9609758"><ele>731.0</ele><time>2026-05-02T13:27:46.253Z</time></trkpt><trkpt lat="32.2505644" lon="-110.9609719"><ele>731.25</ele><time>2026-05-02T13:27:47.254Z</time></trkpt><trkpt lat="32.2506958" lon="-110.9609672"><ele>731.5</ele><time>2026-05-02T13:27:48.254Z</time></trkpt><trkpt lat="32.2508359" lon="-110.9609634"><ele>731.75</ele><time>2026-05-02T13:27:49.253Z</time></trkpt><trkpt lat="32.2509887" lon="-110.9609578"><ele>732.0</ele><time>2026-05-02T13:27:50.254Z</time></trkpt><trkpt lat="32.2511548" lon="-110.9609518"><ele>732.0</ele><time>2026-05-02T13:27:51.254Z</time></trkpt><trkpt lat="32.2513271" lon="-110.9609478"><ele>732.0</ele><time>2026-05-02T13:27:52.254Z</time></trkpt><trkpt lat="32.2515041" lon="-110.9609441"><ele>732.0</ele><time>2026-05-02T13:27:53.253Z</time></trkpt><trkpt lat="32.2516811" lon="-110.9609403"><ele>731.6666666666666</ele><time>2026-05-02T13:27:54.253Z</time></trkpt><trkpt lat="32.2518572" lon="-110.9609378"><ele>731.3333333333333</ele><time>2026-05-02T13:27:55.253Z</time></trkpt><trkpt lat="32.2520318" lon="-110.9609366"><ele>731.0</ele><time>2026-05-02T13:27:56.254Z</time></trkpt><trkpt lat="32.2522061" lon="-110.9609363"><ele>730.3333333333333</ele><time>2026-05-02T13:27:57.254Z</time></trkpt><trkpt lat="32.2523793" lon="-110.9609372"><ele>729.6666666666666</ele><time>2026-05-02T13:27:58.254Z</time></trkpt><trkpt lat="32.2525533" lon="-110.9609371"><ele>729.0</ele><time>2026-05-02T13:27:59.254Z</time></trkpt><trkpt lat="32.2527273" lon="-110.9609375"><ele>729.0</ele><time>2026-05-02T13:28:00.254Z</time></trkpt><trkpt lat="32.2529019" lon="-110.9609379"><ele>729.0</ele><time>2026-05-02T13:28:01.254Z</time></trkpt><trkpt lat="32.2530744" lon="-110.960939"><ele>729.0</ele><time>2026-05-02T13:28:02.254Z</time></trkpt><trkpt lat="32.2532495" lon="-110.9609394"><ele>728.6666666666666</ele><time>2026-05-02T13:28:03.254Z</time></trkpt><trkpt lat="32.2534228" lon="-110.9609387"><ele>728.3333333333333</ele><time>2026-05-02T13:28:04.254Z</time></trkpt><trkpt lat="32.2535975" lon="-110.9609401"><ele>728.0</ele><time>2026-05-02T13:28:05.254Z</time></trkpt><trkpt lat="32.2537707" lon="-110.9609413"><ele>728.0</ele><time>2026-05-02T13:28:06.253Z</time></trkpt><trkpt lat="32.2539435" lon="-110.9609413"><ele>728.0</ele><time>2026-05-02T13:28:07.254Z</time></trkpt><trkpt lat="32.2541177" lon="-110.9609422"><ele>728.0</ele><time>2026-05-02T13:28:08.254Z</time></trkpt><trkpt lat="32.2542894" lon="-110.9609421"><ele>728.0</ele><time>2026-05-02T13:28:09.255Z</time></trkpt><trkpt lat="32.2544638" lon="-110.9609424"><ele>728.0</ele><time>2026-05-02T13:28:10.253Z</time></trkpt><trkpt lat="32.2546372" lon="-110.9609414"><ele>728.0</ele><time>2026-05-02T13:28:11.254Z</time></trkpt><trkpt lat="32.2548073" lon="-110.9609403"><ele>727.6666666666666</ele><time>2026-05-02T13:28:12.253Z</time></trkpt><trkpt lat="32.2549784" lon="-110.9609403"><ele>727.3333333333334</ele><time>2026-05-02T13:28:13.253Z</time></trkpt><trkpt lat="32.2551515" lon="-110.9609413"><ele>727.0</ele><time>2026-05-02T13:28:14.253Z</time></trkpt><trkpt lat="32.2553261" lon="-110.9609429"><ele>727.0</ele><time>2026-05-02T13:28:15.253Z</time></trkpt><trkpt lat="32.2554966" lon="-110.9609433"><ele>727.0</ele><time>2026-05-02T13:28:16.254Z</time></trkpt><trkpt lat="32.2556667" lon="-110.9609451"><ele>727.0</ele><time>2026-05-02T13:28:17.254Z</time></trkpt><trkpt lat="32.2558356" lon="-110.9609454"><ele>726.3333333333334</ele><time>2026-05-02T13:28:18.254Z</time></trkpt><trkpt lat="32.2560062" lon="-110.9609467"><ele>725.6666666666666</ele><time>2026-05-02T13:28:19.254Z</time></trkpt><trkpt lat="32.2561695" lon="-110.9609486"><ele>725.0</ele><time>2026-05-02T13:28:20.254Z</time></trkpt><trkpt lat="32.2563243" lon="-110.9609492"><ele>724.5</ele><time>2026-05-02T13:28:21.253Z</time></trkpt><trkpt lat="32.2564713" lon="-110.9609494"><ele>724.0</ele><time>2026-05-02T13:28:22.253Z</time></trkpt><trkpt lat="32.2566097" lon="-110.9609479"><ele>723.5</ele><time>2026-05-02T13:28:23.253Z</time></trkpt><trkpt lat="32.2567349" lon="-110.9609477"><ele>723.0</ele><time>2026-05-02T13:28:24.253Z</time></trkpt><trkpt lat="32.2568491" lon="-110.9609479"><ele>723.0</ele><time>2026-05-02T13:28:25.254Z</time></trkpt><trkpt lat="32.2569564" lon="-110.9609475"><ele>723.0</ele><time>2026-05-02T13:28:26.253Z</time></trkpt><trkpt lat="32.2570532" lon="-110.9609479"><ele>723.0</ele><time>2026-05-02T13:28:27.253Z</time></trkpt><trkpt lat="32.2571389" lon="-110.9609482"><ele>723.0</ele><time>2026-05-02T13:28:28.255Z</time></trkpt><trkpt lat="32.257216" lon="-110.9609497"><ele>723.0</ele><time>2026-05-02T13:28:29.254Z</time></trkpt><trkpt lat="32.2572824" lon="-110.9609499"><ele>723.0</ele><time>2026-05-02T13:28:30.253Z</time></trkpt><trkpt lat="32.2574178" lon="-110.9609495"><ele>722.8</ele><time>2026-05-02T13:28:32.253Z</time></trkpt><trkpt lat="32.2575041" lon="-110.9609495"><ele>722.5999999999999</ele><time>2026-05-02T13:28:33.253Z</time></trkpt><trkpt lat="32.257607" lon="-110.9609495"><ele>722.4000000000001</ele><time>2026-05-02T13:28:34.254Z</time></trkpt><trkpt lat="32.257719" lon="-110.9609512"><ele>722.2</ele><time>2026-05-02T13:28:35.254Z</time></trkpt><trkpt lat="32.2578454" lon="-110.9609532"><ele>722.0</ele><time>2026-05-02T13:28:36.253Z</time></trkpt><trkpt lat="32.2579808" lon="-110.9609523"><ele>721.6666666666666</ele><time>2026-05-02T13:28:37.253Z</time></trkpt><trkpt lat="32.258126" lon="-110.9609552"><ele>721.3333333333334</ele><time>2026-05-02T13:28:38.253Z</time></trkpt><trkpt lat="32.258279" lon="-110.9609558"><ele>721.0</ele><time>2026-05-02T13:28:39.254Z</time></trkpt><trkpt lat="32.2584396" lon="-110.9609555"><ele>721.0</ele><time>2026-05-02T13:28:40.254Z</time></trkpt><trkpt lat="32.2586069" lon="-110.9609549"><ele>721.0</ele><time>2026-05-02T13:28:41.254Z</time></trkpt><trkpt lat="32.2587767" lon="-110.9609551"><ele>721.0</ele><time>2026-05-02T13:28:42.254Z</time></trkpt><trkpt lat="32.258948" lon="-110.9609544"><ele>720.6666666666667</ele><time>2026-05-02T13:28:43.253Z</time></trkpt><trkpt lat="32.2591211" lon="-110.9609547"><ele>720.3333333333334</ele><time>2026-05-02T13:28:44.254Z</time></trkpt><trkpt lat="32.2592911" lon="-110.9609557"><ele>720.0</ele><time>2026-05-02T13:28:45.253Z</time></trkpt><trkpt lat="32.2594578" lon="-110.9609549"><ele>720.0</ele><time>2026-05-02T13:28:46.253Z</time></trkpt><trkpt lat="32.2596261" lon="-110.9609543"><ele>720.0</ele><time>2026-05-02T13:28:47.255Z</time></trkpt><trkpt lat="32.2597898" lon="-110.9609522"><ele>720.0</ele><time>2026-05-02T13:28:48.253Z</time></trkpt><trkpt lat="32.2599535" lon="-110.9609519"><ele>719.3333333333334</ele><time>2026-05-02T13:28:49.253Z</time></trkpt><trkpt lat="32.2601186" lon="-110.9609511"><ele>718.6666666666667</ele><time>2026-05-02T13:28:50.254Z</time></trkpt><trkpt lat="32.260284" lon="-110.9609514"><ele>718.0</ele><time>2026-05-02T13:28:51.254Z</time></trkpt><trkpt lat="32.2604525" lon="-110.9609539"><ele>717.0</ele><time>2026-05-02T13:28:52.255Z</time></trkpt><trkpt lat="32.2606212" lon="-110.9609559"><ele>716.0</ele><time>2026-05-02T13:28:53.253Z</time></trkpt><trkpt lat="32.2607897" lon="-110.960958"><ele>715.0</ele><time>2026-05-02T13:28:54.253Z</time></trkpt><trkpt lat="32.260955" lon="-110.9609596"><ele>715.0</ele><time>2026-05-02T13:28:55.253Z</time></trkpt><trkpt lat="32.2611222" lon="-110.9609609"><ele>715.0</ele><time>2026-05-02T13:28:56.254Z</time></trkpt><trkpt lat="32.2612928" lon="-110.9609625"><ele>715.0</ele><time>2026-05-02T13:28:57.253Z</time></trkpt><trkpt lat="32.2614643" lon="-110.960963"><ele>715.3333333333334</ele><time>2026-05-02T13:28:58.254Z</time></trkpt><trkpt lat="32.2616326" lon="-110.9609629"><ele>715.6666666666666</ele><time>2026-05-02T13:28:59.254Z</time></trkpt><trkpt lat="32.261802" lon="-110.9609607"><ele>716.0</ele><time>2026-05-02T13:29:00.253Z</time></trkpt><trkpt lat="32.2619724" lon="-110.9609593"><ele>716.0</ele><time>2026-05-02T13:29:01.254Z</time></trkpt><trkpt lat="32.2621416" lon="-110.9609587"><ele>716.0</ele><time>2026-05-02T13:29:02.253Z</time></trkpt><trkpt lat="32.2623083" lon="-110.9609571"><ele>716.0</ele><time>2026-05-02T13:29:03.254Z</time></trkpt><trkpt lat="32.2624732" lon="-110.9609575"><ele>716.6666666666666</ele><time>2026-05-02T13:29:04.254Z</time></trkpt><trkpt lat="32.2626342" lon="-110.9609591"><ele>717.3333333333334</ele><time>2026-05-02T13:29:05.253Z</time></trkpt><trkpt lat="32.2627876" lon="-110.9609617"><ele>718.0</ele><time>2026-05-02T13:29:06.254Z</time></trkpt><trkpt lat="32.2629349" lon="-110.9609613"><ele>718.0</ele><time>2026-05-02T13:29:07.254Z</time></trkpt><trkpt lat="32.2630774" lon="-110.9609628"><ele>718.0</ele><time>2026-05-02T13:29:08.255Z</time></trkpt><trkpt lat="32.2632141" lon="-110.9609629"><ele>718.0</ele><time>2026-05-02T13:29:09.255Z</time></trkpt><trkpt lat="32.2633459" lon="-110.9609612"><ele>718.0</ele><time>2026-05-02T13:29:10.255Z</time></trkpt><trkpt lat="32.2634718" lon="-110.9609612"><ele>718.0</ele><time>2026-05-02T13:29:11.255Z</time></trkpt><trkpt lat="32.2635929" lon="-110.9609618"><ele>718.0</ele><time>2026-05-02T13:29:12.254Z</time></trkpt><trkpt lat="32.2637122" lon="-110.9609621"><ele>718.0</ele><time>2026-05-02T13:29:13.254Z</time></trkpt><trkpt lat="32.263831" lon="-110.9609614"><ele>718.0</ele><time>2026-05-02T13:29:14.254Z</time></trkpt><trkpt lat="32.2639451" lon="-110.9609629"><ele>717.5999999999999</ele><time>2026-05-02T13:29:15.254Z</time></trkpt><trkpt lat="32.2640573" lon="-110.9609644"><ele>717.1999999999999</ele><time>2026-05-02T13:29:16.255Z</time></trkpt><trkpt lat="32.2641605" lon="-110.9609664"><ele>716.8</ele><time>2026-05-02T13:29:17.254Z</time></trkpt><trkpt lat="32.2642504" lon="-110.9609665"><ele>716.4</ele><time>2026-05-02T13:29:18.255Z</time></trkpt><trkpt lat="32.26433" lon="-110.9609666"><ele>716.0</ele><time>2026-05-02T13:29:19.255Z</time></trkpt><trkpt lat="32.2644032" lon="-110.9609657"><ele>716.0</ele><time>2026-05-02T13:29:20.254Z</time></trkpt><trkpt lat="32.264468" lon="-110.9609651"><ele>716.0</ele><time>2026-05-02T13:29:21.255Z</time></trkpt><trkpt lat="32.2645661" lon="-110.9609666"><ele>716.0</ele><time>2026-05-02T13:29:23.255Z</time></trkpt><trkpt lat="32.2646381" lon="-110.9609681"><ele>716.0</ele><time>2026-05-02T13:29:26.255Z</time></trkpt><trkpt lat="32.2647208" lon="-110.9609697"><ele>716.0</ele><time>2026-05-02T13:29:44.254Z</time></trkpt><trkpt lat="32.2647921" lon="-110.960971"><ele>716.0</ele><time>2026-05-02T13:29:45.254Z</time></trkpt><trkpt lat="32.2648725" lon="-110.9609711"><ele>716.0</ele><time>2026-05-02T13:29:46.255Z</time></trkpt><trkpt lat="32.2649725" lon="-110.9609714"><ele>716.0</ele><time>2026-05-02T13:29:47.255Z</time></trkpt><trkpt lat="32.2650854" lon="-110.9609701"><ele>716.0</ele><time>2026-05-02T13:29:48.255Z</time></trkpt><trkpt lat="32.2652144" lon="-110.9609693"><ele>716.0</ele><time>2026-05-02T13:29:49.255Z</time></trkpt><trkpt lat="32.2653602" lon="-110.9609702"><ele>716.0</ele><time>2026-05-02T13:29:50.255Z</time></trkpt><trkpt lat="32.2655114" lon="-110.9609696"><ele>716.0</ele><time>2026-05-02T13:29:51.255Z</time></trkpt><trkpt lat="32.2656696" lon="-110.960972"><ele>716.0</ele><time>2026-05-02T13:29:52.254Z</time></trkpt><trkpt lat="32.2658277" lon="-110.9609731"><ele>716.0</ele><time>2026-05-02T13:29:53.255Z</time></trkpt><trkpt lat="32.2659833" lon="-110.9609749"><ele>716.0</ele><time>2026-05-02T13:29:54.255Z</time></trkpt><trkpt lat="32.2661406" lon="-110.9609762"><ele>716.0</ele><time>2026-05-02T13:29:55.254Z</time></trkpt><trkpt lat="32.2662961" lon="-110.9609762"><ele>715.6666666666666</ele><time>2026-05-02T13:29:56.254Z</time></trkpt><trkpt lat="32.266454" lon="-110.9609771"><ele>715.3333333333334</ele><time>2026-05-02T13:29:57.255Z</time></trkpt><trkpt lat="32.2666143" lon="-110.9609789"><ele>715.0</ele><time>2026-05-02T13:29:58.255Z</time></trkpt><trkpt lat="32.266773" lon="-110.9609796"><ele>715.0</ele><time>2026-05-02T13:29:59.255Z</time></trkpt><trkpt lat="32.2669306" lon="-110.9609782"><ele>715.0</ele><time>2026-05-02T13:30:00.254Z</time></trkpt><trkpt lat="32.2670892" lon="-110.9609786"><ele>715.0</ele><time>2026-05-02T13:30:01.254Z</time></trkpt><trkpt lat="32.2672454" lon="-110.9609799"><ele>715.3333333333334</ele><time>2026-05-02T13:30:02.255Z</time></trkpt><trkpt lat="32.2674044" lon="-110.960981"><ele>715.6666666666666</ele><time>2026-05-02T13:30:03.254Z</time></trkpt><trkpt lat="32.2675626" lon="-110.9609832"><ele>716.0</ele><time>2026-05-02T13:30:04.255Z</time></trkpt><trkpt lat="32.2677201" lon="-110.9609842"><ele>716.0</ele><time>2026-05-02T13:30:05.255Z</time></trkpt><trkpt lat="32.2678766" lon="-110.9609852"><ele>716.0</ele><time>2026-05-02T13:30:06.254Z</time></trkpt><trkpt lat="32.2680346" lon="-110.960986"><ele>716.0</ele><time>2026-05-02T13:30:07.254Z</time></trkpt><trkpt lat="32.2681906" lon="-110.9609853"><ele>715.0</ele><time>2026-05-02T13:30:08.255Z</time></trkpt><trkpt lat="32.2683476" lon="-110.9609857"><ele>714.0</ele><time>2026-05-02T13:30:09.255Z</time></trkpt><trkpt lat="32.2685061" lon="-110.9609879"><ele>713.0</ele><time>2026-05-02T13:30:10.254Z</time></trkpt><trkpt lat="32.2686638" lon="-110.9609901"><ele>713.0</ele><time>2026-05-02T13:30:11.255Z</time></trkpt><trkpt lat="32.2688231" lon="-110.9609913"><ele>713.0</ele><time>2026-05-02T13:30:12.255Z</time></trkpt><trkpt lat="32.2689822" lon="-110.9609936"><ele>713.0</ele><time>2026-05-02T13:30:13.255Z</time></trkpt><trkpt lat="32.2691406" lon="-110.9609916"><ele>714.0</ele><time>2026-05-02T13:30:14.254Z</time></trkpt><trkpt lat="32.2693012" lon="-110.9609917"><ele>715.0</ele><time>2026-05-02T13:30:15.256Z</time></trkpt><trkpt lat="32.269461" lon="-110.9609927"><ele>716.0</ele><time>2026-05-02T13:30:16.254Z</time></trkpt><trkpt lat="32.2696216" lon="-110.9609938"><ele>716.6666666666666</ele><time>2026-05-02T13:30:17.254Z</time></trkpt><trkpt lat="32.269782" lon="-110.9609958"><ele>717.3333333333334</ele><time>2026-05-02T13:30:18.255Z</time></trkpt><trkpt lat="32.2699417" lon="-110.9609954"><ele>718.0</ele><time>2026-05-02T13:30:19.256Z</time></trkpt><trkpt lat="32.2701044" lon="-110.9609972"><ele>718.0</ele><time>2026-05-02T13:30:20.254Z</time></trkpt><trkpt lat="32.2702669" lon="-110.9610003"><ele>718.0</ele><time>2026-05-02T13:30:21.254Z</time></trkpt><trkpt lat="32.2704288" lon="-110.9610003"><ele>718.0</ele><time>2026-05-02T13:30:22.255Z</time></trkpt><trkpt lat="32.270592" lon="-110.9610022"><ele>718.0</ele><time>2026-05-02T13:30:23.256Z</time></trkpt><trkpt lat="32.27075" lon="-110.9610046"><ele>718.0</ele><time>2026-05-02T13:30:24.256Z</time></trkpt><trkpt lat="32.270896" lon="-110.9610057"><ele>718.0</ele><time>2026-05-02T13:30:25.255Z</time></trkpt><trkpt lat="32.2710368" lon="-110.9610086"><ele>718.0</ele><time>2026-05-02T13:30:26.256Z</time></trkpt><trkpt lat="32.271169" lon="-110.9610083"><ele>718.0</ele><time>2026-05-02T13:30:27.255Z</time></trkpt><trkpt lat="32.2712912" lon="-110.9610083"><ele>718.0</ele><time>2026-05-02T13:30:28.255Z</time></trkpt><trkpt lat="32.2714002" lon="-110.9610083"><ele>718.0</ele><time>2026-05-02T13:30:29.255Z</time></trkpt><trkpt lat="32.271495" lon="-110.9610104"><ele>718.0</ele><time>2026-05-02T13:30:30.254Z</time></trkpt><trkpt lat="32.2715799" lon="-110.9610136"><ele>718.0</ele><time>2026-05-02T13:30:31.255Z</time></trkpt><trkpt lat="32.2716475" lon="-110.9610167"><ele>718.0</ele><time>2026-05-02T13:30:32.255Z</time></trkpt><trkpt lat="32.2717502" lon="-110.961015"><ele>718.0</ele><time>2026-05-02T13:30:34.255Z</time></trkpt><trkpt lat="32.271817" lon="-110.9610151"><ele>718.0</ele><time>2026-05-02T13:30:36.256Z</time></trkpt><trkpt lat="32.2718836" lon="-110.9610163"><ele>718.0</ele><time>2026-05-02T13:30:39.255Z</time></trkpt><trkpt lat="32.2720108" lon="-110.9610136"><ele>718.0</ele><time>2026-05-02T13:30:49.256Z</time></trkpt><trkpt lat="32.2720881" lon="-110.961014"><ele>718.0</ele><time>2026-05-02T13:30:50.256Z</time></trkpt><trkpt lat="32.2701044" lon="-110.9609972"><ele>718.0</ele><time>2026-05-02T13:30:20.254Z</time></trkpt><trkpt lat="32.2702669" lon="-110.9610003"><ele>718.0</ele><time>2026-05-02T13:30:21.254Z</time></trkpt><trkpt lat="32.2704288" lon="-110.9610003"><ele>718.0</ele><time>2026-05-02T13:30:22.255Z</time></trkpt><trkpt lat="32.270592" lon="-110.9610022"><ele>718.0</ele><time>2026-05-02T13:30:23.256Z</time></trkpt><trkpt lat="32.27075" lon="-110.9610046"><ele>718.0</ele><time>2026-05-02T13:30:24.256Z</time></trkpt><trkpt lat="32.270896" lon="-110.9610057"><ele>718.0</ele><time>2026-05-02T13:30:25.255Z</time></trkpt><trkpt lat="32.2710368" lon="-110.9610086"><ele>718.0</ele><time>2026-05-02T13:30:26.256Z</time></trkpt><trkpt lat="32.271169" lon="-110.9610083"><ele>718.0</ele><time>2026-05-02T13:30:27.255Z</time></trkpt><trkpt lat="32.2712912" lon="-110.9610083"><ele>718.0</ele><time>2026-05-02T13:30:28.255Z</time></trkpt><trkpt lat="32.2714002" lon="-110.9610083"><ele>718.0</ele><time>2026-05-02T13:30:29.255Z</time></trkpt><trkpt lat="32.271495" lon="-110.9610104"><ele>718.0</ele><time>2026-05-02T13:30:30.254Z</time></trkpt><trkpt lat="32.2715799" lon="-110.9610136"><ele>718.0</ele><time>2026-05-02T13:30:31.255Z</time></trkpt><trkpt lat="32.2716475" lon="-110.9610167"><ele>718.0</ele><time>2026-05-02T13:30:32.255Z</time></trkpt><trkpt lat="32.2717502" lon="-110.961015"><ele>718.0</ele><time>2026-05-02T13:30:34.255Z</time></trkpt><trkpt lat="32.271817" lon="-110.9610151"><ele>718.0</ele><time>2026-05-02T13:30:36.256Z</time></trkpt><trkpt lat="32.2718836" lon="-110.9610163"><ele>718.0</ele><time>2026-05-02T13:30:39.255Z</time></trkpt><trkpt lat="32.2720108" lon="-110.9610136"><ele>718.0</ele><time>2026-05-02T13:30:49.256Z</time></trkpt><trkpt lat="32.2720881" lon="-110.961014"><ele>718.0</ele><time>2026-05-02T13:30:50.256Z</time></trkpt><trkpt lat="32.2721831" lon="-110.9610154"><ele>717.25</ele><time>2026-05-02T13:30:51.255Z</time></trkpt><trkpt lat="32.272293" lon="-110.9610162"><ele>716.5</ele><time>2026-05-02T13:30:52.255Z</time></trkpt><trkpt lat="32.2724153" lon="-110.9610183"><ele>715.75</ele><time>2026-05-02T13:30:53.256Z</time></trkpt><trkpt lat="32.2725592" lon="-110.9610203"><ele>715.0</ele><time>2026-05-02T13:30:54.256Z</time></trkpt><trkpt lat="32.2727102" lon="-110.9610189"><ele>715.0</ele><time>2026-05-02T13:30:55.255Z</time></trkpt><trkpt lat="32.2728782" lon="-110.9610201"><ele>715.0</ele><time>2026-05-02T13:30:56.256Z</time></trkpt><trkpt lat="32.2730551" lon="-110.9610213"><ele>715.0</ele><time>2026-05-02T13:30:57.256Z</time></trkpt><trkpt lat="32.273237" lon="-110.9610217"><ele>715.0</ele><time>2026-05-02T13:30:58.255Z</time></trkpt><trkpt lat="32.273424" lon="-110.9610217"><ele>715.0</ele><time>2026-05-02T13:30:59.256Z</time></trkpt><trkpt lat="32.2736104" lon="-110.9610231"><ele>715.0</ele><time>2026-05-02T13:31:00.255Z</time></trkpt><trkpt lat="32.2737966" lon="-110.961023"><ele>715.0</ele><time>2026-05-02T13:31:01.255Z</time></trkpt><trkpt lat="32.273981" lon="-110.9610241"><ele>715.0</ele><time>2026-05-02T13:31:02.256Z</time></trkpt><trkpt lat="32.2741644" lon="-110.9610231"><ele>715.0</ele><time>2026-05-02T13:31:03.255Z</time></trkpt><trkpt lat="32.274346" lon="-110.9610249"><ele>715.0</ele><time>2026-05-02T13:31:04.256Z</time></trkpt><trkpt lat="32.274527" lon="-110.9610271"><ele>715.0</ele><time>2026-05-02T13:31:05.255Z</time></trkpt><trkpt lat="32.2747081" lon="-110.9610278"><ele>715.0</ele><time>2026-05-02T13:31:06.256Z</time></trkpt><trkpt lat="32.2748877" lon="-110.9610277"><ele>714.6666666666667</ele><time>2026-05-02T13:31:07.255Z</time></trkpt><trkpt lat="32.2750647" lon="-110.9610283"><ele>714.3333333333334</ele><time>2026-05-02T13:31:08.256Z</time></trkpt><trkpt lat="32.2752426" lon="-110.9610291"><ele>714.0</ele><time>2026-05-02T13:31:09.255Z</time></trkpt><trkpt lat="32.2754202" lon="-110.9610298"><ele>714.0</ele><time>2026-05-02T13:31:10.255Z</time></trkpt><trkpt lat="32.2755968" lon="-110.9610311"><ele>714.0</ele><time>2026-05-02T13:31:11.255Z</time></trkpt><trkpt lat="32.2757734" lon="-110.9610312"><ele>714.0</ele><time>2026-05-02T13:31:12.256Z</time></trkpt><trkpt lat="32.2759503" lon="-110.9610323"><ele>713.6666666666666</ele><time>2026-05-02T13:31:13.256Z</time></trkpt><trkpt lat="32.2761267" lon="-110.961035"><ele>713.3333333333333</ele><time>2026-05-02T13:31:14.256Z</time></trkpt><trkpt lat="32.2763013" lon="-110.961037"><ele>713.0</ele><time>2026-05-02T13:31:15.256Z</time></trkpt><trkpt lat="32.2764764" lon="-110.9610386"><ele>712.3333333333333</ele><time>2026-05-02T13:31:16.255Z</time></trkpt><trkpt lat="32.2766515" lon="-110.9610396"><ele>711.6666666666666</ele><time>2026-05-02T13:31:17.256Z</time></trkpt><trkpt lat="32.2768267" lon="-110.9610416"><ele>711.0</ele><time>2026-05-02T13:31:18.255Z</time></trkpt><trkpt lat="32.2770005" lon="-110.9610446"><ele>711.0</ele><time>2026-05-02T13:31:19.256Z</time></trkpt><trkpt lat="32.2771756" lon="-110.9610465"><ele>711.0</ele><time>2026-05-02T13:31:20.256Z</time></trkpt><trkpt lat="32.2773536" lon="-110.9610478"><ele>711.0</ele><time>2026-05-02T13:31:21.256Z</time></trkpt><trkpt lat="32.2775306" lon="-110.9610464"><ele>711.0</ele><time>2026-05-02T13:31:22.256Z</time></trkpt><trkpt lat="32.2777078" lon="-110.9610451"><ele>711.0</ele><time>2026-05-02T13:31:23.256Z</time></trkpt><trkpt lat="32.2778878" lon="-110.9610462"><ele>711.0</ele><time>2026-05-02T13:31:24.255Z</time></trkpt><trkpt lat="32.278068" lon="-110.9610468"><ele>711.0</ele><time>2026-05-02T13:31:25.255Z</time></trkpt><trkpt lat="32.2782457" lon="-110.9610464"><ele>711.0</ele><time>2026-05-02T13:31:26.256Z</time></trkpt><trkpt lat="32.2784235" lon="-110.9610452"><ele>711.0</ele><time>2026-05-02T13:31:27.257Z</time></trkpt><trkpt lat="32.2786034" lon="-110.9610467"><ele>711.0</ele><time>2026-05-02T13:31:28.255Z</time></trkpt><trkpt lat="32.2787831" lon="-110.9610465"><ele>711.0</ele><time>2026-05-02T13:31:29.256Z</time></trkpt><trkpt lat="32.2789637" lon="-110.9610452"><ele>711.0</ele><time>2026-05-02T13:31:30.256Z</time></trkpt><trkpt lat="32.2791442" lon="-110.9610445"><ele>711.6666666666666</ele><time>2026-05-02T13:31:31.256Z</time></trkpt><trkpt lat="32.2793249" lon="-110.9610455"><ele>712.3333333333333</ele><time>2026-05-02T13:31:32.257Z</time></trkpt><trkpt lat="32.2795052" lon="-110.9610473"><ele>713.0</ele><time>2026-05-02T13:31:33.256Z</time></trkpt><trkpt lat="32.2796867" lon="-110.9610486"><ele>713.0</ele><time>2026-05-02T13:31:34.255Z</time></trkpt><trkpt lat="32.279868" lon="-110.9610517"><ele>713.0</ele><time>2026-05-02T13:31:35.256Z</time></trkpt><trkpt lat="32.2800503" lon="-110.9610533"><ele>713.0</ele><time>2026-05-02T13:31:36.256Z</time></trkpt><trkpt lat="32.2802306" lon="-110.9610546"><ele>713.0</ele><time>2026-05-02T13:31:37.255Z</time></trkpt><trkpt lat="32.2804088" lon="-110.9610546"><ele>713.0</ele><time>2026-05-02T13:31:38.256Z</time></trkpt><trkpt lat="32.2805845" lon="-110.9610543"><ele>713.0</ele><time>2026-05-02T13:31:39.255Z</time></trkpt><trkpt lat="32.2807615" lon="-110.9610533"><ele>712.6666666666666</ele><time>2026-05-02T13:31:40.256Z</time></trkpt><trkpt lat="32.280933" lon="-110.9610526"><ele>712.3333333333334</ele><time>2026-05-02T13:31:41.256Z</time></trkpt><trkpt lat="32.2810963" lon="-110.9610524"><ele>712.0</ele><time>2026-05-02T13:31:42.256Z</time></trkpt><trkpt lat="32.2812555" lon="-110.9610523"><ele>712.0</ele><time>2026-05-02T13:31:43.256Z</time></trkpt><trkpt lat="32.2814113" lon="-110.9610537"><ele>712.0</ele><time>2026-05-02T13:31:44.255Z</time></trkpt><trkpt lat="32.2815658" lon="-110.9610551"><ele>712.0</ele><time>2026-05-02T13:31:45.256Z</time></trkpt><trkpt lat="32.2817153" lon="-110.9610557"><ele>711.25</ele><time>2026-05-02T13:31:46.255Z</time></trkpt><trkpt lat="32.2818582" lon="-110.9610565"><ele>710.5</ele><time>2026-05-02T13:31:47.256Z</time></trkpt><trkpt lat="32.2819922" lon="-110.9610571"><ele>709.75</ele><time>2026-05-02T13:31:48.255Z</time></trkpt><trkpt lat="32.2821137" lon="-110.9610574"><ele>709.0</ele><time>2026-05-02T13:31:49.257Z</time></trkpt><trkpt lat="32.2822277" lon="-110.9610575"><ele>708.8000000000001</ele><time>2026-05-02T13:31:50.255Z</time></trkpt><trkpt lat="32.2823353" lon="-110.9610575"><ele>708.6</ele><time>2026-05-02T13:31:51.255Z</time></trkpt><trkpt lat="32.2824404" lon="-110.9610581"><ele>708.4</ele><time>2026-05-02T13:31:52.256Z</time></trkpt><trkpt lat="32.2825404" lon="-110.9610584"><ele>708.2</ele><time>2026-05-02T13:31:53.255Z</time></trkpt><trkpt lat="32.2826391" lon="-110.9610577"><ele>708.0</ele><time>2026-05-02T13:31:54.256Z</time></trkpt><trkpt lat="32.2827402" lon="-110.9610577"><ele>708.0</ele><time>2026-05-02T13:31:55.257Z</time></trkpt><trkpt lat="32.2828439" lon="-110.9610572"><ele>708.0</ele><time>2026-05-02T13:31:56.257Z</time></trkpt><trkpt lat="32.2829534" lon="-110.9610585"><ele>708.0</ele><time>2026-05-02T13:31:57.256Z</time></trkpt><trkpt lat="32.2830721" lon="-110.9610567"><ele>708.0</ele><time>2026-05-02T13:31:58.257Z</time></trkpt><trkpt lat="32.2831988" lon="-110.9610564"><ele>708.25</ele><time>2026-05-02T13:31:59.256Z</time></trkpt><trkpt lat="32.2833365" lon="-110.9610562"><ele>708.5</ele><time>2026-05-02T13:32:00.255Z</time></trkpt><trkpt lat="32.2834758" lon="-110.9610551"><ele>708.75</ele><time>2026-05-02T13:32:01.256Z</time></trkpt><trkpt lat="32.2836243" lon="-110.9610558"><ele>709.0</ele><time>2026-05-02T13:32:02.256Z</time></trkpt><trkpt lat="32.2837802" lon="-110.9610571"><ele>709.0</ele><time>2026-05-02T13:32:03.256Z</time></trkpt><trkpt lat="32.2839356" lon="-110.9610552"><ele>709.0</ele><time>2026-05-02T13:32:04.257Z</time></trkpt><trkpt lat="32.2840923" lon="-110.961055"><ele>709.0</ele><time>2026-05-02T13:32:05.257Z</time></trkpt><trkpt lat="32.2842494" lon="-110.9610563"><ele>709.0</ele><time>2026-05-02T13:32:06.256Z</time></trkpt><trkpt lat="32.2844063" lon="-110.9610576"><ele>709.0</ele><time>2026-05-02T13:32:07.256Z</time></trkpt><trkpt lat="32.2845596" lon="-110.961051"><ele>709.0</ele><time>2026-05-02T13:32:08.257Z</time></trkpt><trkpt lat="32.284707" lon="-110.9610393"><ele>709.0</ele><time>2026-05-02T13:32:09.257Z</time></trkpt><trkpt lat="32.2848518" lon="-110.9610311"><ele>709.0</ele><time>2026-05-02T13:32:10.256Z</time></trkpt><trkpt lat="32.2849952" lon="-110.9610256"><ele>709.0</ele><time>2026-05-02T13:32:11.256Z</time></trkpt><trkpt lat="32.2851366" lon="-110.961023"><ele>709.0</ele><time>2026-05-02T13:32:12.257Z</time></trkpt><trkpt lat="32.2852792" lon="-110.9610211"><ele>709.0</ele><time>2026-05-02T13:32:13.256Z</time></trkpt><trkpt lat="32.2854291" lon="-110.9610197"><ele>709.0</ele><time>2026-05-02T13:32:14.256Z</time></trkpt><trkpt lat="32.2855735" lon="-110.9610184"><ele>709.0</ele><time>2026-05-02T13:32:15.257Z</time></trkpt><trkpt lat="32.2857095" lon="-110.9610189"><ele>709.0</ele><time>2026-05-02T13:32:16.256Z</time></trkpt><trkpt lat="32.2858378" lon="-110.96102"><ele>708.8000000000001</ele><time>2026-05-02T13:32:17.256Z</time></trkpt><trkpt lat="32.2859534" lon="-110.9610199"><ele>708.6</ele><time>2026-05-02T13:32:18.256Z</time></trkpt><trkpt lat="32.2860556" lon="-110.9610192"><ele>708.4</ele><time>2026-05-02T13:32:19.256Z</time></trkpt><trkpt lat="32.2861434" lon="-110.961019"><ele>708.2</ele><time>2026-05-02T13:32:20.256Z</time></trkpt><trkpt lat="32.2862222" lon="-110.9610203"><ele>708.0</ele><time>2026-05-02T13:32:21.257Z</time></trkpt><trkpt lat="32.2862908" lon="-110.9610197"><ele>708.0</ele><time>2026-05-02T13:32:22.256Z</time></trkpt><trkpt lat="32.2863916" lon="-110.9610193"><ele>708.0</ele><time>2026-05-02T13:32:24.256Z</time></trkpt><trkpt lat="32.2864592" lon="-110.9610243"><ele>708.0</ele><time>2026-05-02T13:32:27.257Z</time></trkpt><trkpt lat="32.2865651" lon="-110.961024"><ele>708.0</ele><time>2026-05-02T13:33:02.257Z</time></trkpt><trkpt lat="32.28664" lon="-110.961021"><ele>708.0</ele><time>2026-05-02T13:33:03.257Z</time></trkpt><trkpt lat="32.2867259" lon="-110.9610198"><ele>708.0</ele><time>2026-05-02T13:33:04.258Z</time></trkpt><trkpt lat="32.2868326" lon="-110.9610214"><ele>708.0</ele><time>2026-05-02T13:33:05.258Z</time></trkpt><trkpt lat="32.286952" lon="-110.9610235"><ele>708.0</ele><time>2026-05-02T13:33:06.257Z</time></trkpt><trkpt lat="32.2870955" lon="-110.961024"><ele>708.0</ele><time>2026-05-02T13:33:07.256Z</time></trkpt><trkpt lat="32.2872485" lon="-110.9610243"><ele>708.0</ele><time>2026-05-02T13:33:08.257Z</time></trkpt><trkpt lat="32.287419" lon="-110.9610249"><ele>708.3333333333334</ele><time>2026-05-02T13:33:09.257Z</time></trkpt><trkpt lat="32.2875978" lon="-110.9610281"><ele>708.6666666666667</ele><time>2026-05-02T13:33:10.256Z</time></trkpt><trkpt lat="32.2877854" lon="-110.9610308"><ele>709.0</ele><time>2026-05-02T13:33:11.256Z</time></trkpt><trkpt lat="32.2879749" lon="-110.9610344"><ele>708.3333333333334</ele><time>2026-05-02T13:33:12.256Z</time></trkpt><trkpt lat="32.2881646" lon="-110.9610382"><ele>707.6666666666666</ele><time>2026-05-02T13:33:13.256Z</time></trkpt><trkpt lat="32.2883509" lon="-110.9610439"><ele>707.0</ele><time>2026-05-02T13:33:14.257Z</time></trkpt><trkpt lat="32.2885344" lon="-110.9610482"><ele>707.0</ele><time>2026-05-02T13:33:15.256Z</time></trkpt><trkpt lat="32.2887173" lon="-110.9610568"><ele>707.0</ele><time>2026-05-02T13:33:16.256Z</time></trkpt><trkpt lat="32.2889018" lon="-110.9610686"><ele>707.0</ele><time>2026-05-02T13:33:17.256Z</time></trkpt><trkpt lat="32.2890929" lon="-110.9610764"><ele>706.0</ele><time>2026-05-02T13:33:18.257Z</time></trkpt><trkpt lat="32.2892877" lon="-110.9610821"><ele>705.0</ele><time>2026-05-02T13:33:19.256Z</time></trkpt><trkpt lat="32.2894866" lon="-110.9610825"><ele>704.0</ele><time>2026-05-02T13:33:20.258Z</time></trkpt><trkpt lat="32.2896873" lon="-110.9610814"><ele>704.3333333333333</ele><time>2026-05-02T13:33:21.258Z</time></trkpt><trkpt lat="32.2898886" lon="-110.9610771"><ele>704.6666666666666</ele><time>2026-05-02T13:33:22.257Z</time></trkpt><trkpt lat="32.2900916" lon="-110.9610728"><ele>705.0</ele><time>2026-05-02T13:33:23.256Z</time></trkpt><trkpt lat="32.2902924" lon="-110.9610695"><ele>705.0</ele><time>2026-05-02T13:33:24.258Z</time></trkpt><trkpt lat="32.290493" lon="-110.9610663"><ele>705.0</ele><time>2026-05-02T13:33:25.257Z</time></trkpt><trkpt lat="32.2906924" lon="-110.9610647"><ele>705.0</ele><time>2026-05-02T13:33:26.256Z</time></trkpt><trkpt lat="32.2908938" lon="-110.9610658"><ele>705.6666666666666</ele><time>2026-05-02T13:33:27.257Z</time></trkpt><trkpt lat="32.2910973" lon="-110.9610655"><ele>706.3333333333333</ele><time>2026-05-02T13:33:28.257Z</time></trkpt><trkpt lat="32.291299" lon="-110.9610661"><ele>707.0</ele><time>2026-05-02T13:33:29.256Z</time></trkpt><trkpt lat="32.2914983" lon="-110.9610673"><ele>708.0</ele><time>2026-05-02T13:33:30.257Z</time></trkpt><trkpt lat="32.2916985" lon="-110.9610683"><ele>709.0</ele><time>2026-05-02T13:33:31.258Z</time></trkpt><trkpt lat="32.291896" lon="-110.9610697"><ele>710.0</ele><time>2026-05-02T13:33:32.257Z</time></trkpt><trkpt lat="32.2920949" lon="-110.9610697"><ele>709.3333333333333</ele><time>2026-05-02T13:33:33.258Z</time></trkpt><trkpt lat="32.2922918" lon="-110.9610698"><ele>708.6666666666666</ele><time>2026-05-02T13:33:34.257Z</time></trkpt><trkpt lat="32.2924881" lon="-110.96107"><ele>708.0</ele><time>2026-05-02T13:33:35.258Z</time></trkpt><trkpt lat="32.2926823" lon="-110.9610719"><ele>708.0</ele><time>2026-05-02T13:33:36.257Z</time></trkpt><trkpt lat="32.2928755" lon="-110.9610687"><ele>708.0</ele><time>2026-05-02T13:33:37.258Z</time></trkpt><trkpt lat="32.2930685" lon="-110.9610631"><ele>708.0</ele><time>2026-05-02T13:33:38.258Z</time></trkpt><trkpt lat="32.2932607" lon="-110.9610581"><ele>708.0</ele><time>2026-05-02T13:33:39.258Z</time></trkpt><trkpt lat="32.2934527" lon="-110.9610518"><ele>708.0</ele><time>2026-05-02T13:33:40.258Z</time></trkpt><trkpt lat="32.2936432" lon="-110.9610474"><ele>708.0</ele><time>2026-05-02T13:33:41.258Z</time></trkpt><trkpt lat="32.2938319" lon="-110.9610436"><ele>708.0</ele><time>2026-05-02T13:33:42.258Z</time></trkpt><trkpt lat="32.2940204" lon="-110.9610393"><ele>708.0</ele><time>2026-05-02T13:33:43.257Z</time></trkpt><trkpt lat="32.2942067" lon="-110.9610344"><ele>708.0</ele><time>2026-05-02T13:33:44.258Z</time></trkpt><trkpt lat="32.2943931" lon="-110.9610288"><ele>708.0</ele><time>2026-05-02T13:33:45.258Z</time></trkpt><trkpt lat="32.2945807" lon="-110.9610243"><ele>708.0</ele><time>2026-05-02T13:33:46.257Z</time></trkpt><trkpt lat="32.2947736" lon="-110.9610207"><ele>708.0</ele><time>2026-05-02T13:33:47.258Z</time></trkpt><trkpt lat="32.2949702" lon="-110.9610178"><ele>709.3333333333334</ele><time>2026-05-02T13:33:48.258Z</time></trkpt><trkpt lat="32.2951705" lon="-110.9610176"><ele>710.6666666666667</ele><time>2026-05-02T13:33:49.258Z</time></trkpt><trkpt lat="32.2953701" lon="-110.9610148"><ele>712.0</ele><time>2026-05-02T13:33:50.258Z</time></trkpt><trkpt lat="32.2955709" lon="-110.9610148"><ele>713.5</ele><time>2026-05-02T13:33:51.258Z</time></trkpt><trkpt lat="32.295974" lon="-110.9610051"><ele>715.0</ele><time>2026-05-02T13:33:53.258Z</time></trkpt><trkpt lat="32.2961741" lon="-110.9609925"><ele>715.0</ele><time>2026-05-02T13:33:54.257Z</time></trkpt><trkpt lat="32.2963807" lon="-110.9609783"><ele>715.0</ele><time>2026-05-02T13:33:55.257Z</time></trkpt><trkpt lat="32.29659" lon="-110.9609641"><ele>715.0</ele><time>2026-05-02T13:33:56.257Z</time></trkpt><trkpt lat="32.2968094" lon="-110.9609478"><ele>715.6666666666667</ele><time>2026-05-02T13:33:57.257Z</time></trkpt><trkpt lat="32.2970306" lon="-110.9609261"><ele>716.3333333333334</ele><time>2026-05-02T13:33:58.257Z</time></trkpt><trkpt lat="32.2972492" lon="-110.9609017"><ele>717.0</ele><time>2026-05-02T13:33:59.257Z</time></trkpt><trkpt lat="32.2974651" lon="-110.9608766"><ele>717.6666666666666</ele><time>2026-05-02T13:34:00.258Z</time></trkpt><trkpt lat="32.2976782" lon="-110.9608524"><ele>718.3333333333333</ele><time>2026-05-02T13:34:01.258Z</time></trkpt><trkpt lat="32.2978904" lon="-110.9608332"><ele>719.0</ele><time>2026-05-02T13:34:02.258Z</time></trkpt><trkpt lat="32.2981061" lon="-110.9608177"><ele>719.6666666666666</ele><time>2026-05-02T13:34:03.258Z</time></trkpt><trkpt lat="32.2983228" lon="-110.9608122"><ele>720.3333333333334</ele><time>2026-05-02T13:34:04.257Z</time></trkpt><trkpt lat="32.2985372" lon="-110.9608195"><ele>721.0</ele><time>2026-05-02T13:34:05.258Z</time></trkpt><trkpt lat="32.2987511" lon="-110.9608377"><ele>723.3333333333334</ele><time>2026-05-02T13:34:06.258Z</time></trkpt><trkpt lat="32.2989632" lon="-110.9608597"><ele>725.6666666666666</ele><time>2026-05-02T13:34:07.257Z</time></trkpt><trkpt lat="32.2991757" lon="-110.9608841"><ele>728.0</ele><time>2026-05-02T13:34:08.258Z</time></trkpt><trkpt lat="32.2993836" lon="-110.9609074"><ele>729.6666666666666</ele><time>2026-05-02T13:34:09.257Z</time></trkpt><trkpt lat="32.2995943" lon="-110.96093"><ele>731.3333333333334</ele><time>2026-05-02T13:34:10.257Z</time></trkpt><trkpt lat="32.2998052" lon="-110.9609517"><ele>733.0</ele><time>2026-05-02T13:34:11.258Z</time></trkpt><trkpt lat="32.3000069" lon="-110.9609749"><ele>734.0</ele><time>2026-05-02T13:34:12.258Z</time></trkpt><trkpt lat="32.3002044" lon="-110.9609965"><ele>735.0</ele><time>2026-05-02T13:34:13.257Z</time></trkpt><trkpt lat="32.300391" lon="-110.9610169"><ele>736.0</ele><time>2026-05-02T13:34:14.258Z</time></trkpt><trkpt lat="32.3005666" lon="-110.9610295"><ele>737.0</ele><time>2026-05-02T13:34:15.258Z</time></trkpt><trkpt lat="32.3007299" lon="-110.9610356"><ele>738.0</ele><time>2026-05-02T13:34:16.257Z</time></trkpt><trkpt lat="32.300883" lon="-110.9610324"><ele>739.0</ele><time>2026-05-02T13:34:17.258Z</time></trkpt><trkpt lat="32.3010247" lon="-110.9610256"><ele>739.0</ele><time>2026-05-02T13:34:18.257Z</time></trkpt><trkpt lat="32.3011492" lon="-110.9610191"><ele>739.0</ele><time>2026-05-02T13:34:19.257Z</time></trkpt><trkpt lat="32.3012537" lon="-110.9610132"><ele>739.0</ele><time>2026-05-02T13:34:20.258Z</time></trkpt><trkpt lat="32.3013395" lon="-110.9610053"><ele>739.0</ele><time>2026-05-02T13:34:21.258Z</time></trkpt><trkpt lat="32.301409" lon="-110.9609825"><ele>739.0</ele><time>2026-05-02T13:34:22.257Z</time></trkpt><trkpt lat="32.3014642" lon="-110.9609373"><ele>739.2857142857143</ele><time>2026-05-02T13:34:23.257Z</time></trkpt><trkpt lat="32.301497" lon="-110.9608708"><ele>739.5714285714287</ele><time>2026-05-02T13:34:24.257Z</time></trkpt><trkpt lat="32.3015028" lon="-110.9607841"><ele>739.8571428571429</ele><time>2026-05-02T13:34:25.258Z</time></trkpt><trkpt lat="32.3014972" lon="-110.960699"><ele>740.1428571428571</ele><time>2026-05-02T13:34:26.257Z</time></trkpt><trkpt lat="32.3014928" lon="-110.9606156"><ele>740.4285714285714</ele><time>2026-05-02T13:34:27.258Z</time></trkpt><trkpt lat="32.3014932" lon="-110.9605386"><ele>740.7142857142857</ele><time>2026-05-02T13:34:28.257Z</time></trkpt><trkpt lat="32.3014946" lon="-110.9604613"><ele>741.0</ele><time>2026-05-02T13:34:29.257Z</time></trkpt><trkpt lat="32.3015008" lon="-110.9603866"><ele>741.8333333333334</ele><time>2026-05-02T13:34:30.257Z</time></trkpt><trkpt lat="32.3015076" lon="-110.9603105"><ele>742.6666666666666</ele><time>2026-05-02T13:34:31.258Z</time></trkpt><trkpt lat="32.301517" lon="-110.9602336"><ele>743.5</ele><time>2026-05-02T13:34:32.258Z</time></trkpt><trkpt lat="32.3015265" lon="-110.9601581"><ele>744.3333333333333</ele><time>2026-05-02T13:34:33.257Z</time></trkpt><trkpt lat="32.301536" lon="-110.9600824"><ele>745.1666666666666</ele><time>2026-05-02T13:34:34.257Z</time></trkpt><trkpt lat="32.3015531" lon="-110.9599435"><ele>746.0</ele><time>2026-05-02T13:34:36.258Z</time></trkpt><trkpt lat="32.3015956" lon="-110.9598429"><ele>746.1666666666666</ele><time>2026-05-02T13:34:38.258Z</time></trkpt><trkpt lat="32.3016787" lon="-110.9598038"><ele>746.3333333333333</ele><time>2026-05-02T13:34:40.257Z</time></trkpt><trkpt lat="32.3017532" lon="-110.9598127"><ele>746.5</ele><time>2026-05-02T13:34:42.259Z</time></trkpt><trkpt lat="32.3018226" lon="-110.9598226"><ele>746.6666666666666</ele><time>2026-05-02T13:34:44.258Z</time></trkpt><trkpt lat="32.3018949" lon="-110.9598114"><ele>746.8333333333334</ele><time>2026-05-02T13:34:47.258Z</time></trkpt><trkpt lat="32.3018232" lon="-110.9598221"><ele>747.0</ele><time>2026-05-02T13:44:46.264Z</time></trkpt><trkpt lat="32.3017525" lon="-110.9598841"><ele>747.0</ele><time>2026-05-02T13:44:48.266Z</time></trkpt><trkpt lat="32.3016697" lon="-110.9599916"><ele>747.0</ele><time>2026-05-02T13:44:50.265Z</time></trkpt><trkpt lat="32.3016283" lon="-110.960053"><ele>747.0</ele><time>2026-05-02T13:44:51.265Z</time></trkpt><trkpt lat="32.3015958" lon="-110.9601182"><ele>747.0</ele><time>2026-05-02T13:44:52.265Z</time></trkpt><trkpt lat="32.30157" lon="-110.9601879"><ele>747.0</ele><time>2026-05-02T13:44:53.265Z</time></trkpt><trkpt lat="32.3015501" lon="-110.9602626"><ele>747.0</ele><time>2026-05-02T13:44:54.264Z</time></trkpt><trkpt lat="32.301538" lon="-110.9603426"><ele>746.8333333333334</ele><time>2026-05-02T13:44:55.265Z</time></trkpt><trkpt lat="32.3015333" lon="-110.9604242"><ele>746.6666666666666</ele><time>2026-05-02T13:44:56.264Z</time></trkpt><trkpt lat="32.3015328" lon="-110.9605097"><ele>746.5</ele><time>2026-05-02T13:44:57.264Z</time></trkpt><trkpt lat="32.3015341" lon="-110.9605992"><ele>746.3333333333333</ele><time>2026-05-02T13:44:58.264Z</time></trkpt><trkpt lat="32.3015363" lon="-110.9606911"><ele>746.1666666666666</ele><time>2026-05-02T13:44:59.265Z</time></trkpt><trkpt lat="32.30154" lon="-110.9607774"><ele>746.0</ele><time>2026-05-02T13:45:00.264Z</time></trkpt><trkpt lat="32.3015587" lon="-110.9608951"><ele>745.1666666666666</ele><time>2026-05-02T13:45:02.265Z</time></trkpt><trkpt lat="32.3015842" lon="-110.9609714"><ele>744.3333333333333</ele><time>2026-05-02T13:45:04.264Z</time></trkpt><trkpt lat="32.3016616" lon="-110.9610424"><ele>743.5</ele><time>2026-05-02T13:45:06.264Z</time></trkpt><trkpt lat="32.3017304" lon="-110.9610658"><ele>742.6666666666666</ele><time>2026-05-02T13:45:07.265Z</time></trkpt><trkpt lat="32.3018228" lon="-110.9610787"><ele>741.8333333333334</ele><time>2026-05-02T13:45:08.264Z</time></trkpt><trkpt lat="32.3019345" lon="-110.9610877"><ele>741.0</ele><time>2026-05-02T13:45:09.265Z</time></trkpt><trkpt lat="32.3020573" lon="-110.9610957"><ele>741.0</ele><time>2026-05-02T13:45:10.266Z</time></trkpt><trkpt lat="32.3021915" lon="-110.9611038"><ele>741.0</ele><time>2026-05-02T13:45:11.265Z</time></trkpt><trkpt lat="32.3023236" lon="-110.9611078"><ele>741.0</ele><time>2026-05-02T13:45:12.265Z</time></trkpt><trkpt lat="32.3024481" lon="-110.9611096"><ele>741.0</ele><time>2026-05-02T13:45:13.265Z</time></trkpt><trkpt lat="32.3025599" lon="-110.9611101"><ele>740.6666666666666</ele><time>2026-05-02T13:45:14.264Z</time></trkpt><trkpt lat="32.3026458" lon="-110.961111"><ele>740.3333333333334</ele><time>2026-05-02T13:45:15.265Z</time></trkpt><trkpt lat="32.3027107" lon="-110.9611112"><ele>740.0</ele><time>2026-05-02T13:45:16.266Z</time></trkpt><trkpt lat="32.3027907" lon="-110.9611125"><ele>739.6666666666667</ele><time>2026-05-02T13:45:18.265Z</time></trkpt><trkpt lat="32.3028552" lon="-110.9611353"><ele>739.3333333333334</ele><time>2026-05-02T13:45:21.265Z</time></trkpt><trkpt lat="32.3028359" lon="-110.9612229"><ele>739.0</ele><time>2026-05-02T13:45:24.265Z</time></trkpt><trkpt lat="32.3027239" lon="-110.9612347"><ele>739.0</ele><time>2026-05-02T13:45:26.264Z</time></trkpt><trkpt lat="32.3026399" lon="-110.9612333"><ele>739.0</ele><time>2026-05-02T13:45:27.266Z</time></trkpt><trkpt lat="32.302531" lon="-110.9612324"><ele>739.0</ele><time>2026-05-02T13:45:28.265Z</time></trkpt><trkpt lat="32.3024068" lon="-110.9612344"><ele>739.0</ele><time>2026-05-02T13:45:29.265Z</time></trkpt><trkpt lat="32.3022628" lon="-110.9612366"><ele>739.6666666666667</ele><time>2026-05-02T13:45:30.264Z</time></trkpt><trkpt lat="32.3021111" lon="-110.9612371"><ele>740.3333333333334</ele><time>2026-05-02T13:45:31.265Z</time></trkpt><trkpt lat="32.301947" lon="-110.9612361"><ele>741.0</ele><time>2026-05-02T13:45:32.266Z</time></trkpt><trkpt lat="32.3017752" lon="-110.9612365"><ele>741.0</ele><time>2026-05-02T13:45:33.266Z</time></trkpt><trkpt lat="32.3016015" lon="-110.9612396"><ele>741.0</ele><time>2026-05-02T13:45:34.266Z</time></trkpt><trkpt lat="32.3014263" lon="-110.9612389"><ele>741.0</ele><time>2026-05-02T13:45:35.265Z</time></trkpt><trkpt lat="32.3012497" lon="-110.9612335"><ele>740.3333333333334</ele><time>2026-05-02T13:45:36.264Z</time></trkpt><trkpt lat="32.3010688" lon="-110.9612267"><ele>739.6666666666667</ele><time>2026-05-02T13:45:37.264Z</time></trkpt><trkpt lat="32.3008841" lon="-110.9612182"><ele>739.0</ele><time>2026-05-02T13:45:38.265Z</time></trkpt><trkpt lat="32.3007029" lon="-110.9612035"><ele>738.0</ele><time>2026-05-02T13:45:39.265Z</time></trkpt><trkpt lat="32.3005246" lon="-110.9611855"><ele>737.0</ele><time>2026-05-02T13:45:40.264Z</time></trkpt><trkpt lat="32.3003468" lon="-110.9611656"><ele>736.0</ele><time>2026-05-02T13:45:41.266Z</time></trkpt><trkpt lat="32.300167" lon="-110.9611463"><ele>736.0</ele><time>2026-05-02T13:45:42.266Z</time></trkpt><trkpt lat="32.2999866" lon="-110.9611264"><ele>736.0</ele><time>2026-05-02T13:45:43.265Z</time></trkpt><trkpt lat="32.2998081" lon="-110.9611086"><ele>736.0</ele><time>2026-05-02T13:45:44.265Z</time></trkpt><trkpt lat="32.2996312" lon="-110.9610906"><ele>735.0</ele><time>2026-05-02T13:45:45.265Z</time></trkpt><trkpt lat="32.299455" lon="-110.9610713"><ele>734.0</ele><time>2026-05-02T13:45:46.265Z</time></trkpt><trkpt lat="32.2992794" lon="-110.9610519"><ele>733.0</ele><time>2026-05-02T13:45:47.265Z</time></trkpt><trkpt lat="32.2990982" lon="-110.961032"><ele>730.3333333333334</ele><time>2026-05-02T13:45:48.266Z</time></trkpt><trkpt lat="32.2989115" lon="-110.9610133"><ele>727.6666666666666</ele><time>2026-05-02T13:45:49.265Z</time></trkpt><trkpt lat="32.2987228" lon="-110.9609969"><ele>725.0</ele><time>2026-05-02T13:45:50.265Z</time></trkpt><trkpt lat="32.2985307" lon="-110.960986"><ele>725.0</ele><time>2026-05-02T13:45:51.265Z</time></trkpt><trkpt lat="32.2983368" lon="-110.9609818"><ele>725.0</ele><time>2026-05-02T13:45:52.265Z</time></trkpt><trkpt lat="32.2981415" lon="-110.9609875"><ele>725.0</ele><time>2026-05-02T13:45:53.265Z</time></trkpt><trkpt lat="32.2979458" lon="-110.9610009"><ele>724.6666666666666</ele><time>2026-05-02T13:45:54.266Z</time></trkpt><trkpt lat="32.2977505" lon="-110.9610202"><ele>724.3333333333334</ele><time>2026-05-02T13:45:55.266Z</time></trkpt><trkpt lat="32.2975618" lon="-110.9610421"><ele>724.0</ele><time>2026-05-02T13:45:56.266Z</time></trkpt><trkpt lat="32.2973857" lon="-110.961064"><ele>721.6666666666667</ele><time>2026-05-02T13:45:57.265Z</time></trkpt><trkpt lat="32.297214" lon="-110.9610798"><ele>719.3333333333334</ele><time>2026-05-02T13:45:58.265Z</time></trkpt><trkpt lat="32.2970481" lon="-110.9610898"><ele>717.0</ele><time>2026-05-02T13:45:59.265Z</time></trkpt><trkpt lat="32.296888" lon="-110.9610941"><ele>717.0</ele><time>2026-05-02T13:46:00.266Z</time></trkpt><trkpt lat="32.2967329" lon="-110.9610932"><ele>717.0</ele><time>2026-05-02T13:46:01.265Z</time></trkpt><trkpt lat="32.2965836" lon="-110.9610888"><ele>717.0</ele><time>2026-05-02T13:46:02.266Z</time></trkpt><trkpt lat="32.2964394" lon="-110.9610839"><ele>717.0</ele><time>2026-05-02T13:46:03.266Z</time></trkpt><trkpt lat="32.2963066" lon="-110.9610827"><ele>716.5</ele><time>2026-05-02T13:46:04.266Z</time></trkpt><trkpt lat="32.296174" lon="-110.9610819"><ele>716.0</ele><time>2026-05-02T13:46:05.265Z</time></trkpt><trkpt lat="32.2960398" lon="-110.9610806"><ele>715.5</ele><time>2026-05-02T13:46:06.265Z</time></trkpt><trkpt lat="32.2959113" lon="-110.9610782"><ele>715.0</ele><time>2026-05-02T13:46:07.266Z</time></trkpt><trkpt lat="32.2957861" lon="-110.9610768"><ele>715.0</ele><time>2026-05-02T13:46:08.266Z</time></trkpt><trkpt lat="32.2956635" lon="-110.9610736"><ele>715.0</ele><time>2026-05-02T13:46:09.266Z</time></trkpt><trkpt lat="32.2955446" lon="-110.9610602"><ele>715.0</ele><time>2026-05-02T13:46:10.265Z</time></trkpt><trkpt lat="32.2954285" lon="-110.9610279"><ele>715.0</ele><time>2026-05-02T13:46:11.266Z</time></trkpt><trkpt lat="32.2953233" lon="-110.9609752"><ele>714.75</ele><time>2026-05-02T13:46:12.265Z</time></trkpt><trkpt lat="32.2952227" lon="-110.9609054"><ele>714.5</ele><time>2026-05-02T13:46:13.265Z</time></trkpt><trkpt lat="32.2951322" lon="-110.9608189"><ele>714.25</ele><time>2026-05-02T13:46:14.266Z</time></trkpt><trkpt lat="32.295042" lon="-110.9607023"><ele>714.0</ele><time>2026-05-02T13:46:15.266Z</time></trkpt><trkpt lat="32.2949533" lon="-110.9605691"><ele>714.0</ele><time>2026-05-02T13:46:16.265Z</time></trkpt><trkpt lat="32.2948511" lon="-110.9604206"><ele>714.0</ele><time>2026-05-02T13:46:17.265Z</time></trkpt><trkpt lat="32.2947353" lon="-110.960259"><ele>714.0</ele><time>2026-05-02T13:46:18.266Z</time></trkpt><trkpt lat="32.2946121" lon="-110.960085"><ele>713.3333333333334</ele><time>2026-05-02T13:46:19.265Z</time></trkpt><trkpt lat="32.2944794" lon="-110.9598985"><ele>712.6666666666667</ele><time>2026-05-02T13:46:20.265Z</time></trkpt><trkpt lat="32.2943392" lon="-110.9597063"><ele>712.0</ele><time>2026-05-02T13:46:21.266Z</time></trkpt><trkpt lat="32.2941947" lon="-110.9595174"><ele>712.0</ele><time>2026-05-02T13:46:22.265Z</time></trkpt><trkpt lat="32.2940471" lon="-110.9593186"><ele>712.0</ele><time>2026-05-02T13:46:23.266Z</time></trkpt><trkpt lat="32.2938975" lon="-110.9591183"><ele>711.0</ele><time>2026-05-02T13:46:24.265Z</time></trkpt><trkpt lat="32.2937497" lon="-110.9589191"><ele>710.0</ele><time>2026-05-02T13:46:25.266Z</time></trkpt><trkpt lat="32.2936107" lon="-110.958723"><ele>709.0</ele><time>2026-05-02T13:46:26.266Z</time></trkpt><trkpt lat="32.2934877" lon="-110.9585202"><ele>710.6666666666667</ele><time>2026-05-02T13:46:27.265Z</time></trkpt><trkpt lat="32.2933725" lon="-110.9583106"><ele>712.3333333333334</ele><time>2026-05-02T13:46:28.265Z</time></trkpt><trkpt lat="32.2932697" lon="-110.9580884"><ele>714.0</ele><time>2026-05-02T13:46:29.265Z</time></trkpt><trkpt lat="32.2931822" lon="-110.9578555"><ele>714.0</ele><time>2026-05-02T13:46:30.266Z</time></trkpt><trkpt lat="32.2931042" lon="-110.9576185"><ele>714.0</ele><time>2026-05-02T13:46:31.266Z</time></trkpt><trkpt lat="32.2930427" lon="-110.9573743"><ele>714.0</ele><time>2026-05-02T13:46:32.265Z</time></trkpt><trkpt lat="32.2929998" lon="-110.9571275"><ele>714.0</ele><time>2026-05-02T13:46:33.265Z</time></trkpt><trkpt lat="32.2929699" lon="-110.9568807"><ele>714.0</ele><time>2026-05-02T13:46:34.266Z</time></trkpt><trkpt lat="32.292953" lon="-110.9566354"><ele>714.0</ele><time>2026-05-02T13:46:35.266Z</time></trkpt><trkpt lat="32.2929553" lon="-110.9563894"><ele>714.0</ele><time>2026-05-02T13:46:36.266Z</time></trkpt><trkpt lat="32.2929602" lon="-110.9561427"><ele>714.0</ele><time>2026-05-02T13:46:37.266Z</time></trkpt><trkpt lat="32.2929711" lon="-110.9558988"><ele>714.0</ele><time>2026-05-02T13:46:38.265Z</time></trkpt><trkpt lat="32.2929781" lon="-110.9556581"><ele>714.0</ele><time>2026-05-02T13:46:39.265Z</time></trkpt><trkpt lat="32.2929878" lon="-110.9554237"><ele>714.0</ele><time>2026-05-02T13:46:40.266Z</time></trkpt><trkpt lat="32.2929859" lon="-110.9551924"><ele>714.0</ele><time>2026-05-02T13:46:41.266Z</time></trkpt><trkpt lat="32.292973" lon="-110.9549606"><ele>714.0</ele><time>2026-05-02T13:46:42.266Z</time></trkpt><trkpt lat="32.2929415" lon="-110.9547268"><ele>714.0</ele><time>2026-05-02T13:46:43.266Z</time></trkpt><trkpt lat="32.292897" lon="-110.9544884"><ele>714.0</ele><time>2026-05-02T13:46:44.266Z</time></trkpt><trkpt lat="32.2928309" lon="-110.9542464"><ele>714.3333333333334</ele><time>2026-05-02T13:46:45.266Z</time></trkpt><trkpt lat="32.2927425" lon="-110.954011"><ele>714.6666666666667</ele><time>2026-05-02T13:46:46.267Z</time></trkpt><trkpt lat="32.2926484" lon="-110.9537858"><ele>715.0</ele><time>2026-05-02T13:46:47.265Z</time></trkpt><trkpt lat="32.2925509" lon="-110.9535723"><ele>715.0</ele><time>2026-05-02T13:46:48.266Z</time></trkpt><trkpt lat="32.2924575" lon="-110.9533749"><ele>715.0</ele><time>2026-05-02T13:46:49.266Z</time></trkpt><trkpt lat="32.2923635" lon="-110.953178"><ele>715.0</ele><time>2026-05-02T13:46:50.267Z</time></trkpt><trkpt lat="32.2922742" lon="-110.9529839"><ele>715.0</ele><time>2026-05-02T13:46:51.266Z</time></trkpt><trkpt lat="32.2921906" lon="-110.9527941"><ele>715.0</ele><time>2026-05-02T13:46:52.265Z</time></trkpt><trkpt lat="32.2921091" lon="-110.9526088"><ele>715.0</ele><time>2026-05-02T13:46:53.266Z</time></trkpt><trkpt lat="32.2920311" lon="-110.9524298"><ele>714.6666666666667</ele><time>2026-05-02T13:46:54.266Z</time></trkpt><trkpt lat="32.2919632" lon="-110.9522414"><ele>714.3333333333334</ele><time>2026-05-02T13:46:55.266Z</time></trkpt><trkpt lat="32.2919036" lon="-110.9520559"><ele>714.0</ele><time>2026-05-02T13:46:56.266Z</time></trkpt><trkpt lat="32.2918543" lon="-110.9518663"><ele>714.3333333333334</ele><time>2026-05-02T13:46:57.266Z</time></trkpt><trkpt lat="32.2918108" lon="-110.9516855"><ele>714.6666666666667</ele><time>2026-05-02T13:46:58.266Z</time></trkpt><trkpt lat="32.2917733" lon="-110.9515027"><ele>715.0</ele><time>2026-05-02T13:46:59.265Z</time></trkpt><trkpt lat="32.2917342" lon="-110.9513211"><ele>715.0</ele><time>2026-05-02T13:47:00.266Z</time></trkpt><trkpt lat="32.2916958" lon="-110.9511373"><ele>715.0</ele><time>2026-05-02T13:47:01.265Z</time></trkpt><trkpt lat="32.291656" lon="-110.95095"><ele>715.0</ele><time>2026-05-02T13:47:02.265Z</time></trkpt><trkpt lat="32.2916166" lon="-110.9507651"><ele>716.6666666666667</ele><time>2026-05-02T13:47:03.266Z</time></trkpt><trkpt lat="32.2915752" lon="-110.9505868"><ele>718.3333333333334</ele><time>2026-05-02T13:47:04.265Z</time></trkpt><trkpt lat="32.291533" lon="-110.9504104"><ele>720.0</ele><time>2026-05-02T13:47:05.265Z</time></trkpt><trkpt lat="32.2914884" lon="-110.9502292"><ele>720.0</ele><time>2026-05-02T13:47:06.266Z</time></trkpt><trkpt lat="32.2914344" lon="-110.9500532"><ele>720.0</ele><time>2026-05-02T13:47:07.265Z</time></trkpt><trkpt lat="32.2913744" lon="-110.9498781"><ele>720.0</ele><time>2026-05-02T13:47:08.266Z</time></trkpt><trkpt lat="32.2913054" lon="-110.9496963"><ele>719.0</ele><time>2026-05-02T13:47:09.267Z</time></trkpt><trkpt lat="32.2912307" lon="-110.9495144"><ele>718.0</ele><time>2026-05-02T13:47:10.265Z</time></trkpt><trkpt lat="32.2911481" lon="-110.9493407"><ele>717.0</ele><time>2026-05-02T13:47:11.266Z</time></trkpt><trkpt lat="32.2910646" lon="-110.9491721"><ele>717.0</ele><time>2026-05-02T13:47:12.266Z</time></trkpt><trkpt lat="32.2909733" lon="-110.9490036"><ele>717.0</ele><time>2026-05-02T13:47:13.265Z</time></trkpt><trkpt lat="32.2908724" lon="-110.9488374"><ele>717.0</ele><time>2026-05-02T13:47:14.266Z</time></trkpt><trkpt lat="32.2907677" lon="-110.9486775"><ele>717.0</ele><time>2026-05-02T13:47:15.266Z</time></trkpt><trkpt lat="32.2906606" lon="-110.9485191"><ele>717.0</ele><time>2026-05-02T13:47:16.266Z</time></trkpt><trkpt lat="32.290543" lon="-110.9483632"><ele>717.0</ele><time>2026-05-02T13:47:17.267Z</time></trkpt><trkpt lat="32.2904257" lon="-110.9482137"><ele>716.3333333333334</ele><time>2026-05-02T13:47:18.266Z</time></trkpt><trkpt lat="32.290299" lon="-110.9480685"><ele>715.6666666666667</ele><time>2026-05-02T13:47:19.267Z</time></trkpt><trkpt lat="32.2901626" lon="-110.9479283"><ele>715.0</ele><time>2026-05-02T13:47:20.267Z</time></trkpt><trkpt lat="32.2900246" lon="-110.9477953"><ele>715.0</ele><time>2026-05-02T13:47:21.266Z</time></trkpt><trkpt lat="32.2898818" lon="-110.9476693"><ele>715.0</ele><time>2026-05-02T13:47:22.267Z</time></trkpt><trkpt lat="32.2897303" lon="-110.9475513"><ele>715.0</ele><time>2026-05-02T13:47:23.267Z</time></trkpt><trkpt lat="32.2895739" lon="-110.9474341"><ele>715.6666666666667</ele><time>2026-05-02T13:47:24.266Z</time></trkpt><trkpt lat="32.2894113" lon="-110.947317"><ele>716.3333333333334</ele><time>2026-05-02T13:47:25.267Z</time></trkpt><trkpt lat="32.2892471" lon="-110.9472009"><ele>717.0</ele><time>2026-05-02T13:47:26.266Z</time></trkpt><trkpt lat="32.2890797" lon="-110.9470845"><ele>716.0</ele><time>2026-05-02T13:47:27.266Z</time></trkpt><trkpt lat="32.288916" lon="-110.9469712"><ele>715.0</ele><time>2026-05-02T13:47:28.266Z</time></trkpt><trkpt lat="32.2887515" lon="-110.9468606"><ele>714.0</ele><time>2026-05-02T13:47:29.267Z</time></trkpt><trkpt lat="32.2885922" lon="-110.9467473"><ele>715.6666666666666</ele><time>2026-05-02T13:47:30.267Z</time></trkpt><trkpt lat="32.2884349" lon="-110.9466344"><ele>717.3333333333333</ele><time>2026-05-02T13:47:31.266Z</time></trkpt><trkpt lat="32.2882797" lon="-110.9465153"><ele>719.0</ele><time>2026-05-02T13:47:32.266Z</time></trkpt><trkpt lat="32.2881339" lon="-110.9463892"><ele>718.0</ele><time>2026-05-02T13:47:33.266Z</time></trkpt><trkpt lat="32.2879887" lon="-110.9462622"><ele>717.0</ele><time>2026-05-02T13:47:34.266Z</time></trkpt><trkpt lat="32.2878499" lon="-110.9461184"><ele>716.0</ele><time>2026-05-02T13:47:35.266Z</time></trkpt><trkpt lat="32.2877124" lon="-110.9459656"><ele>717.0</ele><time>2026-05-02T13:47:36.266Z</time></trkpt><trkpt lat="32.2875865" lon="-110.9457956"><ele>718.0</ele><time>2026-05-02T13:47:37.266Z</time></trkpt><trkpt lat="32.2874684" lon="-110.9456222"><ele>719.0</ele><time>2026-05-02T13:47:38.267Z</time></trkpt><trkpt lat="32.2873723" lon="-110.945445"><ele>719.0</ele><time>2026-05-02T13:47:39.266Z</time></trkpt><trkpt lat="32.2873021" lon="-110.9452667"><ele>719.0</ele><time>2026-05-02T13:47:40.266Z</time></trkpt><trkpt lat="32.2872489" lon="-110.9450884"><ele>719.0</ele><time>2026-05-02T13:47:41.267Z</time></trkpt><trkpt lat="32.2872051" lon="-110.944924"><ele>719.0</ele><time>2026-05-02T13:47:42.266Z</time></trkpt><trkpt lat="32.2871692" lon="-110.9447758"><ele>719.0</ele><time>2026-05-02T13:47:43.266Z</time></trkpt><trkpt lat="32.2871485" lon="-110.9446393"><ele>719.0</ele><time>2026-05-02T13:47:44.266Z</time></trkpt><trkpt lat="32.2871356" lon="-110.9445183"><ele>719.0</ele><time>2026-05-02T13:47:45.267Z</time></trkpt><trkpt lat="32.2871221" lon="-110.9444191"><ele>719.0</ele><time>2026-05-02T13:47:46.266Z</time></trkpt><trkpt lat="32.2871078" lon="-110.9442974"><ele>719.0</ele><time>2026-05-02T13:47:48.266Z</time></trkpt><trkpt lat="32.2871009" lon="-110.9442191"><ele>719.0</ele><time>2026-05-02T13:47:50.266Z</time></trkpt><trkpt lat="32.2870895" lon="-110.9440768"><ele>719.0</ele><time>2026-05-02T13:47:52.266Z</time></trkpt><trkpt lat="32.2870795" lon="-110.9439682"><ele>719.0</ele><time>2026-05-02T13:47:53.266Z</time></trkpt><trkpt lat="32.2870719" lon="-110.9438401"><ele>719.0</ele><time>2026-05-02T13:47:54.267Z</time></trkpt><trkpt lat="32.2870592" lon="-110.943688"><ele>719.0</ele><time>2026-05-02T13:47:55.266Z</time></trkpt><trkpt lat="32.2870454" lon="-110.9435195"><ele>719.0</ele><time>2026-05-02T13:47:56.267Z</time></trkpt><trkpt lat="32.2870294" lon="-110.9433459"><ele>719.0</ele><time>2026-05-02T13:47:57.267Z</time></trkpt><trkpt lat="32.2870156" lon="-110.9431474"><ele>719.3333333333333</ele><time>2026-05-02T13:47:58.266Z</time></trkpt><trkpt lat="32.2870005" lon="-110.942939"><ele>719.6666666666666</ele><time>2026-05-02T13:47:59.266Z</time></trkpt><trkpt lat="32.2869814" lon="-110.9427247"><ele>720.0</ele><time>2026-05-02T13:48:00.266Z</time></trkpt><trkpt lat="32.2869671" lon="-110.9425082"><ele>720.3333333333334</ele><time>2026-05-02T13:48:01.266Z</time></trkpt><trkpt lat="32.2869542" lon="-110.9422897"><ele>720.6666666666667</ele><time>2026-05-02T13:48:02.267Z</time></trkpt><trkpt lat="32.2869451" lon="-110.9420758"><ele>721.0</ele><time>2026-05-02T13:48:03.267Z</time></trkpt><trkpt lat="32.2869317" lon="-110.9418576"><ele>721.6666666666667</ele><time>2026-05-02T13:48:04.267Z</time></trkpt><trkpt lat="32.2869194" lon="-110.9416241"><ele>722.3333333333334</ele><time>2026-05-02T13:48:05.266Z</time></trkpt><trkpt lat="32.2869004" lon="-110.9413868"><ele>723.0</ele><time>2026-05-02T13:48:06.266Z</time></trkpt><trkpt lat="32.2868814" lon="-110.9411456"><ele>723.0</ele><time>2026-05-02T13:48:07.267Z</time></trkpt><trkpt lat="32.28686" lon="-110.9408962"><ele>723.0</ele><time>2026-05-02T13:48:08.267Z</time></trkpt><trkpt lat="32.2868402" lon="-110.9406484"><ele>723.0</ele><time>2026-05-02T13:48:09.266Z</time></trkpt><trkpt lat="32.2868258" lon="-110.9404022"><ele>723.0</ele><time>2026-05-02T13:48:10.267Z</time></trkpt><trkpt lat="32.2868142" lon="-110.9401491"><ele>723.0</ele><time>2026-05-02T13:48:11.266Z</time></trkpt><trkpt lat="32.286798" lon="-110.9398943"><ele>723.0</ele><time>2026-05-02T13:48:12.267Z</time></trkpt><trkpt lat="32.2867808" lon="-110.9396369"><ele>723.0</ele><time>2026-05-02T13:48:13.266Z</time></trkpt><trkpt lat="32.2867608" lon="-110.9393855"><ele>723.0</ele><time>2026-05-02T13:48:14.267Z</time></trkpt><trkpt lat="32.2867409" lon="-110.9391325"><ele>723.0</ele><time>2026-05-02T13:48:15.267Z</time></trkpt><trkpt lat="32.2867195" lon="-110.9388857"><ele>722.6666666666666</ele><time>2026-05-02T13:48:16.267Z</time></trkpt><trkpt lat="32.2867009" lon="-110.9386401"><ele>722.3333333333333</ele><time>2026-05-02T13:48:17.267Z</time></trkpt><trkpt lat="32.2866832" lon="-110.9383957"><ele>722.0</ele><time>2026-05-02T13:48:18.268Z</time></trkpt><trkpt lat="32.2866646" lon="-110.9381538"><ele>722.3333333333333</ele><time>2026-05-02T13:48:19.268Z</time></trkpt><trkpt lat="32.2866439" lon="-110.937917"><ele>722.6666666666666</ele><time>2026-05-02T13:48:20.266Z</time></trkpt><trkpt lat="32.2866272" lon="-110.9376857"><ele>723.0</ele><time>2026-05-02T13:48:21.266Z</time></trkpt><trkpt lat="32.2866087" lon="-110.937462"><ele>723.0</ele><time>2026-05-02T13:48:22.266Z</time></trkpt><trkpt lat="32.2865889" lon="-110.9372459"><ele>723.0</ele><time>2026-05-02T13:48:23.267Z</time></trkpt><trkpt lat="32.2865692" lon="-110.9370284"><ele>723.0</ele><time>2026-05-02T13:48:24.267Z</time></trkpt><trkpt lat="32.2865441" lon="-110.9368082"><ele>724.0</ele><time>2026-05-02T13:48:25.267Z</time></trkpt><trkpt lat="32.2865075" lon="-110.9365888"><ele>725.0</ele><time>2026-05-02T13:48:26.266Z</time></trkpt><trkpt lat="32.2864528" lon="-110.9363686"><ele>726.0</ele><time>2026-05-02T13:48:27.266Z</time></trkpt><trkpt lat="32.2863842" lon="-110.9361492"><ele>726.0</ele><time>2026-05-02T13:48:28.266Z</time></trkpt><trkpt lat="32.2862981" lon="-110.9359384"><ele>726.0</ele><time>2026-05-02T13:48:29.266Z</time></trkpt><trkpt lat="32.2861967" lon="-110.935731"><ele>726.0</ele><time>2026-05-02T13:48:30.266Z</time></trkpt><trkpt lat="32.2860992" lon="-110.9355303"><ele>726.0</ele><time>2026-05-02T13:48:31.268Z</time></trkpt><trkpt lat="32.2860029" lon="-110.9353275"><ele>726.0</ele><time>2026-05-02T13:48:32.267Z</time></trkpt><trkpt lat="32.2859181" lon="-110.9351203"><ele>726.0</ele><time>2026-05-02T13:48:33.268Z</time></trkpt><trkpt lat="32.2858447" lon="-110.9349041"><ele>726.0</ele><time>2026-05-02T13:48:34.267Z</time></trkpt><trkpt lat="32.2857763" lon="-110.9346778"><ele>726.0</ele><time>2026-05-02T13:48:35.268Z</time></trkpt><trkpt lat="32.2857053" lon="-110.9344515"><ele>726.0</ele><time>2026-05-02T13:48:36.268Z</time></trkpt><trkpt lat="32.2856368" lon="-110.9342265"><ele>724.0</ele><time>2026-05-02T13:48:37.267Z</time></trkpt><trkpt lat="32.2855651" lon="-110.9339994"><ele>722.0</ele><time>2026-05-02T13:48:38.268Z</time></trkpt><trkpt lat="32.2854984" lon="-110.9337742"><ele>720.0</ele><time>2026-05-02T13:48:39.267Z</time></trkpt><trkpt lat="32.2854325" lon="-110.9335488"><ele>721.0</ele><time>2026-05-02T13:48:40.266Z</time></trkpt><trkpt lat="32.2853663" lon="-110.9333292"><ele>722.0</ele><time>2026-05-02T13:48:41.266Z</time></trkpt><trkpt lat="32.2853003" lon="-110.9331135"><ele>723.0</ele><time>2026-05-02T13:48:42.266Z</time></trkpt><trkpt lat="32.2852339" lon="-110.9328899"><ele>723.0</ele><time>2026-05-02T13:48:43.268Z</time></trkpt><trkpt lat="32.2851672" lon="-110.9326661"><ele>723.0</ele><time>2026-05-02T13:48:44.268Z</time></trkpt><trkpt lat="32.2850991" lon="-110.932441"><ele>723.0</ele><time>2026-05-02T13:48:45.267Z</time></trkpt><trkpt lat="32.2850339" lon="-110.932215"><ele>723.0</ele><time>2026-05-02T13:48:46.267Z</time></trkpt><trkpt lat="32.2849647" lon="-110.931988"><ele>723.0</ele><time>2026-05-02T13:48:47.267Z</time></trkpt><trkpt lat="32.2848974" lon="-110.9317662"><ele>723.0</ele><time>2026-05-02T13:48:48.267Z</time></trkpt><trkpt lat="32.2848321" lon="-110.9315494"><ele>723.0</ele><time>2026-05-02T13:48:49.267Z</time></trkpt><trkpt lat="32.2847687" lon="-110.9313338"><ele>723.0</ele><time>2026-05-02T13:48:50.267Z</time></trkpt><trkpt lat="32.2847059" lon="-110.9311153"><ele>723.0</ele><time>2026-05-02T13:48:51.268Z</time></trkpt><trkpt lat="32.2846422" lon="-110.9308991"><ele>723.3333333333334</ele><time>2026-05-02T13:48:52.267Z</time></trkpt><trkpt lat="32.2845756" lon="-110.9306819"><ele>723.6666666666667</ele><time>2026-05-02T13:48:53.267Z</time></trkpt><trkpt lat="32.2845094" lon="-110.9304651"><ele>724.0</ele><time>2026-05-02T13:48:54.267Z</time></trkpt><trkpt lat="32.2844438" lon="-110.930249"><ele>723.3333333333334</ele><time>2026-05-02T13:48:55.268Z</time></trkpt><trkpt lat="32.284381" lon="-110.9300341"><ele>722.6666666666666</ele><time>2026-05-02T13:48:56.268Z</time></trkpt><trkpt lat="32.284316" lon="-110.9298209"><ele>722.0</ele><time>2026-05-02T13:48:57.268Z</time></trkpt><trkpt lat="32.2842526" lon="-110.9296011"><ele>722.0</ele><time>2026-05-02T13:48:58.267Z</time></trkpt><trkpt lat="32.2841889" lon="-110.929385"><ele>722.0</ele><time>2026-05-02T13:48:59.267Z</time></trkpt><trkpt lat="32.2841247" lon="-110.9291723"><ele>722.0</ele><time>2026-05-02T13:49:00.267Z</time></trkpt><trkpt lat="32.2840614" lon="-110.928954"><ele>722.0</ele><time>2026-05-02T13:49:01.267Z</time></trkpt><trkpt lat="32.283996" lon="-110.9287337"><ele>722.0</ele><time>2026-05-02T13:49:02.267Z</time></trkpt><trkpt lat="32.2839312" lon="-110.9285105"><ele>722.0</ele><time>2026-05-02T13:49:03.267Z</time></trkpt><trkpt lat="32.2838652" lon="-110.9282867"><ele>722.6666666666666</ele><time>2026-05-02T13:49:04.268Z</time></trkpt><trkpt lat="32.2837935" lon="-110.9280626"><ele>723.3333333333334</ele><time>2026-05-02T13:49:05.268Z</time></trkpt><trkpt lat="32.2837191" lon="-110.9278414"><ele>724.0</ele><time>2026-05-02T13:49:06.267Z</time></trkpt><trkpt lat="32.2836439" lon="-110.9276212"><ele>724.0</ele><time>2026-05-02T13:49:07.267Z</time></trkpt><trkpt lat="32.2835565" lon="-110.9274027"><ele>724.0</ele><time>2026-05-02T13:49:08.267Z</time></trkpt><trkpt lat="32.2834674" lon="-110.9271917"><ele>724.0</ele><time>2026-05-02T13:49:09.267Z</time></trkpt><trkpt lat="32.283378" lon="-110.9269863"><ele>724.0</ele><time>2026-05-02T13:49:10.268Z</time></trkpt><trkpt lat="32.2832811" lon="-110.9267803"><ele>724.0</ele><time>2026-05-02T13:49:11.268Z</time></trkpt><trkpt lat="32.283179" lon="-110.9265834"><ele>724.0</ele><time>2026-05-02T13:49:12.267Z</time></trkpt><trkpt lat="32.2830746" lon="-110.9263882"><ele>724.0</ele><time>2026-05-02T13:49:13.267Z</time></trkpt><trkpt lat="32.2829643" lon="-110.9261916"><ele>724.0</ele><time>2026-05-02T13:49:14.268Z</time></trkpt><trkpt lat="32.282853" lon="-110.9260029"><ele>724.0</ele><time>2026-05-02T13:49:15.268Z</time></trkpt><trkpt lat="32.2827344" lon="-110.9258139"><ele>724.6666666666667</ele><time>2026-05-02T13:49:16.268Z</time></trkpt><trkpt lat="32.282612" lon="-110.9256281"><ele>725.3333333333334</ele><time>2026-05-02T13:49:17.268Z</time></trkpt><trkpt lat="32.282489" lon="-110.9254462"><ele>726.0</ele><time>2026-05-02T13:49:18.268Z</time></trkpt><trkpt lat="32.2823702" lon="-110.9252634"><ele>725.0</ele><time>2026-05-02T13:49:19.268Z</time></trkpt><trkpt lat="32.2822582" lon="-110.9250722"><ele>724.0</ele><time>2026-05-02T13:49:20.267Z</time></trkpt><trkpt lat="32.2821522" lon="-110.924875"><ele>723.0</ele><time>2026-05-02T13:49:21.268Z</time></trkpt><trkpt lat="32.2820586" lon="-110.92467"><ele>723.0</ele><time>2026-05-02T13:49:22.267Z</time></trkpt><trkpt lat="32.281975" lon="-110.9244533"><ele>723.0</ele><time>2026-05-02T13:49:23.267Z</time></trkpt><trkpt lat="32.2819017" lon="-110.9242268"><ele>723.0</ele><time>2026-05-02T13:49:24.268Z</time></trkpt><trkpt lat="32.281838" lon="-110.9239986"><ele>723.3333333333334</ele><time>2026-05-02T13:49:25.268Z</time></trkpt><trkpt lat="32.2817737" lon="-110.9237734"><ele>723.6666666666667</ele><time>2026-05-02T13:49:26.267Z</time></trkpt><trkpt lat="32.2817092" lon="-110.9235496"><ele>724.0</ele><time>2026-05-02T13:49:27.268Z</time></trkpt><trkpt lat="32.2816448" lon="-110.9233246"><ele>724.3333333333334</ele><time>2026-05-02T13:49:28.267Z</time></trkpt><trkpt lat="32.2815802" lon="-110.9230965"><ele>724.6666666666666</ele><time>2026-05-02T13:49:29.267Z</time></trkpt><trkpt lat="32.2815164" lon="-110.9228742"><ele>725.0</ele><time>2026-05-02T13:49:30.268Z</time></trkpt><trkpt lat="32.2814535" lon="-110.9226536"><ele>724.6666666666666</ele><time>2026-05-02T13:49:31.268Z</time></trkpt><trkpt lat="32.2813902" lon="-110.9224356"><ele>724.3333333333334</ele><time>2026-05-02T13:49:32.268Z</time></trkpt><trkpt lat="32.2813278" lon="-110.922219"><ele>724.0</ele><time>2026-05-02T13:49:33.267Z</time></trkpt><trkpt lat="32.2812667" lon="-110.9220052"><ele>724.0</ele><time>2026-05-02T13:49:34.267Z</time></trkpt><trkpt lat="32.28121" lon="-110.9218026"><ele>724.0</ele><time>2026-05-02T13:49:35.267Z</time></trkpt><trkpt lat="32.2811542" lon="-110.9216015"><ele>724.0</ele><time>2026-05-02T13:49:36.268Z</time></trkpt><trkpt lat="32.2810904" lon="-110.9214028"><ele>723.6666666666667</ele><time>2026-05-02T13:49:37.267Z</time></trkpt><trkpt lat="32.2810182" lon="-110.9212056"><ele>723.3333333333334</ele><time>2026-05-02T13:49:38.268Z</time></trkpt><trkpt lat="32.2809324" lon="-110.9210252"><ele>723.0</ele><time>2026-05-02T13:49:39.268Z</time></trkpt><trkpt lat="32.2808341" lon="-110.920849"><ele>723.0</ele><time>2026-05-02T13:49:40.268Z</time></trkpt><trkpt lat="32.2807212" lon="-110.9206821"><ele>723.0</ele><time>2026-05-02T13:49:41.268Z</time></trkpt><trkpt lat="32.2805915" lon="-110.920524"><ele>723.0</ele><time>2026-05-02T13:49:42.268Z</time></trkpt><trkpt lat="32.2804515" lon="-110.9203818"><ele>723.6666666666666</ele><time>2026-05-02T13:49:43.267Z</time></trkpt><trkpt lat="32.2802961" lon="-110.9202536"><ele>724.3333333333333</ele><time>2026-05-02T13:49:44.268Z</time></trkpt><trkpt lat="32.2801311" lon="-110.9201458"><ele>725.0</ele><time>2026-05-02T13:49:45.268Z</time></trkpt><trkpt lat="32.2799522" lon="-110.9200618"><ele>724.3333333333333</ele><time>2026-05-02T13:49:46.267Z</time></trkpt><trkpt lat="32.2797684" lon="-110.9199959"><ele>723.6666666666666</ele><time>2026-05-02T13:49:47.268Z</time></trkpt><trkpt lat="32.279574" lon="-110.919952"><ele>723.0</ele><time>2026-05-02T13:49:48.268Z</time></trkpt><trkpt lat="32.2793703" lon="-110.9199266"><ele>723.0</ele><time>2026-05-02T13:49:49.268Z</time></trkpt><trkpt lat="32.2791643" lon="-110.9199162"><ele>723.0</ele><time>2026-05-02T13:49:50.267Z</time></trkpt><trkpt lat="32.2789548" lon="-110.919911"><ele>723.0</ele><time>2026-05-02T13:49:51.268Z</time></trkpt><trkpt lat="32.2787477" lon="-110.91991"><ele>723.3333333333334</ele><time>2026-05-02T13:49:52.267Z</time></trkpt><trkpt lat="32.2785446" lon="-110.9199063"><ele>723.6666666666667</ele><time>2026-05-02T13:49:53.267Z</time></trkpt><trkpt lat="32.2783522" lon="-110.9199002"><ele>724.0</ele><time>2026-05-02T13:49:54.268Z</time></trkpt><trkpt lat="32.2781599" lon="-110.9199028"><ele>723.6666666666667</ele><time>2026-05-02T13:49:55.267Z</time></trkpt><trkpt lat="32.2779683" lon="-110.9199044"><ele>723.3333333333334</ele><time>2026-05-02T13:49:56.268Z</time></trkpt><trkpt lat="32.2777774" lon="-110.9199033"><ele>723.0</ele><time>2026-05-02T13:49:57.268Z</time></trkpt><trkpt lat="32.2775881" lon="-110.9199058"><ele>723.0</ele><time>2026-05-02T13:49:58.268Z</time></trkpt><trkpt lat="32.2773976" lon="-110.9199122"><ele>723.0</ele><time>2026-05-02T13:49:59.268Z</time></trkpt><trkpt lat="32.2771985" lon="-110.919916"><ele>723.0</ele><time>2026-05-02T13:50:00.268Z</time></trkpt><trkpt lat="32.2770032" lon="-110.9199202"><ele>722.3333333333334</ele><time>2026-05-02T13:50:01.267Z</time></trkpt><trkpt lat="32.2768129" lon="-110.9199263"><ele>721.6666666666667</ele><time>2026-05-02T13:50:02.267Z</time></trkpt><trkpt lat="32.276629" lon="-110.9199207"><ele>721.0</ele><time>2026-05-02T13:50:03.268Z</time></trkpt><trkpt lat="32.2764473" lon="-110.9199047"><ele>722.0</ele><time>2026-05-02T13:50:04.267Z</time></trkpt><trkpt lat="32.2762697" lon="-110.9198746"><ele>723.0</ele><time>2026-05-02T13:50:05.268Z</time></trkpt><trkpt lat="32.2760958" lon="-110.9198226"><ele>724.0</ele><time>2026-05-02T13:50:06.268Z</time></trkpt><trkpt lat="32.2759284" lon="-110.9197504"><ele>724.0</ele><time>2026-05-02T13:50:07.269Z</time></trkpt><trkpt lat="32.2757786" lon="-110.9196599"><ele>724.0</ele><time>2026-05-02T13:50:08.268Z</time></trkpt><trkpt lat="32.2756424" lon="-110.9195541"><ele>724.0</ele><time>2026-05-02T13:50:09.268Z</time></trkpt><trkpt lat="32.2755192" lon="-110.9194487"><ele>723.75</ele><time>2026-05-02T13:50:10.268Z</time></trkpt><trkpt lat="32.2754031" lon="-110.9193427"><ele>723.5</ele><time>2026-05-02T13:50:11.268Z</time></trkpt><trkpt lat="32.2753004" lon="-110.9192417"><ele>723.25</ele><time>2026-05-02T13:50:12.268Z</time></trkpt><trkpt lat="32.2752152" lon="-110.9191522"><ele>723.0</ele><time>2026-05-02T13:50:13.269Z</time></trkpt><trkpt lat="32.2751524" lon="-110.9190738"><ele>723.0</ele><time>2026-05-02T13:50:14.268Z</time></trkpt><trkpt lat="32.2751057" lon="-110.9190212"><ele>723.0</ele><time>2026-05-02T13:50:15.269Z</time></trkpt><trkpt lat="32.2750464" lon="-110.9189532"><ele>723.0</ele><time>2026-05-02T13:50:17.269Z</time></trkpt><trkpt lat="32.2749711" lon="-110.9188575"><ele>723.0</ele><time>2026-05-02T13:52:22.27Z</time></trkpt><trkpt lat="32.2749369" lon="-110.9187931"><ele>723.0</ele><time>2026-05-02T13:52:23.269Z</time></trkpt><trkpt lat="32.2749154" lon="-110.9187149"><ele>723.0</ele><time>2026-05-02T13:52:24.269Z</time></trkpt><trkpt lat="32.2749151" lon="-110.9186275"><ele>723.0</ele><time>2026-05-02T13:52:25.27Z</time></trkpt><trkpt lat="32.2749395" lon="-110.9185359"><ele>723.0</ele><time>2026-05-02T13:52:26.269Z</time></trkpt><trkpt lat="32.2749922" lon="-110.9184421"><ele>723.0</ele><time>2026-05-02T13:52:27.27Z</time></trkpt><trkpt lat="32.275071" lon="-110.918343"><ele>723.0</ele><time>2026-05-02T13:52:28.27Z</time></trkpt><trkpt lat="32.2751694" lon="-110.9182303"><ele>723.0</ele><time>2026-05-02T13:52:29.269Z</time></trkpt><trkpt lat="32.275282" lon="-110.9180884"><ele>723.6666666666666</ele><time>2026-05-02T13:52:30.269Z</time></trkpt><trkpt lat="32.2753979" lon="-110.9179369"><ele>724.3333333333333</ele><time>2026-05-02T13:52:31.269Z</time></trkpt><trkpt lat="32.2755068" lon="-110.9177465"><ele>725.0</ele><time>2026-05-02T13:52:32.269Z</time></trkpt><trkpt lat="32.2756062" lon="-110.9175377"><ele>725.0</ele><time>2026-05-02T13:52:33.269Z</time></trkpt><trkpt lat="32.2756973" lon="-110.9173057"><ele>725.0</ele><time>2026-05-02T13:52:34.269Z</time></trkpt><trkpt lat="32.2757693" lon="-110.9170644"><ele>725.0</ele><time>2026-05-02T13:52:35.269Z</time></trkpt><trkpt lat="32.2758209" lon="-110.9168216"><ele>725.0</ele><time>2026-05-02T13:52:36.27Z</time></trkpt><trkpt lat="32.2758551" lon="-110.9165658"><ele>725.0</ele><time>2026-05-02T13:52:37.271Z</time></trkpt><trkpt lat="32.2758709" lon="-110.9162974"><ele>725.0</ele><time>2026-05-02T13:52:38.269Z</time></trkpt><trkpt lat="32.2758723" lon="-110.9160246"><ele>725.5</ele><time>2026-05-02T13:52:39.269Z</time></trkpt><trkpt lat="32.2758665" lon="-110.9157526"><ele>726.0</ele><time>2026-05-02T13:52:40.269Z</time></trkpt><trkpt lat="32.2758589" lon="-110.9154842"><ele>726.0</ele><time>2026-05-02T13:52:41.269Z</time></trkpt><trkpt lat="32.2758497" lon="-110.9152242"><ele>726.0</ele><time>2026-05-02T13:52:42.27Z</time></trkpt><trkpt lat="32.2758433" lon="-110.9149766"><ele>726.0</ele><time>2026-05-02T13:52:43.27Z</time></trkpt><trkpt lat="32.2758347" lon="-110.9147438"><ele>725.6666666666666</ele><time>2026-05-02T13:52:44.27Z</time></trkpt><trkpt lat="32.27583" lon="-110.9145166"><ele>725.3333333333333</ele><time>2026-05-02T13:52:45.269Z</time></trkpt><trkpt lat="32.2758217" lon="-110.9142886"><ele>725.0</ele><time>2026-05-02T13:52:46.27Z</time></trkpt><trkpt lat="32.2758156" lon="-110.914059"><ele>724.6666666666666</ele><time>2026-05-02T13:52:47.271Z</time></trkpt><trkpt lat="32.2758128" lon="-110.9138348"><ele>724.3333333333334</ele><time>2026-05-02T13:52:48.27Z</time></trkpt><trkpt lat="32.2758103" lon="-110.9136125"><ele>724.0</ele><time>2026-05-02T13:52:49.269Z</time></trkpt><trkpt lat="32.2758056" lon="-110.9133992"><ele>724.6666666666667</ele><time>2026-05-02T13:52:50.27Z</time></trkpt><trkpt lat="32.2758049" lon="-110.913189"><ele>725.3333333333334</ele><time>2026-05-02T13:52:51.269Z</time></trkpt><trkpt lat="32.2758063" lon="-110.9129859"><ele>726.0</ele><time>2026-05-02T13:52:52.27Z</time></trkpt><trkpt lat="32.2758061" lon="-110.9127805"><ele>727.0</ele><time>2026-05-02T13:52:53.269Z</time></trkpt><trkpt lat="32.275802" lon="-110.9125695"><ele>728.0</ele><time>2026-05-02T13:52:54.27Z</time></trkpt><trkpt lat="32.2758024" lon="-110.9123611"><ele>729.0</ele><time>2026-05-02T13:52:55.27Z</time></trkpt><trkpt lat="32.2757994" lon="-110.9121502"><ele>729.0</ele><time>2026-05-02T13:52:56.27Z</time></trkpt><trkpt lat="32.2757987" lon="-110.9119388"><ele>729.0</ele><time>2026-05-02T13:52:57.27Z</time></trkpt><trkpt lat="32.2757953" lon="-110.9117348"><ele>729.0</ele><time>2026-05-02T13:52:58.27Z</time></trkpt><trkpt lat="32.2757934" lon="-110.9115249"><ele>729.3333333333334</ele><time>2026-05-02T13:52:59.27Z</time></trkpt><trkpt lat="32.2757942" lon="-110.911322"><ele>729.6666666666667</ele><time>2026-05-02T13:53:00.269Z</time></trkpt><trkpt lat="32.2757911" lon="-110.9111144"><ele>730.0</ele><time>2026-05-02T13:53:01.269Z</time></trkpt><trkpt lat="32.2757884" lon="-110.910896"><ele>730.6666666666667</ele><time>2026-05-02T13:53:02.269Z</time></trkpt><trkpt lat="32.2757882" lon="-110.9106861"><ele>731.3333333333334</ele><time>2026-05-02T13:53:03.27Z</time></trkpt><trkpt lat="32.2757812" lon="-110.910478"><ele>732.0</ele><time>2026-05-02T13:53:04.27Z</time></trkpt><trkpt lat="32.2757782" lon="-110.910274"><ele>731.6666666666666</ele><time>2026-05-02T13:53:05.269Z</time></trkpt><trkpt lat="32.2757822" lon="-110.9100733"><ele>731.3333333333333</ele><time>2026-05-02T13:53:06.27Z</time></trkpt><trkpt lat="32.2757916" lon="-110.9098858"><ele>731.0</ele><time>2026-05-02T13:53:07.27Z</time></trkpt><trkpt lat="32.2758128" lon="-110.9096962"><ele>731.0</ele><time>2026-05-02T13:53:08.269Z</time></trkpt><trkpt lat="32.2758552" lon="-110.9095041"><ele>731.0</ele><time>2026-05-02T13:53:09.27Z</time></trkpt><trkpt lat="32.2759204" lon="-110.9093144"><ele>731.0</ele><time>2026-05-02T13:53:10.27Z</time></trkpt><trkpt lat="32.2760019" lon="-110.9091327"><ele>730.3333333333333</ele><time>2026-05-02T13:53:11.271Z</time></trkpt><trkpt lat="32.2760968" lon="-110.9089561"><ele>729.6666666666666</ele><time>2026-05-02T13:53:12.27Z</time></trkpt><trkpt lat="32.2761947" lon="-110.90879"><ele>729.0</ele><time>2026-05-02T13:53:13.27Z</time></trkpt><trkpt lat="32.2762915" lon="-110.9086241"><ele>729.0</ele><time>2026-05-02T13:53:14.27Z</time></trkpt><trkpt lat="32.2763831" lon="-110.9084524"><ele>729.0</ele><time>2026-05-02T13:53:15.27Z</time></trkpt><trkpt lat="32.276461" lon="-110.9082723"><ele>729.0</ele><time>2026-05-02T13:53:16.27Z</time></trkpt><trkpt lat="32.2765244" lon="-110.9080864"><ele>729.6666666666666</ele><time>2026-05-02T13:53:17.27Z</time></trkpt><trkpt lat="32.2765815" lon="-110.9078981"><ele>730.3333333333333</ele><time>2026-05-02T13:53:18.271Z</time></trkpt><trkpt lat="32.2766445" lon="-110.9077079"><ele>731.0</ele><time>2026-05-02T13:53:19.27Z</time></trkpt><trkpt lat="32.2767181" lon="-110.9075224"><ele>731.0</ele><time>2026-05-02T13:53:20.27Z</time></trkpt><trkpt lat="32.2768006" lon="-110.9073405"><ele>731.0</ele><time>2026-05-02T13:53:21.27Z</time></trkpt><trkpt lat="32.2768911" lon="-110.9071626"><ele>731.0</ele><time>2026-05-02T13:53:22.27Z</time></trkpt><trkpt lat="32.2769814" lon="-110.9069935"><ele>731.0</ele><time>2026-05-02T13:53:23.27Z</time></trkpt><trkpt lat="32.2770717" lon="-110.90683"><ele>731.0</ele><time>2026-05-02T13:53:24.27Z</time></trkpt><trkpt lat="32.2771612" lon="-110.9066651"><ele>731.0</ele><time>2026-05-02T13:53:25.271Z</time></trkpt><trkpt lat="32.277245" lon="-110.9064982"><ele>731.3333333333333</ele><time>2026-05-02T13:53:26.27Z</time></trkpt><trkpt lat="32.2773229" lon="-110.9063219"><ele>731.6666666666666</ele><time>2026-05-02T13:53:27.271Z</time></trkpt><trkpt lat="32.2773943" lon="-110.9061357"><ele>732.0</ele><time>2026-05-02T13:53:28.271Z</time></trkpt><trkpt lat="32.2774565" lon="-110.9059433"><ele>731.6666666666666</ele><time>2026-05-02T13:53:29.271Z</time></trkpt><trkpt lat="32.277512" lon="-110.9057342"><ele>731.3333333333333</ele><time>2026-05-02T13:53:30.27Z</time></trkpt><trkpt lat="32.2775535" lon="-110.9055192"><ele>731.0</ele><time>2026-05-02T13:53:31.271Z</time></trkpt><trkpt lat="32.2775852" lon="-110.9052976"><ele>732.3333333333333</ele><time>2026-05-02T13:53:32.27Z</time></trkpt><trkpt lat="32.2776029" lon="-110.9050698"><ele>733.6666666666666</ele><time>2026-05-02T13:53:33.27Z</time></trkpt><trkpt lat="32.2776186" lon="-110.904847"><ele>735.0</ele><time>2026-05-02T13:53:34.27Z</time></trkpt><trkpt lat="32.277629" lon="-110.9046302"><ele>735.0</ele><time>2026-05-02T13:53:35.27Z</time></trkpt><trkpt lat="32.277635" lon="-110.9044134"><ele>735.0</ele><time>2026-05-02T13:53:36.271Z</time></trkpt><trkpt lat="32.2776399" lon="-110.9042025"><ele>735.0</ele><time>2026-05-02T13:53:37.27Z</time></trkpt><trkpt lat="32.2776452" lon="-110.9040041"><ele>736.0</ele><time>2026-05-02T13:53:38.27Z</time></trkpt><trkpt lat="32.2776498" lon="-110.903808"><ele>737.0</ele><time>2026-05-02T13:53:39.271Z</time></trkpt><trkpt lat="32.2776555" lon="-110.9036119"><ele>738.0</ele><time>2026-05-02T13:53:40.271Z</time></trkpt><trkpt lat="32.2776596" lon="-110.9034183"><ele>738.3333333333334</ele><time>2026-05-02T13:53:41.271Z</time></trkpt><trkpt lat="32.2776599" lon="-110.9032216"><ele>738.6666666666667</ele><time>2026-05-02T13:53:42.27Z</time></trkpt><trkpt lat="32.2776621" lon="-110.9030223"><ele>739.0</ele><time>2026-05-02T13:53:43.27Z</time></trkpt><trkpt lat="32.2776655" lon="-110.9028316"><ele>739.0</ele><time>2026-05-02T13:53:44.271Z</time></trkpt><trkpt lat="32.2776678" lon="-110.9026471"><ele>739.0</ele><time>2026-05-02T13:53:45.27Z</time></trkpt><trkpt lat="32.2776693" lon="-110.9024643"><ele>739.0</ele><time>2026-05-02T13:53:46.271Z</time></trkpt><trkpt lat="32.2776743" lon="-110.902277"><ele>739.0</ele><time>2026-05-02T13:53:47.27Z</time></trkpt><trkpt lat="32.2776792" lon="-110.9020934"><ele>739.0</ele><time>2026-05-02T13:53:48.271Z</time></trkpt><trkpt lat="32.2776784" lon="-110.9019111"><ele>739.0</ele><time>2026-05-02T13:53:49.27Z</time></trkpt><trkpt lat="32.2776791" lon="-110.901732"><ele>739.0</ele><time>2026-05-02T13:53:50.27Z</time></trkpt><trkpt lat="32.2776759" lon="-110.9015516"><ele>739.0</ele><time>2026-05-02T13:53:51.27Z</time></trkpt><trkpt lat="32.2776762" lon="-110.9013678"><ele>739.0</ele><time>2026-05-02T13:53:52.271Z</time></trkpt><trkpt lat="32.2776762" lon="-110.9011698"><ele>739.0</ele><time>2026-05-02T13:53:53.27Z</time></trkpt><trkpt lat="32.2776774" lon="-110.9009689"><ele>739.0</ele><time>2026-05-02T13:53:54.27Z</time></trkpt><trkpt lat="32.277679" lon="-110.9007761"><ele>739.0</ele><time>2026-05-02T13:53:55.27Z</time></trkpt><trkpt lat="32.277686" lon="-110.900586"><ele>739.3333333333334</ele><time>2026-05-02T13:53:56.27Z</time></trkpt><trkpt lat="32.2777009" lon="-110.9003954"><ele>739.6666666666666</ele><time>2026-05-02T13:53:57.27Z</time></trkpt><trkpt lat="32.2777385" lon="-110.9002043"><ele>740.0</ele><time>2026-05-02T13:53:58.271Z</time></trkpt><trkpt lat="32.2777917" lon="-110.9000154"><ele>740.0</ele><time>2026-05-02T13:53:59.27Z</time></trkpt><trkpt lat="32.2778633" lon="-110.8998329"><ele>740.0</ele><time>2026-05-02T13:54:00.271Z</time></trkpt><trkpt lat="32.277948" lon="-110.8996576"><ele>740.0</ele><time>2026-05-02T13:54:01.271Z</time></trkpt><trkpt lat="32.2780482" lon="-110.8994908"><ele>740.3333333333333</ele><time>2026-05-02T13:54:02.271Z</time></trkpt><trkpt lat="32.2781682" lon="-110.8993297"><ele>740.6666666666666</ele><time>2026-05-02T13:54:03.271Z</time></trkpt><trkpt lat="32.2783035" lon="-110.8991777"><ele>741.0</ele><time>2026-05-02T13:54:04.271Z</time></trkpt><trkpt lat="32.2784496" lon="-110.899034"><ele>742.0</ele><time>2026-05-02T13:54:05.27Z</time></trkpt><trkpt lat="32.2786002" lon="-110.8988921"><ele>743.0</ele><time>2026-05-02T13:54:06.27Z</time></trkpt><trkpt lat="32.2787478" lon="-110.8987589"><ele>744.0</ele><time>2026-05-02T13:54:07.27Z</time></trkpt><trkpt lat="32.27889" lon="-110.8986251"><ele>744.3333333333334</ele><time>2026-05-02T13:54:08.271Z</time></trkpt><trkpt lat="32.2790176" lon="-110.8984867"><ele>744.6666666666667</ele><time>2026-05-02T13:54:09.271Z</time></trkpt><trkpt lat="32.2791276" lon="-110.898334"><ele>745.0</ele><time>2026-05-02T13:54:10.271Z</time></trkpt><trkpt lat="32.2792223" lon="-110.898167"><ele>745.3333333333334</ele><time>2026-05-02T13:54:11.271Z</time></trkpt><trkpt lat="32.2792954" lon="-110.8979844"><ele>745.6666666666666</ele><time>2026-05-02T13:54:12.271Z</time></trkpt><trkpt lat="32.2793457" lon="-110.8977847"><ele>746.0</ele><time>2026-05-02T13:54:13.27Z</time></trkpt><trkpt lat="32.279393" lon="-110.8975984"><ele>747.25</ele><time>2026-05-02T13:54:14.27Z</time></trkpt><trkpt lat="32.2794533" lon="-110.897433"><ele>748.5</ele><time>2026-05-02T13:54:15.272Z</time></trkpt><trkpt lat="32.279535" lon="-110.8972899"><ele>749.75</ele><time>2026-05-02T13:54:16.27Z</time></trkpt><trkpt lat="32.2796404" lon="-110.8971667"><ele>751.0</ele><time>2026-05-02T13:54:17.27Z</time></trkpt><trkpt lat="32.2797767" lon="-110.8970596"><ele>751.0</ele><time>2026-05-02T13:54:18.27Z</time></trkpt><trkpt lat="32.2799336" lon="-110.8969628"><ele>751.0</ele><time>2026-05-02T13:54:19.27Z</time></trkpt><trkpt lat="32.2801019" lon="-110.8968626"><ele>751.0</ele><time>2026-05-02T13:54:20.271Z</time></trkpt><trkpt lat="32.2802672" lon="-110.8967484"><ele>752.0</ele><time>2026-05-02T13:54:21.27Z</time></trkpt><trkpt lat="32.2804115" lon="-110.896617"><ele>753.0</ele><time>2026-05-02T13:54:22.271Z</time></trkpt><trkpt lat="32.2805437" lon="-110.8964628"><ele>754.0</ele><time>2026-05-02T13:54:23.271Z</time></trkpt><trkpt lat="32.2806641" lon="-110.8962974"><ele>754.3333333333334</ele><time>2026-05-02T13:54:24.271Z</time></trkpt><trkpt lat="32.280777" lon="-110.8961382"><ele>754.6666666666666</ele><time>2026-05-02T13:54:25.271Z</time></trkpt><trkpt lat="32.2808921" lon="-110.8959903"><ele>755.0</ele><time>2026-05-02T13:54:26.272Z</time></trkpt><trkpt lat="32.2810094" lon="-110.8958549"><ele>755.5</ele><time>2026-05-02T13:54:27.271Z</time></trkpt><trkpt lat="32.2811135" lon="-110.8957272"><ele>756.0</ele><time>2026-05-02T13:54:28.27Z</time></trkpt><trkpt lat="32.2811979" lon="-110.8955912"><ele>756.5</ele><time>2026-05-02T13:54:29.27Z</time></trkpt><trkpt lat="32.2812599" lon="-110.895438"><ele>757.0</ele><time>2026-05-02T13:54:30.27Z</time></trkpt><trkpt lat="32.281296" lon="-110.8952718"><ele>757.0</ele><time>2026-05-02T13:54:31.272Z</time></trkpt><trkpt lat="32.2812969" lon="-110.8951032"><ele>757.0</ele><time>2026-05-02T13:54:32.271Z</time></trkpt><trkpt lat="32.2812711" lon="-110.8949229"><ele>757.0</ele><time>2026-05-02T13:54:33.271Z</time></trkpt><trkpt lat="32.2812272" lon="-110.8947274"><ele>758.0</ele><time>2026-05-02T13:54:34.271Z</time></trkpt><trkpt lat="32.2811775" lon="-110.8945269"><ele>759.0</ele><time>2026-05-02T13:54:35.27Z</time></trkpt><trkpt lat="32.2811242" lon="-110.8943404"><ele>760.0</ele><time>2026-05-02T13:54:36.27Z</time></trkpt><trkpt lat="32.2810625" lon="-110.8941624"><ele>760.0</ele><time>2026-05-02T13:54:37.271Z</time></trkpt><trkpt lat="32.2809804" lon="-110.8939911"><ele>760.0</ele><time>2026-05-02T13:54:38.271Z</time></trkpt><trkpt lat="32.2808717" lon="-110.8938379"><ele>760.0</ele><time>2026-05-02T13:54:39.271Z</time></trkpt><trkpt lat="32.2807436" lon="-110.8937205"><ele>760.0</ele><time>2026-05-02T13:54:40.271Z</time></trkpt><trkpt lat="32.2805999" lon="-110.8936259"><ele>760.0</ele><time>2026-05-02T13:54:41.271Z</time></trkpt><trkpt lat="32.2804372" lon="-110.8935453"><ele>760.0</ele><time>2026-05-02T13:54:42.271Z</time></trkpt><trkpt lat="32.2802809" lon="-110.8934753"><ele>758.6666666666667</ele><time>2026-05-02T13:54:43.272Z</time></trkpt><trkpt lat="32.2801289" lon="-110.8934046"><ele>757.3333333333334</ele><time>2026-05-02T13:54:44.272Z</time></trkpt><trkpt lat="32.2799808" lon="-110.8933327"><ele>756.0</ele><time>2026-05-02T13:54:45.27Z</time></trkpt><trkpt lat="32.2798363" lon="-110.8932414"><ele>756.0</ele><time>2026-05-02T13:54:46.272Z</time></trkpt><trkpt lat="32.2797022" lon="-110.8931362"><ele>756.0</ele><time>2026-05-02T13:54:47.272Z</time></trkpt><trkpt lat="32.279581" lon="-110.8930097"><ele>756.0</ele><time>2026-05-02T13:54:48.272Z</time></trkpt><trkpt lat="32.2794672" lon="-110.8928684"><ele>756.0</ele><time>2026-05-02T13:54:49.272Z</time></trkpt><trkpt lat="32.2793601" lon="-110.8927121"><ele>756.0</ele><time>2026-05-02T13:54:50.272Z</time></trkpt><trkpt lat="32.2792629" lon="-110.8925448"><ele>756.0</ele><time>2026-05-02T13:54:51.272Z</time></trkpt><trkpt lat="32.2791709" lon="-110.8923653"><ele>754.6666666666666</ele><time>2026-05-02T13:54:52.271Z</time></trkpt><trkpt lat="32.2790798" lon="-110.8921729"><ele>753.3333333333333</ele><time>2026-05-02T13:54:53.272Z</time></trkpt><trkpt lat="32.2790001" lon="-110.8919867"><ele>752.0</ele><time>2026-05-02T13:54:54.272Z</time></trkpt><trkpt lat="32.2789288" lon="-110.8918072"><ele>750.3333333333333</ele><time>2026-05-02T13:54:55.271Z</time></trkpt><trkpt lat="32.2788661" lon="-110.8916327"><ele>748.6666666666666</ele><time>2026-05-02T13:54:56.272Z</time></trkpt><trkpt lat="32.2788235" lon="-110.8914574"><ele>747.0</ele><time>2026-05-02T13:54:57.271Z</time></trkpt><trkpt lat="32.2788087" lon="-110.8912774"><ele>747.0</ele><time>2026-05-02T13:54:58.271Z</time></trkpt><trkpt lat="32.2788224" lon="-110.8911023"><ele>747.0</ele><time>2026-05-02T13:54:59.271Z</time></trkpt><trkpt lat="32.2788621" lon="-110.8909296"><ele>747.0</ele><time>2026-05-02T13:55:00.271Z</time></trkpt><trkpt lat="32.2789212" lon="-110.8907554"><ele>748.6666666666666</ele><time>2026-05-02T13:55:01.271Z</time></trkpt><trkpt lat="32.2790173" lon="-110.8905889"><ele>750.3333333333333</ele><time>2026-05-02T13:55:02.271Z</time></trkpt><trkpt lat="32.2791289" lon="-110.8904316"><ele>752.0</ele><time>2026-05-02T13:55:03.272Z</time></trkpt><trkpt lat="32.2792582" lon="-110.8902861"><ele>752.0</ele><time>2026-05-02T13:55:04.271Z</time></trkpt><trkpt lat="32.2793953" lon="-110.8901482"><ele>752.0</ele><time>2026-05-02T13:55:05.272Z</time></trkpt><trkpt lat="32.279529" lon="-110.8900212"><ele>752.0</ele><time>2026-05-02T13:55:06.271Z</time></trkpt><trkpt lat="32.2796436" lon="-110.8898909"><ele>752.3333333333333</ele><time>2026-05-02T13:55:07.271Z</time></trkpt><trkpt lat="32.2797372" lon="-110.8897434"><ele>752.6666666666666</ele><time>2026-05-02T13:55:08.272Z</time></trkpt><trkpt lat="32.2798076" lon="-110.8895741"><ele>753.0</ele><time>2026-05-02T13:55:09.271Z</time></trkpt><trkpt lat="32.2798568" lon="-110.8893842"><ele>753.6666666666666</ele><time>2026-05-02T13:55:10.271Z</time></trkpt><trkpt lat="32.2798911" lon="-110.8891725"><ele>754.3333333333333</ele><time>2026-05-02T13:55:11.271Z</time></trkpt><trkpt lat="32.2799131" lon="-110.8889535"><ele>755.0</ele><time>2026-05-02T13:55:12.272Z</time></trkpt><trkpt lat="32.2799331" lon="-110.8887237"><ele>755.0</ele><time>2026-05-02T13:55:13.271Z</time></trkpt><trkpt lat="32.2799456" lon="-110.8884892"><ele>755.0</ele><time>2026-05-02T13:55:14.271Z</time></trkpt><trkpt lat="32.2799616" lon="-110.8882633"><ele>755.0</ele><time>2026-05-02T13:55:15.271Z</time></trkpt><trkpt lat="32.2799708" lon="-110.8880469"><ele>756.6666666666666</ele><time>2026-05-02T13:55:16.271Z</time></trkpt><trkpt lat="32.2799716" lon="-110.8878333"><ele>758.3333333333334</ele><time>2026-05-02T13:55:17.272Z</time></trkpt><trkpt lat="32.2799567" lon="-110.8876139"><ele>760.0</ele><time>2026-05-02T13:55:18.271Z</time></trkpt><trkpt lat="32.2799304" lon="-110.8873817"><ele>761.0</ele><time>2026-05-02T13:55:19.272Z</time></trkpt><trkpt lat="32.2798911" lon="-110.8871551"><ele>762.0</ele><time>2026-05-02T13:55:20.271Z</time></trkpt><trkpt lat="32.2798517" lon="-110.886935"><ele>763.0</ele><time>2026-05-02T13:55:21.271Z</time></trkpt><trkpt lat="32.2798124" lon="-110.8867173"><ele>762.6666666666667</ele><time>2026-05-02T13:55:22.271Z</time></trkpt><trkpt lat="32.2797731" lon="-110.8865097"><ele>762.3333333333334</ele><time>2026-05-02T13:55:23.271Z</time></trkpt><trkpt lat="32.2797334" lon="-110.8863097"><ele>762.0</ele><time>2026-05-02T13:55:24.272Z</time></trkpt><trkpt lat="32.2796944" lon="-110.8861104"><ele>761.6666666666666</ele><time>2026-05-02T13:55:25.272Z</time></trkpt><trkpt lat="32.2796576" lon="-110.8859155"><ele>761.3333333333333</ele><time>2026-05-02T13:55:26.272Z</time></trkpt><trkpt lat="32.2796185" lon="-110.8857213"><ele>761.0</ele><time>2026-05-02T13:55:27.272Z</time></trkpt><trkpt lat="32.2795841" lon="-110.8855207"><ele>761.0</ele><time>2026-05-02T13:55:28.272Z</time></trkpt><trkpt lat="32.2795561" lon="-110.8853148"><ele>761.0</ele><time>2026-05-02T13:55:29.272Z</time></trkpt><trkpt lat="32.2795483" lon="-110.8851097"><ele>761.0</ele><time>2026-05-02T13:55:30.271Z</time></trkpt><trkpt lat="32.2795541" lon="-110.8849043"><ele>761.6666666666666</ele><time>2026-05-02T13:55:31.272Z</time></trkpt><trkpt lat="32.2795785" lon="-110.8846978"><ele>762.3333333333334</ele><time>2026-05-02T13:55:32.271Z</time></trkpt><trkpt lat="32.279626" lon="-110.8844774"><ele>763.0</ele><time>2026-05-02T13:55:33.271Z</time></trkpt><trkpt lat="32.279682" lon="-110.8842549"><ele>763.0</ele><time>2026-05-02T13:55:34.272Z</time></trkpt><trkpt lat="32.2797391" lon="-110.8840399"><ele>763.0</ele><time>2026-05-02T13:55:35.271Z</time></trkpt><trkpt lat="32.2797968" lon="-110.8838341"><ele>763.0</ele><time>2026-05-02T13:55:36.272Z</time></trkpt><trkpt lat="32.2798466" lon="-110.883637"><ele>763.3333333333334</ele><time>2026-05-02T13:55:37.271Z</time></trkpt><trkpt lat="32.2798823" lon="-110.883446"><ele>763.6666666666666</ele><time>2026-05-02T13:55:38.271Z</time></trkpt><trkpt lat="32.2799091" lon="-110.8832558"><ele>764.0</ele><time>2026-05-02T13:55:39.273Z</time></trkpt><trkpt lat="32.2799205" lon="-110.8830641"><ele>766.3333333333333</ele><time>2026-05-02T13:55:40.271Z</time></trkpt><trkpt lat="32.2799096" lon="-110.8828588"><ele>768.6666666666666</ele><time>2026-05-02T13:55:41.271Z</time></trkpt><trkpt lat="32.2798815" lon="-110.8826373"><ele>771.0</ele><time>2026-05-02T13:55:42.271Z</time></trkpt><trkpt lat="32.27983" lon="-110.8824068"><ele>771.6666666666667</ele><time>2026-05-02T13:55:43.271Z</time></trkpt><trkpt lat="32.2797718" lon="-110.8821767"><ele>772.3333333333334</ele><time>2026-05-02T13:55:44.271Z</time></trkpt><trkpt lat="32.279712" lon="-110.8819508"><ele>773.0</ele><time>2026-05-02T13:55:45.272Z</time></trkpt><trkpt lat="32.2796481" lon="-110.8817394"><ele>771.0</ele><time>2026-05-02T13:55:46.272Z</time></trkpt><trkpt lat="32.2795877" lon="-110.8815397"><ele>769.0</ele><time>2026-05-02T13:55:47.272Z</time></trkpt><trkpt lat="32.2795351" lon="-110.8813425"><ele>767.0</ele><time>2026-05-02T13:55:48.271Z</time></trkpt><trkpt lat="32.2794814" lon="-110.8811533"><ele>767.0</ele><time>2026-05-02T13:55:49.272Z</time></trkpt><trkpt lat="32.2794325" lon="-110.8809657"><ele>767.0</ele><time>2026-05-02T13:55:50.273Z</time></trkpt><trkpt lat="32.2793935" lon="-110.8807781"><ele>767.0</ele><time>2026-05-02T13:55:51.272Z</time></trkpt><trkpt lat="32.2793669" lon="-110.880593"><ele>767.6666666666666</ele><time>2026-05-02T13:55:52.272Z</time></trkpt><trkpt lat="32.2793608" lon="-110.8804004"><ele>768.3333333333333</ele><time>2026-05-02T13:55:53.272Z</time></trkpt><trkpt lat="32.2793824" lon="-110.8802022"><ele>769.0</ele><time>2026-05-02T13:55:54.271Z</time></trkpt><trkpt lat="32.2794311" lon="-110.8799907"><ele>767.3333333333333</ele><time>2026-05-02T13:55:55.271Z</time></trkpt><trkpt lat="32.2794938" lon="-110.8797763"><ele>765.6666666666666</ele><time>2026-05-02T13:55:56.272Z</time></trkpt><trkpt lat="32.2795696" lon="-110.8795759"><ele>764.0</ele><time>2026-05-02T13:55:57.271Z</time></trkpt><trkpt lat="32.2796422" lon="-110.8793834"><ele>764.3333333333333</ele><time>2026-05-02T13:55:58.273Z</time></trkpt><trkpt lat="32.2797007" lon="-110.8791953"><ele>764.6666666666666</ele><time>2026-05-02T13:55:59.271Z</time></trkpt><trkpt lat="32.2797405" lon="-110.8790102"><ele>765.0</ele><time>2026-05-02T13:56:00.271Z</time></trkpt><trkpt lat="32.2797639" lon="-110.8788174"><ele>765.0</ele><time>2026-05-02T13:56:01.272Z</time></trkpt><trkpt lat="32.2797636" lon="-110.8786133"><ele>765.0</ele><time>2026-05-02T13:56:02.272Z</time></trkpt><trkpt lat="32.279742" lon="-110.8784049"><ele>765.0</ele><time>2026-05-02T13:56:03.273Z</time></trkpt><trkpt lat="32.2796912" lon="-110.8782055"><ele>767.0</ele><time>2026-05-02T13:56:04.273Z</time></trkpt><trkpt lat="32.2796121" lon="-110.8780215"><ele>769.0</ele><time>2026-05-02T13:56:05.271Z</time></trkpt><trkpt lat="32.2795098" lon="-110.8778631"><ele>771.0</ele><time>2026-05-02T13:56:06.271Z</time></trkpt><trkpt lat="32.2793919" lon="-110.8777238"><ele>771.0</ele><time>2026-05-02T13:56:07.273Z</time></trkpt><trkpt lat="32.2792558" lon="-110.8776106"><ele>771.0</ele><time>2026-05-02T13:56:08.271Z</time></trkpt><trkpt lat="32.2791014" lon="-110.8775235"><ele>771.0</ele><time>2026-05-02T13:56:09.273Z</time></trkpt><trkpt lat="32.2789307" lon="-110.8774579"><ele>770.6666666666667</ele><time>2026-05-02T13:56:10.271Z</time></trkpt><trkpt lat="32.2787451" lon="-110.8774028"><ele>770.3333333333334</ele><time>2026-05-02T13:56:11.271Z</time></trkpt><trkpt lat="32.2785549" lon="-110.8773579"><ele>770.0</ele><time>2026-05-02T13:56:12.272Z</time></trkpt><trkpt lat="32.2783664" lon="-110.8773109"><ele>770.0</ele><time>2026-05-02T13:56:13.272Z</time></trkpt><trkpt lat="32.2781822" lon="-110.8772659"><ele>770.0</ele><time>2026-05-02T13:56:14.272Z</time></trkpt><trkpt lat="32.2779922" lon="-110.8772278"><ele>770.0</ele><time>2026-05-02T13:56:15.272Z</time></trkpt><trkpt lat="32.2778041" lon="-110.8771995"><ele>770.0</ele><time>2026-05-02T13:56:16.272Z</time></trkpt><trkpt lat="32.2776226" lon="-110.8771775"><ele>770.0</ele><time>2026-05-02T13:56:17.272Z</time></trkpt><trkpt lat="32.277442" lon="-110.8771657"><ele>770.0</ele><time>2026-05-02T13:56:18.272Z</time></trkpt><trkpt lat="32.2772657" lon="-110.8771649"><ele>769.6666666666667</ele><time>2026-05-02T13:56:19.273Z</time></trkpt><trkpt lat="32.277098" lon="-110.8771658"><ele>769.3333333333333</ele><time>2026-05-02T13:56:20.273Z</time></trkpt><trkpt lat="32.2769356" lon="-110.8771659"><ele>769.0</ele><time>2026-05-02T13:56:21.273Z</time></trkpt><trkpt lat="32.2767755" lon="-110.8771607"><ele>769.0</ele><time>2026-05-02T13:56:22.273Z</time></trkpt><trkpt lat="32.2766106" lon="-110.8771504"><ele>769.0</ele><time>2026-05-02T13:56:23.273Z</time></trkpt><trkpt lat="32.2764448" lon="-110.8771234"><ele>769.0</ele><time>2026-05-02T13:56:24.273Z</time></trkpt><trkpt lat="32.2762808" lon="-110.8770813"><ele>768.6666666666666</ele><time>2026-05-02T13:56:25.272Z</time></trkpt><trkpt lat="32.2761178" lon="-110.8770322"><ele>768.3333333333333</ele><time>2026-05-02T13:56:26.272Z</time></trkpt><trkpt lat="32.2759615" lon="-110.8769659"><ele>768.0</ele><time>2026-05-02T13:56:27.273Z</time></trkpt><trkpt lat="32.2758075" lon="-110.8768909"><ele>768.0</ele><time>2026-05-02T13:56:28.272Z</time></trkpt><trkpt lat="32.2756496" lon="-110.8767874"><ele>768.0</ele><time>2026-05-02T13:56:29.272Z</time></trkpt><trkpt lat="32.2754889" lon="-110.8766725"><ele>768.0</ele><time>2026-05-02T13:56:30.272Z</time></trkpt><trkpt lat="32.2753309" lon="-110.8765615"><ele>764.3333333333334</ele><time>2026-05-02T13:56:31.273Z</time></trkpt><trkpt lat="32.2751723" lon="-110.8764629"><ele>760.6666666666667</ele><time>2026-05-02T13:56:32.272Z</time></trkpt><trkpt lat="32.2750019" lon="-110.8763724"><ele>757.0</ele><time>2026-05-02T13:56:33.272Z</time></trkpt><trkpt lat="32.2748287" lon="-110.8762969"><ele>756.3333333333334</ele><time>2026-05-02T13:56:34.272Z</time></trkpt><trkpt lat="32.274655" lon="-110.8762324"><ele>755.6666666666666</ele><time>2026-05-02T13:56:35.272Z</time></trkpt><trkpt lat="32.2744878" lon="-110.8761717"><ele>755.0</ele><time>2026-05-02T13:56:36.272Z</time></trkpt><trkpt lat="32.2743314" lon="-110.8761104"><ele>755.0</ele><time>2026-05-02T13:56:37.272Z</time></trkpt><trkpt lat="32.274194" lon="-110.8760497"><ele>755.0</ele><time>2026-05-02T13:56:38.273Z</time></trkpt><trkpt lat="32.2740629" lon="-110.8759828"><ele>755.0</ele><time>2026-05-02T13:56:39.273Z</time></trkpt><trkpt lat="32.2739453" lon="-110.8759061"><ele>755.0</ele><time>2026-05-02T13:56:40.272Z</time></trkpt><trkpt lat="32.2738427" lon="-110.8758271"><ele>754.3333333333333</ele><time>2026-05-02T13:56:41.272Z</time></trkpt><trkpt lat="32.2737574" lon="-110.875752"><ele>753.6666666666666</ele><time>2026-05-02T13:56:42.273Z</time></trkpt><trkpt lat="32.2736861" lon="-110.8756736"><ele>753.0</ele><time>2026-05-02T13:56:43.272Z</time></trkpt><trkpt lat="32.2736301" lon="-110.8755961"><ele>752.3333333333334</ele><time>2026-05-02T13:56:44.272Z</time></trkpt><trkpt lat="32.273587" lon="-110.8755337"><ele>751.6666666666667</ele><time>2026-05-02T13:56:45.272Z</time></trkpt><trkpt lat="32.2735392" lon="-110.8754561"><ele>751.0</ele><time>2026-05-02T13:56:47.272Z</time></trkpt><trkpt lat="32.2734988" lon="-110.875384"><ele>751.0</ele><time>2026-05-02T13:57:24.272Z</time></trkpt><trkpt lat="32.2734609" lon="-110.8752933"><ele>751.0</ele><time>2026-05-02T13:57:26.272Z</time></trkpt><trkpt lat="32.2734324" lon="-110.8752147"><ele>751.0</ele><time>2026-05-02T13:57:27.273Z</time></trkpt><trkpt lat="32.273403" lon="-110.8751296"><ele>751.0</ele><time>2026-05-02T13:57:28.273Z</time></trkpt><trkpt lat="32.2733734" lon="-110.875043"><ele>751.0</ele><time>2026-05-02T13:57:29.272Z</time></trkpt><trkpt lat="32.2733442" lon="-110.8749564"><ele>751.0</ele><time>2026-05-02T13:57:30.272Z</time></trkpt><trkpt lat="32.2733188" lon="-110.8748571"><ele>751.25</ele><time>2026-05-02T13:57:31.274Z</time></trkpt><trkpt lat="32.2732984" lon="-110.8747395"><ele>751.5</ele><time>2026-05-02T13:57:32.273Z</time></trkpt><trkpt lat="32.2732834" lon="-110.8746048"><ele>751.75</ele><time>2026-05-02T13:57:33.272Z</time></trkpt><trkpt lat="32.2732748" lon="-110.8744561"><ele>752.0</ele><time>2026-05-02T13:57:34.273Z</time></trkpt><trkpt lat="32.2732734" lon="-110.8742832"><ele>752.0</ele><time>2026-05-02T13:57:35.274Z</time></trkpt><trkpt lat="32.2732788" lon="-110.8740948"><ele>752.0</ele><time>2026-05-02T13:57:36.272Z</time></trkpt><trkpt lat="32.2732927" lon="-110.8738879"><ele>752.0</ele><time>2026-05-02T13:57:37.273Z</time></trkpt><trkpt lat="32.2733148" lon="-110.8736641"><ele>753.0</ele><time>2026-05-02T13:57:38.273Z</time></trkpt><trkpt lat="32.2733436" lon="-110.8734184"><ele>754.0</ele><time>2026-05-02T13:57:39.273Z</time></trkpt><trkpt lat="32.273372" lon="-110.8731668"><ele>755.0</ele><time>2026-05-02T13:57:40.273Z</time></trkpt><trkpt lat="32.2733954" lon="-110.8729144"><ele>755.0</ele><time>2026-05-02T13:57:41.272Z</time></trkpt><trkpt lat="32.2734132" lon="-110.8726699"><ele>755.0</ele><time>2026-05-02T13:57:42.274Z</time></trkpt><trkpt lat="32.2734281" lon="-110.8724355"><ele>755.0</ele><time>2026-05-02T13:57:43.273Z</time></trkpt><trkpt lat="32.273442" lon="-110.8722059"><ele>754.3333333333333</ele><time>2026-05-02T13:57:44.272Z</time></trkpt><trkpt lat="32.2734552" lon="-110.8719826"><ele>753.6666666666666</ele><time>2026-05-02T13:57:45.274Z</time></trkpt><trkpt lat="32.273468" lon="-110.8717653"><ele>753.0</ele><time>2026-05-02T13:57:46.274Z</time></trkpt><trkpt lat="32.2734817" lon="-110.8715463"><ele>752.6666666666666</ele><time>2026-05-02T13:57:47.274Z</time></trkpt><trkpt lat="32.2734945" lon="-110.8713291"><ele>752.3333333333333</ele><time>2026-05-02T13:57:48.273Z</time></trkpt><trkpt lat="32.2735116" lon="-110.8711174"><ele>752.0</ele><time>2026-05-02T13:57:49.273Z</time></trkpt><trkpt lat="32.2735305" lon="-110.8709089"><ele>753.0</ele><time>2026-05-02T13:57:50.273Z</time></trkpt><trkpt lat="32.2735506" lon="-110.8707035"><ele>754.0</ele><time>2026-05-02T13:57:51.273Z</time></trkpt><trkpt lat="32.273574" lon="-110.8704944"><ele>755.0</ele><time>2026-05-02T13:57:52.274Z</time></trkpt><trkpt lat="32.2736082" lon="-110.8702818"><ele>755.0</ele><time>2026-05-02T13:57:53.274Z</time></trkpt><trkpt lat="32.2736515" lon="-110.8700691"><ele>755.0</ele><time>2026-05-02T13:57:54.273Z</time></trkpt><trkpt lat="32.2737016" lon="-110.8698536"><ele>755.0</ele><time>2026-05-02T13:57:55.273Z</time></trkpt><trkpt lat="32.2737668" lon="-110.8696367"><ele>755.0</ele><time>2026-05-02T13:57:56.274Z</time></trkpt><trkpt lat="32.2738376" lon="-110.8694206"><ele>755.0</ele><time>2026-05-02T13:57:57.273Z</time></trkpt><trkpt lat="32.2739088" lon="-110.8692037"><ele>755.0</ele><time>2026-05-02T13:57:58.274Z</time></trkpt><trkpt lat="32.2739826" lon="-110.8689955"><ele>757.0</ele><time>2026-05-02T13:57:59.273Z</time></trkpt><trkpt lat="32.2740581" lon="-110.8687854"><ele>759.0</ele><time>2026-05-02T13:58:00.273Z</time></trkpt><trkpt lat="32.2741398" lon="-110.8685889"><ele>761.0</ele><time>2026-05-02T13:58:01.273Z</time></trkpt><trkpt lat="32.2742271" lon="-110.8683902"><ele>762.3333333333333</ele><time>2026-05-02T13:58:02.273Z</time></trkpt><trkpt lat="32.2743155" lon="-110.8681993"><ele>763.6666666666666</ele><time>2026-05-02T13:58:03.274Z</time></trkpt><trkpt lat="32.2744017" lon="-110.8680138"><ele>765.0</ele><time>2026-05-02T13:58:04.274Z</time></trkpt><trkpt lat="32.2744848" lon="-110.8678337"><ele>765.0</ele><time>2026-05-02T13:58:05.273Z</time></trkpt><trkpt lat="32.2745605" lon="-110.8676524"><ele>765.0</ele><time>2026-05-02T13:58:06.274Z</time></trkpt><trkpt lat="32.274643" lon="-110.8674718"><ele>765.0</ele><time>2026-05-02T13:58:07.274Z</time></trkpt><trkpt lat="32.2747139" lon="-110.8672887"><ele>767.0</ele><time>2026-05-02T13:58:08.274Z</time></trkpt><trkpt lat="32.2747765" lon="-110.8670951"><ele>769.0</ele><time>2026-05-02T13:58:09.274Z</time></trkpt><trkpt lat="32.2748289" lon="-110.8668907"><ele>771.0</ele><time>2026-05-02T13:58:10.274Z</time></trkpt><trkpt lat="32.2748719" lon="-110.866671"><ele>771.0</ele><time>2026-05-02T13:58:11.274Z</time></trkpt><trkpt lat="32.2749045" lon="-110.8664462"><ele>771.0</ele><time>2026-05-02T13:58:12.273Z</time></trkpt><trkpt lat="32.2749257" lon="-110.8662223"><ele>771.0</ele><time>2026-05-02T13:58:13.274Z</time></trkpt><trkpt lat="32.2749239" lon="-110.8659983"><ele>769.6666666666666</ele><time>2026-05-02T13:58:14.274Z</time></trkpt><trkpt lat="32.2749123" lon="-110.8657721"><ele>768.3333333333333</ele><time>2026-05-02T13:58:15.273Z</time></trkpt><trkpt lat="32.2748844" lon="-110.8655547"><ele>767.0</ele><time>2026-05-02T13:58:16.273Z</time></trkpt><trkpt lat="32.2748558" lon="-110.8653397"><ele>767.0</ele><time>2026-05-02T13:58:17.274Z</time></trkpt><trkpt lat="32.2748241" lon="-110.8651316"><ele>767.0</ele><time>2026-05-02T13:58:18.274Z</time></trkpt><trkpt lat="32.2747937" lon="-110.8649235"><ele>767.0</ele><time>2026-05-02T13:58:19.274Z</time></trkpt><trkpt lat="32.2747602" lon="-110.8647167"><ele>766.3333333333333</ele><time>2026-05-02T13:58:20.274Z</time></trkpt><trkpt lat="32.2747261" lon="-110.864505"><ele>765.6666666666666</ele><time>2026-05-02T13:58:21.274Z</time></trkpt><trkpt lat="32.2746936" lon="-110.864289"><ele>765.0</ele><time>2026-05-02T13:58:22.273Z</time></trkpt><trkpt lat="32.2746603" lon="-110.8640685"><ele>764.6666666666666</ele><time>2026-05-02T13:58:23.273Z</time></trkpt><trkpt lat="32.274628" lon="-110.8638447"><ele>764.3333333333333</ele><time>2026-05-02T13:58:24.274Z</time></trkpt><trkpt lat="32.2745939" lon="-110.863618"><ele>764.0</ele><time>2026-05-02T13:58:25.274Z</time></trkpt><trkpt lat="32.2745616" lon="-110.8633869"><ele>763.0</ele><time>2026-05-02T13:58:26.274Z</time></trkpt><trkpt lat="32.2745264" lon="-110.8631612"><ele>762.0</ele><time>2026-05-02T13:58:27.274Z</time></trkpt><trkpt lat="32.2744965" lon="-110.8629393"><ele>761.0</ele><time>2026-05-02T13:58:28.273Z</time></trkpt><trkpt lat="32.2744635" lon="-110.8627155"><ele>761.3333333333333</ele><time>2026-05-02T13:58:29.274Z</time></trkpt><trkpt lat="32.2744356" lon="-110.8624934"><ele>761.6666666666666</ele><time>2026-05-02T13:58:30.273Z</time></trkpt><trkpt lat="32.2744046" lon="-110.8622703"><ele>762.0</ele><time>2026-05-02T13:58:31.273Z</time></trkpt><trkpt lat="32.2743732" lon="-110.8620543"><ele>762.0</ele><time>2026-05-02T13:58:32.273Z</time></trkpt><trkpt lat="32.2743456" lon="-110.8618366"><ele>762.0</ele><time>2026-05-02T13:58:33.274Z</time></trkpt><trkpt lat="32.2743165" lon="-110.861624"><ele>762.0</ele><time>2026-05-02T13:58:34.273Z</time></trkpt><trkpt lat="32.2742852" lon="-110.8614146"><ele>763.0</ele><time>2026-05-02T13:58:35.273Z</time></trkpt><trkpt lat="32.2742539" lon="-110.8612075"><ele>764.0</ele><time>2026-05-02T13:58:36.273Z</time></trkpt><trkpt lat="32.2742251" lon="-110.8610004"><ele>765.0</ele><time>2026-05-02T13:58:37.273Z</time></trkpt><trkpt lat="32.2741937" lon="-110.8607899"><ele>765.0</ele><time>2026-05-02T13:58:38.274Z</time></trkpt><trkpt lat="32.2741606" lon="-110.860568"><ele>765.0</ele><time>2026-05-02T13:58:39.274Z</time></trkpt><trkpt lat="32.2741265" lon="-110.8603411"><ele>765.0</ele><time>2026-05-02T13:58:40.274Z</time></trkpt><trkpt lat="32.2740956" lon="-110.8601101"><ele>764.6666666666666</ele><time>2026-05-02T13:58:41.273Z</time></trkpt><trkpt lat="32.2740671" lon="-110.8598832"><ele>764.3333333333333</ele><time>2026-05-02T13:58:42.273Z</time></trkpt><trkpt lat="32.2740419" lon="-110.8596673"><ele>764.0</ele><time>2026-05-02T13:58:43.275Z</time></trkpt><trkpt lat="32.274014" lon="-110.8594545"><ele>764.6666666666666</ele><time>2026-05-02T13:58:44.274Z</time></trkpt><trkpt lat="32.2739863" lon="-110.8592489"><ele>765.3333333333334</ele><time>2026-05-02T13:58:45.273Z</time></trkpt><trkpt lat="32.2739591" lon="-110.8590395"><ele>766.0</ele><time>2026-05-02T13:58:46.273Z</time></trkpt><trkpt lat="32.2739326" lon="-110.8588275"><ele>766.0</ele><time>2026-05-02T13:58:47.274Z</time></trkpt><trkpt lat="32.2739" lon="-110.8586124"><ele>766.0</ele><time>2026-05-02T13:58:48.274Z</time></trkpt><trkpt lat="32.2738667" lon="-110.8583957"><ele>766.0</ele><time>2026-05-02T13:58:49.273Z</time></trkpt><trkpt lat="32.2738289" lon="-110.8581768"><ele>766.3333333333334</ele><time>2026-05-02T13:58:50.275Z</time></trkpt><trkpt lat="32.2737931" lon="-110.8579553"><ele>766.6666666666666</ele><time>2026-05-02T13:58:51.274Z</time></trkpt><trkpt lat="32.2737585" lon="-110.8577358"><ele>767.0</ele><time>2026-05-02T13:58:52.273Z</time></trkpt><trkpt lat="32.2737241" lon="-110.8575167"><ele>766.0</ele><time>2026-05-02T13:58:53.273Z</time></trkpt><trkpt lat="32.2736851" lon="-110.8572923"><ele>765.0</ele><time>2026-05-02T13:58:54.273Z</time></trkpt><trkpt lat="32.2736496" lon="-110.8570646"><ele>764.0</ele><time>2026-05-02T13:58:55.274Z</time></trkpt><trkpt lat="32.2736123" lon="-110.856838"><ele>763.3333333333333</ele><time>2026-05-02T13:58:56.274Z</time></trkpt><trkpt lat="32.2735772" lon="-110.8566108"><ele>762.6666666666666</ele><time>2026-05-02T13:58:57.273Z</time></trkpt><trkpt lat="32.2735376" lon="-110.8563872"><ele>762.0</ele><time>2026-05-02T13:58:58.275Z</time></trkpt><trkpt lat="32.2735012" lon="-110.856163"><ele>762.6666666666666</ele><time>2026-05-02T13:58:59.275Z</time></trkpt><trkpt lat="32.2734617" lon="-110.8559426"><ele>763.3333333333333</ele><time>2026-05-02T13:59:00.273Z</time></trkpt><trkpt lat="32.2734176" lon="-110.8557243"><ele>764.0</ele><time>2026-05-02T13:59:01.274Z</time></trkpt><trkpt lat="32.2733664" lon="-110.85551"><ele>764.0</ele><time>2026-05-02T13:59:02.274Z</time></trkpt><trkpt lat="32.2733046" lon="-110.8553056"><ele>764.0</ele><time>2026-05-02T13:59:03.274Z</time></trkpt><trkpt lat="32.2732386" lon="-110.8551165"><ele>764.0</ele><time>2026-05-02T13:59:04.273Z</time></trkpt><trkpt lat="32.2731691" lon="-110.8549307"><ele>763.3333333333333</ele><time>2026-05-02T13:59:05.274Z</time></trkpt><trkpt lat="32.2730934" lon="-110.854745"><ele>762.6666666666666</ele><time>2026-05-02T13:59:06.275Z</time></trkpt><trkpt lat="32.2730134" lon="-110.8545495"><ele>762.0</ele><time>2026-05-02T13:59:07.273Z</time></trkpt><trkpt lat="32.2729346" lon="-110.8543557"><ele>762.6666666666666</ele><time>2026-05-02T13:59:08.273Z</time></trkpt><trkpt lat="32.2728576" lon="-110.8541605"><ele>763.3333333333333</ele><time>2026-05-02T13:59:09.274Z</time></trkpt><trkpt lat="32.2727866" lon="-110.8539553"><ele>764.0</ele><time>2026-05-02T13:59:10.274Z</time></trkpt><trkpt lat="32.2727141" lon="-110.8537461"><ele>764.0</ele><time>2026-05-02T13:59:11.274Z</time></trkpt><trkpt lat="32.2726463" lon="-110.8535294"><ele>764.0</ele><time>2026-05-02T13:59:12.274Z</time></trkpt><trkpt lat="32.2725932" lon="-110.8533013"><ele>764.0</ele><time>2026-05-02T13:59:13.274Z</time></trkpt><trkpt lat="32.2725478" lon="-110.8530723"><ele>763.3333333333333</ele><time>2026-05-02T13:59:14.274Z</time></trkpt><trkpt lat="32.2725179" lon="-110.8528296"><ele>762.6666666666666</ele><time>2026-05-02T13:59:15.275Z</time></trkpt><trkpt lat="32.2724966" lon="-110.8525884"><ele>762.0</ele><time>2026-05-02T13:59:16.275Z</time></trkpt><trkpt lat="32.2724867" lon="-110.8523444"><ele>762.0</ele><time>2026-05-02T13:59:17.274Z</time></trkpt><trkpt lat="32.2724814" lon="-110.852108"><ele>762.0</ele><time>2026-05-02T13:59:18.274Z</time></trkpt><trkpt lat="32.2724774" lon="-110.8518792"><ele>762.0</ele><time>2026-05-02T13:59:19.274Z</time></trkpt><trkpt lat="32.2724763" lon="-110.8516499"><ele>763.0</ele><time>2026-05-02T13:59:20.274Z</time></trkpt><trkpt lat="32.2724744" lon="-110.8514317"><ele>764.0</ele><time>2026-05-02T13:59:21.274Z</time></trkpt><trkpt lat="32.2724748" lon="-110.851213"><ele>765.0</ele><time>2026-05-02T13:59:22.274Z</time></trkpt><trkpt lat="32.2724753" lon="-110.8509947"><ele>764.3333333333334</ele><time>2026-05-02T13:59:23.275Z</time></trkpt><trkpt lat="32.2724762" lon="-110.8507741"><ele>763.6666666666667</ele><time>2026-05-02T13:59:24.274Z</time></trkpt><trkpt lat="32.27248" lon="-110.8505455"><ele>763.0</ele><time>2026-05-02T13:59:25.275Z</time></trkpt><trkpt lat="32.2724825" lon="-110.8503085"><ele>763.0</ele><time>2026-05-02T13:59:26.274Z</time></trkpt><trkpt lat="32.2724855" lon="-110.8500711"><ele>763.0</ele><time>2026-05-02T13:59:27.274Z</time></trkpt><trkpt lat="32.2724943" lon="-110.8498356"><ele>763.0</ele><time>2026-05-02T13:59:28.275Z</time></trkpt><trkpt lat="32.2724983" lon="-110.8496035"><ele>763.0</ele><time>2026-05-02T13:59:29.274Z</time></trkpt><trkpt lat="32.2725006" lon="-110.849376"><ele>763.0</ele><time>2026-05-02T13:59:30.275Z</time></trkpt><trkpt lat="32.2725031" lon="-110.8491507"><ele>763.0</ele><time>2026-05-02T13:59:31.275Z</time></trkpt><trkpt lat="32.2725062" lon="-110.8489229"><ele>764.6666666666667</ele><time>2026-05-02T13:59:32.274Z</time></trkpt><trkpt lat="32.2725109" lon="-110.848695"><ele>766.3333333333334</ele><time>2026-05-02T13:59:33.275Z</time></trkpt><trkpt lat="32.2725142" lon="-110.8484682"><ele>768.0</ele><time>2026-05-02T13:59:34.274Z</time></trkpt><trkpt lat="32.2725188" lon="-110.848246"><ele>768.0</ele><time>2026-05-02T13:59:35.274Z</time></trkpt><trkpt lat="32.2725189" lon="-110.8480192"><ele>768.0</ele><time>2026-05-02T13:59:36.275Z</time></trkpt><trkpt lat="32.2725203" lon="-110.8477938"><ele>768.0</ele><time>2026-05-02T13:59:37.274Z</time></trkpt><trkpt lat="32.2725198" lon="-110.8475673"><ele>767.0</ele><time>2026-05-02T13:59:38.274Z</time></trkpt><trkpt lat="32.2725171" lon="-110.8473315"><ele>766.0</ele><time>2026-05-02T13:59:39.274Z</time></trkpt><trkpt lat="32.2725197" lon="-110.8470974"><ele>765.0</ele><time>2026-05-02T13:59:40.274Z</time></trkpt><trkpt lat="32.2725209" lon="-110.8468617"><ele>765.0</ele><time>2026-05-02T13:59:41.274Z</time></trkpt><trkpt lat="32.2725232" lon="-110.8466363"><ele>765.0</ele><time>2026-05-02T13:59:42.275Z</time></trkpt><trkpt lat="32.2725234" lon="-110.8464127"><ele>765.0</ele><time>2026-05-02T13:59:43.274Z</time></trkpt><trkpt lat="32.2725252" lon="-110.8461946"><ele>765.0</ele><time>2026-05-02T13:59:44.275Z</time></trkpt><trkpt lat="32.2725262" lon="-110.8459746"><ele>765.0</ele><time>2026-05-02T13:59:45.275Z</time></trkpt><trkpt lat="32.2725262" lon="-110.8457662"><ele>765.0</ele><time>2026-05-02T13:59:46.275Z</time></trkpt><trkpt lat="32.2725255" lon="-110.8455565"><ele>765.3333333333334</ele><time>2026-05-02T13:59:47.274Z</time></trkpt><trkpt lat="32.2725302" lon="-110.8453449"><ele>765.6666666666667</ele><time>2026-05-02T13:59:48.274Z</time></trkpt><trkpt lat="32.2725325" lon="-110.8451264"><ele>766.0</ele><time>2026-05-02T13:59:49.275Z</time></trkpt><trkpt lat="32.272532" lon="-110.8449157"><ele>766.0</ele><time>2026-05-02T13:59:50.275Z</time></trkpt><trkpt lat="32.2725353" lon="-110.8447029"><ele>766.0</ele><time>2026-05-02T13:59:51.275Z</time></trkpt><trkpt lat="32.2725348" lon="-110.8444944"><ele>766.0</ele><time>2026-05-02T13:59:52.275Z</time></trkpt><trkpt lat="32.2725377" lon="-110.8442855"><ele>765.3333333333334</ele><time>2026-05-02T13:59:53.275Z</time></trkpt><trkpt lat="32.272537" lon="-110.844083"><ele>764.6666666666666</ele><time>2026-05-02T13:59:54.274Z</time></trkpt><trkpt lat="32.2725325" lon="-110.8438705"><ele>764.0</ele><time>2026-05-02T13:59:55.274Z</time></trkpt><trkpt lat="32.2725351" lon="-110.8436536"><ele>762.6666666666666</ele><time>2026-05-02T13:59:56.275Z</time></trkpt><trkpt lat="32.2725373" lon="-110.8434272"><ele>761.3333333333334</ele><time>2026-05-02T13:59:57.274Z</time></trkpt><trkpt lat="32.2725424" lon="-110.8432002"><ele>760.0</ele><time>2026-05-02T13:59:58.274Z</time></trkpt><trkpt lat="32.2725458" lon="-110.8429729"><ele>760.0</ele><time>2026-05-02T13:59:59.274Z</time></trkpt><trkpt lat="32.2725466" lon="-110.8427515"><ele>760.0</ele><time>2026-05-02T14:00:00.276Z</time></trkpt><trkpt lat="32.272553" lon="-110.8425333"><ele>760.0</ele><time>2026-05-02T14:00:01.275Z</time></trkpt><trkpt lat="32.2725567" lon="-110.8423224"><ele>760.0</ele><time>2026-05-02T14:00:02.274Z</time></trkpt><trkpt lat="32.2725571" lon="-110.8421165"><ele>760.0</ele><time>2026-05-02T14:00:03.275Z</time></trkpt><trkpt lat="32.2725611" lon="-110.841913"><ele>760.0</ele><time>2026-05-02T14:00:04.274Z</time></trkpt><trkpt lat="32.2725563" lon="-110.8417143"><ele>760.3333333333334</ele><time>2026-05-02T14:00:05.274Z</time></trkpt><trkpt lat="32.2725517" lon="-110.8415112"><ele>760.6666666666666</ele><time>2026-05-02T14:00:06.275Z</time></trkpt><trkpt lat="32.2725422" lon="-110.8413049"><ele>761.0</ele><time>2026-05-02T14:00:07.275Z</time></trkpt><trkpt lat="32.2725289" lon="-110.8410959"><ele>762.0</ele><time>2026-05-02T14:00:08.274Z</time></trkpt><trkpt lat="32.2725075" lon="-110.8408883"><ele>763.0</ele><time>2026-05-02T14:00:09.274Z</time></trkpt><trkpt lat="32.2724861" lon="-110.8406981"><ele>764.0</ele><time>2026-05-02T14:00:10.274Z</time></trkpt><trkpt lat="32.2724707" lon="-110.8405309"><ele>764.0</ele><time>2026-05-02T14:00:11.274Z</time></trkpt><trkpt lat="32.2724575" lon="-110.8403883"><ele>764.0</ele><time>2026-05-02T14:00:12.274Z</time></trkpt><trkpt lat="32.2724446" lon="-110.8402586"><ele>764.0</ele><time>2026-05-02T14:00:13.275Z</time></trkpt><trkpt lat="32.2724325" lon="-110.8401393"><ele>764.0</ele><time>2026-05-02T14:00:14.275Z</time></trkpt><trkpt lat="32.2724203" lon="-110.8400471"><ele>764.0</ele><time>2026-05-02T14:00:15.274Z</time></trkpt><trkpt lat="32.2724085" lon="-110.8399622"><ele>764.3333333333333</ele><time>2026-05-02T14:00:16.275Z</time></trkpt><trkpt lat="32.2723844" lon="-110.8398571"><ele>764.6666666666666</ele><time>2026-05-02T14:00:18.274Z</time></trkpt><trkpt lat="32.2723383" lon="-110.8397721"><ele>765.0</ele><time>2026-05-02T14:00:20.275Z</time></trkpt><trkpt lat="32.2722945" lon="-110.8397172"><ele>765.3333333333334</ele><time>2026-05-02T14:00:21.275Z</time></trkpt><trkpt lat="32.2722353" lon="-110.8396731"><ele>765.6666666666667</ele><time>2026-05-02T14:00:22.274Z</time></trkpt><trkpt lat="32.2721604" lon="-110.8396516"><ele>766.0</ele><time>2026-05-02T14:00:23.274Z</time></trkpt><trkpt lat="32.2720781" lon="-110.8396555"><ele>766.0</ele><time>2026-05-02T14:00:24.275Z</time></trkpt><trkpt lat="32.2719821" lon="-110.8396889"><ele>766.0</ele><time>2026-05-02T14:00:25.275Z</time></trkpt><trkpt lat="32.2718657" lon="-110.8397524"><ele>766.0</ele><time>2026-05-02T14:00:26.275Z</time></trkpt><trkpt lat="32.2717402" lon="-110.8398273"><ele>766.0</ele><time>2026-05-02T14:00:27.275Z</time></trkpt><trkpt lat="32.2715886" lon="-110.8399243"><ele>765.6666666666667</ele><time>2026-05-02T14:00:28.274Z</time></trkpt><trkpt lat="32.2714242" lon="-110.8400256"><ele>765.3333333333334</ele><time>2026-05-02T14:00:29.274Z</time></trkpt><trkpt lat="32.2712474" lon="-110.8401396"><ele>765.0</ele><time>2026-05-02T14:00:30.275Z</time></trkpt><trkpt lat="32.2710772" lon="-110.8402411"><ele>764.6666666666666</ele><time>2026-05-02T14:00:31.276Z</time></trkpt><trkpt lat="32.2709111" lon="-110.840346"><ele>764.3333333333333</ele><time>2026-05-02T14:00:32.274Z</time></trkpt><trkpt lat="32.2707439" lon="-110.8404537"><ele>764.0</ele><time>2026-05-02T14:00:33.274Z</time></trkpt><trkpt lat="32.2705736" lon="-110.8405642"><ele>763.0</ele><time>2026-05-02T14:00:34.275Z</time></trkpt><trkpt lat="32.2704016" lon="-110.8406729"><ele>762.0</ele><time>2026-05-02T14:00:35.276Z</time></trkpt><trkpt lat="32.2702247" lon="-110.8407852"><ele>761.0</ele><time>2026-05-02T14:00:36.276Z</time></trkpt><trkpt lat="32.2700466" lon="-110.8408854"><ele>761.0</ele><time>2026-05-02T14:00:37.275Z</time></trkpt><trkpt lat="32.2698592" lon="-110.8409685"><ele>761.0</ele><time>2026-05-02T14:00:38.276Z</time></trkpt><trkpt lat="32.269668" lon="-110.8410403"><ele>761.0</ele><time>2026-05-02T14:00:39.274Z</time></trkpt><trkpt lat="32.269474" lon="-110.8410938"><ele>761.0</ele><time>2026-05-02T14:00:40.275Z</time></trkpt><trkpt lat="32.2692652" lon="-110.8411333"><ele>761.0</ele><time>2026-05-02T14:00:41.275Z</time></trkpt><trkpt lat="32.2690584" lon="-110.8411494"><ele>761.0</ele><time>2026-05-02T14:00:42.274Z</time></trkpt><trkpt lat="32.2688561" lon="-110.8411597"><ele>761.0</ele><time>2026-05-02T14:00:43.275Z</time></trkpt><trkpt lat="32.268659" lon="-110.841158"><ele>761.0</ele><time>2026-05-02T14:00:44.275Z</time></trkpt><trkpt lat="32.2684649" lon="-110.8411638"><ele>761.0</ele><time>2026-05-02T14:00:45.275Z</time></trkpt><trkpt lat="32.2682624" lon="-110.8411715"><ele>760.6666666666666</ele><time>2026-05-02T14:00:46.276Z</time></trkpt><trkpt lat="32.2680591" lon="-110.841177"><ele>760.3333333333334</ele><time>2026-05-02T14:00:47.275Z</time></trkpt><trkpt lat="32.2678502" lon="-110.8411832"><ele>760.0</ele><time>2026-05-02T14:00:48.275Z</time></trkpt><trkpt lat="32.2676417" lon="-110.8411815"><ele>760.0</ele><time>2026-05-02T14:00:49.275Z</time></trkpt><trkpt lat="32.2674395" lon="-110.8411843"><ele>760.0</ele><time>2026-05-02T14:00:50.275Z</time></trkpt><trkpt lat="32.2672396" lon="-110.8411847"><ele>760.0</ele><time>2026-05-02T14:00:51.276Z</time></trkpt><trkpt lat="32.2670392" lon="-110.84119"><ele>760.0</ele><time>2026-05-02T14:00:52.275Z</time></trkpt><trkpt lat="32.2668393" lon="-110.8411914"><ele>760.0</ele><time>2026-05-02T14:00:53.276Z</time></trkpt><trkpt lat="32.2666396" lon="-110.8411893"><ele>760.0</ele><time>2026-05-02T14:00:54.275Z</time></trkpt><trkpt lat="32.2664398" lon="-110.8411873"><ele>758.3333333333334</ele><time>2026-05-02T14:00:55.276Z</time></trkpt><trkpt lat="32.2662406" lon="-110.8411922"><ele>756.6666666666666</ele><time>2026-05-02T14:00:56.275Z</time></trkpt><trkpt lat="32.2660435" lon="-110.8411912"><ele>755.0</ele><time>2026-05-02T14:00:57.276Z</time></trkpt><trkpt lat="32.2658472" lon="-110.841193"><ele>755.0</ele><time>2026-05-02T14:00:58.276Z</time></trkpt><trkpt lat="32.2656473" lon="-110.8411956"><ele>755.0</ele><time>2026-05-02T14:00:59.275Z</time></trkpt><trkpt lat="32.2654514" lon="-110.8411947"><ele>755.0</ele><time>2026-05-02T14:01:00.275Z</time></trkpt><trkpt lat="32.2652505" lon="-110.8411982"><ele>753.0</ele><time>2026-05-02T14:01:01.275Z</time></trkpt><trkpt lat="32.2650561" lon="-110.8412003"><ele>751.0</ele><time>2026-05-02T14:01:02.276Z</time></trkpt><trkpt lat="32.2648616" lon="-110.8412023"><ele>749.0</ele><time>2026-05-02T14:01:03.276Z</time></trkpt><trkpt lat="32.2646686" lon="-110.8412047"><ele>748.3333333333333</ele><time>2026-05-02T14:01:04.276Z</time></trkpt><trkpt lat="32.2644738" lon="-110.8412001"><ele>747.6666666666666</ele><time>2026-05-02T14:01:05.276Z</time></trkpt><trkpt lat="32.2642782" lon="-110.8412033"><ele>747.0</ele><time>2026-05-02T14:01:06.275Z</time></trkpt><trkpt lat="32.2640772" lon="-110.8412072"><ele>749.0</ele><time>2026-05-02T14:01:07.275Z</time></trkpt><trkpt lat="32.2638774" lon="-110.8412091"><ele>751.0</ele><time>2026-05-02T14:01:08.275Z</time></trkpt><trkpt lat="32.2636785" lon="-110.8412093"><ele>753.0</ele><time>2026-05-02T14:01:09.276Z</time></trkpt><trkpt lat="32.2634752" lon="-110.8412101"><ele>753.0</ele><time>2026-05-02T14:01:10.276Z</time></trkpt><trkpt lat="32.2632762" lon="-110.841208"><ele>753.0</ele><time>2026-05-02T14:01:11.276Z</time></trkpt><trkpt lat="32.2630836" lon="-110.8412089"><ele>753.0</ele><time>2026-05-02T14:01:12.275Z</time></trkpt><trkpt lat="32.26289" lon="-110.8412135"><ele>754.0</ele><time>2026-05-02T14:01:13.275Z</time></trkpt><trkpt lat="32.2626952" lon="-110.8412181"><ele>755.0</ele><time>2026-05-02T14:01:14.276Z</time></trkpt><trkpt lat="32.2624987" lon="-110.8412217"><ele>756.0</ele><time>2026-05-02T14:01:15.275Z</time></trkpt><trkpt lat="32.2623055" lon="-110.8412282"><ele>755.6666666666666</ele><time>2026-05-02T14:01:16.275Z</time></trkpt><trkpt lat="32.2621129" lon="-110.8412299"><ele>755.3333333333333</ele><time>2026-05-02T14:01:17.275Z</time></trkpt><trkpt lat="32.2619249" lon="-110.8412319"><ele>755.0</ele><time>2026-05-02T14:01:18.275Z</time></trkpt><trkpt lat="32.261733" lon="-110.8412329"><ele>755.0</ele><time>2026-05-02T14:01:19.276Z</time></trkpt><trkpt lat="32.2615421" lon="-110.8412373"><ele>755.0</ele><time>2026-05-02T14:01:20.276Z</time></trkpt><trkpt lat="32.261354" lon="-110.8412426"><ele>755.0</ele><time>2026-05-02T14:01:21.276Z</time></trkpt><trkpt lat="32.2611691" lon="-110.8412373"><ele>755.3333333333333</ele><time>2026-05-02T14:01:22.276Z</time></trkpt><trkpt lat="32.2609789" lon="-110.8412302"><ele>755.6666666666666</ele><time>2026-05-02T14:01:23.275Z</time></trkpt><trkpt lat="32.2607819" lon="-110.8412204"><ele>756.0</ele><time>2026-05-02T14:01:24.275Z</time></trkpt><trkpt lat="32.2605825" lon="-110.8412128"><ele>757.0</ele><time>2026-05-02T14:01:25.275Z</time></trkpt><trkpt lat="32.2603911" lon="-110.8412121"><ele>758.0</ele><time>2026-05-02T14:01:26.276Z</time></trkpt><trkpt lat="32.260203" lon="-110.8412088"><ele>759.0</ele><time>2026-05-02T14:01:27.276Z</time></trkpt><trkpt lat="32.2600159" lon="-110.8412057"><ele>759.0</ele><time>2026-05-02T14:01:28.276Z</time></trkpt><trkpt lat="32.2598332" lon="-110.8412081"><ele>759.0</ele><time>2026-05-02T14:01:29.276Z</time></trkpt><trkpt lat="32.2596472" lon="-110.8412096"><ele>759.0</ele><time>2026-05-02T14:01:30.275Z</time></trkpt><trkpt lat="32.2594618" lon="-110.8412137"><ele>759.3333333333334</ele><time>2026-05-02T14:01:31.276Z</time></trkpt><trkpt lat="32.2592789" lon="-110.8412152"><ele>759.6666666666667</ele><time>2026-05-02T14:01:32.275Z</time></trkpt><trkpt lat="32.259102" lon="-110.8412155"><ele>760.0</ele><time>2026-05-02T14:01:33.275Z</time></trkpt><trkpt lat="32.2589234" lon="-110.8412107"><ele>760.0</ele><time>2026-05-02T14:01:34.276Z</time></trkpt><trkpt lat="32.2587491" lon="-110.8412093"><ele>760.0</ele><time>2026-05-02T14:01:35.275Z</time></trkpt><trkpt lat="32.2585697" lon="-110.841208"><ele>760.0</ele><time>2026-05-02T14:01:36.276Z</time></trkpt><trkpt lat="32.2583819" lon="-110.8412112"><ele>760.0</ele><time>2026-05-02T14:01:37.276Z</time></trkpt><trkpt lat="32.2581985" lon="-110.841216"><ele>760.0</ele><time>2026-05-02T14:01:38.276Z</time></trkpt><trkpt lat="32.2580139" lon="-110.841214"><ele>760.0</ele><time>2026-05-02T14:01:39.275Z</time></trkpt><trkpt lat="32.2578256" lon="-110.8412117"><ele>760.3333333333334</ele><time>2026-05-02T14:01:40.275Z</time></trkpt><trkpt lat="32.2576383" lon="-110.8412022"><ele>760.6666666666666</ele><time>2026-05-02T14:01:41.276Z</time></trkpt><trkpt lat="32.2574496" lon="-110.8411942"><ele>761.0</ele><time>2026-05-02T14:01:42.275Z</time></trkpt><trkpt lat="32.2572584" lon="-110.8411877"><ele>761.6666666666666</ele><time>2026-05-02T14:01:43.275Z</time></trkpt><trkpt lat="32.2570696" lon="-110.8411794"><ele>762.3333333333334</ele><time>2026-05-02T14:01:44.276Z</time></trkpt><trkpt lat="32.2568824" lon="-110.8411716"><ele>763.0</ele><time>2026-05-02T14:01:45.277Z</time></trkpt><trkpt lat="32.2566956" lon="-110.8411643"><ele>763.0</ele><time>2026-05-02T14:01:46.277Z</time></trkpt><trkpt lat="32.2565124" lon="-110.8411571"><ele>763.0</ele><time>2026-05-02T14:01:47.275Z</time></trkpt><trkpt lat="32.2563317" lon="-110.8411526"><ele>763.0</ele><time>2026-05-02T14:01:48.276Z</time></trkpt><trkpt lat="32.2561492" lon="-110.8411431"><ele>763.0</ele><time>2026-05-02T14:01:49.277Z</time></trkpt><trkpt lat="32.2559648" lon="-110.8411355"><ele>763.0</ele><time>2026-05-02T14:01:50.276Z</time></trkpt><trkpt lat="32.2557775" lon="-110.8411267"><ele>763.0</ele><time>2026-05-02T14:01:51.277Z</time></trkpt><trkpt lat="32.2555821" lon="-110.8411205"><ele>763.3333333333334</ele><time>2026-05-02T14:01:52.276Z</time></trkpt><trkpt lat="32.2553812" lon="-110.8411153"><ele>763.6666666666666</ele><time>2026-05-02T14:01:53.276Z</time></trkpt><trkpt lat="32.25518" lon="-110.8411079"><ele>764.0</ele><time>2026-05-02T14:01:54.277Z</time></trkpt><trkpt lat="32.2549812" lon="-110.8410988"><ele>764.3333333333333</ele><time>2026-05-02T14:01:55.276Z</time></trkpt><trkpt lat="32.2547846" lon="-110.8410884"><ele>764.6666666666666</ele><time>2026-05-02T14:01:56.276Z</time></trkpt><trkpt lat="32.254591" lon="-110.8410787"><ele>765.0</ele><time>2026-05-02T14:01:57.277Z</time></trkpt><trkpt lat="32.2543959" lon="-110.8410686"><ele>765.0</ele><time>2026-05-02T14:01:58.276Z</time></trkpt><trkpt lat="32.2541998" lon="-110.8410563"><ele>765.0</ele><time>2026-05-02T14:01:59.276Z</time></trkpt><trkpt lat="32.2539999" lon="-110.8410456"><ele>765.0</ele><time>2026-05-02T14:02:00.276Z</time></trkpt><trkpt lat="32.2537996" lon="-110.8410363"><ele>764.6666666666666</ele><time>2026-05-02T14:02:01.277Z</time></trkpt><trkpt lat="32.2536139" lon="-110.8410271"><ele>764.3333333333333</ele><time>2026-05-02T14:02:02.275Z</time></trkpt><trkpt lat="32.2534334" lon="-110.8410112"><ele>764.0</ele><time>2026-05-02T14:02:03.275Z</time></trkpt><trkpt lat="32.2532549" lon="-110.840993"><ele>765.3333333333333</ele><time>2026-05-02T14:02:04.276Z</time></trkpt><trkpt lat="32.2530747" lon="-110.8409787"><ele>766.6666666666666</ele><time>2026-05-02T14:02:05.276Z</time></trkpt><trkpt lat="32.2528955" lon="-110.8409682"><ele>768.0</ele><time>2026-05-02T14:02:06.276Z</time></trkpt><trkpt lat="32.2527175" lon="-110.8409632"><ele>768.3333333333333</ele><time>2026-05-02T14:02:07.275Z</time></trkpt><trkpt lat="32.2525464" lon="-110.8409534"><ele>768.6666666666666</ele><time>2026-05-02T14:02:08.275Z</time></trkpt><trkpt lat="32.2523739" lon="-110.8409403"><ele>769.0</ele><time>2026-05-02T14:02:09.277Z</time></trkpt><trkpt lat="32.2521937" lon="-110.8409167"><ele>769.6666666666666</ele><time>2026-05-02T14:02:10.277Z</time></trkpt><trkpt lat="32.2520182" lon="-110.8408978"><ele>770.3333333333333</ele><time>2026-05-02T14:02:11.277Z</time></trkpt><trkpt lat="32.2518521" lon="-110.8408808"><ele>771.0</ele><time>2026-05-02T14:02:12.276Z</time></trkpt><trkpt lat="32.2517011" lon="-110.8408731"><ele>771.0</ele><time>2026-05-02T14:02:13.276Z</time></trkpt><trkpt lat="32.2515703" lon="-110.8408657"><ele>771.0</ele><time>2026-05-02T14:02:14.276Z</time></trkpt><trkpt lat="32.2514566" lon="-110.8408606"><ele>771.0</ele><time>2026-05-02T14:02:15.277Z</time></trkpt><trkpt lat="32.2513564" lon="-110.8408578"><ele>771.0</ele><time>2026-05-02T14:02:16.277Z</time></trkpt><trkpt lat="32.2512819" lon="-110.840854"><ele>771.0</ele><time>2026-05-02T14:02:17.276Z</time></trkpt><trkpt lat="32.2511863" lon="-110.8408515"><ele>770.1666666666666</ele><time>2026-05-02T14:02:19.277Z</time></trkpt><trkpt lat="32.2511151" lon="-110.8408534"><ele>769.3333333333334</ele><time>2026-05-02T14:03:04.276Z</time></trkpt><trkpt lat="32.2510235" lon="-110.8408508"><ele>768.5</ele><time>2026-05-02T14:03:06.277Z</time></trkpt><trkpt lat="32.2509578" lon="-110.8408364"><ele>767.6666666666667</ele><time>2026-05-02T14:03:07.276Z</time></trkpt><trkpt lat="32.2508898" lon="-110.840807"><ele>766.8333333333334</ele><time>2026-05-02T14:03:08.277Z</time></trkpt><trkpt lat="32.2508255" lon="-110.8407618"><ele>766.0</ele><time>2026-05-02T14:03:09.277Z</time></trkpt><trkpt lat="32.2507709" lon="-110.8407031"><ele>766.0</ele><time>2026-05-02T14:03:10.277Z</time></trkpt><trkpt lat="32.2507321" lon="-110.8406246"><ele>766.0</ele><time>2026-05-02T14:03:11.277Z</time></trkpt><trkpt lat="32.2507116" lon="-110.840525"><ele>766.0</ele><time>2026-05-02T14:03:12.277Z</time></trkpt><trkpt lat="32.2507071" lon="-110.8404037"><ele>766.0</ele><time>2026-05-02T14:03:13.276Z</time></trkpt><trkpt lat="32.2507085" lon="-110.8402635"><ele>766.0</ele><time>2026-05-02T14:03:14.276Z</time></trkpt><trkpt lat="32.2507103" lon="-110.8401018"><ele>766.3333333333334</ele><time>2026-05-02T14:03:15.277Z</time></trkpt><trkpt lat="32.2507121" lon="-110.8399155"><ele>766.6666666666666</ele><time>2026-05-02T14:03:16.276Z</time></trkpt><trkpt lat="32.2507138" lon="-110.8397209"><ele>767.0</ele><time>2026-05-02T14:03:17.277Z</time></trkpt><trkpt lat="32.250715" lon="-110.8395161"><ele>767.0</ele><time>2026-05-02T14:03:18.277Z</time></trkpt><trkpt lat="32.250715" lon="-110.8393091"><ele>767.0</ele><time>2026-05-02T14:03:19.276Z</time></trkpt><trkpt lat="32.250715" lon="-110.8391024"><ele>767.0</ele><time>2026-05-02T14:03:20.277Z</time></trkpt><trkpt lat="32.2507148" lon="-110.8388981"><ele>767.6666666666666</ele><time>2026-05-02T14:03:21.277Z</time></trkpt><trkpt lat="32.2507143" lon="-110.8386979"><ele>768.3333333333333</ele><time>2026-05-02T14:03:22.277Z</time></trkpt><trkpt lat="32.2507136" lon="-110.8385028"><ele>769.0</ele><time>2026-05-02T14:03:23.277Z</time></trkpt><trkpt lat="32.2507129" lon="-110.8383098"><ele>770.0</ele><time>2026-05-02T14:03:24.276Z</time></trkpt><trkpt lat="32.2507134" lon="-110.8381166"><ele>771.0</ele><time>2026-05-02T14:03:25.277Z</time></trkpt><trkpt lat="32.2507135" lon="-110.8379225"><ele>772.0</ele><time>2026-05-02T14:03:26.276Z</time></trkpt><trkpt lat="32.2507118" lon="-110.8377281"><ele>771.3333333333333</ele><time>2026-05-02T14:03:27.276Z</time></trkpt><trkpt lat="32.2507097" lon="-110.8375346"><ele>770.6666666666667</ele><time>2026-05-02T14:03:28.277Z</time></trkpt><trkpt lat="32.2507102" lon="-110.8373409"><ele>770.0</ele><time>2026-05-02T14:03:29.277Z</time></trkpt><trkpt lat="32.2507074" lon="-110.8371507"><ele>770.0</ele><time>2026-05-02T14:03:30.276Z</time></trkpt><trkpt lat="32.2507077" lon="-110.8369499"><ele>770.0</ele><time>2026-05-02T14:03:31.276Z</time></trkpt><trkpt lat="32.250708" lon="-110.8367453"><ele>770.0</ele><time>2026-05-02T14:03:32.276Z</time></trkpt><trkpt lat="32.2507044" lon="-110.8365371"><ele>769.0</ele><time>2026-05-02T14:03:33.277Z</time></trkpt><trkpt lat="32.2507016" lon="-110.8363218"><ele>768.0</ele><time>2026-05-02T14:03:34.277Z</time></trkpt><trkpt lat="32.2507032" lon="-110.8360998"><ele>767.0</ele><time>2026-05-02T14:03:35.277Z</time></trkpt><trkpt lat="32.2507018" lon="-110.8358744"><ele>766.3333333333333</ele><time>2026-05-02T14:03:36.276Z</time></trkpt><trkpt lat="32.2506968" lon="-110.8356381"><ele>765.6666666666666</ele><time>2026-05-02T14:03:37.278Z</time></trkpt><trkpt lat="32.2506939" lon="-110.8353916"><ele>765.0</ele><time>2026-05-02T14:03:38.277Z</time></trkpt><trkpt lat="32.2506917" lon="-110.8351406"><ele>766.0</ele><time>2026-05-02T14:03:39.278Z</time></trkpt><trkpt lat="32.2506905" lon="-110.8348817"><ele>767.0</ele><time>2026-05-02T14:03:40.278Z</time></trkpt><trkpt lat="32.2506876" lon="-110.8346286"><ele>768.0</ele><time>2026-05-02T14:03:41.276Z</time></trkpt><trkpt lat="32.2506859" lon="-110.8343793"><ele>767.6666666666666</ele><time>2026-05-02T14:03:42.277Z</time></trkpt><trkpt lat="32.2506855" lon="-110.834137"><ele>767.3333333333333</ele><time>2026-05-02T14:03:43.277Z</time></trkpt><trkpt lat="32.2506846" lon="-110.8338985"><ele>767.0</ele><time>2026-05-02T14:03:44.276Z</time></trkpt><trkpt lat="32.2506834" lon="-110.8336722"><ele>767.3333333333333</ele><time>2026-05-02T14:03:45.276Z</time></trkpt><trkpt lat="32.2506839" lon="-110.8334568"><ele>767.6666666666666</ele><time>2026-05-02T14:03:46.276Z</time></trkpt><trkpt lat="32.2506819" lon="-110.8332535"><ele>768.0</ele><time>2026-05-02T14:03:47.276Z</time></trkpt><trkpt lat="32.2506777" lon="-110.8330518"><ele>768.0</ele><time>2026-05-02T14:03:48.277Z</time></trkpt><trkpt lat="32.2506757" lon="-110.8328479"><ele>768.0</ele><time>2026-05-02T14:03:49.277Z</time></trkpt><trkpt lat="32.2506723" lon="-110.8326408"><ele>768.0</ele><time>2026-05-02T14:03:50.276Z</time></trkpt><trkpt lat="32.2506731" lon="-110.8324306"><ele>768.3333333333333</ele><time>2026-05-02T14:03:51.277Z</time></trkpt><trkpt lat="32.2506729" lon="-110.832227"><ele>768.6666666666666</ele><time>2026-05-02T14:03:52.278Z</time></trkpt><trkpt lat="32.2506782" lon="-110.8320325"><ele>769.0</ele><time>2026-05-02T14:03:53.278Z</time></trkpt><trkpt lat="32.2506772" lon="-110.8318489"><ele>769.25</ele><time>2026-05-02T14:03:54.278Z</time></trkpt><trkpt lat="32.2506781" lon="-110.8316756"><ele>769.5</ele><time>2026-05-02T14:03:55.278Z</time></trkpt><trkpt lat="32.2506772" lon="-110.8315181"><ele>769.75</ele><time>2026-05-02T14:03:56.277Z</time></trkpt><trkpt lat="32.2506758" lon="-110.8313715"><ele>770.0</ele><time>2026-05-02T14:03:57.277Z</time></trkpt><trkpt lat="32.250679" lon="-110.8312371"><ele>770.0000000000001</ele><time>2026-05-02T14:03:58.278Z</time></trkpt><trkpt lat="32.2506814" lon="-110.8311173"><ele>770.0</ele><time>2026-05-02T14:03:59.277Z</time></trkpt><trkpt lat="32.2506844" lon="-110.8310125"><ele>770.0</ele><time>2026-05-02T14:04:00.278Z</time></trkpt><trkpt lat="32.2506879" lon="-110.8309247"><ele>770.0</ele><time>2026-05-02T14:04:01.277Z</time></trkpt><trkpt lat="32.2506869" lon="-110.8308475"><ele>770.0000000000001</ele><time>2026-05-02T14:04:02.277Z</time></trkpt><trkpt lat="32.2506911" lon="-110.8307324"><ele>770.0</ele><time>2026-05-02T14:04:04.278Z</time></trkpt><trkpt lat="32.2506924" lon="-110.8306402"><ele>770.25</ele><time>2026-05-02T14:04:07.277Z</time></trkpt><trkpt lat="32.250686" lon="-110.8305309"><ele>770.5</ele><time>2026-05-02T14:04:10.278Z</time></trkpt><trkpt lat="32.2506891" lon="-110.8304447"><ele>770.75</ele><time>2026-05-02T14:04:11.278Z</time></trkpt><trkpt lat="32.2506942" lon="-110.830219"><ele>771.0</ele><time>2026-05-02T14:04:13.278Z</time></trkpt><trkpt lat="32.2506966" lon="-110.83008"><ele>771.0</ele><time>2026-05-02T14:04:14.278Z</time></trkpt><trkpt lat="32.2506974" lon="-110.8299344"><ele>771.0</ele><time>2026-05-02T14:04:15.277Z</time></trkpt><trkpt lat="32.2506983" lon="-110.829765"><ele>771.0</ele><time>2026-05-02T14:04:16.278Z</time></trkpt><trkpt lat="32.2506982" lon="-110.829587"><ele>771.0</ele><time>2026-05-02T14:04:17.277Z</time></trkpt><trkpt lat="32.2506968" lon="-110.8293968"><ele>771.0</ele><time>2026-05-02T14:04:18.277Z</time></trkpt><trkpt lat="32.2506956" lon="-110.8292032"><ele>771.0</ele><time>2026-05-02T14:04:19.278Z</time></trkpt><trkpt lat="32.2506967" lon="-110.8289789"><ele>771.0</ele><time>2026-05-02T14:04:20.278Z</time></trkpt><trkpt lat="32.250706" lon="-110.8287442"><ele>771.0</ele><time>2026-05-02T14:04:21.278Z</time></trkpt><trkpt lat="32.2507154" lon="-110.8285049"><ele>771.0</ele><time>2026-05-02T14:04:22.277Z</time></trkpt><trkpt lat="32.2507268" lon="-110.828269"><ele>771.0</ele><time>2026-05-02T14:04:23.278Z</time></trkpt><trkpt lat="32.2507445" lon="-110.8280307"><ele>769.6666666666666</ele><time>2026-05-02T14:04:24.277Z</time></trkpt><trkpt lat="32.2507675" lon="-110.8278005"><ele>768.3333333333333</ele><time>2026-05-02T14:04:25.277Z</time></trkpt><trkpt lat="32.2507977" lon="-110.8275714"><ele>767.0</ele><time>2026-05-02T14:04:26.277Z</time></trkpt><trkpt lat="32.2508339" lon="-110.8273461"><ele>767.0</ele><time>2026-05-02T14:04:27.278Z</time></trkpt><trkpt lat="32.2508786" lon="-110.8271234"><ele>767.0</ele><time>2026-05-02T14:04:28.277Z</time></trkpt><trkpt lat="32.2509332" lon="-110.8268969"><ele>767.0</ele><time>2026-05-02T14:04:29.277Z</time></trkpt><trkpt lat="32.2510009" lon="-110.8266765"><ele>767.3333333333333</ele><time>2026-05-02T14:04:30.277Z</time></trkpt><trkpt lat="32.2510718" lon="-110.826451"><ele>767.6666666666666</ele><time>2026-05-02T14:04:31.277Z</time></trkpt><trkpt lat="32.2511604" lon="-110.8262232"><ele>768.0</ele><time>2026-05-02T14:04:32.277Z</time></trkpt><trkpt lat="32.2512617" lon="-110.8259976"><ele>768.0</ele><time>2026-05-02T14:04:33.277Z</time></trkpt><trkpt lat="32.2513709" lon="-110.825782"><ele>768.0</ele><time>2026-05-02T14:04:34.278Z</time></trkpt><trkpt lat="32.2514866" lon="-110.8255715"><ele>768.0</ele><time>2026-05-02T14:04:35.277Z</time></trkpt><trkpt lat="32.2516108" lon="-110.8253709"><ele>768.0</ele><time>2026-05-02T14:04:36.278Z</time></trkpt><trkpt lat="32.2517488" lon="-110.8251798"><ele>768.0</ele><time>2026-05-02T14:04:37.278Z</time></trkpt><trkpt lat="32.251891" lon="-110.8249991"><ele>768.0</ele><time>2026-05-02T14:04:38.277Z</time></trkpt><trkpt lat="32.2520454" lon="-110.8248283"><ele>768.0</ele><time>2026-05-02T14:04:39.278Z</time></trkpt><trkpt lat="32.252206" lon="-110.8246605"><ele>768.0</ele><time>2026-05-02T14:04:40.277Z</time></trkpt><trkpt lat="32.2523752" lon="-110.8244916"><ele>768.0</ele><time>2026-05-02T14:04:41.278Z</time></trkpt><trkpt lat="32.2525508" lon="-110.8243149"><ele>768.5</ele><time>2026-05-02T14:04:42.278Z</time></trkpt><trkpt lat="32.2527267" lon="-110.8241323"><ele>769.0</ele><time>2026-05-02T14:04:43.277Z</time></trkpt><trkpt lat="32.2529034" lon="-110.8239555"><ele>769.0</ele><time>2026-05-02T14:04:44.278Z</time></trkpt><trkpt lat="32.2530765" lon="-110.8237798"><ele>769.0</ele><time>2026-05-02T14:04:45.278Z</time></trkpt><trkpt lat="32.253244" lon="-110.8236077"><ele>767.6666666666666</ele><time>2026-05-02T14:04:46.277Z</time></trkpt><trkpt lat="32.2534126" lon="-110.8234421"><ele>766.3333333333333</ele><time>2026-05-02T14:04:47.277Z</time></trkpt><trkpt lat="32.2535807" lon="-110.8232778"><ele>765.0</ele><time>2026-05-02T14:04:48.278Z</time></trkpt><trkpt lat="32.2537495" lon="-110.8231106"><ele>765.0</ele><time>2026-05-02T14:04:49.277Z</time></trkpt><trkpt lat="32.2539133" lon="-110.822945"><ele>765.0</ele><time>2026-05-02T14:04:50.279Z</time></trkpt><trkpt lat="32.2540826" lon="-110.8227768"><ele>765.0</ele><time>2026-05-02T14:04:51.278Z</time></trkpt><trkpt lat="32.2542507" lon="-110.8226109"><ele>764.6666666666666</ele><time>2026-05-02T14:04:52.278Z</time></trkpt><trkpt lat="32.2544198" lon="-110.8224431"><ele>764.3333333333333</ele><time>2026-05-02T14:04:53.278Z</time></trkpt><trkpt lat="32.2545904" lon="-110.8222716"><ele>764.0</ele><time>2026-05-02T14:04:54.278Z</time></trkpt><trkpt lat="32.2547586" lon="-110.8221063"><ele>764.3333333333333</ele><time>2026-05-02T14:04:55.278Z</time></trkpt><trkpt lat="32.2549235" lon="-110.8219386"><ele>764.6666666666666</ele><time>2026-05-02T14:04:56.278Z</time></trkpt><trkpt lat="32.2550937" lon="-110.8217772"><ele>765.0</ele><time>2026-05-02T14:04:57.279Z</time></trkpt><trkpt lat="32.2552605" lon="-110.8216149"><ele>764.0</ele><time>2026-05-02T14:04:58.279Z</time></trkpt><trkpt lat="32.2554313" lon="-110.8214379"><ele>763.0</ele><time>2026-05-02T14:04:59.278Z</time></trkpt><trkpt lat="32.2556049" lon="-110.8212645"><ele>762.6666666666667</ele><time>2026-05-02T14:05:00.278Z</time></trkpt><trkpt lat="32.255773" lon="-110.8210965"><ele>762.3333333333334</ele><time>2026-05-02T14:05:01.277Z</time></trkpt><trkpt lat="32.2559442" lon="-110.8209296"><ele>762.0</ele><time>2026-05-02T14:05:02.279Z</time></trkpt><trkpt lat="32.2561106" lon="-110.8207666"><ele>761.6666666666666</ele><time>2026-05-02T14:05:03.278Z</time></trkpt><trkpt lat="32.2562724" lon="-110.8206067"><ele>761.3333333333333</ele><time>2026-05-02T14:05:04.279Z</time></trkpt><trkpt lat="32.2564297" lon="-110.8204408"><ele>761.0</ele><time>2026-05-02T14:05:05.277Z</time></trkpt><trkpt lat="32.2565815" lon="-110.8202893"><ele>761.6666666666666</ele><time>2026-05-02T14:05:06.278Z</time></trkpt><trkpt lat="32.2567302" lon="-110.8201365"><ele>762.3333333333334</ele><time>2026-05-02T14:05:07.278Z</time></trkpt><trkpt lat="32.2568779" lon="-110.8199914"><ele>763.0</ele><time>2026-05-02T14:05:08.278Z</time></trkpt><trkpt lat="32.2570253" lon="-110.8198383"><ele>763.0</ele><time>2026-05-02T14:05:09.279Z</time></trkpt><trkpt lat="32.2571658" lon="-110.8196724"><ele>763.0</ele><time>2026-05-02T14:05:10.277Z</time></trkpt><trkpt lat="32.2572973" lon="-110.8194958"><ele>763.0</ele><time>2026-05-02T14:05:11.277Z</time></trkpt><trkpt lat="32.2574223" lon="-110.8193064"><ele>763.6666666666667</ele><time>2026-05-02T14:05:12.277Z</time></trkpt><trkpt lat="32.2575387" lon="-110.8191073"><ele>764.3333333333334</ele><time>2026-05-02T14:05:13.277Z</time></trkpt><trkpt lat="32.2576449" lon="-110.8188973"><ele>765.0</ele><time>2026-05-02T14:05:14.277Z</time></trkpt><trkpt lat="32.2577389" lon="-110.8186769"><ele>765.0</ele><time>2026-05-02T14:05:15.279Z</time></trkpt><trkpt lat="32.25782" lon="-110.8184485"><ele>765.0</ele><time>2026-05-02T14:05:16.278Z</time></trkpt><trkpt lat="32.2578908" lon="-110.8182197"><ele>765.0</ele><time>2026-05-02T14:05:17.277Z</time></trkpt><trkpt lat="32.2579415" lon="-110.8179804"><ele>765.0</ele><time>2026-05-02T14:05:18.278Z</time></trkpt><trkpt lat="32.2579834" lon="-110.817742"><ele>765.0</ele><time>2026-05-02T14:05:19.278Z</time></trkpt><trkpt lat="32.2580108" lon="-110.8175018"><ele>765.0</ele><time>2026-05-02T14:05:20.279Z</time></trkpt><trkpt lat="32.2580195" lon="-110.817263"><ele>764.6666666666666</ele><time>2026-05-02T14:05:21.278Z</time></trkpt><trkpt lat="32.2580205" lon="-110.8170258"><ele>764.3333333333333</ele><time>2026-05-02T14:05:22.278Z</time></trkpt><trkpt lat="32.2580211" lon="-110.8167829"><ele>764.0</ele><time>2026-05-02T14:05:23.277Z</time></trkpt><trkpt lat="32.2580235" lon="-110.8165413"><ele>764.0</ele><time>2026-05-02T14:05:24.278Z</time></trkpt><trkpt lat="32.2580267" lon="-110.8163043"><ele>764.0</ele><time>2026-05-02T14:05:25.279Z</time></trkpt><trkpt lat="32.2580296" lon="-110.8160653"><ele>764.0</ele><time>2026-05-02T14:05:26.279Z</time></trkpt><trkpt lat="32.2580246" lon="-110.8158287"><ele>765.3333333333333</ele><time>2026-05-02T14:05:27.279Z</time></trkpt><trkpt lat="32.2580253" lon="-110.815587"><ele>766.6666666666666</ele><time>2026-05-02T14:05:28.279Z</time></trkpt><trkpt lat="32.2580241" lon="-110.8153356"><ele>768.0</ele><time>2026-05-02T14:05:29.278Z</time></trkpt><trkpt lat="32.2580236" lon="-110.8150865"><ele>768.3333333333333</ele><time>2026-05-02T14:05:30.278Z</time></trkpt><trkpt lat="32.2580252" lon="-110.8148368"><ele>768.6666666666666</ele><time>2026-05-02T14:05:31.278Z</time></trkpt><trkpt lat="32.2580239" lon="-110.8145971"><ele>769.0</ele><time>2026-05-02T14:05:32.279Z</time></trkpt><trkpt lat="32.2580274" lon="-110.8143605"><ele>768.0</ele><time>2026-05-02T14:05:33.278Z</time></trkpt><trkpt lat="32.258027" lon="-110.8141276"><ele>767.0</ele><time>2026-05-02T14:05:34.278Z</time></trkpt><trkpt lat="32.2580223" lon="-110.8139019"><ele>766.0</ele><time>2026-05-02T14:05:35.278Z</time></trkpt><trkpt lat="32.258024" lon="-110.8136746"><ele>766.6666666666667</ele><time>2026-05-02T14:05:36.278Z</time></trkpt><trkpt lat="32.2580242" lon="-110.8134507"><ele>767.3333333333334</ele><time>2026-05-02T14:05:37.278Z</time></trkpt><trkpt lat="32.2580229" lon="-110.813226"><ele>768.0</ele><time>2026-05-02T14:05:38.279Z</time></trkpt><trkpt lat="32.2580245" lon="-110.8130017"><ele>768.0</ele><time>2026-05-02T14:05:39.279Z</time></trkpt><trkpt lat="32.2580257" lon="-110.8127719"><ele>768.0</ele><time>2026-05-02T14:05:40.279Z</time></trkpt><trkpt lat="32.2580246" lon="-110.8125396"><ele>768.0</ele><time>2026-05-02T14:05:41.279Z</time></trkpt><trkpt lat="32.2580227" lon="-110.8123105"><ele>767.6666666666666</ele><time>2026-05-02T14:05:42.279Z</time></trkpt><trkpt lat="32.2580241" lon="-110.8120787"><ele>767.3333333333333</ele><time>2026-05-02T14:05:43.279Z</time></trkpt><trkpt lat="32.2580264" lon="-110.8118487"><ele>767.0</ele><time>2026-05-02T14:05:44.278Z</time></trkpt><trkpt lat="32.2580256" lon="-110.8116186"><ele>766.3333333333333</ele><time>2026-05-02T14:05:45.279Z</time></trkpt><trkpt lat="32.2580236" lon="-110.8113875"><ele>765.6666666666666</ele><time>2026-05-02T14:05:46.278Z</time></trkpt><trkpt lat="32.2580216" lon="-110.8111589"><ele>765.0</ele><time>2026-05-02T14:05:47.278Z</time></trkpt><trkpt lat="32.2580233" lon="-110.8109306"><ele>765.0</ele><time>2026-05-02T14:05:48.279Z</time></trkpt><trkpt lat="32.2580231" lon="-110.8107049"><ele>765.0</ele><time>2026-05-02T14:05:49.279Z</time></trkpt><trkpt lat="32.2580248" lon="-110.8104807"><ele>765.0</ele><time>2026-05-02T14:05:50.278Z</time></trkpt><trkpt lat="32.2580245" lon="-110.8102601"><ele>765.6666666666666</ele><time>2026-05-02T14:05:51.278Z</time></trkpt><trkpt lat="32.2580261" lon="-110.8100397"><ele>766.3333333333333</ele><time>2026-05-02T14:05:52.278Z</time></trkpt><trkpt lat="32.2580243" lon="-110.8098164"><ele>767.0</ele><time>2026-05-02T14:05:53.278Z</time></trkpt><trkpt lat="32.2580223" lon="-110.8095962"><ele>767.0</ele><time>2026-05-02T14:05:54.279Z</time></trkpt><trkpt lat="32.2580231" lon="-110.8093725"><ele>767.0</ele><time>2026-05-02T14:05:55.278Z</time></trkpt><trkpt lat="32.2580274" lon="-110.8091485"><ele>767.0</ele><time>2026-05-02T14:05:56.278Z</time></trkpt><trkpt lat="32.2580261" lon="-110.8089266"><ele>767.6666666666666</ele><time>2026-05-02T14:05:57.279Z</time></trkpt><trkpt lat="32.258025" lon="-110.8087028"><ele>768.3333333333333</ele><time>2026-05-02T14:05:58.278Z</time></trkpt><trkpt lat="32.2580247" lon="-110.8084779"><ele>769.0</ele><time>2026-05-02T14:05:59.279Z</time></trkpt><trkpt lat="32.2580247" lon="-110.8082578"><ele>769.0</ele><time>2026-05-02T14:06:00.278Z</time></trkpt><trkpt lat="32.2580251" lon="-110.8080421"><ele>769.0</ele><time>2026-05-02T14:06:01.279Z</time></trkpt><trkpt lat="32.2580262" lon="-110.8078251"><ele>769.0</ele><time>2026-05-02T14:06:02.279Z</time></trkpt><trkpt lat="32.2580261" lon="-110.807599"><ele>770.3333333333333</ele><time>2026-05-02T14:06:03.279Z</time></trkpt><trkpt lat="32.258026" lon="-110.8073575"><ele>771.6666666666667</ele><time>2026-05-02T14:06:04.279Z</time></trkpt><trkpt lat="32.2580265" lon="-110.807112"><ele>773.0</ele><time>2026-05-02T14:06:05.278Z</time></trkpt><trkpt lat="32.2580271" lon="-110.8068715"><ele>772.3333333333334</ele><time>2026-05-02T14:06:06.279Z</time></trkpt><trkpt lat="32.2580283" lon="-110.8066307"><ele>771.6666666666667</ele><time>2026-05-02T14:06:07.279Z</time></trkpt><trkpt lat="32.2580292" lon="-110.8063864"><ele>771.0</ele><time>2026-05-02T14:06:08.278Z</time></trkpt><trkpt lat="32.2580274" lon="-110.806142"><ele>771.6666666666667</ele><time>2026-05-02T14:06:09.278Z</time></trkpt><trkpt lat="32.2580281" lon="-110.8059008"><ele>772.3333333333334</ele><time>2026-05-02T14:06:10.278Z</time></trkpt><trkpt lat="32.2580293" lon="-110.8056587"><ele>773.0</ele><time>2026-05-02T14:06:11.278Z</time></trkpt><trkpt lat="32.2580311" lon="-110.8054164"><ele>773.0</ele><time>2026-05-02T14:06:12.279Z</time></trkpt><trkpt lat="32.2580284" lon="-110.8051765"><ele>773.0</ele><time>2026-05-02T14:06:13.279Z</time></trkpt><trkpt lat="32.2580269" lon="-110.8049331"><ele>773.0</ele><time>2026-05-02T14:06:14.279Z</time></trkpt><trkpt lat="32.2580263" lon="-110.8046936"><ele>773.3333333333334</ele><time>2026-05-02T14:06:15.278Z</time></trkpt><trkpt lat="32.258027" lon="-110.8044699"><ele>773.6666666666667</ele><time>2026-05-02T14:06:16.279Z</time></trkpt><trkpt lat="32.258027" lon="-110.8042571"><ele>774.0</ele><time>2026-05-02T14:06:17.278Z</time></trkpt><trkpt lat="32.2580277" lon="-110.8040545"><ele>774.75</ele><time>2026-05-02T14:06:18.279Z</time></trkpt><trkpt lat="32.258029" lon="-110.8038703"><ele>775.5</ele><time>2026-05-02T14:06:19.278Z</time></trkpt><trkpt lat="32.2580292" lon="-110.8037077"><ele>776.25</ele><time>2026-05-02T14:06:20.278Z</time></trkpt><trkpt lat="32.2580265" lon="-110.8035524"><ele>777.0</ele><time>2026-05-02T14:06:21.279Z</time></trkpt><trkpt lat="32.2580259" lon="-110.8034034"><ele>777.25</ele><time>2026-05-02T14:06:22.278Z</time></trkpt><trkpt lat="32.2580241" lon="-110.8032523"><ele>777.5</ele><time>2026-05-02T14:06:23.279Z</time></trkpt><trkpt lat="32.2580274" lon="-110.8030933"><ele>777.75</ele><time>2026-05-02T14:06:24.28Z</time></trkpt><trkpt lat="32.2580292" lon="-110.8029285"><ele>778.0</ele><time>2026-05-02T14:06:25.279Z</time></trkpt><trkpt lat="32.2580251" lon="-110.8027465"><ele>778.0</ele><time>2026-05-02T14:06:26.279Z</time></trkpt><trkpt lat="32.2580272" lon="-110.8025532"><ele>778.0</ele><time>2026-05-02T14:06:27.278Z</time></trkpt><trkpt lat="32.2580286" lon="-110.8023536"><ele>778.0</ele><time>2026-05-02T14:06:28.279Z</time></trkpt><trkpt lat="32.2580255" lon="-110.8021476"><ele>778.0</ele><time>2026-05-02T14:06:29.279Z</time></trkpt><trkpt lat="32.258028" lon="-110.8019265"><ele>778.0</ele><time>2026-05-02T14:06:30.279Z</time></trkpt><trkpt lat="32.2580328" lon="-110.8016924"><ele>778.0</ele><time>2026-05-02T14:06:31.278Z</time></trkpt><trkpt lat="32.2580329" lon="-110.8014538"><ele>778.0</ele><time>2026-05-02T14:06:32.278Z</time></trkpt><trkpt lat="32.258033" lon="-110.801218"><ele>778.0</ele><time>2026-05-02T14:06:33.279Z</time></trkpt><trkpt lat="32.2580374" lon="-110.8009919"><ele>778.0</ele><time>2026-05-02T14:06:34.278Z</time></trkpt><trkpt lat="32.2580396" lon="-110.8007587"><ele>778.3333333333333</ele><time>2026-05-02T14:06:35.279Z</time></trkpt><trkpt lat="32.2580372" lon="-110.8005217"><ele>778.6666666666667</ele><time>2026-05-02T14:06:36.279Z</time></trkpt><trkpt lat="32.2580339" lon="-110.8002872"><ele>779.0</ele><time>2026-05-02T14:06:37.279Z</time></trkpt><trkpt lat="32.2580266" lon="-110.8000494"><ele>779.0</ele><time>2026-05-02T14:06:38.28Z</time></trkpt><trkpt lat="32.2580112" lon="-110.7998104"><ele>779.0</ele><time>2026-05-02T14:06:39.278Z</time></trkpt><trkpt lat="32.257995" lon="-110.7995736"><ele>779.0</ele><time>2026-05-02T14:06:40.28Z</time></trkpt><trkpt lat="32.2579674" lon="-110.7993412"><ele>778.0</ele><time>2026-05-02T14:06:41.279Z</time></trkpt><trkpt lat="32.2579383" lon="-110.7991093"><ele>777.0</ele><time>2026-05-02T14:06:42.279Z</time></trkpt><trkpt lat="32.2579054" lon="-110.798871"><ele>776.0</ele><time>2026-05-02T14:06:43.279Z</time></trkpt><trkpt lat="32.2578688" lon="-110.7986287"><ele>776.3333333333334</ele><time>2026-05-02T14:06:44.28Z</time></trkpt><trkpt lat="32.2578239" lon="-110.7983826"><ele>776.6666666666667</ele><time>2026-05-02T14:06:45.279Z</time></trkpt><trkpt lat="32.2577771" lon="-110.7981385"><ele>777.0</ele><time>2026-05-02T14:06:46.278Z</time></trkpt><trkpt lat="32.257723" lon="-110.7978974"><ele>777.3333333333333</ele><time>2026-05-02T14:06:47.278Z</time></trkpt><trkpt lat="32.2576648" lon="-110.7976553"><ele>777.6666666666666</ele><time>2026-05-02T14:06:48.279Z</time></trkpt><trkpt lat="32.2575973" lon="-110.7974225"><ele>778.0</ele><time>2026-05-02T14:06:49.279Z</time></trkpt><trkpt lat="32.257525" lon="-110.7971893"><ele>778.0</ele><time>2026-05-02T14:06:50.28Z</time></trkpt><trkpt lat="32.2574458" lon="-110.7969549"><ele>778.0</ele><time>2026-05-02T14:06:51.279Z</time></trkpt><trkpt lat="32.2573591" lon="-110.7967265"><ele>778.0</ele><time>2026-05-02T14:06:52.28Z</time></trkpt><trkpt lat="32.2572709" lon="-110.7965025"><ele>777.3333333333333</ele><time>2026-05-02T14:06:53.28Z</time></trkpt><trkpt lat="32.2571761" lon="-110.7962795"><ele>776.6666666666667</ele><time>2026-05-02T14:06:54.28Z</time></trkpt><trkpt lat="32.2570791" lon="-110.7960604"><ele>776.0</ele><time>2026-05-02T14:06:55.279Z</time></trkpt><trkpt lat="32.2569751" lon="-110.7958428"><ele>777.6666666666667</ele><time>2026-05-02T14:06:56.28Z</time></trkpt><trkpt lat="32.2568657" lon="-110.7956238"><ele>779.3333333333333</ele><time>2026-05-02T14:06:57.279Z</time></trkpt><trkpt lat="32.256761" lon="-110.7954066"><ele>781.0</ele><time>2026-05-02T14:06:58.28Z</time></trkpt><trkpt lat="32.2566526" lon="-110.795185"><ele>781.3333333333333</ele><time>2026-05-02T14:06:59.279Z</time></trkpt><trkpt lat="32.2565451" lon="-110.7949665"><ele>781.6666666666667</ele><time>2026-05-02T14:07:00.279Z</time></trkpt><trkpt lat="32.2564438" lon="-110.7947554"><ele>782.0</ele><time>2026-05-02T14:07:01.28Z</time></trkpt><trkpt lat="32.2563384" lon="-110.794547"><ele>780.6666666666667</ele><time>2026-05-02T14:07:02.279Z</time></trkpt><trkpt lat="32.2562303" lon="-110.7943344"><ele>779.3333333333333</ele><time>2026-05-02T14:07:03.279Z</time></trkpt><trkpt lat="32.2561244" lon="-110.7941208"><ele>778.0</ele><time>2026-05-02T14:07:04.279Z</time></trkpt><trkpt lat="32.2560215" lon="-110.7939042"><ele>778.0</ele><time>2026-05-02T14:07:05.279Z</time></trkpt><trkpt lat="32.2559137" lon="-110.7936882"><ele>778.0</ele><time>2026-05-02T14:07:06.28Z</time></trkpt><trkpt lat="32.2558039" lon="-110.7934686"><ele>778.0</ele><time>2026-05-02T14:07:07.279Z</time></trkpt><trkpt lat="32.2556942" lon="-110.7932437"><ele>778.3333333333333</ele><time>2026-05-02T14:07:08.279Z</time></trkpt><trkpt lat="32.2555858" lon="-110.7930192"><ele>778.6666666666667</ele><time>2026-05-02T14:07:09.279Z</time></trkpt><trkpt lat="32.255475" lon="-110.7927909"><ele>779.0</ele><time>2026-05-02T14:07:10.279Z</time></trkpt><trkpt lat="32.2553625" lon="-110.79256"><ele>781.0</ele><time>2026-05-02T14:07:11.279Z</time></trkpt><trkpt lat="32.2552466" lon="-110.7923273"><ele>783.0</ele><time>2026-05-02T14:07:12.28Z</time></trkpt><trkpt lat="32.2551344" lon="-110.7920973"><ele>783.0</ele><time>2026-05-02T14:07:13.28Z</time></trkpt><trkpt lat="32.2550231" lon="-110.7918696"><ele>783.0</ele><time>2026-05-02T14:07:14.279Z</time></trkpt><trkpt lat="32.2549104" lon="-110.7916449"><ele>783.0</ele><time>2026-05-02T14:07:15.279Z</time></trkpt><trkpt lat="32.2547987" lon="-110.7914196"><ele>783.0</ele><time>2026-05-02T14:07:16.28Z</time></trkpt><trkpt lat="32.2546903" lon="-110.7911918"><ele>783.0</ele><time>2026-05-02T14:07:17.279Z</time></trkpt><trkpt lat="32.2545819" lon="-110.7909671"><ele>783.0</ele><time>2026-05-02T14:07:18.279Z</time></trkpt><trkpt lat="32.2544681" lon="-110.7907412"><ele>782.6666666666667</ele><time>2026-05-02T14:07:19.279Z</time></trkpt><trkpt lat="32.2543594" lon="-110.7905169"><ele>782.3333333333334</ele><time>2026-05-02T14:07:20.279Z</time></trkpt><trkpt lat="32.2542505" lon="-110.7902933"><ele>782.0</ele><time>2026-05-02T14:07:21.279Z</time></trkpt><trkpt lat="32.2541453" lon="-110.7900774"><ele>782.6666666666667</ele><time>2026-05-02T14:07:22.279Z</time></trkpt><trkpt lat="32.2540413" lon="-110.789859"><ele>783.3333333333333</ele><time>2026-05-02T14:07:23.28Z</time></trkpt><trkpt lat="32.253938" lon="-110.7896453"><ele>784.0</ele><time>2026-05-02T14:07:24.279Z</time></trkpt><trkpt lat="32.2538293" lon="-110.7894303"><ele>783.3333333333333</ele><time>2026-05-02T14:07:25.28Z</time></trkpt><trkpt lat="32.2537216" lon="-110.7892166"><ele>782.6666666666667</ele><time>2026-05-02T14:07:26.279Z</time></trkpt><trkpt lat="32.2536175" lon="-110.7890066"><ele>782.0</ele><time>2026-05-02T14:07:27.28Z</time></trkpt><trkpt lat="32.2535142" lon="-110.7887999"><ele>782.0</ele><time>2026-05-02T14:07:28.279Z</time></trkpt><trkpt lat="32.2534122" lon="-110.7885894"><ele>782.0</ele><time>2026-05-02T14:07:29.28Z</time></trkpt><trkpt lat="32.2533078" lon="-110.7883819"><ele>782.0</ele><time>2026-05-02T14:07:30.279Z</time></trkpt><trkpt lat="32.253204" lon="-110.7881684"><ele>781.6666666666667</ele><time>2026-05-02T14:07:31.279Z</time></trkpt><trkpt lat="32.2530995" lon="-110.7879545"><ele>781.3333333333333</ele><time>2026-05-02T14:07:32.28Z</time></trkpt><trkpt lat="32.2529922" lon="-110.7877359"><ele>781.0</ele><time>2026-05-02T14:07:33.279Z</time></trkpt><trkpt lat="32.2528833" lon="-110.787515"><ele>779.6666666666666</ele><time>2026-05-02T14:07:34.279Z</time></trkpt><trkpt lat="32.252772" lon="-110.787294"><ele>778.3333333333333</ele><time>2026-05-02T14:07:35.28Z</time></trkpt><trkpt lat="32.2526646" lon="-110.7870713"><ele>777.0</ele><time>2026-05-02T14:07:36.279Z</time></trkpt><trkpt lat="32.2525568" lon="-110.7868463"><ele>778.6666666666667</ele><time>2026-05-02T14:07:37.28Z</time></trkpt><trkpt lat="32.2524493" lon="-110.786621"><ele>780.3333333333334</ele><time>2026-05-02T14:07:38.279Z</time></trkpt><trkpt lat="32.2523401" lon="-110.7864"><ele>782.0</ele><time>2026-05-02T14:07:39.28Z</time></trkpt><trkpt lat="32.2522282" lon="-110.7861782"><ele>781.6666666666667</ele><time>2026-05-02T14:07:40.28Z</time></trkpt><trkpt lat="32.2521174" lon="-110.7859527"><ele>781.3333333333333</ele><time>2026-05-02T14:07:41.279Z</time></trkpt><trkpt lat="32.2520083" lon="-110.7857292"><ele>781.0</ele><time>2026-05-02T14:07:42.279Z</time></trkpt><trkpt lat="32.2519021" lon="-110.7855018"><ele>781.0</ele><time>2026-05-02T14:07:43.28Z</time></trkpt><trkpt lat="32.2517906" lon="-110.7852684"><ele>781.0</ele><time>2026-05-02T14:07:44.28Z</time></trkpt><trkpt lat="32.2516871" lon="-110.7850319"><ele>780.0</ele><time>2026-05-02T14:07:45.279Z</time></trkpt><trkpt lat="32.251589" lon="-110.7847867"><ele>779.0</ele><time>2026-05-02T14:07:46.279Z</time></trkpt><trkpt lat="32.2514988" lon="-110.7845414"><ele>779.6666666666667</ele><time>2026-05-02T14:07:47.279Z</time></trkpt><trkpt lat="32.2514175" lon="-110.7842941"><ele>780.3333333333333</ele><time>2026-05-02T14:07:48.28Z</time></trkpt><trkpt lat="32.2513397" lon="-110.78405"><ele>781.0</ele><time>2026-05-02T14:07:49.279Z</time></trkpt><trkpt lat="32.2512721" lon="-110.7838104"><ele>781.0</ele><time>2026-05-02T14:07:50.279Z</time></trkpt><trkpt lat="32.2512062" lon="-110.7835697"><ele>781.0</ele><time>2026-05-02T14:07:51.28Z</time></trkpt><trkpt lat="32.2511443" lon="-110.7833247"><ele>781.0</ele><time>2026-05-02T14:07:52.279Z</time></trkpt><trkpt lat="32.2510901" lon="-110.7830834"><ele>781.0</ele><time>2026-05-02T14:07:53.28Z</time></trkpt><trkpt lat="32.2510438" lon="-110.7828348"><ele>781.0</ele><time>2026-05-02T14:07:54.279Z</time></trkpt><trkpt lat="32.2510019" lon="-110.7825888"><ele>781.0</ele><time>2026-05-02T14:07:55.279Z</time></trkpt><trkpt lat="32.2509704" lon="-110.7823394"><ele>781.3333333333333</ele><time>2026-05-02T14:07:56.279Z</time></trkpt><trkpt lat="32.2509404" lon="-110.7820893"><ele>781.6666666666667</ele><time>2026-05-02T14:07:57.279Z</time></trkpt><trkpt lat="32.2509169" lon="-110.7818398"><ele>782.0</ele><time>2026-05-02T14:07:58.279Z</time></trkpt><trkpt lat="32.2508983" lon="-110.7815948"><ele>782.0</ele><time>2026-05-02T14:07:59.279Z</time></trkpt><trkpt lat="32.2508849" lon="-110.7813505"><ele>782.0</ele><time>2026-05-02T14:08:00.28Z</time></trkpt><trkpt lat="32.2508763" lon="-110.7811037"><ele>782.0</ele><time>2026-05-02T14:08:01.279Z</time></trkpt><trkpt lat="32.2508746" lon="-110.7808526"><ele>781.3333333333334</ele><time>2026-05-02T14:08:02.28Z</time></trkpt><trkpt lat="32.2508773" lon="-110.780601"><ele>780.6666666666667</ele><time>2026-05-02T14:08:03.28Z</time></trkpt><trkpt lat="32.2508757" lon="-110.7803522"><ele>780.0</ele><time>2026-05-02T14:08:04.28Z</time></trkpt><trkpt lat="32.2508775" lon="-110.7801004"><ele>780.0</ele><time>2026-05-02T14:08:05.279Z</time></trkpt><trkpt lat="32.250877" lon="-110.7798475"><ele>780.0</ele><time>2026-05-02T14:08:06.279Z</time></trkpt><trkpt lat="32.250879" lon="-110.7795988"><ele>780.0</ele><time>2026-05-02T14:08:07.279Z</time></trkpt><trkpt lat="32.2508786" lon="-110.7793441"><ele>781.3333333333333</ele><time>2026-05-02T14:08:08.28Z</time></trkpt><trkpt lat="32.2508786" lon="-110.7790862"><ele>782.6666666666666</ele><time>2026-05-02T14:08:09.28Z</time></trkpt><trkpt lat="32.2508774" lon="-110.7788335"><ele>784.0</ele><time>2026-05-02T14:08:10.281Z</time></trkpt><trkpt lat="32.250878" lon="-110.7785822"><ele>783.3333333333333</ele><time>2026-05-02T14:08:11.28Z</time></trkpt><trkpt lat="32.2508785" lon="-110.7783312"><ele>782.6666666666667</ele><time>2026-05-02T14:08:12.279Z</time></trkpt><trkpt lat="32.2508807" lon="-110.7780849"><ele>782.0</ele><time>2026-05-02T14:08:13.279Z</time></trkpt><trkpt lat="32.2508851" lon="-110.7778404"><ele>783.0</ele><time>2026-05-02T14:08:14.279Z</time></trkpt><trkpt lat="32.2508874" lon="-110.7776044"><ele>784.0</ele><time>2026-05-02T14:08:15.28Z</time></trkpt><trkpt lat="32.2508887" lon="-110.7773702"><ele>785.0</ele><time>2026-05-02T14:08:16.281Z</time></trkpt><trkpt lat="32.2508879" lon="-110.7771403"><ele>785.0</ele><time>2026-05-02T14:08:17.28Z</time></trkpt><trkpt lat="32.2508889" lon="-110.7769038"><ele>785.0</ele><time>2026-05-02T14:08:18.28Z</time></trkpt><trkpt lat="32.2508891" lon="-110.7766662"><ele>785.0</ele><time>2026-05-02T14:08:19.28Z</time></trkpt><trkpt lat="32.2508877" lon="-110.7764351"><ele>784.6666666666667</ele><time>2026-05-02T14:08:20.28Z</time></trkpt><trkpt lat="32.2508932" lon="-110.7762058"><ele>784.3333333333333</ele><time>2026-05-02T14:08:21.279Z</time></trkpt><trkpt lat="32.2508916" lon="-110.7759748"><ele>784.0</ele><time>2026-05-02T14:08:22.28Z</time></trkpt><trkpt lat="32.2508962" lon="-110.7757478"><ele>784.6666666666666</ele><time>2026-05-02T14:08:23.281Z</time></trkpt><trkpt lat="32.2508925" lon="-110.7755215"><ele>785.3333333333333</ele><time>2026-05-02T14:08:24.281Z</time></trkpt><trkpt lat="32.2508917" lon="-110.7753008"><ele>786.0</ele><time>2026-05-02T14:08:25.281Z</time></trkpt><trkpt lat="32.2508949" lon="-110.7750666"><ele>787.3333333333333</ele><time>2026-05-02T14:08:26.281Z</time></trkpt><trkpt lat="32.2508951" lon="-110.7748299"><ele>788.6666666666666</ele><time>2026-05-02T14:08:27.281Z</time></trkpt><trkpt lat="32.2508958" lon="-110.7745969"><ele>790.0</ele><time>2026-05-02T14:08:28.281Z</time></trkpt><trkpt lat="32.2508969" lon="-110.7743718"><ele>789.3333333333333</ele><time>2026-05-02T14:08:29.28Z</time></trkpt><trkpt lat="32.2508988" lon="-110.774156"><ele>788.6666666666667</ele><time>2026-05-02T14:08:30.281Z</time></trkpt><trkpt lat="32.2509003" lon="-110.7739652"><ele>788.0</ele><time>2026-05-02T14:08:31.28Z</time></trkpt><trkpt lat="32.2509029" lon="-110.7737941"><ele>788.0</ele><time>2026-05-02T14:08:32.28Z</time></trkpt><trkpt lat="32.2509073" lon="-110.7736437"><ele>788.0</ele><time>2026-05-02T14:08:33.281Z</time></trkpt><trkpt lat="32.2509088" lon="-110.7735128"><ele>788.0</ele><time>2026-05-02T14:08:34.28Z</time></trkpt><trkpt lat="32.2509116" lon="-110.7733929"><ele>788.0</ele><time>2026-05-02T14:08:35.28Z</time></trkpt><trkpt lat="32.2509169" lon="-110.7732858"><ele>788.0</ele><time>2026-05-02T14:08:36.281Z</time></trkpt><trkpt lat="32.2509163" lon="-110.7731769"><ele>788.0000000000001</ele><time>2026-05-02T14:08:37.28Z</time></trkpt><trkpt lat="32.2509167" lon="-110.7730688"><ele>788.0</ele><time>2026-05-02T14:08:38.28Z</time></trkpt><trkpt lat="32.2509122" lon="-110.772967"><ele>788.0</ele><time>2026-05-02T14:08:39.28Z</time></trkpt><trkpt lat="32.2509108" lon="-110.7728801"><ele>788.0</ele><time>2026-05-02T14:08:40.281Z</time></trkpt><trkpt lat="32.2509105" lon="-110.7727993"><ele>788.0000000000001</ele><time>2026-05-02T14:08:41.281Z</time></trkpt><trkpt lat="32.2509167" lon="-110.7726752"><ele>788.0</ele><time>2026-05-02T14:08:43.281Z</time></trkpt><trkpt lat="32.2509177" lon="-110.7725934"><ele>788.0</ele><time>2026-05-02T14:08:45.28Z</time></trkpt><trkpt lat="32.2509211" lon="-110.7725016"><ele>788.0</ele><time>2026-05-02T14:08:59.28Z</time></trkpt><trkpt lat="32.2509193" lon="-110.7723649"><ele>788.0</ele><time>2026-05-02T14:09:01.281Z</time></trkpt><trkpt lat="32.2509199" lon="-110.772273"><ele>788.0</ele><time>2026-05-02T14:09:02.28Z</time></trkpt><trkpt lat="32.2509223" lon="-110.7721725"><ele>788.0</ele><time>2026-05-02T14:09:03.28Z</time></trkpt><trkpt lat="32.2509248" lon="-110.7720596"><ele>788.0</ele><time>2026-05-02T14:09:04.28Z</time></trkpt><trkpt lat="32.2509271" lon="-110.7719321"><ele>788.0</ele><time>2026-05-02T14:09:05.28Z</time></trkpt><trkpt lat="32.2509273" lon="-110.7717928"><ele>788.0</ele><time>2026-05-02T14:09:06.281Z</time></trkpt><trkpt lat="32.2509278" lon="-110.7716419"><ele>788.0</ele><time>2026-05-02T14:09:07.281Z</time></trkpt><trkpt lat="32.2509276" lon="-110.7714777"><ele>788.6666666666667</ele><time>2026-05-02T14:09:08.28Z</time></trkpt><trkpt lat="32.2509277" lon="-110.7713"><ele>789.3333333333333</ele><time>2026-05-02T14:09:09.28Z</time></trkpt><trkpt lat="32.2509288" lon="-110.771114"><ele>790.0</ele><time>2026-05-02T14:09:10.281Z</time></trkpt><trkpt lat="32.2509299" lon="-110.7709102"><ele>790.0</ele><time>2026-05-02T14:09:11.281Z</time></trkpt><trkpt lat="32.2509306" lon="-110.7707016"><ele>790.0</ele><time>2026-05-02T14:09:12.281Z</time></trkpt><trkpt lat="32.2509307" lon="-110.7704927"><ele>790.0</ele><time>2026-05-02T14:09:13.281Z</time></trkpt><trkpt lat="32.2509329" lon="-110.7702844"><ele>790.3333333333333</ele><time>2026-05-02T14:09:14.281Z</time></trkpt><trkpt lat="32.2509357" lon="-110.7700756"><ele>790.6666666666667</ele><time>2026-05-02T14:09:15.28Z</time></trkpt><trkpt lat="32.2509378" lon="-110.7698615"><ele>791.0</ele><time>2026-05-02T14:09:16.281Z</time></trkpt><trkpt lat="32.2509388" lon="-110.7696437"><ele>791.0</ele><time>2026-05-02T14:09:17.28Z</time></trkpt><trkpt lat="32.2509391" lon="-110.7694267"><ele>791.0</ele><time>2026-05-02T14:09:18.28Z</time></trkpt><trkpt lat="32.2509382" lon="-110.7692098"><ele>791.0</ele><time>2026-05-02T14:09:19.281Z</time></trkpt><trkpt lat="32.2509375" lon="-110.7689911"><ele>791.0</ele><time>2026-05-02T14:09:20.28Z</time></trkpt><trkpt lat="32.250938" lon="-110.7687699"><ele>791.0</ele><time>2026-05-02T14:09:21.281Z</time></trkpt><trkpt lat="32.2509416" lon="-110.7685486"><ele>791.0</ele><time>2026-05-02T14:09:22.28Z</time></trkpt><trkpt lat="32.2509448" lon="-110.7683214"><ele>791.0</ele><time>2026-05-02T14:09:23.281Z</time></trkpt><trkpt lat="32.250939" lon="-110.7680905"><ele>791.0</ele><time>2026-05-02T14:09:24.28Z</time></trkpt><trkpt lat="32.2509363" lon="-110.767845"><ele>791.0</ele><time>2026-05-02T14:09:25.281Z</time></trkpt><trkpt lat="32.2509363" lon="-110.7676044"><ele>791.0</ele><time>2026-05-02T14:09:26.281Z</time></trkpt><trkpt lat="32.2509389" lon="-110.7673622"><ele>791.0</ele><time>2026-05-02T14:09:27.282Z</time></trkpt><trkpt lat="32.2509378" lon="-110.7671177"><ele>791.0</ele><time>2026-05-02T14:09:28.28Z</time></trkpt><trkpt lat="32.2509346" lon="-110.7668804"><ele>790.3333333333334</ele><time>2026-05-02T14:09:29.28Z</time></trkpt><trkpt lat="32.2509337" lon="-110.7666404"><ele>789.6666666666667</ele><time>2026-05-02T14:09:30.281Z</time></trkpt><trkpt lat="32.2509382" lon="-110.7663995"><ele>789.0</ele><time>2026-05-02T14:09:31.28Z</time></trkpt><trkpt lat="32.2509386" lon="-110.7661602"><ele>789.0</ele><time>2026-05-02T14:09:32.281Z</time></trkpt><trkpt lat="32.2509382" lon="-110.7659272"><ele>789.0</ele><time>2026-05-02T14:09:33.28Z</time></trkpt><trkpt lat="32.250941" lon="-110.7656998"><ele>789.0</ele><time>2026-05-02T14:09:34.28Z</time></trkpt><trkpt lat="32.2509427" lon="-110.765472"><ele>789.0</ele><time>2026-05-02T14:09:35.281Z</time></trkpt><trkpt lat="32.2509462" lon="-110.765238"><ele>789.0</ele><time>2026-05-02T14:09:36.28Z</time></trkpt><trkpt lat="32.2509453" lon="-110.7650012"><ele>789.0</ele><time>2026-05-02T14:09:37.281Z</time></trkpt><trkpt lat="32.250946" lon="-110.7647662"><ele>790.0</ele><time>2026-05-02T14:09:38.28Z</time></trkpt><trkpt lat="32.2509434" lon="-110.7645342"><ele>791.0</ele><time>2026-05-02T14:09:39.28Z</time></trkpt><trkpt lat="32.2509463" lon="-110.7643044"><ele>792.0</ele><time>2026-05-02T14:09:40.281Z</time></trkpt><trkpt lat="32.2509475" lon="-110.764077"><ele>792.0</ele><time>2026-05-02T14:09:41.282Z</time></trkpt><trkpt lat="32.2509482" lon="-110.7638481"><ele>792.0</ele><time>2026-05-02T14:09:42.28Z</time></trkpt><trkpt lat="32.250949" lon="-110.7636168"><ele>792.0</ele><time>2026-05-02T14:09:43.28Z</time></trkpt><trkpt lat="32.2509474" lon="-110.7633866"><ele>792.0</ele><time>2026-05-02T14:09:44.281Z</time></trkpt><trkpt lat="32.2509442" lon="-110.7631534"><ele>792.0</ele><time>2026-05-02T14:09:45.281Z</time></trkpt><trkpt lat="32.2509452" lon="-110.7629299"><ele>792.0</ele><time>2026-05-02T14:09:46.28Z</time></trkpt><trkpt lat="32.2509481" lon="-110.7627087"><ele>792.3333333333333</ele><time>2026-05-02T14:09:47.281Z</time></trkpt><trkpt lat="32.2509449" lon="-110.7624889"><ele>792.6666666666666</ele><time>2026-05-02T14:09:48.28Z</time></trkpt><trkpt lat="32.2509473" lon="-110.7622662"><ele>793.0</ele><time>2026-05-02T14:09:49.281Z</time></trkpt><trkpt lat="32.2509479" lon="-110.7620416"><ele>793.3333333333333</ele><time>2026-05-02T14:09:50.28Z</time></trkpt><trkpt lat="32.2509518" lon="-110.7618157"><ele>793.6666666666667</ele><time>2026-05-02T14:09:51.281Z</time></trkpt><trkpt lat="32.2509497" lon="-110.7615885"><ele>794.0</ele><time>2026-05-02T14:09:52.281Z</time></trkpt><trkpt lat="32.2509492" lon="-110.7613501"><ele>794.0</ele><time>2026-05-02T14:09:53.281Z</time></trkpt><trkpt lat="32.2509503" lon="-110.7611114"><ele>794.0</ele><time>2026-05-02T14:09:54.281Z</time></trkpt><trkpt lat="32.2509494" lon="-110.7608759"><ele>794.0</ele><time>2026-05-02T14:09:55.282Z</time></trkpt><trkpt lat="32.2509505" lon="-110.7606417"><ele>794.3333333333334</ele><time>2026-05-02T14:09:56.282Z</time></trkpt><trkpt lat="32.250952" lon="-110.7604079"><ele>794.6666666666667</ele><time>2026-05-02T14:09:57.281Z</time></trkpt><trkpt lat="32.2509545" lon="-110.7601763"><ele>795.0</ele><time>2026-05-02T14:09:58.282Z</time></trkpt><trkpt lat="32.2509525" lon="-110.7599424"><ele>795.3333333333333</ele><time>2026-05-02T14:09:59.281Z</time></trkpt><trkpt lat="32.2509542" lon="-110.7597081"><ele>795.6666666666666</ele><time>2026-05-02T14:10:00.282Z</time></trkpt><trkpt lat="32.2509538" lon="-110.7594797"><ele>796.0</ele><time>2026-05-02T14:10:01.281Z</time></trkpt><trkpt lat="32.2509549" lon="-110.7592513"><ele>796.0</ele><time>2026-05-02T14:10:02.282Z</time></trkpt><trkpt lat="32.2509559" lon="-110.7590181"><ele>796.0</ele><time>2026-05-02T14:10:03.282Z</time></trkpt><trkpt lat="32.2509562" lon="-110.7587844"><ele>796.0</ele><time>2026-05-02T14:10:04.281Z</time></trkpt><trkpt lat="32.2509523" lon="-110.7585504"><ele>796.0</ele><time>2026-05-02T14:10:05.281Z</time></trkpt><trkpt lat="32.250951" lon="-110.7583173"><ele>796.0</ele><time>2026-05-02T14:10:06.281Z</time></trkpt><trkpt lat="32.2509457" lon="-110.7580932"><ele>796.0</ele><time>2026-05-02T14:10:07.281Z</time></trkpt><trkpt lat="32.2509422" lon="-110.7578692"><ele>796.3333333333333</ele><time>2026-05-02T14:10:08.282Z</time></trkpt><trkpt lat="32.250939" lon="-110.7576452"><ele>796.6666666666667</ele><time>2026-05-02T14:10:09.281Z</time></trkpt><trkpt lat="32.2509363" lon="-110.7574288"><ele>797.0</ele><time>2026-05-02T14:10:10.281Z</time></trkpt><trkpt lat="32.25093" lon="-110.7572129"><ele>797.0</ele><time>2026-05-02T14:10:11.281Z</time></trkpt><trkpt lat="32.2509264" lon="-110.7569998"><ele>797.0</ele><time>2026-05-02T14:10:12.281Z</time></trkpt><trkpt lat="32.2509218" lon="-110.7567903"><ele>797.0</ele><time>2026-05-02T14:10:13.282Z</time></trkpt><trkpt lat="32.2509234" lon="-110.756582"><ele>797.6666666666667</ele><time>2026-05-02T14:10:14.282Z</time></trkpt><trkpt lat="32.2509197" lon="-110.7563769"><ele>798.3333333333333</ele><time>2026-05-02T14:10:15.282Z</time></trkpt><trkpt lat="32.2509199" lon="-110.7561743"><ele>799.0</ele><time>2026-05-02T14:10:16.281Z</time></trkpt><trkpt lat="32.2509155" lon="-110.7559782"><ele>799.0</ele><time>2026-05-02T14:10:17.281Z</time></trkpt><trkpt lat="32.2509126" lon="-110.7557917"><ele>799.0</ele><time>2026-05-02T14:10:18.281Z</time></trkpt><trkpt lat="32.2509129" lon="-110.7556064"><ele>799.0</ele><time>2026-05-02T14:10:19.281Z</time></trkpt><trkpt lat="32.2509164" lon="-110.7554288"><ele>799.0</ele><time>2026-05-02T14:10:20.282Z</time></trkpt><trkpt lat="32.2509174" lon="-110.7552476"><ele>799.0</ele><time>2026-05-02T14:10:21.281Z</time></trkpt><trkpt lat="32.250915" lon="-110.7550729"><ele>799.0</ele><time>2026-05-02T14:10:22.282Z</time></trkpt><trkpt lat="32.2509191" lon="-110.75489"><ele>799.6666666666666</ele><time>2026-05-02T14:10:23.282Z</time></trkpt><trkpt lat="32.2509192" lon="-110.7547099"><ele>800.3333333333333</ele><time>2026-05-02T14:10:24.281Z</time></trkpt><trkpt lat="32.2509217" lon="-110.7545256"><ele>801.0</ele><time>2026-05-02T14:10:25.281Z</time></trkpt><trkpt lat="32.2509228" lon="-110.7543458"><ele>801.0</ele><time>2026-05-02T14:10:26.281Z</time></trkpt><trkpt lat="32.2509321" lon="-110.7541602"><ele>801.0</ele><time>2026-05-02T14:10:27.282Z</time></trkpt><trkpt lat="32.2509337" lon="-110.7539806"><ele>801.0</ele><time>2026-05-02T14:10:28.282Z</time></trkpt><trkpt lat="32.2509397" lon="-110.7538038"><ele>801.0</ele><time>2026-05-02T14:10:29.281Z</time></trkpt><trkpt lat="32.2509418" lon="-110.7536327"><ele>801.0</ele><time>2026-05-02T14:10:30.282Z</time></trkpt><trkpt lat="32.2509426" lon="-110.7534614"><ele>801.0</ele><time>2026-05-02T14:10:31.282Z</time></trkpt><trkpt lat="32.2509459" lon="-110.7532915"><ele>801.0</ele><time>2026-05-02T14:10:32.282Z</time></trkpt><trkpt lat="32.2509497" lon="-110.7531209"><ele>801.0</ele><time>2026-05-02T14:10:33.281Z</time></trkpt><trkpt lat="32.2509537" lon="-110.7529533"><ele>801.0</ele><time>2026-05-02T14:10:34.281Z</time></trkpt><trkpt lat="32.2509621" lon="-110.7527962"><ele>801.0</ele><time>2026-05-02T14:10:35.282Z</time></trkpt><trkpt lat="32.2509729" lon="-110.7526484"><ele>801.0</ele><time>2026-05-02T14:10:36.281Z</time></trkpt><trkpt lat="32.2509817" lon="-110.7525153"><ele>800.8333333333334</ele><time>2026-05-02T14:10:37.281Z</time></trkpt><trkpt lat="32.2509843" lon="-110.7523998"><ele>800.6666666666667</ele><time>2026-05-02T14:10:38.281Z</time></trkpt><trkpt lat="32.250983" lon="-110.7523109"><ele>800.5</ele><time>2026-05-02T14:10:39.282Z</time></trkpt><trkpt lat="32.250988" lon="-110.7521934"><ele>800.3333333333334</ele><time>2026-05-02T14:10:41.281Z</time></trkpt><trkpt lat="32.2509821" lon="-110.7520944"><ele>800.1666666666667</ele><time>2026-05-02T14:10:54.281Z</time></trkpt><trkpt lat="32.2510509" lon="-110.7520395"><ele>800.0</ele><time>2026-05-02T14:10:56.283Z</time></trkpt><trkpt lat="32.251115" lon="-110.7520259"><ele>800.0</ele><time>2026-05-02T14:10:57.282Z</time></trkpt><trkpt lat="32.2511781" lon="-110.7520211"><ele>800.0</ele><time>2026-05-02T14:10:58.282Z</time></trkpt><trkpt lat="32.2512741" lon="-110.7520149"><ele>800.0</ele><time>2026-05-02T14:11:00.283Z</time></trkpt><trkpt lat="32.251333" lon="-110.751965"><ele>800.0</ele><time>2026-05-02T14:11:03.282Z</time></trkpt><trkpt lat="32.2512945" lon="-110.7519051"><ele>800.0</ele><time>2026-05-02T14:15:08.284Z</time></trkpt><trkpt lat="32.2511089" lon="-110.7518426"><ele>799.6</ele><time>2026-05-02T14:15:18.284Z</time></trkpt><trkpt lat="32.2510257" lon="-110.7518239"><ele>799.2</ele><time>2026-05-02T14:15:22.285Z</time></trkpt><trkpt lat="32.2509743" lon="-110.7517335"><ele>798.8</ele><time>2026-05-02T14:15:24.285Z</time></trkpt><trkpt lat="32.250951" lon="-110.7515716"><ele>798.4</ele><time>2026-05-02T14:15:26.285Z</time></trkpt><trkpt lat="32.2509521" lon="-110.7514643"><ele>798.0</ele><time>2026-05-02T14:15:27.286Z</time></trkpt><trkpt lat="32.2509553" lon="-110.7513405"><ele>798.0</ele><time>2026-05-02T14:15:28.284Z</time></trkpt><trkpt lat="32.2509589" lon="-110.7512053"><ele>798.0</ele><time>2026-05-02T14:15:29.285Z</time></trkpt><trkpt lat="32.2509643" lon="-110.7510522"><ele>798.0</ele><time>2026-05-02T14:15:30.286Z</time></trkpt><trkpt lat="32.2509696" lon="-110.7508905"><ele>798.0</ele><time>2026-05-02T14:15:31.285Z</time></trkpt><trkpt lat="32.2509741" lon="-110.7507194"><ele>797.6666666666667</ele><time>2026-05-02T14:15:32.284Z</time></trkpt><trkpt lat="32.2509784" lon="-110.75053"><ele>797.3333333333334</ele><time>2026-05-02T14:15:33.284Z</time></trkpt><trkpt lat="32.250982" lon="-110.7503219"><ele>797.0</ele><time>2026-05-02T14:15:34.284Z</time></trkpt><trkpt lat="32.2509858" lon="-110.7501106"><ele>797.6666666666667</ele><time>2026-05-02T14:15:35.285Z</time></trkpt><trkpt lat="32.2509902" lon="-110.7498953"><ele>798.3333333333333</ele><time>2026-05-02T14:15:36.284Z</time></trkpt><trkpt lat="32.2509959" lon="-110.7496781"><ele>799.0</ele><time>2026-05-02T14:15:37.285Z</time></trkpt><trkpt lat="32.2509981" lon="-110.7494533"><ele>799.0</ele><time>2026-05-02T14:15:38.284Z</time></trkpt><trkpt lat="32.2509973" lon="-110.7492255"><ele>799.0</ele><time>2026-05-02T14:15:39.285Z</time></trkpt><trkpt lat="32.2509948" lon="-110.7489978"><ele>799.0</ele><time>2026-05-02T14:15:40.284Z</time></trkpt><trkpt lat="32.2509916" lon="-110.7487693"><ele>799.3333333333333</ele><time>2026-05-02T14:15:41.286Z</time></trkpt><trkpt lat="32.2509891" lon="-110.7485418"><ele>799.6666666666667</ele><time>2026-05-02T14:15:42.285Z</time></trkpt><trkpt lat="32.2509883" lon="-110.7483155"><ele>800.0</ele><time>2026-05-02T14:15:43.285Z</time></trkpt><trkpt lat="32.2509891" lon="-110.7480912"><ele>800.0</ele><time>2026-05-02T14:15:44.286Z</time></trkpt><trkpt lat="32.2509906" lon="-110.7478679"><ele>800.0</ele><time>2026-05-02T14:15:45.284Z</time></trkpt><trkpt lat="32.2509939" lon="-110.7476457"><ele>800.0</ele><time>2026-05-02T14:15:46.285Z</time></trkpt><trkpt lat="32.2509985" lon="-110.7474164"><ele>799.3333333333334</ele><time>2026-05-02T14:15:47.285Z</time></trkpt><trkpt lat="32.2509985" lon="-110.7471846"><ele>798.6666666666667</ele><time>2026-05-02T14:15:48.286Z</time></trkpt><trkpt lat="32.2510024" lon="-110.7469491"><ele>798.0</ele><time>2026-05-02T14:15:49.285Z</time></trkpt><trkpt lat="32.2510103" lon="-110.7467082"><ele>798.0</ele><time>2026-05-02T14:15:50.285Z</time></trkpt><trkpt lat="32.2510155" lon="-110.7464719"><ele>798.0</ele><time>2026-05-02T14:15:51.286Z</time></trkpt><trkpt lat="32.2510154" lon="-110.7462392"><ele>798.0</ele><time>2026-05-02T14:15:52.285Z</time></trkpt><trkpt lat="32.2510173" lon="-110.746004"><ele>798.6666666666667</ele><time>2026-05-02T14:15:53.285Z</time></trkpt><trkpt lat="32.251018" lon="-110.7457699"><ele>799.3333333333334</ele><time>2026-05-02T14:15:54.285Z</time></trkpt><trkpt lat="32.2510211" lon="-110.7455348"><ele>800.0</ele><time>2026-05-02T14:15:55.285Z</time></trkpt><trkpt lat="32.2510226" lon="-110.7452987"><ele>800.0</ele><time>2026-05-02T14:15:56.284Z</time></trkpt><trkpt lat="32.2510229" lon="-110.7450628"><ele>800.0</ele><time>2026-05-02T14:15:57.284Z</time></trkpt><trkpt lat="32.2510242" lon="-110.7448261"><ele>800.0</ele><time>2026-05-02T14:15:58.285Z</time></trkpt><trkpt lat="32.2510277" lon="-110.7445959"><ele>800.0</ele><time>2026-05-02T14:15:59.285Z</time></trkpt><trkpt lat="32.2510278" lon="-110.7443644"><ele>800.0</ele><time>2026-05-02T14:16:00.286Z</time></trkpt><trkpt lat="32.2510297" lon="-110.7441344"><ele>800.0</ele><time>2026-05-02T14:16:01.286Z</time></trkpt><trkpt lat="32.251032" lon="-110.7439042"><ele>800.0</ele><time>2026-05-02T14:16:02.285Z</time></trkpt><trkpt lat="32.2510317" lon="-110.7436804"><ele>800.0</ele><time>2026-05-02T14:16:03.286Z</time></trkpt><trkpt lat="32.251029" lon="-110.7434533"><ele>800.0</ele><time>2026-05-02T14:16:04.285Z</time></trkpt><trkpt lat="32.2510296" lon="-110.7432316"><ele>800.3333333333334</ele><time>2026-05-02T14:16:05.285Z</time></trkpt><trkpt lat="32.2510302" lon="-110.7430044"><ele>800.6666666666667</ele><time>2026-05-02T14:16:06.286Z</time></trkpt><trkpt lat="32.2510304" lon="-110.7427764"><ele>801.0</ele><time>2026-05-02T14:16:07.286Z</time></trkpt><trkpt lat="32.2510325" lon="-110.7425495"><ele>801.3333333333333</ele><time>2026-05-02T14:16:08.286Z</time></trkpt><trkpt lat="32.2510343" lon="-110.7423219"><ele>801.6666666666666</ele><time>2026-05-02T14:16:09.285Z</time></trkpt><trkpt lat="32.2510342" lon="-110.7420981"><ele>802.0</ele><time>2026-05-02T14:16:10.285Z</time></trkpt><trkpt lat="32.251033" lon="-110.7418754"><ele>802.0</ele><time>2026-05-02T14:16:11.285Z</time></trkpt><trkpt lat="32.2510346" lon="-110.7416491"><ele>802.0</ele><time>2026-05-02T14:16:12.285Z</time></trkpt><trkpt lat="32.2510331" lon="-110.7414254"><ele>802.0</ele><time>2026-05-02T14:16:13.286Z</time></trkpt><trkpt lat="32.2510332" lon="-110.7411997"><ele>802.0</ele><time>2026-05-02T14:16:14.285Z</time></trkpt><trkpt lat="32.2510327" lon="-110.7409723"><ele>802.0</ele><time>2026-05-02T14:16:15.286Z</time></trkpt><trkpt lat="32.2510278" lon="-110.7407442"><ele>802.0</ele><time>2026-05-02T14:16:16.286Z</time></trkpt><trkpt lat="32.2510246" lon="-110.7405087"><ele>802.0</ele><time>2026-05-02T14:16:17.285Z</time></trkpt><trkpt lat="32.2510214" lon="-110.7402766"><ele>802.0</ele><time>2026-05-02T14:16:18.285Z</time></trkpt><trkpt lat="32.2510205" lon="-110.7400452"><ele>802.0</ele><time>2026-05-02T14:16:19.285Z</time></trkpt><trkpt lat="32.2510222" lon="-110.7398151"><ele>802.6666666666666</ele><time>2026-05-02T14:16:20.286Z</time></trkpt><trkpt lat="32.2510233" lon="-110.7395883"><ele>803.3333333333333</ele><time>2026-05-02T14:16:21.285Z</time></trkpt><trkpt lat="32.2510222" lon="-110.7393633"><ele>804.0</ele><time>2026-05-02T14:16:22.286Z</time></trkpt><trkpt lat="32.2510269" lon="-110.7391363"><ele>804.3333333333333</ele><time>2026-05-02T14:16:23.286Z</time></trkpt><trkpt lat="32.2510263" lon="-110.738909"><ele>804.6666666666666</ele><time>2026-05-02T14:16:24.286Z</time></trkpt><trkpt lat="32.2510306" lon="-110.7386813"><ele>805.0</ele><time>2026-05-02T14:16:25.285Z</time></trkpt><trkpt lat="32.2510332" lon="-110.738449"><ele>805.0</ele><time>2026-05-02T14:16:26.285Z</time></trkpt><trkpt lat="32.2510331" lon="-110.7382241"><ele>805.0</ele><time>2026-05-02T14:16:27.285Z</time></trkpt><trkpt lat="32.2510342" lon="-110.7379957"><ele>805.0</ele><time>2026-05-02T14:16:28.285Z</time></trkpt><trkpt lat="32.251036" lon="-110.737766"><ele>805.0</ele><time>2026-05-02T14:16:29.286Z</time></trkpt><trkpt lat="32.2510388" lon="-110.7375309"><ele>805.0</ele><time>2026-05-02T14:16:30.286Z</time></trkpt><trkpt lat="32.2510387" lon="-110.7372931"><ele>805.0</ele><time>2026-05-02T14:16:31.285Z</time></trkpt><trkpt lat="32.2510419" lon="-110.7370574"><ele>806.3333333333333</ele><time>2026-05-02T14:16:32.286Z</time></trkpt><trkpt lat="32.2510436" lon="-110.7368227"><ele>807.6666666666667</ele><time>2026-05-02T14:16:33.287Z</time></trkpt><trkpt lat="32.2510428" lon="-110.7365882"><ele>809.0</ele><time>2026-05-02T14:16:34.285Z</time></trkpt><trkpt lat="32.2510435" lon="-110.7363565"><ele>809.0</ele><time>2026-05-02T14:16:35.286Z</time></trkpt><trkpt lat="32.2510428" lon="-110.7361246"><ele>809.0</ele><time>2026-05-02T14:16:36.285Z</time></trkpt><trkpt lat="32.2510434" lon="-110.7358886"><ele>809.0</ele><time>2026-05-02T14:16:37.285Z</time></trkpt><trkpt lat="32.2510418" lon="-110.7356541"><ele>809.0</ele><time>2026-05-02T14:16:38.285Z</time></trkpt><trkpt lat="32.2510424" lon="-110.7354193"><ele>809.0</ele><time>2026-05-02T14:16:39.285Z</time></trkpt><trkpt lat="32.2510432" lon="-110.7351832"><ele>809.0</ele><time>2026-05-02T14:16:40.285Z</time></trkpt><trkpt lat="32.2510423" lon="-110.7349398"><ele>809.0</ele><time>2026-05-02T14:16:41.285Z</time></trkpt><trkpt lat="32.2510435" lon="-110.7347081"><ele>809.0</ele><time>2026-05-02T14:16:42.285Z</time></trkpt><trkpt lat="32.2510387" lon="-110.7344762"><ele>809.0</ele><time>2026-05-02T14:16:43.285Z</time></trkpt><trkpt lat="32.2510354" lon="-110.7342413"><ele>809.6666666666667</ele><time>2026-05-02T14:16:44.285Z</time></trkpt><trkpt lat="32.2510355" lon="-110.7340091"><ele>810.3333333333333</ele><time>2026-05-02T14:16:45.285Z</time></trkpt><trkpt lat="32.2510311" lon="-110.7337735"><ele>811.0</ele><time>2026-05-02T14:16:46.285Z</time></trkpt><trkpt lat="32.2510329" lon="-110.7335387"><ele>811.0</ele><time>2026-05-02T14:16:47.286Z</time></trkpt><trkpt lat="32.2510332" lon="-110.7333026"><ele>811.0</ele><time>2026-05-02T14:16:48.285Z</time></trkpt><trkpt lat="32.251038" lon="-110.7330704"><ele>811.0</ele><time>2026-05-02T14:16:49.285Z</time></trkpt><trkpt lat="32.2510369" lon="-110.7328419"><ele>811.0</ele><time>2026-05-02T14:16:50.286Z</time></trkpt><trkpt lat="32.2510358" lon="-110.7326083"><ele>811.0</ele><time>2026-05-02T14:16:51.285Z</time></trkpt><trkpt lat="32.2510346" lon="-110.7323772"><ele>811.0</ele><time>2026-05-02T14:16:52.286Z</time></trkpt><trkpt lat="32.2510359" lon="-110.7321521"><ele>811.0</ele><time>2026-05-02T14:16:53.286Z</time></trkpt><trkpt lat="32.2510373" lon="-110.7319233"><ele>811.0</ele><time>2026-05-02T14:16:54.286Z</time></trkpt><trkpt lat="32.2510411" lon="-110.7316965"><ele>811.0</ele><time>2026-05-02T14:16:55.286Z</time></trkpt><trkpt lat="32.2510463" lon="-110.7314633"><ele>811.6666666666666</ele><time>2026-05-02T14:16:56.285Z</time></trkpt><trkpt lat="32.2510495" lon="-110.7312349"><ele>812.3333333333333</ele><time>2026-05-02T14:16:57.285Z</time></trkpt><trkpt lat="32.2510507" lon="-110.7310057"><ele>813.0</ele><time>2026-05-02T14:16:58.286Z</time></trkpt><trkpt lat="32.2510559" lon="-110.7307746"><ele>813.0</ele><time>2026-05-02T14:16:59.287Z</time></trkpt><trkpt lat="32.2510587" lon="-110.7305472"><ele>813.0</ele><time>2026-05-02T14:17:00.286Z</time></trkpt><trkpt lat="32.2510545" lon="-110.7303249"><ele>813.0</ele><time>2026-05-02T14:17:01.286Z</time></trkpt><trkpt lat="32.251055" lon="-110.7300993"><ele>813.0</ele><time>2026-05-02T14:17:02.286Z</time></trkpt><trkpt lat="32.2510535" lon="-110.7298776"><ele>813.0</ele><time>2026-05-02T14:17:03.285Z</time></trkpt><trkpt lat="32.2510537" lon="-110.7296606"><ele>813.0</ele><time>2026-05-02T14:17:04.285Z</time></trkpt><trkpt lat="32.2510566" lon="-110.7294458"><ele>813.6666666666667</ele><time>2026-05-02T14:17:05.287Z</time></trkpt><trkpt lat="32.2510588" lon="-110.7292311"><ele>814.3333333333334</ele><time>2026-05-02T14:17:06.285Z</time></trkpt><trkpt lat="32.2510584" lon="-110.7290151"><ele>815.0</ele><time>2026-05-02T14:17:07.285Z</time></trkpt><trkpt lat="32.2510585" lon="-110.7288013"><ele>815.0</ele><time>2026-05-02T14:17:08.286Z</time></trkpt><trkpt lat="32.2510584" lon="-110.7285886"><ele>815.0</ele><time>2026-05-02T14:17:09.287Z</time></trkpt><trkpt lat="32.2510595" lon="-110.7283747"><ele>815.0</ele><time>2026-05-02T14:17:10.286Z</time></trkpt><trkpt lat="32.2510597" lon="-110.728158"><ele>815.0</ele><time>2026-05-02T14:17:11.287Z</time></trkpt><trkpt lat="32.2510606" lon="-110.727946"><ele>815.0</ele><time>2026-05-02T14:17:12.285Z</time></trkpt><trkpt lat="32.2510609" lon="-110.7277324"><ele>815.0</ele><time>2026-05-02T14:17:13.286Z</time></trkpt><trkpt lat="32.2510579" lon="-110.7275228"><ele>815.0</ele><time>2026-05-02T14:17:14.285Z</time></trkpt><trkpt lat="32.251055" lon="-110.7273102"><ele>815.0</ele><time>2026-05-02T14:17:15.286Z</time></trkpt><trkpt lat="32.2510542" lon="-110.7270988"><ele>815.0</ele><time>2026-05-02T14:17:16.287Z</time></trkpt><trkpt lat="32.2510576" lon="-110.72689"><ele>815.3333333333334</ele><time>2026-05-02T14:17:17.286Z</time></trkpt><trkpt lat="32.2510553" lon="-110.7266793"><ele>815.6666666666667</ele><time>2026-05-02T14:17:18.286Z</time></trkpt><trkpt lat="32.251055" lon="-110.726468"><ele>816.0</ele><time>2026-05-02T14:17:19.285Z</time></trkpt><trkpt lat="32.2510547" lon="-110.7262569"><ele>816.0</ele><time>2026-05-02T14:17:20.285Z</time></trkpt><trkpt lat="32.2510567" lon="-110.7260474"><ele>816.0</ele><time>2026-05-02T14:17:21.287Z</time></trkpt><trkpt lat="32.2510562" lon="-110.7258336"><ele>816.0</ele><time>2026-05-02T14:17:22.285Z</time></trkpt><trkpt lat="32.2510554" lon="-110.7256157"><ele>816.0</ele><time>2026-05-02T14:17:23.286Z</time></trkpt><trkpt lat="32.2510583" lon="-110.7254032"><ele>816.0</ele><time>2026-05-02T14:17:24.285Z</time></trkpt><trkpt lat="32.2510603" lon="-110.7251888"><ele>816.0</ele><time>2026-05-02T14:17:25.286Z</time></trkpt><trkpt lat="32.2510591" lon="-110.7249744"><ele>817.0</ele><time>2026-05-02T14:17:26.285Z</time></trkpt><trkpt lat="32.2510611" lon="-110.7247587"><ele>818.0</ele><time>2026-05-02T14:17:27.287Z</time></trkpt><trkpt lat="32.2510624" lon="-110.7245416"><ele>819.0</ele><time>2026-05-02T14:17:28.286Z</time></trkpt><trkpt lat="32.2510622" lon="-110.7243236"><ele>819.3333333333333</ele><time>2026-05-02T14:17:29.285Z</time></trkpt><trkpt lat="32.2510611" lon="-110.7241011"><ele>819.6666666666666</ele><time>2026-05-02T14:17:30.287Z</time></trkpt><trkpt lat="32.251062" lon="-110.7238797"><ele>820.0</ele><time>2026-05-02T14:17:31.286Z</time></trkpt><trkpt lat="32.2510647" lon="-110.7236589"><ele>820.3333333333333</ele><time>2026-05-02T14:17:32.286Z</time></trkpt><trkpt lat="32.2510655" lon="-110.7234367"><ele>820.6666666666667</ele><time>2026-05-02T14:17:33.286Z</time></trkpt><trkpt lat="32.2510658" lon="-110.7232161"><ele>821.0</ele><time>2026-05-02T14:17:34.286Z</time></trkpt><trkpt lat="32.2510646" lon="-110.7229964"><ele>821.0</ele><time>2026-05-02T14:17:35.287Z</time></trkpt><trkpt lat="32.2510634" lon="-110.7227778"><ele>821.0</ele><time>2026-05-02T14:17:36.287Z</time></trkpt><trkpt lat="32.2510666" lon="-110.7225538"><ele>821.0</ele><time>2026-05-02T14:17:37.286Z</time></trkpt><trkpt lat="32.2510676" lon="-110.7223267"><ele>821.6666666666667</ele><time>2026-05-02T14:17:38.286Z</time></trkpt><trkpt lat="32.2510678" lon="-110.7220976"><ele>822.3333333333333</ele><time>2026-05-02T14:17:39.287Z</time></trkpt><trkpt lat="32.2510684" lon="-110.7218747"><ele>823.0</ele><time>2026-05-02T14:17:40.286Z</time></trkpt><trkpt lat="32.2510669" lon="-110.7216528"><ele>823.0</ele><time>2026-05-02T14:17:41.286Z</time></trkpt><trkpt lat="32.2510684" lon="-110.7214273"><ele>823.0</ele><time>2026-05-02T14:17:42.286Z</time></trkpt><trkpt lat="32.2510711" lon="-110.7212033"><ele>823.0</ele><time>2026-05-02T14:17:43.287Z</time></trkpt><trkpt lat="32.2510693" lon="-110.7209836"><ele>823.6666666666666</ele><time>2026-05-02T14:17:44.286Z</time></trkpt><trkpt lat="32.2510691" lon="-110.7207634"><ele>824.3333333333333</ele><time>2026-05-02T14:17:45.287Z</time></trkpt><trkpt lat="32.2510716" lon="-110.7205448"><ele>825.0</ele><time>2026-05-02T14:17:46.287Z</time></trkpt><trkpt lat="32.251072" lon="-110.7203216"><ele>826.6666666666667</ele><time>2026-05-02T14:17:47.286Z</time></trkpt><trkpt lat="32.2510701" lon="-110.7200956"><ele>828.3333333333334</ele><time>2026-05-02T14:17:48.286Z</time></trkpt><trkpt lat="32.2510722" lon="-110.7198697"><ele>830.0</ele><time>2026-05-02T14:17:49.286Z</time></trkpt><trkpt lat="32.2510705" lon="-110.7196413"><ele>830.0</ele><time>2026-05-02T14:17:50.286Z</time></trkpt><trkpt lat="32.2510709" lon="-110.7194063"><ele>830.0</ele><time>2026-05-02T14:17:51.287Z</time></trkpt><trkpt lat="32.2510724" lon="-110.7191718"><ele>830.0</ele><time>2026-05-02T14:17:52.287Z</time></trkpt><trkpt lat="32.2510726" lon="-110.718933"><ele>829.6666666666667</ele><time>2026-05-02T14:17:53.287Z</time></trkpt><trkpt lat="32.2510725" lon="-110.7186926"><ele>829.3333333333333</ele><time>2026-05-02T14:17:54.287Z</time></trkpt><trkpt lat="32.2510738" lon="-110.7184508"><ele>829.0</ele><time>2026-05-02T14:17:55.287Z</time></trkpt><trkpt lat="32.2510733" lon="-110.71821"><ele>828.6666666666666</ele><time>2026-05-02T14:17:56.287Z</time></trkpt><trkpt lat="32.2510723" lon="-110.7179747"><ele>828.3333333333333</ele><time>2026-05-02T14:17:57.287Z</time></trkpt><trkpt lat="32.251076" lon="-110.7177445"><ele>828.0</ele><time>2026-05-02T14:17:58.286Z</time></trkpt><trkpt lat="32.2510769" lon="-110.7175198"><ele>829.0</ele><time>2026-05-02T14:17:59.286Z</time></trkpt><trkpt lat="32.2510806" lon="-110.7172997"><ele>830.0</ele><time>2026-05-02T14:18:00.286Z</time></trkpt><trkpt lat="32.2510858" lon="-110.7170783"><ele>831.0</ele><time>2026-05-02T14:18:01.286Z</time></trkpt><trkpt lat="32.2510824" lon="-110.7168515"><ele>831.3333333333333</ele><time>2026-05-02T14:18:02.286Z</time></trkpt><trkpt lat="32.2510825" lon="-110.7166203"><ele>831.6666666666666</ele><time>2026-05-02T14:18:03.287Z</time></trkpt><trkpt lat="32.251084" lon="-110.7163836"><ele>832.0</ele><time>2026-05-02T14:18:04.287Z</time></trkpt><trkpt lat="32.2510836" lon="-110.716144"><ele>832.3333333333333</ele><time>2026-05-02T14:18:05.287Z</time></trkpt><trkpt lat="32.2510868" lon="-110.7159074"><ele>832.6666666666667</ele><time>2026-05-02T14:18:06.287Z</time></trkpt><trkpt lat="32.2510866" lon="-110.715673"><ele>833.0</ele><time>2026-05-02T14:18:07.287Z</time></trkpt><trkpt lat="32.2510834" lon="-110.7154403"><ele>833.6666666666667</ele><time>2026-05-02T14:18:08.286Z</time></trkpt><trkpt lat="32.2510844" lon="-110.7152011"><ele>834.3333333333333</ele><time>2026-05-02T14:18:09.286Z</time></trkpt><trkpt lat="32.2510857" lon="-110.7149641"><ele>835.0</ele><time>2026-05-02T14:18:10.286Z</time></trkpt><trkpt lat="32.2510883" lon="-110.7147325"><ele>835.0</ele><time>2026-05-02T14:18:11.287Z</time></trkpt><trkpt lat="32.2510881" lon="-110.7144995"><ele>835.0</ele><time>2026-05-02T14:18:12.286Z</time></trkpt><trkpt lat="32.2510935" lon="-110.7142544"><ele>835.0</ele><time>2026-05-02T14:18:13.286Z</time></trkpt><trkpt lat="32.2510955" lon="-110.7140099"><ele>833.6666666666666</ele><time>2026-05-02T14:18:14.287Z</time></trkpt><trkpt lat="32.2510948" lon="-110.7137661"><ele>832.3333333333333</ele><time>2026-05-02T14:18:15.287Z</time></trkpt><trkpt lat="32.2510958" lon="-110.7135188"><ele>831.0</ele><time>2026-05-02T14:18:16.286Z</time></trkpt><trkpt lat="32.2510967" lon="-110.7132836"><ele>831.0</ele><time>2026-05-02T14:18:17.286Z</time></trkpt><trkpt lat="32.2510963" lon="-110.7130558"><ele>831.0</ele><time>2026-05-02T14:18:18.287Z</time></trkpt><trkpt lat="32.2510977" lon="-110.712827"><ele>831.0</ele><time>2026-05-02T14:18:19.287Z</time></trkpt><trkpt lat="32.2510964" lon="-110.7125958"><ele>831.0</ele><time>2026-05-02T14:18:20.286Z</time></trkpt><trkpt lat="32.2510977" lon="-110.7123677"><ele>831.0</ele><time>2026-05-02T14:18:21.286Z</time></trkpt><trkpt lat="32.2510977" lon="-110.7121356"><ele>831.0</ele><time>2026-05-02T14:18:22.287Z</time></trkpt><trkpt lat="32.251096" lon="-110.7119004"><ele>831.3333333333333</ele><time>2026-05-02T14:18:23.286Z</time></trkpt><trkpt lat="32.2510943" lon="-110.7116707"><ele>831.6666666666666</ele><time>2026-05-02T14:18:24.286Z</time></trkpt><trkpt lat="32.2510967" lon="-110.7114362"><ele>832.0</ele><time>2026-05-02T14:18:25.287Z</time></trkpt><trkpt lat="32.2510974" lon="-110.711206"><ele>832.6666666666666</ele><time>2026-05-02T14:18:26.287Z</time></trkpt><trkpt lat="32.2511009" lon="-110.7109817"><ele>833.3333333333333</ele><time>2026-05-02T14:18:27.286Z</time></trkpt><trkpt lat="32.2511036" lon="-110.7107516"><ele>834.0</ele><time>2026-05-02T14:18:28.287Z</time></trkpt><trkpt lat="32.251104" lon="-110.71052"><ele>834.0</ele><time>2026-05-02T14:18:29.287Z</time></trkpt><trkpt lat="32.2511047" lon="-110.7102882"><ele>834.0</ele><time>2026-05-02T14:18:30.286Z</time></trkpt><trkpt lat="32.251106" lon="-110.7100569"><ele>834.0</ele><time>2026-05-02T14:18:31.287Z</time></trkpt><trkpt lat="32.251103" lon="-110.7098246"><ele>834.0</ele><time>2026-05-02T14:18:32.287Z</time></trkpt><trkpt lat="32.2511008" lon="-110.7095898"><ele>834.0</ele><time>2026-05-02T14:18:33.286Z</time></trkpt><trkpt lat="32.2511007" lon="-110.709356"><ele>834.0</ele><time>2026-05-02T14:18:34.287Z</time></trkpt><trkpt lat="32.2511001" lon="-110.7091197"><ele>834.0</ele><time>2026-05-02T14:18:35.286Z</time></trkpt><trkpt lat="32.2511001" lon="-110.7088848"><ele>834.0</ele><time>2026-05-02T14:18:36.288Z</time></trkpt><trkpt lat="32.251098" lon="-110.7086469"><ele>834.0</ele><time>2026-05-02T14:18:37.286Z</time></trkpt><trkpt lat="32.2510968" lon="-110.7084074"><ele>834.0</ele><time>2026-05-02T14:18:38.286Z</time></trkpt><trkpt lat="32.251095" lon="-110.7081699"><ele>834.0</ele><time>2026-05-02T14:18:39.286Z</time></trkpt><trkpt lat="32.2510876" lon="-110.7079312"><ele>834.0</ele><time>2026-05-02T14:18:40.288Z</time></trkpt><trkpt lat="32.2510744" lon="-110.7076946"><ele>834.6666666666667</ele><time>2026-05-02T14:18:41.286Z</time></trkpt><trkpt lat="32.2510453" lon="-110.7074627"><ele>835.3333333333334</ele><time>2026-05-02T14:18:42.286Z</time></trkpt><trkpt lat="32.2510092" lon="-110.7072334"><ele>836.0</ele><time>2026-05-02T14:18:43.287Z</time></trkpt><trkpt lat="32.2509539" lon="-110.7070042"><ele>836.0</ele><time>2026-05-02T14:18:44.287Z</time></trkpt><trkpt lat="32.2508974" lon="-110.7067617"><ele>836.0</ele><time>2026-05-02T14:18:45.287Z</time></trkpt><trkpt lat="32.2508384" lon="-110.7065233"><ele>836.0</ele><time>2026-05-02T14:18:46.286Z</time></trkpt><trkpt lat="32.2507768" lon="-110.7062873"><ele>835.6666666666667</ele><time>2026-05-02T14:18:47.287Z</time></trkpt><trkpt lat="32.2507132" lon="-110.706052"><ele>835.3333333333333</ele><time>2026-05-02T14:18:48.286Z</time></trkpt><trkpt lat="32.2506553" lon="-110.7058194"><ele>835.0</ele><time>2026-05-02T14:18:49.288Z</time></trkpt><trkpt lat="32.2505987" lon="-110.7055864"><ele>834.6666666666666</ele><time>2026-05-02T14:18:50.286Z</time></trkpt><trkpt lat="32.2505392" lon="-110.7053555"><ele>834.3333333333333</ele><time>2026-05-02T14:18:51.286Z</time></trkpt><trkpt lat="32.2504794" lon="-110.7051229"><ele>834.0</ele><time>2026-05-02T14:18:52.288Z</time></trkpt><trkpt lat="32.2504182" lon="-110.7048919"><ele>834.0</ele><time>2026-05-02T14:18:53.287Z</time></trkpt><trkpt lat="32.2503608" lon="-110.7046674"><ele>834.0</ele><time>2026-05-02T14:18:54.287Z</time></trkpt><trkpt lat="32.250301" lon="-110.7044408"><ele>834.0</ele><time>2026-05-02T14:18:55.286Z</time></trkpt><trkpt lat="32.2502405" lon="-110.7042202"><ele>835.0</ele><time>2026-05-02T14:18:56.286Z</time></trkpt><trkpt lat="32.2501819" lon="-110.7039971"><ele>836.0</ele><time>2026-05-02T14:18:57.286Z</time></trkpt><trkpt lat="32.2501198" lon="-110.7037595"><ele>837.0</ele><time>2026-05-02T14:18:58.286Z</time></trkpt><trkpt lat="32.2500595" lon="-110.70352"><ele>838.0</ele><time>2026-05-02T14:18:59.288Z</time></trkpt><trkpt lat="32.2499982" lon="-110.7032801"><ele>839.0</ele><time>2026-05-02T14:19:00.288Z</time></trkpt><trkpt lat="32.249937" lon="-110.7030393"><ele>840.0</ele><time>2026-05-02T14:19:01.287Z</time></trkpt><trkpt lat="32.2498743" lon="-110.7027967"><ele>840.3333333333333</ele><time>2026-05-02T14:19:02.288Z</time></trkpt><trkpt lat="32.2498126" lon="-110.7025592"><ele>840.6666666666666</ele><time>2026-05-02T14:19:03.287Z</time></trkpt><trkpt lat="32.2497507" lon="-110.7023217"><ele>841.0</ele><time>2026-05-02T14:19:04.288Z</time></trkpt><trkpt lat="32.2496863" lon="-110.7020902"><ele>840.3333333333333</ele><time>2026-05-02T14:19:05.288Z</time></trkpt><trkpt lat="32.2496255" lon="-110.7018586"><ele>839.6666666666667</ele><time>2026-05-02T14:19:06.288Z</time></trkpt><trkpt lat="32.2495655" lon="-110.7016267"><ele>839.0</ele><time>2026-05-02T14:19:07.287Z</time></trkpt><trkpt lat="32.2495079" lon="-110.7013937"><ele>839.0</ele><time>2026-05-02T14:19:08.287Z</time></trkpt><trkpt lat="32.2494499" lon="-110.7011652"><ele>839.0</ele><time>2026-05-02T14:19:09.288Z</time></trkpt><trkpt lat="32.2493903" lon="-110.7009388"><ele>839.0</ele><time>2026-05-02T14:19:10.287Z</time></trkpt><trkpt lat="32.2493313" lon="-110.7007097"><ele>839.6666666666667</ele><time>2026-05-02T14:19:11.288Z</time></trkpt><trkpt lat="32.2492732" lon="-110.7004785"><ele>840.3333333333333</ele><time>2026-05-02T14:19:12.288Z</time></trkpt><trkpt lat="32.2492144" lon="-110.7002505"><ele>841.0</ele><time>2026-05-02T14:19:13.287Z</time></trkpt><trkpt lat="32.2491533" lon="-110.7000184"><ele>841.0</ele><time>2026-05-02T14:19:14.287Z</time></trkpt><trkpt lat="32.2490935" lon="-110.6997901"><ele>841.0</ele><time>2026-05-02T14:19:15.287Z</time></trkpt><trkpt lat="32.2490352" lon="-110.6995659"><ele>841.0</ele><time>2026-05-02T14:19:16.288Z</time></trkpt><trkpt lat="32.2489793" lon="-110.6993517"><ele>840.3333333333333</ele><time>2026-05-02T14:19:17.288Z</time></trkpt><trkpt lat="32.2489213" lon="-110.6991342"><ele>839.6666666666667</ele><time>2026-05-02T14:19:18.287Z</time></trkpt><trkpt lat="32.2488654" lon="-110.6989182"><ele>839.0</ele><time>2026-05-02T14:19:19.288Z</time></trkpt><trkpt lat="32.2488071" lon="-110.6986999"><ele>839.3333333333334</ele><time>2026-05-02T14:19:20.288Z</time></trkpt><trkpt lat="32.2487428" lon="-110.6984742"><ele>839.6666666666667</ele><time>2026-05-02T14:19:21.287Z</time></trkpt><trkpt lat="32.2486803" lon="-110.6982522"><ele>840.0</ele><time>2026-05-02T14:19:22.287Z</time></trkpt><trkpt lat="32.2486208" lon="-110.6980339"><ele>840.0</ele><time>2026-05-02T14:19:23.287Z</time></trkpt><trkpt lat="32.2485639" lon="-110.6978117"><ele>840.0</ele><time>2026-05-02T14:19:24.288Z</time></trkpt><trkpt lat="32.2485136" lon="-110.6976009"><ele>840.0</ele><time>2026-05-02T14:19:25.288Z</time></trkpt><trkpt lat="32.2484819" lon="-110.6973909"><ele>839.6666666666667</ele><time>2026-05-02T14:19:26.288Z</time></trkpt><trkpt lat="32.2484744" lon="-110.697179"><ele>839.3333333333334</ele><time>2026-05-02T14:19:27.288Z</time></trkpt><trkpt lat="32.2484926" lon="-110.6969633"><ele>839.0</ele><time>2026-05-02T14:19:28.287Z</time></trkpt><trkpt lat="32.2485337" lon="-110.69674"><ele>839.0</ele><time>2026-05-02T14:19:29.287Z</time></trkpt><trkpt lat="32.2485867" lon="-110.6965131"><ele>839.0</ele><time>2026-05-02T14:19:30.287Z</time></trkpt><trkpt lat="32.2486507" lon="-110.6962852"><ele>839.0</ele><time>2026-05-02T14:19:31.288Z</time></trkpt><trkpt lat="32.2487186" lon="-110.6960485"><ele>839.0</ele><time>2026-05-02T14:19:32.288Z</time></trkpt><trkpt lat="32.248784" lon="-110.6958111"><ele>839.0</ele><time>2026-05-02T14:19:33.287Z</time></trkpt><trkpt lat="32.248846" lon="-110.6955796"><ele>839.0</ele><time>2026-05-02T14:19:34.288Z</time></trkpt><trkpt lat="32.2489069" lon="-110.6953582"><ele>841.0</ele><time>2026-05-02T14:19:35.287Z</time></trkpt><trkpt lat="32.2489611" lon="-110.6951426"><ele>843.0</ele><time>2026-05-02T14:19:36.287Z</time></trkpt><trkpt lat="32.2490099" lon="-110.6949287"><ele>845.0</ele><time>2026-05-02T14:19:37.287Z</time></trkpt><trkpt lat="32.2490461" lon="-110.6947137"><ele>845.0</ele><time>2026-05-02T14:19:38.288Z</time></trkpt><trkpt lat="32.2490681" lon="-110.6945"><ele>845.0</ele><time>2026-05-02T14:19:39.287Z</time></trkpt><trkpt lat="32.2490672" lon="-110.6942853"><ele>845.0</ele><time>2026-05-02T14:19:40.287Z</time></trkpt><trkpt lat="32.2490502" lon="-110.6940689"><ele>846.0</ele><time>2026-05-02T14:19:41.287Z</time></trkpt><trkpt lat="32.2490123" lon="-110.6938476"><ele>847.0</ele><time>2026-05-02T14:19:42.287Z</time></trkpt><trkpt lat="32.2489636" lon="-110.6936171"><ele>848.0</ele><time>2026-05-02T14:19:43.287Z</time></trkpt><trkpt lat="32.2489013" lon="-110.6933816"><ele>846.0</ele><time>2026-05-02T14:19:44.288Z</time></trkpt><trkpt lat="32.2488405" lon="-110.6931611"><ele>844.0</ele><time>2026-05-02T14:19:45.288Z</time></trkpt><trkpt lat="32.2487772" lon="-110.6929418"><ele>842.0</ele><time>2026-05-02T14:19:46.287Z</time></trkpt><trkpt lat="32.2487165" lon="-110.6927282"><ele>841.0</ele><time>2026-05-02T14:19:47.288Z</time></trkpt><trkpt lat="32.2486592" lon="-110.6925188"><ele>840.0</ele><time>2026-05-02T14:19:48.288Z</time></trkpt><trkpt lat="32.2486087" lon="-110.6923074"><ele>839.0</ele><time>2026-05-02T14:19:49.287Z</time></trkpt><trkpt lat="32.2485669" lon="-110.6920927"><ele>839.3333333333334</ele><time>2026-05-02T14:19:50.288Z</time></trkpt><trkpt lat="32.2485347" lon="-110.6918667"><ele>839.6666666666667</ele><time>2026-05-02T14:19:51.288Z</time></trkpt><trkpt lat="32.2485189" lon="-110.6916373"><ele>840.0</ele><time>2026-05-02T14:19:52.287Z</time></trkpt><trkpt lat="32.2485261" lon="-110.6914102"><ele>840.0</ele><time>2026-05-02T14:19:53.288Z</time></trkpt><trkpt lat="32.2485579" lon="-110.6911858"><ele>840.0</ele><time>2026-05-02T14:19:54.288Z</time></trkpt><trkpt lat="32.2486014" lon="-110.6909656"><ele>840.0</ele><time>2026-05-02T14:19:55.288Z</time></trkpt><trkpt lat="32.2486685" lon="-110.6907544"><ele>840.0</ele><time>2026-05-02T14:19:56.287Z</time></trkpt><trkpt lat="32.2487426" lon="-110.6905443"><ele>840.0</ele><time>2026-05-02T14:19:57.287Z</time></trkpt><trkpt lat="32.2488335" lon="-110.6903377"><ele>840.0</ele><time>2026-05-02T14:19:58.288Z</time></trkpt><trkpt lat="32.2489214" lon="-110.6901285"><ele>841.0</ele><time>2026-05-02T14:19:59.288Z</time></trkpt><trkpt lat="32.2490137" lon="-110.6899152"><ele>842.0</ele><time>2026-05-02T14:20:00.287Z</time></trkpt><trkpt lat="32.2491072" lon="-110.6896944"><ele>843.0</ele><time>2026-05-02T14:20:01.288Z</time></trkpt><trkpt lat="32.2491981" lon="-110.6894788"><ele>842.6666666666667</ele><time>2026-05-02T14:20:02.287Z</time></trkpt><trkpt lat="32.2492915" lon="-110.6892632"><ele>842.3333333333334</ele><time>2026-05-02T14:20:03.287Z</time></trkpt><trkpt lat="32.2493848" lon="-110.6890434"><ele>842.0</ele><time>2026-05-02T14:20:04.288Z</time></trkpt><trkpt lat="32.2494737" lon="-110.6888274"><ele>842.0</ele><time>2026-05-02T14:20:05.289Z</time></trkpt><trkpt lat="32.2495579" lon="-110.6886131"><ele>842.0</ele><time>2026-05-02T14:20:06.289Z</time></trkpt><trkpt lat="32.2496476" lon="-110.6884063"><ele>842.0</ele><time>2026-05-02T14:20:07.287Z</time></trkpt><trkpt lat="32.2497345" lon="-110.6881993"><ele>843.0</ele><time>2026-05-02T14:20:08.289Z</time></trkpt><trkpt lat="32.249817" lon="-110.6879941"><ele>844.0</ele><time>2026-05-02T14:20:09.288Z</time></trkpt><trkpt lat="32.2498924" lon="-110.6877845"><ele>845.0</ele><time>2026-05-02T14:20:10.287Z</time></trkpt><trkpt lat="32.2499624" lon="-110.6875751"><ele>845.0</ele><time>2026-05-02T14:20:11.288Z</time></trkpt><trkpt lat="32.2500288" lon="-110.6873635"><ele>845.0</ele><time>2026-05-02T14:20:12.287Z</time></trkpt><trkpt lat="32.2500918" lon="-110.6871481"><ele>845.0</ele><time>2026-05-02T14:20:13.288Z</time></trkpt><trkpt lat="32.2501497" lon="-110.6869287"><ele>844.3333333333334</ele><time>2026-05-02T14:20:14.288Z</time></trkpt><trkpt lat="32.2502115" lon="-110.6867022"><ele>843.6666666666667</ele><time>2026-05-02T14:20:15.288Z</time></trkpt><trkpt lat="32.2502718" lon="-110.6864747"><ele>843.0</ele><time>2026-05-02T14:20:16.289Z</time></trkpt><trkpt lat="32.2503324" lon="-110.6862454"><ele>842.6666666666667</ele><time>2026-05-02T14:20:17.288Z</time></trkpt><trkpt lat="32.2503986" lon="-110.6860171"><ele>842.3333333333334</ele><time>2026-05-02T14:20:18.289Z</time></trkpt><trkpt lat="32.2504765" lon="-110.6857838"><ele>842.0</ele><time>2026-05-02T14:20:19.288Z</time></trkpt><trkpt lat="32.2505613" lon="-110.6855539"><ele>843.3333333333334</ele><time>2026-05-02T14:20:20.288Z</time></trkpt><trkpt lat="32.2506474" lon="-110.6853255"><ele>844.6666666666667</ele><time>2026-05-02T14:20:21.287Z</time></trkpt><trkpt lat="32.2507365" lon="-110.6850983"><ele>846.0</ele><time>2026-05-02T14:20:22.289Z</time></trkpt><trkpt lat="32.2508239" lon="-110.6848705"><ele>846.0</ele><time>2026-05-02T14:20:23.288Z</time></trkpt><trkpt lat="32.2509144" lon="-110.6846399"><ele>846.0</ele><time>2026-05-02T14:20:24.288Z</time></trkpt><trkpt lat="32.251002" lon="-110.6844117"><ele>846.0</ele><time>2026-05-02T14:20:25.288Z</time></trkpt><trkpt lat="32.2510882" lon="-110.684185"><ele>845.6666666666667</ele><time>2026-05-02T14:20:26.289Z</time></trkpt><trkpt lat="32.2511756" lon="-110.6839548"><ele>845.3333333333334</ele><time>2026-05-02T14:20:27.287Z</time></trkpt><trkpt lat="32.2512636" lon="-110.6837249"><ele>845.0</ele><time>2026-05-02T14:20:28.288Z</time></trkpt><trkpt lat="32.2513488" lon="-110.6834986"><ele>844.0</ele><time>2026-05-02T14:20:29.289Z</time></trkpt><trkpt lat="32.2514341" lon="-110.6832774"><ele>843.0</ele><time>2026-05-02T14:20:30.289Z</time></trkpt><trkpt lat="32.251517" lon="-110.6830596"><ele>842.0</ele><time>2026-05-02T14:20:31.289Z</time></trkpt><trkpt lat="32.251603" lon="-110.6828437"><ele>844.0</ele><time>2026-05-02T14:20:32.289Z</time></trkpt><trkpt lat="32.2516782" lon="-110.6826268"><ele>846.0</ele><time>2026-05-02T14:20:33.289Z</time></trkpt><trkpt lat="32.2517521" lon="-110.6824107"><ele>848.0</ele><time>2026-05-02T14:20:34.289Z</time></trkpt><trkpt lat="32.2518198" lon="-110.682192"><ele>848.0</ele><time>2026-05-02T14:20:35.288Z</time></trkpt><trkpt lat="32.2518805" lon="-110.6819676"><ele>848.0</ele><time>2026-05-02T14:20:36.288Z</time></trkpt><trkpt lat="32.2519314" lon="-110.6817427"><ele>848.0</ele><time>2026-05-02T14:20:37.289Z</time></trkpt><trkpt lat="32.2519697" lon="-110.681517"><ele>848.0</ele><time>2026-05-02T14:20:38.288Z</time></trkpt><trkpt lat="32.2520036" lon="-110.6812928"><ele>848.0</ele><time>2026-05-02T14:20:39.288Z</time></trkpt><trkpt lat="32.2520363" lon="-110.6810687"><ele>848.0</ele><time>2026-05-02T14:20:40.289Z</time></trkpt><trkpt lat="32.2520655" lon="-110.6808477"><ele>848.0</ele><time>2026-05-02T14:20:41.288Z</time></trkpt><trkpt lat="32.2520806" lon="-110.6806249"><ele>848.0</ele><time>2026-05-02T14:20:42.289Z</time></trkpt><trkpt lat="32.2520781" lon="-110.6803989"><ele>848.0</ele><time>2026-05-02T14:20:43.289Z</time></trkpt><trkpt lat="32.2520599" lon="-110.6801674"><ele>848.0</ele><time>2026-05-02T14:20:44.289Z</time></trkpt><trkpt lat="32.2520371" lon="-110.6799357"><ele>848.0</ele><time>2026-05-02T14:20:45.289Z</time></trkpt><trkpt lat="32.2520125" lon="-110.6797106"><ele>848.0</ele><time>2026-05-02T14:20:46.289Z</time></trkpt><trkpt lat="32.2519951" lon="-110.6794819"><ele>848.3333333333334</ele><time>2026-05-02T14:20:47.289Z</time></trkpt><trkpt lat="32.25199" lon="-110.6792682"><ele>848.6666666666667</ele><time>2026-05-02T14:20:48.288Z</time></trkpt><trkpt lat="32.2520067" lon="-110.679063"><ele>849.0</ele><time>2026-05-02T14:20:49.288Z</time></trkpt><trkpt lat="32.2520482" lon="-110.6788602"><ele>849.0</ele><time>2026-05-02T14:20:50.288Z</time></trkpt><trkpt lat="32.2521129" lon="-110.6786565"><ele>849.0</ele><time>2026-05-02T14:20:51.288Z</time></trkpt><trkpt lat="32.2521921" lon="-110.6784434"><ele>849.0</ele><time>2026-05-02T14:20:52.288Z</time></trkpt><trkpt lat="32.2522851" lon="-110.6782289"><ele>850.3333333333333</ele><time>2026-05-02T14:20:53.288Z</time></trkpt><trkpt lat="32.252382" lon="-110.6780195"><ele>851.6666666666666</ele><time>2026-05-02T14:20:54.289Z</time></trkpt><trkpt lat="32.2524818" lon="-110.6778094"><ele>853.0</ele><time>2026-05-02T14:20:55.289Z</time></trkpt><trkpt lat="32.252579" lon="-110.6775991"><ele>853.0</ele><time>2026-05-02T14:20:56.288Z</time></trkpt><trkpt lat="32.2526713" lon="-110.677391"><ele>853.0</ele><time>2026-05-02T14:20:57.289Z</time></trkpt><trkpt lat="32.2527672" lon="-110.6771882"><ele>853.0</ele><time>2026-05-02T14:20:58.288Z</time></trkpt><trkpt lat="32.2528634" lon="-110.6769879"><ele>852.3333333333333</ele><time>2026-05-02T14:20:59.288Z</time></trkpt><trkpt lat="32.2529528" lon="-110.6767956"><ele>851.6666666666667</ele><time>2026-05-02T14:21:00.288Z</time></trkpt><trkpt lat="32.2530448" lon="-110.6766077"><ele>851.0</ele><time>2026-05-02T14:21:01.288Z</time></trkpt><trkpt lat="32.2531474" lon="-110.6764468"><ele>852.6666666666667</ele><time>2026-05-02T14:21:02.289Z</time></trkpt><trkpt lat="32.2532554" lon="-110.6762837"><ele>854.3333333333333</ele><time>2026-05-02T14:21:03.29Z</time></trkpt><trkpt lat="32.2533677" lon="-110.6761339"><ele>856.0</ele><time>2026-05-02T14:21:04.289Z</time></trkpt><trkpt lat="32.2534769" lon="-110.6759961"><ele>856.0</ele><time>2026-05-02T14:21:05.289Z</time></trkpt><trkpt lat="32.2535896" lon="-110.6758788"><ele>856.0</ele><time>2026-05-02T14:21:06.289Z</time></trkpt><trkpt lat="32.2536945" lon="-110.6757765"><ele>856.0</ele><time>2026-05-02T14:21:07.289Z</time></trkpt><trkpt lat="32.2537928" lon="-110.6756709"><ele>856.0</ele><time>2026-05-02T14:21:08.289Z</time></trkpt><trkpt lat="32.2538851" lon="-110.6755676"><ele>856.0</ele><time>2026-05-02T14:21:09.289Z</time></trkpt><trkpt lat="32.2539622" lon="-110.6754537"><ele>856.0</ele><time>2026-05-02T14:21:10.288Z</time></trkpt><trkpt lat="32.2540155" lon="-110.6753276"><ele>856.0</ele><time>2026-05-02T14:21:11.289Z</time></trkpt><trkpt lat="32.2540415" lon="-110.675186"><ele>856.0</ele><time>2026-05-02T14:21:12.288Z</time></trkpt><trkpt lat="32.2540354" lon="-110.6750385"><ele>856.0</ele><time>2026-05-02T14:21:13.289Z</time></trkpt><trkpt lat="32.2539893" lon="-110.6748946"><ele>856.0</ele><time>2026-05-02T14:21:14.288Z</time></trkpt><trkpt lat="32.2539113" lon="-110.6747482"><ele>856.0</ele><time>2026-05-02T14:21:15.289Z</time></trkpt><trkpt lat="32.2538242" lon="-110.6746013"><ele>856.0</ele><time>2026-05-02T14:21:16.288Z</time></trkpt><trkpt lat="32.2537341" lon="-110.6744589"><ele>856.5</ele><time>2026-05-02T14:21:17.288Z</time></trkpt><trkpt lat="32.2536533" lon="-110.6743258"><ele>857.0</ele><time>2026-05-02T14:21:18.289Z</time></trkpt><trkpt lat="32.2535834" lon="-110.6741962"><ele>857.5</ele><time>2026-05-02T14:21:19.289Z</time></trkpt><trkpt lat="32.2535331" lon="-110.674063"><ele>858.0</ele><time>2026-05-02T14:21:20.288Z</time></trkpt><trkpt lat="32.2535142" lon="-110.6739298"><ele>858.0</ele><time>2026-05-02T14:21:21.288Z</time></trkpt><trkpt lat="32.2535234" lon="-110.6737988"><ele>858.0</ele><time>2026-05-02T14:21:22.288Z</time></trkpt><trkpt lat="32.2535519" lon="-110.6736739"><ele>858.0</ele><time>2026-05-02T14:21:23.288Z</time></trkpt><trkpt lat="32.2535736" lon="-110.673548"><ele>858.0</ele><time>2026-05-02T14:21:24.288Z</time></trkpt><trkpt lat="32.2535737" lon="-110.6734224"><ele>858.0</ele><time>2026-05-02T14:21:25.288Z</time></trkpt><trkpt lat="32.2535362" lon="-110.6732964"><ele>859.0</ele><time>2026-05-02T14:21:26.289Z</time></trkpt><trkpt lat="32.25348" lon="-110.6731864"><ele>860.0</ele><time>2026-05-02T14:21:27.289Z</time></trkpt><trkpt lat="32.2534156" lon="-110.6730958"><ele>861.0</ele><time>2026-05-02T14:21:28.288Z</time></trkpt><trkpt lat="32.253365" lon="-110.6730139"><ele>862.0</ele><time>2026-05-02T14:21:29.289Z</time></trkpt><trkpt lat="32.2533416" lon="-110.6729156"><ele>863.0</ele><time>2026-05-02T14:21:30.29Z</time></trkpt><trkpt lat="32.2533658" lon="-110.6728224"><ele>864.0000000000001</ele><time>2026-05-02T14:21:31.289Z</time></trkpt><trkpt lat="32.2534097" lon="-110.6727393"><ele>865.0</ele><time>2026-05-02T14:21:32.289Z</time></trkpt><trkpt lat="32.2534876" lon="-110.6726798"><ele>866.0</ele><time>2026-05-02T14:21:33.289Z</time></trkpt><trkpt lat="32.2535587" lon="-110.6726371"><ele>867.0</ele><time>2026-05-02T14:21:34.288Z</time></trkpt><trkpt lat="32.2536057" lon="-110.6725857"><ele>868.0000000000001</ele><time>2026-05-02T14:21:35.289Z</time></trkpt><trkpt lat="32.2536241" lon="-110.6724694"><ele>869.0</ele><time>2026-05-02T14:21:37.289Z</time></trkpt><trkpt lat="32.2535286" lon="-110.6724506"><ele>869.0</ele><time>2026-05-02T14:21:39.288Z</time></trkpt><trkpt lat="32.2534638" lon="-110.6724874"><ele>869.0000000000001</ele><time>2026-05-02T14:21:40.288Z</time></trkpt><trkpt lat="32.2533883" lon="-110.672535"><ele>869.0000000000001</ele><time>2026-05-02T14:21:41.289Z</time></trkpt><trkpt lat="32.253299" lon="-110.6725734"><ele>869.0</ele><time>2026-05-02T14:21:42.289Z</time></trkpt><trkpt lat="32.2531967" lon="-110.6725825"><ele>869.0</ele><time>2026-05-02T14:21:43.289Z</time></trkpt><trkpt lat="32.2530874" lon="-110.672564"><ele>870.5</ele><time>2026-05-02T14:21:44.289Z</time></trkpt><trkpt lat="32.2529644" lon="-110.6725317"><ele>872.0</ele><time>2026-05-02T14:21:45.29Z</time></trkpt><trkpt lat="32.2528346" lon="-110.6724992"><ele>873.5</ele><time>2026-05-02T14:21:46.289Z</time></trkpt><trkpt lat="32.2527052" lon="-110.6724635"><ele>875.0</ele><time>2026-05-02T14:21:47.29Z</time></trkpt><trkpt lat="32.2525803" lon="-110.6724301"><ele>875.0</ele><time>2026-05-02T14:21:48.29Z</time></trkpt><trkpt lat="32.2524599" lon="-110.6724224"><ele>875.0</ele><time>2026-05-02T14:21:49.289Z</time></trkpt><trkpt lat="32.2523467" lon="-110.6724519"><ele>875.0</ele><time>2026-05-02T14:21:50.289Z</time></trkpt><trkpt lat="32.2522409" lon="-110.6725051"><ele>875.0</ele><time>2026-05-02T14:21:51.289Z</time></trkpt><trkpt lat="32.2521409" lon="-110.6725528"><ele>876.75</ele><time>2026-05-02T14:21:52.289Z</time></trkpt><trkpt lat="32.2520365" lon="-110.6725777"><ele>878.5</ele><time>2026-05-02T14:21:53.289Z</time></trkpt><trkpt lat="32.2519257" lon="-110.672573"><ele>880.25</ele><time>2026-05-02T14:21:54.288Z</time></trkpt><trkpt lat="32.2518138" lon="-110.6725392"><ele>882.0</ele><time>2026-05-02T14:21:55.289Z</time></trkpt><trkpt lat="32.2517094" lon="-110.6724753"><ele>882.0</ele><time>2026-05-02T14:21:56.29Z</time></trkpt><trkpt lat="32.2516203" lon="-110.6723849"><ele>882.0</ele><time>2026-05-02T14:21:57.29Z</time></trkpt><trkpt lat="32.2515517" lon="-110.6722712"><ele>882.0</ele><time>2026-05-02T14:21:58.289Z</time></trkpt><trkpt lat="32.2514985" lon="-110.6721395"><ele>882.0</ele><time>2026-05-02T14:21:59.289Z</time></trkpt><trkpt lat="32.2514602" lon="-110.6720007"><ele>879.75</ele><time>2026-05-02T14:22:00.29Z</time></trkpt><trkpt lat="32.2514435" lon="-110.6718671"><ele>877.5</ele><time>2026-05-02T14:22:01.289Z</time></trkpt><trkpt lat="32.2514489" lon="-110.6717332"><ele>875.25</ele><time>2026-05-02T14:22:02.29Z</time></trkpt><trkpt lat="32.2514752" lon="-110.6716021"><ele>873.0</ele><time>2026-05-02T14:22:03.289Z</time></trkpt><trkpt lat="32.2515265" lon="-110.6714861"><ele>877.25</ele><time>2026-05-02T14:22:04.289Z</time></trkpt><trkpt lat="32.2516047" lon="-110.6713911"><ele>881.5</ele><time>2026-05-02T14:22:05.29Z</time></trkpt><trkpt lat="32.2517085" lon="-110.6712997"><ele>885.75</ele><time>2026-05-02T14:22:06.289Z</time></trkpt><trkpt lat="32.251826" lon="-110.6711965"><ele>890.0</ele><time>2026-05-02T14:22:07.289Z</time></trkpt><trkpt lat="32.2519431" lon="-110.6710829"><ele>890.0</ele><time>2026-05-02T14:22:08.29Z</time></trkpt><trkpt lat="32.2520574" lon="-110.6709677"><ele>890.0</ele><time>2026-05-02T14:22:09.29Z</time></trkpt><trkpt lat="32.2521681" lon="-110.6708524"><ele>890.0</ele><time>2026-05-02T14:22:10.289Z</time></trkpt><trkpt lat="32.2522738" lon="-110.6707365"><ele>890.0</ele><time>2026-05-02T14:22:11.289Z</time></trkpt><trkpt lat="32.2523678" lon="-110.6706156"><ele>893.0</ele><time>2026-05-02T14:22:12.289Z</time></trkpt><trkpt lat="32.252449" lon="-110.6704841"><ele>896.0</ele><time>2026-05-02T14:22:13.29Z</time></trkpt><trkpt lat="32.252517" lon="-110.6703422"><ele>899.0</ele><time>2026-05-02T14:22:14.29Z</time></trkpt><trkpt lat="32.2525751" lon="-110.6702024"><ele>902.0</ele><time>2026-05-02T14:22:15.289Z</time></trkpt><trkpt lat="32.2526352" lon="-110.6700748"><ele>902.0</ele><time>2026-05-02T14:22:16.289Z</time></trkpt><trkpt lat="32.2527079" lon="-110.6699644"><ele>902.0</ele><time>2026-05-02T14:22:17.29Z</time></trkpt><trkpt lat="32.252795" lon="-110.66987"><ele>902.0</ele><time>2026-05-02T14:22:18.289Z</time></trkpt><trkpt lat="32.2528883" lon="-110.6697861"><ele>902.0</ele><time>2026-05-02T14:22:19.29Z</time></trkpt><trkpt lat="32.2529763" lon="-110.6696968"><ele>902.0</ele><time>2026-05-02T14:22:20.29Z</time></trkpt><trkpt lat="32.253053" lon="-110.6695896"><ele>902.0</ele><time>2026-05-02T14:22:21.289Z</time></trkpt><trkpt lat="32.253118" lon="-110.6694598"><ele>902.0</ele><time>2026-05-02T14:22:22.29Z</time></trkpt><trkpt lat="32.2531634" lon="-110.6693195"><ele>902.0</ele><time>2026-05-02T14:22:23.289Z</time></trkpt><trkpt lat="32.2531938" lon="-110.6691877"><ele>903.0000000000001</ele><time>2026-05-02T14:22:24.29Z</time></trkpt><trkpt lat="32.2532174" lon="-110.6690684"><ele>904.0</ele><time>2026-05-02T14:22:25.29Z</time></trkpt><trkpt lat="32.2532396" lon="-110.6689624"><ele>905.0</ele><time>2026-05-02T14:22:26.289Z</time></trkpt><trkpt lat="32.2532647" lon="-110.668874"><ele>906.0</ele><time>2026-05-02T14:22:27.289Z</time></trkpt><trkpt lat="32.2532917" lon="-110.6688039"><ele>907.0000000000001</ele><time>2026-05-02T14:22:28.29Z</time></trkpt><trkpt lat="32.253343" lon="-110.6687048"><ele>908.0</ele><time>2026-05-02T14:22:30.289Z</time></trkpt><trkpt lat="32.2533928" lon="-110.6686409"><ele>910.8333333333334</ele><time>2026-05-02T14:22:33.289Z</time></trkpt><trkpt lat="32.2534673" lon="-110.6685876"><ele>913.6666666666667</ele><time>2026-05-02T14:23:59.29Z</time></trkpt><trkpt lat="32.2535776" lon="-110.6685403"><ele>916.5</ele><time>2026-05-02T14:24:01.29Z</time></trkpt><trkpt lat="32.2536412" lon="-110.6685152"><ele>919.3333333333333</ele><time>2026-05-02T14:24:02.291Z</time></trkpt><trkpt lat="32.2537131" lon="-110.6684911"><ele>922.1666666666666</ele><time>2026-05-02T14:24:03.291Z</time></trkpt><trkpt lat="32.2537906" lon="-110.668468"><ele>925.0</ele><time>2026-05-02T14:24:04.291Z</time></trkpt><trkpt lat="32.2538735" lon="-110.6684472"><ele>924.6666666666666</ele><time>2026-05-02T14:24:05.29Z</time></trkpt><trkpt lat="32.2539594" lon="-110.6684305"><ele>924.3333333333333</ele><time>2026-05-02T14:24:06.29Z</time></trkpt><trkpt lat="32.2540468" lon="-110.6684142"><ele>924.0</ele><time>2026-05-02T14:24:07.291Z</time></trkpt><trkpt lat="32.2541357" lon="-110.6683905"><ele>923.6666666666667</ele><time>2026-05-02T14:24:08.291Z</time></trkpt><trkpt lat="32.2542179" lon="-110.6683552"><ele>923.3333333333334</ele><time>2026-05-02T14:24:09.29Z</time></trkpt><trkpt lat="32.2542904" lon="-110.668303"><ele>923.0</ele><time>2026-05-02T14:24:10.29Z</time></trkpt><trkpt lat="32.2543536" lon="-110.6682327"><ele>923.0</ele><time>2026-05-02T14:24:11.291Z</time></trkpt><trkpt lat="32.2544053" lon="-110.6681461"><ele>923.0</ele><time>2026-05-02T14:24:12.29Z</time></trkpt><trkpt lat="32.2544475" lon="-110.6680461"><ele>923.0</ele><time>2026-05-02T14:24:13.291Z</time></trkpt><trkpt lat="32.2544889" lon="-110.6679384"><ele>923.0</ele><time>2026-05-02T14:24:14.29Z</time></trkpt><trkpt lat="32.2545347" lon="-110.6678286"><ele>923.0</ele><time>2026-05-02T14:24:15.29Z</time></trkpt><trkpt lat="32.2545793" lon="-110.6677208"><ele>927.5999999999999</ele><time>2026-05-02T14:24:16.291Z</time></trkpt><trkpt lat="32.2546158" lon="-110.6676142"><ele>932.1999999999999</ele><time>2026-05-02T14:24:17.291Z</time></trkpt><trkpt lat="32.2546423" lon="-110.6675057"><ele>936.8</ele><time>2026-05-02T14:24:18.29Z</time></trkpt><trkpt lat="32.2546607" lon="-110.6673966"><ele>941.4</ele><time>2026-05-02T14:24:19.29Z</time></trkpt><trkpt lat="32.2546743" lon="-110.6672897"><ele>946.0</ele><time>2026-05-02T14:24:20.29Z</time></trkpt><trkpt lat="32.2546885" lon="-110.6671857"><ele>946.0</ele><time>2026-05-02T14:24:21.291Z</time></trkpt><trkpt lat="32.2547029" lon="-110.6670829"><ele>945.9999999999999</ele><time>2026-05-02T14:24:22.291Z</time></trkpt><trkpt lat="32.25471" lon="-110.6669776"><ele>945.9999999999999</ele><time>2026-05-02T14:24:23.29Z</time></trkpt><trkpt lat="32.2547096" lon="-110.6668691"><ele>946.0</ele><time>2026-05-02T14:24:24.29Z</time></trkpt><trkpt lat="32.2547061" lon="-110.6667572"><ele>946.0</ele><time>2026-05-02T14:24:25.291Z</time></trkpt><trkpt lat="32.2546999" lon="-110.6666438"><ele>947.5</ele><time>2026-05-02T14:24:26.29Z</time></trkpt><trkpt lat="32.2546897" lon="-110.6665292"><ele>949.0</ele><time>2026-05-02T14:24:27.29Z</time></trkpt><trkpt lat="32.254675" lon="-110.666416"><ele>950.5</ele><time>2026-05-02T14:24:28.291Z</time></trkpt><trkpt lat="32.2546564" lon="-110.6663092"><ele>952.0</ele><time>2026-05-02T14:24:29.291Z</time></trkpt><trkpt lat="32.2534673" lon="-110.6685876"><ele>947.4999999999999</ele><time>2026-05-02T14:23:59.29Z</time></trkpt><trkpt lat="32.2535776" lon="-110.6685403"><ele>943.0</ele><time>2026-05-02T14:24:01.29Z</time></trkpt><trkpt lat="32.2536412" lon="-110.6685152"><ele>938.5</ele><time>2026-05-02T14:24:02.291Z</time></trkpt><trkpt lat="32.2537131" lon="-110.6684911"><ele>934.0</ele><time>2026-05-02T14:24:03.291Z</time></trkpt><trkpt lat="32.2537906" lon="-110.668468"><ele>929.4999999999999</ele><time>2026-05-02T14:24:04.291Z</time></trkpt><trkpt lat="32.2538735" lon="-110.6684472"><ele>925.0</ele><time>2026-05-02T14:24:05.29Z</time></trkpt><trkpt lat="32.2539594" lon="-110.6684305"><ele>924.6666666666666</ele><time>2026-05-02T14:24:06.29Z</time></trkpt><trkpt lat="32.2540468" lon="-110.6684142"><ele>924.3333333333333</ele><time>2026-05-02T14:24:07.291Z</time></trkpt><trkpt lat="32.2541357" lon="-110.6683905"><ele>924.0</ele><time>2026-05-02T14:24:08.291Z</time></trkpt><trkpt lat="32.2542179" lon="-110.6683552"><ele>923.6666666666667</ele><time>2026-05-02T14:24:09.29Z</time></trkpt><trkpt lat="32.2542904" lon="-110.668303"><ele>923.3333333333334</ele><time>2026-05-02T14:24:10.29Z</time></trkpt><trkpt lat="32.2543536" lon="-110.6682327"><ele>923.0</ele><time>2026-05-02T14:24:11.291Z</time></trkpt><trkpt lat="32.2544053" lon="-110.6681461"><ele>923.0</ele><time>2026-05-02T14:24:12.29Z</time></trkpt><trkpt lat="32.2544475" lon="-110.6680461"><ele>923.0</ele><time>2026-05-02T14:24:13.291Z</time></trkpt><trkpt lat="32.2544889" lon="-110.6679384"><ele>923.0</ele><time>2026-05-02T14:24:14.29Z</time></trkpt><trkpt lat="32.2545347" lon="-110.6678286"><ele>923.0</ele><time>2026-05-02T14:24:15.29Z</time></trkpt><trkpt lat="32.2545793" lon="-110.6677208"><ele>923.0</ele><time>2026-05-02T14:24:16.291Z</time></trkpt><trkpt lat="32.2546158" lon="-110.6676142"><ele>927.5999999999999</ele><time>2026-05-02T14:24:17.291Z</time></trkpt><trkpt lat="32.2546423" lon="-110.6675057"><ele>932.1999999999999</ele><time>2026-05-02T14:24:18.29Z</time></trkpt><trkpt lat="32.2546607" lon="-110.6673966"><ele>936.8</ele><time>2026-05-02T14:24:19.29Z</time></trkpt><trkpt lat="32.2546743" lon="-110.6672897"><ele>941.4</ele><time>2026-05-02T14:24:20.29Z</time></trkpt><trkpt lat="32.2546885" lon="-110.6671857"><ele>946.0</ele><time>2026-05-02T14:24:21.291Z</time></trkpt><trkpt lat="32.2547029" lon="-110.6670829"><ele>946.0</ele><time>2026-05-02T14:24:22.291Z</time></trkpt><trkpt lat="32.25471" lon="-110.6669776"><ele>945.9999999999999</ele><time>2026-05-02T14:24:23.29Z</time></trkpt><trkpt lat="32.2547096" lon="-110.6668691"><ele>945.9999999999999</ele><time>2026-05-02T14:24:24.29Z</time></trkpt><trkpt lat="32.2547061" lon="-110.6667572"><ele>946.0</ele><time>2026-05-02T14:24:25.291Z</time></trkpt><trkpt lat="32.2546999" lon="-110.6666438"><ele>946.0</ele><time>2026-05-02T14:24:26.29Z</time></trkpt><trkpt lat="32.2546897" lon="-110.6665292"><ele>945.9999999999999</ele><time>2026-05-02T14:24:27.29Z</time></trkpt><trkpt lat="32.254675" lon="-110.666416"><ele>946.0</ele><time>2026-05-02T14:24:28.291Z</time></trkpt><trkpt lat="32.2546564" lon="-110.6663092"><ele>946.0</ele><time>2026-05-02T14:24:29.291Z</time></trkpt><trkpt lat="32.2546322" lon="-110.6662087"><ele>946.0</ele><time>2026-05-02T14:24:30.291Z</time></trkpt><trkpt lat="32.2545998" lon="-110.6661166"><ele>945.9999999999999</ele><time>2026-05-02T14:24:31.29Z</time></trkpt><trkpt lat="32.2545577" lon="-110.6660335"><ele>946.0</ele><time>2026-05-02T14:24:32.29Z</time></trkpt><trkpt lat="32.2545064" lon="-110.6659583"><ele>945.9999999999999</ele><time>2026-05-02T14:24:33.292Z</time></trkpt><trkpt lat="32.2544473" lon="-110.6658871"><ele>946.0</ele><time>2026-05-02T14:24:34.29Z</time></trkpt><trkpt lat="32.2543821" lon="-110.6658189"><ele>946.0</ele><time>2026-05-02T14:24:35.29Z</time></trkpt><trkpt lat="32.2543122" lon="-110.6657536"><ele>946.0</ele><time>2026-05-02T14:24:36.29Z</time></trkpt><trkpt lat="32.2542417" lon="-110.6656859"><ele>945.9999999999999</ele><time>2026-05-02T14:24:37.29Z</time></trkpt><trkpt lat="32.2541753" lon="-110.6656084"><ele>946.0</ele><time>2026-05-02T14:24:38.29Z</time></trkpt><trkpt lat="32.2541189" lon="-110.6655186"><ele>946.0</ele><time>2026-05-02T14:24:39.291Z</time></trkpt><trkpt lat="32.2540723" lon="-110.6654138"><ele>945.9999999999999</ele><time>2026-05-02T14:24:40.292Z</time></trkpt><trkpt lat="32.2540346" lon="-110.6653002"><ele>945.9999999999999</ele><time>2026-05-02T14:24:41.29Z</time></trkpt><trkpt lat="32.2540007" lon="-110.6651852"><ele>946.0</ele><time>2026-05-02T14:24:42.29Z</time></trkpt><trkpt lat="32.2539729" lon="-110.6650784"><ele>946.0</ele><time>2026-05-02T14:24:43.291Z</time></trkpt><trkpt lat="32.2539517" lon="-110.6649787"><ele>946.2857142857143</ele><time>2026-05-02T14:24:44.29Z</time></trkpt><trkpt lat="32.2539411" lon="-110.6648854"><ele>946.5714285714284</ele><time>2026-05-02T14:24:45.291Z</time></trkpt><trkpt lat="32.2539368" lon="-110.6647999"><ele>946.8571428571428</ele><time>2026-05-02T14:24:46.291Z</time></trkpt><trkpt lat="32.2539541" lon="-110.6647155"><ele>947.1428571428571</ele><time>2026-05-02T14:24:47.291Z</time></trkpt><trkpt lat="32.2539907" lon="-110.6646415"><ele>947.4285714285713</ele><time>2026-05-02T14:24:48.29Z</time></trkpt><trkpt lat="32.2540405" lon="-110.6645792"><ele>947.7142857142856</ele><time>2026-05-02T14:24:49.291Z</time></trkpt><trkpt lat="32.2541013" lon="-110.6645287"><ele>947.9999999999999</ele><time>2026-05-02T14:24:50.291Z</time></trkpt><trkpt lat="32.2541679" lon="-110.6644815"><ele>949.8</ele><time>2026-05-02T14:24:51.29Z</time></trkpt><trkpt lat="32.2542389" lon="-110.6644286"><ele>951.5999999999999</ele><time>2026-05-02T14:24:52.292Z</time></trkpt><trkpt lat="32.2543154" lon="-110.6643644"><ele>953.4000000000001</ele><time>2026-05-02T14:24:53.292Z</time></trkpt><trkpt lat="32.254385" lon="-110.6642749"><ele>955.2</ele><time>2026-05-02T14:24:54.291Z</time></trkpt><trkpt lat="32.2544485" lon="-110.664169"><ele>957.0</ele><time>2026-05-02T14:24:55.292Z</time></trkpt><trkpt lat="32.2545065" lon="-110.6640605"><ele>957.0</ele><time>2026-05-02T14:24:56.292Z</time></trkpt><trkpt lat="32.2545703" lon="-110.6639469"><ele>957.0</ele><time>2026-05-02T14:24:57.291Z</time></trkpt><trkpt lat="32.2546389" lon="-110.6638319"><ele>957.0</ele><time>2026-05-02T14:24:58.291Z</time></trkpt><trkpt lat="32.2547089" lon="-110.6637202"><ele>957.0</ele><time>2026-05-02T14:24:59.291Z</time></trkpt><trkpt lat="32.2547756" lon="-110.6636114"><ele>958.8</ele><time>2026-05-02T14:25:00.292Z</time></trkpt><trkpt lat="32.2548364" lon="-110.6635029"><ele>960.6</ele><time>2026-05-02T14:25:01.291Z</time></trkpt><trkpt lat="32.2548864" lon="-110.6633899"><ele>962.3999999999999</ele><time>2026-05-02T14:25:02.291Z</time></trkpt><trkpt lat="32.2549238" lon="-110.6632692"><ele>964.1999999999999</ele><time>2026-05-02T14:25:03.292Z</time></trkpt><trkpt lat="32.2549547" lon="-110.6631408"><ele>966.0</ele><time>2026-05-02T14:25:04.291Z</time></trkpt><trkpt lat="32.2549841" lon="-110.6630121"><ele>966.0</ele><time>2026-05-02T14:25:05.291Z</time></trkpt><trkpt lat="32.2550161" lon="-110.6628907"><ele>965.9999999999999</ele><time>2026-05-02T14:25:06.292Z</time></trkpt><trkpt lat="32.2550513" lon="-110.6627785"><ele>965.9999999999999</ele><time>2026-05-02T14:25:07.291Z</time></trkpt><trkpt lat="32.2550915" lon="-110.6626763"><ele>966.0</ele><time>2026-05-02T14:25:08.291Z</time></trkpt><trkpt lat="32.2551398" lon="-110.6625816"><ele>966.0</ele><time>2026-05-02T14:25:09.291Z</time></trkpt><trkpt lat="32.2551988" lon="-110.6624912"><ele>967.1999999999999</ele><time>2026-05-02T14:25:10.292Z</time></trkpt><trkpt lat="32.2552716" lon="-110.6624042"><ele>968.3999999999999</ele><time>2026-05-02T14:25:11.292Z</time></trkpt><trkpt lat="32.2553576" lon="-110.6623211"><ele>969.6</ele><time>2026-05-02T14:25:12.292Z</time></trkpt><trkpt lat="32.2554521" lon="-110.6622426"><ele>970.8</ele><time>2026-05-02T14:25:13.291Z</time></trkpt><trkpt lat="32.2555529" lon="-110.6621679"><ele>972.0</ele><time>2026-05-02T14:25:14.291Z</time></trkpt><trkpt lat="32.2556596" lon="-110.662095"><ele>973.5</ele><time>2026-05-02T14:25:15.292Z</time></trkpt><trkpt lat="32.2557703" lon="-110.6620248"><ele>975.0</ele><time>2026-05-02T14:25:16.292Z</time></trkpt><trkpt lat="32.255882" lon="-110.6619568"><ele>976.5</ele><time>2026-05-02T14:25:17.291Z</time></trkpt><trkpt lat="32.2559889" lon="-110.6618898"><ele>978.0</ele><time>2026-05-02T14:25:18.291Z</time></trkpt><trkpt lat="32.2560873" lon="-110.6618177"><ele>978.0</ele><time>2026-05-02T14:25:19.292Z</time></trkpt><trkpt lat="32.2561733" lon="-110.6617401"><ele>978.0</ele><time>2026-05-02T14:25:20.292Z</time></trkpt><trkpt lat="32.256248" lon="-110.6616546"><ele>978.0</ele><time>2026-05-02T14:25:21.291Z</time></trkpt><trkpt lat="32.2563068" lon="-110.6615559"><ele>978.0</ele><time>2026-05-02T14:25:22.291Z</time></trkpt><trkpt lat="32.2563459" lon="-110.6614468"><ele>978.0</ele><time>2026-05-02T14:25:23.291Z</time></trkpt><trkpt lat="32.2563683" lon="-110.6613267"><ele>978.0</ele><time>2026-05-02T14:25:24.292Z</time></trkpt><trkpt lat="32.2563762" lon="-110.661194"><ele>978.0</ele><time>2026-05-02T14:25:25.291Z</time></trkpt><trkpt lat="32.2563764" lon="-110.6610515"><ele>978.0</ele><time>2026-05-02T14:25:26.291Z</time></trkpt><trkpt lat="32.2563722" lon="-110.660907"><ele>978.0</ele><time>2026-05-02T14:25:27.291Z</time></trkpt><trkpt lat="32.256365" lon="-110.6607685"><ele>978.4</ele><time>2026-05-02T14:25:28.292Z</time></trkpt><trkpt lat="32.2563574" lon="-110.6606359"><ele>978.8</ele><time>2026-05-02T14:25:29.292Z</time></trkpt><trkpt lat="32.2563488" lon="-110.660508"><ele>979.2</ele><time>2026-05-02T14:25:30.292Z</time></trkpt><trkpt lat="32.256332" lon="-110.6603827"><ele>979.6</ele><time>2026-05-02T14:25:31.291Z</time></trkpt><trkpt lat="32.2563003" lon="-110.6602599"><ele>980.0</ele><time>2026-05-02T14:25:32.291Z</time></trkpt><trkpt lat="32.2562529" lon="-110.6601413"><ele>982.4</ele><time>2026-05-02T14:25:33.292Z</time></trkpt><trkpt lat="32.2561931" lon="-110.6600286"><ele>984.8</ele><time>2026-05-02T14:25:34.291Z</time></trkpt><trkpt lat="32.2561298" lon="-110.6599168"><ele>987.2</ele><time>2026-05-02T14:25:35.292Z</time></trkpt><trkpt lat="32.2560725" lon="-110.6598007"><ele>989.6</ele><time>2026-05-02T14:25:36.291Z</time></trkpt><trkpt lat="32.2560215" lon="-110.6596867"><ele>992.0</ele><time>2026-05-02T14:25:37.291Z</time></trkpt><trkpt lat="32.2559971" lon="-110.6595694"><ele>993.5</ele><time>2026-05-02T14:25:38.291Z</time></trkpt><trkpt lat="32.2559867" lon="-110.6594471"><ele>995.0</ele><time>2026-05-02T14:25:39.292Z</time></trkpt><trkpt lat="32.2559914" lon="-110.6593187"><ele>996.5</ele><time>2026-05-02T14:25:40.292Z</time></trkpt><trkpt lat="32.2560068" lon="-110.6591813"><ele>998.0</ele><time>2026-05-02T14:25:41.292Z</time></trkpt><trkpt lat="32.256029" lon="-110.6590339"><ele>998.0</ele><time>2026-05-02T14:25:42.291Z</time></trkpt><trkpt lat="32.2560585" lon="-110.6588788"><ele>998.0</ele><time>2026-05-02T14:25:43.291Z</time></trkpt><trkpt lat="32.2560966" lon="-110.6587203"><ele>998.0</ele><time>2026-05-02T14:25:44.292Z</time></trkpt><trkpt lat="32.256145" lon="-110.6585596"><ele>998.0</ele><time>2026-05-02T14:25:45.291Z</time></trkpt><trkpt lat="32.256203" lon="-110.6583979"><ele>999.0</ele><time>2026-05-02T14:25:46.292Z</time></trkpt><trkpt lat="32.2562686" lon="-110.6582379"><ele>1000.0</ele><time>2026-05-02T14:25:47.291Z</time></trkpt><trkpt lat="32.2563365" lon="-110.6580809"><ele>1001.0</ele><time>2026-05-02T14:25:48.291Z</time></trkpt><trkpt lat="32.2564027" lon="-110.6579263"><ele>1002.0</ele><time>2026-05-02T14:25:49.292Z</time></trkpt><trkpt lat="32.2564659" lon="-110.6577731"><ele>1002.0</ele><time>2026-05-02T14:25:50.291Z</time></trkpt><trkpt lat="32.2565271" lon="-110.6576218"><ele>1002.0</ele><time>2026-05-02T14:25:51.291Z</time></trkpt><trkpt lat="32.256585" lon="-110.6574746"><ele>1002.0</ele><time>2026-05-02T14:25:52.291Z</time></trkpt><trkpt lat="32.2566423" lon="-110.6573321"><ele>1002.0</ele><time>2026-05-02T14:25:53.291Z</time></trkpt><trkpt lat="32.2567018" lon="-110.6571958"><ele>1002.0</ele><time>2026-05-02T14:25:54.292Z</time></trkpt><trkpt lat="32.2567657" lon="-110.6570672"><ele>1002.0</ele><time>2026-05-02T14:25:55.292Z</time></trkpt><trkpt lat="32.256838" lon="-110.6569468"><ele>1002.0</ele><time>2026-05-02T14:25:56.291Z</time></trkpt><trkpt lat="32.2569181" lon="-110.6568336"><ele>1002.0</ele><time>2026-05-02T14:25:57.291Z</time></trkpt><trkpt lat="32.2570052" lon="-110.6567279"><ele>1002.5</ele><time>2026-05-02T14:25:58.292Z</time></trkpt><trkpt lat="32.257095" lon="-110.6566239"><ele>1003.0</ele><time>2026-05-02T14:25:59.291Z</time></trkpt><trkpt lat="32.2571803" lon="-110.6565146"><ele>1003.5</ele><time>2026-05-02T14:26:00.292Z</time></trkpt><trkpt lat="32.2572563" lon="-110.656396"><ele>1004.0</ele><time>2026-05-02T14:26:01.293Z</time></trkpt><trkpt lat="32.257319" lon="-110.6562708"><ele>1004.0</ele><time>2026-05-02T14:26:02.292Z</time></trkpt><trkpt lat="32.2573732" lon="-110.656145"><ele>1004.0</ele><time>2026-05-02T14:26:03.291Z</time></trkpt><trkpt lat="32.2574271" lon="-110.6560209"><ele>1004.0</ele><time>2026-05-02T14:26:04.292Z</time></trkpt><trkpt lat="32.2574866" lon="-110.6559024"><ele>1004.0</ele><time>2026-05-02T14:26:05.292Z</time></trkpt><trkpt lat="32.2575532" lon="-110.6557965"><ele>1005.0</ele><time>2026-05-02T14:26:06.291Z</time></trkpt><trkpt lat="32.2576246" lon="-110.6557077"><ele>1006.0000000000001</ele><time>2026-05-02T14:26:07.292Z</time></trkpt><trkpt lat="32.2576992" lon="-110.6556398"><ele>1007.0000000000001</ele><time>2026-05-02T14:26:08.291Z</time></trkpt><trkpt lat="32.2577772" lon="-110.6555922"><ele>1008.0</ele><time>2026-05-02T14:26:09.291Z</time></trkpt><trkpt lat="32.2578625" lon="-110.655567"><ele>1009.0</ele><time>2026-05-02T14:26:10.292Z</time></trkpt><trkpt lat="32.2579588" lon="-110.6555632"><ele>1009.0</ele><time>2026-05-02T14:26:11.293Z</time></trkpt><trkpt lat="32.2580674" lon="-110.6555793"><ele>1009.0</ele><time>2026-05-02T14:26:12.291Z</time></trkpt><trkpt lat="32.258185" lon="-110.6556063"><ele>1009.0</ele><time>2026-05-02T14:26:13.291Z</time></trkpt><trkpt lat="32.2583051" lon="-110.6556293"><ele>1009.0</ele><time>2026-05-02T14:26:14.291Z</time></trkpt><trkpt lat="32.2584248" lon="-110.6556434"><ele>1011.0</ele><time>2026-05-02T14:26:15.292Z</time></trkpt><trkpt lat="32.258545" lon="-110.6556441"><ele>1013.0</ele><time>2026-05-02T14:26:16.292Z</time></trkpt><trkpt lat="32.258663" lon="-110.6556283"><ele>1015.0</ele><time>2026-05-02T14:26:17.291Z</time></trkpt><trkpt lat="32.2587767" lon="-110.6556053"><ele>1017.0</ele><time>2026-05-02T14:26:18.292Z</time></trkpt><trkpt lat="32.2588806" lon="-110.6555868"><ele>1018.8</ele><time>2026-05-02T14:26:19.293Z</time></trkpt><trkpt lat="32.2589751" lon="-110.6555775"><ele>1020.6</ele><time>2026-05-02T14:26:20.293Z</time></trkpt><trkpt lat="32.259068" lon="-110.6555799"><ele>1022.3999999999999</ele><time>2026-05-02T14:26:21.293Z</time></trkpt><trkpt lat="32.259159" lon="-110.6555968"><ele>1024.2</ele><time>2026-05-02T14:26:22.292Z</time></trkpt><trkpt lat="32.259252" lon="-110.6556265"><ele>1026.0</ele><time>2026-05-02T14:26:23.292Z</time></trkpt><trkpt lat="32.259345" lon="-110.6556679"><ele>1026.0</ele><time>2026-05-02T14:26:24.292Z</time></trkpt><trkpt lat="32.2594333" lon="-110.6557228"><ele>1026.0</ele><time>2026-05-02T14:26:25.292Z</time></trkpt><trkpt lat="32.2595136" lon="-110.6557919"><ele>1026.0</ele><time>2026-05-02T14:26:26.291Z</time></trkpt><trkpt lat="32.2595882" lon="-110.6558712"><ele>1026.0</ele><time>2026-05-02T14:26:27.292Z</time></trkpt><trkpt lat="32.2596571" lon="-110.6559497"><ele>1026.0</ele><time>2026-05-02T14:26:28.292Z</time></trkpt><trkpt lat="32.2597217" lon="-110.6560136"><ele>1027.6</ele><time>2026-05-02T14:26:29.292Z</time></trkpt><trkpt lat="32.2597876" lon="-110.656058"><ele>1029.1999999999998</ele><time>2026-05-02T14:26:30.292Z</time></trkpt><trkpt lat="32.2598548" lon="-110.6560761"><ele>1030.8000000000002</ele><time>2026-05-02T14:26:31.292Z</time></trkpt><trkpt lat="32.2599657" lon="-110.6560278"><ele>1032.4</ele><time>2026-05-02T14:26:33.292Z</time></trkpt><trkpt lat="32.2600339" lon="-110.6559084"><ele>1034.0</ele><time>2026-05-02T14:26:35.293Z</time></trkpt><trkpt lat="32.2600482" lon="-110.6558221"><ele>1034.0</ele><time>2026-05-02T14:26:36.293Z</time></trkpt><trkpt lat="32.2600675" lon="-110.6557269"><ele>1034.0</ele><time>2026-05-02T14:26:37.293Z</time></trkpt><trkpt lat="32.2600931" lon="-110.6556273"><ele>1034.0</ele><time>2026-05-02T14:26:38.293Z</time></trkpt><trkpt lat="32.2601295" lon="-110.655527"><ele>1034.0</ele><time>2026-05-02T14:26:39.292Z</time></trkpt><trkpt lat="32.2601798" lon="-110.6554318"><ele>1034.0</ele><time>2026-05-02T14:26:40.293Z</time></trkpt><trkpt lat="32.2602455" lon="-110.6553393"><ele>1036.6000000000001</ele><time>2026-05-02T14:26:41.293Z</time></trkpt><trkpt lat="32.2603239" lon="-110.6552472"><ele>1039.2</ele><time>2026-05-02T14:26:42.293Z</time></trkpt><trkpt lat="32.2604074" lon="-110.6551563"><ele>1041.8000000000002</ele><time>2026-05-02T14:26:43.292Z</time></trkpt><trkpt lat="32.2604843" lon="-110.6550689"><ele>1044.4</ele><time>2026-05-02T14:26:44.293Z</time></trkpt><trkpt lat="32.2605545" lon="-110.6549878"><ele>1047.0</ele><time>2026-05-02T14:26:45.293Z</time></trkpt><trkpt lat="32.26062" lon="-110.654914"><ele>1047.0</ele><time>2026-05-02T14:26:46.293Z</time></trkpt><trkpt lat="32.2606835" lon="-110.6548524"><ele>1047.0</ele><time>2026-05-02T14:26:47.292Z</time></trkpt><trkpt lat="32.260746" lon="-110.6548139"><ele>1047.0</ele><time>2026-05-02T14:26:48.293Z</time></trkpt><trkpt lat="32.2608098" lon="-110.6547966"><ele>1047.0</ele><time>2026-05-02T14:26:49.292Z</time></trkpt><trkpt lat="32.2608768" lon="-110.6547968"><ele>1047.0</ele><time>2026-05-02T14:26:50.293Z</time></trkpt><trkpt lat="32.260944" lon="-110.6548038"><ele>1047.0</ele><time>2026-05-02T14:26:51.292Z</time></trkpt><trkpt lat="32.2610611" lon="-110.6547696"><ele>1047.0</ele><time>2026-05-02T14:26:53.292Z</time></trkpt><trkpt lat="32.2611286" lon="-110.6546613"><ele>1047.0</ele><time>2026-05-02T14:26:55.293Z</time></trkpt><trkpt lat="32.2611303" lon="-110.6545024"><ele>1047.0</ele><time>2026-05-02T14:26:57.293Z</time></trkpt><trkpt lat="32.2611032" lon="-110.6544067"><ele>1047.0</ele><time>2026-05-02T14:26:58.292Z</time></trkpt><trkpt lat="32.2610576" lon="-110.6543103"><ele>1047.0</ele><time>2026-05-02T14:26:59.293Z</time></trkpt><trkpt lat="32.2609993" lon="-110.654216"><ele>1049.2</ele><time>2026-05-02T14:27:00.292Z</time></trkpt><trkpt lat="32.2609409" lon="-110.6541123"><ele>1051.4</ele><time>2026-05-02T14:27:01.292Z</time></trkpt><trkpt lat="32.2608864" lon="-110.6540024"><ele>1053.6</ele><time>2026-05-02T14:27:02.292Z</time></trkpt><trkpt lat="32.2608305" lon="-110.6538953"><ele>1055.8</ele><time>2026-05-02T14:27:03.292Z</time></trkpt><trkpt lat="32.2607666" lon="-110.6538002"><ele>1058.0</ele><time>2026-05-02T14:27:04.293Z</time></trkpt><trkpt lat="32.2606961" lon="-110.6537252"><ele>1058.0</ele><time>2026-05-02T14:27:05.293Z</time></trkpt><trkpt lat="32.2606162" lon="-110.6536681"><ele>1058.0</ele><time>2026-05-02T14:27:06.293Z</time></trkpt><trkpt lat="32.2605319" lon="-110.6536209"><ele>1058.0</ele><time>2026-05-02T14:27:07.292Z</time></trkpt><trkpt lat="32.2604496" lon="-110.6535963"><ele>1058.0</ele><time>2026-05-02T14:27:08.293Z</time></trkpt><trkpt lat="32.260376" lon="-110.653586"><ele>1058.0</ele><time>2026-05-02T14:27:09.292Z</time></trkpt><trkpt lat="32.2603133" lon="-110.6535766"><ele>1058.0</ele><time>2026-05-02T14:27:10.293Z</time></trkpt><trkpt lat="32.2602264" lon="-110.6535249"><ele>1059.0</ele><time>2026-05-02T14:27:12.293Z</time></trkpt><trkpt lat="32.2602054" lon="-110.6534446"><ele>1060.0</ele><time>2026-05-02T14:27:14.293Z</time></trkpt><trkpt lat="32.260257" lon="-110.6533433"><ele>1061.0</ele><time>2026-05-02T14:27:16.293Z</time></trkpt><trkpt lat="32.2603632" lon="-110.6532642"><ele>1062.0</ele><time>2026-05-02T14:27:18.292Z</time></trkpt><trkpt lat="32.2604356" lon="-110.6532453"><ele>1063.0</ele><time>2026-05-02T14:27:19.292Z</time></trkpt><trkpt lat="32.2605244" lon="-110.6532414"><ele>1064.8</ele><time>2026-05-02T14:27:20.293Z</time></trkpt><trkpt lat="32.2606273" lon="-110.6532495"><ele>1066.6</ele><time>2026-05-02T14:27:21.292Z</time></trkpt><trkpt lat="32.2607374" lon="-110.6532598"><ele>1068.4</ele><time>2026-05-02T14:27:22.293Z</time></trkpt><trkpt lat="32.2608507" lon="-110.6532686"><ele>1070.2</ele><time>2026-05-02T14:27:23.292Z</time></trkpt><trkpt lat="32.2609667" lon="-110.6532713"><ele>1072.0</ele><time>2026-05-02T14:27:24.292Z</time></trkpt><trkpt lat="32.261078" lon="-110.6532715"><ele>1072.0</ele><time>2026-05-02T14:27:25.292Z</time></trkpt><trkpt lat="32.26118" lon="-110.6532722"><ele>1072.0</ele><time>2026-05-02T14:27:26.293Z</time></trkpt><trkpt lat="32.2612773" lon="-110.6532702"><ele>1072.0</ele><time>2026-05-02T14:27:27.293Z</time></trkpt><trkpt lat="32.261374" lon="-110.653257"><ele>1072.0</ele><time>2026-05-02T14:27:28.294Z</time></trkpt><trkpt lat="32.2614673" lon="-110.6532263"><ele>1072.0</ele><time>2026-05-02T14:27:29.293Z</time></trkpt><trkpt lat="32.261558" lon="-110.6531759"><ele>1074.0</ele><time>2026-05-02T14:27:30.292Z</time></trkpt><trkpt lat="32.2616506" lon="-110.6531143"><ele>1076.0</ele><time>2026-05-02T14:27:31.292Z</time></trkpt><trkpt lat="32.2617487" lon="-110.6530575"><ele>1078.0</ele><time>2026-05-02T14:27:32.294Z</time></trkpt><trkpt lat="32.261853" lon="-110.6530144"><ele>1080.0</ele><time>2026-05-02T14:27:33.294Z</time></trkpt><trkpt lat="32.2619607" lon="-110.6529839"><ele>1082.0</ele><time>2026-05-02T14:27:34.294Z</time></trkpt><trkpt lat="32.2620637" lon="-110.6529628"><ele>1082.0</ele><time>2026-05-02T14:27:35.292Z</time></trkpt><trkpt lat="32.2621531" lon="-110.6529526"><ele>1082.0</ele><time>2026-05-02T14:27:36.293Z</time></trkpt><trkpt lat="32.2622269" lon="-110.6529433"><ele>1082.0</ele><time>2026-05-02T14:27:37.294Z</time></trkpt><trkpt lat="32.2623274" lon="-110.6528921"><ele>1082.0</ele><time>2026-05-02T14:27:39.292Z</time></trkpt><trkpt lat="32.2623544" lon="-110.6527925"><ele>1082.0</ele><time>2026-05-02T14:27:41.293Z</time></trkpt><trkpt lat="32.2623071" lon="-110.6527095"><ele>1082.0</ele><time>2026-05-02T14:27:43.293Z</time></trkpt><trkpt lat="32.2621813" lon="-110.6526848"><ele>1084.8</ele><time>2026-05-02T14:27:45.293Z</time></trkpt><trkpt lat="32.2621019" lon="-110.6526802"><ele>1087.6</ele><time>2026-05-02T14:27:46.293Z</time></trkpt><trkpt lat="32.2620101" lon="-110.6526717"><ele>1090.3999999999999</ele><time>2026-05-02T14:27:47.292Z</time></trkpt><trkpt lat="32.2619099" lon="-110.6526584"><ele>1093.2</ele><time>2026-05-02T14:27:48.292Z</time></trkpt><trkpt lat="32.2618102" lon="-110.6526425"><ele>1096.0</ele><time>2026-05-02T14:27:49.294Z</time></trkpt><trkpt lat="32.261717" lon="-110.6526266"><ele>1096.0000000000002</ele><time>2026-05-02T14:27:50.294Z</time></trkpt><trkpt lat="32.2616374" lon="-110.652608"><ele>1096.0</ele><time>2026-05-02T14:27:51.292Z</time></trkpt><trkpt lat="32.2615688" lon="-110.6525821"><ele>1096.0</ele><time>2026-05-02T14:27:52.293Z</time></trkpt><trkpt lat="32.2615107" lon="-110.6525439"><ele>1096.0</ele><time>2026-05-02T14:27:53.292Z</time></trkpt><trkpt lat="32.261463" lon="-110.6524912"><ele>1096.0</ele><time>2026-05-02T14:27:54.293Z</time></trkpt><trkpt lat="32.2614248" lon="-110.6524278"><ele>1096.0000000000002</ele><time>2026-05-02T14:27:55.293Z</time></trkpt><trkpt lat="32.261402" lon="-110.6523469"><ele>1096.0</ele><time>2026-05-02T14:27:56.293Z</time></trkpt><trkpt lat="32.2613925" lon="-110.6522558"><ele>1095.5</ele><time>2026-05-02T14:27:57.292Z</time></trkpt><trkpt lat="32.2613881" lon="-110.6521594"><ele>1095.0</ele><time>2026-05-02T14:27:58.293Z</time></trkpt><trkpt lat="32.2613838" lon="-110.6520535"><ele>1094.5</ele><time>2026-05-02T14:27:59.294Z</time></trkpt><trkpt lat="32.2613685" lon="-110.6519502"><ele>1094.0</ele><time>2026-05-02T14:28:00.294Z</time></trkpt><trkpt lat="32.2613396" lon="-110.6518595"><ele>1093.5</ele><time>2026-05-02T14:28:01.294Z</time></trkpt><trkpt lat="32.2613011" lon="-110.6517741"><ele>1093.0</ele><time>2026-05-02T14:28:02.294Z</time></trkpt><trkpt lat="32.2612512" lon="-110.6516981"><ele>1093.0</ele><time>2026-05-02T14:28:03.293Z</time></trkpt><trkpt lat="32.2612059" lon="-110.6516295"><ele>1093.0</ele><time>2026-05-02T14:28:04.293Z</time></trkpt><trkpt lat="32.261183" lon="-110.6515585"><ele>1093.0</ele><time>2026-05-02T14:28:05.294Z</time></trkpt><trkpt lat="32.2612057" lon="-110.6514152"><ele>1093.0</ele><time>2026-05-02T14:28:07.294Z</time></trkpt><trkpt lat="32.2613064" lon="-110.6513305"><ele>1093.0</ele><time>2026-05-02T14:28:09.294Z</time></trkpt><trkpt lat="32.2613808" lon="-110.6513157"><ele>1095.8</ele><time>2026-05-02T14:28:10.293Z</time></trkpt><trkpt lat="32.2614669" lon="-110.6513099"><ele>1098.6</ele><time>2026-05-02T14:28:11.293Z</time></trkpt><trkpt lat="32.2615609" lon="-110.6513076"><ele>1101.4</ele><time>2026-05-02T14:28:12.293Z</time></trkpt><trkpt lat="32.2616645" lon="-110.651305"><ele>1104.2</ele><time>2026-05-02T14:28:13.294Z</time></trkpt><trkpt lat="32.261772" lon="-110.6512961"><ele>1107.0</ele><time>2026-05-02T14:28:14.293Z</time></trkpt><trkpt lat="32.2618843" lon="-110.6512793"><ele>1107.0</ele><time>2026-05-02T14:28:15.294Z</time></trkpt><trkpt lat="32.2619986" lon="-110.6512577"><ele>1107.0</ele><time>2026-05-02T14:28:16.293Z</time></trkpt><trkpt lat="32.2621158" lon="-110.6512334"><ele>1107.0</ele><time>2026-05-02T14:28:17.294Z</time></trkpt><trkpt lat="32.2622351" lon="-110.6512091"><ele>1107.0</ele><time>2026-05-02T14:28:18.293Z</time></trkpt><trkpt lat="32.2623565" lon="-110.6511886"><ele>1107.75</ele><time>2026-05-02T14:28:19.293Z</time></trkpt><trkpt lat="32.262479" lon="-110.6511723"><ele>1108.5</ele><time>2026-05-02T14:28:20.293Z</time></trkpt><trkpt lat="32.2626013" lon="-110.6511588"><ele>1109.25</ele><time>2026-05-02T14:28:21.294Z</time></trkpt><trkpt lat="32.262722" lon="-110.6511475"><ele>1110.0</ele><time>2026-05-02T14:28:22.294Z</time></trkpt><trkpt lat="32.2628363" lon="-110.6511384"><ele>1110.0</ele><time>2026-05-02T14:28:23.293Z</time></trkpt><trkpt lat="32.2629465" lon="-110.6511289"><ele>1110.0</ele><time>2026-05-02T14:28:24.293Z</time></trkpt><trkpt lat="32.2630569" lon="-110.6511114"><ele>1110.0</ele><time>2026-05-02T14:28:25.294Z</time></trkpt><trkpt lat="32.2631649" lon="-110.6510799"><ele>1110.0</ele><time>2026-05-02T14:28:26.293Z</time></trkpt><trkpt lat="32.2632674" lon="-110.6510348"><ele>1110.0</ele><time>2026-05-02T14:28:27.294Z</time></trkpt><trkpt lat="32.2633671" lon="-110.6509793"><ele>1114.6</ele><time>2026-05-02T14:28:28.294Z</time></trkpt><trkpt lat="32.2634672" lon="-110.6509174"><ele>1119.2</ele><time>2026-05-02T14:28:29.293Z</time></trkpt><trkpt lat="32.2635636" lon="-110.6508567"><ele>1123.8</ele><time>2026-05-02T14:28:30.293Z</time></trkpt><trkpt lat="32.2636479" lon="-110.6508036"><ele>1128.4</ele><time>2026-05-02T14:28:31.293Z</time></trkpt><trkpt lat="32.2637123" lon="-110.650759"><ele>1133.0</ele><time>2026-05-02T14:28:32.293Z</time></trkpt><trkpt lat="32.2637909" lon="-110.6506712"><ele>1133.0</ele><time>2026-05-02T14:28:34.293Z</time></trkpt><trkpt lat="32.2637997" lon="-110.6505737"><ele>1133.0</ele><time>2026-05-02T14:28:36.294Z</time></trkpt><trkpt lat="32.2637338" lon="-110.6505124"><ele>1133.0</ele><time>2026-05-02T14:28:38.294Z</time></trkpt><trkpt lat="32.26362" lon="-110.6505448"><ele>1133.0</ele><time>2026-05-02T14:28:40.293Z</time></trkpt><trkpt lat="32.2635551" lon="-110.6505612"><ele>1133.0</ele><time>2026-05-02T14:28:41.293Z</time></trkpt><trkpt lat="32.2634809" lon="-110.6505641"><ele>1133.0</ele><time>2026-05-02T14:28:42.293Z</time></trkpt><trkpt lat="32.2634024" lon="-110.6505529"><ele>1133.0</ele><time>2026-05-02T14:28:43.293Z</time></trkpt><trkpt lat="32.2633162" lon="-110.6505255"><ele>1133.0</ele><time>2026-05-02T14:28:44.294Z</time></trkpt><trkpt lat="32.2632243" lon="-110.6504885"><ele>1133.0</ele><time>2026-05-02T14:28:45.293Z</time></trkpt><trkpt lat="32.2631296" lon="-110.6504487"><ele>1133.0</ele><time>2026-05-02T14:28:46.294Z</time></trkpt><trkpt lat="32.2630334" lon="-110.650406"><ele>1133.0</ele><time>2026-05-02T14:28:47.294Z</time></trkpt><trkpt lat="32.262939" lon="-110.6503581"><ele>1132.6</ele><time>2026-05-02T14:28:48.294Z</time></trkpt><trkpt lat="32.2628467" lon="-110.650309"><ele>1132.1999999999998</ele><time>2026-05-02T14:28:49.293Z</time></trkpt><trkpt lat="32.2627659" lon="-110.6502557"><ele>1131.8</ele><time>2026-05-02T14:28:50.293Z</time></trkpt><trkpt lat="32.2626933" lon="-110.6501941"><ele>1131.3999999999999</ele><time>2026-05-02T14:28:51.293Z</time></trkpt><trkpt lat="32.2626326" lon="-110.6501207"><ele>1131.0</ele><time>2026-05-02T14:28:52.293Z</time></trkpt><trkpt lat="32.2625794" lon="-110.6500339"><ele>1132.6</ele><time>2026-05-02T14:28:53.294Z</time></trkpt><trkpt lat="32.2625319" lon="-110.649938"><ele>1134.1999999999998</ele><time>2026-05-02T14:28:54.293Z</time></trkpt><trkpt lat="32.2624793" lon="-110.6498449"><ele>1135.8000000000002</ele><time>2026-05-02T14:28:55.294Z</time></trkpt><trkpt lat="32.2624181" lon="-110.6497653"><ele>1137.4</ele><time>2026-05-02T14:28:56.294Z</time></trkpt><trkpt lat="32.2623485" lon="-110.6496978"><ele>1139.0</ele><time>2026-05-02T14:28:57.293Z</time></trkpt><trkpt lat="32.2622716" lon="-110.6496444"><ele>1139.0</ele><time>2026-05-02T14:28:58.293Z</time></trkpt><trkpt lat="32.2621921" lon="-110.6496062"><ele>1139.0</ele><time>2026-05-02T14:28:59.293Z</time></trkpt><trkpt lat="32.2621126" lon="-110.6495719"><ele>1139.0</ele><time>2026-05-02T14:29:00.293Z</time></trkpt><trkpt lat="32.2620405" lon="-110.6495335"><ele>1139.0</ele><time>2026-05-02T14:29:01.293Z</time></trkpt><trkpt lat="32.2619792" lon="-110.6494892"><ele>1139.0</ele><time>2026-05-02T14:29:02.293Z</time></trkpt><trkpt lat="32.2619317" lon="-110.6494403"><ele>1139.0</ele><time>2026-05-02T14:29:03.293Z</time></trkpt><trkpt lat="32.2618888" lon="-110.6493222"><ele>1141.6000000000001</ele><time>2026-05-02T14:29:05.294Z</time></trkpt><trkpt lat="32.2619238" lon="-110.6492031"><ele>1144.2</ele><time>2026-05-02T14:29:07.294Z</time></trkpt><trkpt lat="32.2620308" lon="-110.6491429"><ele>1146.8000000000002</ele><time>2026-05-02T14:29:09.294Z</time></trkpt><trkpt lat="32.2621125" lon="-110.6491325"><ele>1149.4</ele><time>2026-05-02T14:29:10.295Z</time></trkpt><trkpt lat="32.2622126" lon="-110.6491232"><ele>1152.0</ele><time>2026-05-02T14:29:11.293Z</time></trkpt><trkpt lat="32.2623247" lon="-110.6491117"><ele>1154.2</ele><time>2026-05-02T14:29:12.293Z</time></trkpt><trkpt lat="32.2624398" lon="-110.6490986"><ele>1156.4</ele><time>2026-05-02T14:29:13.293Z</time></trkpt><trkpt lat="32.2625556" lon="-110.6490809"><ele>1158.6</ele><time>2026-05-02T14:29:14.293Z</time></trkpt><trkpt lat="32.2626593" lon="-110.6490562"><ele>1160.8</ele><time>2026-05-02T14:29:15.294Z</time></trkpt><trkpt lat="32.2627513" lon="-110.6490163"><ele>1163.0</ele><time>2026-05-02T14:29:16.294Z</time></trkpt><trkpt lat="32.262831" lon="-110.6489569"><ele>1163.0</ele><time>2026-05-02T14:29:17.294Z</time></trkpt><trkpt lat="32.2629" lon="-110.6488773"><ele>1163.0</ele><time>2026-05-02T14:29:18.294Z</time></trkpt><trkpt lat="32.2629665" lon="-110.648776"><ele>1163.0</ele><time>2026-05-02T14:29:19.294Z</time></trkpt><trkpt lat="32.2630336" lon="-110.6486613"><ele>1163.0</ele><time>2026-05-02T14:29:20.294Z</time></trkpt><trkpt lat="32.2631035" lon="-110.6485409"><ele>1163.0</ele><time>2026-05-02T14:29:21.294Z</time></trkpt><trkpt lat="32.2631804" lon="-110.6484223"><ele>1164.5</ele><time>2026-05-02T14:29:22.294Z</time></trkpt><trkpt lat="32.2632646" lon="-110.6483102"><ele>1166.0</ele><time>2026-05-02T14:29:23.293Z</time></trkpt><trkpt lat="32.2633503" lon="-110.6482074"><ele>1167.5</ele><time>2026-05-02T14:29:24.294Z</time></trkpt><trkpt lat="32.26343" lon="-110.6481104"><ele>1169.0</ele><time>2026-05-02T14:29:25.293Z</time></trkpt><trkpt lat="32.2634996" lon="-110.6480129"><ele>1169.0</ele><time>2026-05-02T14:29:26.295Z</time></trkpt><trkpt lat="32.2635586" lon="-110.6479082"><ele>1169.0</ele><time>2026-05-02T14:29:27.294Z</time></trkpt><trkpt lat="32.263601" lon="-110.6477964"><ele>1169.0</ele><time>2026-05-02T14:29:28.294Z</time></trkpt><trkpt lat="32.2636246" lon="-110.6476781"><ele>1169.0</ele><time>2026-05-02T14:29:29.294Z</time></trkpt><trkpt lat="32.263635" lon="-110.6475532"><ele>1169.0</ele><time>2026-05-02T14:29:30.295Z</time></trkpt><trkpt lat="32.263637" lon="-110.6474253"><ele>1169.8</ele><time>2026-05-02T14:29:31.293Z</time></trkpt><trkpt lat="32.2636354" lon="-110.6472993"><ele>1170.6000000000001</ele><time>2026-05-02T14:29:32.294Z</time></trkpt><trkpt lat="32.2636365" lon="-110.6471828"><ele>1171.4</ele><time>2026-05-02T14:29:33.295Z</time></trkpt><trkpt lat="32.2636384" lon="-110.6470747"><ele>1172.2</ele><time>2026-05-02T14:29:34.295Z</time></trkpt><trkpt lat="32.263638" lon="-110.6469715"><ele>1173.0</ele><time>2026-05-02T14:29:35.295Z</time></trkpt><trkpt lat="32.2636369" lon="-110.6468726"><ele>1174.6</ele><time>2026-05-02T14:29:36.294Z</time></trkpt><trkpt lat="32.2636325" lon="-110.6467864"><ele>1176.1999999999998</ele><time>2026-05-02T14:29:37.294Z</time></trkpt><trkpt lat="32.2636273" lon="-110.6467118"><ele>1177.8</ele><time>2026-05-02T14:29:38.295Z</time></trkpt><trkpt lat="32.2636128" lon="-110.6465763"><ele>1179.3999999999999</ele><time>2026-05-02T14:29:40.295Z</time></trkpt><trkpt lat="32.2635944" lon="-110.646447"><ele>1181.0</ele><time>2026-05-02T14:29:42.295Z</time></trkpt><trkpt lat="32.2635787" lon="-110.6463343"><ele>1181.0</ele><time>2026-05-02T14:29:44.294Z</time></trkpt><trkpt lat="32.2635786" lon="-110.64623"><ele>1181.0</ele><time>2026-05-02T14:29:46.294Z</time></trkpt><trkpt lat="32.2636006" lon="-110.6461269"><ele>1181.0</ele><time>2026-05-02T14:29:48.294Z</time></trkpt><trkpt lat="32.2636441" lon="-110.6460681"><ele>1181.0</ele><time>2026-05-02T14:29:50.294Z</time></trkpt><trkpt lat="32.2637299" lon="-110.6460108"><ele>1181.0</ele><time>2026-05-02T14:29:53.294Z</time></trkpt><trkpt lat="32.2638314" lon="-110.6459742"><ele>1181.0</ele><time>2026-05-02T14:29:55.294Z</time></trkpt><trkpt lat="32.2639507" lon="-110.6459593"><ele>1181.3999999999999</ele><time>2026-05-02T14:29:57.294Z</time></trkpt><trkpt lat="32.2640654" lon="-110.6459906"><ele>1181.8</ele><time>2026-05-02T14:29:59.294Z</time></trkpt><trkpt lat="32.264167" lon="-110.6460674"><ele>1182.1999999999998</ele><time>2026-05-02T14:30:01.295Z</time></trkpt><trkpt lat="32.2642115" lon="-110.6461257"><ele>1182.6</ele><time>2026-05-02T14:30:02.295Z</time></trkpt><trkpt lat="32.2642502" lon="-110.6461965"><ele>1183.0</ele><time>2026-05-02T14:30:03.294Z</time></trkpt><trkpt lat="32.2642836" lon="-110.64628"><ele>1184.0</ele><time>2026-05-02T14:30:04.294Z</time></trkpt><trkpt lat="32.264309" lon="-110.6463712"><ele>1185.0</ele><time>2026-05-02T14:30:05.294Z</time></trkpt><trkpt lat="32.2643288" lon="-110.6464672"><ele>1186.0</ele><time>2026-05-02T14:30:06.294Z</time></trkpt><trkpt lat="32.2643464" lon="-110.6465648"><ele>1187.0</ele><time>2026-05-02T14:30:07.295Z</time></trkpt><trkpt lat="32.2643663" lon="-110.6466617"><ele>1188.0</ele><time>2026-05-02T14:30:08.295Z</time></trkpt><trkpt lat="32.2643932" lon="-110.6467522"><ele>1189.0</ele><time>2026-05-02T14:30:09.295Z</time></trkpt><trkpt lat="32.2644245" lon="-110.6468239"><ele>1189.0</ele><time>2026-05-02T14:30:10.294Z</time></trkpt><trkpt lat="32.2645053" lon="-110.6469137"><ele>1189.0</ele><time>2026-05-02T14:30:12.295Z</time></trkpt><trkpt lat="32.2646167" lon="-110.6469378"><ele>1189.0</ele><time>2026-05-02T14:30:14.294Z</time></trkpt><trkpt lat="32.2646914" lon="-110.6469226"><ele>1189.0</ele><time>2026-05-02T14:30:15.294Z</time></trkpt><trkpt lat="32.2647757" lon="-110.6469085"><ele>1189.0</ele><time>2026-05-02T14:30:16.294Z</time></trkpt><trkpt lat="32.2648596" lon="-110.6469093"><ele>1188.3333333333333</ele><time>2026-05-02T14:30:17.294Z</time></trkpt><trkpt lat="32.2649402" lon="-110.6469302"><ele>1187.6666666666665</ele><time>2026-05-02T14:30:18.294Z</time></trkpt><trkpt lat="32.2650172" lon="-110.6469739"><ele>1187.0</ele><time>2026-05-02T14:30:19.294Z</time></trkpt><trkpt lat="32.2650858" lon="-110.6470279"><ele>1186.3333333333333</ele><time>2026-05-02T14:30:20.295Z</time></trkpt><trkpt lat="32.2651504" lon="-110.6470808"><ele>1185.6666666666667</ele><time>2026-05-02T14:30:21.294Z</time></trkpt><trkpt lat="32.26522" lon="-110.647123"><ele>1185.0</ele><time>2026-05-02T14:30:22.294Z</time></trkpt><trkpt lat="32.2652976" lon="-110.6471517"><ele>1185.0</ele><time>2026-05-02T14:30:23.294Z</time></trkpt><trkpt lat="32.2653768" lon="-110.6471592"><ele>1185.0</ele><time>2026-05-02T14:30:24.295Z</time></trkpt><trkpt lat="32.2654578" lon="-110.6471437"><ele>1185.0</ele><time>2026-05-02T14:30:25.295Z</time></trkpt><trkpt lat="32.2655402" lon="-110.6471137"><ele>1185.0</ele><time>2026-05-02T14:30:26.294Z</time></trkpt><trkpt lat="32.2656166" lon="-110.647081"><ele>1185.0</ele><time>2026-05-02T14:30:27.294Z</time></trkpt><trkpt lat="32.26569" lon="-110.647048"><ele>1185.0</ele><time>2026-05-02T14:30:28.295Z</time></trkpt><trkpt lat="32.2657559" lon="-110.647024"><ele>1184.5</ele><time>2026-05-02T14:30:29.295Z</time></trkpt><trkpt lat="32.2658206" lon="-110.6470053"><ele>1184.0</ele><time>2026-05-02T14:30:30.294Z</time></trkpt><trkpt lat="32.2658843" lon="-110.6469893"><ele>1183.5</ele><time>2026-05-02T14:30:31.294Z</time></trkpt><trkpt lat="32.26599" lon="-110.6469749"><ele>1183.0</ele><time>2026-05-02T14:30:33.295Z</time></trkpt><trkpt lat="32.2660644" lon="-110.6469706"><ele>1182.5</ele><time>2026-05-02T14:30:35.294Z</time></trkpt><trkpt lat="32.2661424" lon="-110.6469671"><ele>1182.0</ele><time>2026-05-02T14:30:39.295Z</time></trkpt><trkpt lat="32.2662058" lon="-110.6469592"><ele>1182.0</ele><time>2026-05-02T14:30:42.295Z</time></trkpt><trkpt lat="32.2663115" lon="-110.6469678"><ele>1182.0</ele><time>2026-05-02T14:31:24.295Z</time></trkpt><trkpt lat="32.2664268" lon="-110.6469525"><ele>1182.0</ele><time>2026-05-02T14:31:26.295Z</time></trkpt><trkpt lat="32.2664895" lon="-110.646936"><ele>1182.0</ele><time>2026-05-02T14:31:27.296Z</time></trkpt><trkpt lat="32.2665525" lon="-110.6469043"><ele>1182.0</ele><time>2026-05-02T14:31:28.295Z</time></trkpt><trkpt lat="32.2666079" lon="-110.6468564"><ele>1182.0</ele><time>2026-05-02T14:31:29.296Z</time></trkpt><trkpt lat="32.2666582" lon="-110.6467965"><ele>1184.4</ele><time>2026-05-02T14:31:30.295Z</time></trkpt><trkpt lat="32.2667043" lon="-110.6467271"><ele>1186.8000000000002</ele><time>2026-05-02T14:31:31.295Z</time></trkpt><trkpt lat="32.2667503" lon="-110.6466497"><ele>1189.2</ele><time>2026-05-02T14:31:32.296Z</time></trkpt><trkpt lat="32.2667998" lon="-110.6465625"><ele>1191.6000000000001</ele><time>2026-05-02T14:31:33.295Z</time></trkpt><trkpt lat="32.2668561" lon="-110.6464654"><ele>1194.0</ele><time>2026-05-02T14:31:34.296Z</time></trkpt><trkpt lat="32.2669195" lon="-110.646364"><ele>1194.0</ele><time>2026-05-02T14:31:35.296Z</time></trkpt><trkpt lat="32.266986" lon="-110.6462586"><ele>1194.0</ele><time>2026-05-02T14:31:36.296Z</time></trkpt><trkpt lat="32.2670518" lon="-110.6461469"><ele>1194.0</ele><time>2026-05-02T14:31:37.295Z</time></trkpt><trkpt lat="32.2671152" lon="-110.6460307"><ele>1194.0</ele><time>2026-05-02T14:31:38.295Z</time></trkpt><trkpt lat="32.2671712" lon="-110.6459099"><ele>1195.5</ele><time>2026-05-02T14:31:39.295Z</time></trkpt><trkpt lat="32.2672225" lon="-110.6457871"><ele>1197.0</ele><time>2026-05-02T14:31:40.295Z</time></trkpt><trkpt lat="32.2672748" lon="-110.6456671"><ele>1198.5</ele><time>2026-05-02T14:31:41.296Z</time></trkpt><trkpt lat="32.2673292" lon="-110.6455466"><ele>1200.0</ele><time>2026-05-02T14:31:42.295Z</time></trkpt><trkpt lat="32.2673813" lon="-110.6454252"><ele>1200.0</ele><time>2026-05-02T14:31:43.295Z</time></trkpt><trkpt lat="32.2674321" lon="-110.6453048"><ele>1200.0</ele><time>2026-05-02T14:31:44.295Z</time></trkpt><trkpt lat="32.2674849" lon="-110.6451911"><ele>1200.0</ele><time>2026-05-02T14:31:45.295Z</time></trkpt><trkpt lat="32.2675375" lon="-110.6450821"><ele>1200.0</ele><time>2026-05-02T14:31:46.295Z</time></trkpt><trkpt lat="32.2675884" lon="-110.6449781"><ele>1200.0</ele><time>2026-05-02T14:31:47.295Z</time></trkpt><trkpt lat="32.2676389" lon="-110.6448808"><ele>1200.2</ele><time>2026-05-02T14:31:48.295Z</time></trkpt><trkpt lat="32.2676965" lon="-110.6447919"><ele>1200.4</ele><time>2026-05-02T14:31:49.296Z</time></trkpt><trkpt lat="32.2677617" lon="-110.6447104"><ele>1200.6</ele><time>2026-05-02T14:31:50.296Z</time></trkpt><trkpt lat="32.2678338" lon="-110.6446407"><ele>1200.8</ele><time>2026-05-02T14:31:51.295Z</time></trkpt><trkpt lat="32.2679161" lon="-110.6445842"><ele>1201.0</ele><time>2026-05-02T14:31:52.295Z</time></trkpt><trkpt lat="32.2680092" lon="-110.6445371"><ele>1201.75</ele><time>2026-05-02T14:31:53.296Z</time></trkpt><trkpt lat="32.2681115" lon="-110.6444964"><ele>1202.5</ele><time>2026-05-02T14:31:54.295Z</time></trkpt><trkpt lat="32.2682203" lon="-110.6444554"><ele>1203.25</ele><time>2026-05-02T14:31:55.295Z</time></trkpt><trkpt lat="32.2683339" lon="-110.6444122"><ele>1204.0</ele><time>2026-05-02T14:31:56.295Z</time></trkpt><trkpt lat="32.2684512" lon="-110.6443688"><ele>1204.0</ele><time>2026-05-02T14:31:57.295Z</time></trkpt><trkpt lat="32.2685715" lon="-110.6443213"><ele>1204.0</ele><time>2026-05-02T14:31:58.295Z</time></trkpt><trkpt lat="32.2686922" lon="-110.6442676"><ele>1204.0</ele><time>2026-05-02T14:31:59.295Z</time></trkpt><trkpt lat="32.2688102" lon="-110.6442107"><ele>1204.0</ele><time>2026-05-02T14:32:00.295Z</time></trkpt><trkpt lat="32.2689252" lon="-110.6441503"><ele>1205.0</ele><time>2026-05-02T14:32:01.296Z</time></trkpt><trkpt lat="32.2690325" lon="-110.6440854"><ele>1206.0</ele><time>2026-05-02T14:32:02.296Z</time></trkpt><trkpt lat="32.2691282" lon="-110.6440159"><ele>1207.0</ele><time>2026-05-02T14:32:03.295Z</time></trkpt><trkpt lat="32.2692211" lon="-110.6439434"><ele>1208.0</ele><time>2026-05-02T14:32:04.296Z</time></trkpt><trkpt lat="32.2692881" lon="-110.6438578"><ele>1209.0</ele><time>2026-05-02T14:32:05.297Z</time></trkpt><trkpt lat="32.2693348" lon="-110.6437668"><ele>1209.0</ele><time>2026-05-02T14:32:06.296Z</time></trkpt><trkpt lat="32.2693629" lon="-110.6436634"><ele>1209.0</ele><time>2026-05-02T14:32:07.296Z</time></trkpt><trkpt lat="32.2693705" lon="-110.6435555"><ele>1209.0</ele><time>2026-05-02T14:32:08.295Z</time></trkpt><trkpt lat="32.2693602" lon="-110.6434478"><ele>1209.0</ele><time>2026-05-02T14:32:09.297Z</time></trkpt><trkpt lat="32.2693321" lon="-110.6433366"><ele>1209.0</ele><time>2026-05-02T14:32:10.295Z</time></trkpt><trkpt lat="32.2692917" lon="-110.6432227"><ele>1209.2</ele><time>2026-05-02T14:32:11.295Z</time></trkpt><trkpt lat="32.2692428" lon="-110.6431081"><ele>1209.4</ele><time>2026-05-02T14:32:12.296Z</time></trkpt><trkpt lat="32.2691931" lon="-110.6429922"><ele>1209.6</ele><time>2026-05-02T14:32:13.295Z</time></trkpt><trkpt lat="32.2691497" lon="-110.642879"><ele>1209.8</ele><time>2026-05-02T14:32:14.296Z</time></trkpt><trkpt lat="32.269117" lon="-110.6427663"><ele>1210.0</ele><time>2026-05-02T14:32:15.297Z</time></trkpt><trkpt lat="32.2690956" lon="-110.6426569"><ele>1210.3333333333333</ele><time>2026-05-02T14:32:16.295Z</time></trkpt><trkpt lat="32.2690864" lon="-110.6425493"><ele>1210.6666666666665</ele><time>2026-05-02T14:32:17.297Z</time></trkpt><trkpt lat="32.2690931" lon="-110.6424485"><ele>1211.0</ele><time>2026-05-02T14:32:18.296Z</time></trkpt><trkpt lat="32.2691142" lon="-110.6423515"><ele>1211.3333333333333</ele><time>2026-05-02T14:32:19.295Z</time></trkpt><trkpt lat="32.2691468" lon="-110.6422534"><ele>1211.6666666666667</ele><time>2026-05-02T14:32:20.295Z</time></trkpt><trkpt lat="32.2691884" lon="-110.6421529"><ele>1212.0</ele><time>2026-05-02T14:32:21.296Z</time></trkpt><trkpt lat="32.2692371" lon="-110.6420514"><ele>1214.0</ele><time>2026-05-02T14:32:22.296Z</time></trkpt><trkpt lat="32.2692873" lon="-110.6419518"><ele>1216.0</ele><time>2026-05-02T14:32:23.296Z</time></trkpt><trkpt lat="32.2693359" lon="-110.6418516"><ele>1218.0</ele><time>2026-05-02T14:32:24.296Z</time></trkpt><trkpt lat="32.2693814" lon="-110.6417462"><ele>1220.0</ele><time>2026-05-02T14:32:25.297Z</time></trkpt><trkpt lat="32.2694247" lon="-110.6416361"><ele>1222.0</ele><time>2026-05-02T14:32:26.295Z</time></trkpt><trkpt lat="32.2694639" lon="-110.6415215"><ele>1222.0</ele><time>2026-05-02T14:32:27.297Z</time></trkpt><trkpt lat="32.2694991" lon="-110.6414034"><ele>1222.0</ele><time>2026-05-02T14:32:28.296Z</time></trkpt><trkpt lat="32.2695334" lon="-110.641285"><ele>1222.0</ele><time>2026-05-02T14:32:29.297Z</time></trkpt><trkpt lat="32.2695703" lon="-110.6411691"><ele>1222.0</ele><time>2026-05-02T14:32:30.296Z</time></trkpt><trkpt lat="32.2696099" lon="-110.6410551"><ele>1222.0</ele><time>2026-05-02T14:32:31.296Z</time></trkpt><trkpt lat="32.2696516" lon="-110.6409404"><ele>1222.0</ele><time>2026-05-02T14:32:32.297Z</time></trkpt><trkpt lat="32.2696956" lon="-110.6408248"><ele>1222.0</ele><time>2026-05-02T14:32:33.297Z</time></trkpt><trkpt lat="32.2697412" lon="-110.6407122"><ele>1222.0</ele><time>2026-05-02T14:32:34.296Z</time></trkpt><trkpt lat="32.2697949" lon="-110.6406085"><ele>1222.0</ele><time>2026-05-02T14:32:35.296Z</time></trkpt><trkpt lat="32.2698421" lon="-110.6405058"><ele>1222.0</ele><time>2026-05-02T14:32:36.296Z</time></trkpt><trkpt lat="32.2698774" lon="-110.6404027"><ele>1223.8</ele><time>2026-05-02T14:32:37.296Z</time></trkpt><trkpt lat="32.2698961" lon="-110.6402963"><ele>1225.6</ele><time>2026-05-02T14:32:38.296Z</time></trkpt><trkpt lat="32.269907" lon="-110.6401851"><ele>1227.3999999999999</ele><time>2026-05-02T14:32:39.296Z</time></trkpt><trkpt lat="32.2699057" lon="-110.6400538"><ele>1229.2</ele><time>2026-05-02T14:32:40.297Z</time></trkpt><trkpt lat="32.2699107" lon="-110.6399186"><ele>1231.0</ele><time>2026-05-02T14:32:41.296Z</time></trkpt><trkpt lat="32.2699182" lon="-110.6397948"><ele>1231.0</ele><time>2026-05-02T14:32:42.297Z</time></trkpt><trkpt lat="32.2699241" lon="-110.6396847"><ele>1231.0</ele><time>2026-05-02T14:32:43.297Z</time></trkpt><trkpt lat="32.2699377" lon="-110.6395812"><ele>1231.0</ele><time>2026-05-02T14:32:44.296Z</time></trkpt><trkpt lat="32.2699676" lon="-110.63948"><ele>1231.0</ele><time>2026-05-02T14:32:45.296Z</time></trkpt><trkpt lat="32.2700191" lon="-110.6393835"><ele>1231.0</ele><time>2026-05-02T14:32:46.296Z</time></trkpt><trkpt lat="32.2700881" lon="-110.6392893"><ele>1228.75</ele><time>2026-05-02T14:32:47.296Z</time></trkpt><trkpt lat="32.2701682" lon="-110.6391969"><ele>1226.5</ele><time>2026-05-02T14:32:48.296Z</time></trkpt><trkpt lat="32.2702548" lon="-110.6391019"><ele>1224.25</ele><time>2026-05-02T14:32:49.297Z</time></trkpt><trkpt lat="32.2703405" lon="-110.6390072"><ele>1222.0</ele><time>2026-05-02T14:32:50.296Z</time></trkpt><trkpt lat="32.2704255" lon="-110.6389179"><ele>1222.0</ele><time>2026-05-02T14:32:51.297Z</time></trkpt><trkpt lat="32.2705093" lon="-110.6388374"><ele>1222.0</ele><time>2026-05-02T14:32:52.296Z</time></trkpt><trkpt lat="32.2705976" lon="-110.6387597"><ele>1222.0</ele><time>2026-05-02T14:32:53.296Z</time></trkpt><trkpt lat="32.2706886" lon="-110.6386801"><ele>1222.0</ele><time>2026-05-02T14:32:54.296Z</time></trkpt><trkpt lat="32.2707762" lon="-110.6386025"><ele>1222.0</ele><time>2026-05-02T14:32:55.296Z</time></trkpt><trkpt lat="32.270858" lon="-110.6385223"><ele>1222.0</ele><time>2026-05-02T14:32:56.297Z</time></trkpt><trkpt lat="32.270937" lon="-110.6384321"><ele>1222.0</ele><time>2026-05-02T14:32:57.296Z</time></trkpt><trkpt lat="32.271006" lon="-110.6383329"><ele>1222.0</ele><time>2026-05-02T14:32:58.297Z</time></trkpt><trkpt lat="32.2710622" lon="-110.6382408"><ele>1222.0</ele><time>2026-05-02T14:32:59.297Z</time></trkpt><trkpt lat="32.2711153" lon="-110.6381608"><ele>1222.0</ele><time>2026-05-02T14:33:00.296Z</time></trkpt><trkpt lat="32.2711707" lon="-110.6380933"><ele>1222.0</ele><time>2026-05-02T14:33:01.296Z</time></trkpt><trkpt lat="32.2712298" lon="-110.6380422"><ele>1222.0</ele><time>2026-05-02T14:33:02.296Z</time></trkpt><trkpt lat="32.2712973" lon="-110.6380071"><ele>1222.0</ele><time>2026-05-02T14:33:03.297Z</time></trkpt><trkpt lat="32.2713729" lon="-110.6379897"><ele>1222.0</ele><time>2026-05-02T14:33:04.297Z</time></trkpt><trkpt lat="32.2714522" lon="-110.6379863"><ele>1222.0</ele><time>2026-05-02T14:33:05.296Z</time></trkpt><trkpt lat="32.2715355" lon="-110.6379869"><ele>1222.0</ele><time>2026-05-02T14:33:06.296Z</time></trkpt><trkpt lat="32.2716296" lon="-110.6379908"><ele>1224.6</ele><time>2026-05-02T14:33:07.297Z</time></trkpt><trkpt lat="32.2717219" lon="-110.6379944"><ele>1227.2</ele><time>2026-05-02T14:33:08.297Z</time></trkpt><trkpt lat="32.2718196" lon="-110.6380016"><ele>1229.8</ele><time>2026-05-02T14:33:09.297Z</time></trkpt><trkpt lat="32.2719163" lon="-110.6380091"><ele>1232.4</ele><time>2026-05-02T14:33:10.297Z</time></trkpt><trkpt lat="32.2720118" lon="-110.6380133"><ele>1235.0</ele><time>2026-05-02T14:33:11.297Z</time></trkpt><trkpt lat="32.2721012" lon="-110.6380238"><ele>1235.0</ele><time>2026-05-02T14:33:12.296Z</time></trkpt><trkpt lat="32.2721833" lon="-110.6380442"><ele>1235.0</ele><time>2026-05-02T14:33:13.297Z</time></trkpt><trkpt lat="32.2722618" lon="-110.6380763"><ele>1235.0</ele><time>2026-05-02T14:33:14.297Z</time></trkpt><trkpt lat="32.2723421" lon="-110.6381165"><ele>1235.0</ele><time>2026-05-02T14:33:15.297Z</time></trkpt><trkpt lat="32.2724137" lon="-110.6381792"><ele>1235.0</ele><time>2026-05-02T14:33:16.296Z</time></trkpt><trkpt lat="32.2724891" lon="-110.6382424"><ele>1235.0</ele><time>2026-05-02T14:33:17.297Z</time></trkpt><trkpt lat="32.2725722" lon="-110.6383017"><ele>1231.2</ele><time>2026-05-02T14:33:18.297Z</time></trkpt><trkpt lat="32.2726616" lon="-110.6383501"><ele>1227.4</ele><time>2026-05-02T14:33:19.297Z</time></trkpt><trkpt lat="32.2727655" lon="-110.6383865"><ele>1223.6</ele><time>2026-05-02T14:33:20.297Z</time></trkpt><trkpt lat="32.2728723" lon="-110.6384029"><ele>1219.8</ele><time>2026-05-02T14:33:21.296Z</time></trkpt><trkpt lat="32.2729806" lon="-110.6383975"><ele>1216.0</ele><time>2026-05-02T14:33:22.297Z</time></trkpt><trkpt lat="32.2730941" lon="-110.6383753"><ele>1213.0</ele><time>2026-05-02T14:33:23.297Z</time></trkpt><trkpt lat="32.2732129" lon="-110.6383354"><ele>1210.0</ele><time>2026-05-02T14:33:24.297Z</time></trkpt><trkpt lat="32.2733359" lon="-110.6382821"><ele>1207.0</ele><time>2026-05-02T14:33:25.297Z</time></trkpt><trkpt lat="32.2734623" lon="-110.6382244"><ele>1204.0</ele><time>2026-05-02T14:33:26.296Z</time></trkpt><trkpt lat="32.2735937" lon="-110.6381626"><ele>1204.0</ele><time>2026-05-02T14:33:27.296Z</time></trkpt><trkpt lat="32.273727" lon="-110.6380986"><ele>1204.0</ele><time>2026-05-02T14:33:28.297Z</time></trkpt><trkpt lat="32.2738597" lon="-110.6380266"><ele>1204.0</ele><time>2026-05-02T14:33:29.297Z</time></trkpt><trkpt lat="32.273986" lon="-110.6379573"><ele>1204.0</ele><time>2026-05-02T14:33:30.296Z</time></trkpt><trkpt lat="32.2741013" lon="-110.637897"><ele>1204.0</ele><time>2026-05-02T14:33:31.297Z</time></trkpt><trkpt lat="32.2742108" lon="-110.6378462"><ele>1204.0</ele><time>2026-05-02T14:33:32.296Z</time></trkpt><trkpt lat="32.2743138" lon="-110.6377962"><ele>1204.0</ele><time>2026-05-02T14:33:33.297Z</time></trkpt><trkpt lat="32.2743918" lon="-110.6377344"><ele>1204.0</ele><time>2026-05-02T14:33:34.296Z</time></trkpt><trkpt lat="32.2744583" lon="-110.6376713"><ele>1204.0</ele><time>2026-05-02T14:33:35.296Z</time></trkpt><trkpt lat="32.2745193" lon="-110.6376206"><ele>1204.0</ele><time>2026-05-02T14:33:36.297Z</time></trkpt><trkpt lat="32.2745796" lon="-110.6375809"><ele>1204.0</ele><time>2026-05-02T14:33:37.297Z</time></trkpt><trkpt lat="32.2746357" lon="-110.637547"><ele>1204.0</ele><time>2026-05-02T14:33:38.297Z</time></trkpt><trkpt lat="32.2747264" lon="-110.6374943"><ele>1204.0</ele><time>2026-05-02T14:33:40.297Z</time></trkpt><trkpt lat="32.2747865" lon="-110.6374539"><ele>1204.0</ele><time>2026-05-02T14:33:42.297Z</time></trkpt><trkpt lat="32.2746964" lon="-110.6375323"><ele>1204.0</ele><time>2026-05-02T14:33:50.296Z</time></trkpt><trkpt lat="32.2746237" lon="-110.6375659"><ele>1204.0</ele><time>2026-05-02T14:33:51.296Z</time></trkpt><trkpt lat="32.2745432" lon="-110.6376112"><ele>1204.0</ele><time>2026-05-02T14:33:52.297Z</time></trkpt><trkpt lat="32.274465" lon="-110.6376583"><ele>1204.0</ele><time>2026-05-02T14:33:53.297Z</time></trkpt><trkpt lat="32.2743988" lon="-110.637707"><ele>1204.0</ele><time>2026-05-02T14:33:54.296Z</time></trkpt><trkpt lat="32.274336" lon="-110.6377526"><ele>1204.0</ele><time>2026-05-02T14:33:55.296Z</time></trkpt><trkpt lat="32.2742758" lon="-110.6377961"><ele>1204.0</ele><time>2026-05-02T14:33:56.298Z</time></trkpt><trkpt lat="32.2742203" lon="-110.6378317"><ele>1204.0</ele><time>2026-05-02T14:33:57.297Z</time></trkpt><trkpt lat="32.2741214" lon="-110.6378818"><ele>1204.0</ele><time>2026-05-02T14:33:59.297Z</time></trkpt><trkpt lat="32.2740517" lon="-110.6379105"><ele>1204.0</ele><time>2026-05-02T14:34:01.297Z</time></trkpt><trkpt lat="32.273981" lon="-110.6379472"><ele>1204.0</ele><time>2026-05-02T14:34:05.298Z</time></trkpt><trkpt lat="32.273915" lon="-110.6380107"><ele>1204.0</ele><time>2026-05-02T14:35:10.298Z</time></trkpt><trkpt lat="32.2738489" lon="-110.6380462"><ele>1204.0</ele><time>2026-05-02T14:35:12.297Z</time></trkpt><trkpt lat="32.2737782" lon="-110.6380804"><ele>1204.0</ele><time>2026-05-02T14:35:15.297Z</time></trkpt><trkpt lat="32.27372" lon="-110.6381346"><ele>1204.0</ele><time>2026-05-02T14:35:22.297Z</time></trkpt><trkpt lat="32.2737825" lon="-110.6380525"><ele>1204.0</ele><time>2026-05-02T14:35:29.298Z</time></trkpt><trkpt lat="32.2738982" lon="-110.6379969"><ele>1204.0</ele><time>2026-05-02T14:35:31.297Z</time></trkpt><trkpt lat="32.273965" lon="-110.6379595"><ele>1204.0</ele><time>2026-05-02T14:35:32.297Z</time></trkpt><trkpt lat="32.2740405" lon="-110.6379171"><ele>1204.0</ele><time>2026-05-02T14:35:33.298Z</time></trkpt><trkpt lat="32.2741287" lon="-110.6378732"><ele>1204.0</ele><time>2026-05-02T14:35:34.298Z</time></trkpt><trkpt lat="32.2742249" lon="-110.6378214"><ele>1204.0</ele><time>2026-05-02T14:35:35.298Z</time></trkpt><trkpt lat="32.2743217" lon="-110.637756"><ele>1204.0</ele><time>2026-05-02T14:35:36.299Z</time></trkpt><trkpt lat="32.2744119" lon="-110.6376862"><ele>1204.0</ele><time>2026-05-02T14:35:37.299Z</time></trkpt><trkpt lat="32.2744945" lon="-110.6376249"><ele>1204.0</ele><time>2026-05-02T14:35:38.299Z</time></trkpt><trkpt lat="32.2745789" lon="-110.6375713"><ele>1204.0</ele><time>2026-05-02T14:35:39.299Z</time></trkpt><trkpt lat="32.2746629" lon="-110.6375247"><ele>1204.0</ele><time>2026-05-02T14:35:40.298Z</time></trkpt><trkpt lat="32.2747461" lon="-110.6374849"><ele>1204.0</ele><time>2026-05-02T14:35:41.298Z</time></trkpt><trkpt lat="32.2748277" lon="-110.6374553"><ele>1204.0</ele><time>2026-05-02T14:35:42.299Z</time></trkpt><trkpt lat="32.274912" lon="-110.6374388"><ele>1204.0</ele><time>2026-05-02T14:35:43.298Z</time></trkpt><trkpt lat="32.2749986" lon="-110.6374375"><ele>1204.0</ele><time>2026-05-02T14:35:44.298Z</time></trkpt><trkpt lat="32.2750828" lon="-110.6374527"><ele>1204.0</ele><time>2026-05-02T14:35:45.299Z</time></trkpt><trkpt lat="32.2751667" lon="-110.6374776"><ele>1204.0</ele><time>2026-05-02T14:35:46.298Z</time></trkpt><trkpt lat="32.275259" lon="-110.6375013"><ele>1204.0</ele><time>2026-05-02T14:35:47.299Z</time></trkpt><trkpt lat="32.2753606" lon="-110.6375183"><ele>1204.0</ele><time>2026-05-02T14:35:48.299Z</time></trkpt><trkpt lat="32.2754616" lon="-110.6375243"><ele>1204.0</ele><time>2026-05-02T14:35:49.298Z</time></trkpt><trkpt lat="32.2755618" lon="-110.6375157"><ele>1204.0</ele><time>2026-05-02T14:35:50.298Z</time></trkpt><trkpt lat="32.2756592" lon="-110.6374951"><ele>1204.0</ele><time>2026-05-02T14:35:51.299Z</time></trkpt><trkpt lat="32.275752" lon="-110.6374656"><ele>1204.0</ele><time>2026-05-02T14:35:52.298Z</time></trkpt><trkpt lat="32.2758381" lon="-110.6374249"><ele>1204.0</ele><time>2026-05-02T14:35:53.298Z</time></trkpt><trkpt lat="32.2759146" lon="-110.6373693"><ele>1203.8</ele><time>2026-05-02T14:35:54.299Z</time></trkpt><trkpt lat="32.2759766" lon="-110.6372953"><ele>1203.6000000000001</ele><time>2026-05-02T14:35:55.298Z</time></trkpt><trkpt lat="32.2760264" lon="-110.637197"><ele>1203.4</ele><time>2026-05-02T14:35:56.298Z</time></trkpt><trkpt lat="32.2760634" lon="-110.6370791"><ele>1203.2</ele><time>2026-05-02T14:35:57.298Z</time></trkpt><trkpt lat="32.27609" lon="-110.6369441"><ele>1203.0</ele><time>2026-05-02T14:35:58.299Z</time></trkpt><trkpt lat="32.2761145" lon="-110.6368051"><ele>1203.0</ele><time>2026-05-02T14:35:59.299Z</time></trkpt><trkpt lat="32.276137" lon="-110.6366489"><ele>1203.0</ele><time>2026-05-02T14:36:00.299Z</time></trkpt><trkpt lat="32.2761632" lon="-110.6364823"><ele>1203.0</ele><time>2026-05-02T14:36:01.299Z</time></trkpt><trkpt lat="32.2761886" lon="-110.6363128"><ele>1203.0</ele><time>2026-05-02T14:36:02.299Z</time></trkpt><trkpt lat="32.276212" lon="-110.6361413"><ele>1204.75</ele><time>2026-05-02T14:36:03.298Z</time></trkpt><trkpt lat="32.2762364" lon="-110.6359717"><ele>1206.5</ele><time>2026-05-02T14:36:04.298Z</time></trkpt><trkpt lat="32.2762633" lon="-110.6358039"><ele>1208.25</ele><time>2026-05-02T14:36:05.299Z</time></trkpt><trkpt lat="32.2762902" lon="-110.6356371"><ele>1210.0</ele><time>2026-05-02T14:36:06.298Z</time></trkpt><trkpt lat="32.2763148" lon="-110.6354765"><ele>1210.0</ele><time>2026-05-02T14:36:07.298Z</time></trkpt><trkpt lat="32.276339" lon="-110.6353209"><ele>1210.0</ele><time>2026-05-02T14:36:08.298Z</time></trkpt><trkpt lat="32.27637" lon="-110.635168"><ele>1210.0</ele><time>2026-05-02T14:36:09.298Z</time></trkpt><trkpt lat="32.2764091" lon="-110.6350175"><ele>1210.0</ele><time>2026-05-02T14:36:10.299Z</time></trkpt><trkpt lat="32.2764533" lon="-110.6348668"><ele>1208.25</ele><time>2026-05-02T14:36:11.298Z</time></trkpt><trkpt lat="32.2765111" lon="-110.6347241"><ele>1206.5</ele><time>2026-05-02T14:36:12.299Z</time></trkpt><trkpt lat="32.2765689" lon="-110.6345881"><ele>1204.75</ele><time>2026-05-02T14:36:13.298Z</time></trkpt><trkpt lat="32.2766306" lon="-110.6344574"><ele>1203.0</ele><time>2026-05-02T14:36:14.298Z</time></trkpt><trkpt lat="32.2766938" lon="-110.6343276"><ele>1203.0</ele><time>2026-05-02T14:36:15.298Z</time></trkpt><trkpt lat="32.2767588" lon="-110.634199"><ele>1203.0</ele><time>2026-05-02T14:36:16.299Z</time></trkpt><trkpt lat="32.2768205" lon="-110.6340774"><ele>1203.0</ele><time>2026-05-02T14:36:17.299Z</time></trkpt><trkpt lat="32.276881" lon="-110.6339656"><ele>1203.0</ele><time>2026-05-02T14:36:18.299Z</time></trkpt><trkpt lat="32.2769518" lon="-110.6338764"><ele>1203.0</ele><time>2026-05-02T14:36:19.298Z</time></trkpt><trkpt lat="32.2770415" lon="-110.6338046"><ele>1203.0</ele><time>2026-05-02T14:36:20.298Z</time></trkpt><trkpt lat="32.2771406" lon="-110.6337352"><ele>1203.0</ele><time>2026-05-02T14:36:21.299Z</time></trkpt><trkpt lat="32.2772447" lon="-110.6336747"><ele>1203.0</ele><time>2026-05-02T14:36:22.298Z</time></trkpt><trkpt lat="32.2773583" lon="-110.6336225"><ele>1203.0</ele><time>2026-05-02T14:36:23.298Z</time></trkpt><trkpt lat="32.2774812" lon="-110.6335814"><ele>1203.0</ele><time>2026-05-02T14:36:24.298Z</time></trkpt><trkpt lat="32.2776083" lon="-110.6335434"><ele>1203.0</ele><time>2026-05-02T14:36:25.298Z</time></trkpt><trkpt lat="32.2777355" lon="-110.6335034"><ele>1203.0</ele><time>2026-05-02T14:36:26.298Z</time></trkpt><trkpt lat="32.2778637" lon="-110.6334659"><ele>1203.0</ele><time>2026-05-02T14:36:27.299Z</time></trkpt><trkpt lat="32.277993" lon="-110.6334399"><ele>1203.0</ele><time>2026-05-02T14:36:28.299Z</time></trkpt><trkpt lat="32.2781286" lon="-110.6334251"><ele>1203.0</ele><time>2026-05-02T14:36:29.298Z</time></trkpt><trkpt lat="32.2782616" lon="-110.6334159"><ele>1203.0</ele><time>2026-05-02T14:36:30.298Z</time></trkpt><trkpt lat="32.2783877" lon="-110.6334072"><ele>1204.0</ele><time>2026-05-02T14:36:31.298Z</time></trkpt><trkpt lat="32.2785058" lon="-110.6334019"><ele>1205.0</ele><time>2026-05-02T14:36:32.299Z</time></trkpt><trkpt lat="32.2786282" lon="-110.6333998"><ele>1206.0</ele><time>2026-05-02T14:36:33.3Z</time></trkpt><trkpt lat="32.2787555" lon="-110.6333984"><ele>1207.0</ele><time>2026-05-02T14:36:34.298Z</time></trkpt><trkpt lat="32.278884" lon="-110.633404"><ele>1207.0</ele><time>2026-05-02T14:36:35.299Z</time></trkpt><trkpt lat="32.2790088" lon="-110.6334198"><ele>1207.0</ele><time>2026-05-02T14:36:36.298Z</time></trkpt><trkpt lat="32.279131" lon="-110.6334421"><ele>1207.0</ele><time>2026-05-02T14:36:37.299Z</time></trkpt><trkpt lat="32.2792505" lon="-110.6334713"><ele>1207.0</ele><time>2026-05-02T14:36:38.299Z</time></trkpt><trkpt lat="32.2793737" lon="-110.6335102"><ele>1207.0</ele><time>2026-05-02T14:36:39.298Z</time></trkpt><trkpt lat="32.2795014" lon="-110.6335522"><ele>1207.0</ele><time>2026-05-02T14:36:40.299Z</time></trkpt><trkpt lat="32.2796304" lon="-110.633592"><ele>1207.0</ele><time>2026-05-02T14:36:41.298Z</time></trkpt><trkpt lat="32.2797576" lon="-110.6336308"><ele>1207.0</ele><time>2026-05-02T14:36:42.298Z</time></trkpt><trkpt lat="32.2798849" lon="-110.6336733"><ele>1206.5</ele><time>2026-05-02T14:36:43.298Z</time></trkpt><trkpt lat="32.2800093" lon="-110.6337147"><ele>1206.0</ele><time>2026-05-02T14:36:44.299Z</time></trkpt><trkpt lat="32.2801275" lon="-110.633754"><ele>1205.5</ele><time>2026-05-02T14:36:45.298Z</time></trkpt><trkpt lat="32.2802411" lon="-110.6337927"><ele>1205.0</ele><time>2026-05-02T14:36:46.299Z</time></trkpt><trkpt lat="32.2803493" lon="-110.6338284"><ele>1205.0</ele><time>2026-05-02T14:36:47.3Z</time></trkpt><trkpt lat="32.2804586" lon="-110.633857"><ele>1205.0</ele><time>2026-05-02T14:36:48.298Z</time></trkpt><trkpt lat="32.2805681" lon="-110.63388"><ele>1205.0</ele><time>2026-05-02T14:36:49.299Z</time></trkpt><trkpt lat="32.2806765" lon="-110.6338841"><ele>1205.0</ele><time>2026-05-02T14:36:50.298Z</time></trkpt><trkpt lat="32.2807819" lon="-110.6338697"><ele>1205.0</ele><time>2026-05-02T14:36:51.299Z</time></trkpt><trkpt lat="32.2808836" lon="-110.6338361"><ele>1204.25</ele><time>2026-05-02T14:36:52.3Z</time></trkpt><trkpt lat="32.2809875" lon="-110.6337837"><ele>1203.5</ele><time>2026-05-02T14:36:53.299Z</time></trkpt><trkpt lat="32.281098" lon="-110.6337201"><ele>1202.75</ele><time>2026-05-02T14:36:54.3Z</time></trkpt><trkpt lat="32.2812161" lon="-110.6336459"><ele>1202.0</ele><time>2026-05-02T14:36:55.299Z</time></trkpt><trkpt lat="32.2813403" lon="-110.633561"><ele>1201.75</ele><time>2026-05-02T14:36:56.299Z</time></trkpt><trkpt lat="32.2814615" lon="-110.6334874"><ele>1201.5</ele><time>2026-05-02T14:36:57.299Z</time></trkpt><trkpt lat="32.2815789" lon="-110.6334155"><ele>1201.25</ele><time>2026-05-02T14:36:58.299Z</time></trkpt><trkpt lat="32.2816873" lon="-110.6333487"><ele>1201.0</ele><time>2026-05-02T14:36:59.299Z</time></trkpt><trkpt lat="32.2817901" lon="-110.6332818"><ele>1201.0</ele><time>2026-05-02T14:37:00.299Z</time></trkpt><trkpt lat="32.2818915" lon="-110.6332147"><ele>1201.0</ele><time>2026-05-02T14:37:01.3Z</time></trkpt><trkpt lat="32.2819934" lon="-110.6331482"><ele>1201.0</ele><time>2026-05-02T14:37:02.301Z</time></trkpt><trkpt lat="32.2820934" lon="-110.6330833"><ele>1201.0</ele><time>2026-05-02T14:37:03.299Z</time></trkpt><trkpt lat="32.2821951" lon="-110.6330241"><ele>1201.75</ele><time>2026-05-02T14:37:04.299Z</time></trkpt><trkpt lat="32.2823051" lon="-110.6329734"><ele>1202.5</ele><time>2026-05-02T14:37:05.299Z</time></trkpt><trkpt lat="32.2824277" lon="-110.632929"><ele>1203.25</ele><time>2026-05-02T14:37:06.3Z</time></trkpt><trkpt lat="32.2825577" lon="-110.6328907"><ele>1204.0</ele><time>2026-05-02T14:37:07.3Z</time></trkpt><trkpt lat="32.2826929" lon="-110.6328596"><ele>1204.0</ele><time>2026-05-02T14:37:08.299Z</time></trkpt><trkpt lat="32.2828376" lon="-110.6328284"><ele>1204.0</ele><time>2026-05-02T14:37:09.3Z</time></trkpt><trkpt lat="32.2829857" lon="-110.6327938"><ele>1204.0</ele><time>2026-05-02T14:37:10.3Z</time></trkpt><trkpt lat="32.283134" lon="-110.6327578"><ele>1204.0</ele><time>2026-05-02T14:37:11.299Z</time></trkpt><trkpt lat="32.2832792" lon="-110.6327271"><ele>1203.75</ele><time>2026-05-02T14:37:12.299Z</time></trkpt><trkpt lat="32.2834238" lon="-110.6327051"><ele>1203.5</ele><time>2026-05-02T14:37:13.3Z</time></trkpt><trkpt lat="32.2835684" lon="-110.6326885"><ele>1203.25</ele><time>2026-05-02T14:37:14.3Z</time></trkpt><trkpt lat="32.2837107" lon="-110.6326823"><ele>1203.0</ele><time>2026-05-02T14:37:15.3Z</time></trkpt><trkpt lat="32.2838511" lon="-110.6326909"><ele>1203.5</ele><time>2026-05-02T14:37:16.299Z</time></trkpt><trkpt lat="32.2839902" lon="-110.6327171"><ele>1204.0</ele><time>2026-05-02T14:37:17.299Z</time></trkpt><trkpt lat="32.2841297" lon="-110.6327553"><ele>1204.5</ele><time>2026-05-02T14:37:18.299Z</time></trkpt><trkpt lat="32.2842704" lon="-110.6327964"><ele>1205.0</ele><time>2026-05-02T14:37:19.3Z</time></trkpt><trkpt lat="32.2844136" lon="-110.6328396"><ele>1205.6666666666667</ele><time>2026-05-02T14:37:20.299Z</time></trkpt><trkpt lat="32.2845576" lon="-110.6328855"><ele>1206.3333333333333</ele><time>2026-05-02T14:37:21.299Z</time></trkpt><trkpt lat="32.2847023" lon="-110.6329329"><ele>1207.0</ele><time>2026-05-02T14:37:22.3Z</time></trkpt><trkpt lat="32.2848481" lon="-110.6329769"><ele>1207.75</ele><time>2026-05-02T14:37:23.299Z</time></trkpt><trkpt lat="32.2849908" lon="-110.6330139"><ele>1208.5</ele><time>2026-05-02T14:37:24.299Z</time></trkpt><trkpt lat="32.2851317" lon="-110.6330463"><ele>1209.25</ele><time>2026-05-02T14:37:25.3Z</time></trkpt><trkpt lat="32.2852688" lon="-110.6330706"><ele>1210.0</ele><time>2026-05-02T14:37:26.299Z</time></trkpt><trkpt lat="32.2854027" lon="-110.6330788"><ele>1210.0</ele><time>2026-05-02T14:37:27.299Z</time></trkpt><trkpt lat="32.2855331" lon="-110.6330695"><ele>1210.0</ele><time>2026-05-02T14:37:28.3Z</time></trkpt><trkpt lat="32.2856586" lon="-110.6330394"><ele>1210.0</ele><time>2026-05-02T14:37:29.299Z</time></trkpt><trkpt lat="32.2857783" lon="-110.6329894"><ele>1210.0</ele><time>2026-05-02T14:37:30.3Z</time></trkpt><trkpt lat="32.2859012" lon="-110.632923"><ele>1210.5</ele><time>2026-05-02T14:37:31.299Z</time></trkpt><trkpt lat="32.2860301" lon="-110.6328475"><ele>1211.0</ele><time>2026-05-02T14:37:32.299Z</time></trkpt><trkpt lat="32.286161" lon="-110.6327681"><ele>1211.5</ele><time>2026-05-02T14:37:33.299Z</time></trkpt><trkpt lat="32.2862916" lon="-110.6326875"><ele>1212.0</ele><time>2026-05-02T14:37:34.3Z</time></trkpt><trkpt lat="32.2864229" lon="-110.6326042"><ele>1213.0</ele><time>2026-05-02T14:37:35.299Z</time></trkpt><trkpt lat="32.2865569" lon="-110.6325192"><ele>1214.0</ele><time>2026-05-02T14:37:36.3Z</time></trkpt><trkpt lat="32.2866922" lon="-110.6324345"><ele>1215.0</ele><time>2026-05-02T14:37:37.3Z</time></trkpt><trkpt lat="32.2868281" lon="-110.6323528"><ele>1215.0</ele><time>2026-05-02T14:37:38.299Z</time></trkpt><trkpt lat="32.286962" lon="-110.6322727"><ele>1215.0</ele><time>2026-05-02T14:37:39.3Z</time></trkpt><trkpt lat="32.2870935" lon="-110.6321918"><ele>1215.0</ele><time>2026-05-02T14:37:40.299Z</time></trkpt><trkpt lat="32.2872225" lon="-110.6321115"><ele>1215.0</ele><time>2026-05-02T14:37:41.299Z</time></trkpt><trkpt lat="32.2873494" lon="-110.632032"><ele>1216.25</ele><time>2026-05-02T14:37:42.299Z</time></trkpt><trkpt lat="32.2874772" lon="-110.6319518"><ele>1217.5</ele><time>2026-05-02T14:37:43.299Z</time></trkpt><trkpt lat="32.287605" lon="-110.6318741"><ele>1218.75</ele><time>2026-05-02T14:37:44.299Z</time></trkpt><trkpt lat="32.2877333" lon="-110.6317978"><ele>1220.0</ele><time>2026-05-02T14:37:45.299Z</time></trkpt><trkpt lat="32.2878624" lon="-110.6317203"><ele>1220.0</ele><time>2026-05-02T14:37:46.299Z</time></trkpt><trkpt lat="32.2879947" lon="-110.6316403"><ele>1220.0</ele><time>2026-05-02T14:37:47.3Z</time></trkpt><trkpt lat="32.2881307" lon="-110.6315608"><ele>1220.0</ele><time>2026-05-02T14:37:48.299Z</time></trkpt><trkpt lat="32.2882658" lon="-110.631486"><ele>1220.0</ele><time>2026-05-02T14:37:49.3Z</time></trkpt><trkpt lat="32.2884006" lon="-110.6314167"><ele>1220.5</ele><time>2026-05-02T14:37:50.299Z</time></trkpt><trkpt lat="32.2885356" lon="-110.6313522"><ele>1221.0</ele><time>2026-05-02T14:37:51.299Z</time></trkpt><trkpt lat="32.288673" lon="-110.6312879"><ele>1221.5</ele><time>2026-05-02T14:37:52.3Z</time></trkpt><trkpt lat="32.2888123" lon="-110.6312229"><ele>1222.0</ele><time>2026-05-02T14:37:53.299Z</time></trkpt><trkpt lat="32.2889508" lon="-110.6311553"><ele>1222.6666666666665</ele><time>2026-05-02T14:37:54.299Z</time></trkpt><trkpt lat="32.2890889" lon="-110.6310845"><ele>1223.3333333333333</ele><time>2026-05-02T14:37:55.299Z</time></trkpt><trkpt lat="32.2892287" lon="-110.6310129"><ele>1224.0</ele><time>2026-05-02T14:37:56.3Z</time></trkpt><trkpt lat="32.2893714" lon="-110.6309419"><ele>1224.0</ele><time>2026-05-02T14:37:57.3Z</time></trkpt><trkpt lat="32.2895154" lon="-110.6308706"><ele>1224.0</ele><time>2026-05-02T14:37:58.3Z</time></trkpt><trkpt lat="32.2896596" lon="-110.630799"><ele>1224.0</ele><time>2026-05-02T14:37:59.299Z</time></trkpt><trkpt lat="32.2898041" lon="-110.6307284"><ele>1225.0</ele><time>2026-05-02T14:38:00.3Z</time></trkpt><trkpt lat="32.2899484" lon="-110.6306598"><ele>1226.0</ele><time>2026-05-02T14:38:01.3Z</time></trkpt><trkpt lat="32.2900922" lon="-110.6305904"><ele>1227.0</ele><time>2026-05-02T14:38:02.3Z</time></trkpt><trkpt lat="32.2902341" lon="-110.6305215"><ele>1227.0</ele><time>2026-05-02T14:38:03.299Z</time></trkpt><trkpt lat="32.2903741" lon="-110.6304529"><ele>1227.0</ele><time>2026-05-02T14:38:04.3Z</time></trkpt><trkpt lat="32.290512" lon="-110.6303846"><ele>1227.0</ele><time>2026-05-02T14:38:05.3Z</time></trkpt><trkpt lat="32.2906443" lon="-110.6303166"><ele>1227.0</ele><time>2026-05-02T14:38:06.301Z</time></trkpt><trkpt lat="32.290766" lon="-110.6302541"><ele>1227.6</ele><time>2026-05-02T14:38:07.301Z</time></trkpt><trkpt lat="32.2908796" lon="-110.6301954"><ele>1228.2</ele><time>2026-05-02T14:38:08.3Z</time></trkpt><trkpt lat="32.2909851" lon="-110.6301404"><ele>1228.8</ele><time>2026-05-02T14:38:09.3Z</time></trkpt><trkpt lat="32.2910685" lon="-110.630089"><ele>1229.4</ele><time>2026-05-02T14:38:10.299Z</time></trkpt><trkpt lat="32.2911394" lon="-110.630034"><ele>1230.0</ele><time>2026-05-02T14:38:11.3Z</time></trkpt><trkpt lat="32.2912012" lon="-110.6299563"><ele>1230.0</ele><time>2026-05-02T14:38:12.301Z</time></trkpt><trkpt lat="32.2912557" lon="-110.6298386"><ele>1230.0</ele><time>2026-05-02T14:38:13.3Z</time></trkpt><trkpt lat="32.2913092" lon="-110.629701"><ele>1230.0</ele><time>2026-05-02T14:38:14.301Z</time></trkpt><trkpt lat="32.2913638" lon="-110.6295621"><ele>1230.0</ele><time>2026-05-02T14:38:15.299Z</time></trkpt><trkpt lat="32.2914147" lon="-110.6294176"><ele>1229.75</ele><time>2026-05-02T14:38:16.299Z</time></trkpt><trkpt lat="32.2914561" lon="-110.6292671"><ele>1229.5</ele><time>2026-05-02T14:38:17.299Z</time></trkpt><trkpt lat="32.291483" lon="-110.629107"><ele>1229.25</ele><time>2026-05-02T14:38:18.299Z</time></trkpt><trkpt lat="32.2915013" lon="-110.6289439"><ele>1229.0</ele><time>2026-05-02T14:38:19.3Z</time></trkpt><trkpt lat="32.2915133" lon="-110.6287878"><ele>1230.0</ele><time>2026-05-02T14:38:20.299Z</time></trkpt><trkpt lat="32.2915307" lon="-110.6286366"><ele>1231.0</ele><time>2026-05-02T14:38:21.3Z</time></trkpt><trkpt lat="32.2915529" lon="-110.6284935"><ele>1232.0</ele><time>2026-05-02T14:38:22.299Z</time></trkpt><trkpt lat="32.2915791" lon="-110.6283572"><ele>1233.0</ele><time>2026-05-02T14:38:23.3Z</time></trkpt><trkpt lat="32.2916085" lon="-110.6282276"><ele>1233.0</ele><time>2026-05-02T14:38:24.299Z</time></trkpt><trkpt lat="32.2916386" lon="-110.6281084"><ele>1233.0</ele><time>2026-05-02T14:38:25.299Z</time></trkpt><trkpt lat="32.2916786" lon="-110.6280053"><ele>1233.0</ele><time>2026-05-02T14:38:26.3Z</time></trkpt><trkpt lat="32.2917274" lon="-110.6279051"><ele>1233.0</ele><time>2026-05-02T14:38:27.3Z</time></trkpt><trkpt lat="32.291788" lon="-110.6277949"><ele>1233.0</ele><time>2026-05-02T14:38:28.299Z</time></trkpt><trkpt lat="32.2918563" lon="-110.6276671"><ele>1232.0</ele><time>2026-05-02T14:38:29.299Z</time></trkpt><trkpt lat="32.2919311" lon="-110.6275272"><ele>1231.0</ele><time>2026-05-02T14:38:30.299Z</time></trkpt><trkpt lat="32.2920018" lon="-110.6273823"><ele>1230.0</ele><time>2026-05-02T14:38:31.299Z</time></trkpt><trkpt lat="32.292069" lon="-110.627232"><ele>1229.0</ele><time>2026-05-02T14:38:32.299Z</time></trkpt><trkpt lat="32.2921296" lon="-110.627081"><ele>1229.5</ele><time>2026-05-02T14:38:33.3Z</time></trkpt><trkpt lat="32.2921931" lon="-110.626942"><ele>1230.0</ele><time>2026-05-02T14:38:34.299Z</time></trkpt><trkpt lat="32.2922599" lon="-110.626803"><ele>1230.5</ele><time>2026-05-02T14:38:35.3Z</time></trkpt><trkpt lat="32.2923213" lon="-110.6266588"><ele>1231.0</ele><time>2026-05-02T14:38:36.301Z</time></trkpt><trkpt lat="32.2923697" lon="-110.6264951"><ele>1231.0</ele><time>2026-05-02T14:38:37.301Z</time></trkpt><trkpt lat="32.2923995" lon="-110.6263186"><ele>1231.0</ele><time>2026-05-02T14:38:38.301Z</time></trkpt><trkpt lat="32.2924298" lon="-110.6261456"><ele>1231.0</ele><time>2026-05-02T14:38:39.3Z</time></trkpt><trkpt lat="32.2924647" lon="-110.6259854"><ele>1231.0</ele><time>2026-05-02T14:38:40.3Z</time></trkpt><trkpt lat="32.292503" lon="-110.6258416"><ele>1231.0</ele><time>2026-05-02T14:38:41.3Z</time></trkpt><trkpt lat="32.2925468" lon="-110.6257071"><ele>1231.0</ele><time>2026-05-02T14:38:42.301Z</time></trkpt><trkpt lat="32.2925965" lon="-110.625581"><ele>1231.0</ele><time>2026-05-02T14:38:43.3Z</time></trkpt><trkpt lat="32.2926395" lon="-110.6254581"><ele>1231.0</ele><time>2026-05-02T14:38:44.301Z</time></trkpt><trkpt lat="32.2926739" lon="-110.6253336"><ele>1230.8</ele><time>2026-05-02T14:38:45.3Z</time></trkpt><trkpt lat="32.2926934" lon="-110.625206"><ele>1230.6</ele><time>2026-05-02T14:38:46.3Z</time></trkpt><trkpt lat="32.2927171" lon="-110.6250946"><ele>1230.4</ele><time>2026-05-02T14:38:47.3Z</time></trkpt><trkpt lat="32.2927555" lon="-110.6249992"><ele>1230.2</ele><time>2026-05-02T14:38:48.3Z</time></trkpt><trkpt lat="32.2928032" lon="-110.6249063"><ele>1230.0</ele><time>2026-05-02T14:38:49.3Z</time></trkpt><trkpt lat="32.2928699" lon="-110.624817"><ele>1230.0</ele><time>2026-05-02T14:38:50.301Z</time></trkpt><trkpt lat="32.2929449" lon="-110.6247214"><ele>1230.0</ele><time>2026-05-02T14:38:51.3Z</time></trkpt><trkpt lat="32.2930217" lon="-110.6246154"><ele>1230.0</ele><time>2026-05-02T14:38:52.301Z</time></trkpt><trkpt lat="32.2930957" lon="-110.6245027"><ele>1230.0</ele><time>2026-05-02T14:38:53.301Z</time></trkpt><trkpt lat="32.2931599" lon="-110.6243877"><ele>1232.8</ele><time>2026-05-02T14:38:54.301Z</time></trkpt><trkpt lat="32.2932109" lon="-110.6242726"><ele>1235.6</ele><time>2026-05-02T14:38:55.301Z</time></trkpt><trkpt lat="32.2932498" lon="-110.6241676"><ele>1238.4</ele><time>2026-05-02T14:38:56.3Z</time></trkpt><trkpt lat="32.2932898" lon="-110.6240704"><ele>1241.2</ele><time>2026-05-02T14:38:57.3Z</time></trkpt><trkpt lat="32.2933421" lon="-110.6239665"><ele>1244.0</ele><time>2026-05-02T14:38:58.3Z</time></trkpt><trkpt lat="32.2934061" lon="-110.6238484"><ele>1244.0</ele><time>2026-05-02T14:38:59.3Z</time></trkpt><trkpt lat="32.2934768" lon="-110.6237242"><ele>1244.0</ele><time>2026-05-02T14:39:00.3Z</time></trkpt><trkpt lat="32.293549" lon="-110.6236043"><ele>1244.0</ele><time>2026-05-02T14:39:01.301Z</time></trkpt><trkpt lat="32.2936242" lon="-110.6235022"><ele>1244.0</ele><time>2026-05-02T14:39:02.301Z</time></trkpt><trkpt lat="32.2937115" lon="-110.6234099"><ele>1243.25</ele><time>2026-05-02T14:39:03.3Z</time></trkpt><trkpt lat="32.2938136" lon="-110.6233205"><ele>1242.5</ele><time>2026-05-02T14:39:04.3Z</time></trkpt><trkpt lat="32.2939244" lon="-110.6232283"><ele>1241.75</ele><time>2026-05-02T14:39:05.3Z</time></trkpt><trkpt lat="32.2940419" lon="-110.623125"><ele>1241.0</ele><time>2026-05-02T14:39:06.3Z</time></trkpt><trkpt lat="32.294164" lon="-110.6230162"><ele>1241.0</ele><time>2026-05-02T14:39:07.3Z</time></trkpt><trkpt lat="32.2942879" lon="-110.6229146"><ele>1241.0</ele><time>2026-05-02T14:39:08.301Z</time></trkpt><trkpt lat="32.2944119" lon="-110.6228274"><ele>1241.0</ele><time>2026-05-02T14:39:09.301Z</time></trkpt><trkpt lat="32.2945318" lon="-110.6227544"><ele>1241.0</ele><time>2026-05-02T14:39:10.3Z</time></trkpt><trkpt lat="32.2946442" lon="-110.6226917"><ele>1240.0</ele><time>2026-05-02T14:39:11.3Z</time></trkpt><trkpt lat="32.2947466" lon="-110.6226306"><ele>1239.0</ele><time>2026-05-02T14:39:12.301Z</time></trkpt><trkpt lat="32.2948338" lon="-110.6225806"><ele>1238.0</ele><time>2026-05-02T14:39:13.301Z</time></trkpt><trkpt lat="32.2949106" lon="-110.6225415"><ele>1237.0</ele><time>2026-05-02T14:39:14.301Z</time></trkpt><trkpt lat="32.2949845" lon="-110.6224968"><ele>1236.0</ele><time>2026-05-02T14:39:15.3Z</time></trkpt><trkpt lat="32.2950571" lon="-110.6224275"><ele>1236.0</ele><time>2026-05-02T14:39:16.3Z</time></trkpt><trkpt lat="32.2951259" lon="-110.6223403"><ele>1236.0</ele><time>2026-05-02T14:39:17.3Z</time></trkpt><trkpt lat="32.2951812" lon="-110.6222231"><ele>1236.0</ele><time>2026-05-02T14:39:18.3Z</time></trkpt><trkpt lat="32.2952307" lon="-110.6221035"><ele>1236.0</ele><time>2026-05-02T14:39:19.3Z</time></trkpt><trkpt lat="32.2952848" lon="-110.6219995"><ele>1236.0</ele><time>2026-05-02T14:39:20.3Z</time></trkpt><trkpt lat="32.2953466" lon="-110.6219167"><ele>1236.3333333333333</ele><time>2026-05-02T14:39:21.301Z</time></trkpt><trkpt lat="32.2954158" lon="-110.6218521"><ele>1236.6666666666667</ele><time>2026-05-02T14:39:22.3Z</time></trkpt><trkpt lat="32.2954855" lon="-110.6218026"><ele>1237.0</ele><time>2026-05-02T14:39:23.301Z</time></trkpt><trkpt lat="32.2955598" lon="-110.6217776"><ele>1237.3333333333335</ele><time>2026-05-02T14:39:24.3Z</time></trkpt><trkpt lat="32.2956424" lon="-110.6217709"><ele>1237.6666666666667</ele><time>2026-05-02T14:39:25.301Z</time></trkpt><trkpt lat="32.2957376" lon="-110.6217795"><ele>1238.0</ele><time>2026-05-02T14:39:26.301Z</time></trkpt><trkpt lat="32.295843" lon="-110.6217924"><ele>1238.0</ele><time>2026-05-02T14:39:27.3Z</time></trkpt><trkpt lat="32.2959561" lon="-110.6217984"><ele>1238.0</ele><time>2026-05-02T14:39:28.3Z</time></trkpt><trkpt lat="32.2960742" lon="-110.6217914"><ele>1238.0</ele><time>2026-05-02T14:39:29.3Z</time></trkpt><trkpt lat="32.2961882" lon="-110.6217743"><ele>1238.0</ele><time>2026-05-02T14:39:30.3Z</time></trkpt><trkpt lat="32.2962934" lon="-110.6217591"><ele>1238.0</ele><time>2026-05-02T14:39:31.301Z</time></trkpt><trkpt lat="32.2963928" lon="-110.6217534"><ele>1238.0</ele><time>2026-05-02T14:39:32.3Z</time></trkpt><trkpt lat="32.2964963" lon="-110.6217576"><ele>1238.0</ele><time>2026-05-02T14:39:33.3Z</time></trkpt><trkpt lat="32.2966076" lon="-110.6217677"><ele>1238.0</ele><time>2026-05-02T14:39:34.3Z</time></trkpt><trkpt lat="32.2967331" lon="-110.621786"><ele>1238.0</ele><time>2026-05-02T14:39:35.302Z</time></trkpt><trkpt lat="32.296864" lon="-110.6218057"><ele>1239.25</ele><time>2026-05-02T14:39:36.301Z</time></trkpt><trkpt lat="32.2969924" lon="-110.6218231"><ele>1240.5</ele><time>2026-05-02T14:39:37.3Z</time></trkpt><trkpt lat="32.2971138" lon="-110.6218373"><ele>1241.75</ele><time>2026-05-02T14:39:38.301Z</time></trkpt><trkpt lat="32.2972211" lon="-110.6218398"><ele>1243.0</ele><time>2026-05-02T14:39:39.301Z</time></trkpt><trkpt lat="32.2973186" lon="-110.6218281"><ele>1244.0</ele><time>2026-05-02T14:39:40.302Z</time></trkpt><trkpt lat="32.2974145" lon="-110.6218053"><ele>1245.0</ele><time>2026-05-02T14:39:41.3Z</time></trkpt><trkpt lat="32.2975109" lon="-110.6217613"><ele>1246.0</ele><time>2026-05-02T14:39:42.301Z</time></trkpt><trkpt lat="32.297594" lon="-110.6217088"><ele>1247.0</ele><time>2026-05-02T14:39:43.301Z</time></trkpt><trkpt lat="32.2976676" lon="-110.6216655"><ele>1248.0</ele><time>2026-05-02T14:39:44.302Z</time></trkpt><trkpt lat="32.2977431" lon="-110.6216419"><ele>1248.0</ele><time>2026-05-02T14:39:45.301Z</time></trkpt><trkpt lat="32.2978152" lon="-110.6216517"><ele>1248.0</ele><time>2026-05-02T14:39:46.301Z</time></trkpt><trkpt lat="32.2978836" lon="-110.6216844"><ele>1248.0</ele><time>2026-05-02T14:39:47.301Z</time></trkpt><trkpt lat="32.2979557" lon="-110.6217377"><ele>1248.0</ele><time>2026-05-02T14:39:48.301Z</time></trkpt><trkpt lat="32.2980431" lon="-110.6218005"><ele>1248.0</ele><time>2026-05-02T14:39:49.302Z</time></trkpt><trkpt lat="32.2981485" lon="-110.6218639"><ele>1249.5</ele><time>2026-05-02T14:39:50.301Z</time></trkpt><trkpt lat="32.2982605" lon="-110.6219244"><ele>1251.0</ele><time>2026-05-02T14:39:51.301Z</time></trkpt><trkpt lat="32.2983777" lon="-110.6219785"><ele>1252.5</ele><time>2026-05-02T14:39:52.3Z</time></trkpt><trkpt lat="32.2984947" lon="-110.6220199"><ele>1254.0</ele><time>2026-05-02T14:39:53.301Z</time></trkpt><trkpt lat="32.2986153" lon="-110.6220569"><ele>1255.0</ele><time>2026-05-02T14:39:54.3Z</time></trkpt><trkpt lat="32.2987464" lon="-110.6220869"><ele>1256.0</ele><time>2026-05-02T14:39:55.3Z</time></trkpt><trkpt lat="32.2988758" lon="-110.6221238"><ele>1257.0</ele><time>2026-05-02T14:39:56.301Z</time></trkpt><trkpt lat="32.2990052" lon="-110.6221568"><ele>1258.0</ele><time>2026-05-02T14:39:57.3Z</time></trkpt><trkpt lat="32.2991334" lon="-110.6221711"><ele>1259.2</ele><time>2026-05-02T14:39:58.3Z</time></trkpt><trkpt lat="32.2992516" lon="-110.6221732"><ele>1260.4</ele><time>2026-05-02T14:39:59.301Z</time></trkpt><trkpt lat="32.2993538" lon="-110.6221777"><ele>1261.6000000000001</ele><time>2026-05-02T14:40:00.3Z</time></trkpt><trkpt lat="32.2994505" lon="-110.6221828"><ele>1262.8</ele><time>2026-05-02T14:40:01.302Z</time></trkpt><trkpt lat="32.2995296" lon="-110.6221725"><ele>1264.0</ele><time>2026-05-02T14:40:02.302Z</time></trkpt><trkpt lat="32.2996076" lon="-110.622141"><ele>1264.0</ele><time>2026-05-02T14:40:03.302Z</time></trkpt><trkpt lat="32.2996904" lon="-110.6221024"><ele>1264.0</ele><time>2026-05-02T14:40:04.301Z</time></trkpt><trkpt lat="32.2997922" lon="-110.6220129"><ele>1264.0</ele><time>2026-05-02T14:40:05.301Z</time></trkpt><trkpt lat="32.299901" lon="-110.6219148"><ele>1264.0</ele><time>2026-05-02T14:40:06.302Z</time></trkpt><trkpt lat="32.3000148" lon="-110.6218204"><ele>1266.25</ele><time>2026-05-02T14:40:07.301Z</time></trkpt><trkpt lat="32.300127" lon="-110.6217425"><ele>1268.5</ele><time>2026-05-02T14:40:08.302Z</time></trkpt><trkpt lat="32.3002366" lon="-110.6216685"><ele>1270.75</ele><time>2026-05-02T14:40:09.301Z</time></trkpt><trkpt lat="32.3003356" lon="-110.6215823"><ele>1273.0</ele><time>2026-05-02T14:40:10.301Z</time></trkpt><trkpt lat="32.3004312" lon="-110.6214869"><ele>1273.0</ele><time>2026-05-02T14:40:11.301Z</time></trkpt><trkpt lat="32.3005151" lon="-110.6213823"><ele>1273.0</ele><time>2026-05-02T14:40:12.302Z</time></trkpt><trkpt lat="32.300601" lon="-110.6212833"><ele>1273.0</ele><time>2026-05-02T14:40:13.302Z</time></trkpt><trkpt lat="32.3006792" lon="-110.6211997"><ele>1273.0</ele><time>2026-05-02T14:40:14.301Z</time></trkpt><trkpt lat="32.3007476" lon="-110.621123"><ele>1273.0</ele><time>2026-05-02T14:40:15.301Z</time></trkpt><trkpt lat="32.3008101" lon="-110.6210464"><ele>1274.6666666666665</ele><time>2026-05-02T14:40:16.301Z</time></trkpt><trkpt lat="32.3008653" lon="-110.6209772"><ele>1276.3333333333333</ele><time>2026-05-02T14:40:17.301Z</time></trkpt><trkpt lat="32.3009132" lon="-110.6209114"><ele>1278.0</ele><time>2026-05-02T14:40:18.301Z</time></trkpt><trkpt lat="32.3009575" lon="-110.6208433"><ele>1279.6666666666667</ele><time>2026-05-02T14:40:19.302Z</time></trkpt><trkpt lat="32.3010029" lon="-110.6207609"><ele>1281.3333333333335</ele><time>2026-05-02T14:40:20.302Z</time></trkpt><trkpt lat="32.3010483" lon="-110.6206609"><ele>1283.0</ele><time>2026-05-02T14:40:21.301Z</time></trkpt><trkpt lat="32.3010917" lon="-110.6205511"><ele>1283.0</ele><time>2026-05-02T14:40:22.301Z</time></trkpt><trkpt lat="32.3011319" lon="-110.6204268"><ele>1283.0</ele><time>2026-05-02T14:40:23.301Z</time></trkpt><trkpt lat="32.301171" lon="-110.6202916"><ele>1283.0</ele><time>2026-05-02T14:40:24.302Z</time></trkpt><trkpt lat="32.3012075" lon="-110.6201662"><ele>1283.0</ele><time>2026-05-02T14:40:25.302Z</time></trkpt><trkpt lat="32.301245" lon="-110.6200557"><ele>1283.0</ele><time>2026-05-02T14:40:26.302Z</time></trkpt><trkpt lat="32.3012835" lon="-110.6199513"><ele>1284.0</ele><time>2026-05-02T14:40:27.302Z</time></trkpt><trkpt lat="32.3013377" lon="-110.6198773"><ele>1285.0</ele><time>2026-05-02T14:40:28.301Z</time></trkpt><trkpt lat="32.3014094" lon="-110.6198216"><ele>1286.0</ele><time>2026-05-02T14:40:29.302Z</time></trkpt><trkpt lat="32.3015003" lon="-110.6197772"><ele>1287.0</ele><time>2026-05-02T14:40:30.302Z</time></trkpt><trkpt lat="32.3016092" lon="-110.6197451"><ele>1288.0</ele><time>2026-05-02T14:40:31.302Z</time></trkpt><trkpt lat="32.3017437" lon="-110.6197201"><ele>1288.0</ele><time>2026-05-02T14:40:32.302Z</time></trkpt><trkpt lat="32.3018882" lon="-110.619697"><ele>1288.0</ele><time>2026-05-02T14:40:33.301Z</time></trkpt><trkpt lat="32.3020265" lon="-110.6196728"><ele>1288.0</ele><time>2026-05-02T14:40:34.302Z</time></trkpt><trkpt lat="32.3021603" lon="-110.6196501"><ele>1288.0</ele><time>2026-05-02T14:40:35.302Z</time></trkpt><trkpt lat="32.3022723" lon="-110.6196235"><ele>1287.8000000000002</ele><time>2026-05-02T14:40:36.302Z</time></trkpt><trkpt lat="32.302374" lon="-110.6195946"><ele>1287.6</ele><time>2026-05-02T14:40:37.301Z</time></trkpt><trkpt lat="32.3024536" lon="-110.6195523"><ele>1287.4</ele><time>2026-05-02T14:40:38.301Z</time></trkpt><trkpt lat="32.3025282" lon="-110.6194923"><ele>1287.1999999999998</ele><time>2026-05-02T14:40:39.302Z</time></trkpt><trkpt lat="32.3026127" lon="-110.6193951"><ele>1287.0</ele><time>2026-05-02T14:40:40.302Z</time></trkpt><trkpt lat="32.3027025" lon="-110.6192888"><ele>1287.0</ele><time>2026-05-02T14:40:41.301Z</time></trkpt><trkpt lat="32.3027954" lon="-110.6191805"><ele>1287.0</ele><time>2026-05-02T14:40:42.301Z</time></trkpt><trkpt lat="32.3028856" lon="-110.6190758"><ele>1287.0</ele><time>2026-05-02T14:40:43.301Z</time></trkpt><trkpt lat="32.3029697" lon="-110.6189799"><ele>1287.0</ele><time>2026-05-02T14:40:44.302Z</time></trkpt><trkpt lat="32.3030449" lon="-110.6188904"><ele>1286.6</ele><time>2026-05-02T14:40:45.302Z</time></trkpt><trkpt lat="32.3031046" lon="-110.6188091"><ele>1286.1999999999998</ele><time>2026-05-02T14:40:46.302Z</time></trkpt><trkpt lat="32.3031519" lon="-110.6187174"><ele>1285.8</ele><time>2026-05-02T14:40:47.301Z</time></trkpt><trkpt lat="32.3031927" lon="-110.6186038"><ele>1285.4</ele><time>2026-05-02T14:40:48.302Z</time></trkpt><trkpt lat="32.3032198" lon="-110.6184725"><ele>1285.0</ele><time>2026-05-02T14:40:49.301Z</time></trkpt><trkpt lat="32.3032378" lon="-110.6183252"><ele>1285.0</ele><time>2026-05-02T14:40:50.302Z</time></trkpt><trkpt lat="32.3032464" lon="-110.618166"><ele>1285.0</ele><time>2026-05-02T14:40:51.301Z</time></trkpt><trkpt lat="32.3032507" lon="-110.6179907"><ele>1285.0</ele><time>2026-05-02T14:40:52.302Z</time></trkpt><trkpt lat="32.303256" lon="-110.6178086"><ele>1285.0</ele><time>2026-05-02T14:40:53.301Z</time></trkpt><trkpt lat="32.3032645" lon="-110.6176285"><ele>1285.75</ele><time>2026-05-02T14:40:54.301Z</time></trkpt><trkpt lat="32.3032748" lon="-110.6174567"><ele>1286.5</ele><time>2026-05-02T14:40:55.301Z</time></trkpt><trkpt lat="32.3032918" lon="-110.6172825"><ele>1287.25</ele><time>2026-05-02T14:40:56.301Z</time></trkpt><trkpt lat="32.3033177" lon="-110.6171073"><ele>1288.0</ele><time>2026-05-02T14:40:57.302Z</time></trkpt><trkpt lat="32.3033497" lon="-110.6169318"><ele>1289.0</ele><time>2026-05-02T14:40:58.301Z</time></trkpt><trkpt lat="32.3033873" lon="-110.6167547"><ele>1290.0</ele><time>2026-05-02T14:40:59.301Z</time></trkpt><trkpt lat="32.3034271" lon="-110.616574"><ele>1291.0</ele><time>2026-05-02T14:41:00.301Z</time></trkpt><trkpt lat="32.3034683" lon="-110.6163825"><ele>1291.0</ele><time>2026-05-02T14:41:01.301Z</time></trkpt><trkpt lat="32.3035062" lon="-110.6162003"><ele>1291.0</ele><time>2026-05-02T14:41:02.301Z</time></trkpt><trkpt lat="32.303538" lon="-110.6160326"><ele>1291.0</ele><time>2026-05-02T14:41:03.302Z</time></trkpt><trkpt lat="32.303565" lon="-110.6158724"><ele>1291.0</ele><time>2026-05-02T14:41:04.303Z</time></trkpt><trkpt lat="32.3035903" lon="-110.6157148"><ele>1292.25</ele><time>2026-05-02T14:41:05.302Z</time></trkpt><trkpt lat="32.3035931" lon="-110.6155628"><ele>1293.5</ele><time>2026-05-02T14:41:06.302Z</time></trkpt><trkpt lat="32.3035897" lon="-110.6154101"><ele>1294.75</ele><time>2026-05-02T14:41:07.301Z</time></trkpt><trkpt lat="32.3035556" lon="-110.6152468"><ele>1296.0</ele><time>2026-05-02T14:41:08.303Z</time></trkpt><trkpt lat="32.303508" lon="-110.615071"><ele>1297.0</ele><time>2026-05-02T14:41:09.302Z</time></trkpt><trkpt lat="32.3034616" lon="-110.614888"><ele>1298.0</ele><time>2026-05-02T14:41:10.302Z</time></trkpt><trkpt lat="32.3034231" lon="-110.6147098"><ele>1299.0</ele><time>2026-05-02T14:41:11.302Z</time></trkpt><trkpt lat="32.3033882" lon="-110.6145278"><ele>1297.3333333333333</ele><time>2026-05-02T14:41:12.302Z</time></trkpt><trkpt lat="32.3033535" lon="-110.614347"><ele>1295.6666666666665</ele><time>2026-05-02T14:41:13.301Z</time></trkpt><trkpt lat="32.3033238" lon="-110.6141685"><ele>1294.0</ele><time>2026-05-02T14:41:14.302Z</time></trkpt><trkpt lat="32.3033032" lon="-110.6139957"><ele>1294.0</ele><time>2026-05-02T14:41:15.303Z</time></trkpt><trkpt lat="32.3032867" lon="-110.6138244"><ele>1294.0</ele><time>2026-05-02T14:41:16.302Z</time></trkpt><trkpt lat="32.3032766" lon="-110.6136536"><ele>1294.0</ele><time>2026-05-02T14:41:17.302Z</time></trkpt><trkpt lat="32.3032802" lon="-110.6134878"><ele>1294.0</ele><time>2026-05-02T14:41:18.302Z</time></trkpt><trkpt lat="32.3032984" lon="-110.6133272"><ele>1294.5</ele><time>2026-05-02T14:41:19.302Z</time></trkpt><trkpt lat="32.3033302" lon="-110.6131779"><ele>1295.0</ele><time>2026-05-02T14:41:20.303Z</time></trkpt><trkpt lat="32.3033713" lon="-110.6130357"><ele>1295.5</ele><time>2026-05-02T14:41:21.303Z</time></trkpt><trkpt lat="32.3034175" lon="-110.6129025"><ele>1296.0</ele><time>2026-05-02T14:41:22.303Z</time></trkpt><trkpt lat="32.3034763" lon="-110.6127776"><ele>1296.5</ele><time>2026-05-02T14:41:23.302Z</time></trkpt><trkpt lat="32.3035545" lon="-110.6126567"><ele>1297.0</ele><time>2026-05-02T14:41:24.302Z</time></trkpt><trkpt lat="32.303645" lon="-110.6125383"><ele>1297.5</ele><time>2026-05-02T14:41:25.301Z</time></trkpt><trkpt lat="32.3037451" lon="-110.6124219"><ele>1298.0</ele><time>2026-05-02T14:41:26.302Z</time></trkpt><trkpt lat="32.3038469" lon="-110.6123084"><ele>1298.25</ele><time>2026-05-02T14:41:27.303Z</time></trkpt><trkpt lat="32.3039485" lon="-110.6121986"><ele>1298.5</ele><time>2026-05-02T14:41:28.301Z</time></trkpt><trkpt lat="32.3040475" lon="-110.6120906"><ele>1298.75</ele><time>2026-05-02T14:41:29.302Z</time></trkpt><trkpt lat="32.3041433" lon="-110.6119862"><ele>1299.0</ele><time>2026-05-02T14:41:30.302Z</time></trkpt><trkpt lat="32.3042352" lon="-110.6118875"><ele>1299.5</ele><time>2026-05-02T14:41:31.302Z</time></trkpt><trkpt lat="32.3043262" lon="-110.6117932"><ele>1300.0</ele><time>2026-05-02T14:41:32.303Z</time></trkpt><trkpt lat="32.3044164" lon="-110.6116975"><ele>1300.5</ele><time>2026-05-02T14:41:33.303Z</time></trkpt><trkpt lat="32.3045077" lon="-110.6115995"><ele>1301.0</ele><time>2026-05-02T14:41:34.302Z</time></trkpt><trkpt lat="32.3045984" lon="-110.6115021"><ele>1301.0</ele><time>2026-05-02T14:41:35.303Z</time></trkpt><trkpt lat="32.3046861" lon="-110.6114068"><ele>1301.0</ele><time>2026-05-02T14:41:36.302Z</time></trkpt><trkpt lat="32.3047703" lon="-110.6113121"><ele>1301.0</ele><time>2026-05-02T14:41:37.302Z</time></trkpt><trkpt lat="32.3048533" lon="-110.6112186"><ele>1301.0</ele><time>2026-05-02T14:41:38.303Z</time></trkpt><trkpt lat="32.3049383" lon="-110.6111234"><ele>1302.25</ele><time>2026-05-02T14:41:39.303Z</time></trkpt><trkpt lat="32.3050263" lon="-110.6110298"><ele>1303.5</ele><time>2026-05-02T14:41:40.303Z</time></trkpt><trkpt lat="32.3051233" lon="-110.6109244"><ele>1304.75</ele><time>2026-05-02T14:41:41.302Z</time></trkpt><trkpt lat="32.3052259" lon="-110.6108097"><ele>1306.0</ele><time>2026-05-02T14:41:42.303Z</time></trkpt><trkpt lat="32.305333" lon="-110.6106849"><ele>1306.0</ele><time>2026-05-02T14:41:43.303Z</time></trkpt><trkpt lat="32.30544" lon="-110.6105531"><ele>1306.0</ele><time>2026-05-02T14:41:44.302Z</time></trkpt><trkpt lat="32.3055443" lon="-110.6104234"><ele>1306.0</ele><time>2026-05-02T14:41:45.302Z</time></trkpt><trkpt lat="32.3056479" lon="-110.6103023"><ele>1306.0</ele><time>2026-05-02T14:41:46.303Z</time></trkpt><trkpt lat="32.3057484" lon="-110.6101924"><ele>1306.0</ele><time>2026-05-02T14:41:47.302Z</time></trkpt><trkpt lat="32.305847" lon="-110.6100868"><ele>1306.0</ele><time>2026-05-02T14:41:48.303Z</time></trkpt><trkpt lat="32.3059419" lon="-110.6099754"><ele>1306.0</ele><time>2026-05-02T14:41:49.303Z</time></trkpt><trkpt lat="32.3060323" lon="-110.6098517"><ele>1306.0</ele><time>2026-05-02T14:41:50.303Z</time></trkpt><trkpt lat="32.3061162" lon="-110.6097114"><ele>1306.0</ele><time>2026-05-02T14:41:51.302Z</time></trkpt><trkpt lat="32.3061974" lon="-110.6095597"><ele>1306.0</ele><time>2026-05-02T14:41:52.302Z</time></trkpt><trkpt lat="32.3062783" lon="-110.6094014"><ele>1305.3333333333333</ele><time>2026-05-02T14:41:53.302Z</time></trkpt><trkpt lat="32.3063615" lon="-110.6092412"><ele>1304.6666666666667</ele><time>2026-05-02T14:41:54.302Z</time></trkpt><trkpt lat="32.3064443" lon="-110.6090809"><ele>1304.0</ele><time>2026-05-02T14:41:55.303Z</time></trkpt><trkpt lat="32.3065237" lon="-110.6089187"><ele>1305.0</ele><time>2026-05-02T14:41:56.302Z</time></trkpt><trkpt lat="32.3065997" lon="-110.6087702"><ele>1306.0</ele><time>2026-05-02T14:41:57.303Z</time></trkpt><trkpt lat="32.3066685" lon="-110.6086323"><ele>1307.0</ele><time>2026-05-02T14:41:58.302Z</time></trkpt><trkpt lat="32.306729" lon="-110.6085132"><ele>1308.0</ele><time>2026-05-02T14:41:59.303Z</time></trkpt><trkpt lat="32.3067845" lon="-110.6084093"><ele>1308.4</ele><time>2026-05-02T14:42:00.302Z</time></trkpt><trkpt lat="32.3068328" lon="-110.6083094"><ele>1308.8000000000002</ele><time>2026-05-02T14:42:01.302Z</time></trkpt><trkpt lat="32.3068686" lon="-110.6081951"><ele>1309.2</ele><time>2026-05-02T14:42:02.302Z</time></trkpt><trkpt lat="32.3068873" lon="-110.6080598"><ele>1309.6</ele><time>2026-05-02T14:42:03.303Z</time></trkpt><trkpt lat="32.3068882" lon="-110.6079114"><ele>1310.0</ele><time>2026-05-02T14:42:04.303Z</time></trkpt><trkpt lat="32.3068798" lon="-110.6077462"><ele>1310.0</ele><time>2026-05-02T14:42:05.303Z</time></trkpt><trkpt lat="32.3068769" lon="-110.6075678"><ele>1310.0</ele><time>2026-05-02T14:42:06.302Z</time></trkpt><trkpt lat="32.3068756" lon="-110.607391"><ele>1310.0</ele><time>2026-05-02T14:42:07.302Z</time></trkpt><trkpt lat="32.3068734" lon="-110.6072137"><ele>1310.0</ele><time>2026-05-02T14:42:08.302Z</time></trkpt><trkpt lat="32.3068715" lon="-110.6070406"><ele>1310.0</ele><time>2026-05-02T14:42:09.302Z</time></trkpt><trkpt lat="32.306866" lon="-110.6068603"><ele>1310.0</ele><time>2026-05-02T14:42:10.303Z</time></trkpt><trkpt lat="32.3068603" lon="-110.6066811"><ele>1310.0</ele><time>2026-05-02T14:42:11.303Z</time></trkpt><trkpt lat="32.3068616" lon="-110.6064998"><ele>1310.0</ele><time>2026-05-02T14:42:12.302Z</time></trkpt><trkpt lat="32.3068691" lon="-110.6063185"><ele>1310.0</ele><time>2026-05-02T14:42:13.302Z</time></trkpt><trkpt lat="32.3068766" lon="-110.6061476"><ele>1310.0</ele><time>2026-05-02T14:42:14.303Z</time></trkpt><trkpt lat="32.3068819" lon="-110.6059796"><ele>1310.0</ele><time>2026-05-02T14:42:15.302Z</time></trkpt><trkpt lat="32.3068912" lon="-110.6058165"><ele>1310.0</ele><time>2026-05-02T14:42:16.303Z</time></trkpt><trkpt lat="32.3069065" lon="-110.60566"><ele>1310.0</ele><time>2026-05-02T14:42:17.302Z</time></trkpt><trkpt lat="32.3069241" lon="-110.605506"><ele>1310.0</ele><time>2026-05-02T14:42:18.302Z</time></trkpt><trkpt lat="32.3069397" lon="-110.6053569"><ele>1310.0</ele><time>2026-05-02T14:42:19.302Z</time></trkpt><trkpt lat="32.3069391" lon="-110.6052165"><ele>1310.0</ele><time>2026-05-02T14:42:20.302Z</time></trkpt><trkpt lat="32.3069215" lon="-110.6050867"><ele>1310.0</ele><time>2026-05-02T14:42:21.303Z</time></trkpt><trkpt lat="32.3068951" lon="-110.6049626"><ele>1309.75</ele><time>2026-05-02T14:42:22.302Z</time></trkpt><trkpt lat="32.3068629" lon="-110.6048331"><ele>1309.5</ele><time>2026-05-02T14:42:23.302Z</time></trkpt><trkpt lat="32.3068205" lon="-110.6046993"><ele>1309.25</ele><time>2026-05-02T14:42:24.303Z</time></trkpt><trkpt lat="32.3067691" lon="-110.6045627"><ele>1309.0</ele><time>2026-05-02T14:42:25.302Z</time></trkpt><trkpt lat="32.3067169" lon="-110.6044282"><ele>1309.0</ele><time>2026-05-02T14:42:26.303Z</time></trkpt><trkpt lat="32.3066756" lon="-110.604295"><ele>1309.0</ele><time>2026-05-02T14:42:27.302Z</time></trkpt><trkpt lat="32.3066498" lon="-110.6041602"><ele>1309.0</ele><time>2026-05-02T14:42:28.303Z</time></trkpt><trkpt lat="32.3066292" lon="-110.6040286"><ele>1309.0</ele><time>2026-05-02T14:42:29.302Z</time></trkpt><trkpt lat="32.3066357" lon="-110.6038879"><ele>1309.0</ele><time>2026-05-02T14:42:30.304Z</time></trkpt><trkpt lat="32.3066559" lon="-110.6037389"><ele>1309.0</ele><time>2026-05-02T14:42:31.302Z</time></trkpt><trkpt lat="32.3066827" lon="-110.6035744"><ele>1309.0</ele><time>2026-05-02T14:42:32.303Z</time></trkpt><trkpt lat="32.3067106" lon="-110.6033922"><ele>1309.0</ele><time>2026-05-02T14:42:33.304Z</time></trkpt><trkpt lat="32.3067379" lon="-110.6032143"><ele>1309.25</ele><time>2026-05-02T14:42:34.303Z</time></trkpt><trkpt lat="32.3067688" lon="-110.6030454"><ele>1309.5</ele><time>2026-05-02T14:42:35.303Z</time></trkpt><trkpt lat="32.3068071" lon="-110.6028853"><ele>1309.75</ele><time>2026-05-02T14:42:36.302Z</time></trkpt><trkpt lat="32.3068499" lon="-110.6027394"><ele>1310.0</ele><time>2026-05-02T14:42:37.302Z</time></trkpt><trkpt lat="32.3068983" lon="-110.6026174"><ele>1310.0</ele><time>2026-05-02T14:42:38.302Z</time></trkpt><trkpt lat="32.3069635" lon="-110.6025107"><ele>1310.0</ele><time>2026-05-02T14:42:39.302Z</time></trkpt><trkpt lat="32.3070537" lon="-110.6024129"><ele>1310.0</ele><time>2026-05-02T14:42:40.303Z</time></trkpt><trkpt lat="32.3071621" lon="-110.6023174"><ele>1310.0</ele><time>2026-05-02T14:42:41.302Z</time></trkpt><trkpt lat="32.3072664" lon="-110.6022196"><ele>1309.5</ele><time>2026-05-02T14:42:42.303Z</time></trkpt><trkpt lat="32.3073622" lon="-110.6021106"><ele>1309.0</ele><time>2026-05-02T14:42:43.302Z</time></trkpt><trkpt lat="32.3074406" lon="-110.6019949"><ele>1308.5</ele><time>2026-05-02T14:42:44.302Z</time></trkpt><trkpt lat="32.3075075" lon="-110.601871"><ele>1308.0</ele><time>2026-05-02T14:42:45.304Z</time></trkpt><trkpt lat="32.3075582" lon="-110.6017396"><ele>1308.0</ele><time>2026-05-02T14:42:46.302Z</time></trkpt><trkpt lat="32.3075933" lon="-110.6015965"><ele>1308.0</ele><time>2026-05-02T14:42:47.303Z</time></trkpt><trkpt lat="32.3076153" lon="-110.6014455"><ele>1308.0</ele><time>2026-05-02T14:42:48.303Z</time></trkpt><trkpt lat="32.3076307" lon="-110.6012904"><ele>1308.0</ele><time>2026-05-02T14:42:49.304Z</time></trkpt><trkpt lat="32.3076397" lon="-110.6011304"><ele>1308.75</ele><time>2026-05-02T14:42:50.302Z</time></trkpt><trkpt lat="32.3076404" lon="-110.6009649"><ele>1309.5</ele><time>2026-05-02T14:42:51.303Z</time></trkpt><trkpt lat="32.3076298" lon="-110.6007994"><ele>1310.25</ele><time>2026-05-02T14:42:52.303Z</time></trkpt><trkpt lat="32.3076125" lon="-110.6006356"><ele>1311.0</ele><time>2026-05-02T14:42:53.303Z</time></trkpt><trkpt lat="32.3075965" lon="-110.6004713"><ele>1311.75</ele><time>2026-05-02T14:42:54.302Z</time></trkpt><trkpt lat="32.307592" lon="-110.6003098"><ele>1312.5</ele><time>2026-05-02T14:42:55.303Z</time></trkpt><trkpt lat="32.3076012" lon="-110.6001514"><ele>1313.25</ele><time>2026-05-02T14:42:56.304Z</time></trkpt><trkpt lat="32.3076159" lon="-110.5999923"><ele>1314.0</ele><time>2026-05-02T14:42:57.303Z</time></trkpt><trkpt lat="32.3076204" lon="-110.59984"><ele>1314.0</ele><time>2026-05-02T14:42:58.304Z</time></trkpt><trkpt lat="32.3076195" lon="-110.599691"><ele>1314.0</ele><time>2026-05-02T14:42:59.303Z</time></trkpt><trkpt lat="32.3075924" lon="-110.5995299"><ele>1314.0</ele><time>2026-05-02T14:43:00.304Z</time></trkpt><trkpt lat="32.3075492" lon="-110.5993853"><ele>1314.0</ele><time>2026-05-02T14:43:01.303Z</time></trkpt><trkpt lat="32.3074881" lon="-110.5992653"><ele>1313.5</ele><time>2026-05-02T14:43:02.304Z</time></trkpt><trkpt lat="32.307412" lon="-110.5991713"><ele>1313.0</ele><time>2026-05-02T14:43:03.304Z</time></trkpt><trkpt lat="32.3073181" lon="-110.5990996"><ele>1312.5</ele><time>2026-05-02T14:43:04.304Z</time></trkpt><trkpt lat="32.3072126" lon="-110.5990443"><ele>1312.0</ele><time>2026-05-02T14:43:05.303Z</time></trkpt><trkpt lat="32.3070925" lon="-110.5990008"><ele>1311.75</ele><time>2026-05-02T14:43:06.304Z</time></trkpt><trkpt lat="32.3069597" lon="-110.5989587"><ele>1311.5</ele><time>2026-05-02T14:43:07.303Z</time></trkpt><trkpt lat="32.3068146" lon="-110.5989249"><ele>1311.25</ele><time>2026-05-02T14:43:08.304Z</time></trkpt><trkpt lat="32.3066786" lon="-110.5988914"><ele>1311.0</ele><time>2026-05-02T14:43:09.303Z</time></trkpt><trkpt lat="32.3065495" lon="-110.5988548"><ele>1311.0</ele><time>2026-05-02T14:43:10.303Z</time></trkpt><trkpt lat="32.3064232" lon="-110.5988118"><ele>1311.0</ele><time>2026-05-02T14:43:11.303Z</time></trkpt><trkpt lat="32.3063037" lon="-110.5987612"><ele>1311.0</ele><time>2026-05-02T14:43:12.304Z</time></trkpt><trkpt lat="32.3061882" lon="-110.5986988"><ele>1311.0</ele><time>2026-05-02T14:43:13.303Z</time></trkpt><trkpt lat="32.3060821" lon="-110.5986316"><ele>1309.25</ele><time>2026-05-02T14:43:14.304Z</time></trkpt><trkpt lat="32.3059803" lon="-110.5985696"><ele>1307.5</ele><time>2026-05-02T14:43:15.304Z</time></trkpt><trkpt lat="32.3058761" lon="-110.5985179"><ele>1305.75</ele><time>2026-05-02T14:43:16.303Z</time></trkpt><trkpt lat="32.3057593" lon="-110.5984776"><ele>1304.0</ele><time>2026-05-02T14:43:17.304Z</time></trkpt><trkpt lat="32.3056259" lon="-110.5984531"><ele>1302.6666666666667</ele><time>2026-05-02T14:43:18.303Z</time></trkpt><trkpt lat="32.3054769" lon="-110.5984433"><ele>1301.3333333333333</ele><time>2026-05-02T14:43:19.304Z</time></trkpt><trkpt lat="32.3053184" lon="-110.5984394"><ele>1300.0</ele><time>2026-05-02T14:43:20.304Z</time></trkpt><trkpt lat="32.305161" lon="-110.5984387"><ele>1300.0</ele><time>2026-05-02T14:43:21.304Z</time></trkpt><trkpt lat="32.3050055" lon="-110.5984397"><ele>1300.0</ele><time>2026-05-02T14:43:22.303Z</time></trkpt><trkpt lat="32.304858" lon="-110.598441"><ele>1300.0</ele><time>2026-05-02T14:43:23.303Z</time></trkpt><trkpt lat="32.3047198" lon="-110.5984359"><ele>1300.0</ele><time>2026-05-02T14:43:24.304Z</time></trkpt><trkpt lat="32.3045912" lon="-110.5984228"><ele>1299.75</ele><time>2026-05-02T14:43:25.303Z</time></trkpt><trkpt lat="32.3044717" lon="-110.5984012"><ele>1299.5</ele><time>2026-05-02T14:43:26.303Z</time></trkpt><trkpt lat="32.3043591" lon="-110.5983757"><ele>1299.25</ele><time>2026-05-02T14:43:27.303Z</time></trkpt><trkpt lat="32.3042452" lon="-110.5983566"><ele>1299.0</ele><time>2026-05-02T14:43:28.304Z</time></trkpt><trkpt lat="32.3041236" lon="-110.5983532"><ele>1299.0</ele><time>2026-05-02T14:43:29.303Z</time></trkpt><trkpt lat="32.3039941" lon="-110.5983718"><ele>1299.0</ele><time>2026-05-02T14:43:30.303Z</time></trkpt><trkpt lat="32.3038658" lon="-110.5984034"><ele>1299.0</ele><time>2026-05-02T14:43:31.303Z</time></trkpt><trkpt lat="32.3037423" lon="-110.5984326"><ele>1299.0</ele><time>2026-05-02T14:43:32.303Z</time></trkpt><trkpt lat="32.3036212" lon="-110.5984509"><ele>1298.0</ele><time>2026-05-02T14:43:33.303Z</time></trkpt><trkpt lat="32.3034975" lon="-110.5984592"><ele>1297.0</ele><time>2026-05-02T14:43:34.303Z</time></trkpt><trkpt lat="32.3033761" lon="-110.5984571"><ele>1296.0</ele><time>2026-05-02T14:43:35.303Z</time></trkpt><trkpt lat="32.3032607" lon="-110.5984428"><ele>1295.0</ele><time>2026-05-02T14:43:36.303Z</time></trkpt><trkpt lat="32.3031466" lon="-110.5984124"><ele>1294.0</ele><time>2026-05-02T14:43:37.303Z</time></trkpt><trkpt lat="32.3030321" lon="-110.5983644"><ele>1293.0</ele><time>2026-05-02T14:43:38.303Z</time></trkpt><trkpt lat="32.3029151" lon="-110.5982985"><ele>1292.0</ele><time>2026-05-02T14:43:39.304Z</time></trkpt><trkpt lat="32.3027956" lon="-110.5982188"><ele>1291.0</ele><time>2026-05-02T14:43:40.305Z</time></trkpt><trkpt lat="32.3026816" lon="-110.598135"><ele>1291.0</ele><time>2026-05-02T14:43:41.303Z</time></trkpt><trkpt lat="32.3025781" lon="-110.5980466"><ele>1291.0</ele><time>2026-05-02T14:43:42.304Z</time></trkpt><trkpt lat="32.3024845" lon="-110.5979525"><ele>1291.0</ele><time>2026-05-02T14:43:43.303Z</time></trkpt><trkpt lat="32.3023995" lon="-110.5978487"><ele>1291.0</ele><time>2026-05-02T14:43:44.304Z</time></trkpt><trkpt lat="32.3023288" lon="-110.5977386"><ele>1291.0</ele><time>2026-05-02T14:43:45.303Z</time></trkpt><trkpt lat="32.3022799" lon="-110.597629"><ele>1291.0</ele><time>2026-05-02T14:43:46.304Z</time></trkpt><trkpt lat="32.3022489" lon="-110.5975065"><ele>1291.0</ele><time>2026-05-02T14:43:47.303Z</time></trkpt><trkpt lat="32.3022337" lon="-110.5973684"><ele>1291.0</ele><time>2026-05-02T14:43:48.303Z</time></trkpt><trkpt lat="32.3022327" lon="-110.5972124"><ele>1291.0</ele><time>2026-05-02T14:43:49.305Z</time></trkpt><trkpt lat="32.3022473" lon="-110.5970379"><ele>1291.0</ele><time>2026-05-02T14:43:50.304Z</time></trkpt><trkpt lat="32.302273" lon="-110.5968573"><ele>1291.0</ele><time>2026-05-02T14:43:51.304Z</time></trkpt><trkpt lat="32.3023025" lon="-110.59668"><ele>1291.0</ele><time>2026-05-02T14:43:52.303Z</time></trkpt><trkpt lat="32.3023282" lon="-110.5965023"><ele>1291.0</ele><time>2026-05-02T14:43:53.303Z</time></trkpt><trkpt lat="32.3023489" lon="-110.5963295"><ele>1291.0</ele><time>2026-05-02T14:43:54.303Z</time></trkpt><trkpt lat="32.3023709" lon="-110.59616"><ele>1291.0</ele><time>2026-05-02T14:43:55.304Z</time></trkpt><trkpt lat="32.3023973" lon="-110.5959919"><ele>1291.75</ele><time>2026-05-02T14:43:56.303Z</time></trkpt><trkpt lat="32.3024265" lon="-110.5958249"><ele>1292.5</ele><time>2026-05-02T14:43:57.304Z</time></trkpt><trkpt lat="32.3024623" lon="-110.5956527"><ele>1293.25</ele><time>2026-05-02T14:43:58.304Z</time></trkpt><trkpt lat="32.3025001" lon="-110.5954802"><ele>1294.0</ele><time>2026-05-02T14:43:59.303Z</time></trkpt><trkpt lat="32.3025421" lon="-110.5953069"><ele>1294.0</ele><time>2026-05-02T14:44:00.303Z</time></trkpt><trkpt lat="32.3025869" lon="-110.5951399"><ele>1294.0</ele><time>2026-05-02T14:44:01.304Z</time></trkpt><trkpt lat="32.3026321" lon="-110.5949746"><ele>1294.0</ele><time>2026-05-02T14:44:02.303Z</time></trkpt><trkpt lat="32.302674" lon="-110.5948069"><ele>1294.0</ele><time>2026-05-02T14:44:03.304Z</time></trkpt><trkpt lat="32.302706" lon="-110.5946443"><ele>1294.0</ele><time>2026-05-02T14:44:04.304Z</time></trkpt><trkpt lat="32.3027343" lon="-110.5944887"><ele>1294.0</ele><time>2026-05-02T14:44:05.305Z</time></trkpt><trkpt lat="32.3027472" lon="-110.5943408"><ele>1294.0</ele><time>2026-05-02T14:44:06.304Z</time></trkpt><trkpt lat="32.3027394" lon="-110.5941806"><ele>1294.0</ele><time>2026-05-02T14:44:07.303Z</time></trkpt><trkpt lat="32.3027207" lon="-110.5940115"><ele>1294.0</ele><time>2026-05-02T14:44:08.304Z</time></trkpt><trkpt lat="32.3026998" lon="-110.5938431"><ele>1294.0</ele><time>2026-05-02T14:44:09.304Z</time></trkpt><trkpt lat="32.302681" lon="-110.5936777"><ele>1294.0</ele><time>2026-05-02T14:44:10.303Z</time></trkpt><trkpt lat="32.3026726" lon="-110.593509"><ele>1294.0</ele><time>2026-05-02T14:44:11.304Z</time></trkpt><trkpt lat="32.3026842" lon="-110.5933397"><ele>1295.0</ele><time>2026-05-02T14:44:12.304Z</time></trkpt><trkpt lat="32.3027118" lon="-110.5931711"><ele>1296.0</ele><time>2026-05-02T14:44:13.305Z</time></trkpt><trkpt lat="32.302749" lon="-110.5929994"><ele>1297.0</ele><time>2026-05-02T14:44:14.303Z</time></trkpt><trkpt lat="32.3027837" lon="-110.5928359"><ele>1298.0</ele><time>2026-05-02T14:44:15.303Z</time></trkpt><trkpt lat="32.3028174" lon="-110.5926734"><ele>1298.0</ele><time>2026-05-02T14:44:16.303Z</time></trkpt><trkpt lat="32.3028575" lon="-110.5925139"><ele>1298.0</ele><time>2026-05-02T14:44:17.304Z</time></trkpt><trkpt lat="32.302901" lon="-110.5923524"><ele>1298.0</ele><time>2026-05-02T14:44:18.303Z</time></trkpt><trkpt lat="32.3029726" lon="-110.5922008"><ele>1298.0</ele><time>2026-05-02T14:44:19.304Z</time></trkpt><trkpt lat="32.3030592" lon="-110.5920662"><ele>1298.5</ele><time>2026-05-02T14:44:20.303Z</time></trkpt><trkpt lat="32.3031566" lon="-110.5919373"><ele>1299.0</ele><time>2026-05-02T14:44:21.304Z</time></trkpt><trkpt lat="32.3032651" lon="-110.59181"><ele>1299.5</ele><time>2026-05-02T14:44:22.305Z</time></trkpt><trkpt lat="32.3033658" lon="-110.5916895"><ele>1300.0</ele><time>2026-05-02T14:44:23.305Z</time></trkpt><trkpt lat="32.3034618" lon="-110.5915681"><ele>1300.0</ele><time>2026-05-02T14:44:24.305Z</time></trkpt><trkpt lat="32.3035497" lon="-110.5914502"><ele>1300.0</ele><time>2026-05-02T14:44:25.305Z</time></trkpt><trkpt lat="32.3036282" lon="-110.5913316"><ele>1300.0</ele><time>2026-05-02T14:44:26.305Z</time></trkpt><trkpt lat="32.303687" lon="-110.5912086"><ele>1300.0</ele><time>2026-05-02T14:44:27.304Z</time></trkpt><trkpt lat="32.3037213" lon="-110.5910885"><ele>1301.0</ele><time>2026-05-02T14:44:28.304Z</time></trkpt><trkpt lat="32.303748" lon="-110.5909476"><ele>1302.0</ele><time>2026-05-02T14:44:29.305Z</time></trkpt><trkpt lat="32.3037754" lon="-110.5907865"><ele>1303.0</ele><time>2026-05-02T14:44:30.304Z</time></trkpt><trkpt lat="32.3038049" lon="-110.5906091"><ele>1304.0</ele><time>2026-05-02T14:44:31.304Z</time></trkpt><trkpt lat="32.3038366" lon="-110.5904299"><ele>1304.0</ele><time>2026-05-02T14:44:32.304Z</time></trkpt><trkpt lat="32.3038715" lon="-110.5902466"><ele>1304.0</ele><time>2026-05-02T14:44:33.304Z</time></trkpt><trkpt lat="32.3039071" lon="-110.5900632"><ele>1304.0</ele><time>2026-05-02T14:44:34.304Z</time></trkpt><trkpt lat="32.3039433" lon="-110.5898839"><ele>1303.5</ele><time>2026-05-02T14:44:35.305Z</time></trkpt><trkpt lat="32.3039814" lon="-110.5897139"><ele>1303.0</ele><time>2026-05-02T14:44:36.304Z</time></trkpt><trkpt lat="32.3040159" lon="-110.5895489"><ele>1302.5</ele><time>2026-05-02T14:44:37.304Z</time></trkpt><trkpt lat="32.3040413" lon="-110.5893781"><ele>1302.0</ele><time>2026-05-02T14:44:38.304Z</time></trkpt><trkpt lat="32.3040536" lon="-110.5891983"><ele>1301.25</ele><time>2026-05-02T14:44:39.305Z</time></trkpt><trkpt lat="32.3040543" lon="-110.5890135"><ele>1300.5</ele><time>2026-05-02T14:44:40.305Z</time></trkpt><trkpt lat="32.3040488" lon="-110.5888373"><ele>1299.75</ele><time>2026-05-02T14:44:41.304Z</time></trkpt><trkpt lat="32.3040423" lon="-110.588669"><ele>1299.0</ele><time>2026-05-02T14:44:42.304Z</time></trkpt><trkpt lat="32.3040326" lon="-110.5885065"><ele>1298.5</ele><time>2026-05-02T14:44:43.304Z</time></trkpt><trkpt lat="32.3040134" lon="-110.588341"><ele>1298.0</ele><time>2026-05-02T14:44:44.305Z</time></trkpt><trkpt lat="32.3039896" lon="-110.5881742"><ele>1297.5</ele><time>2026-05-02T14:44:45.304Z</time></trkpt><trkpt lat="32.3039387" lon="-110.5880061"><ele>1297.0</ele><time>2026-05-02T14:44:46.304Z</time></trkpt><trkpt lat="32.3038763" lon="-110.5878356"><ele>1296.0</ele><time>2026-05-02T14:44:47.305Z</time></trkpt><trkpt lat="32.3038105" lon="-110.5876655"><ele>1295.0</ele><time>2026-05-02T14:44:48.304Z</time></trkpt><trkpt lat="32.3037436" lon="-110.587502"><ele>1294.0</ele><time>2026-05-02T14:44:49.304Z</time></trkpt><trkpt lat="32.3036761" lon="-110.587349"><ele>1294.0</ele><time>2026-05-02T14:44:50.305Z</time></trkpt><trkpt lat="32.3036064" lon="-110.5872047"><ele>1294.0</ele><time>2026-05-02T14:44:51.305Z</time></trkpt><trkpt lat="32.303529" lon="-110.5870843"><ele>1294.0</ele><time>2026-05-02T14:44:52.304Z</time></trkpt><trkpt lat="32.3034562" lon="-110.5869671"><ele>1294.0</ele><time>2026-05-02T14:44:53.305Z</time></trkpt><trkpt lat="32.3033946" lon="-110.5868606"><ele>1294.2</ele><time>2026-05-02T14:44:54.304Z</time></trkpt><trkpt lat="32.3033393" lon="-110.5867585"><ele>1294.4</ele><time>2026-05-02T14:44:55.304Z</time></trkpt><trkpt lat="32.3033068" lon="-110.5866582"><ele>1294.6</ele><time>2026-05-02T14:44:56.305Z</time></trkpt><trkpt lat="32.3032856" lon="-110.586543"><ele>1294.8</ele><time>2026-05-02T14:44:57.305Z</time></trkpt><trkpt lat="32.3032788" lon="-110.5864216"><ele>1295.0</ele><time>2026-05-02T14:44:58.305Z</time></trkpt><trkpt lat="32.3032895" lon="-110.5862984"><ele>1295.0</ele><time>2026-05-02T14:44:59.306Z</time></trkpt><trkpt lat="32.3033163" lon="-110.5861794"><ele>1295.0</ele><time>2026-05-02T14:45:00.304Z</time></trkpt><trkpt lat="32.3033493" lon="-110.5860649"><ele>1295.0</ele><time>2026-05-02T14:45:01.304Z</time></trkpt><trkpt lat="32.3034079" lon="-110.5859586"><ele>1295.0</ele><time>2026-05-02T14:45:02.305Z</time></trkpt><trkpt lat="32.303483" lon="-110.5858417"><ele>1295.0</ele><time>2026-05-02T14:45:03.304Z</time></trkpt><trkpt lat="32.3035656" lon="-110.5857131"><ele>1295.0</ele><time>2026-05-02T14:45:04.305Z</time></trkpt><trkpt lat="32.3036505" lon="-110.5855845"><ele>1295.0</ele><time>2026-05-02T14:45:05.305Z</time></trkpt><trkpt lat="32.3037274" lon="-110.5854617"><ele>1295.0</ele><time>2026-05-02T14:45:06.305Z</time></trkpt><trkpt lat="32.3037909" lon="-110.5853381"><ele>1295.0</ele><time>2026-05-02T14:45:07.304Z</time></trkpt><trkpt lat="32.3038509" lon="-110.5852117"><ele>1295.5</ele><time>2026-05-02T14:45:08.305Z</time></trkpt><trkpt lat="32.3038951" lon="-110.5850579"><ele>1296.0</ele><time>2026-05-02T14:45:09.305Z</time></trkpt><trkpt lat="32.3039363" lon="-110.584893"><ele>1296.5</ele><time>2026-05-02T14:45:10.304Z</time></trkpt><trkpt lat="32.3039749" lon="-110.584721"><ele>1297.0</ele><time>2026-05-02T14:45:11.304Z</time></trkpt><trkpt lat="32.3040108" lon="-110.5845444"><ele>1297.3333333333333</ele><time>2026-05-02T14:45:12.304Z</time></trkpt><trkpt lat="32.3040464" lon="-110.5843664"><ele>1297.6666666666667</ele><time>2026-05-02T14:45:13.305Z</time></trkpt><trkpt lat="32.3040791" lon="-110.5841927"><ele>1298.0</ele><time>2026-05-02T14:45:14.305Z</time></trkpt><trkpt lat="32.3041103" lon="-110.5840182"><ele>1298.0</ele><time>2026-05-02T14:45:15.306Z</time></trkpt><trkpt lat="32.3041441" lon="-110.5838363"><ele>1298.0</ele><time>2026-05-02T14:45:16.304Z</time></trkpt><trkpt lat="32.3041812" lon="-110.5836472"><ele>1298.0</ele><time>2026-05-02T14:45:17.304Z</time></trkpt><trkpt lat="32.3042209" lon="-110.5834579"><ele>1298.6666666666667</ele><time>2026-05-02T14:45:18.304Z</time></trkpt><trkpt lat="32.3042583" lon="-110.5832792"><ele>1299.3333333333333</ele><time>2026-05-02T14:45:19.304Z</time></trkpt><trkpt lat="32.3042903" lon="-110.5831051"><ele>1300.0</ele><time>2026-05-02T14:45:20.304Z</time></trkpt><trkpt lat="32.3043186" lon="-110.582928"><ele>1299.6666666666665</ele><time>2026-05-02T14:45:21.304Z</time></trkpt><trkpt lat="32.3043408" lon="-110.5827478"><ele>1299.3333333333333</ele><time>2026-05-02T14:45:22.306Z</time></trkpt><trkpt lat="32.3043602" lon="-110.5825661"><ele>1299.0</ele><time>2026-05-02T14:45:23.304Z</time></trkpt><trkpt lat="32.3043702" lon="-110.582382"><ele>1299.0</ele><time>2026-05-02T14:45:24.305Z</time></trkpt><trkpt lat="32.3043803" lon="-110.5821967"><ele>1299.0</ele><time>2026-05-02T14:45:25.305Z</time></trkpt><trkpt lat="32.304392" lon="-110.5820128"><ele>1299.0</ele><time>2026-05-02T14:45:26.305Z</time></trkpt><trkpt lat="32.3044106" lon="-110.5818278"><ele>1299.6666666666667</ele><time>2026-05-02T14:45:27.304Z</time></trkpt><trkpt lat="32.3044285" lon="-110.5816507"><ele>1300.3333333333335</ele><time>2026-05-02T14:45:28.304Z</time></trkpt><trkpt lat="32.3044408" lon="-110.5814663"><ele>1301.0</ele><time>2026-05-02T14:45:29.306Z</time></trkpt><trkpt lat="32.3044537" lon="-110.5812801"><ele>1302.3333333333335</ele><time>2026-05-02T14:45:30.304Z</time></trkpt><trkpt lat="32.3044762" lon="-110.581093"><ele>1303.6666666666667</ele><time>2026-05-02T14:45:31.304Z</time></trkpt><trkpt lat="32.3045044" lon="-110.5809073"><ele>1305.0</ele><time>2026-05-02T14:45:32.304Z</time></trkpt><trkpt lat="32.3045365" lon="-110.5807261"><ele>1305.0</ele><time>2026-05-02T14:45:33.305Z</time></trkpt><trkpt lat="32.30457" lon="-110.5805443"><ele>1305.0</ele><time>2026-05-02T14:45:34.306Z</time></trkpt><trkpt lat="32.3046027" lon="-110.5803624"><ele>1305.0</ele><time>2026-05-02T14:45:35.304Z</time></trkpt><trkpt lat="32.3046349" lon="-110.5801872"><ele>1305.3333333333333</ele><time>2026-05-02T14:45:36.305Z</time></trkpt><trkpt lat="32.3046693" lon="-110.5800096"><ele>1305.6666666666665</ele><time>2026-05-02T14:45:37.305Z</time></trkpt><trkpt lat="32.3047052" lon="-110.5798292"><ele>1306.0</ele><time>2026-05-02T14:45:38.306Z</time></trkpt><trkpt lat="32.3047426" lon="-110.5796446"><ele>1307.3333333333333</ele><time>2026-05-02T14:45:39.305Z</time></trkpt><trkpt lat="32.3047807" lon="-110.5794527"><ele>1308.6666666666667</ele><time>2026-05-02T14:45:40.306Z</time></trkpt><trkpt lat="32.3048164" lon="-110.5792641"><ele>1310.0</ele><time>2026-05-02T14:45:41.305Z</time></trkpt><trkpt lat="32.304848" lon="-110.5790836"><ele>1310.0</ele><time>2026-05-02T14:45:42.305Z</time></trkpt><trkpt lat="32.3048778" lon="-110.5789121"><ele>1310.0</ele><time>2026-05-02T14:45:43.305Z</time></trkpt><trkpt lat="32.3049105" lon="-110.5787457"><ele>1310.0</ele><time>2026-05-02T14:45:44.304Z</time></trkpt><trkpt lat="32.3049482" lon="-110.5785823"><ele>1310.0</ele><time>2026-05-02T14:45:45.306Z</time></trkpt><trkpt lat="32.3049873" lon="-110.5784233"><ele>1310.25</ele><time>2026-05-02T14:45:46.305Z</time></trkpt><trkpt lat="32.3050296" lon="-110.5782698"><ele>1310.5</ele><time>2026-05-02T14:45:47.305Z</time></trkpt><trkpt lat="32.3050816" lon="-110.5781218"><ele>1310.75</ele><time>2026-05-02T14:45:48.306Z</time></trkpt><trkpt lat="32.3051467" lon="-110.5779728"><ele>1311.0</ele><time>2026-05-02T14:45:49.306Z</time></trkpt><trkpt lat="32.3052269" lon="-110.5778201"><ele>1311.6666666666667</ele><time>2026-05-02T14:45:50.305Z</time></trkpt><trkpt lat="32.3053176" lon="-110.5776676"><ele>1312.3333333333335</ele><time>2026-05-02T14:45:51.306Z</time></trkpt><trkpt lat="32.3054123" lon="-110.5775157"><ele>1313.0</ele><time>2026-05-02T14:45:52.305Z</time></trkpt><trkpt lat="32.3055074" lon="-110.577365"><ele>1314.0</ele><time>2026-05-02T14:45:53.305Z</time></trkpt><trkpt lat="32.305602" lon="-110.5772182"><ele>1315.0</ele><time>2026-05-02T14:45:54.305Z</time></trkpt><trkpt lat="32.3056952" lon="-110.5770753"><ele>1316.0</ele><time>2026-05-02T14:45:55.305Z</time></trkpt><trkpt lat="32.3057817" lon="-110.5769434"><ele>1316.1999999999998</ele><time>2026-05-02T14:45:56.306Z</time></trkpt><trkpt lat="32.3058592" lon="-110.5768222"><ele>1316.3999999999999</ele><time>2026-05-02T14:45:57.305Z</time></trkpt><trkpt lat="32.3059288" lon="-110.5767062"><ele>1316.6</ele><time>2026-05-02T14:45:58.306Z</time></trkpt><trkpt lat="32.3059716" lon="-110.5766064"><ele>1316.8</ele><time>2026-05-02T14:45:59.306Z</time></trkpt><trkpt lat="32.3059999" lon="-110.5765229"><ele>1317.0</ele><time>2026-05-02T14:46:00.305Z</time></trkpt><trkpt lat="32.3060327" lon="-110.5764117"><ele>1317.0</ele><time>2026-05-02T14:46:02.305Z</time></trkpt><trkpt lat="32.3060535" lon="-110.5763347"><ele>1317.0</ele><time>2026-05-02T14:46:04.306Z</time></trkpt><trkpt lat="32.3060681" lon="-110.5762356"><ele>1317.0</ele><time>2026-05-02T14:46:07.305Z</time></trkpt><trkpt lat="32.3060752" lon="-110.5761455"><ele>1317.0</ele><time>2026-05-02T14:46:10.305Z</time></trkpt><trkpt lat="32.306072" lon="-110.5762852"><ele>1317.0</ele><time>2026-05-02T14:46:18.305Z</time></trkpt><trkpt lat="32.3060522" lon="-110.5763719"><ele>1317.0</ele><time>2026-05-02T14:46:19.305Z</time></trkpt><trkpt lat="32.3060253" lon="-110.5764707"><ele>1317.0</ele><time>2026-05-02T14:46:20.305Z</time></trkpt><trkpt lat="32.3059777" lon="-110.5765958"><ele>1317.0</ele><time>2026-05-02T14:46:21.305Z</time></trkpt><trkpt lat="32.3059181" lon="-110.5767242"><ele>1317.0</ele><time>2026-05-02T14:46:22.306Z</time></trkpt><trkpt lat="32.3058514" lon="-110.5768438"><ele>1317.0</ele><time>2026-05-02T14:46:23.306Z</time></trkpt><trkpt lat="32.305784" lon="-110.576952"><ele>1316.8</ele><time>2026-05-02T14:46:24.306Z</time></trkpt><trkpt lat="32.3057156" lon="-110.5770577"><ele>1316.6</ele><time>2026-05-02T14:46:25.305Z</time></trkpt><trkpt lat="32.3056509" lon="-110.5771552"><ele>1316.3999999999999</ele><time>2026-05-02T14:46:26.306Z</time></trkpt><trkpt lat="32.305587" lon="-110.5772472"><ele>1316.1999999999998</ele><time>2026-05-02T14:46:27.305Z</time></trkpt><trkpt lat="32.3055262" lon="-110.5773388"><ele>1316.0</ele><time>2026-05-02T14:46:28.305Z</time></trkpt><trkpt lat="32.3054725" lon="-110.5774264"><ele>1315.5714285714287</ele><time>2026-05-02T14:46:29.305Z</time></trkpt><trkpt lat="32.3054333" lon="-110.5774942"><ele>1315.142857142857</ele><time>2026-05-02T14:46:30.306Z</time></trkpt><trkpt lat="32.3053897" lon="-110.5775719"><ele>1314.7142857142858</ele><time>2026-05-02T14:46:32.306Z</time></trkpt><trkpt lat="32.3053484" lon="-110.5776437"><ele>1314.2857142857142</ele><time>2026-05-02T14:46:36.306Z</time></trkpt><trkpt lat="32.3053749" lon="-110.5775742"><ele>1313.857142857143</ele><time>2026-05-02T14:46:48.307Z</time></trkpt><trkpt lat="32.3054297" lon="-110.5775229"><ele>1313.4285714285716</ele><time>2026-05-02T14:47:20.306Z</time></trkpt><trkpt lat="32.3054688" lon="-110.577461"><ele>1313.0</ele><time>2026-05-02T14:47:21.306Z</time></trkpt><trkpt lat="32.3055162" lon="-110.57739"><ele>1313.0</ele><time>2026-05-02T14:47:22.307Z</time></trkpt><trkpt lat="32.3055719" lon="-110.5773058"><ele>1313.0</ele><time>2026-05-02T14:47:23.307Z</time></trkpt><trkpt lat="32.3056356" lon="-110.5772034"><ele>1313.0</ele><time>2026-05-02T14:47:24.307Z</time></trkpt><trkpt lat="32.3057012" lon="-110.5770929"><ele>1313.0</ele><time>2026-05-02T14:47:25.307Z</time></trkpt><trkpt lat="32.305771" lon="-110.5769754"><ele>1313.0</ele><time>2026-05-02T14:47:26.306Z</time></trkpt><trkpt lat="32.3058409" lon="-110.5768513"><ele>1314.0</ele><time>2026-05-02T14:47:27.307Z</time></trkpt><trkpt lat="32.3059044" lon="-110.5767214"><ele>1315.0</ele><time>2026-05-02T14:47:28.306Z</time></trkpt><trkpt lat="32.3059608" lon="-110.5765859"><ele>1316.0</ele><time>2026-05-02T14:47:29.306Z</time></trkpt><trkpt lat="32.306007" lon="-110.5764557"><ele>1317.0</ele><time>2026-05-02T14:47:30.307Z</time></trkpt><trkpt lat="32.3060443" lon="-110.5763224"><ele>1317.5</ele><time>2026-05-02T14:47:31.306Z</time></trkpt><trkpt lat="32.3060689" lon="-110.576184"><ele>1318.0</ele><time>2026-05-02T14:47:32.306Z</time></trkpt><trkpt lat="32.3060831" lon="-110.5760378"><ele>1318.5</ele><time>2026-05-02T14:47:33.306Z</time></trkpt><trkpt lat="32.306088" lon="-110.5758844"><ele>1319.0</ele><time>2026-05-02T14:47:34.306Z</time></trkpt><trkpt lat="32.3060827" lon="-110.575736"><ele>1319.0</ele><time>2026-05-02T14:47:35.306Z</time></trkpt><trkpt lat="32.3060652" lon="-110.5755883"><ele>1319.0</ele><time>2026-05-02T14:47:36.307Z</time></trkpt><trkpt lat="32.3060422" lon="-110.5754415"><ele>1319.0</ele><time>2026-05-02T14:47:37.306Z</time></trkpt><trkpt lat="32.3060013" lon="-110.5753121"><ele>1319.0</ele><time>2026-05-02T14:47:38.307Z</time></trkpt><trkpt lat="32.3059646" lon="-110.575195"><ele>1319.8000000000002</ele><time>2026-05-02T14:47:39.307Z</time></trkpt><trkpt lat="32.30594" lon="-110.5750804"><ele>1320.6000000000001</ele><time>2026-05-02T14:47:40.307Z</time></trkpt><trkpt lat="32.305932" lon="-110.5749635"><ele>1321.4</ele><time>2026-05-02T14:47:41.306Z</time></trkpt><trkpt lat="32.3059429" lon="-110.5748476"><ele>1322.2</ele><time>2026-05-02T14:47:42.306Z</time></trkpt><trkpt lat="32.3059738" lon="-110.5747356"><ele>1323.0</ele><time>2026-05-02T14:47:43.306Z</time></trkpt><trkpt lat="32.3060205" lon="-110.5746267"><ele>1323.0</ele><time>2026-05-02T14:47:44.306Z</time></trkpt><trkpt lat="32.3060805" lon="-110.5745232"><ele>1323.0</ele><time>2026-05-02T14:47:45.306Z</time></trkpt><trkpt lat="32.3061501" lon="-110.5744283"><ele>1323.0</ele><time>2026-05-02T14:47:46.306Z</time></trkpt><trkpt lat="32.3062186" lon="-110.5743503"><ele>1323.0</ele><time>2026-05-02T14:47:47.306Z</time></trkpt><trkpt lat="32.3062908" lon="-110.5742804"><ele>1323.0</ele><time>2026-05-02T14:47:48.308Z</time></trkpt><trkpt lat="32.3063686" lon="-110.574214"><ele>1323.75</ele><time>2026-05-02T14:47:49.306Z</time></trkpt><trkpt lat="32.3064472" lon="-110.5741456"><ele>1324.5</ele><time>2026-05-02T14:47:50.307Z</time></trkpt><trkpt lat="32.3065264" lon="-110.574039"><ele>1325.25</ele><time>2026-05-02T14:47:51.306Z</time></trkpt><trkpt lat="32.3066039" lon="-110.5739118"><ele>1326.0</ele><time>2026-05-02T14:47:52.307Z</time></trkpt><trkpt lat="32.3066723" lon="-110.5737762"><ele>1325.75</ele><time>2026-05-02T14:47:53.307Z</time></trkpt><trkpt lat="32.3067384" lon="-110.5736436"><ele>1325.5</ele><time>2026-05-02T14:47:54.307Z</time></trkpt><trkpt lat="32.3068079" lon="-110.5735235"><ele>1325.25</ele><time>2026-05-02T14:47:55.306Z</time></trkpt><trkpt lat="32.306885" lon="-110.5734159"><ele>1325.0</ele><time>2026-05-02T14:47:56.307Z</time></trkpt><trkpt lat="32.3069756" lon="-110.5733173"><ele>1325.0</ele><time>2026-05-02T14:47:57.307Z</time></trkpt><trkpt lat="32.3070786" lon="-110.5732246"><ele>1325.0</ele><time>2026-05-02T14:47:58.306Z</time></trkpt><trkpt lat="32.3071802" lon="-110.5731277"><ele>1325.0</ele><time>2026-05-02T14:47:59.307Z</time></trkpt><trkpt lat="32.3072727" lon="-110.5730264"><ele>1325.0</ele><time>2026-05-02T14:48:00.306Z</time></trkpt><trkpt lat="32.3073569" lon="-110.5729141"><ele>1323.75</ele><time>2026-05-02T14:48:01.306Z</time></trkpt><trkpt lat="32.30744" lon="-110.572793"><ele>1322.5</ele><time>2026-05-02T14:48:02.306Z</time></trkpt><trkpt lat="32.307513" lon="-110.5726519"><ele>1321.25</ele><time>2026-05-02T14:48:03.307Z</time></trkpt><trkpt lat="32.3075831" lon="-110.5725127"><ele>1320.0</ele><time>2026-05-02T14:48:04.307Z</time></trkpt><trkpt lat="32.3076513" lon="-110.5723787"><ele>1320.0</ele><time>2026-05-02T14:48:05.306Z</time></trkpt><trkpt lat="32.3077221" lon="-110.5722439"><ele>1320.0</ele><time>2026-05-02T14:48:06.306Z</time></trkpt><trkpt lat="32.3077929" lon="-110.5721096"><ele>1320.0</ele><time>2026-05-02T14:48:07.307Z</time></trkpt><trkpt lat="32.3078647" lon="-110.5719782"><ele>1320.0</ele><time>2026-05-02T14:48:08.306Z</time></trkpt><trkpt lat="32.3079342" lon="-110.5718481"><ele>1319.5</ele><time>2026-05-02T14:48:09.307Z</time></trkpt><trkpt lat="32.3079938" lon="-110.5717102"><ele>1319.0</ele><time>2026-05-02T14:48:10.306Z</time></trkpt><trkpt lat="32.3080483" lon="-110.5715744"><ele>1318.5</ele><time>2026-05-02T14:48:11.307Z</time></trkpt><trkpt lat="32.3080908" lon="-110.5714516"><ele>1318.0</ele><time>2026-05-02T14:48:12.306Z</time></trkpt><trkpt lat="32.3081393" lon="-110.5713409"><ele>1318.0</ele><time>2026-05-02T14:48:13.306Z</time></trkpt><trkpt lat="32.3082001" lon="-110.571237"><ele>1318.0</ele><time>2026-05-02T14:48:14.306Z</time></trkpt><trkpt lat="32.3082761" lon="-110.5711292"><ele>1318.0</ele><time>2026-05-02T14:48:15.306Z</time></trkpt><trkpt lat="32.3083689" lon="-110.5710186"><ele>1318.0</ele><time>2026-05-02T14:48:16.307Z</time></trkpt><trkpt lat="32.3084747" lon="-110.5709002"><ele>1316.75</ele><time>2026-05-02T14:48:17.306Z</time></trkpt><trkpt lat="32.3085846" lon="-110.5707761"><ele>1315.5</ele><time>2026-05-02T14:48:18.306Z</time></trkpt><trkpt lat="32.3086913" lon="-110.5706532"><ele>1314.25</ele><time>2026-05-02T14:48:19.308Z</time></trkpt><trkpt lat="32.3087927" lon="-110.5705346"><ele>1313.0</ele><time>2026-05-02T14:48:20.307Z</time></trkpt><trkpt lat="32.3088856" lon="-110.5704325"><ele>1312.75</ele><time>2026-05-02T14:48:21.307Z</time></trkpt><trkpt lat="32.3089808" lon="-110.5703393"><ele>1312.5</ele><time>2026-05-02T14:48:22.306Z</time></trkpt><trkpt lat="32.3090821" lon="-110.5702578"><ele>1312.25</ele><time>2026-05-02T14:48:23.307Z</time></trkpt><trkpt lat="32.3091856" lon="-110.5701795"><ele>1312.0</ele><time>2026-05-02T14:48:24.307Z</time></trkpt><trkpt lat="32.3092927" lon="-110.5701185"><ele>1312.0</ele><time>2026-05-02T14:48:25.308Z</time></trkpt><trkpt lat="32.3093968" lon="-110.5700561"><ele>1312.0</ele><time>2026-05-02T14:48:26.307Z</time></trkpt><trkpt lat="32.3094962" lon="-110.5699887"><ele>1312.0</ele><time>2026-05-02T14:48:27.307Z</time></trkpt><trkpt lat="32.3095847" lon="-110.5698988"><ele>1312.0</ele><time>2026-05-02T14:48:28.307Z</time></trkpt><trkpt lat="32.3096794" lon="-110.5698001"><ele>1312.6666666666665</ele><time>2026-05-02T14:48:29.307Z</time></trkpt><trkpt lat="32.3097822" lon="-110.5696724"><ele>1313.3333333333333</ele><time>2026-05-02T14:48:30.306Z</time></trkpt><trkpt lat="32.3098882" lon="-110.5695408"><ele>1314.0</ele><time>2026-05-02T14:48:31.307Z</time></trkpt><trkpt lat="32.3099915" lon="-110.5694136"><ele>1312.5</ele><time>2026-05-02T14:48:32.308Z</time></trkpt><trkpt lat="32.3100936" lon="-110.5692908"><ele>1311.0</ele><time>2026-05-02T14:48:33.307Z</time></trkpt><trkpt lat="32.310191" lon="-110.5691729"><ele>1309.5</ele><time>2026-05-02T14:48:34.307Z</time></trkpt><trkpt lat="32.3102789" lon="-110.5690595"><ele>1308.0</ele><time>2026-05-02T14:48:35.307Z</time></trkpt><trkpt lat="32.3103523" lon="-110.5689545"><ele>1308.0</ele><time>2026-05-02T14:48:36.306Z</time></trkpt><trkpt lat="32.3104108" lon="-110.5688564"><ele>1308.0</ele><time>2026-05-02T14:48:37.306Z</time></trkpt><trkpt lat="32.3104542" lon="-110.568756"><ele>1308.0</ele><time>2026-05-02T14:48:38.306Z</time></trkpt><trkpt lat="32.3104774" lon="-110.5686526"><ele>1308.0</ele><time>2026-05-02T14:48:39.306Z</time></trkpt><trkpt lat="32.310482" lon="-110.5685415"><ele>1308.0</ele><time>2026-05-02T14:48:40.307Z</time></trkpt><trkpt lat="32.3104791" lon="-110.5684186"><ele>1308.25</ele><time>2026-05-02T14:48:41.307Z</time></trkpt><trkpt lat="32.3104879" lon="-110.5682899"><ele>1308.5</ele><time>2026-05-02T14:48:42.307Z</time></trkpt><trkpt lat="32.3105181" lon="-110.5681554"><ele>1308.75</ele><time>2026-05-02T14:48:43.307Z</time></trkpt><trkpt lat="32.3105661" lon="-110.5680169"><ele>1309.0</ele><time>2026-05-02T14:48:44.308Z</time></trkpt><trkpt lat="32.3106307" lon="-110.567871"><ele>1306.6666666666665</ele><time>2026-05-02T14:48:45.307Z</time></trkpt><trkpt lat="32.3107027" lon="-110.5677167"><ele>1304.3333333333333</ele><time>2026-05-02T14:48:46.307Z</time></trkpt><trkpt lat="32.310776" lon="-110.567555"><ele>1302.0</ele><time>2026-05-02T14:48:47.308Z</time></trkpt><trkpt lat="32.3108454" lon="-110.5673903"><ele>1302.0</ele><time>2026-05-02T14:48:48.308Z</time></trkpt><trkpt lat="32.3109143" lon="-110.5672273"><ele>1302.0</ele><time>2026-05-02T14:48:49.308Z</time></trkpt><trkpt lat="32.3109847" lon="-110.5670686"><ele>1302.0</ele><time>2026-05-02T14:48:50.307Z</time></trkpt><trkpt lat="32.3110546" lon="-110.5669088"><ele>1302.5</ele><time>2026-05-02T14:48:51.307Z</time></trkpt><trkpt lat="32.3111199" lon="-110.5667495"><ele>1303.0</ele><time>2026-05-02T14:48:52.308Z</time></trkpt><trkpt lat="32.3111804" lon="-110.5665883"><ele>1303.5</ele><time>2026-05-02T14:48:53.308Z</time></trkpt><trkpt lat="32.3112379" lon="-110.566428"><ele>1304.0</ele><time>2026-05-02T14:48:54.308Z</time></trkpt><trkpt lat="32.3112926" lon="-110.5662664"><ele>1304.25</ele><time>2026-05-02T14:48:55.308Z</time></trkpt><trkpt lat="32.3113456" lon="-110.5661057"><ele>1304.5</ele><time>2026-05-02T14:48:56.308Z</time></trkpt><trkpt lat="32.3113835" lon="-110.5659397"><ele>1304.75</ele><time>2026-05-02T14:48:57.307Z</time></trkpt><trkpt lat="32.3114155" lon="-110.565772"><ele>1305.0</ele><time>2026-05-02T14:48:58.308Z</time></trkpt><trkpt lat="32.3114245" lon="-110.5655981"><ele>1304.0</ele><time>2026-05-02T14:48:59.308Z</time></trkpt><trkpt lat="32.31143" lon="-110.5654218"><ele>1303.0</ele><time>2026-05-02T14:49:00.307Z</time></trkpt><trkpt lat="32.3114383" lon="-110.5652449"><ele>1302.0</ele><time>2026-05-02T14:49:01.308Z</time></trkpt><trkpt lat="32.311456" lon="-110.5650809"><ele>1301.0</ele><time>2026-05-02T14:49:02.307Z</time></trkpt><trkpt lat="32.3114801" lon="-110.5649202"><ele>1301.0</ele><time>2026-05-02T14:49:03.307Z</time></trkpt><trkpt lat="32.3115169" lon="-110.5647676"><ele>1301.0</ele><time>2026-05-02T14:49:04.307Z</time></trkpt><trkpt lat="32.3115645" lon="-110.5646239"><ele>1301.0</ele><time>2026-05-02T14:49:05.308Z</time></trkpt><trkpt lat="32.3116142" lon="-110.5644806"><ele>1301.0</ele><time>2026-05-02T14:49:06.308Z</time></trkpt><trkpt lat="32.3116688" lon="-110.5643447"><ele>1300.5</ele><time>2026-05-02T14:49:07.308Z</time></trkpt><trkpt lat="32.3117182" lon="-110.5642071"><ele>1300.0</ele><time>2026-05-02T14:49:08.308Z</time></trkpt><trkpt lat="32.3117653" lon="-110.5640698"><ele>1299.5</ele><time>2026-05-02T14:49:09.307Z</time></trkpt><trkpt lat="32.3117967" lon="-110.5639377"><ele>1299.0</ele><time>2026-05-02T14:49:10.307Z</time></trkpt><trkpt lat="32.3118344" lon="-110.5637984"><ele>1297.25</ele><time>2026-05-02T14:49:11.307Z</time></trkpt><trkpt lat="32.3118752" lon="-110.5636598"><ele>1295.5</ele><time>2026-05-02T14:49:12.307Z</time></trkpt><trkpt lat="32.3119181" lon="-110.5635249"><ele>1293.75</ele><time>2026-05-02T14:49:13.307Z</time></trkpt><trkpt lat="32.3119695" lon="-110.5633924"><ele>1292.0</ele><time>2026-05-02T14:49:14.307Z</time></trkpt><trkpt lat="32.3120423" lon="-110.56326"><ele>1292.0</ele><time>2026-05-02T14:49:15.308Z</time></trkpt><trkpt lat="32.3121269" lon="-110.5631239"><ele>1292.0</ele><time>2026-05-02T14:49:16.307Z</time></trkpt><trkpt lat="32.3122165" lon="-110.5629822"><ele>1292.0</ele><time>2026-05-02T14:49:17.308Z</time></trkpt><trkpt lat="32.3122909" lon="-110.5628533"><ele>1292.0</ele><time>2026-05-02T14:49:18.307Z</time></trkpt><trkpt lat="32.3123636" lon="-110.5627198"><ele>1292.25</ele><time>2026-05-02T14:49:19.308Z</time></trkpt><trkpt lat="32.3124224" lon="-110.5625694"><ele>1292.5</ele><time>2026-05-02T14:49:20.307Z</time></trkpt><trkpt lat="32.3124765" lon="-110.5624146"><ele>1292.75</ele><time>2026-05-02T14:49:21.307Z</time></trkpt><trkpt lat="32.3125168" lon="-110.5622521"><ele>1293.0</ele><time>2026-05-02T14:49:22.307Z</time></trkpt><trkpt lat="32.3125619" lon="-110.5620836"><ele>1294.0</ele><time>2026-05-02T14:49:23.307Z</time></trkpt><trkpt lat="32.3126168" lon="-110.5619157"><ele>1295.0</ele><time>2026-05-02T14:49:24.307Z</time></trkpt><trkpt lat="32.3126794" lon="-110.561753"><ele>1296.0</ele><time>2026-05-02T14:49:25.307Z</time></trkpt><trkpt lat="32.312744" lon="-110.5615959"><ele>1296.0</ele><time>2026-05-02T14:49:26.308Z</time></trkpt><trkpt lat="32.3128101" lon="-110.5614424"><ele>1296.0</ele><time>2026-05-02T14:49:27.307Z</time></trkpt><trkpt lat="32.3128743" lon="-110.5612874"><ele>1296.0</ele><time>2026-05-02T14:49:28.307Z</time></trkpt><trkpt lat="32.3129349" lon="-110.5611363"><ele>1296.0</ele><time>2026-05-02T14:49:29.308Z</time></trkpt><trkpt lat="32.3129885" lon="-110.5609987"><ele>1296.75</ele><time>2026-05-02T14:49:30.308Z</time></trkpt><trkpt lat="32.3130382" lon="-110.5608697"><ele>1297.5</ele><time>2026-05-02T14:49:31.308Z</time></trkpt><trkpt lat="32.3130768" lon="-110.5607349"><ele>1298.25</ele><time>2026-05-02T14:49:32.307Z</time></trkpt><trkpt lat="32.3130974" lon="-110.5605853"><ele>1299.0</ele><time>2026-05-02T14:49:33.308Z</time></trkpt><trkpt lat="32.3131028" lon="-110.5604242"><ele>1299.0</ele><time>2026-05-02T14:49:34.308Z</time></trkpt><trkpt lat="32.313102" lon="-110.5602576"><ele>1299.0</ele><time>2026-05-02T14:49:35.308Z</time></trkpt><trkpt lat="32.3131026" lon="-110.5600857"><ele>1299.0</ele><time>2026-05-02T14:49:36.308Z</time></trkpt><trkpt lat="32.3131039" lon="-110.5599215"><ele>1299.0</ele><time>2026-05-02T14:49:37.307Z</time></trkpt><trkpt lat="32.3131022" lon="-110.5597554"><ele>1299.0</ele><time>2026-05-02T14:49:38.308Z</time></trkpt><trkpt lat="32.3130964" lon="-110.5595862"><ele>1299.0</ele><time>2026-05-02T14:49:39.307Z</time></trkpt><trkpt lat="32.3130852" lon="-110.5594182"><ele>1299.0</ele><time>2026-05-02T14:49:40.307Z</time></trkpt><trkpt lat="32.3130714" lon="-110.5592491"><ele>1299.0</ele><time>2026-05-02T14:49:41.309Z</time></trkpt><trkpt lat="32.3130478" lon="-110.5590766"><ele>1296.3333333333333</ele><time>2026-05-02T14:49:42.308Z</time></trkpt><trkpt lat="32.3130218" lon="-110.5588993"><ele>1293.6666666666665</ele><time>2026-05-02T14:49:43.308Z</time></trkpt><trkpt lat="32.3129919" lon="-110.5587233"><ele>1291.0</ele><time>2026-05-02T14:49:44.308Z</time></trkpt><trkpt lat="32.3129601" lon="-110.55855"><ele>1290.75</ele><time>2026-05-02T14:49:45.307Z</time></trkpt><trkpt lat="32.3129303" lon="-110.5583839"><ele>1290.5</ele><time>2026-05-02T14:49:46.308Z</time></trkpt><trkpt lat="32.312901" lon="-110.55823"><ele>1290.25</ele><time>2026-05-02T14:49:47.308Z</time></trkpt><trkpt lat="32.3128771" lon="-110.558087"><ele>1290.0</ele><time>2026-05-02T14:49:48.308Z</time></trkpt><trkpt lat="32.3128584" lon="-110.5579452"><ele>1290.25</ele><time>2026-05-02T14:49:49.307Z</time></trkpt><trkpt lat="32.3128415" lon="-110.5577998"><ele>1290.5</ele><time>2026-05-02T14:49:50.308Z</time></trkpt><trkpt lat="32.3128227" lon="-110.5576392"><ele>1290.75</ele><time>2026-05-02T14:49:51.307Z</time></trkpt><trkpt lat="32.3128087" lon="-110.5574807"><ele>1291.0</ele><time>2026-05-02T14:49:52.307Z</time></trkpt><trkpt lat="32.312802" lon="-110.557317"><ele>1291.0</ele><time>2026-05-02T14:49:53.307Z</time></trkpt><trkpt lat="32.3128024" lon="-110.5571572"><ele>1291.0</ele><time>2026-05-02T14:49:54.308Z</time></trkpt><trkpt lat="32.3128036" lon="-110.5569973"><ele>1291.0</ele><time>2026-05-02T14:49:55.308Z</time></trkpt><trkpt lat="32.3128013" lon="-110.5568303"><ele>1291.0</ele><time>2026-05-02T14:49:56.308Z</time></trkpt><trkpt lat="32.312798" lon="-110.5566684"><ele>1289.25</ele><time>2026-05-02T14:49:57.307Z</time></trkpt><trkpt lat="32.3127917" lon="-110.5565101"><ele>1287.5</ele><time>2026-05-02T14:49:58.308Z</time></trkpt><trkpt lat="32.3127809" lon="-110.5563525"><ele>1285.75</ele><time>2026-05-02T14:49:59.308Z</time></trkpt><trkpt lat="32.3127675" lon="-110.5562031"><ele>1284.0</ele><time>2026-05-02T14:50:00.308Z</time></trkpt><trkpt lat="32.3127514" lon="-110.5560619"><ele>1282.5</ele><time>2026-05-02T14:50:01.308Z</time></trkpt><trkpt lat="32.3127491" lon="-110.5559092"><ele>1281.0</ele><time>2026-05-02T14:50:02.308Z</time></trkpt><trkpt lat="32.3127567" lon="-110.5557487"><ele>1279.5</ele><time>2026-05-02T14:50:03.308Z</time></trkpt><trkpt lat="32.3127698" lon="-110.5555947"><ele>1278.0</ele><time>2026-05-02T14:50:04.308Z</time></trkpt><trkpt lat="32.312777" lon="-110.555442"><ele>1277.5</ele><time>2026-05-02T14:50:05.308Z</time></trkpt><trkpt lat="32.3127759" lon="-110.5552826"><ele>1277.0</ele><time>2026-05-02T14:50:06.307Z</time></trkpt><trkpt lat="32.3127672" lon="-110.5551222"><ele>1276.5</ele><time>2026-05-02T14:50:07.307Z</time></trkpt><trkpt lat="32.3127548" lon="-110.5549692"><ele>1276.0</ele><time>2026-05-02T14:50:08.308Z</time></trkpt><trkpt lat="32.31274" lon="-110.5548273"><ele>1276.0</ele><time>2026-05-02T14:50:09.308Z</time></trkpt><trkpt lat="32.3127341" lon="-110.5546869"><ele>1276.0</ele><time>2026-05-02T14:50:10.309Z</time></trkpt><trkpt lat="32.3127476" lon="-110.5545457"><ele>1276.0</ele><time>2026-05-02T14:50:11.308Z</time></trkpt><trkpt lat="32.3127815" lon="-110.5544049"><ele>1276.0</ele><time>2026-05-02T14:50:12.309Z</time></trkpt><trkpt lat="32.3128211" lon="-110.5542709"><ele>1275.3999999999999</ele><time>2026-05-02T14:50:13.309Z</time></trkpt><trkpt lat="32.3128844" lon="-110.5541588"><ele>1274.8</ele><time>2026-05-02T14:50:14.308Z</time></trkpt><trkpt lat="32.31295" lon="-110.5540591"><ele>1274.1999999999998</ele><time>2026-05-02T14:50:15.308Z</time></trkpt><trkpt lat="32.3130046" lon="-110.5539609"><ele>1273.6</ele><time>2026-05-02T14:50:16.308Z</time></trkpt><trkpt lat="32.3130383" lon="-110.5538583"><ele>1273.0</ele><time>2026-05-02T14:50:17.308Z</time></trkpt><trkpt lat="32.3130548" lon="-110.5537522"><ele>1272.2</ele><time>2026-05-02T14:50:18.309Z</time></trkpt><trkpt lat="32.3130528" lon="-110.5536359"><ele>1271.4</ele><time>2026-05-02T14:50:19.308Z</time></trkpt><trkpt lat="32.3130383" lon="-110.5535148"><ele>1270.6000000000001</ele><time>2026-05-02T14:50:20.308Z</time></trkpt><trkpt lat="32.313022" lon="-110.5533976"><ele>1269.8</ele><time>2026-05-02T14:50:21.309Z</time></trkpt><trkpt lat="32.3130112" lon="-110.5532886"><ele>1269.0</ele><time>2026-05-02T14:50:22.308Z</time></trkpt><trkpt lat="32.3130073" lon="-110.5531724"><ele>1269.0</ele><time>2026-05-02T14:50:23.309Z</time></trkpt><trkpt lat="32.3130175" lon="-110.5530544"><ele>1269.0</ele><time>2026-05-02T14:50:24.308Z</time></trkpt><trkpt lat="32.313042" lon="-110.5529368"><ele>1269.0</ele><time>2026-05-02T14:50:25.308Z</time></trkpt><trkpt lat="32.3130718" lon="-110.5528237"><ele>1269.0</ele><time>2026-05-02T14:50:26.309Z</time></trkpt><trkpt lat="32.3131215" lon="-110.5527135"><ele>1269.0</ele><time>2026-05-02T14:50:27.309Z</time></trkpt><trkpt lat="32.3131968" lon="-110.5525901"><ele>1270.0</ele><time>2026-05-02T14:50:28.308Z</time></trkpt><trkpt lat="32.3132817" lon="-110.5524615"><ele>1271.0</ele><time>2026-05-02T14:50:29.309Z</time></trkpt><trkpt lat="32.3133655" lon="-110.5523366"><ele>1272.0</ele><time>2026-05-02T14:50:30.308Z</time></trkpt><trkpt lat="32.3134442" lon="-110.552215"><ele>1273.0</ele><time>2026-05-02T14:50:31.309Z</time></trkpt><trkpt lat="32.3135213" lon="-110.552091"><ele>1271.4</ele><time>2026-05-02T14:50:32.308Z</time></trkpt><trkpt lat="32.3135851" lon="-110.5519667"><ele>1269.8</ele><time>2026-05-02T14:50:33.308Z</time></trkpt><trkpt lat="32.3136313" lon="-110.5518533"><ele>1268.2</ele><time>2026-05-02T14:50:34.308Z</time></trkpt><trkpt lat="32.3136579" lon="-110.5517478"><ele>1266.6</ele><time>2026-05-02T14:50:35.308Z</time></trkpt><trkpt lat="32.3136681" lon="-110.5516383"><ele>1265.0</ele><time>2026-05-02T14:50:36.308Z</time></trkpt><trkpt lat="32.3136749" lon="-110.5515255"><ele>1265.0</ele><time>2026-05-02T14:50:37.308Z</time></trkpt><trkpt lat="32.3136702" lon="-110.5513717"><ele>1265.0</ele><time>2026-05-02T14:50:38.309Z</time></trkpt><trkpt lat="32.3136641" lon="-110.5512057"><ele>1265.0</ele><time>2026-05-02T14:50:39.308Z</time></trkpt><trkpt lat="32.3136614" lon="-110.55104"><ele>1265.0</ele><time>2026-05-02T14:50:40.309Z</time></trkpt><trkpt lat="32.313656" lon="-110.5508773"><ele>1264.75</ele><time>2026-05-02T14:50:41.308Z</time></trkpt><trkpt lat="32.3136477" lon="-110.5507175"><ele>1264.5</ele><time>2026-05-02T14:50:42.308Z</time></trkpt><trkpt lat="32.313632" lon="-110.5505617"><ele>1264.25</ele><time>2026-05-02T14:50:43.309Z</time></trkpt><trkpt lat="32.3136242" lon="-110.5504043"><ele>1264.0</ele><time>2026-05-02T14:50:44.308Z</time></trkpt><trkpt lat="32.3136193" lon="-110.5502527"><ele>1262.5</ele><time>2026-05-02T14:50:45.308Z</time></trkpt><trkpt lat="32.3136102" lon="-110.5501117"><ele>1261.0</ele><time>2026-05-02T14:50:46.309Z</time></trkpt><trkpt lat="32.3135977" lon="-110.5499746"><ele>1259.5</ele><time>2026-05-02T14:50:47.308Z</time></trkpt><trkpt lat="32.3135702" lon="-110.5498504"><ele>1258.0</ele><time>2026-05-02T14:50:48.309Z</time></trkpt><trkpt lat="32.3135122" lon="-110.5497231"><ele>1258.0</ele><time>2026-05-02T14:50:49.308Z</time></trkpt><trkpt lat="32.3134395" lon="-110.5495926"><ele>1258.0</ele><time>2026-05-02T14:50:50.31Z</time></trkpt><trkpt lat="32.3133779" lon="-110.5494612"><ele>1258.0</ele><time>2026-05-02T14:50:51.308Z</time></trkpt><trkpt lat="32.3133421" lon="-110.5493303"><ele>1258.0</ele><time>2026-05-02T14:50:52.308Z</time></trkpt><trkpt lat="32.3133302" lon="-110.549192"><ele>1258.25</ele><time>2026-05-02T14:50:53.309Z</time></trkpt><trkpt lat="32.3133371" lon="-110.5490427"><ele>1258.5</ele><time>2026-05-02T14:50:54.308Z</time></trkpt><trkpt lat="32.3133483" lon="-110.5488847"><ele>1258.75</ele><time>2026-05-02T14:50:55.309Z</time></trkpt><trkpt lat="32.3133553" lon="-110.5487496"><ele>1259.0</ele><time>2026-05-02T14:50:56.309Z</time></trkpt><trkpt lat="32.3133495" lon="-110.5486285"><ele>1259.0</ele><time>2026-05-02T14:50:57.309Z</time></trkpt><trkpt lat="32.3133226" lon="-110.5485143"><ele>1259.0</ele><time>2026-05-02T14:50:58.309Z</time></trkpt><trkpt lat="32.3132772" lon="-110.5483973"><ele>1259.0</ele><time>2026-05-02T14:50:59.308Z</time></trkpt><trkpt lat="32.3132151" lon="-110.5482811"><ele>1259.0</ele><time>2026-05-02T14:51:00.31Z</time></trkpt><trkpt lat="32.3131399" lon="-110.5481642"><ele>1259.0</ele><time>2026-05-02T14:51:01.309Z</time></trkpt><trkpt lat="32.3130616" lon="-110.5480538"><ele>1260.5</ele><time>2026-05-02T14:51:02.308Z</time></trkpt><trkpt lat="32.3129886" lon="-110.5479497"><ele>1262.0</ele><time>2026-05-02T14:51:03.308Z</time></trkpt><trkpt lat="32.3129283" lon="-110.5478405"><ele>1263.5</ele><time>2026-05-02T14:51:04.308Z</time></trkpt><trkpt lat="32.3128824" lon="-110.5477167"><ele>1265.0</ele><time>2026-05-02T14:51:05.308Z</time></trkpt><trkpt lat="32.3128523" lon="-110.5475801"><ele>1265.0</ele><time>2026-05-02T14:51:06.308Z</time></trkpt><trkpt lat="32.3128362" lon="-110.5474295"><ele>1265.0</ele><time>2026-05-02T14:51:07.308Z</time></trkpt><trkpt lat="32.312823" lon="-110.5472703"><ele>1265.0</ele><time>2026-05-02T14:51:08.309Z</time></trkpt><trkpt lat="32.3128257" lon="-110.5470935"><ele>1265.0</ele><time>2026-05-02T14:51:09.309Z</time></trkpt><trkpt lat="32.3128293" lon="-110.5469187"><ele>1265.5</ele><time>2026-05-02T14:51:10.309Z</time></trkpt><trkpt lat="32.3128315" lon="-110.5467423"><ele>1266.0</ele><time>2026-05-02T14:51:11.309Z</time></trkpt><trkpt lat="32.3128297" lon="-110.5465685"><ele>1266.5</ele><time>2026-05-02T14:51:12.309Z</time></trkpt><trkpt lat="32.3128261" lon="-110.5463965"><ele>1267.0</ele><time>2026-05-02T14:51:13.309Z</time></trkpt><trkpt lat="32.3128252" lon="-110.5462272"><ele>1267.5</ele><time>2026-05-02T14:51:14.31Z</time></trkpt><trkpt lat="32.3128264" lon="-110.5460647"><ele>1268.0</ele><time>2026-05-02T14:51:15.309Z</time></trkpt><trkpt lat="32.312831" lon="-110.5459007"><ele>1268.5</ele><time>2026-05-02T14:51:16.308Z</time></trkpt><trkpt lat="32.3128359" lon="-110.5457372"><ele>1269.0</ele><time>2026-05-02T14:51:17.308Z</time></trkpt><trkpt lat="32.3128367" lon="-110.5455735"><ele>1269.0</ele><time>2026-05-02T14:51:18.308Z</time></trkpt><trkpt lat="32.3128318" lon="-110.5454135"><ele>1269.0</ele><time>2026-05-02T14:51:19.309Z</time></trkpt><trkpt lat="32.3128212" lon="-110.5452511"><ele>1269.0</ele><time>2026-05-02T14:51:20.309Z</time></trkpt><trkpt lat="32.3128101" lon="-110.5450767"><ele>1269.0</ele><time>2026-05-02T14:51:21.309Z</time></trkpt><trkpt lat="32.312801" lon="-110.5448956"><ele>1269.6666666666667</ele><time>2026-05-02T14:51:22.309Z</time></trkpt><trkpt lat="32.3127988" lon="-110.5447112"><ele>1270.3333333333335</ele><time>2026-05-02T14:51:23.308Z</time></trkpt><trkpt lat="32.3128044" lon="-110.5445215"><ele>1271.0</ele><time>2026-05-02T14:51:24.309Z</time></trkpt><trkpt lat="32.3128131" lon="-110.5443307"><ele>1272.3333333333335</ele><time>2026-05-02T14:51:25.309Z</time></trkpt><trkpt lat="32.3128217" lon="-110.5441445"><ele>1273.6666666666667</ele><time>2026-05-02T14:51:26.309Z</time></trkpt><trkpt lat="32.3128315" lon="-110.5439626"><ele>1275.0</ele><time>2026-05-02T14:51:27.308Z</time></trkpt><trkpt lat="32.3128403" lon="-110.5437859"><ele>1275.75</ele><time>2026-05-02T14:51:28.309Z</time></trkpt><trkpt lat="32.3128494" lon="-110.5436103"><ele>1276.5</ele><time>2026-05-02T14:51:29.308Z</time></trkpt><trkpt lat="32.3128589" lon="-110.5434374"><ele>1277.25</ele><time>2026-05-02T14:51:30.31Z</time></trkpt><trkpt lat="32.3128674" lon="-110.5432664"><ele>1278.0</ele><time>2026-05-02T14:51:31.309Z</time></trkpt><trkpt lat="32.3128724" lon="-110.5431028"><ele>1278.0</ele><time>2026-05-02T14:51:32.31Z</time></trkpt><trkpt lat="32.312874" lon="-110.5429359"><ele>1278.0</ele><time>2026-05-02T14:51:33.308Z</time></trkpt><trkpt lat="32.3128738" lon="-110.5427676"><ele>1278.0</ele><time>2026-05-02T14:51:34.309Z</time></trkpt><trkpt lat="32.3128714" lon="-110.5425983"><ele>1278.0</ele><time>2026-05-02T14:51:35.31Z</time></trkpt><trkpt lat="32.312872" lon="-110.5424235"><ele>1279.75</ele><time>2026-05-02T14:51:36.31Z</time></trkpt><trkpt lat="32.3128885" lon="-110.5422587"><ele>1281.5</ele><time>2026-05-02T14:51:37.309Z</time></trkpt><trkpt lat="32.3129163" lon="-110.5421047"><ele>1283.25</ele><time>2026-05-02T14:51:38.31Z</time></trkpt><trkpt lat="32.3129575" lon="-110.541962"><ele>1285.0</ele><time>2026-05-02T14:51:39.31Z</time></trkpt><trkpt lat="32.3130133" lon="-110.5418252"><ele>1286.0</ele><time>2026-05-02T14:51:40.31Z</time></trkpt><trkpt lat="32.3130843" lon="-110.5416961"><ele>1287.0</ele><time>2026-05-02T14:51:41.31Z</time></trkpt><trkpt lat="32.3131735" lon="-110.5415748"><ele>1288.0</ele><time>2026-05-02T14:51:42.31Z</time></trkpt><trkpt lat="32.3132744" lon="-110.5414618"><ele>1289.0</ele><time>2026-05-02T14:51:43.31Z</time></trkpt><trkpt lat="32.3133903" lon="-110.5413519"><ele>1289.0</ele><time>2026-05-02T14:51:44.31Z</time></trkpt><trkpt lat="32.3135101" lon="-110.5412408"><ele>1289.0</ele><time>2026-05-02T14:51:45.31Z</time></trkpt><trkpt lat="32.3136264" lon="-110.5411295"><ele>1289.0</ele><time>2026-05-02T14:51:46.309Z</time></trkpt><trkpt lat="32.3137346" lon="-110.541025"><ele>1289.0</ele><time>2026-05-02T14:51:47.31Z</time></trkpt><trkpt lat="32.3138367" lon="-110.5409333"><ele>1290.2</ele><time>2026-05-02T14:51:48.309Z</time></trkpt><trkpt lat="32.3139284" lon="-110.540854"><ele>1291.4</ele><time>2026-05-02T14:51:49.309Z</time></trkpt><trkpt lat="32.3140109" lon="-110.5407855"><ele>1292.6</ele><time>2026-05-02T14:51:50.31Z</time></trkpt><trkpt lat="32.3140871" lon="-110.5407372"><ele>1293.8</ele><time>2026-05-02T14:51:51.31Z</time></trkpt><trkpt lat="32.3141602" lon="-110.5407157"><ele>1295.0</ele><time>2026-05-02T14:51:52.31Z</time></trkpt><trkpt lat="32.3142397" lon="-110.5407194"><ele>1295.0</ele><time>2026-05-02T14:51:53.31Z</time></trkpt><trkpt lat="32.3143296" lon="-110.5407433"><ele>1295.0</ele><time>2026-05-02T14:51:54.309Z</time></trkpt><trkpt lat="32.3144257" lon="-110.5407771"><ele>1295.0</ele><time>2026-05-02T14:51:55.31Z</time></trkpt><trkpt lat="32.3145306" lon="-110.5408328"><ele>1295.0</ele><time>2026-05-02T14:51:56.31Z</time></trkpt><trkpt lat="32.3146405" lon="-110.5408984"><ele>1295.0</ele><time>2026-05-02T14:51:57.31Z</time></trkpt><trkpt lat="32.3147433" lon="-110.540963"><ele>1293.8</ele><time>2026-05-02T14:51:58.31Z</time></trkpt><trkpt lat="32.3148402" lon="-110.5410172"><ele>1292.6</ele><time>2026-05-02T14:51:59.309Z</time></trkpt><trkpt lat="32.3149364" lon="-110.5410566"><ele>1291.4</ele><time>2026-05-02T14:52:00.31Z</time></trkpt><trkpt lat="32.3150376" lon="-110.5410967"><ele>1290.2</ele><time>2026-05-02T14:52:01.309Z</time></trkpt><trkpt lat="32.3151481" lon="-110.5411222"><ele>1289.0</ele><time>2026-05-02T14:52:02.309Z</time></trkpt><trkpt lat="32.3152647" lon="-110.5411138"><ele>1289.0</ele><time>2026-05-02T14:52:03.309Z</time></trkpt><trkpt lat="32.3153805" lon="-110.5411008"><ele>1289.0</ele><time>2026-05-02T14:52:04.31Z</time></trkpt><trkpt lat="32.3154979" lon="-110.541092"><ele>1289.0</ele><time>2026-05-02T14:52:05.31Z</time></trkpt><trkpt lat="32.3156179" lon="-110.5410923"><ele>1289.0</ele><time>2026-05-02T14:52:06.31Z</time></trkpt><trkpt lat="32.3157352" lon="-110.541099"><ele>1288.8000000000002</ele><time>2026-05-02T14:52:07.309Z</time></trkpt><trkpt lat="32.3158546" lon="-110.5411158"><ele>1288.6000000000001</ele><time>2026-05-02T14:52:08.309Z</time></trkpt><trkpt lat="32.3159676" lon="-110.5411456"><ele>1288.4</ele><time>2026-05-02T14:52:09.31Z</time></trkpt><trkpt lat="32.3160694" lon="-110.5411856"><ele>1288.2</ele><time>2026-05-02T14:52:10.31Z</time></trkpt><trkpt lat="32.316153" lon="-110.5412329"><ele>1288.0</ele><time>2026-05-02T14:52:11.309Z</time></trkpt><trkpt lat="32.3162213" lon="-110.541291"><ele>1288.0</ele><time>2026-05-02T14:52:12.309Z</time></trkpt><trkpt lat="32.3162768" lon="-110.5413644"><ele>1288.0</ele><time>2026-05-02T14:52:13.309Z</time></trkpt><trkpt lat="32.3163229" lon="-110.541463"><ele>1288.0</ele><time>2026-05-02T14:52:14.309Z</time></trkpt><trkpt lat="32.3163637" lon="-110.5415809"><ele>1288.0</ele><time>2026-05-02T14:52:15.31Z</time></trkpt><trkpt lat="32.3164067" lon="-110.5417004"><ele>1288.0</ele><time>2026-05-02T14:52:16.309Z</time></trkpt><trkpt lat="32.3164604" lon="-110.5418185"><ele>1286.2</ele><time>2026-05-02T14:52:17.309Z</time></trkpt><trkpt lat="32.3165252" lon="-110.5419275"><ele>1284.4</ele><time>2026-05-02T14:52:18.31Z</time></trkpt><trkpt lat="32.3166015" lon="-110.5420183"><ele>1282.6000000000001</ele><time>2026-05-02T14:52:19.309Z</time></trkpt><trkpt lat="32.3166881" lon="-110.5420815"><ele>1280.8000000000002</ele><time>2026-05-02T14:52:20.31Z</time></trkpt><trkpt lat="32.3167919" lon="-110.5421287"><ele>1279.0</ele><time>2026-05-02T14:52:21.309Z</time></trkpt><trkpt lat="32.31691" lon="-110.5421761"><ele>1279.0</ele><time>2026-05-02T14:52:22.309Z</time></trkpt><trkpt lat="32.317052" lon="-110.5422254"><ele>1279.0</ele><time>2026-05-02T14:52:23.309Z</time></trkpt><trkpt lat="32.3171888" lon="-110.5422826"><ele>1279.0</ele><time>2026-05-02T14:52:24.31Z</time></trkpt><trkpt lat="32.3173247" lon="-110.5423399"><ele>1279.0</ele><time>2026-05-02T14:52:25.31Z</time></trkpt><trkpt lat="32.3174494" lon="-110.5423998"><ele>1277.0</ele><time>2026-05-02T14:52:26.309Z</time></trkpt><trkpt lat="32.3175764" lon="-110.5424634"><ele>1275.0</ele><time>2026-05-02T14:52:27.31Z</time></trkpt><trkpt lat="32.317699" lon="-110.542526"><ele>1273.0</ele><time>2026-05-02T14:52:28.309Z</time></trkpt><trkpt lat="32.3178216" lon="-110.5425826"><ele>1271.0</ele><time>2026-05-02T14:52:29.309Z</time></trkpt><trkpt lat="32.3179455" lon="-110.5426419"><ele>1271.25</ele><time>2026-05-02T14:52:30.31Z</time></trkpt><trkpt lat="32.3180725" lon="-110.5427029"><ele>1271.5</ele><time>2026-05-02T14:52:31.31Z</time></trkpt><trkpt lat="32.3181985" lon="-110.542771"><ele>1271.75</ele><time>2026-05-02T14:52:32.309Z</time></trkpt><trkpt lat="32.3183343" lon="-110.5428385"><ele>1272.0</ele><time>2026-05-02T14:52:33.31Z</time></trkpt><trkpt lat="32.3184774" lon="-110.5428992"><ele>1272.0</ele><time>2026-05-02T14:52:34.31Z</time></trkpt><trkpt lat="32.3186307" lon="-110.5429531"><ele>1272.0</ele><time>2026-05-02T14:52:35.309Z</time></trkpt><trkpt lat="32.3187964" lon="-110.5430001"><ele>1272.0</ele><time>2026-05-02T14:52:36.31Z</time></trkpt><trkpt lat="32.3189632" lon="-110.5430399"><ele>1268.3333333333333</ele><time>2026-05-02T14:52:37.309Z</time></trkpt><trkpt lat="32.3191228" lon="-110.543069"><ele>1264.6666666666665</ele><time>2026-05-02T14:52:38.31Z</time></trkpt><trkpt lat="32.3192741" lon="-110.543093"><ele>1261.0</ele><time>2026-05-02T14:52:39.31Z</time></trkpt><trkpt lat="32.3194165" lon="-110.5431172"><ele>1261.0</ele><time>2026-05-02T14:52:40.31Z</time></trkpt><trkpt lat="32.319546" lon="-110.5431431"><ele>1261.0</ele><time>2026-05-02T14:52:41.311Z</time></trkpt><trkpt lat="32.3196622" lon="-110.5431784"><ele>1261.0</ele><time>2026-05-02T14:52:42.309Z</time></trkpt><trkpt lat="32.3197751" lon="-110.5432353"><ele>1261.0</ele><time>2026-05-02T14:52:43.31Z</time></trkpt><trkpt lat="32.319888" lon="-110.5433129"><ele>1259.5</ele><time>2026-05-02T14:52:44.31Z</time></trkpt><trkpt lat="32.3200041" lon="-110.5433934"><ele>1258.0</ele><time>2026-05-02T14:52:45.309Z</time></trkpt><trkpt lat="32.3201219" lon="-110.5434694"><ele>1256.5</ele><time>2026-05-02T14:52:46.31Z</time></trkpt><trkpt lat="32.3202424" lon="-110.5435336"><ele>1255.0</ele><time>2026-05-02T14:52:47.309Z</time></trkpt><trkpt lat="32.3203633" lon="-110.5435834"><ele>1255.0</ele><time>2026-05-02T14:52:48.31Z</time></trkpt><trkpt lat="32.3204841" lon="-110.5436266"><ele>1255.0</ele><time>2026-05-02T14:52:49.309Z</time></trkpt><trkpt lat="32.320595" lon="-110.5436368"><ele>1255.0</ele><time>2026-05-02T14:52:50.309Z</time></trkpt><trkpt lat="32.3207008" lon="-110.5436399"><ele>1255.0</ele><time>2026-05-02T14:52:51.309Z</time></trkpt><trkpt lat="32.3208097" lon="-110.5436354"><ele>1253.75</ele><time>2026-05-02T14:52:52.311Z</time></trkpt><trkpt lat="32.3209238" lon="-110.5436178"><ele>1252.5</ele><time>2026-05-02T14:52:53.311Z</time></trkpt><trkpt lat="32.3210364" lon="-110.5435924"><ele>1251.25</ele><time>2026-05-02T14:52:54.309Z</time></trkpt><trkpt lat="32.3211457" lon="-110.5435444"><ele>1250.0</ele><time>2026-05-02T14:52:55.31Z</time></trkpt><trkpt lat="32.3212546" lon="-110.5434925"><ele>1250.0</ele><time>2026-05-02T14:52:56.31Z</time></trkpt><trkpt lat="32.3213668" lon="-110.54345"><ele>1250.0</ele><time>2026-05-02T14:52:57.311Z</time></trkpt><trkpt lat="32.3214803" lon="-110.5434162"><ele>1250.0</ele><time>2026-05-02T14:52:58.31Z</time></trkpt><trkpt lat="32.3216057" lon="-110.5434092"><ele>1250.0</ele><time>2026-05-02T14:52:59.311Z</time></trkpt><trkpt lat="32.3217268" lon="-110.5434166"><ele>1248.4</ele><time>2026-05-02T14:53:00.31Z</time></trkpt><trkpt lat="32.3218373" lon="-110.5434183"><ele>1246.8</ele><time>2026-05-02T14:53:01.311Z</time></trkpt><trkpt lat="32.3219325" lon="-110.5433955"><ele>1245.2</ele><time>2026-05-02T14:53:02.31Z</time></trkpt><trkpt lat="32.322024" lon="-110.5433478"><ele>1243.6</ele><time>2026-05-02T14:53:03.31Z</time></trkpt><trkpt lat="32.3221138" lon="-110.5432811"><ele>1242.0</ele><time>2026-05-02T14:53:04.31Z</time></trkpt><trkpt lat="32.3222103" lon="-110.5432125"><ele>1239.4</ele><time>2026-05-02T14:53:05.31Z</time></trkpt><trkpt lat="32.3223165" lon="-110.5431655"><ele>1236.8000000000002</ele><time>2026-05-02T14:53:06.311Z</time></trkpt><trkpt lat="32.3224237" lon="-110.5431303"><ele>1234.2</ele><time>2026-05-02T14:53:07.31Z</time></trkpt><trkpt lat="32.3225359" lon="-110.5431286"><ele>1231.6000000000001</ele><time>2026-05-02T14:53:08.31Z</time></trkpt><trkpt lat="32.3226452" lon="-110.543147"><ele>1229.0</ele><time>2026-05-02T14:53:09.311Z</time></trkpt><trkpt lat="32.3227491" lon="-110.5431681"><ele>1229.0</ele><time>2026-05-02T14:53:10.31Z</time></trkpt><trkpt lat="32.3228479" lon="-110.5431748"><ele>1229.0</ele><time>2026-05-02T14:53:11.31Z</time></trkpt><trkpt lat="32.3229424" lon="-110.5431604"><ele>1229.0</ele><time>2026-05-02T14:53:12.311Z</time></trkpt><trkpt lat="32.3230369" lon="-110.5431396"><ele>1229.0</ele><time>2026-05-02T14:53:13.311Z</time></trkpt><trkpt lat="32.323137" lon="-110.5431361"><ele>1229.0</ele><time>2026-05-02T14:53:14.31Z</time></trkpt><trkpt lat="32.3232394" lon="-110.5431602"><ele>1226.25</ele><time>2026-05-02T14:53:15.31Z</time></trkpt><trkpt lat="32.3233441" lon="-110.5432099"><ele>1223.5</ele><time>2026-05-02T14:53:16.311Z</time></trkpt><trkpt lat="32.3234494" lon="-110.5432686"><ele>1220.75</ele><time>2026-05-02T14:53:17.31Z</time></trkpt><trkpt lat="32.3235556" lon="-110.5433278"><ele>1218.0</ele><time>2026-05-02T14:53:18.311Z</time></trkpt><trkpt lat="32.3236616" lon="-110.5433839"><ele>1218.0</ele><time>2026-05-02T14:53:19.31Z</time></trkpt><trkpt lat="32.3237638" lon="-110.5434467"><ele>1218.0</ele><time>2026-05-02T14:53:20.31Z</time></trkpt><trkpt lat="32.3238592" lon="-110.5435109"><ele>1218.0</ele><time>2026-05-02T14:53:21.311Z</time></trkpt><trkpt lat="32.3239321" lon="-110.5435717"><ele>1218.0</ele><time>2026-05-02T14:53:22.311Z</time></trkpt><trkpt lat="32.3240048" lon="-110.5436151"><ele>1218.0</ele><time>2026-05-02T14:53:23.31Z</time></trkpt><trkpt lat="32.3240831" lon="-110.5436351"><ele>1216.8333333333333</ele><time>2026-05-02T14:53:24.31Z</time></trkpt><trkpt lat="32.3241621" lon="-110.5436255"><ele>1215.6666666666667</ele><time>2026-05-02T14:53:25.31Z</time></trkpt><trkpt lat="32.3242339" lon="-110.543591"><ele>1214.5</ele><time>2026-05-02T14:53:26.31Z</time></trkpt><trkpt lat="32.3242963" lon="-110.5435336"><ele>1213.3333333333335</ele><time>2026-05-02T14:53:27.311Z</time></trkpt><trkpt lat="32.324347" lon="-110.5434547"><ele>1212.1666666666667</ele><time>2026-05-02T14:53:28.31Z</time></trkpt><trkpt lat="32.3243855" lon="-110.5433622"><ele>1211.0</ele><time>2026-05-02T14:53:29.311Z</time></trkpt><trkpt lat="32.3244153" lon="-110.543267"><ele>1211.0</ele><time>2026-05-02T14:53:30.31Z</time></trkpt><trkpt lat="32.3244498" lon="-110.5431703"><ele>1211.0</ele><time>2026-05-02T14:53:31.311Z</time></trkpt><trkpt lat="32.3244962" lon="-110.5430766"><ele>1211.0</ele><time>2026-05-02T14:53:32.31Z</time></trkpt><trkpt lat="32.3245542" lon="-110.5429942"><ele>1211.0</ele><time>2026-05-02T14:53:33.31Z</time></trkpt><trkpt lat="32.3246226" lon="-110.5429305"><ele>1211.0</ele><time>2026-05-02T14:53:34.31Z</time></trkpt><trkpt lat="32.3247002" lon="-110.5428858"><ele>1211.0</ele><time>2026-05-02T14:53:35.311Z</time></trkpt><trkpt lat="32.324792" lon="-110.5428628"><ele>1210.0</ele><time>2026-05-02T14:53:36.31Z</time></trkpt><trkpt lat="32.3248913" lon="-110.5428483"><ele>1209.0</ele><time>2026-05-02T14:53:37.311Z</time></trkpt><trkpt lat="32.3250142" lon="-110.5428723"><ele>1208.0</ele><time>2026-05-02T14:53:38.31Z</time></trkpt><trkpt lat="32.3251427" lon="-110.5429029"><ele>1207.0</ele><time>2026-05-02T14:53:39.31Z</time></trkpt><trkpt lat="32.3252649" lon="-110.5429288"><ele>1207.0</ele><time>2026-05-02T14:53:40.311Z</time></trkpt><trkpt lat="32.3253701" lon="-110.5429369"><ele>1207.0</ele><time>2026-05-02T14:53:41.311Z</time></trkpt><trkpt lat="32.3254639" lon="-110.5429318"><ele>1207.0</ele><time>2026-05-02T14:53:42.311Z</time></trkpt><trkpt lat="32.3255404" lon="-110.5429094"><ele>1207.0</ele><time>2026-05-02T14:53:43.311Z</time></trkpt><trkpt lat="32.3256074" lon="-110.5428697"><ele>1207.0</ele><time>2026-05-02T14:53:44.31Z</time></trkpt><trkpt lat="32.3256749" lon="-110.5428212"><ele>1207.0</ele><time>2026-05-02T14:53:45.311Z</time></trkpt><trkpt lat="32.3257422" lon="-110.5427291"><ele>1206.5</ele><time>2026-05-02T14:53:46.311Z</time></trkpt><trkpt lat="32.3258068" lon="-110.5426187"><ele>1206.0</ele><time>2026-05-02T14:53:47.31Z</time></trkpt><trkpt lat="32.325874" lon="-110.5424976"><ele>1205.5</ele><time>2026-05-02T14:53:48.311Z</time></trkpt><trkpt lat="32.3259449" lon="-110.5423834"><ele>1205.0</ele><time>2026-05-02T14:53:49.31Z</time></trkpt><trkpt lat="32.3260217" lon="-110.5422847"><ele>1205.0</ele><time>2026-05-02T14:53:50.31Z</time></trkpt><trkpt lat="32.3261066" lon="-110.5422017"><ele>1205.0</ele><time>2026-05-02T14:53:51.31Z</time></trkpt><trkpt lat="32.3262036" lon="-110.5421332"><ele>1205.0</ele><time>2026-05-02T14:53:52.311Z</time></trkpt><trkpt lat="32.3263033" lon="-110.5420689"><ele>1205.0</ele><time>2026-05-02T14:53:53.311Z</time></trkpt><trkpt lat="32.3264133" lon="-110.5420353"><ele>1204.25</ele><time>2026-05-02T14:53:54.311Z</time></trkpt><trkpt lat="32.3265365" lon="-110.5420156"><ele>1203.5</ele><time>2026-05-02T14:53:55.31Z</time></trkpt><trkpt lat="32.3266657" lon="-110.5420048"><ele>1202.75</ele><time>2026-05-02T14:53:56.31Z</time></trkpt><trkpt lat="32.3267946" lon="-110.541995"><ele>1202.0</ele><time>2026-05-02T14:53:57.311Z</time></trkpt><trkpt lat="32.3269188" lon="-110.541985"><ele>1202.0</ele><time>2026-05-02T14:53:58.31Z</time></trkpt><trkpt lat="32.3270267" lon="-110.5419813"><ele>1202.0</ele><time>2026-05-02T14:53:59.31Z</time></trkpt><trkpt lat="32.3271173" lon="-110.5419966"><ele>1202.0</ele><time>2026-05-02T14:54:00.311Z</time></trkpt><trkpt lat="32.3272102" lon="-110.5420209"><ele>1202.0</ele><time>2026-05-02T14:54:01.311Z</time></trkpt><trkpt lat="32.3273122" lon="-110.542076"><ele>1202.0</ele><time>2026-05-02T14:54:02.31Z</time></trkpt><trkpt lat="32.3274353" lon="-110.542147"><ele>1200.75</ele><time>2026-05-02T14:54:03.311Z</time></trkpt><trkpt lat="32.3275667" lon="-110.5422202"><ele>1199.5</ele><time>2026-05-02T14:54:04.31Z</time></trkpt><trkpt lat="32.3277048" lon="-110.542295"><ele>1198.25</ele><time>2026-05-02T14:54:05.312Z</time></trkpt><trkpt lat="32.3278356" lon="-110.5423603"><ele>1197.0</ele><time>2026-05-02T14:54:06.31Z</time></trkpt><trkpt lat="32.3279583" lon="-110.5424123"><ele>1197.0</ele><time>2026-05-02T14:54:07.311Z</time></trkpt><trkpt lat="32.328082" lon="-110.5424485"><ele>1197.0</ele><time>2026-05-02T14:54:08.31Z</time></trkpt><trkpt lat="32.3282088" lon="-110.5424685"><ele>1197.0</ele><time>2026-05-02T14:54:09.311Z</time></trkpt><trkpt lat="32.3283418" lon="-110.5424763"><ele>1197.0</ele><time>2026-05-02T14:54:10.31Z</time></trkpt><trkpt lat="32.3284652" lon="-110.5424704"><ele>1197.0</ele><time>2026-05-02T14:54:11.312Z</time></trkpt><trkpt lat="32.3285789" lon="-110.5424595"><ele>1197.0</ele><time>2026-05-02T14:54:12.311Z</time></trkpt><trkpt lat="32.3286878" lon="-110.5424508"><ele>1197.0</ele><time>2026-05-02T14:54:13.311Z</time></trkpt><trkpt lat="32.3287899" lon="-110.5424355"><ele>1197.0</ele><time>2026-05-02T14:54:14.312Z</time></trkpt><trkpt lat="32.3288889" lon="-110.5424033"><ele>1197.0</ele><time>2026-05-02T14:54:15.311Z</time></trkpt><trkpt lat="32.3289825" lon="-110.5423415"><ele>1196.4</ele><time>2026-05-02T14:54:16.311Z</time></trkpt><trkpt lat="32.3290703" lon="-110.5422712"><ele>1195.8000000000002</ele><time>2026-05-02T14:54:17.31Z</time></trkpt><trkpt lat="32.3291276" lon="-110.5421702"><ele>1195.2</ele><time>2026-05-02T14:54:18.311Z</time></trkpt><trkpt lat="32.3291698" lon="-110.5420535"><ele>1194.6000000000001</ele><time>2026-05-02T14:54:19.312Z</time></trkpt><trkpt lat="32.329203" lon="-110.5419129"><ele>1194.0</ele><time>2026-05-02T14:54:20.31Z</time></trkpt><trkpt lat="32.3292288" lon="-110.5417463"><ele>1194.0</ele><time>2026-05-02T14:54:21.311Z</time></trkpt><trkpt lat="32.3292521" lon="-110.5415713"><ele>1194.0</ele><time>2026-05-02T14:54:22.311Z</time></trkpt><trkpt lat="32.3292713" lon="-110.5414014"><ele>1194.0</ele><time>2026-05-02T14:54:23.31Z</time></trkpt><trkpt lat="32.3292851" lon="-110.5412344"><ele>1194.0</ele><time>2026-05-02T14:54:24.31Z</time></trkpt><trkpt lat="32.3292922" lon="-110.5410651"><ele>1193.6666666666667</ele><time>2026-05-02T14:54:25.311Z</time></trkpt><trkpt lat="32.3292921" lon="-110.5408915"><ele>1193.3333333333335</ele><time>2026-05-02T14:54:26.312Z</time></trkpt><trkpt lat="32.3292819" lon="-110.54071"><ele>1193.0</ele><time>2026-05-02T14:54:27.312Z</time></trkpt><trkpt lat="32.3292669" lon="-110.5405247"><ele>1192.5</ele><time>2026-05-02T14:54:28.311Z</time></trkpt><trkpt lat="32.329256" lon="-110.5403485"><ele>1192.0</ele><time>2026-05-02T14:54:29.311Z</time></trkpt><trkpt lat="32.329244" lon="-110.540173"><ele>1191.5</ele><time>2026-05-02T14:54:30.312Z</time></trkpt><trkpt lat="32.3292299" lon="-110.5399981"><ele>1191.0</ele><time>2026-05-02T14:54:31.312Z</time></trkpt><trkpt lat="32.3292085" lon="-110.5398208"><ele>1191.0</ele><time>2026-05-02T14:54:32.312Z</time></trkpt><trkpt lat="32.3291869" lon="-110.5396369"><ele>1191.0</ele><time>2026-05-02T14:54:33.311Z</time></trkpt><trkpt lat="32.3291647" lon="-110.5394511"><ele>1191.0</ele><time>2026-05-02T14:54:34.311Z</time></trkpt><trkpt lat="32.3291388" lon="-110.5392511"><ele>1190.3333333333333</ele><time>2026-05-02T14:54:35.312Z</time></trkpt><trkpt lat="32.3291103" lon="-110.5390446"><ele>1189.6666666666665</ele><time>2026-05-02T14:54:36.312Z</time></trkpt><trkpt lat="32.3290822" lon="-110.5388395"><ele>1189.0</ele><time>2026-05-02T14:54:37.312Z</time></trkpt><trkpt lat="32.3290536" lon="-110.5386421"><ele>1189.0</ele><time>2026-05-02T14:54:38.312Z</time></trkpt><trkpt lat="32.3290258" lon="-110.5384491"><ele>1189.0</ele><time>2026-05-02T14:54:39.311Z</time></trkpt><trkpt lat="32.3289978" lon="-110.5382606"><ele>1189.0</ele><time>2026-05-02T14:54:40.311Z</time></trkpt><trkpt lat="32.3289696" lon="-110.53808"><ele>1189.0</ele><time>2026-05-02T14:54:41.312Z</time></trkpt><trkpt lat="32.3289405" lon="-110.5379105"><ele>1189.0</ele><time>2026-05-02T14:54:42.311Z</time></trkpt><trkpt lat="32.328913" lon="-110.5377492"><ele>1189.0</ele><time>2026-05-02T14:54:43.312Z</time></trkpt><trkpt lat="32.3288939" lon="-110.537596"><ele>1189.0</ele><time>2026-05-02T14:54:44.312Z</time></trkpt><trkpt lat="32.3288881" lon="-110.5374382"><ele>1189.0</ele><time>2026-05-02T14:54:45.311Z</time></trkpt><trkpt lat="32.3288944" lon="-110.5372784"><ele>1189.0</ele><time>2026-05-02T14:54:46.312Z</time></trkpt><trkpt lat="32.328917" lon="-110.5371205"><ele>1189.0</ele><time>2026-05-02T14:54:47.311Z</time></trkpt><trkpt lat="32.3289566" lon="-110.5369628"><ele>1189.0</ele><time>2026-05-02T14:54:48.312Z</time></trkpt><trkpt lat="32.3290104" lon="-110.5368026"><ele>1188.6666666666665</ele><time>2026-05-02T14:54:49.312Z</time></trkpt><trkpt lat="32.3290784" lon="-110.5366376"><ele>1188.3333333333333</ele><time>2026-05-02T14:54:50.312Z</time></trkpt><trkpt lat="32.3291467" lon="-110.5364736"><ele>1188.0</ele><time>2026-05-02T14:54:51.311Z</time></trkpt><trkpt lat="32.3292046" lon="-110.5363152"><ele>1188.75</ele><time>2026-05-02T14:54:52.311Z</time></trkpt><trkpt lat="32.3292572" lon="-110.5361557"><ele>1189.5</ele><time>2026-05-02T14:54:53.312Z</time></trkpt><trkpt lat="32.3293149" lon="-110.5359993"><ele>1190.25</ele><time>2026-05-02T14:54:54.312Z</time></trkpt><trkpt lat="32.3293792" lon="-110.5358558"><ele>1191.0</ele><time>2026-05-02T14:54:55.311Z</time></trkpt><trkpt lat="32.3294444" lon="-110.5357324"><ele>1191.0</ele><time>2026-05-02T14:54:56.312Z</time></trkpt><trkpt lat="32.3295085" lon="-110.535631"><ele>1191.0</ele><time>2026-05-02T14:54:57.311Z</time></trkpt><trkpt lat="32.3295745" lon="-110.5355525"><ele>1191.0</ele><time>2026-05-02T14:54:58.311Z</time></trkpt><trkpt lat="32.3296488" lon="-110.5354923"><ele>1191.0</ele><time>2026-05-02T14:54:59.312Z</time></trkpt><trkpt lat="32.3297341" lon="-110.535447"><ele>1191.0</ele><time>2026-05-02T14:55:00.311Z</time></trkpt><trkpt lat="32.3298303" lon="-110.5354199"><ele>1191.2</ele><time>2026-05-02T14:55:01.312Z</time></trkpt><trkpt lat="32.3299253" lon="-110.5354145"><ele>1191.3999999999999</ele><time>2026-05-02T14:55:02.312Z</time></trkpt><trkpt lat="32.3300193" lon="-110.5354317"><ele>1191.6</ele><time>2026-05-02T14:55:03.312Z</time></trkpt><trkpt lat="32.3301121" lon="-110.5354707"><ele>1191.8</ele><time>2026-05-02T14:55:04.312Z</time></trkpt><trkpt lat="32.3302055" lon="-110.5355273"><ele>1192.0</ele><time>2026-05-02T14:55:05.311Z</time></trkpt><trkpt lat="32.3303053" lon="-110.5355941"><ele>1192.0</ele><time>2026-05-02T14:55:06.311Z</time></trkpt><trkpt lat="32.3304121" lon="-110.5356556"><ele>1192.0</ele><time>2026-05-02T14:55:07.311Z</time></trkpt><trkpt lat="32.3305212" lon="-110.5357133"><ele>1192.0</ele><time>2026-05-02T14:55:08.312Z</time></trkpt><trkpt lat="32.3306235" lon="-110.5357615"><ele>1192.0</ele><time>2026-05-02T14:55:09.312Z</time></trkpt><trkpt lat="32.3307159" lon="-110.5358172"><ele>1193.2</ele><time>2026-05-02T14:55:10.312Z</time></trkpt><trkpt lat="32.3307866" lon="-110.5358764"><ele>1194.4</ele><time>2026-05-02T14:55:11.312Z</time></trkpt><trkpt lat="32.3308511" lon="-110.5359523"><ele>1195.6</ele><time>2026-05-02T14:55:12.312Z</time></trkpt><trkpt lat="32.3309118" lon="-110.5360415"><ele>1196.8</ele><time>2026-05-02T14:55:13.311Z</time></trkpt><trkpt lat="32.3309687" lon="-110.5361301"><ele>1198.0</ele><time>2026-05-02T14:55:14.312Z</time></trkpt><trkpt lat="32.331033" lon="-110.5362175"><ele>1198.0</ele><time>2026-05-02T14:55:15.312Z</time></trkpt><trkpt lat="32.3311099" lon="-110.5362978"><ele>1198.0</ele><time>2026-05-02T14:55:16.312Z</time></trkpt><trkpt lat="32.3311984" lon="-110.5363665"><ele>1198.0</ele><time>2026-05-02T14:55:17.311Z</time></trkpt><trkpt lat="32.3312956" lon="-110.5364224"><ele>1198.0</ele><time>2026-05-02T14:55:18.311Z</time></trkpt><trkpt lat="32.3313974" lon="-110.5364628"><ele>1198.0</ele><time>2026-05-02T14:55:19.311Z</time></trkpt><trkpt lat="32.3314976" lon="-110.5364929"><ele>1198.0</ele><time>2026-05-02T14:55:20.311Z</time></trkpt><trkpt lat="32.3315959" lon="-110.5365291"><ele>1198.0</ele><time>2026-05-02T14:55:21.312Z</time></trkpt><trkpt lat="32.3316902" lon="-110.5365807"><ele>1198.0</ele><time>2026-05-02T14:55:22.312Z</time></trkpt><trkpt lat="32.3317809" lon="-110.5366438"><ele>1198.0</ele><time>2026-05-02T14:55:23.312Z</time></trkpt><trkpt lat="32.3318675" lon="-110.5367142"><ele>1198.0</ele><time>2026-05-02T14:55:24.312Z</time></trkpt><trkpt lat="32.3319448" lon="-110.5367912"><ele>1198.0</ele><time>2026-05-02T14:55:25.312Z</time></trkpt><trkpt lat="32.3320113" lon="-110.5368782"><ele>1198.0</ele><time>2026-05-02T14:55:26.312Z</time></trkpt><trkpt lat="32.3320674" lon="-110.5369712"><ele>1198.0</ele><time>2026-05-02T14:55:27.311Z</time></trkpt><trkpt lat="32.3321203" lon="-110.5370632"><ele>1198.0</ele><time>2026-05-02T14:55:28.312Z</time></trkpt><trkpt lat="32.3321806" lon="-110.5371473"><ele>1198.0</ele><time>2026-05-02T14:55:29.313Z</time></trkpt><trkpt lat="32.332252" lon="-110.5372118"><ele>1197.2</ele><time>2026-05-02T14:55:30.311Z</time></trkpt><trkpt lat="32.3323379" lon="-110.5372617"><ele>1196.4</ele><time>2026-05-02T14:55:31.311Z</time></trkpt><trkpt lat="32.332435" lon="-110.5373015"><ele>1195.6000000000001</ele><time>2026-05-02T14:55:32.311Z</time></trkpt><trkpt lat="32.3325322" lon="-110.5373381"><ele>1194.8</ele><time>2026-05-02T14:55:33.311Z</time></trkpt><trkpt lat="32.3326249" lon="-110.5373836"><ele>1194.0</ele><time>2026-05-02T14:55:34.311Z</time></trkpt><trkpt lat="32.332716" lon="-110.5374461"><ele>1194.0</ele><time>2026-05-02T14:55:35.312Z</time></trkpt><trkpt lat="32.3328041" lon="-110.5375246"><ele>1194.0</ele><time>2026-05-02T14:55:36.312Z</time></trkpt><trkpt lat="32.3328871" lon="-110.5376134"><ele>1194.0</ele><time>2026-05-02T14:55:37.313Z</time></trkpt><trkpt lat="32.3329621" lon="-110.5377143"><ele>1194.0</ele><time>2026-05-02T14:55:38.311Z</time></trkpt><trkpt lat="32.3330296" lon="-110.5378351"><ele>1192.0</ele><time>2026-05-02T14:55:39.313Z</time></trkpt><trkpt lat="32.3330897" lon="-110.5379737"><ele>1190.0</ele><time>2026-05-02T14:55:40.311Z</time></trkpt><trkpt lat="32.3331446" lon="-110.5381247"><ele>1188.0</ele><time>2026-05-02T14:55:41.313Z</time></trkpt><trkpt lat="32.3331938" lon="-110.5382714"><ele>1186.0</ele><time>2026-05-02T14:55:42.313Z</time></trkpt><trkpt lat="32.3332402" lon="-110.5384101"><ele>1186.0</ele><time>2026-05-02T14:55:43.311Z</time></trkpt><trkpt lat="32.3332863" lon="-110.5385455"><ele>1186.0</ele><time>2026-05-02T14:55:44.311Z</time></trkpt><trkpt lat="32.3333394" lon="-110.5386748"><ele>1186.0</ele><time>2026-05-02T14:55:45.311Z</time></trkpt><trkpt lat="32.3333998" lon="-110.5388045"><ele>1186.0</ele><time>2026-05-02T14:55:46.311Z</time></trkpt><trkpt lat="32.3334653" lon="-110.5389249"><ele>1185.25</ele><time>2026-05-02T14:55:47.312Z</time></trkpt><trkpt lat="32.3335387" lon="-110.539039"><ele>1184.5</ele><time>2026-05-02T14:55:48.311Z</time></trkpt><trkpt lat="32.3336198" lon="-110.5391506"><ele>1183.75</ele><time>2026-05-02T14:55:49.313Z</time></trkpt><trkpt lat="32.3337017" lon="-110.5392559"><ele>1183.0</ele><time>2026-05-02T14:55:50.313Z</time></trkpt><trkpt lat="32.3337867" lon="-110.5393533"><ele>1183.0</ele><time>2026-05-02T14:55:51.313Z</time></trkpt><trkpt lat="32.3338693" lon="-110.539438"><ele>1183.0</ele><time>2026-05-02T14:55:52.311Z</time></trkpt><trkpt lat="32.3339451" lon="-110.5395137"><ele>1183.0</ele><time>2026-05-02T14:55:53.313Z</time></trkpt><trkpt lat="32.3340193" lon="-110.5395828"><ele>1183.0</ele><time>2026-05-02T14:55:54.313Z</time></trkpt><trkpt lat="32.3341028" lon="-110.5396477"><ele>1183.0</ele><time>2026-05-02T14:55:55.313Z</time></trkpt><trkpt lat="32.334203" lon="-110.5397095"><ele>1181.5</ele><time>2026-05-02T14:55:56.313Z</time></trkpt><trkpt lat="32.3343117" lon="-110.5397744"><ele>1180.0</ele><time>2026-05-02T14:55:57.313Z</time></trkpt><trkpt lat="32.3344369" lon="-110.5398349"><ele>1178.5</ele><time>2026-05-02T14:55:58.313Z</time></trkpt><trkpt lat="32.3345606" lon="-110.539886"><ele>1177.0</ele><time>2026-05-02T14:55:59.313Z</time></trkpt><trkpt lat="32.3346775" lon="-110.5399285"><ele>1176.75</ele><time>2026-05-02T14:56:00.312Z</time></trkpt><trkpt lat="32.334792" lon="-110.5399651"><ele>1176.5</ele><time>2026-05-02T14:56:01.313Z</time></trkpt><trkpt lat="32.3349072" lon="-110.5399791"><ele>1176.25</ele><time>2026-05-02T14:56:02.313Z</time></trkpt><trkpt lat="32.3350287" lon="-110.5399872"><ele>1176.0</ele><time>2026-05-02T14:56:03.313Z</time></trkpt><trkpt lat="32.3351622" lon="-110.5399757"><ele>1176.0</ele><time>2026-05-02T14:56:04.312Z</time></trkpt><trkpt lat="32.3352959" lon="-110.5399682"><ele>1176.0</ele><time>2026-05-02T14:56:05.313Z</time></trkpt><trkpt lat="32.3354337" lon="-110.5399627"><ele>1176.0</ele><time>2026-05-02T14:56:06.312Z</time></trkpt><trkpt lat="32.3355775" lon="-110.5399546"><ele>1176.0</ele><time>2026-05-02T14:56:07.313Z</time></trkpt><trkpt lat="32.3357253" lon="-110.5399483"><ele>1176.75</ele><time>2026-05-02T14:56:08.312Z</time></trkpt><trkpt lat="32.3358709" lon="-110.539946"><ele>1177.5</ele><time>2026-05-02T14:56:09.312Z</time></trkpt><trkpt lat="32.3360136" lon="-110.5399571"><ele>1178.25</ele><time>2026-05-02T14:56:10.313Z</time></trkpt><trkpt lat="32.3361503" lon="-110.5399856"><ele>1179.0</ele><time>2026-05-02T14:56:11.313Z</time></trkpt><trkpt lat="32.3362859" lon="-110.5400344"><ele>1179.25</ele><time>2026-05-02T14:56:12.313Z</time></trkpt><trkpt lat="32.3364225" lon="-110.5401023"><ele>1179.5</ele><time>2026-05-02T14:56:13.312Z</time></trkpt><trkpt lat="32.3365581" lon="-110.5401828"><ele>1179.75</ele><time>2026-05-02T14:56:14.312Z</time></trkpt><trkpt lat="32.3366881" lon="-110.5402593"><ele>1180.0</ele><time>2026-05-02T14:56:15.313Z</time></trkpt><trkpt lat="32.3368196" lon="-110.5403259"><ele>1180.0</ele><time>2026-05-02T14:56:16.312Z</time></trkpt><trkpt lat="32.3369522" lon="-110.5403773"><ele>1180.0</ele><time>2026-05-02T14:56:17.313Z</time></trkpt><trkpt lat="32.3370753" lon="-110.5404156"><ele>1180.0</ele><time>2026-05-02T14:56:18.312Z</time></trkpt><trkpt lat="32.3371912" lon="-110.540449"><ele>1180.0</ele><time>2026-05-02T14:56:19.312Z</time></trkpt><trkpt lat="32.3373077" lon="-110.5404826"><ele>1181.4</ele><time>2026-05-02T14:56:20.313Z</time></trkpt><trkpt lat="32.3374122" lon="-110.5405158"><ele>1182.8</ele><time>2026-05-02T14:56:21.313Z</time></trkpt><trkpt lat="32.3375155" lon="-110.5405465"><ele>1184.2</ele><time>2026-05-02T14:56:22.312Z</time></trkpt><trkpt lat="32.3376099" lon="-110.5405933"><ele>1185.6</ele><time>2026-05-02T14:56:23.313Z</time></trkpt><trkpt lat="32.3377045" lon="-110.5406425"><ele>1187.0</ele><time>2026-05-02T14:56:24.313Z</time></trkpt><trkpt lat="32.3377973" lon="-110.5406875"><ele>1187.0</ele><time>2026-05-02T14:56:25.313Z</time></trkpt><trkpt lat="32.3378947" lon="-110.5407023"><ele>1187.0</ele><time>2026-05-02T14:56:26.313Z</time></trkpt><trkpt lat="32.3379985" lon="-110.5406928"><ele>1187.0</ele><time>2026-05-02T14:56:27.312Z</time></trkpt><trkpt lat="32.3381064" lon="-110.540662"><ele>1187.0</ele><time>2026-05-02T14:56:28.312Z</time></trkpt><trkpt lat="32.3382146" lon="-110.5406245"><ele>1187.0</ele><time>2026-05-02T14:56:29.312Z</time></trkpt><trkpt lat="32.3383109" lon="-110.5405799"><ele>1187.0</ele><time>2026-05-02T14:56:30.313Z</time></trkpt><trkpt lat="32.3384045" lon="-110.5405502"><ele>1187.0</ele><time>2026-05-02T14:56:31.312Z</time></trkpt><trkpt lat="32.3384975" lon="-110.540543"><ele>1187.0</ele><time>2026-05-02T14:56:32.312Z</time></trkpt><trkpt lat="32.3385906" lon="-110.5405546"><ele>1187.0</ele><time>2026-05-02T14:56:33.313Z</time></trkpt><trkpt lat="32.3386838" lon="-110.5405846"><ele>1187.0</ele><time>2026-05-02T14:56:34.313Z</time></trkpt><trkpt lat="32.3387794" lon="-110.5406197"><ele>1187.0</ele><time>2026-05-02T14:56:35.313Z</time></trkpt><trkpt lat="32.3388806" lon="-110.5406496"><ele>1187.0</ele><time>2026-05-02T14:56:36.313Z</time></trkpt><trkpt lat="32.3389878" lon="-110.5406594"><ele>1187.0</ele><time>2026-05-02T14:56:37.312Z</time></trkpt><trkpt lat="32.3390996" lon="-110.5406494"><ele>1187.0</ele><time>2026-05-02T14:56:38.313Z</time></trkpt><trkpt lat="32.3392115" lon="-110.5406208"><ele>1187.0</ele><time>2026-05-02T14:56:39.313Z</time></trkpt><trkpt lat="32.3393194" lon="-110.5405983"><ele>1187.5</ele><time>2026-05-02T14:56:40.313Z</time></trkpt><trkpt lat="32.3394279" lon="-110.5405931"><ele>1188.0</ele><time>2026-05-02T14:56:41.312Z</time></trkpt><trkpt lat="32.3395398" lon="-110.540611"><ele>1188.5</ele><time>2026-05-02T14:56:42.313Z</time></trkpt><trkpt lat="32.3396614" lon="-110.5406489"><ele>1189.0</ele><time>2026-05-02T14:56:43.312Z</time></trkpt><trkpt lat="32.3397897" lon="-110.5406987"><ele>1189.5</ele><time>2026-05-02T14:56:44.313Z</time></trkpt><trkpt lat="32.3399246" lon="-110.5407461"><ele>1190.0</ele><time>2026-05-02T14:56:45.312Z</time></trkpt><trkpt lat="32.3400632" lon="-110.5407886"><ele>1190.5</ele><time>2026-05-02T14:56:46.313Z</time></trkpt><trkpt lat="32.340205" lon="-110.540805"><ele>1191.0</ele><time>2026-05-02T14:56:47.312Z</time></trkpt><trkpt lat="32.340343" lon="-110.540812"><ele>1191.0</ele><time>2026-05-02T14:56:48.312Z</time></trkpt><trkpt lat="32.3404694" lon="-110.5408142"><ele>1191.0</ele><time>2026-05-02T14:56:49.313Z</time></trkpt><trkpt lat="32.3405865" lon="-110.540807"><ele>1191.0</ele><time>2026-05-02T14:56:50.312Z</time></trkpt><trkpt lat="32.340702" lon="-110.5407827"><ele>1191.0</ele><time>2026-05-02T14:56:51.312Z</time></trkpt><trkpt lat="32.3408191" lon="-110.5407464"><ele>1191.6</ele><time>2026-05-02T14:56:52.312Z</time></trkpt><trkpt lat="32.3409333" lon="-110.5407048"><ele>1192.1999999999998</ele><time>2026-05-02T14:56:53.312Z</time></trkpt><trkpt lat="32.3410259" lon="-110.5406433"><ele>1192.8000000000002</ele><time>2026-05-02T14:56:54.313Z</time></trkpt><trkpt lat="32.3411005" lon="-110.5405707"><ele>1193.4</ele><time>2026-05-02T14:56:55.313Z</time></trkpt><trkpt lat="32.3411673" lon="-110.5404837"><ele>1194.0</ele><time>2026-05-02T14:56:56.312Z</time></trkpt><trkpt lat="32.3412305" lon="-110.5403732"><ele>1194.0</ele><time>2026-05-02T14:56:57.313Z</time></trkpt><trkpt lat="32.3412876" lon="-110.5402552"><ele>1194.0</ele><time>2026-05-02T14:56:58.314Z</time></trkpt><trkpt lat="32.3413488" lon="-110.5401491"><ele>1194.0</ele><time>2026-05-02T14:56:59.314Z</time></trkpt><trkpt lat="32.3414211" lon="-110.5400568"><ele>1194.0</ele><time>2026-05-02T14:57:00.312Z</time></trkpt><trkpt lat="32.3415028" lon="-110.5399779"><ele>1194.0</ele><time>2026-05-02T14:57:01.313Z</time></trkpt><trkpt lat="32.3415986" lon="-110.5399118"><ele>1195.25</ele><time>2026-05-02T14:57:02.312Z</time></trkpt><trkpt lat="32.3417094" lon="-110.5398569"><ele>1196.5</ele><time>2026-05-02T14:57:03.313Z</time></trkpt><trkpt lat="32.3418401" lon="-110.539807"><ele>1197.75</ele><time>2026-05-02T14:57:04.313Z</time></trkpt><trkpt lat="32.3419755" lon="-110.5397599"><ele>1199.0</ele><time>2026-05-02T14:57:05.314Z</time></trkpt><trkpt lat="32.342105" lon="-110.5397163"><ele>1200.0</ele><time>2026-05-02T14:57:06.313Z</time></trkpt><trkpt lat="32.3422261" lon="-110.5396808"><ele>1201.0</ele><time>2026-05-02T14:57:07.313Z</time></trkpt><trkpt lat="32.3423404" lon="-110.539658"><ele>1202.0</ele><time>2026-05-02T14:57:08.312Z</time></trkpt><trkpt lat="32.3424479" lon="-110.5396512"><ele>1203.0</ele><time>2026-05-02T14:57:09.313Z</time></trkpt><trkpt lat="32.3425482" lon="-110.5396617"><ele>1204.0</ele><time>2026-05-02T14:57:10.314Z</time></trkpt><trkpt lat="32.3426517" lon="-110.5396939"><ele>1204.0</ele><time>2026-05-02T14:57:11.313Z</time></trkpt><trkpt lat="32.3427611" lon="-110.5397478"><ele>1204.0</ele><time>2026-05-02T14:57:12.313Z</time></trkpt><trkpt lat="32.3428818" lon="-110.5398193"><ele>1204.0</ele><time>2026-05-02T14:57:13.314Z</time></trkpt><trkpt lat="32.3430099" lon="-110.5398937"><ele>1204.0</ele><time>2026-05-02T14:57:14.314Z</time></trkpt><trkpt lat="32.3431378" lon="-110.5399628"><ele>1204.25</ele><time>2026-05-02T14:57:15.313Z</time></trkpt><trkpt lat="32.3432643" lon="-110.5400297"><ele>1204.5</ele><time>2026-05-02T14:57:16.312Z</time></trkpt><trkpt lat="32.3433884" lon="-110.5400974"><ele>1204.75</ele><time>2026-05-02T14:57:17.314Z</time></trkpt><trkpt lat="32.3435108" lon="-110.5401631"><ele>1205.0</ele><time>2026-05-02T14:57:18.312Z</time></trkpt><trkpt lat="32.3436255" lon="-110.5402285"><ele>1205.0</ele><time>2026-05-02T14:57:19.313Z</time></trkpt><trkpt lat="32.3437366" lon="-110.5402925"><ele>1205.0</ele><time>2026-05-02T14:57:20.312Z</time></trkpt><trkpt lat="32.3438466" lon="-110.5403567"><ele>1205.0</ele><time>2026-05-02T14:57:21.312Z</time></trkpt><trkpt lat="32.3439521" lon="-110.5404161"><ele>1205.0</ele><time>2026-05-02T14:57:22.313Z</time></trkpt><trkpt lat="32.3440545" lon="-110.5404715"><ele>1205.8</ele><time>2026-05-02T14:57:23.314Z</time></trkpt><trkpt lat="32.3441536" lon="-110.5405246"><ele>1206.6</ele><time>2026-05-02T14:57:24.314Z</time></trkpt><trkpt lat="32.3442447" lon="-110.5405703"><ele>1207.4</ele><time>2026-05-02T14:57:25.313Z</time></trkpt><trkpt lat="32.3443201" lon="-110.5406076"><ele>1208.2</ele><time>2026-05-02T14:57:26.313Z</time></trkpt><trkpt lat="32.3443822" lon="-110.5406383"><ele>1209.0</ele><time>2026-05-02T14:57:27.314Z</time></trkpt><trkpt lat="32.3444952" lon="-110.5406895"><ele>1209.0</ele><time>2026-05-02T14:57:29.313Z</time></trkpt><trkpt lat="32.3445551" lon="-110.5407154"><ele>1209.0</ele><time>2026-05-02T14:57:30.314Z</time></trkpt><trkpt lat="32.3446179" lon="-110.5407407"><ele>1209.0</ele><time>2026-05-02T14:57:31.313Z</time></trkpt><trkpt lat="32.3446833" lon="-110.5407674"><ele>1209.0</ele><time>2026-05-02T14:57:32.313Z</time></trkpt><trkpt lat="32.3447507" lon="-110.5407981"><ele>1209.0</ele><time>2026-05-02T14:57:33.313Z</time></trkpt><trkpt lat="32.3448164" lon="-110.540831"><ele>1209.0</ele><time>2026-05-02T14:57:34.314Z</time></trkpt><trkpt lat="32.3448826" lon="-110.5408583"><ele>1209.0</ele><time>2026-05-02T14:57:35.313Z</time></trkpt><trkpt lat="32.3449525" lon="-110.5408779"><ele>1210.2</ele><time>2026-05-02T14:57:36.313Z</time></trkpt><trkpt lat="32.3450297" lon="-110.5408927"><ele>1211.4</ele><time>2026-05-02T14:57:37.313Z</time></trkpt><trkpt lat="32.3451164" lon="-110.5409044"><ele>1212.6</ele><time>2026-05-02T14:57:38.314Z</time></trkpt><trkpt lat="32.345213" lon="-110.5409158"><ele>1213.8</ele><time>2026-05-02T14:57:39.314Z</time></trkpt><trkpt lat="32.345315" lon="-110.5409258"><ele>1215.0</ele><time>2026-05-02T14:57:40.314Z</time></trkpt><trkpt lat="32.3454237" lon="-110.5409357"><ele>1215.0</ele><time>2026-05-02T14:57:41.313Z</time></trkpt><trkpt lat="32.3455412" lon="-110.5409439"><ele>1215.0</ele><time>2026-05-02T14:57:42.313Z</time></trkpt><trkpt lat="32.3456697" lon="-110.5409482"><ele>1215.0</ele><time>2026-05-02T14:57:43.314Z</time></trkpt><trkpt lat="32.3458028" lon="-110.5409488"><ele>1215.0</ele><time>2026-05-02T14:57:44.313Z</time></trkpt><trkpt lat="32.345935" lon="-110.5409445"><ele>1217.75</ele><time>2026-05-02T14:57:45.313Z</time></trkpt><trkpt lat="32.3460689" lon="-110.5409325"><ele>1220.5</ele><time>2026-05-02T14:57:46.313Z</time></trkpt><trkpt lat="32.3462046" lon="-110.5409135"><ele>1223.25</ele><time>2026-05-02T14:57:47.313Z</time></trkpt><trkpt lat="32.3463423" lon="-110.5408909"><ele>1226.0</ele><time>2026-05-02T14:57:48.313Z</time></trkpt><trkpt lat="32.3464754" lon="-110.5408627"><ele>1228.5</ele><time>2026-05-02T14:57:49.313Z</time></trkpt><trkpt lat="32.346606" lon="-110.5408348"><ele>1231.0</ele><time>2026-05-02T14:57:50.314Z</time></trkpt><trkpt lat="32.346734" lon="-110.5408059"><ele>1233.5</ele><time>2026-05-02T14:57:51.313Z</time></trkpt><trkpt lat="32.3468542" lon="-110.54078"><ele>1236.0</ele><time>2026-05-02T14:57:52.314Z</time></trkpt><trkpt lat="32.3469676" lon="-110.5407613"><ele>1236.0</ele><time>2026-05-02T14:57:53.314Z</time></trkpt><trkpt lat="32.3470835" lon="-110.5407466"><ele>1236.0</ele><time>2026-05-02T14:57:54.313Z</time></trkpt><trkpt lat="32.3471968" lon="-110.5407417"><ele>1236.0</ele><time>2026-05-02T14:57:55.313Z</time></trkpt><trkpt lat="32.3473066" lon="-110.5407449"><ele>1236.0</ele><time>2026-05-02T14:57:56.313Z</time></trkpt><trkpt lat="32.3474218" lon="-110.5407484"><ele>1237.0</ele><time>2026-05-02T14:57:57.314Z</time></trkpt><trkpt lat="32.347532" lon="-110.5407409"><ele>1238.0</ele><time>2026-05-02T14:57:58.313Z</time></trkpt><trkpt lat="32.3476372" lon="-110.5407208"><ele>1239.0</ele><time>2026-05-02T14:57:59.313Z</time></trkpt><trkpt lat="32.3477349" lon="-110.5406867"><ele>1240.0</ele><time>2026-05-02T14:58:00.314Z</time></trkpt><trkpt lat="32.3478253" lon="-110.5406343"><ele>1241.0</ele><time>2026-05-02T14:58:01.314Z</time></trkpt><trkpt lat="32.3479115" lon="-110.5405746"><ele>1241.0</ele><time>2026-05-02T14:58:02.313Z</time></trkpt><trkpt lat="32.3479884" lon="-110.5404831"><ele>1241.0</ele><time>2026-05-02T14:58:03.314Z</time></trkpt><trkpt lat="32.3480534" lon="-110.5403545"><ele>1241.0</ele><time>2026-05-02T14:58:04.313Z</time></trkpt><trkpt lat="32.3481096" lon="-110.5402066"><ele>1241.0</ele><time>2026-05-02T14:58:05.314Z</time></trkpt><trkpt lat="32.3481589" lon="-110.5400448"><ele>1240.5</ele><time>2026-05-02T14:58:06.313Z</time></trkpt><trkpt lat="32.348203" lon="-110.5398857"><ele>1240.0</ele><time>2026-05-02T14:58:07.314Z</time></trkpt><trkpt lat="32.3482348" lon="-110.5397381"><ele>1239.5</ele><time>2026-05-02T14:58:08.313Z</time></trkpt><trkpt lat="32.3482614" lon="-110.5396043"><ele>1239.0</ele><time>2026-05-02T14:58:09.314Z</time></trkpt><trkpt lat="32.3482923" lon="-110.5394901"><ele>1239.0</ele><time>2026-05-02T14:58:10.313Z</time></trkpt><trkpt lat="32.3483391" lon="-110.5393792"><ele>1239.0</ele><time>2026-05-02T14:58:11.314Z</time></trkpt><trkpt lat="32.3483985" lon="-110.5392692"><ele>1239.0</ele><time>2026-05-02T14:58:12.314Z</time></trkpt><trkpt lat="32.348462" lon="-110.5391659"><ele>1239.0</ele><time>2026-05-02T14:58:13.314Z</time></trkpt><trkpt lat="32.3485163" lon="-110.5390708"><ele>1239.0</ele><time>2026-05-02T14:58:14.314Z</time></trkpt><trkpt lat="32.3485544" lon="-110.538978"><ele>1239.0</ele><time>2026-05-02T14:58:15.313Z</time></trkpt><trkpt lat="32.3485784" lon="-110.5388764"><ele>1239.0</ele><time>2026-05-02T14:58:16.314Z</time></trkpt><trkpt lat="32.3485961" lon="-110.5387738"><ele>1239.0</ele><time>2026-05-02T14:58:17.313Z</time></trkpt><trkpt lat="32.3485812" lon="-110.5386443"><ele>1239.0</ele><time>2026-05-02T14:58:18.315Z</time></trkpt><trkpt lat="32.3485588" lon="-110.5385082"><ele>1239.0</ele><time>2026-05-02T14:58:19.313Z</time></trkpt><trkpt lat="32.3485349" lon="-110.5383595"><ele>1238.75</ele><time>2026-05-02T14:58:20.314Z</time></trkpt><trkpt lat="32.3485174" lon="-110.5382008"><ele>1238.5</ele><time>2026-05-02T14:58:21.313Z</time></trkpt><trkpt lat="32.3485045" lon="-110.5380287"><ele>1238.25</ele><time>2026-05-02T14:58:22.314Z</time></trkpt><trkpt lat="32.3484986" lon="-110.5378443"><ele>1238.0</ele><time>2026-05-02T14:58:23.313Z</time></trkpt><trkpt lat="32.348502" lon="-110.5376549"><ele>1237.75</ele><time>2026-05-02T14:58:24.313Z</time></trkpt><trkpt lat="32.3485144" lon="-110.5374789"><ele>1237.5</ele><time>2026-05-02T14:58:25.314Z</time></trkpt><trkpt lat="32.3485299" lon="-110.5373158"><ele>1237.25</ele><time>2026-05-02T14:58:26.314Z</time></trkpt><trkpt lat="32.3485403" lon="-110.5371536"><ele>1237.0</ele><time>2026-05-02T14:58:27.314Z</time></trkpt><trkpt lat="32.3485405" lon="-110.5369902"><ele>1236.75</ele><time>2026-05-02T14:58:28.314Z</time></trkpt><trkpt lat="32.3485314" lon="-110.5368387"><ele>1236.5</ele><time>2026-05-02T14:58:29.313Z</time></trkpt><trkpt lat="32.3485235" lon="-110.5367029"><ele>1236.25</ele><time>2026-05-02T14:58:30.314Z</time></trkpt><trkpt lat="32.3485244" lon="-110.5365705"><ele>1236.0</ele><time>2026-05-02T14:58:31.314Z</time></trkpt><trkpt lat="32.3485375" lon="-110.5364351"><ele>1236.0</ele><time>2026-05-02T14:58:32.314Z</time></trkpt><trkpt lat="32.3485658" lon="-110.5363025"><ele>1236.0</ele><time>2026-05-02T14:58:33.314Z</time></trkpt><trkpt lat="32.3486111" lon="-110.5361777"><ele>1236.0</ele><time>2026-05-02T14:58:34.313Z</time></trkpt><trkpt lat="32.348675" lon="-110.5360612"><ele>1236.0</ele><time>2026-05-02T14:58:35.314Z</time></trkpt><trkpt lat="32.3487546" lon="-110.5359564"><ele>1237.0</ele><time>2026-05-02T14:58:36.314Z</time></trkpt><trkpt lat="32.3488431" lon="-110.5358658"><ele>1238.0</ele><time>2026-05-02T14:58:37.314Z</time></trkpt><trkpt lat="32.3489324" lon="-110.535782"><ele>1239.0</ele><time>2026-05-02T14:58:38.313Z</time></trkpt><trkpt lat="32.349028" lon="-110.535729"><ele>1240.0</ele><time>2026-05-02T14:58:39.314Z</time></trkpt><trkpt lat="32.349129" lon="-110.5356824"><ele>1241.0</ele><time>2026-05-02T14:58:40.314Z</time></trkpt><trkpt lat="32.3492486" lon="-110.5356623"><ele>1241.0</ele><time>2026-05-02T14:58:41.313Z</time></trkpt><trkpt lat="32.3493842" lon="-110.5356566"><ele>1241.0</ele><time>2026-05-02T14:58:42.315Z</time></trkpt><trkpt lat="32.3495251" lon="-110.535659"><ele>1241.0</ele><time>2026-05-02T14:58:43.313Z</time></trkpt><trkpt lat="32.3496576" lon="-110.5356624"><ele>1241.0</ele><time>2026-05-02T14:58:44.313Z</time></trkpt><trkpt lat="32.3497808" lon="-110.5356565"><ele>1242.0</ele><time>2026-05-02T14:58:45.314Z</time></trkpt><trkpt lat="32.3498983" lon="-110.5356348"><ele>1243.0</ele><time>2026-05-02T14:58:46.314Z</time></trkpt><trkpt lat="32.3500127" lon="-110.5355956"><ele>1244.0</ele><time>2026-05-02T14:58:47.313Z</time></trkpt><trkpt lat="32.3501222" lon="-110.5355382"><ele>1245.0</ele><time>2026-05-02T14:58:48.314Z</time></trkpt><trkpt lat="32.3502298" lon="-110.5354569"><ele>1243.5</ele><time>2026-05-02T14:58:49.313Z</time></trkpt><trkpt lat="32.3503353" lon="-110.5353555"><ele>1242.0</ele><time>2026-05-02T14:58:50.315Z</time></trkpt><trkpt lat="32.3504318" lon="-110.5352463"><ele>1240.5</ele><time>2026-05-02T14:58:51.315Z</time></trkpt><trkpt lat="32.350518" lon="-110.5351434"><ele>1239.0</ele><time>2026-05-02T14:58:52.315Z</time></trkpt><trkpt lat="32.350594" lon="-110.5350472"><ele>1238.25</ele><time>2026-05-02T14:58:53.314Z</time></trkpt><trkpt lat="32.3506623" lon="-110.5349402"><ele>1237.5</ele><time>2026-05-02T14:58:54.315Z</time></trkpt><trkpt lat="32.3507314" lon="-110.5348168"><ele>1236.75</ele><time>2026-05-02T14:58:55.314Z</time></trkpt><trkpt lat="32.3507996" lon="-110.5346948"><ele>1236.0</ele><time>2026-05-02T14:58:56.315Z</time></trkpt><trkpt lat="32.3508732" lon="-110.5345855"><ele>1237.3999999999999</ele><time>2026-05-02T14:58:57.314Z</time></trkpt><trkpt lat="32.3509517" lon="-110.5344869"><ele>1238.8</ele><time>2026-05-02T14:58:58.314Z</time></trkpt><trkpt lat="32.3510249" lon="-110.5344165"><ele>1240.1999999999998</ele><time>2026-05-02T14:58:59.315Z</time></trkpt><trkpt lat="32.3510917" lon="-110.5343402"><ele>1241.6</ele><time>2026-05-02T14:59:00.315Z</time></trkpt><trkpt lat="32.3511574" lon="-110.5342433"><ele>1243.0</ele><time>2026-05-02T14:59:01.315Z</time></trkpt><trkpt lat="32.3512185" lon="-110.5341288"><ele>1243.0</ele><time>2026-05-02T14:59:02.314Z</time></trkpt><trkpt lat="32.3512686" lon="-110.5340057"><ele>1243.0</ele><time>2026-05-02T14:59:03.314Z</time></trkpt><trkpt lat="32.3513162" lon="-110.533882"><ele>1243.0</ele><time>2026-05-02T14:59:04.314Z</time></trkpt><trkpt lat="32.3513554" lon="-110.5337448"><ele>1243.0</ele><time>2026-05-02T14:59:05.315Z</time></trkpt><trkpt lat="32.3513998" lon="-110.5336142"><ele>1239.4</ele><time>2026-05-02T14:59:06.314Z</time></trkpt><trkpt lat="32.3514488" lon="-110.5334955"><ele>1235.8</ele><time>2026-05-02T14:59:07.314Z</time></trkpt><trkpt lat="32.3514972" lon="-110.533383"><ele>1232.2</ele><time>2026-05-02T14:59:08.315Z</time></trkpt><trkpt lat="32.3515379" lon="-110.5332649"><ele>1228.6</ele><time>2026-05-02T14:59:09.314Z</time></trkpt><trkpt lat="32.3515689" lon="-110.5331388"><ele>1225.0</ele><time>2026-05-02T14:59:10.314Z</time></trkpt><trkpt lat="32.3515873" lon="-110.5330091"><ele>1223.2</ele><time>2026-05-02T14:59:11.315Z</time></trkpt><trkpt lat="32.351599" lon="-110.5328838"><ele>1221.4</ele><time>2026-05-02T14:59:12.314Z</time></trkpt><trkpt lat="32.351584" lon="-110.5327589"><ele>1219.6</ele><time>2026-05-02T14:59:13.315Z</time></trkpt><trkpt lat="32.351555" lon="-110.532626"><ele>1217.8</ele><time>2026-05-02T14:59:14.314Z</time></trkpt><trkpt lat="32.3515215" lon="-110.5324957"><ele>1216.0</ele><time>2026-05-02T14:59:15.314Z</time></trkpt><trkpt lat="32.3514897" lon="-110.5323678"><ele>1216.0</ele><time>2026-05-02T14:59:16.315Z</time></trkpt><trkpt lat="32.3514596" lon="-110.5322391"><ele>1216.0</ele><time>2026-05-02T14:59:17.315Z</time></trkpt><trkpt lat="32.3514358" lon="-110.532111"><ele>1216.0</ele><time>2026-05-02T14:59:18.314Z</time></trkpt><trkpt lat="32.3514163" lon="-110.5319876"><ele>1216.0</ele><time>2026-05-02T14:59:19.314Z</time></trkpt><trkpt lat="32.3514163" lon="-110.5318736"><ele>1216.0</ele><time>2026-05-02T14:59:20.314Z</time></trkpt><trkpt lat="32.3514297" lon="-110.5317646"><ele>1214.5</ele><time>2026-05-02T14:59:21.314Z</time></trkpt><trkpt lat="32.3514479" lon="-110.5316625"><ele>1213.0</ele><time>2026-05-02T14:59:22.314Z</time></trkpt><trkpt lat="32.3514987" lon="-110.53158"><ele>1211.5</ele><time>2026-05-02T14:59:23.314Z</time></trkpt><trkpt lat="32.3515624" lon="-110.5315197"><ele>1210.0</ele><time>2026-05-02T14:59:24.315Z</time></trkpt><trkpt lat="32.3516322" lon="-110.531468"><ele>1208.5</ele><time>2026-05-02T14:59:25.315Z</time></trkpt><trkpt lat="32.351693" lon="-110.5314124"><ele>1207.0</ele><time>2026-05-02T14:59:26.315Z</time></trkpt><trkpt lat="32.3517403" lon="-110.5313425"><ele>1207.0</ele><time>2026-05-02T14:59:27.315Z</time></trkpt><trkpt lat="32.3517729" lon="-110.5312623"><ele>1207.0</ele><time>2026-05-02T14:59:28.315Z</time></trkpt><trkpt lat="32.3517912" lon="-110.5311696"><ele>1207.0</ele><time>2026-05-02T14:59:29.314Z</time></trkpt><trkpt lat="32.3518002" lon="-110.5310612"><ele>1207.0</ele><time>2026-05-02T14:59:30.314Z</time></trkpt><trkpt lat="32.3518161" lon="-110.5309421"><ele>1207.0</ele><time>2026-05-02T14:59:31.315Z</time></trkpt><trkpt lat="32.3518448" lon="-110.5308191"><ele>1207.0</ele><time>2026-05-02T14:59:32.315Z</time></trkpt><trkpt lat="32.351886" lon="-110.5307007"><ele>1207.0</ele><time>2026-05-02T14:59:33.315Z</time></trkpt><trkpt lat="32.3519375" lon="-110.5305868"><ele>1207.0</ele><time>2026-05-02T14:59:34.314Z</time></trkpt><trkpt lat="32.3519911" lon="-110.5304763"><ele>1207.0</ele><time>2026-05-02T14:59:35.315Z</time></trkpt><trkpt lat="32.3520386" lon="-110.5303637"><ele>1207.0</ele><time>2026-05-02T14:59:36.314Z</time></trkpt><trkpt lat="32.3520807" lon="-110.5302549"><ele>1204.5</ele><time>2026-05-02T14:59:37.315Z</time></trkpt><trkpt lat="32.3521262" lon="-110.5301453"><ele>1202.0</ele><time>2026-05-02T14:59:38.314Z</time></trkpt><trkpt lat="32.3521828" lon="-110.5300323"><ele>1199.5</ele><time>2026-05-02T14:59:39.315Z</time></trkpt><trkpt lat="32.352252" lon="-110.5299196"><ele>1197.0</ele><time>2026-05-02T14:59:40.315Z</time></trkpt><trkpt lat="32.3523363" lon="-110.5298085"><ele>1193.75</ele><time>2026-05-02T14:59:41.314Z</time></trkpt><trkpt lat="32.3524326" lon="-110.5297032"><ele>1190.5</ele><time>2026-05-02T14:59:42.314Z</time></trkpt><trkpt lat="32.3525447" lon="-110.5295913"><ele>1187.25</ele><time>2026-05-02T14:59:43.314Z</time></trkpt><trkpt lat="32.3526652" lon="-110.5294735"><ele>1184.0</ele><time>2026-05-02T14:59:44.315Z</time></trkpt><trkpt lat="32.3527842" lon="-110.529358"><ele>1183.3333333333335</ele><time>2026-05-02T14:59:45.315Z</time></trkpt><trkpt lat="32.3529046" lon="-110.5292345"><ele>1182.6666666666667</ele><time>2026-05-02T14:59:46.314Z</time></trkpt><trkpt lat="32.3530207" lon="-110.5291059"><ele>1182.0</ele><time>2026-05-02T14:59:47.314Z</time></trkpt><trkpt lat="32.3531281" lon="-110.5289785"><ele>1182.0</ele><time>2026-05-02T14:59:48.315Z</time></trkpt><trkpt lat="32.3532293" lon="-110.5288512"><ele>1182.0</ele><time>2026-05-02T14:59:49.315Z</time></trkpt><trkpt lat="32.353328" lon="-110.5287246"><ele>1182.0</ele><time>2026-05-02T14:59:50.314Z</time></trkpt><trkpt lat="32.353418" lon="-110.5286027"><ele>1182.0</ele><time>2026-05-02T14:59:51.315Z</time></trkpt><trkpt lat="32.3535024" lon="-110.5284889"><ele>1183.0</ele><time>2026-05-02T14:59:52.314Z</time></trkpt><trkpt lat="32.3535856" lon="-110.5283794"><ele>1184.0</ele><time>2026-05-02T14:59:53.316Z</time></trkpt><trkpt lat="32.3536646" lon="-110.5282717"><ele>1185.0</ele><time>2026-05-02T14:59:54.315Z</time></trkpt><trkpt lat="32.3537371" lon="-110.5281569"><ele>1186.0</ele><time>2026-05-02T14:59:55.315Z</time></trkpt><trkpt lat="32.3538041" lon="-110.5280261"><ele>1186.75</ele><time>2026-05-02T14:59:56.315Z</time></trkpt><trkpt lat="32.3538694" lon="-110.5278776"><ele>1187.5</ele><time>2026-05-02T14:59:57.314Z</time></trkpt><trkpt lat="32.3539352" lon="-110.5277274"><ele>1188.25</ele><time>2026-05-02T14:59:58.314Z</time></trkpt><trkpt lat="32.3539989" lon="-110.5275857"><ele>1189.0</ele><time>2026-05-02T14:59:59.315Z</time></trkpt><trkpt lat="32.3540567" lon="-110.5274476"><ele>1189.0</ele><time>2026-05-02T15:00:00.315Z</time></trkpt><trkpt lat="32.3541029" lon="-110.5273098"><ele>1189.0</ele><time>2026-05-02T15:00:01.315Z</time></trkpt><trkpt lat="32.3541365" lon="-110.527177"><ele>1189.0</ele><time>2026-05-02T15:00:02.314Z</time></trkpt><trkpt lat="32.354156" lon="-110.5270481"><ele>1189.0</ele><time>2026-05-02T15:00:03.316Z</time></trkpt><trkpt lat="32.3541602" lon="-110.5269223"><ele>1187.4</ele><time>2026-05-02T15:00:04.316Z</time></trkpt><trkpt lat="32.3541484" lon="-110.5268016"><ele>1185.8000000000002</ele><time>2026-05-02T15:00:05.315Z</time></trkpt><trkpt lat="32.3541187" lon="-110.5266855"><ele>1184.1999999999998</ele><time>2026-05-02T15:00:06.314Z</time></trkpt><trkpt lat="32.3540707" lon="-110.526578"><ele>1182.6</ele><time>2026-05-02T15:00:07.315Z</time></trkpt><trkpt lat="32.3540083" lon="-110.5264816"><ele>1181.0</ele><time>2026-05-02T15:00:08.316Z</time></trkpt><trkpt lat="32.353929" lon="-110.5263887"><ele>1179.6</ele><time>2026-05-02T15:00:09.314Z</time></trkpt><trkpt lat="32.3538435" lon="-110.5263061"><ele>1178.1999999999998</ele><time>2026-05-02T15:00:10.315Z</time></trkpt><trkpt lat="32.3537588" lon="-110.526231"><ele>1176.8000000000002</ele><time>2026-05-02T15:00:11.315Z</time></trkpt><trkpt lat="32.3536823" lon="-110.526158"><ele>1175.4</ele><time>2026-05-02T15:00:12.314Z</time></trkpt><trkpt lat="32.3536168" lon="-110.5260747"><ele>1174.0</ele><time>2026-05-02T15:00:13.316Z</time></trkpt><trkpt lat="32.3535633" lon="-110.5259738"><ele>1172.8</ele><time>2026-05-02T15:00:14.315Z</time></trkpt><trkpt lat="32.3535279" lon="-110.5258635"><ele>1171.6000000000001</ele><time>2026-05-02T15:00:15.316Z</time></trkpt><trkpt lat="32.3535138" lon="-110.5257489"><ele>1170.4</ele><time>2026-05-02T15:00:16.315Z</time></trkpt><trkpt lat="32.353521" lon="-110.5256214"><ele>1169.2</ele><time>2026-05-02T15:00:17.315Z</time></trkpt><trkpt lat="32.3535492" lon="-110.5254781"><ele>1168.0</ele><time>2026-05-02T15:00:18.316Z</time></trkpt><trkpt lat="32.3535937" lon="-110.5253229"><ele>1166.0</ele><time>2026-05-02T15:00:19.315Z</time></trkpt><trkpt lat="32.3536446" lon="-110.5251685"><ele>1164.0</ele><time>2026-05-02T15:00:20.314Z</time></trkpt><trkpt lat="32.3536952" lon="-110.5250165"><ele>1162.0</ele><time>2026-05-02T15:00:21.315Z</time></trkpt><trkpt lat="32.353742" lon="-110.5248654"><ele>1160.0</ele><time>2026-05-02T15:00:22.316Z</time></trkpt><trkpt lat="32.3537821" lon="-110.5247144"><ele>1158.5</ele><time>2026-05-02T15:00:23.316Z</time></trkpt><trkpt lat="32.3538125" lon="-110.5245606"><ele>1157.0</ele><time>2026-05-02T15:00:24.316Z</time></trkpt><trkpt lat="32.3538328" lon="-110.5244054"><ele>1155.5</ele><time>2026-05-02T15:00:25.316Z</time></trkpt><trkpt lat="32.3538472" lon="-110.5242493"><ele>1154.0</ele><time>2026-05-02T15:00:26.316Z</time></trkpt><trkpt lat="32.353864" lon="-110.5240932"><ele>1153.75</ele><time>2026-05-02T15:00:27.316Z</time></trkpt><trkpt lat="32.3538882" lon="-110.5239421"><ele>1153.5</ele><time>2026-05-02T15:00:28.316Z</time></trkpt><trkpt lat="32.3539249" lon="-110.5237953"><ele>1153.25</ele><time>2026-05-02T15:00:29.316Z</time></trkpt><trkpt lat="32.3539774" lon="-110.5236513"><ele>1153.0</ele><time>2026-05-02T15:00:30.315Z</time></trkpt><trkpt lat="32.3540481" lon="-110.5235073"><ele>1153.0</ele><time>2026-05-02T15:00:31.315Z</time></trkpt><trkpt lat="32.354134" lon="-110.5233616"><ele>1153.0</ele><time>2026-05-02T15:00:32.316Z</time></trkpt><trkpt lat="32.3542286" lon="-110.5232196"><ele>1153.0</ele><time>2026-05-02T15:00:33.316Z</time></trkpt><trkpt lat="32.3543227" lon="-110.523082"><ele>1153.0</ele><time>2026-05-02T15:00:34.316Z</time></trkpt><trkpt lat="32.3544117" lon="-110.5229439"><ele>1153.0</ele><time>2026-05-02T15:00:35.315Z</time></trkpt><trkpt lat="32.3544947" lon="-110.5228065"><ele>1153.0</ele><time>2026-05-02T15:00:36.315Z</time></trkpt><trkpt lat="32.3545693" lon="-110.5226762"><ele>1153.0</ele><time>2026-05-02T15:00:37.315Z</time></trkpt><trkpt lat="32.3546381" lon="-110.5225527"><ele>1151.5</ele><time>2026-05-02T15:00:38.315Z</time></trkpt><trkpt lat="32.3546976" lon="-110.5224294"><ele>1150.0</ele><time>2026-05-02T15:00:39.316Z</time></trkpt><trkpt lat="32.354744" lon="-110.5222996"><ele>1148.5</ele><time>2026-05-02T15:00:40.315Z</time></trkpt><trkpt lat="32.3547743" lon="-110.5221609"><ele>1147.0</ele><time>2026-05-02T15:00:41.315Z</time></trkpt><trkpt lat="32.3547831" lon="-110.5220238"><ele>1147.0</ele><time>2026-05-02T15:00:42.315Z</time></trkpt><trkpt lat="32.3547716" lon="-110.5218871"><ele>1147.0</ele><time>2026-05-02T15:00:43.316Z</time></trkpt><trkpt lat="32.3547413" lon="-110.5217451"><ele>1147.0</ele><time>2026-05-02T15:00:44.315Z</time></trkpt><trkpt lat="32.3546915" lon="-110.5215946"><ele>1147.0</ele><time>2026-05-02T15:00:45.316Z</time></trkpt><trkpt lat="32.3546259" lon="-110.5214317"><ele>1148.5</ele><time>2026-05-02T15:00:46.316Z</time></trkpt><trkpt lat="32.3545533" lon="-110.5212662"><ele>1150.0</ele><time>2026-05-02T15:00:47.315Z</time></trkpt><trkpt lat="32.3544851" lon="-110.5211109"><ele>1151.5</ele><time>2026-05-02T15:00:48.316Z</time></trkpt><trkpt lat="32.3544282" lon="-110.5209615"><ele>1153.0</ele><time>2026-05-02T15:00:49.316Z</time></trkpt><trkpt lat="32.3543873" lon="-110.5208176"><ele>1153.25</ele><time>2026-05-02T15:00:50.315Z</time></trkpt><trkpt lat="32.354362" lon="-110.5206731"><ele>1153.5</ele><time>2026-05-02T15:00:51.316Z</time></trkpt><trkpt lat="32.3543549" lon="-110.5205222"><ele>1153.75</ele><time>2026-05-02T15:00:52.316Z</time></trkpt><trkpt lat="32.3543688" lon="-110.5203603"><ele>1154.0</ele><time>2026-05-02T15:00:53.316Z</time></trkpt><trkpt lat="32.3544041" lon="-110.5201877"><ele>1154.0</ele><time>2026-05-02T15:00:54.315Z</time></trkpt><trkpt lat="32.3544564" lon="-110.5200126"><ele>1154.0</ele><time>2026-05-02T15:00:55.315Z</time></trkpt><trkpt lat="32.3545131" lon="-110.5198367"><ele>1154.0</ele><time>2026-05-02T15:00:56.315Z</time></trkpt><trkpt lat="32.3545602" lon="-110.5196581"><ele>1156.0</ele><time>2026-05-02T15:00:57.315Z</time></trkpt><trkpt lat="32.3545926" lon="-110.5194775"><ele>1158.0</ele><time>2026-05-02T15:00:58.316Z</time></trkpt><trkpt lat="32.3546143" lon="-110.5192957"><ele>1160.0</ele><time>2026-05-02T15:00:59.316Z</time></trkpt><trkpt lat="32.3546335" lon="-110.5191311"><ele>1160.0</ele><time>2026-05-02T15:01:00.315Z</time></trkpt><trkpt lat="32.3546616" lon="-110.5189875"><ele>1160.0</ele><time>2026-05-02T15:01:01.316Z</time></trkpt><trkpt lat="32.3547021" lon="-110.518865"><ele>1160.0</ele><time>2026-05-02T15:01:02.316Z</time></trkpt><trkpt lat="32.3547564" lon="-110.5187593"><ele>1160.0</ele><time>2026-05-02T15:01:03.315Z</time></trkpt><trkpt lat="32.354826" lon="-110.5186722"><ele>1160.0</ele><time>2026-05-02T15:01:04.315Z</time></trkpt><trkpt lat="32.3549098" lon="-110.518613"><ele>1160.2</ele><time>2026-05-02T15:01:05.316Z</time></trkpt><trkpt lat="32.3550043" lon="-110.5185843"><ele>1160.4</ele><time>2026-05-02T15:01:06.315Z</time></trkpt><trkpt lat="32.3551046" lon="-110.5185891"><ele>1160.6</ele><time>2026-05-02T15:01:07.315Z</time></trkpt><trkpt lat="32.3552052" lon="-110.5186265"><ele>1160.8</ele><time>2026-05-02T15:01:08.316Z</time></trkpt><trkpt lat="32.3552984" lon="-110.5186946"><ele>1161.0</ele><time>2026-05-02T15:01:09.315Z</time></trkpt><trkpt lat="32.355382" lon="-110.5187909"><ele>1161.0</ele><time>2026-05-02T15:01:10.316Z</time></trkpt><trkpt lat="32.3554595" lon="-110.5189152"><ele>1161.0</ele><time>2026-05-02T15:01:11.315Z</time></trkpt><trkpt lat="32.3555268" lon="-110.5190544"><ele>1161.0</ele><time>2026-05-02T15:01:12.316Z</time></trkpt><trkpt lat="32.3555873" lon="-110.519191"><ele>1161.0</ele><time>2026-05-02T15:01:13.316Z</time></trkpt><trkpt lat="32.3556544" lon="-110.519315"><ele>1162.0</ele><time>2026-05-02T15:01:14.316Z</time></trkpt><trkpt lat="32.3557361" lon="-110.5194278"><ele>1163.0</ele><time>2026-05-02T15:01:15.315Z</time></trkpt><trkpt lat="32.3558327" lon="-110.5195343"><ele>1164.0</ele><time>2026-05-02T15:01:16.315Z</time></trkpt><trkpt lat="32.3559374" lon="-110.5196225"><ele>1165.0</ele><time>2026-05-02T15:01:17.316Z</time></trkpt><trkpt lat="32.3560519" lon="-110.5196891"><ele>1165.0</ele><time>2026-05-02T15:01:18.315Z</time></trkpt><trkpt lat="32.3561807" lon="-110.5197341"><ele>1165.0</ele><time>2026-05-02T15:01:19.316Z</time></trkpt><trkpt lat="32.356318" lon="-110.519755"><ele>1165.0</ele><time>2026-05-02T15:01:20.316Z</time></trkpt><trkpt lat="32.3564527" lon="-110.5197484"><ele>1165.0</ele><time>2026-05-02T15:01:21.317Z</time></trkpt><trkpt lat="32.3565897" lon="-110.5197159"><ele>1165.0</ele><time>2026-05-02T15:01:22.316Z</time></trkpt><trkpt lat="32.3567248" lon="-110.5196569"><ele>1165.0</ele><time>2026-05-02T15:01:23.316Z</time></trkpt><trkpt lat="32.3568608" lon="-110.5195721"><ele>1165.0</ele><time>2026-05-02T15:01:24.315Z</time></trkpt><trkpt lat="32.3569982" lon="-110.5194657"><ele>1162.3333333333333</ele><time>2026-05-02T15:01:25.316Z</time></trkpt><trkpt lat="32.3571312" lon="-110.5193525"><ele>1159.6666666666667</ele><time>2026-05-02T15:01:26.316Z</time></trkpt><trkpt lat="32.3572627" lon="-110.5192471"><ele>1157.0</ele><time>2026-05-02T15:01:27.316Z</time></trkpt><trkpt lat="32.3573948" lon="-110.5191579"><ele>1156.0</ele><time>2026-05-02T15:01:28.315Z</time></trkpt><trkpt lat="32.3575313" lon="-110.5190868"><ele>1155.0</ele><time>2026-05-02T15:01:29.315Z</time></trkpt><trkpt lat="32.3576788" lon="-110.5190334"><ele>1154.0</ele><time>2026-05-02T15:01:30.316Z</time></trkpt><trkpt lat="32.3578417" lon="-110.5189969"><ele>1154.0</ele><time>2026-05-02T15:01:31.317Z</time></trkpt><trkpt lat="32.3580097" lon="-110.5189741"><ele>1154.0</ele><time>2026-05-02T15:01:32.315Z</time></trkpt><trkpt lat="32.3581706" lon="-110.5189594"><ele>1154.0</ele><time>2026-05-02T15:01:33.316Z</time></trkpt><trkpt lat="32.3583229" lon="-110.5189484"><ele>1153.3333333333335</ele><time>2026-05-02T15:01:34.315Z</time></trkpt><trkpt lat="32.3584682" lon="-110.5189392"><ele>1152.6666666666667</ele><time>2026-05-02T15:01:35.316Z</time></trkpt><trkpt lat="32.3586168" lon="-110.5189303"><ele>1152.0</ele><time>2026-05-02T15:01:36.316Z</time></trkpt><trkpt lat="32.3587727" lon="-110.5189217"><ele>1150.3333333333333</ele><time>2026-05-02T15:01:37.316Z</time></trkpt><trkpt lat="32.3589337" lon="-110.5189153"><ele>1148.6666666666665</ele><time>2026-05-02T15:01:38.316Z</time></trkpt><trkpt lat="32.3590893" lon="-110.5189162"><ele>1147.0</ele><time>2026-05-02T15:01:39.315Z</time></trkpt><trkpt lat="32.3592387" lon="-110.5189307"><ele>1147.0</ele><time>2026-05-02T15:01:40.316Z</time></trkpt><trkpt lat="32.3593815" lon="-110.5189599"><ele>1147.0</ele><time>2026-05-02T15:01:41.315Z</time></trkpt><trkpt lat="32.3595239" lon="-110.5190022"><ele>1147.0</ele><time>2026-05-02T15:01:42.315Z</time></trkpt><trkpt lat="32.359671" lon="-110.5190535"><ele>1147.0</ele><time>2026-05-02T15:01:43.317Z</time></trkpt><trkpt lat="32.3598207" lon="-110.5191109"><ele>1146.6666666666665</ele><time>2026-05-02T15:01:44.317Z</time></trkpt><trkpt lat="32.3599767" lon="-110.5191748"><ele>1146.3333333333333</ele><time>2026-05-02T15:01:45.316Z</time></trkpt><trkpt lat="32.3601352" lon="-110.5192422"><ele>1146.0</ele><time>2026-05-02T15:01:46.315Z</time></trkpt><trkpt lat="32.3602905" lon="-110.5193118"><ele>1146.0</ele><time>2026-05-02T15:01:47.315Z</time></trkpt><trkpt lat="32.3604404" lon="-110.5193819"><ele>1146.0</ele><time>2026-05-02T15:01:48.316Z</time></trkpt><trkpt lat="32.3605845" lon="-110.5194489"><ele>1146.0</ele><time>2026-05-02T15:01:49.317Z</time></trkpt><trkpt lat="32.3607234" lon="-110.5195117"><ele>1145.0</ele><time>2026-05-02T15:01:50.316Z</time></trkpt><trkpt lat="32.3608599" lon="-110.519572"><ele>1144.0</ele><time>2026-05-02T15:01:51.317Z</time></trkpt><trkpt lat="32.3609878" lon="-110.5196329"><ele>1143.0</ele><time>2026-05-02T15:01:52.316Z</time></trkpt><trkpt lat="32.3611056" lon="-110.5196992"><ele>1142.0</ele><time>2026-05-02T15:01:53.316Z</time></trkpt><trkpt lat="32.3612203" lon="-110.5197791"><ele>1142.0</ele><time>2026-05-02T15:01:54.317Z</time></trkpt><trkpt lat="32.3613357" lon="-110.5198785"><ele>1142.0</ele><time>2026-05-02T15:01:55.317Z</time></trkpt><trkpt lat="32.3614516" lon="-110.5200023"><ele>1142.0</ele><time>2026-05-02T15:01:56.316Z</time></trkpt><trkpt lat="32.3615553" lon="-110.5201443"><ele>1141.0</ele><time>2026-05-02T15:01:57.317Z</time></trkpt><trkpt lat="32.3616462" lon="-110.5203046"><ele>1140.0</ele><time>2026-05-02T15:01:58.316Z</time></trkpt><trkpt lat="32.3617304" lon="-110.5204782"><ele>1139.0</ele><time>2026-05-02T15:01:59.317Z</time></trkpt><trkpt lat="32.36181" lon="-110.5206474"><ele>1138.0</ele><time>2026-05-02T15:02:00.317Z</time></trkpt><trkpt lat="32.3618885" lon="-110.5208057"><ele>1137.0</ele><time>2026-05-02T15:02:01.316Z</time></trkpt><trkpt lat="32.3619732" lon="-110.5209514"><ele>1136.0</ele><time>2026-05-02T15:02:02.317Z</time></trkpt><trkpt lat="32.3620726" lon="-110.5210822"><ele>1136.0</ele><time>2026-05-02T15:02:03.317Z</time></trkpt><trkpt lat="32.3621895" lon="-110.5212019"><ele>1136.0</ele><time>2026-05-02T15:02:04.317Z</time></trkpt><trkpt lat="32.3623153" lon="-110.5213062"><ele>1136.0</ele><time>2026-05-02T15:02:05.316Z</time></trkpt><trkpt lat="32.3624541" lon="-110.5214044"><ele>1135.3333333333335</ele><time>2026-05-02T15:02:06.316Z</time></trkpt><trkpt lat="32.3625959" lon="-110.5214992"><ele>1134.6666666666667</ele><time>2026-05-02T15:02:07.316Z</time></trkpt><trkpt lat="32.3627404" lon="-110.521601"><ele>1134.0</ele><time>2026-05-02T15:02:08.316Z</time></trkpt><trkpt lat="32.362888" lon="-110.5217072"><ele>1134.0</ele><time>2026-05-02T15:02:09.316Z</time></trkpt><trkpt lat="32.3630401" lon="-110.5218127"><ele>1134.0</ele><time>2026-05-02T15:02:10.317Z</time></trkpt><trkpt lat="32.3631993" lon="-110.5219126"><ele>1134.0</ele><time>2026-05-02T15:02:11.316Z</time></trkpt><trkpt lat="32.3633652" lon="-110.5219997"><ele>1131.0</ele><time>2026-05-02T15:02:12.317Z</time></trkpt><trkpt lat="32.363536" lon="-110.5220694"><ele>1128.0</ele><time>2026-05-02T15:02:13.317Z</time></trkpt><trkpt lat="32.3637147" lon="-110.5221203"><ele>1125.0</ele><time>2026-05-02T15:02:14.316Z</time></trkpt><trkpt lat="32.3639002" lon="-110.5221515"><ele>1125.0</ele><time>2026-05-02T15:02:15.317Z</time></trkpt><trkpt lat="32.3640888" lon="-110.522167"><ele>1125.0</ele><time>2026-05-02T15:02:16.316Z</time></trkpt><trkpt lat="32.364277" lon="-110.5221737"><ele>1125.0</ele><time>2026-05-02T15:02:17.316Z</time></trkpt><trkpt lat="32.3644629" lon="-110.5221719"><ele>1125.0</ele><time>2026-05-02T15:02:18.316Z</time></trkpt><trkpt lat="32.364634" lon="-110.5221798"><ele>1125.0</ele><time>2026-05-02T15:02:19.316Z</time></trkpt><trkpt lat="32.3648059" lon="-110.5221965"><ele>1125.0</ele><time>2026-05-02T15:02:20.317Z</time></trkpt><trkpt lat="32.3649795" lon="-110.5222109"><ele>1125.0</ele><time>2026-05-02T15:02:21.317Z</time></trkpt><trkpt lat="32.3651485" lon="-110.522238"><ele>1125.0</ele><time>2026-05-02T15:02:22.316Z</time></trkpt><trkpt lat="32.3653215" lon="-110.5222868"><ele>1125.0</ele><time>2026-05-02T15:02:23.317Z</time></trkpt><trkpt lat="32.365494" lon="-110.522363"><ele>1124.0</ele><time>2026-05-02T15:02:24.317Z</time></trkpt><trkpt lat="32.3656693" lon="-110.5224536"><ele>1123.0</ele><time>2026-05-02T15:02:25.317Z</time></trkpt><trkpt lat="32.3658487" lon="-110.5225631"><ele>1122.0</ele><time>2026-05-02T15:02:26.316Z</time></trkpt><trkpt lat="32.3660201" lon="-110.5226637"><ele>1122.0</ele><time>2026-05-02T15:02:27.317Z</time></trkpt><trkpt lat="32.3661904" lon="-110.5227568"><ele>1122.0</ele><time>2026-05-02T15:02:28.317Z</time></trkpt><trkpt lat="32.3663597" lon="-110.5228313"><ele>1122.0</ele><time>2026-05-02T15:02:29.316Z</time></trkpt><trkpt lat="32.3665321" lon="-110.5228783"><ele>1119.6666666666667</ele><time>2026-05-02T15:02:30.316Z</time></trkpt><trkpt lat="32.3666987" lon="-110.5229112"><ele>1117.3333333333335</ele><time>2026-05-02T15:02:31.316Z</time></trkpt><trkpt lat="32.3668627" lon="-110.5229156"><ele>1115.0</ele><time>2026-05-02T15:02:32.316Z</time></trkpt><trkpt lat="32.3670388" lon="-110.5229095"><ele>1117.0</ele><time>2026-05-02T15:02:33.317Z</time></trkpt><trkpt lat="32.3672081" lon="-110.5229223"><ele>1119.0</ele><time>2026-05-02T15:02:34.317Z</time></trkpt><trkpt lat="32.367379" lon="-110.522955"><ele>1121.0</ele><time>2026-05-02T15:02:35.317Z</time></trkpt><trkpt lat="32.3675566" lon="-110.5230043"><ele>1121.0</ele><time>2026-05-02T15:02:36.317Z</time></trkpt><trkpt lat="32.3677294" lon="-110.5230712"><ele>1121.0</ele><time>2026-05-02T15:02:37.317Z</time></trkpt><trkpt lat="32.367893" lon="-110.5231369"><ele>1121.0</ele><time>2026-05-02T15:02:38.316Z</time></trkpt><trkpt lat="32.3680505" lon="-110.5231884"><ele>1122.0</ele><time>2026-05-02T15:02:39.317Z</time></trkpt><trkpt lat="32.3682082" lon="-110.523217"><ele>1123.0</ele><time>2026-05-02T15:02:40.316Z</time></trkpt><trkpt lat="32.3683635" lon="-110.523231"><ele>1124.0</ele><time>2026-05-02T15:02:41.318Z</time></trkpt><trkpt lat="32.3685154" lon="-110.5232206"><ele>1124.0</ele><time>2026-05-02T15:02:42.316Z</time></trkpt><trkpt lat="32.3686573" lon="-110.5231821"><ele>1124.0</ele><time>2026-05-02T15:02:43.317Z</time></trkpt><trkpt lat="32.368783" lon="-110.5231276"><ele>1124.0</ele><time>2026-05-02T15:02:44.317Z</time></trkpt><trkpt lat="32.3688974" lon="-110.5230356"><ele>1124.0</ele><time>2026-05-02T15:02:45.316Z</time></trkpt><trkpt lat="32.3690077" lon="-110.522921"><ele>1121.3333333333335</ele><time>2026-05-02T15:02:46.316Z</time></trkpt><trkpt lat="32.3691168" lon="-110.5227958"><ele>1118.6666666666667</ele><time>2026-05-02T15:02:47.316Z</time></trkpt><trkpt lat="32.3692265" lon="-110.5226651"><ele>1116.0</ele><time>2026-05-02T15:02:48.316Z</time></trkpt><trkpt lat="32.3693451" lon="-110.5225367"><ele>1116.0</ele><time>2026-05-02T15:02:49.316Z</time></trkpt><trkpt lat="32.3694722" lon="-110.5224193"><ele>1116.0</ele><time>2026-05-02T15:02:50.317Z</time></trkpt><trkpt lat="32.3696065" lon="-110.522312"><ele>1116.0</ele><time>2026-05-02T15:02:51.316Z</time></trkpt><trkpt lat="32.3697587" lon="-110.5222247"><ele>1113.3333333333333</ele><time>2026-05-02T15:02:52.317Z</time></trkpt><trkpt lat="32.3699078" lon="-110.5221533"><ele>1110.6666666666665</ele><time>2026-05-02T15:02:53.316Z</time></trkpt><trkpt lat="32.3700532" lon="-110.5220923"><ele>1108.0</ele><time>2026-05-02T15:02:54.317Z</time></trkpt><trkpt lat="32.3701918" lon="-110.5220564"><ele>1107.5</ele><time>2026-05-02T15:02:55.317Z</time></trkpt><trkpt lat="32.3703353" lon="-110.5220352"><ele>1107.0</ele><time>2026-05-02T15:02:56.317Z</time></trkpt><trkpt lat="32.370473" lon="-110.5220293"><ele>1106.5</ele><time>2026-05-02T15:02:57.317Z</time></trkpt><trkpt lat="32.3706251" lon="-110.5220481"><ele>1106.0</ele><time>2026-05-02T15:02:58.316Z</time></trkpt><trkpt lat="32.3707853" lon="-110.5220874"><ele>1104.3333333333335</ele><time>2026-05-02T15:02:59.316Z</time></trkpt><trkpt lat="32.370956" lon="-110.522149"><ele>1102.6666666666667</ele><time>2026-05-02T15:03:00.318Z</time></trkpt><trkpt lat="32.3711263" lon="-110.5222159"><ele>1101.0</ele><time>2026-05-02T15:03:01.318Z</time></trkpt><trkpt lat="32.3712878" lon="-110.5222813"><ele>1100.3333333333333</ele><time>2026-05-02T15:03:02.317Z</time></trkpt><trkpt lat="32.3714548" lon="-110.5223334"><ele>1099.6666666666665</ele><time>2026-05-02T15:03:03.318Z</time></trkpt><trkpt lat="32.3716265" lon="-110.5223697"><ele>1099.0</ele><time>2026-05-02T15:03:04.316Z</time></trkpt><trkpt lat="32.3717929" lon="-110.5223919"><ele>1099.0</ele><time>2026-05-02T15:03:05.316Z</time></trkpt><trkpt lat="32.3719579" lon="-110.5223882"><ele>1099.0</ele><time>2026-05-02T15:03:06.317Z</time></trkpt><trkpt lat="32.372115" lon="-110.5223577"><ele>1099.0</ele><time>2026-05-02T15:03:07.317Z</time></trkpt><trkpt lat="32.3722608" lon="-110.5223212"><ele>1100.0</ele><time>2026-05-02T15:03:08.316Z</time></trkpt><trkpt lat="32.3724022" lon="-110.522265"><ele>1101.0</ele><time>2026-05-02T15:03:09.317Z</time></trkpt><trkpt lat="32.3725552" lon="-110.5221996"><ele>1102.0</ele><time>2026-05-02T15:03:10.318Z</time></trkpt><trkpt lat="32.3727252" lon="-110.5221209"><ele>1101.3333333333333</ele><time>2026-05-02T15:03:11.317Z</time></trkpt><trkpt lat="32.3729073" lon="-110.5220353"><ele>1100.6666666666667</ele><time>2026-05-02T15:03:12.317Z</time></trkpt><trkpt lat="32.3730817" lon="-110.5219451"><ele>1100.0</ele><time>2026-05-02T15:03:13.316Z</time></trkpt><trkpt lat="32.3732446" lon="-110.5218641"><ele>1102.3333333333335</ele><time>2026-05-02T15:03:14.316Z</time></trkpt><trkpt lat="32.3733998" lon="-110.5217813"><ele>1104.6666666666667</ele><time>2026-05-02T15:03:15.316Z</time></trkpt><trkpt lat="32.373551" lon="-110.5217051"><ele>1107.0</ele><time>2026-05-02T15:03:16.318Z</time></trkpt><trkpt lat="32.373685" lon="-110.5216321"><ele>1107.0</ele><time>2026-05-02T15:03:17.318Z</time></trkpt><trkpt lat="32.3738177" lon="-110.5215681"><ele>1107.0</ele><time>2026-05-02T15:03:18.316Z</time></trkpt><trkpt lat="32.3739596" lon="-110.5215006"><ele>1107.0</ele><time>2026-05-02T15:03:19.316Z</time></trkpt><trkpt lat="32.3740984" lon="-110.5214445"><ele>1107.0</ele><time>2026-05-02T15:03:20.317Z</time></trkpt><trkpt lat="32.3742211" lon="-110.5213976"><ele>1107.4</ele><time>2026-05-02T15:03:21.318Z</time></trkpt><trkpt lat="32.3743254" lon="-110.5213749"><ele>1107.8000000000002</ele><time>2026-05-02T15:03:22.317Z</time></trkpt><trkpt lat="32.3744202" lon="-110.5213734"><ele>1108.2</ele><time>2026-05-02T15:03:23.318Z</time></trkpt><trkpt lat="32.3745148" lon="-110.5213911"><ele>1108.6000000000001</ele><time>2026-05-02T15:03:24.317Z</time></trkpt><trkpt lat="32.3746234" lon="-110.5214312"><ele>1109.0</ele><time>2026-05-02T15:03:25.317Z</time></trkpt><trkpt lat="32.3747419" lon="-110.5214957"><ele>1105.5</ele><time>2026-05-02T15:03:26.317Z</time></trkpt><trkpt lat="32.3748704" lon="-110.5215649"><ele>1102.0</ele><time>2026-05-02T15:03:27.317Z</time></trkpt><trkpt lat="32.3750096" lon="-110.52162"><ele>1098.5</ele><time>2026-05-02T15:03:28.317Z</time></trkpt><trkpt lat="32.375152" lon="-110.5216587"><ele>1095.0</ele><time>2026-05-02T15:03:29.318Z</time></trkpt><trkpt lat="32.3752856" lon="-110.52168"><ele>1095.0</ele><time>2026-05-02T15:03:30.317Z</time></trkpt><trkpt lat="32.3754156" lon="-110.5216648"><ele>1095.0</ele><time>2026-05-02T15:03:31.317Z</time></trkpt><trkpt lat="32.3755363" lon="-110.5216276"><ele>1095.0</ele><time>2026-05-02T15:03:32.318Z</time></trkpt><trkpt lat="32.3756366" lon="-110.5215703"><ele>1095.0</ele><time>2026-05-02T15:03:33.318Z</time></trkpt><trkpt lat="32.3757267" lon="-110.5214895"><ele>1095.0</ele><time>2026-05-02T15:03:34.317Z</time></trkpt><trkpt lat="32.3758155" lon="-110.5214014"><ele>1095.0</ele><time>2026-05-02T15:03:35.318Z</time></trkpt><trkpt lat="32.3759122" lon="-110.5212862"><ele>1095.0</ele><time>2026-05-02T15:03:36.317Z</time></trkpt><trkpt lat="32.3760192" lon="-110.5211667"><ele>1095.0</ele><time>2026-05-02T15:03:37.317Z</time></trkpt><trkpt lat="32.3761491" lon="-110.5210451"><ele>1093.6666666666667</ele><time>2026-05-02T15:03:38.318Z</time></trkpt><trkpt lat="32.3763018" lon="-110.5209235"><ele>1092.3333333333335</ele><time>2026-05-02T15:03:39.317Z</time></trkpt><trkpt lat="32.3764587" lon="-110.5208159"><ele>1091.0</ele><time>2026-05-02T15:03:40.317Z</time></trkpt><trkpt lat="32.3766177" lon="-110.5207155"><ele>1089.3333333333335</ele><time>2026-05-02T15:03:41.317Z</time></trkpt><trkpt lat="32.3767852" lon="-110.5206225"><ele>1087.6666666666667</ele><time>2026-05-02T15:03:42.317Z</time></trkpt><trkpt lat="32.376955" lon="-110.5205406"><ele>1086.0</ele><time>2026-05-02T15:03:43.318Z</time></trkpt><trkpt lat="32.3771291" lon="-110.520472"><ele>1083.3333333333333</ele><time>2026-05-02T15:03:44.318Z</time></trkpt><trkpt lat="32.3773193" lon="-110.5204197"><ele>1080.6666666666665</ele><time>2026-05-02T15:03:45.318Z</time></trkpt><trkpt lat="32.377514" lon="-110.5203803"><ele>1078.0</ele><time>2026-05-02T15:03:46.317Z</time></trkpt><trkpt lat="32.3777011" lon="-110.5203489"><ele>1078.0</ele><time>2026-05-02T15:03:47.317Z</time></trkpt><trkpt lat="32.3778824" lon="-110.5203042"><ele>1078.0</ele><time>2026-05-02T15:03:48.317Z</time></trkpt><trkpt lat="32.3780579" lon="-110.5202525"><ele>1078.0</ele><time>2026-05-02T15:03:49.318Z</time></trkpt><trkpt lat="32.3782308" lon="-110.5201826"><ele>1078.3333333333333</ele><time>2026-05-02T15:03:50.317Z</time></trkpt><trkpt lat="32.3783817" lon="-110.5201087"><ele>1078.6666666666667</ele><time>2026-05-02T15:03:51.318Z</time></trkpt><trkpt lat="32.3785228" lon="-110.5200316"><ele>1079.0</ele><time>2026-05-02T15:03:52.318Z</time></trkpt><trkpt lat="32.3786454" lon="-110.5199462"><ele>1079.0</ele><time>2026-05-02T15:03:53.318Z</time></trkpt><trkpt lat="32.3787728" lon="-110.5198749"><ele>1079.0</ele><time>2026-05-02T15:03:54.317Z</time></trkpt><trkpt lat="32.3789077" lon="-110.5198102"><ele>1079.0</ele><time>2026-05-02T15:03:55.317Z</time></trkpt><trkpt lat="32.3790656" lon="-110.5197596"><ele>1078.6666666666667</ele><time>2026-05-02T15:03:56.317Z</time></trkpt><trkpt lat="32.3792286" lon="-110.5197242"><ele>1078.3333333333333</ele><time>2026-05-02T15:03:57.318Z</time></trkpt><trkpt lat="32.3793947" lon="-110.5197132"><ele>1078.0</ele><time>2026-05-02T15:03:58.318Z</time></trkpt><trkpt lat="32.3795669" lon="-110.5197192"><ele>1076.3333333333333</ele><time>2026-05-02T15:03:59.318Z</time></trkpt><trkpt lat="32.3797381" lon="-110.5197449"><ele>1074.6666666666667</ele><time>2026-05-02T15:04:00.317Z</time></trkpt><trkpt lat="32.3798959" lon="-110.5197497"><ele>1073.0</ele><time>2026-05-02T15:04:01.317Z</time></trkpt><trkpt lat="32.3800413" lon="-110.5197443"><ele>1073.0</ele><time>2026-05-02T15:04:02.318Z</time></trkpt><trkpt lat="32.3801905" lon="-110.5197239"><ele>1073.0</ele><time>2026-05-02T15:04:03.318Z</time></trkpt><trkpt lat="32.3803341" lon="-110.5196723"><ele>1073.0</ele><time>2026-05-02T15:04:04.318Z</time></trkpt><trkpt lat="32.3804783" lon="-110.5196097"><ele>1072.0</ele><time>2026-05-02T15:04:05.317Z</time></trkpt><trkpt lat="32.3806264" lon="-110.5195418"><ele>1071.0</ele><time>2026-05-02T15:04:06.318Z</time></trkpt><trkpt lat="32.3807718" lon="-110.5194804"><ele>1070.0</ele><time>2026-05-02T15:04:07.317Z</time></trkpt><trkpt lat="32.3809119" lon="-110.5194229"><ele>1070.0</ele><time>2026-05-02T15:04:08.318Z</time></trkpt><trkpt lat="32.3810556" lon="-110.5193755"><ele>1070.0</ele><time>2026-05-02T15:04:09.317Z</time></trkpt><trkpt lat="32.381199" lon="-110.5193379"><ele>1070.0</ele><time>2026-05-02T15:04:10.318Z</time></trkpt><trkpt lat="32.3813429" lon="-110.5193134"><ele>1070.0</ele><time>2026-05-02T15:04:11.317Z</time></trkpt><trkpt lat="32.3814847" lon="-110.5193018"><ele>1069.75</ele><time>2026-05-02T15:04:12.317Z</time></trkpt><trkpt lat="32.3816265" lon="-110.5193027"><ele>1069.5</ele><time>2026-05-02T15:04:13.317Z</time></trkpt><trkpt lat="32.3817659" lon="-110.5193193"><ele>1069.25</ele><time>2026-05-02T15:04:14.317Z</time></trkpt><trkpt lat="32.3819014" lon="-110.5193453"><ele>1069.0</ele><time>2026-05-02T15:04:15.317Z</time></trkpt><trkpt lat="32.3820362" lon="-110.5193553"><ele>1069.0</ele><time>2026-05-02T15:04:16.317Z</time></trkpt><trkpt lat="32.3821706" lon="-110.5193561"><ele>1069.0</ele><time>2026-05-02T15:04:17.318Z</time></trkpt><trkpt lat="32.3823041" lon="-110.5193298"><ele>1069.0</ele><time>2026-05-02T15:04:18.318Z</time></trkpt><trkpt lat="32.382436" lon="-110.5192796"><ele>1069.0</ele><time>2026-05-02T15:04:19.317Z</time></trkpt><trkpt lat="32.3825682" lon="-110.5192097"><ele>1068.6666666666665</ele><time>2026-05-02T15:04:20.318Z</time></trkpt><trkpt lat="32.3827077" lon="-110.5191195"><ele>1068.3333333333333</ele><time>2026-05-02T15:04:21.317Z</time></trkpt><trkpt lat="32.3828496" lon="-110.5190067"><ele>1068.0</ele><time>2026-05-02T15:04:22.318Z</time></trkpt><trkpt lat="32.3829919" lon="-110.5188806"><ele>1066.0</ele><time>2026-05-02T15:04:23.319Z</time></trkpt><trkpt lat="32.3831281" lon="-110.5187579"><ele>1064.0</ele><time>2026-05-02T15:04:24.319Z</time></trkpt><trkpt lat="32.3832598" lon="-110.5186376"><ele>1062.0</ele><time>2026-05-02T15:04:25.318Z</time></trkpt><trkpt lat="32.3833833" lon="-110.5185389"><ele>1062.0</ele><time>2026-05-02T15:04:26.317Z</time></trkpt><trkpt lat="32.3835057" lon="-110.5184588"><ele>1062.0</ele><time>2026-05-02T15:04:27.317Z</time></trkpt><trkpt lat="32.3836188" lon="-110.5184095"><ele>1062.0</ele><time>2026-05-02T15:04:28.319Z</time></trkpt><trkpt lat="32.3837316" lon="-110.518362"><ele>1062.0</ele><time>2026-05-02T15:04:29.317Z</time></trkpt><trkpt lat="32.383834" lon="-110.5182987"><ele>1060.5</ele><time>2026-05-02T15:04:30.317Z</time></trkpt><trkpt lat="32.3839166" lon="-110.518218"><ele>1059.0</ele><time>2026-05-02T15:04:31.317Z</time></trkpt><trkpt lat="32.3839918" lon="-110.5181171"><ele>1057.5</ele><time>2026-05-02T15:04:32.317Z</time></trkpt><trkpt lat="32.3840595" lon="-110.5180006"><ele>1056.0</ele><time>2026-05-02T15:04:33.317Z</time></trkpt><trkpt lat="32.3841167" lon="-110.51786"><ele>1056.0</ele><time>2026-05-02T15:04:34.317Z</time></trkpt><trkpt lat="32.3841753" lon="-110.5177312"><ele>1056.0</ele><time>2026-05-02T15:04:35.317Z</time></trkpt><trkpt lat="32.3842338" lon="-110.517617"><ele>1056.0</ele><time>2026-05-02T15:04:36.317Z</time></trkpt><trkpt lat="32.384302" lon="-110.517529"><ele>1056.0</ele><time>2026-05-02T15:04:37.318Z</time></trkpt><trkpt lat="32.3843682" lon="-110.5174708"><ele>1056.0</ele><time>2026-05-02T15:04:38.318Z</time></trkpt><trkpt lat="32.384441" lon="-110.5174321"><ele>1056.0</ele><time>2026-05-02T15:04:39.317Z</time></trkpt><trkpt lat="32.3845214" lon="-110.5174149"><ele>1056.0</ele><time>2026-05-02T15:04:40.317Z</time></trkpt><trkpt lat="32.3846056" lon="-110.5174194"><ele>1056.0</ele><time>2026-05-02T15:04:41.317Z</time></trkpt><trkpt lat="32.384698" lon="-110.5174512"><ele>1056.0</ele><time>2026-05-02T15:04:42.318Z</time></trkpt><trkpt lat="32.3848019" lon="-110.5174969"><ele>1056.0</ele><time>2026-05-02T15:04:43.317Z</time></trkpt><trkpt lat="32.3849166" lon="-110.5175584"><ele>1056.0</ele><time>2026-05-02T15:04:44.318Z</time></trkpt><trkpt lat="32.3850394" lon="-110.5176114"><ele>1056.0</ele><time>2026-05-02T15:04:45.318Z</time></trkpt><trkpt lat="32.385165" lon="-110.5176489"><ele>1056.0</ele><time>2026-05-02T15:04:46.317Z</time></trkpt><trkpt lat="32.3852934" lon="-110.5176667"><ele>1056.0</ele><time>2026-05-02T15:04:47.318Z</time></trkpt><trkpt lat="32.3854237" lon="-110.5176693"><ele>1052.5</ele><time>2026-05-02T15:04:48.318Z</time></trkpt><trkpt lat="32.3855593" lon="-110.5176465"><ele>1049.0</ele><time>2026-05-02T15:04:49.317Z</time></trkpt><trkpt lat="32.3856951" lon="-110.517608"><ele>1045.5</ele><time>2026-05-02T15:04:50.318Z</time></trkpt><trkpt lat="32.3858172" lon="-110.5175381"><ele>1042.0</ele><time>2026-05-02T15:04:51.319Z</time></trkpt><trkpt lat="32.3859347" lon="-110.5174702"><ele>1042.0</ele><time>2026-05-02T15:04:52.318Z</time></trkpt><trkpt lat="32.386042" lon="-110.5174117"><ele>1042.0</ele><time>2026-05-02T15:04:53.318Z</time></trkpt><trkpt lat="32.3861295" lon="-110.5173414"><ele>1042.0</ele><time>2026-05-02T15:04:54.318Z</time></trkpt><trkpt lat="32.3862021" lon="-110.5172507"><ele>1042.0</ele><time>2026-05-02T15:04:55.318Z</time></trkpt><trkpt lat="32.3862719" lon="-110.5171336"><ele>1041.0</ele><time>2026-05-02T15:04:56.319Z</time></trkpt><trkpt lat="32.3863537" lon="-110.516988"><ele>1040.0</ele><time>2026-05-02T15:04:57.319Z</time></trkpt><trkpt lat="32.3864345" lon="-110.5168378"><ele>1039.0</ele><time>2026-05-02T15:04:58.318Z</time></trkpt><trkpt lat="32.3865154" lon="-110.5166924"><ele>1038.0</ele><time>2026-05-02T15:04:59.319Z</time></trkpt><trkpt lat="32.3865911" lon="-110.5165518"><ele>1038.0</ele><time>2026-05-02T15:05:00.318Z</time></trkpt><trkpt lat="32.3866646" lon="-110.5164101"><ele>1038.0</ele><time>2026-05-02T15:05:01.319Z</time></trkpt><trkpt lat="32.3867405" lon="-110.5162674"><ele>1038.0</ele><time>2026-05-02T15:05:02.319Z</time></trkpt><trkpt lat="32.386815" lon="-110.5161229"><ele>1038.0</ele><time>2026-05-02T15:05:03.319Z</time></trkpt><trkpt lat="32.3868938" lon="-110.515981"><ele>1038.0</ele><time>2026-05-02T15:05:04.319Z</time></trkpt><trkpt lat="32.3869809" lon="-110.5158456"><ele>1038.0</ele><time>2026-05-02T15:05:05.318Z</time></trkpt><trkpt lat="32.3870773" lon="-110.5157191"><ele>1038.0</ele><time>2026-05-02T15:05:06.318Z</time></trkpt><trkpt lat="32.3871853" lon="-110.5156061"><ele>1038.0</ele><time>2026-05-02T15:05:07.318Z</time></trkpt><trkpt lat="32.3873101" lon="-110.5155017"><ele>1037.6666666666667</ele><time>2026-05-02T15:05:08.318Z</time></trkpt><trkpt lat="32.3874407" lon="-110.5154103"><ele>1037.3333333333335</ele><time>2026-05-02T15:05:09.317Z</time></trkpt><trkpt lat="32.387576" lon="-110.5153345"><ele>1037.0</ele><time>2026-05-02T15:05:10.319Z</time></trkpt><trkpt lat="32.3877223" lon="-110.5152691"><ele>1036.3333333333335</ele><time>2026-05-02T15:05:11.318Z</time></trkpt><trkpt lat="32.3878728" lon="-110.5152114"><ele>1035.6666666666667</ele><time>2026-05-02T15:05:12.319Z</time></trkpt><trkpt lat="32.388016" lon="-110.51516"><ele>1035.0</ele><time>2026-05-02T15:05:13.318Z</time></trkpt><trkpt lat="32.3881576" lon="-110.5151061"><ele>1034.6666666666667</ele><time>2026-05-02T15:05:14.318Z</time></trkpt><trkpt lat="32.3883027" lon="-110.515044"><ele>1034.3333333333335</ele><time>2026-05-02T15:05:15.318Z</time></trkpt><trkpt lat="32.3884488" lon="-110.5149731"><ele>1034.0</ele><time>2026-05-02T15:05:16.319Z</time></trkpt><trkpt lat="32.388597" lon="-110.5148915"><ele>1034.0</ele><time>2026-05-02T15:05:17.319Z</time></trkpt><trkpt lat="32.3887454" lon="-110.5147975"><ele>1034.0</ele><time>2026-05-02T15:05:18.318Z</time></trkpt><trkpt lat="32.3888932" lon="-110.5146871"><ele>1034.0</ele><time>2026-05-02T15:05:19.318Z</time></trkpt><trkpt lat="32.3890334" lon="-110.5145634"><ele>1031.0</ele><time>2026-05-02T15:05:20.318Z</time></trkpt><trkpt lat="32.389173" lon="-110.5144245"><ele>1028.0</ele><time>2026-05-02T15:05:21.319Z</time></trkpt><trkpt lat="32.3893088" lon="-110.5142825"><ele>1025.0</ele><time>2026-05-02T15:05:22.318Z</time></trkpt><trkpt lat="32.3894377" lon="-110.514148"><ele>1025.0</ele><time>2026-05-02T15:05:23.318Z</time></trkpt><trkpt lat="32.3895624" lon="-110.5140219"><ele>1025.0</ele><time>2026-05-02T15:05:24.318Z</time></trkpt><trkpt lat="32.389688" lon="-110.5139041"><ele>1025.0</ele><time>2026-05-02T15:05:25.319Z</time></trkpt><trkpt lat="32.3898169" lon="-110.5137962"><ele>1024.0</ele><time>2026-05-02T15:05:26.319Z</time></trkpt><trkpt lat="32.3899508" lon="-110.5136975"><ele>1023.0</ele><time>2026-05-02T15:05:27.318Z</time></trkpt><trkpt lat="32.3900918" lon="-110.5136094"><ele>1022.0</ele><time>2026-05-02T15:05:28.318Z</time></trkpt><trkpt lat="32.3902412" lon="-110.5135336"><ele>1022.0</ele><time>2026-05-02T15:05:29.318Z</time></trkpt><trkpt lat="32.390402" lon="-110.5134683"><ele>1022.0</ele><time>2026-05-02T15:05:30.318Z</time></trkpt><trkpt lat="32.3905815" lon="-110.5134095"><ele>1022.0</ele><time>2026-05-02T15:05:31.318Z</time></trkpt><trkpt lat="32.3907741" lon="-110.5133543"><ele>1021.3333333333334</ele><time>2026-05-02T15:05:32.318Z</time></trkpt><trkpt lat="32.3909659" lon="-110.5133024"><ele>1020.6666666666667</ele><time>2026-05-02T15:05:33.318Z</time></trkpt><trkpt lat="32.3911542" lon="-110.5132507"><ele>1020.0</ele><time>2026-05-02T15:05:34.318Z</time></trkpt><trkpt lat="32.3913377" lon="-110.513197"><ele>1016.6666666666667</ele><time>2026-05-02T15:05:35.319Z</time></trkpt><trkpt lat="32.3915149" lon="-110.5131402"><ele>1013.3333333333334</ele><time>2026-05-02T15:05:36.318Z</time></trkpt><trkpt lat="32.3916814" lon="-110.5130764"><ele>1010.0</ele><time>2026-05-02T15:05:37.319Z</time></trkpt><trkpt lat="32.391837" lon="-110.512999"><ele>1010.0</ele><time>2026-05-02T15:05:38.318Z</time></trkpt><trkpt lat="32.39198" lon="-110.5129091"><ele>1010.0</ele><time>2026-05-02T15:05:39.318Z</time></trkpt><trkpt lat="32.3921135" lon="-110.5128076"><ele>1010.0</ele><time>2026-05-02T15:05:40.319Z</time></trkpt><trkpt lat="32.3922419" lon="-110.5127048"><ele>1009.3333333333334</ele><time>2026-05-02T15:05:41.319Z</time></trkpt><trkpt lat="32.3923734" lon="-110.5126105"><ele>1008.6666666666667</ele><time>2026-05-02T15:05:42.318Z</time></trkpt><trkpt lat="32.3925133" lon="-110.5125266"><ele>1008.0</ele><time>2026-05-02T15:05:43.319Z</time></trkpt><trkpt lat="32.3926632" lon="-110.512458"><ele>1008.0</ele><time>2026-05-02T15:05:44.319Z</time></trkpt><trkpt lat="32.3928249" lon="-110.5124057"><ele>1008.0</ele><time>2026-05-02T15:05:45.319Z</time></trkpt><trkpt lat="32.3930019" lon="-110.5123676"><ele>1008.0</ele><time>2026-05-02T15:05:46.318Z</time></trkpt><trkpt lat="32.3931865" lon="-110.5123366"><ele>1005.3333333333333</ele><time>2026-05-02T15:05:47.319Z</time></trkpt><trkpt lat="32.3933623" lon="-110.5123082"><ele>1002.6666666666666</ele><time>2026-05-02T15:05:48.319Z</time></trkpt><trkpt lat="32.3935142" lon="-110.5122852"><ele>1000.0</ele><time>2026-05-02T15:05:49.319Z</time></trkpt><trkpt lat="32.3936557" lon="-110.5122593"><ele>1000.0</ele><time>2026-05-02T15:05:50.318Z</time></trkpt><trkpt lat="32.3937879" lon="-110.5122252"><ele>1000.0</ele><time>2026-05-02T15:05:51.318Z</time></trkpt><trkpt lat="32.3939202" lon="-110.5121761"><ele>1000.0</ele><time>2026-05-02T15:05:52.319Z</time></trkpt><trkpt lat="32.39405" lon="-110.5121194"><ele>1000.0</ele><time>2026-05-02T15:05:53.319Z</time></trkpt><trkpt lat="32.3941707" lon="-110.5120384"><ele>1000.25</ele><time>2026-05-02T15:05:54.319Z</time></trkpt><trkpt lat="32.3942781" lon="-110.5119398"><ele>1000.5</ele><time>2026-05-02T15:05:55.319Z</time></trkpt><trkpt lat="32.3943896" lon="-110.5118352"><ele>1000.75</ele><time>2026-05-02T15:05:56.32Z</time></trkpt><trkpt lat="32.3945041" lon="-110.5117349"><ele>1001.0</ele><time>2026-05-02T15:05:57.318Z</time></trkpt><trkpt lat="32.3946158" lon="-110.5116465"><ele>999.25</ele><time>2026-05-02T15:05:58.319Z</time></trkpt><trkpt lat="32.3947285" lon="-110.5115694"><ele>997.5</ele><time>2026-05-02T15:05:59.318Z</time></trkpt><trkpt lat="32.3948438" lon="-110.511502"><ele>995.75</ele><time>2026-05-02T15:06:00.319Z</time></trkpt><trkpt lat="32.3949639" lon="-110.5114426"><ele>994.0</ele><time>2026-05-02T15:06:01.32Z</time></trkpt><trkpt lat="32.3950898" lon="-110.5113953"><ele>994.0</ele><time>2026-05-02T15:06:02.318Z</time></trkpt><trkpt lat="32.3952228" lon="-110.5113564"><ele>994.0</ele><time>2026-05-02T15:06:03.318Z</time></trkpt><trkpt lat="32.3953553" lon="-110.5113225"><ele>994.0</ele><time>2026-05-02T15:06:04.319Z</time></trkpt><trkpt lat="32.3954829" lon="-110.511287"><ele>994.0</ele><time>2026-05-02T15:06:05.32Z</time></trkpt><trkpt lat="32.3956012" lon="-110.5112469"><ele>994.0</ele><time>2026-05-02T15:06:06.319Z</time></trkpt><trkpt lat="32.3957119" lon="-110.5112016"><ele>994.0</ele><time>2026-05-02T15:06:07.319Z</time></trkpt><trkpt lat="32.3958177" lon="-110.5111502"><ele>994.0</ele><time>2026-05-02T15:06:08.318Z</time></trkpt><trkpt lat="32.3959219" lon="-110.5110886"><ele>994.0</ele><time>2026-05-02T15:06:09.319Z</time></trkpt><trkpt lat="32.3960235" lon="-110.5110088"><ele>994.0</ele><time>2026-05-02T15:06:10.319Z</time></trkpt><trkpt lat="32.396117" lon="-110.5109079"><ele>994.0</ele><time>2026-05-02T15:06:11.319Z</time></trkpt><trkpt lat="32.3962023" lon="-110.5107849"><ele>994.0</ele><time>2026-05-02T15:06:12.319Z</time></trkpt><trkpt lat="32.3962764" lon="-110.5106461"><ele>994.0</ele><time>2026-05-02T15:06:13.32Z</time></trkpt><trkpt lat="32.3963474" lon="-110.5104969"><ele>992.3333333333333</ele><time>2026-05-02T15:06:14.32Z</time></trkpt><trkpt lat="32.3964266" lon="-110.5103473"><ele>990.6666666666667</ele><time>2026-05-02T15:06:15.32Z</time></trkpt><trkpt lat="32.3965106" lon="-110.5102002"><ele>989.0</ele><time>2026-05-02T15:06:16.32Z</time></trkpt><trkpt lat="32.3966202" lon="-110.5100516"><ele>989.0</ele><time>2026-05-02T15:06:17.32Z</time></trkpt><trkpt lat="32.3967367" lon="-110.5099006"><ele>989.0</ele><time>2026-05-02T15:06:18.319Z</time></trkpt><trkpt lat="32.3968585" lon="-110.5097647"><ele>989.0</ele><time>2026-05-02T15:06:19.32Z</time></trkpt><trkpt lat="32.3969702" lon="-110.5096366"><ele>989.25</ele><time>2026-05-02T15:06:20.319Z</time></trkpt><trkpt lat="32.3970754" lon="-110.509501"><ele>989.5</ele><time>2026-05-02T15:06:21.32Z</time></trkpt><trkpt lat="32.3971671" lon="-110.5093581"><ele>989.75</ele><time>2026-05-02T15:06:22.319Z</time></trkpt><trkpt lat="32.3972416" lon="-110.5092171"><ele>990.0</ele><time>2026-05-02T15:06:23.32Z</time></trkpt><trkpt lat="32.3973093" lon="-110.5090891"><ele>990.0</ele><time>2026-05-02T15:06:24.319Z</time></trkpt><trkpt lat="32.3973838" lon="-110.5089739"><ele>990.0</ele><time>2026-05-02T15:06:25.32Z</time></trkpt><trkpt lat="32.3974739" lon="-110.5088655"><ele>990.0</ele><time>2026-05-02T15:06:26.319Z</time></trkpt><trkpt lat="32.3975797" lon="-110.5087686"><ele>990.0</ele><time>2026-05-02T15:06:27.319Z</time></trkpt><trkpt lat="32.3976977" lon="-110.5086909"><ele>990.0</ele><time>2026-05-02T15:06:28.32Z</time></trkpt><trkpt lat="32.3978278" lon="-110.5086317"><ele>990.0</ele><time>2026-05-02T15:06:29.319Z</time></trkpt><trkpt lat="32.3979681" lon="-110.5085924"><ele>990.0</ele><time>2026-05-02T15:06:30.319Z</time></trkpt><trkpt lat="32.3981209" lon="-110.5085688"><ele>990.0</ele><time>2026-05-02T15:06:31.319Z</time></trkpt><trkpt lat="32.3982862" lon="-110.5085535"><ele>990.0</ele><time>2026-05-02T15:06:32.319Z</time></trkpt><trkpt lat="32.3984541" lon="-110.5085361"><ele>990.0</ele><time>2026-05-02T15:06:33.319Z</time></trkpt><trkpt lat="32.3986137" lon="-110.5085098"><ele>990.0</ele><time>2026-05-02T15:06:34.32Z</time></trkpt><trkpt lat="32.398767" lon="-110.508471"><ele>989.6666666666667</ele><time>2026-05-02T15:06:35.32Z</time></trkpt><trkpt lat="32.3989153" lon="-110.5084179"><ele>989.3333333333334</ele><time>2026-05-02T15:06:36.32Z</time></trkpt><trkpt lat="32.399053" lon="-110.5083501"><ele>989.0</ele><time>2026-05-02T15:06:37.32Z</time></trkpt><trkpt lat="32.3991825" lon="-110.508264"><ele>989.0</ele><time>2026-05-02T15:06:38.319Z</time></trkpt><trkpt lat="32.3993039" lon="-110.5081567"><ele>989.0</ele><time>2026-05-02T15:06:39.32Z</time></trkpt><trkpt lat="32.3994227" lon="-110.5080415"><ele>989.0</ele><time>2026-05-02T15:06:40.319Z</time></trkpt><trkpt lat="32.3995303" lon="-110.5079007"><ele>988.3333333333334</ele><time>2026-05-02T15:06:41.32Z</time></trkpt><trkpt lat="32.3996281" lon="-110.5077552"><ele>987.6666666666667</ele><time>2026-05-02T15:06:42.32Z</time></trkpt><trkpt lat="32.3997175" lon="-110.507606"><ele>987.0</ele><time>2026-05-02T15:06:43.32Z</time></trkpt><trkpt lat="32.3998012" lon="-110.5074426"><ele>986.0</ele><time>2026-05-02T15:06:44.319Z</time></trkpt><trkpt lat="32.399873" lon="-110.5072654"><ele>985.0</ele><time>2026-05-02T15:06:45.319Z</time></trkpt><trkpt lat="32.3999339" lon="-110.5070873"><ele>984.0</ele><time>2026-05-02T15:06:46.32Z</time></trkpt><trkpt lat="32.3999929" lon="-110.5069118"><ele>983.3333333333333</ele><time>2026-05-02T15:06:47.319Z</time></trkpt><trkpt lat="32.4000573" lon="-110.5067367"><ele>982.6666666666666</ele><time>2026-05-02T15:06:48.319Z</time></trkpt><trkpt lat="32.4001278" lon="-110.5065694"><ele>982.0</ele><time>2026-05-02T15:06:49.32Z</time></trkpt><trkpt lat="32.4002051" lon="-110.5064114"><ele>982.0</ele><time>2026-05-02T15:06:50.319Z</time></trkpt><trkpt lat="32.4002938" lon="-110.5062614"><ele>982.0</ele><time>2026-05-02T15:06:51.32Z</time></trkpt><trkpt lat="32.4003995" lon="-110.5061168"><ele>982.0</ele><time>2026-05-02T15:06:52.32Z</time></trkpt><trkpt lat="32.4005231" lon="-110.5059805"><ele>980.3333333333333</ele><time>2026-05-02T15:06:53.32Z</time></trkpt><trkpt lat="32.4006604" lon="-110.5058511"><ele>978.6666666666667</ele><time>2026-05-02T15:06:54.319Z</time></trkpt><trkpt lat="32.4008051" lon="-110.5057266"><ele>977.0</ele><time>2026-05-02T15:06:55.319Z</time></trkpt><trkpt lat="32.4009516" lon="-110.5056061"><ele>977.0</ele><time>2026-05-02T15:06:56.319Z</time></trkpt><trkpt lat="32.4010992" lon="-110.5054884"><ele>977.0</ele><time>2026-05-02T15:06:57.319Z</time></trkpt><trkpt lat="32.401246" lon="-110.5053728"><ele>977.0</ele><time>2026-05-02T15:06:58.319Z</time></trkpt><trkpt lat="32.4013919" lon="-110.5052591"><ele>976.6666666666667</ele><time>2026-05-02T15:06:59.32Z</time></trkpt><trkpt lat="32.4015352" lon="-110.5051503"><ele>976.3333333333333</ele><time>2026-05-02T15:07:00.32Z</time></trkpt><trkpt lat="32.4016759" lon="-110.505047"><ele>976.0</ele><time>2026-05-02T15:07:01.32Z</time></trkpt><trkpt lat="32.4018139" lon="-110.504954"><ele>976.0</ele><time>2026-05-02T15:07:02.32Z</time></trkpt><trkpt lat="32.401952" lon="-110.5048751"><ele>976.0</ele><time>2026-05-02T15:07:03.32Z</time></trkpt><trkpt lat="32.4020948" lon="-110.5048087"><ele>976.0</ele><time>2026-05-02T15:07:04.321Z</time></trkpt><trkpt lat="32.4022419" lon="-110.504758"><ele>975.6666666666666</ele><time>2026-05-02T15:07:05.319Z</time></trkpt><trkpt lat="32.40239" lon="-110.5047279"><ele>975.3333333333333</ele><time>2026-05-02T15:07:06.319Z</time></trkpt><trkpt lat="32.4025388" lon="-110.5047193"><ele>975.0</ele><time>2026-05-02T15:07:07.32Z</time></trkpt><trkpt lat="32.4026892" lon="-110.5047283"><ele>975.0</ele><time>2026-05-02T15:07:08.32Z</time></trkpt><trkpt lat="32.4028437" lon="-110.5047493"><ele>975.0</ele><time>2026-05-02T15:07:09.319Z</time></trkpt><trkpt lat="32.4030018" lon="-110.5047706"><ele>975.0</ele><time>2026-05-02T15:07:10.32Z</time></trkpt><trkpt lat="32.4031633" lon="-110.5047813"><ele>975.0</ele><time>2026-05-02T15:07:11.32Z</time></trkpt><trkpt lat="32.4033309" lon="-110.5047788"><ele>975.0</ele><time>2026-05-02T15:07:12.319Z</time></trkpt><trkpt lat="32.4035065" lon="-110.5047621"><ele>975.0</ele><time>2026-05-02T15:07:13.319Z</time></trkpt><trkpt lat="32.4036893" lon="-110.5047307"><ele>974.0</ele><time>2026-05-02T15:07:14.319Z</time></trkpt><trkpt lat="32.4038772" lon="-110.5046933"><ele>973.0</ele><time>2026-05-02T15:07:15.319Z</time></trkpt><trkpt lat="32.4040658" lon="-110.5046468"><ele>972.0</ele><time>2026-05-02T15:07:16.319Z</time></trkpt><trkpt lat="32.4042501" lon="-110.5046023"><ele>972.3333333333333</ele><time>2026-05-02T15:07:17.319Z</time></trkpt><trkpt lat="32.4044334" lon="-110.5045595"><ele>972.6666666666666</ele><time>2026-05-02T15:07:18.32Z</time></trkpt><trkpt lat="32.4046163" lon="-110.5045144"><ele>973.0</ele><time>2026-05-02T15:07:19.319Z</time></trkpt><trkpt lat="32.4047996" lon="-110.5044675"><ele>973.0</ele><time>2026-05-02T15:07:20.319Z</time></trkpt><trkpt lat="32.4049817" lon="-110.5044189"><ele>973.0</ele><time>2026-05-02T15:07:21.32Z</time></trkpt><trkpt lat="32.4051625" lon="-110.5043706"><ele>973.0</ele><time>2026-05-02T15:07:22.32Z</time></trkpt><trkpt lat="32.4053452" lon="-110.5043269"><ele>971.6666666666666</ele><time>2026-05-02T15:07:23.319Z</time></trkpt><trkpt lat="32.4055279" lon="-110.5042833"><ele>970.3333333333333</ele><time>2026-05-02T15:07:24.32Z</time></trkpt><trkpt lat="32.4057112" lon="-110.5042432"><ele>969.0</ele><time>2026-05-02T15:07:25.32Z</time></trkpt><trkpt lat="32.4058939" lon="-110.5042101"><ele>969.0</ele><time>2026-05-02T15:07:26.319Z</time></trkpt><trkpt lat="32.4060806" lon="-110.5041809"><ele>969.0</ele><time>2026-05-02T15:07:27.319Z</time></trkpt><trkpt lat="32.4062676" lon="-110.5041626"><ele>969.0</ele><time>2026-05-02T15:07:28.319Z</time></trkpt><trkpt lat="32.4064458" lon="-110.5041497"><ele>967.3333333333333</ele><time>2026-05-02T15:07:29.32Z</time></trkpt><trkpt lat="32.4066177" lon="-110.5041415"><ele>965.6666666666666</ele><time>2026-05-02T15:07:30.32Z</time></trkpt><trkpt lat="32.4067834" lon="-110.5041287"><ele>964.0</ele><time>2026-05-02T15:07:31.319Z</time></trkpt><trkpt lat="32.4069537" lon="-110.5041168"><ele>964.0</ele><time>2026-05-02T15:07:32.32Z</time></trkpt><trkpt lat="32.4071189" lon="-110.5040902"><ele>964.0</ele><time>2026-05-02T15:07:33.321Z</time></trkpt><trkpt lat="32.4072856" lon="-110.5040461"><ele>964.0</ele><time>2026-05-02T15:07:34.319Z</time></trkpt><trkpt lat="32.407455" lon="-110.5039892"><ele>964.0</ele><time>2026-05-02T15:07:35.319Z</time></trkpt><trkpt lat="32.407633" lon="-110.503923"><ele>964.0</ele><time>2026-05-02T15:07:36.319Z</time></trkpt><trkpt lat="32.4078148" lon="-110.5038514"><ele>964.0</ele><time>2026-05-02T15:07:37.319Z</time></trkpt><trkpt lat="32.407998" lon="-110.5037786"><ele>963.3333333333333</ele><time>2026-05-02T15:07:38.319Z</time></trkpt><trkpt lat="32.4081772" lon="-110.5037072"><ele>962.6666666666667</ele><time>2026-05-02T15:07:39.32Z</time></trkpt><trkpt lat="32.408355" lon="-110.5036379"><ele>962.0</ele><time>2026-05-02T15:07:40.319Z</time></trkpt><trkpt lat="32.4085315" lon="-110.5035698"><ele>962.0</ele><time>2026-05-02T15:07:41.32Z</time></trkpt><trkpt lat="32.4087043" lon="-110.5035002"><ele>962.0</ele><time>2026-05-02T15:07:42.321Z</time></trkpt><trkpt lat="32.4088702" lon="-110.5034309"><ele>962.0</ele><time>2026-05-02T15:07:43.32Z</time></trkpt><trkpt lat="32.4090364" lon="-110.5033603"><ele>959.6666666666667</ele><time>2026-05-02T15:07:44.32Z</time></trkpt><trkpt lat="32.4092019" lon="-110.50329"><ele>957.3333333333333</ele><time>2026-05-02T15:07:45.319Z</time></trkpt><trkpt lat="32.409357" lon="-110.5032272"><ele>955.0</ele><time>2026-05-02T15:07:46.319Z</time></trkpt><trkpt lat="32.4095098" lon="-110.5031655"><ele>955.0</ele><time>2026-05-02T15:07:47.32Z</time></trkpt><trkpt lat="32.4096582" lon="-110.5031175"><ele>955.0</ele><time>2026-05-02T15:07:48.321Z</time></trkpt><trkpt lat="32.4098041" lon="-110.503086"><ele>955.0</ele><time>2026-05-02T15:07:49.319Z</time></trkpt><trkpt lat="32.4099496" lon="-110.5030698"><ele>955.0</ele><time>2026-05-02T15:07:50.321Z</time></trkpt><trkpt lat="32.4100887" lon="-110.5030739"><ele>954.25</ele><time>2026-05-02T15:07:51.319Z</time></trkpt><trkpt lat="32.4102151" lon="-110.5030965"><ele>953.5</ele><time>2026-05-02T15:07:52.32Z</time></trkpt><trkpt lat="32.4103484" lon="-110.5031376"><ele>952.75</ele><time>2026-05-02T15:07:53.321Z</time></trkpt><trkpt lat="32.4104967" lon="-110.5031988"><ele>952.0</ele><time>2026-05-02T15:07:54.32Z</time></trkpt><trkpt lat="32.4106544" lon="-110.5032737"><ele>951.0</ele><time>2026-05-02T15:07:55.319Z</time></trkpt><trkpt lat="32.410813" lon="-110.5033409"><ele>950.0</ele><time>2026-05-02T15:07:56.32Z</time></trkpt><trkpt lat="32.4109721" lon="-110.5033973"><ele>949.0</ele><time>2026-05-02T15:07:57.32Z</time></trkpt><trkpt lat="32.4111397" lon="-110.5034399"><ele>949.0</ele><time>2026-05-02T15:07:58.32Z</time></trkpt><trkpt lat="32.4113021" lon="-110.5034631"><ele>949.0</ele><time>2026-05-02T15:07:59.32Z</time></trkpt><trkpt lat="32.411463" lon="-110.5034681"><ele>949.0</ele><time>2026-05-02T15:08:00.321Z</time></trkpt><trkpt lat="32.4116353" lon="-110.503466"><ele>949.0</ele><time>2026-05-02T15:08:01.32Z</time></trkpt><trkpt lat="32.4117998" lon="-110.5034366"><ele>949.0</ele><time>2026-05-02T15:08:02.32Z</time></trkpt><trkpt lat="32.4119642" lon="-110.5033862"><ele>949.0</ele><time>2026-05-02T15:08:03.321Z</time></trkpt><trkpt lat="32.4121283" lon="-110.5033305"><ele>949.0</ele><time>2026-05-02T15:08:04.32Z</time></trkpt><trkpt lat="32.4122794" lon="-110.5032794"><ele>949.0</ele><time>2026-05-02T15:08:05.32Z</time></trkpt><trkpt lat="32.4124223" lon="-110.5032303"><ele>949.0</ele><time>2026-05-02T15:08:06.321Z</time></trkpt><trkpt lat="32.4125511" lon="-110.5031914"><ele>949.0</ele><time>2026-05-02T15:08:07.32Z</time></trkpt><trkpt lat="32.4126839" lon="-110.5031553"><ele>949.0</ele><time>2026-05-02T15:08:08.32Z</time></trkpt><trkpt lat="32.4128265" lon="-110.503111"><ele>949.0</ele><time>2026-05-02T15:08:09.321Z</time></trkpt><trkpt lat="32.4129757" lon="-110.5030569"><ele>949.0</ele><time>2026-05-02T15:08:10.321Z</time></trkpt><trkpt lat="32.4131238" lon="-110.5030008"><ele>948.0</ele><time>2026-05-02T15:08:11.321Z</time></trkpt><trkpt lat="32.4132653" lon="-110.5029298"><ele>947.0</ele><time>2026-05-02T15:08:12.32Z</time></trkpt><trkpt lat="32.4134055" lon="-110.5028395"><ele>946.0</ele><time>2026-05-02T15:08:13.32Z</time></trkpt><trkpt lat="32.4135463" lon="-110.502744"><ele>945.6666666666666</ele><time>2026-05-02T15:08:14.32Z</time></trkpt><trkpt lat="32.4136921" lon="-110.5026341"><ele>945.3333333333333</ele><time>2026-05-02T15:08:15.32Z</time></trkpt><trkpt lat="32.4138407" lon="-110.5025148"><ele>945.0</ele><time>2026-05-02T15:08:16.321Z</time></trkpt><trkpt lat="32.4139809" lon="-110.5024003"><ele>943.6666666666667</ele><time>2026-05-02T15:08:17.32Z</time></trkpt><trkpt lat="32.4141179" lon="-110.5022862"><ele>942.3333333333334</ele><time>2026-05-02T15:08:18.32Z</time></trkpt><trkpt lat="32.41426" lon="-110.5021794"><ele>941.0</ele><time>2026-05-02T15:08:19.321Z</time></trkpt><trkpt lat="32.4143904" lon="-110.5020807"><ele>940.6666666666667</ele><time>2026-05-02T15:08:20.32Z</time></trkpt><trkpt lat="32.4145302" lon="-110.5019754"><ele>940.3333333333333</ele><time>2026-05-02T15:08:21.321Z</time></trkpt><trkpt lat="32.414659" lon="-110.5018601"><ele>940.0</ele><time>2026-05-02T15:08:22.321Z</time></trkpt><trkpt lat="32.4147788" lon="-110.5017575"><ele>940.0</ele><time>2026-05-02T15:08:23.321Z</time></trkpt><trkpt lat="32.4148926" lon="-110.5016663"><ele>940.0</ele><time>2026-05-02T15:08:24.32Z</time></trkpt><trkpt lat="32.4150028" lon="-110.5015864"><ele>940.0</ele><time>2026-05-02T15:08:25.321Z</time></trkpt><trkpt lat="32.4151191" lon="-110.5015117"><ele>940.0</ele><time>2026-05-02T15:08:26.321Z</time></trkpt><trkpt lat="32.4152452" lon="-110.5014615"><ele>940.0</ele><time>2026-05-02T15:08:27.321Z</time></trkpt><trkpt lat="32.4153751" lon="-110.5014275"><ele>940.0</ele><time>2026-05-02T15:08:28.32Z</time></trkpt><trkpt lat="32.4155107" lon="-110.5014022"><ele>940.0</ele><time>2026-05-02T15:08:29.32Z</time></trkpt><trkpt lat="32.4156498" lon="-110.5014024"><ele>940.0</ele><time>2026-05-02T15:08:30.32Z</time></trkpt><trkpt lat="32.4157774" lon="-110.5013969"><ele>939.8</ele><time>2026-05-02T15:08:31.32Z</time></trkpt><trkpt lat="32.4158894" lon="-110.5013952"><ele>939.6</ele><time>2026-05-02T15:08:32.321Z</time></trkpt><trkpt lat="32.4159944" lon="-110.5013821"><ele>939.4000000000001</ele><time>2026-05-02T15:08:33.32Z</time></trkpt><trkpt lat="32.4161019" lon="-110.5013589"><ele>939.2</ele><time>2026-05-02T15:08:34.321Z</time></trkpt><trkpt lat="32.4161865" lon="-110.5012961"><ele>939.0</ele><time>2026-05-02T15:08:35.321Z</time></trkpt><trkpt lat="32.4162702" lon="-110.5012126"><ele>938.5</ele><time>2026-05-02T15:08:36.32Z</time></trkpt><trkpt lat="32.4163444" lon="-110.5011055"><ele>938.0</ele><time>2026-05-02T15:08:37.321Z</time></trkpt><trkpt lat="32.4164076" lon="-110.5009827"><ele>937.5</ele><time>2026-05-02T15:08:38.321Z</time></trkpt><trkpt lat="32.4164483" lon="-110.50085"><ele>937.0</ele><time>2026-05-02T15:08:39.321Z</time></trkpt><trkpt lat="32.4164834" lon="-110.5007087"><ele>937.0</ele><time>2026-05-02T15:08:40.32Z</time></trkpt><trkpt lat="32.4165005" lon="-110.5005531"><ele>937.0</ele><time>2026-05-02T15:08:41.32Z</time></trkpt><trkpt lat="32.4165176" lon="-110.5003866"><ele>937.0</ele><time>2026-05-02T15:08:42.321Z</time></trkpt><trkpt lat="32.4165167" lon="-110.5002229"><ele>937.0</ele><time>2026-05-02T15:08:43.32Z</time></trkpt><trkpt lat="32.4165154" lon="-110.5000557"><ele>936.0</ele><time>2026-05-02T15:08:44.321Z</time></trkpt><trkpt lat="32.4165121" lon="-110.4998888"><ele>935.0</ele><time>2026-05-02T15:08:45.321Z</time></trkpt><trkpt lat="32.4164983" lon="-110.4997266"><ele>934.0</ele><time>2026-05-02T15:08:46.321Z</time></trkpt><trkpt lat="32.4164719" lon="-110.4995702"><ele>933.0</ele><time>2026-05-02T15:08:47.32Z</time></trkpt><trkpt lat="32.4164466" lon="-110.499421"><ele>933.0</ele><time>2026-05-02T15:08:48.32Z</time></trkpt><trkpt lat="32.4164232" lon="-110.4992696"><ele>933.0</ele><time>2026-05-02T15:08:49.321Z</time></trkpt><trkpt lat="32.4164039" lon="-110.4991115"><ele>933.0</ele><time>2026-05-02T15:08:50.32Z</time></trkpt><trkpt lat="32.4163956" lon="-110.4989548"><ele>933.0</ele><time>2026-05-02T15:08:51.321Z</time></trkpt><trkpt lat="32.4163989" lon="-110.4988037"><ele>931.25</ele><time>2026-05-02T15:08:52.32Z</time></trkpt><trkpt lat="32.4164176" lon="-110.4986461"><ele>929.5</ele><time>2026-05-02T15:08:53.32Z</time></trkpt><trkpt lat="32.4164412" lon="-110.4984874"><ele>927.75</ele><time>2026-05-02T15:08:54.321Z</time></trkpt><trkpt lat="32.4164664" lon="-110.4983271"><ele>926.0</ele><time>2026-05-02T15:08:55.32Z</time></trkpt><trkpt lat="32.4164886" lon="-110.4981713"><ele>926.0</ele><time>2026-05-02T15:08:56.321Z</time></trkpt><trkpt lat="32.4165041" lon="-110.4980196"><ele>926.0</ele><time>2026-05-02T15:08:57.322Z</time></trkpt><trkpt lat="32.4165155" lon="-110.4978705"><ele>926.0</ele><time>2026-05-02T15:08:58.321Z</time></trkpt><trkpt lat="32.4165183" lon="-110.4977241"><ele>926.0</ele><time>2026-05-02T15:08:59.321Z</time></trkpt><trkpt lat="32.4165348" lon="-110.4975673"><ele>923.0</ele><time>2026-05-02T15:09:00.322Z</time></trkpt><trkpt lat="32.4165661" lon="-110.497393"><ele>920.0</ele><time>2026-05-02T15:09:01.32Z</time></trkpt><trkpt lat="32.4166091" lon="-110.4972182"><ele>917.0</ele><time>2026-05-02T15:09:02.32Z</time></trkpt><trkpt lat="32.4166554" lon="-110.4970489"><ele>916.0</ele><time>2026-05-02T15:09:03.32Z</time></trkpt><trkpt lat="32.4167003" lon="-110.4968841"><ele>915.0</ele><time>2026-05-02T15:09:04.32Z</time></trkpt><trkpt lat="32.4167408" lon="-110.4967239"><ele>914.0</ele><time>2026-05-02T15:09:05.32Z</time></trkpt><trkpt lat="32.416779" lon="-110.4965636"><ele>913.0</ele><time>2026-05-02T15:09:06.322Z</time></trkpt><trkpt lat="32.4168102" lon="-110.49641"><ele>913.0</ele><time>2026-05-02T15:09:07.32Z</time></trkpt><trkpt lat="32.4168308" lon="-110.4962555"><ele>913.0</ele><time>2026-05-02T15:09:08.321Z</time></trkpt><trkpt lat="32.4168353" lon="-110.4960997"><ele>913.0</ele><time>2026-05-02T15:09:09.322Z</time></trkpt><trkpt lat="32.4168215" lon="-110.4959436"><ele>913.0</ele><time>2026-05-02T15:09:10.321Z</time></trkpt><trkpt lat="32.4167883" lon="-110.495784"><ele>912.0</ele><time>2026-05-02T15:09:11.322Z</time></trkpt><trkpt lat="32.4167431" lon="-110.4956284"><ele>911.0</ele><time>2026-05-02T15:09:12.321Z</time></trkpt><trkpt lat="32.4166942" lon="-110.4954831"><ele>910.0</ele><time>2026-05-02T15:09:13.321Z</time></trkpt><trkpt lat="32.4166558" lon="-110.4953492"><ele>909.0</ele><time>2026-05-02T15:09:14.321Z</time></trkpt><trkpt lat="32.416629" lon="-110.4952181"><ele>907.6</ele><time>2026-05-02T15:09:15.321Z</time></trkpt><trkpt lat="32.4166183" lon="-110.4950899"><ele>906.2</ele><time>2026-05-02T15:09:16.32Z</time></trkpt><trkpt lat="32.4166303" lon="-110.4949659"><ele>904.8000000000001</ele><time>2026-05-02T15:09:17.32Z</time></trkpt><trkpt lat="32.4166673" lon="-110.4948488"><ele>903.4000000000001</ele><time>2026-05-02T15:09:18.321Z</time></trkpt><trkpt lat="32.416728" lon="-110.4947442"><ele>902.0</ele><time>2026-05-02T15:09:19.321Z</time></trkpt><trkpt lat="32.4168122" lon="-110.4946548"><ele>899.75</ele><time>2026-05-02T15:09:20.321Z</time></trkpt><trkpt lat="32.4169186" lon="-110.4945818"><ele>897.5</ele><time>2026-05-02T15:09:21.321Z</time></trkpt><trkpt lat="32.4170491" lon="-110.4945185"><ele>895.25</ele><time>2026-05-02T15:09:22.321Z</time></trkpt><trkpt lat="32.417194" lon="-110.4944565"><ele>893.0</ele><time>2026-05-02T15:09:23.32Z</time></trkpt><trkpt lat="32.4173425" lon="-110.4943931"><ele>892.3333333333334</ele><time>2026-05-02T15:09:24.321Z</time></trkpt><trkpt lat="32.4174912" lon="-110.4943315"><ele>891.6666666666667</ele><time>2026-05-02T15:09:25.321Z</time></trkpt><trkpt lat="32.4176432" lon="-110.4942821"><ele>891.0</ele><time>2026-05-02T15:09:26.322Z</time></trkpt><trkpt lat="32.4177924" lon="-110.4942428"><ele>891.0</ele><time>2026-05-02T15:09:27.322Z</time></trkpt><trkpt lat="32.4179403" lon="-110.4942114"><ele>891.0</ele><time>2026-05-02T15:09:28.321Z</time></trkpt><trkpt lat="32.4180826" lon="-110.494184"><ele>891.0</ele><time>2026-05-02T15:09:29.321Z</time></trkpt><trkpt lat="32.4182228" lon="-110.494156"><ele>891.0</ele><time>2026-05-02T15:09:30.322Z</time></trkpt><trkpt lat="32.4183601" lon="-110.494131"><ele>890.25</ele><time>2026-05-02T15:09:31.321Z</time></trkpt><trkpt lat="32.4184944" lon="-110.4941081"><ele>889.5</ele><time>2026-05-02T15:09:32.322Z</time></trkpt><trkpt lat="32.4186261" lon="-110.4940834"><ele>888.75</ele><time>2026-05-02T15:09:33.322Z</time></trkpt><trkpt lat="32.4187549" lon="-110.4940543"><ele>888.0</ele><time>2026-05-02T15:09:34.321Z</time></trkpt><trkpt lat="32.4188812" lon="-110.4940259"><ele>886.75</ele><time>2026-05-02T15:09:35.322Z</time></trkpt><trkpt lat="32.4190052" lon="-110.494004"><ele>885.5</ele><time>2026-05-02T15:09:36.322Z</time></trkpt><trkpt lat="32.4191251" lon="-110.4939948"><ele>884.25</ele><time>2026-05-02T15:09:37.321Z</time></trkpt><trkpt lat="32.4192395" lon="-110.4940038"><ele>883.0</ele><time>2026-05-02T15:09:38.321Z</time></trkpt><trkpt lat="32.419347" lon="-110.4940348"><ele>883.0</ele><time>2026-05-02T15:09:39.321Z</time></trkpt><trkpt lat="32.4194453" lon="-110.4940871"><ele>883.0</ele><time>2026-05-02T15:09:40.321Z</time></trkpt><trkpt lat="32.4195316" lon="-110.4941553"><ele>883.0</ele><time>2026-05-02T15:09:41.322Z</time></trkpt><trkpt lat="32.419607" lon="-110.4942348"><ele>883.0</ele><time>2026-05-02T15:09:42.322Z</time></trkpt><trkpt lat="32.4196786" lon="-110.4943166"><ele>883.0</ele><time>2026-05-02T15:09:43.321Z</time></trkpt><trkpt lat="32.4197258" lon="-110.4944062"><ele>881.9999999999999</ele><time>2026-05-02T15:09:44.321Z</time></trkpt><trkpt lat="32.419765" lon="-110.4944969"><ele>881.0</ele><time>2026-05-02T15:09:45.321Z</time></trkpt><trkpt lat="32.4197969" lon="-110.4945772"><ele>880.0</ele><time>2026-05-02T15:09:46.321Z</time></trkpt><trkpt lat="32.419824" lon="-110.4946486"><ele>879.0</ele><time>2026-05-02T15:09:47.321Z</time></trkpt><trkpt lat="32.4198628" lon="-110.4947539"><ele>877.9999999999999</ele><time>2026-05-02T15:09:49.321Z</time></trkpt><trkpt lat="32.4198863" lon="-110.4948321"><ele>877.0</ele><time>2026-05-02T15:10:13.322Z</time></trkpt><trkpt lat="32.4198275" lon="-110.4947629"><ele>876.9999999999999</ele><time>2026-05-02T15:10:20.322Z</time></trkpt><trkpt lat="32.4198009" lon="-110.4946844"><ele>877.0</ele><time>2026-05-02T15:10:21.321Z</time></trkpt><trkpt lat="32.419768" lon="-110.4945973"><ele>877.0</ele><time>2026-05-02T15:10:22.322Z</time></trkpt><trkpt lat="32.419729" lon="-110.4945075"><ele>877.0</ele><time>2026-05-02T15:10:23.322Z</time></trkpt><trkpt lat="32.4196857" lon="-110.4944166"><ele>876.9999999999999</ele><time>2026-05-02T15:10:24.321Z</time></trkpt><trkpt lat="32.419639" lon="-110.4943336"><ele>877.0</ele><time>2026-05-02T15:10:25.321Z</time></trkpt><trkpt lat="32.4195851" lon="-110.4942583"><ele>877.9999999999999</ele><time>2026-05-02T15:10:26.321Z</time></trkpt><trkpt lat="32.4195234" lon="-110.4941884"><ele>879.0</ele><time>2026-05-02T15:10:27.321Z</time></trkpt><trkpt lat="32.4194566" lon="-110.4941285"><ele>880.0</ele><time>2026-05-02T15:10:28.322Z</time></trkpt><trkpt lat="32.4193863" lon="-110.4940796"><ele>881.0</ele><time>2026-05-02T15:10:29.321Z</time></trkpt><trkpt lat="32.4193142" lon="-110.4940458"><ele>881.9999999999999</ele><time>2026-05-02T15:10:30.322Z</time></trkpt><trkpt lat="32.4192385" lon="-110.4940168"><ele>883.0</ele><time>2026-05-02T15:10:31.321Z</time></trkpt><trkpt lat="32.4191604" lon="-110.4940126"><ele>883.0</ele><time>2026-05-02T15:10:32.321Z</time></trkpt><trkpt lat="32.4190752" lon="-110.4940194"><ele>883.0</ele><time>2026-05-02T15:10:33.322Z</time></trkpt><trkpt lat="32.4189849" lon="-110.4940313"><ele>883.0</ele><time>2026-05-02T15:10:34.322Z</time></trkpt><trkpt lat="32.4188888" lon="-110.4940507"><ele>883.0</ele><time>2026-05-02T15:10:35.322Z</time></trkpt><trkpt lat="32.418786" lon="-110.4940752"><ele>883.0</ele><time>2026-05-02T15:10:36.321Z</time></trkpt><trkpt lat="32.4186749" lon="-110.4940997"><ele>884.25</ele><time>2026-05-02T15:10:37.321Z</time></trkpt><trkpt lat="32.4185541" lon="-110.4941231"><ele>885.5</ele><time>2026-05-02T15:10:38.321Z</time></trkpt><trkpt lat="32.4184369" lon="-110.4941428"><ele>886.75</ele><time>2026-05-02T15:10:39.322Z</time></trkpt><trkpt lat="32.4183292" lon="-110.4941588"><ele>888.0</ele><time>2026-05-02T15:10:40.322Z</time></trkpt><trkpt lat="32.4182289" lon="-110.4941738"><ele>888.0</ele><time>2026-05-02T15:10:41.322Z</time></trkpt><trkpt lat="32.4181315" lon="-110.4941896"><ele>888.0</ele><time>2026-05-02T15:10:42.321Z</time></trkpt><trkpt lat="32.4180385" lon="-110.4942084"><ele>888.0</ele><time>2026-05-02T15:10:43.322Z</time></trkpt><trkpt lat="32.4179538" lon="-110.4942272"><ele>888.0</ele><time>2026-05-02T15:10:44.323Z</time></trkpt><trkpt lat="32.4178781" lon="-110.4942429"><ele>888.0</ele><time>2026-05-02T15:10:45.321Z</time></trkpt><trkpt lat="32.4178139" lon="-110.4942532"><ele>888.0</ele><time>2026-05-02T15:10:46.322Z</time></trkpt><trkpt lat="32.4177157" lon="-110.4942476"><ele>888.5</ele><time>2026-05-02T15:10:48.323Z</time></trkpt><trkpt lat="32.4176438" lon="-110.4942093"><ele>889.0</ele><time>2026-05-02T15:10:50.323Z</time></trkpt><trkpt lat="32.4175827" lon="-110.4941674"><ele>889.5</ele><time>2026-05-02T15:11:44.322Z</time></trkpt><trkpt lat="32.4176171" lon="-110.4942452"><ele>890.0</ele><time>2026-05-02T15:11:55.322Z</time></trkpt><trkpt lat="32.4177273" lon="-110.4942417"><ele>890.5</ele><time>2026-05-02T15:11:57.323Z</time></trkpt><trkpt lat="32.4178082" lon="-110.4942288"><ele>891.0</ele><time>2026-05-02T15:11:58.323Z</time></trkpt><trkpt lat="32.4179075" lon="-110.494213"><ele>890.25</ele><time>2026-05-02T15:11:59.322Z</time></trkpt><trkpt lat="32.4180226" lon="-110.4941941"><ele>889.5</ele><time>2026-05-02T15:12:00.322Z</time></trkpt><trkpt lat="32.4181486" lon="-110.4941721"><ele>888.75</ele><time>2026-05-02T15:12:01.323Z</time></trkpt><trkpt lat="32.4182731" lon="-110.4941518"><ele>888.0</ele><time>2026-05-02T15:12:02.322Z</time></trkpt><trkpt lat="32.4183966" lon="-110.4941317"><ele>888.0</ele><time>2026-05-02T15:12:03.322Z</time></trkpt><trkpt lat="32.4185219" lon="-110.4941086"><ele>888.0</ele><time>2026-05-02T15:12:04.323Z</time></trkpt><trkpt lat="32.4186455" lon="-110.4940837"><ele>888.0</ele><time>2026-05-02T15:12:05.322Z</time></trkpt><trkpt lat="32.4187675" lon="-110.49406"><ele>888.0</ele><time>2026-05-02T15:12:06.322Z</time></trkpt><trkpt lat="32.4188852" lon="-110.4940402"><ele>887.0</ele><time>2026-05-02T15:12:07.322Z</time></trkpt><trkpt lat="32.4189948" lon="-110.4940241"><ele>886.0</ele><time>2026-05-02T15:12:08.322Z</time></trkpt><trkpt lat="32.4190974" lon="-110.4940147"><ele>885.0</ele><time>2026-05-02T15:12:09.323Z</time></trkpt><trkpt lat="32.4191943" lon="-110.4940157"><ele>884.0</ele><time>2026-05-02T15:12:10.324Z</time></trkpt><trkpt lat="32.4192905" lon="-110.4940311"><ele>883.0</ele><time>2026-05-02T15:12:11.323Z</time></trkpt><trkpt lat="32.4193813" lon="-110.4940661"><ele>883.0</ele><time>2026-05-02T15:12:12.322Z</time></trkpt><trkpt lat="32.4194669" lon="-110.4941229"><ele>883.0</ele><time>2026-05-02T15:12:13.322Z</time></trkpt><trkpt lat="32.4195445" lon="-110.4941997"><ele>883.0</ele><time>2026-05-02T15:12:14.323Z</time></trkpt><trkpt lat="32.4196157" lon="-110.4942967"><ele>883.0</ele><time>2026-05-02T15:12:15.322Z</time></trkpt><trkpt lat="32.419682" lon="-110.4944134"><ele>883.0</ele><time>2026-05-02T15:12:16.322Z</time></trkpt><trkpt lat="32.4197451" lon="-110.4945504"><ele>880.6666666666666</ele><time>2026-05-02T15:12:17.324Z</time></trkpt><trkpt lat="32.4198072" lon="-110.4947037"><ele>878.3333333333333</ele><time>2026-05-02T15:12:18.323Z</time></trkpt><trkpt lat="32.4198665" lon="-110.4948664"><ele>876.0</ele><time>2026-05-02T15:12:19.323Z</time></trkpt><trkpt lat="32.4199236" lon="-110.4950419"><ele>876.0</ele><time>2026-05-02T15:12:20.323Z</time></trkpt><trkpt lat="32.4199789" lon="-110.4952247"><ele>876.0</ele><time>2026-05-02T15:12:21.323Z</time></trkpt><trkpt lat="32.4200336" lon="-110.4954068"><ele>876.0</ele><time>2026-05-02T15:12:22.323Z</time></trkpt><trkpt lat="32.4200909" lon="-110.4955853"><ele>876.3333333333333</ele><time>2026-05-02T15:12:23.324Z</time></trkpt><trkpt lat="32.4201518" lon="-110.4957532"><ele>876.6666666666666</ele><time>2026-05-02T15:12:24.322Z</time></trkpt><trkpt lat="32.4202188" lon="-110.4959133"><ele>877.0</ele><time>2026-05-02T15:12:25.322Z</time></trkpt><trkpt lat="32.420293" lon="-110.4960639"><ele>877.0</ele><time>2026-05-02T15:12:26.323Z</time></trkpt><trkpt lat="32.4203776" lon="-110.4962052"><ele>877.0</ele><time>2026-05-02T15:12:27.322Z</time></trkpt><trkpt lat="32.4204743" lon="-110.4963366"><ele>877.0</ele><time>2026-05-02T15:12:28.324Z</time></trkpt><trkpt lat="32.4205863" lon="-110.4964678"><ele>877.0</ele><time>2026-05-02T15:12:29.323Z</time></trkpt><trkpt lat="32.4207114" lon="-110.4966025"><ele>877.0</ele><time>2026-05-02T15:12:30.323Z</time></trkpt><trkpt lat="32.4208464" lon="-110.4967432"><ele>877.0</ele><time>2026-05-02T15:12:31.323Z</time></trkpt><trkpt lat="32.4209928" lon="-110.4968934"><ele>877.0</ele><time>2026-05-02T15:12:32.323Z</time></trkpt><trkpt lat="32.4211377" lon="-110.4970391"><ele>877.0</ele><time>2026-05-02T15:12:33.322Z</time></trkpt><trkpt lat="32.4212754" lon="-110.4971806"><ele>877.0</ele><time>2026-05-02T15:12:34.323Z</time></trkpt><trkpt lat="32.4214027" lon="-110.4973198"><ele>876.6666666666666</ele><time>2026-05-02T15:12:35.323Z</time></trkpt><trkpt lat="32.4215188" lon="-110.497456"><ele>876.3333333333333</ele><time>2026-05-02T15:12:36.324Z</time></trkpt><trkpt lat="32.4216212" lon="-110.4975855"><ele>876.0</ele><time>2026-05-02T15:12:37.323Z</time></trkpt><trkpt lat="32.4217087" lon="-110.4977136"><ele>876.0</ele><time>2026-05-02T15:12:38.324Z</time></trkpt><trkpt lat="32.4217797" lon="-110.4978464"><ele>876.0</ele><time>2026-05-02T15:12:39.323Z</time></trkpt><trkpt lat="32.4218361" lon="-110.4979854"><ele>876.0</ele><time>2026-05-02T15:12:40.323Z</time></trkpt><trkpt lat="32.4218822" lon="-110.4981259"><ele>876.0</ele><time>2026-05-02T15:12:41.322Z</time></trkpt><trkpt lat="32.421929" lon="-110.4982606"><ele>876.0</ele><time>2026-05-02T15:12:42.324Z</time></trkpt><trkpt lat="32.4219846" lon="-110.4983933"><ele>876.0</ele><time>2026-05-02T15:12:43.323Z</time></trkpt><trkpt lat="32.4220523" lon="-110.4985247"><ele>876.0</ele><time>2026-05-02T15:12:44.324Z</time></trkpt><trkpt lat="32.4221315" lon="-110.4986469"><ele>876.0</ele><time>2026-05-02T15:12:45.324Z</time></trkpt><trkpt lat="32.4222228" lon="-110.4987583"><ele>876.0</ele><time>2026-05-02T15:12:46.324Z</time></trkpt><trkpt lat="32.4223273" lon="-110.4988557"><ele>876.0</ele><time>2026-05-02T15:12:47.323Z</time></trkpt><trkpt lat="32.4224452" lon="-110.4989389"><ele>876.0</ele><time>2026-05-02T15:12:48.323Z</time></trkpt><trkpt lat="32.4225788" lon="-110.4990118"><ele>876.0</ele><time>2026-05-02T15:12:49.323Z</time></trkpt><trkpt lat="32.4227305" lon="-110.4990824"><ele>876.0</ele><time>2026-05-02T15:12:50.324Z</time></trkpt><trkpt lat="32.4228955" lon="-110.4991533"><ele>876.0</ele><time>2026-05-02T15:12:51.323Z</time></trkpt><trkpt lat="32.4230657" lon="-110.4992226"><ele>876.0</ele><time>2026-05-02T15:12:52.323Z</time></trkpt><trkpt lat="32.4232366" lon="-110.4992891"><ele>876.3333333333333</ele><time>2026-05-02T15:12:53.323Z</time></trkpt><trkpt lat="32.4234107" lon="-110.4993512"><ele>876.6666666666666</ele><time>2026-05-02T15:12:54.323Z</time></trkpt><trkpt lat="32.4235901" lon="-110.4994061"><ele>877.0</ele><time>2026-05-02T15:12:55.324Z</time></trkpt><trkpt lat="32.4237731" lon="-110.4994533"><ele>876.6666666666666</ele><time>2026-05-02T15:12:56.323Z</time></trkpt><trkpt lat="32.4239571" lon="-110.4994956"><ele>876.3333333333333</ele><time>2026-05-02T15:12:57.324Z</time></trkpt><trkpt lat="32.4241405" lon="-110.4995344"><ele>876.0</ele><time>2026-05-02T15:12:58.324Z</time></trkpt><trkpt lat="32.4243254" lon="-110.4995702"><ele>876.3333333333333</ele><time>2026-05-02T15:12:59.323Z</time></trkpt><trkpt lat="32.424511" lon="-110.4996038"><ele>876.6666666666666</ele><time>2026-05-02T15:13:00.324Z</time></trkpt><trkpt lat="32.4246956" lon="-110.4996389"><ele>877.0</ele><time>2026-05-02T15:13:01.323Z</time></trkpt><trkpt lat="32.4248848" lon="-110.4996712"><ele>877.0</ele><time>2026-05-02T15:13:02.324Z</time></trkpt><trkpt lat="32.4250734" lon="-110.4997053"><ele>877.0</ele><time>2026-05-02T15:13:03.323Z</time></trkpt><trkpt lat="32.4252616" lon="-110.4997447"><ele>877.0</ele><time>2026-05-02T15:13:04.323Z</time></trkpt><trkpt lat="32.4254498" lon="-110.4997786"><ele>877.0</ele><time>2026-05-02T15:13:05.323Z</time></trkpt><trkpt lat="32.4256308" lon="-110.4998169"><ele>877.0</ele><time>2026-05-02T15:13:06.323Z</time></trkpt><trkpt lat="32.4258096" lon="-110.4998538"><ele>877.0</ele><time>2026-05-02T15:13:07.323Z</time></trkpt><trkpt lat="32.4259892" lon="-110.4998845"><ele>877.0</ele><time>2026-05-02T15:13:08.324Z</time></trkpt><trkpt lat="32.4261686" lon="-110.4999202"><ele>877.0</ele><time>2026-05-02T15:13:09.324Z</time></trkpt><trkpt lat="32.4263462" lon="-110.4999549"><ele>877.0</ele><time>2026-05-02T15:13:10.323Z</time></trkpt><trkpt lat="32.4265216" lon="-110.4999893"><ele>877.0</ele><time>2026-05-02T15:13:11.323Z</time></trkpt><trkpt lat="32.4266991" lon="-110.5000225"><ele>877.0</ele><time>2026-05-02T15:13:12.324Z</time></trkpt><trkpt lat="32.4268945" lon="-110.5000574"><ele>877.0</ele><time>2026-05-02T15:13:13.324Z</time></trkpt><trkpt lat="32.4270987" lon="-110.5000963"><ele>875.3333333333333</ele><time>2026-05-02T15:13:14.323Z</time></trkpt><trkpt lat="32.4273215" lon="-110.500141"><ele>873.6666666666667</ele><time>2026-05-02T15:13:15.324Z</time></trkpt><trkpt lat="32.4275388" lon="-110.500184"><ele>872.0</ele><time>2026-05-02T15:13:16.323Z</time></trkpt><trkpt lat="32.4277455" lon="-110.5002253"><ele>872.0</ele><time>2026-05-02T15:13:17.323Z</time></trkpt><trkpt lat="32.4279401" lon="-110.5002638"><ele>872.0</ele><time>2026-05-02T15:13:18.324Z</time></trkpt><trkpt lat="32.4281242" lon="-110.5002961"><ele>872.0</ele><time>2026-05-02T15:13:19.324Z</time></trkpt><trkpt lat="32.4283016" lon="-110.5003171"><ele>871.6666666666667</ele><time>2026-05-02T15:13:20.323Z</time></trkpt><trkpt lat="32.4284766" lon="-110.5003342"><ele>871.3333333333333</ele><time>2026-05-02T15:13:21.323Z</time></trkpt><trkpt lat="32.4286437" lon="-110.5003305"><ele>871.0</ele><time>2026-05-02T15:13:22.323Z</time></trkpt><trkpt lat="32.4288082" lon="-110.5003023"><ele>872.3333333333333</ele><time>2026-05-02T15:13:23.325Z</time></trkpt><trkpt lat="32.4289704" lon="-110.500253"><ele>873.6666666666667</ele><time>2026-05-02T15:13:24.324Z</time></trkpt><trkpt lat="32.4291441" lon="-110.5001918"><ele>875.0</ele><time>2026-05-02T15:13:25.324Z</time></trkpt><trkpt lat="32.4293359" lon="-110.500119"><ele>875.0</ele><time>2026-05-02T15:13:26.323Z</time></trkpt><trkpt lat="32.4295442" lon="-110.5000403"><ele>875.0</ele><time>2026-05-02T15:13:27.323Z</time></trkpt><trkpt lat="32.4297733" lon="-110.4999428"><ele>878.0</ele><time>2026-05-02T15:13:28.323Z</time></trkpt><trkpt lat="32.4300001" lon="-110.499847"><ele>881.0</ele><time>2026-05-02T15:13:29.323Z</time></trkpt><trkpt lat="32.430244" lon="-110.4997486"><ele>881.5</ele><time>2026-05-02T15:13:30.323Z</time></trkpt><trkpt lat="32.4304966" lon="-110.499648"><ele>882.0</ele><time>2026-05-02T15:13:31.323Z</time></trkpt><trkpt lat="32.4307283" lon="-110.4995598"><ele>878.0</ele><time>2026-05-02T15:13:32.324Z</time></trkpt><trkpt lat="32.4309499" lon="-110.4994746"><ele>874.0</ele><time>2026-05-02T15:13:33.324Z</time></trkpt><trkpt lat="32.4311635" lon="-110.4994032"><ele>874.3333333333333</ele><time>2026-05-02T15:13:34.324Z</time></trkpt><trkpt lat="32.4313657" lon="-110.4993379"><ele>874.6666666666667</ele><time>2026-05-02T15:13:35.324Z</time></trkpt><trkpt lat="32.431553" lon="-110.4992792"><ele>875.0</ele><time>2026-05-02T15:13:36.324Z</time></trkpt><trkpt lat="32.4317315" lon="-110.4992216"><ele>875.0</ele><time>2026-05-02T15:13:37.324Z</time></trkpt><trkpt lat="32.4319049" lon="-110.4991764"><ele>875.0</ele><time>2026-05-02T15:13:38.323Z</time></trkpt><trkpt lat="32.4320843" lon="-110.49913"><ele>875.0</ele><time>2026-05-02T15:13:39.324Z</time></trkpt><trkpt lat="32.4322638" lon="-110.4990896"><ele>877.0</ele><time>2026-05-02T15:13:40.324Z</time></trkpt><trkpt lat="32.4324453" lon="-110.4990484"><ele>879.0</ele><time>2026-05-02T15:13:41.323Z</time></trkpt><trkpt lat="32.4326296" lon="-110.4990041"><ele>881.0</ele><time>2026-05-02T15:13:42.324Z</time></trkpt><trkpt lat="32.4328115" lon="-110.4989563"><ele>881.3333333333334</ele><time>2026-05-02T15:13:43.324Z</time></trkpt><trkpt lat="32.4329966" lon="-110.4989182"><ele>881.6666666666667</ele><time>2026-05-02T15:13:44.324Z</time></trkpt><trkpt lat="32.4331756" lon="-110.4988727"><ele>882.0</ele><time>2026-05-02T15:13:45.324Z</time></trkpt><trkpt lat="32.4333588" lon="-110.4988343"><ele>882.0</ele><time>2026-05-02T15:13:46.325Z</time></trkpt><trkpt lat="32.4335415" lon="-110.4987939"><ele>882.0</ele><time>2026-05-02T15:13:47.323Z</time></trkpt><trkpt lat="32.4337284" lon="-110.498753"><ele>882.0</ele><time>2026-05-02T15:13:48.323Z</time></trkpt><trkpt lat="32.4339121" lon="-110.4987154"><ele>878.6666666666667</ele><time>2026-05-02T15:13:49.324Z</time></trkpt><trkpt lat="32.4340882" lon="-110.4986767"><ele>875.3333333333334</ele><time>2026-05-02T15:13:50.324Z</time></trkpt><trkpt lat="32.4342539" lon="-110.4986301"><ele>872.0</ele><time>2026-05-02T15:13:51.323Z</time></trkpt><trkpt lat="32.4344142" lon="-110.4985859"><ele>872.0</ele><time>2026-05-02T15:13:52.323Z</time></trkpt><trkpt lat="32.4345805" lon="-110.4985265"><ele>872.0</ele><time>2026-05-02T15:13:53.323Z</time></trkpt><trkpt lat="32.4347539" lon="-110.4984567"><ele>872.0</ele><time>2026-05-02T15:13:54.324Z</time></trkpt><trkpt lat="32.4349398" lon="-110.4983612"><ele>873.3333333333334</ele><time>2026-05-02T15:13:55.324Z</time></trkpt><trkpt lat="32.4351305" lon="-110.4982565"><ele>874.6666666666667</ele><time>2026-05-02T15:13:56.325Z</time></trkpt><trkpt lat="32.4353018" lon="-110.498147"><ele>876.0</ele><time>2026-05-02T15:13:57.325Z</time></trkpt><trkpt lat="32.4354624" lon="-110.4980408"><ele>877.3333333333333</ele><time>2026-05-02T15:13:58.325Z</time></trkpt><trkpt lat="32.4356204" lon="-110.4979507"><ele>878.6666666666666</ele><time>2026-05-02T15:13:59.324Z</time></trkpt><trkpt lat="32.4357776" lon="-110.4978567"><ele>880.0</ele><time>2026-05-02T15:14:00.325Z</time></trkpt><trkpt lat="32.4359318" lon="-110.4977664"><ele>877.3333333333333</ele><time>2026-05-02T15:14:01.323Z</time></trkpt><trkpt lat="32.4360803" lon="-110.4976747"><ele>874.6666666666667</ele><time>2026-05-02T15:14:02.324Z</time></trkpt><trkpt lat="32.4362287" lon="-110.4975922"><ele>872.0</ele><time>2026-05-02T15:14:03.324Z</time></trkpt><trkpt lat="32.4363797" lon="-110.497513"><ele>872.0</ele><time>2026-05-02T15:14:04.324Z</time></trkpt><trkpt lat="32.4365339" lon="-110.4974401"><ele>872.0</ele><time>2026-05-02T15:14:05.323Z</time></trkpt><trkpt lat="32.4366927" lon="-110.497368"><ele>872.0</ele><time>2026-05-02T15:14:06.324Z</time></trkpt><trkpt lat="32.4368526" lon="-110.4973111"><ele>872.0</ele><time>2026-05-02T15:14:07.325Z</time></trkpt><trkpt lat="32.437018" lon="-110.4972606"><ele>872.0</ele><time>2026-05-02T15:14:08.324Z</time></trkpt><trkpt lat="32.4371867" lon="-110.4972158"><ele>872.0</ele><time>2026-05-02T15:14:09.325Z</time></trkpt><trkpt lat="32.4373638" lon="-110.4971758"><ele>872.0</ele><time>2026-05-02T15:14:10.325Z</time></trkpt><trkpt lat="32.43755" lon="-110.4971461"><ele>872.0</ele><time>2026-05-02T15:14:11.325Z</time></trkpt><trkpt lat="32.4377568" lon="-110.4971203"><ele>872.0</ele><time>2026-05-02T15:14:12.325Z</time></trkpt><trkpt lat="32.4379683" lon="-110.4970948"><ele>870.6666666666667</ele><time>2026-05-02T15:14:13.325Z</time></trkpt><trkpt lat="32.4381821" lon="-110.4970716"><ele>869.3333333333333</ele><time>2026-05-02T15:14:14.324Z</time></trkpt><trkpt lat="32.4383998" lon="-110.4970493"><ele>868.0</ele><time>2026-05-02T15:14:15.324Z</time></trkpt><trkpt lat="32.4386119" lon="-110.4970268"><ele>869.0</ele><time>2026-05-02T15:14:16.325Z</time></trkpt><trkpt lat="32.4388167" lon="-110.497003"><ele>870.0</ele><time>2026-05-02T15:14:17.324Z</time></trkpt><trkpt lat="32.4390153" lon="-110.4969764"><ele>871.0</ele><time>2026-05-02T15:14:18.324Z</time></trkpt><trkpt lat="32.4392063" lon="-110.4969495"><ele>871.0</ele><time>2026-05-02T15:14:19.325Z</time></trkpt><trkpt lat="32.439392" lon="-110.4969256"><ele>871.0</ele><time>2026-05-02T15:14:20.325Z</time></trkpt><trkpt lat="32.4395795" lon="-110.4969093"><ele>871.0</ele><time>2026-05-02T15:14:21.325Z</time></trkpt><trkpt lat="32.4397714" lon="-110.4968897"><ele>870.6666666666666</ele><time>2026-05-02T15:14:22.325Z</time></trkpt><trkpt lat="32.439973" lon="-110.4968656"><ele>870.3333333333333</ele><time>2026-05-02T15:14:23.325Z</time></trkpt><trkpt lat="32.4401647" lon="-110.4968404"><ele>870.0</ele><time>2026-05-02T15:14:24.324Z</time></trkpt><trkpt lat="32.4403481" lon="-110.4968203"><ele>870.0</ele><time>2026-05-02T15:14:25.324Z</time></trkpt><trkpt lat="32.4405307" lon="-110.4968054"><ele>870.0</ele><time>2026-05-02T15:14:26.324Z</time></trkpt><trkpt lat="32.4407123" lon="-110.4967816"><ele>870.0</ele><time>2026-05-02T15:14:27.325Z</time></trkpt><trkpt lat="32.4408917" lon="-110.4967575"><ele>870.0</ele><time>2026-05-02T15:14:28.324Z</time></trkpt><trkpt lat="32.4410756" lon="-110.496735"><ele>870.0</ele><time>2026-05-02T15:14:29.324Z</time></trkpt><trkpt lat="32.4412553" lon="-110.4967168"><ele>870.0</ele><time>2026-05-02T15:14:30.325Z</time></trkpt><trkpt lat="32.4414399" lon="-110.4966993"><ele>870.6666666666667</ele><time>2026-05-02T15:14:31.324Z</time></trkpt><trkpt lat="32.4416226" lon="-110.4966795"><ele>871.3333333333334</ele><time>2026-05-02T15:14:32.324Z</time></trkpt><trkpt lat="32.4418096" lon="-110.4966601"><ele>872.0</ele><time>2026-05-02T15:14:33.325Z</time></trkpt><trkpt lat="32.4420062" lon="-110.4966304"><ele>871.3333333333334</ele><time>2026-05-02T15:14:34.324Z</time></trkpt><trkpt lat="32.4422011" lon="-110.4965969"><ele>870.6666666666667</ele><time>2026-05-02T15:14:35.325Z</time></trkpt><trkpt lat="32.4424008" lon="-110.4965554"><ele>870.0</ele><time>2026-05-02T15:14:36.325Z</time></trkpt><trkpt lat="32.4425894" lon="-110.4965095"><ele>870.0</ele><time>2026-05-02T15:14:37.325Z</time></trkpt><trkpt lat="32.4427708" lon="-110.4964558"><ele>870.0</ele><time>2026-05-02T15:14:38.325Z</time></trkpt><trkpt lat="32.4429595" lon="-110.4963969"><ele>870.0</ele><time>2026-05-02T15:14:39.325Z</time></trkpt><trkpt lat="32.4431492" lon="-110.4963344"><ele>870.3333333333333</ele><time>2026-05-02T15:14:40.324Z</time></trkpt><trkpt lat="32.4433417" lon="-110.496282"><ele>870.6666666666666</ele><time>2026-05-02T15:14:41.324Z</time></trkpt><trkpt lat="32.4435187" lon="-110.4962265"><ele>871.0</ele><time>2026-05-02T15:14:42.324Z</time></trkpt><trkpt lat="32.4436896" lon="-110.4961668"><ele>871.0</ele><time>2026-05-02T15:14:43.326Z</time></trkpt><trkpt lat="32.4438494" lon="-110.4960982"><ele>871.0</ele><time>2026-05-02T15:14:44.324Z</time></trkpt><trkpt lat="32.4440028" lon="-110.4960221"><ele>871.0</ele><time>2026-05-02T15:14:45.324Z</time></trkpt><trkpt lat="32.4441618" lon="-110.4959369"><ele>871.0</ele><time>2026-05-02T15:14:46.324Z</time></trkpt><trkpt lat="32.4443271" lon="-110.4958393"><ele>871.0</ele><time>2026-05-02T15:14:47.325Z</time></trkpt><trkpt lat="32.4444969" lon="-110.4957355"><ele>871.0</ele><time>2026-05-02T15:14:48.325Z</time></trkpt><trkpt lat="32.4446608" lon="-110.495626"><ele>870.3333333333333</ele><time>2026-05-02T15:14:49.325Z</time></trkpt><trkpt lat="32.4448207" lon="-110.4955198"><ele>869.6666666666667</ele><time>2026-05-02T15:14:50.324Z</time></trkpt><trkpt lat="32.4449736" lon="-110.495414"><ele>869.0</ele><time>2026-05-02T15:14:51.324Z</time></trkpt><trkpt lat="32.4451212" lon="-110.4953105"><ele>869.0</ele><time>2026-05-02T15:14:52.324Z</time></trkpt><trkpt lat="32.445255" lon="-110.495203"><ele>869.0</ele><time>2026-05-02T15:14:53.324Z</time></trkpt><trkpt lat="32.4453803" lon="-110.4950881"><ele>869.0</ele><time>2026-05-02T15:14:54.324Z</time></trkpt><trkpt lat="32.4455031" lon="-110.494967"><ele>869.5</ele><time>2026-05-02T15:14:55.324Z</time></trkpt><trkpt lat="32.445621" lon="-110.4948461"><ele>870.0</ele><time>2026-05-02T15:14:56.325Z</time></trkpt><trkpt lat="32.4457309" lon="-110.4947259"><ele>870.5</ele><time>2026-05-02T15:14:57.325Z</time></trkpt><trkpt lat="32.4458335" lon="-110.4946069"><ele>871.0</ele><time>2026-05-02T15:14:58.325Z</time></trkpt><trkpt lat="32.4459377" lon="-110.4944875"><ele>871.0</ele><time>2026-05-02T15:14:59.324Z</time></trkpt><trkpt lat="32.4460351" lon="-110.4943636"><ele>871.0</ele><time>2026-05-02T15:15:00.325Z</time></trkpt><trkpt lat="32.4461364" lon="-110.4942403"><ele>871.0</ele><time>2026-05-02T15:15:01.325Z</time></trkpt><trkpt lat="32.4462366" lon="-110.4941092"><ele>871.0</ele><time>2026-05-02T15:15:02.324Z</time></trkpt><trkpt lat="32.4463541" lon="-110.4939617"><ele>870.3333333333333</ele><time>2026-05-02T15:15:03.325Z</time></trkpt><trkpt lat="32.4464751" lon="-110.493814"><ele>869.6666666666667</ele><time>2026-05-02T15:15:04.325Z</time></trkpt><trkpt lat="32.4465913" lon="-110.4936644"><ele>869.0</ele><time>2026-05-02T15:15:05.324Z</time></trkpt><trkpt lat="32.4467167" lon="-110.4935146"><ele>868.3333333333334</ele><time>2026-05-02T15:15:06.324Z</time></trkpt><trkpt lat="32.4468421" lon="-110.4933661"><ele>867.6666666666667</ele><time>2026-05-02T15:15:07.324Z</time></trkpt><trkpt lat="32.4469642" lon="-110.4932168"><ele>867.0</ele><time>2026-05-02T15:15:08.326Z</time></trkpt><trkpt lat="32.4470814" lon="-110.4930726"><ele>867.3333333333333</ele><time>2026-05-02T15:15:09.325Z</time></trkpt><trkpt lat="32.447198" lon="-110.4929256"><ele>867.6666666666666</ele><time>2026-05-02T15:15:10.325Z</time></trkpt><trkpt lat="32.4473098" lon="-110.4927861"><ele>868.0</ele><time>2026-05-02T15:15:11.324Z</time></trkpt><trkpt lat="32.4474165" lon="-110.4926491"><ele>868.0</ele><time>2026-05-02T15:15:12.325Z</time></trkpt><trkpt lat="32.4475167" lon="-110.4925232"><ele>868.0</ele><time>2026-05-02T15:15:13.324Z</time></trkpt><trkpt lat="32.4476137" lon="-110.4924094"><ele>868.0</ele><time>2026-05-02T15:15:14.325Z</time></trkpt><trkpt lat="32.4477081" lon="-110.4922994"><ele>868.0</ele><time>2026-05-02T15:15:15.324Z</time></trkpt><trkpt lat="32.4477895" lon="-110.4922139"><ele>867.9999999999999</ele><time>2026-05-02T15:15:16.325Z</time></trkpt><trkpt lat="32.447849" lon="-110.4921456"><ele>868.0</ele><time>2026-05-02T15:15:17.326Z</time></trkpt><trkpt lat="32.4479145" lon="-110.4920608"><ele>868.0</ele><time>2026-05-02T15:15:19.325Z</time></trkpt><trkpt lat="32.447973" lon="-110.4920315"><ele>868.0</ele><time>2026-05-02T15:15:49.324Z</time></trkpt><trkpt lat="32.4480055" lon="-110.4921189"><ele>867.9999999999999</ele><time>2026-05-02T15:15:52.324Z</time></trkpt><trkpt lat="32.4479964" lon="-110.4922217"><ele>868.0</ele><time>2026-05-02T15:15:54.324Z</time></trkpt><trkpt lat="32.4479898" lon="-110.4923196"><ele>868.0</ele><time>2026-05-02T15:15:56.325Z</time></trkpt><trkpt lat="32.4479914" lon="-110.492399"><ele>868.0</ele><time>2026-05-02T15:15:58.326Z</time></trkpt><trkpt lat="32.4479716" lon="-110.4924939"><ele>868.0</ele><time>2026-05-02T15:28:11.461Z</time></trkpt><trkpt lat="32.4479493" lon="-110.4926715"><ele>868.0</ele><time>2026-05-02T15:28:13.332Z</time></trkpt><trkpt lat="32.4479418" lon="-110.4927484"><ele>868.0</ele><time>2026-05-02T15:28:14.332Z</time></trkpt><trkpt lat="32.4479348" lon="-110.4928739"><ele>867.9999999999999</ele><time>2026-05-02T15:28:16.332Z</time></trkpt><trkpt lat="32.4479394" lon="-110.4929558"><ele>868.0</ele><time>2026-05-02T15:28:18.333Z</time></trkpt><trkpt lat="32.4479316" lon="-110.4928364"><ele>868.0</ele><time>2026-05-02T15:28:26.333Z</time></trkpt><trkpt lat="32.4479491" lon="-110.4927153"><ele>868.0</ele><time>2026-05-02T15:28:28.332Z</time></trkpt><trkpt lat="32.4479614" lon="-110.492604"><ele>867.9999999999999</ele><time>2026-05-02T15:28:30.332Z</time></trkpt><trkpt lat="32.4479756" lon="-110.4925207"><ele>868.0</ele><time>2026-05-02T15:28:32.333Z</time></trkpt><trkpt lat="32.4479872" lon="-110.4924395"><ele>868.6666666666666</ele><time>2026-05-02T15:28:34.333Z</time></trkpt><trkpt lat="32.4479849" lon="-110.4923418"><ele>869.3333333333333</ele><time>2026-05-02T15:28:36.332Z</time></trkpt><trkpt lat="32.4479741" lon="-110.4922431"><ele>870.0</ele><time>2026-05-02T15:28:38.332Z</time></trkpt><trkpt lat="32.4479687" lon="-110.4921574"><ele>870.6666666666667</ele><time>2026-05-02T15:28:40.333Z</time></trkpt><trkpt lat="32.447965" lon="-110.4920702"><ele>871.3333333333334</ele><time>2026-05-02T15:28:56.333Z</time></trkpt><trkpt lat="32.4480035" lon="-110.4919626"><ele>872.0</ele><time>2026-05-02T15:28:58.332Z</time></trkpt><trkpt lat="32.4480446" lon="-110.4918989"><ele>872.0</ele><time>2026-05-02T15:28:59.333Z</time></trkpt><trkpt lat="32.4481017" lon="-110.4918296"><ele>872.0</ele><time>2026-05-02T15:29:00.332Z</time></trkpt><trkpt lat="32.4481757" lon="-110.4917501"><ele>872.0</ele><time>2026-05-02T15:29:01.332Z</time></trkpt><trkpt lat="32.4482581" lon="-110.4916674"><ele>872.0</ele><time>2026-05-02T15:29:02.332Z</time></trkpt><trkpt lat="32.4483504" lon="-110.4915885"><ele>872.0</ele><time>2026-05-02T15:29:03.332Z</time></trkpt><trkpt lat="32.4484544" lon="-110.4915173"><ele>872.0</ele><time>2026-05-02T15:29:04.332Z</time></trkpt><trkpt lat="32.4485726" lon="-110.4914489"><ele>872.0</ele><time>2026-05-02T15:29:05.332Z</time></trkpt><trkpt lat="32.448701" lon="-110.491387"><ele>872.0</ele><time>2026-05-02T15:29:06.333Z</time></trkpt><trkpt lat="32.4488433" lon="-110.4913297"><ele>872.0</ele><time>2026-05-02T15:29:07.333Z</time></trkpt><trkpt lat="32.4489949" lon="-110.4912789"><ele>870.6666666666667</ele><time>2026-05-02T15:29:08.333Z</time></trkpt><trkpt lat="32.449151" lon="-110.491236"><ele>869.3333333333333</ele><time>2026-05-02T15:29:09.332Z</time></trkpt><trkpt lat="32.4493086" lon="-110.4912017"><ele>868.0</ele><time>2026-05-02T15:29:10.332Z</time></trkpt><trkpt lat="32.4494658" lon="-110.4911776"><ele>868.0</ele><time>2026-05-02T15:29:11.332Z</time></trkpt><trkpt lat="32.4496187" lon="-110.4911636"><ele>868.0</ele><time>2026-05-02T15:29:12.332Z</time></trkpt><trkpt lat="32.4497648" lon="-110.4911528"><ele>868.0</ele><time>2026-05-02T15:29:13.333Z</time></trkpt><trkpt lat="32.4499041" lon="-110.4911382"><ele>868.0</ele><time>2026-05-02T15:29:14.333Z</time></trkpt><trkpt lat="32.4500367" lon="-110.4911125"><ele>867.25</ele><time>2026-05-02T15:29:15.332Z</time></trkpt><trkpt lat="32.4501572" lon="-110.4910705"><ele>866.5</ele><time>2026-05-02T15:29:16.332Z</time></trkpt><trkpt lat="32.4502622" lon="-110.49101"><ele>865.75</ele><time>2026-05-02T15:29:17.333Z</time></trkpt><trkpt lat="32.4503507" lon="-110.4909352"><ele>865.0</ele><time>2026-05-02T15:29:18.333Z</time></trkpt><trkpt lat="32.4504241" lon="-110.4908513"><ele>866.4</ele><time>2026-05-02T15:29:19.333Z</time></trkpt><trkpt lat="32.4504828" lon="-110.4907613"><ele>867.8</ele><time>2026-05-02T15:29:20.332Z</time></trkpt><trkpt lat="32.4505258" lon="-110.4906662"><ele>869.2</ele><time>2026-05-02T15:29:21.333Z</time></trkpt><trkpt lat="32.4505531" lon="-110.4905648"><ele>870.6</ele><time>2026-05-02T15:29:22.332Z</time></trkpt><trkpt lat="32.4505699" lon="-110.4904539"><ele>872.0</ele><time>2026-05-02T15:29:23.333Z</time></trkpt><trkpt lat="32.4505832" lon="-110.4903304"><ele>872.25</ele><time>2026-05-02T15:29:24.333Z</time></trkpt><trkpt lat="32.4505987" lon="-110.4901948"><ele>872.5</ele><time>2026-05-02T15:29:25.332Z</time></trkpt><trkpt lat="32.4506168" lon="-110.4900582"><ele>872.75</ele><time>2026-05-02T15:29:26.332Z</time></trkpt><trkpt lat="32.4506502" lon="-110.4899089"><ele>873.0</ele><time>2026-05-02T15:29:27.332Z</time></trkpt><trkpt lat="32.4506918" lon="-110.4897549"><ele>873.0</ele><time>2026-05-02T15:29:28.332Z</time></trkpt><trkpt lat="32.4507394" lon="-110.4895973"><ele>873.0</ele><time>2026-05-02T15:29:29.333Z</time></trkpt><trkpt lat="32.4507879" lon="-110.4894358"><ele>873.0</ele><time>2026-05-02T15:29:30.333Z</time></trkpt><trkpt lat="32.4508362" lon="-110.4892736"><ele>873.0</ele><time>2026-05-02T15:29:31.332Z</time></trkpt><trkpt lat="32.4508843" lon="-110.4891135"><ele>872.75</ele><time>2026-05-02T15:29:32.332Z</time></trkpt><trkpt lat="32.4509322" lon="-110.4889533"><ele>872.5</ele><time>2026-05-02T15:29:33.332Z</time></trkpt><trkpt lat="32.4509807" lon="-110.4887923"><ele>872.25</ele><time>2026-05-02T15:29:34.333Z</time></trkpt><trkpt lat="32.4510298" lon="-110.4886364"><ele>872.0</ele><time>2026-05-02T15:29:35.332Z</time></trkpt><trkpt lat="32.451079" lon="-110.4884828"><ele>871.25</ele><time>2026-05-02T15:29:36.333Z</time></trkpt><trkpt lat="32.4511348" lon="-110.4883496"><ele>870.5</ele><time>2026-05-02T15:29:37.332Z</time></trkpt><trkpt lat="32.4511977" lon="-110.4882264"><ele>869.75</ele><time>2026-05-02T15:29:38.332Z</time></trkpt><trkpt lat="32.4512634" lon="-110.4881178"><ele>869.0</ele><time>2026-05-02T15:29:39.332Z</time></trkpt><trkpt lat="32.4513303" lon="-110.4880158"><ele>868.2</ele><time>2026-05-02T15:29:40.332Z</time></trkpt><trkpt lat="32.4513974" lon="-110.4879208"><ele>867.4000000000001</ele><time>2026-05-02T15:29:41.333Z</time></trkpt><trkpt lat="32.4514608" lon="-110.4878345"><ele>866.6</ele><time>2026-05-02T15:29:42.333Z</time></trkpt><trkpt lat="32.4515206" lon="-110.4877549"><ele>865.8</ele><time>2026-05-02T15:29:43.334Z</time></trkpt><trkpt lat="32.4515787" lon="-110.4876814"><ele>865.0</ele><time>2026-05-02T15:29:44.333Z</time></trkpt><trkpt lat="32.4516369" lon="-110.4876045"><ele>865.0</ele><time>2026-05-02T15:29:45.333Z</time></trkpt><trkpt lat="32.4516938" lon="-110.4875276"><ele>865.0</ele><time>2026-05-02T15:29:46.332Z</time></trkpt><trkpt lat="32.4517538" lon="-110.4874518"><ele>865.0</ele><time>2026-05-02T15:29:47.333Z</time></trkpt><trkpt lat="32.451823" lon="-110.487379"><ele>865.0</ele><time>2026-05-02T15:29:48.333Z</time></trkpt><trkpt lat="32.4519043" lon="-110.4873063"><ele>865.0</ele><time>2026-05-02T15:29:49.332Z</time></trkpt><trkpt lat="32.4519991" lon="-110.4872302"><ele>865.0</ele><time>2026-05-02T15:29:50.333Z</time></trkpt><trkpt lat="32.4521032" lon="-110.4871504"><ele>865.0</ele><time>2026-05-02T15:29:51.333Z</time></trkpt><trkpt lat="32.45222" lon="-110.4870715"><ele>865.0</ele><time>2026-05-02T15:29:52.334Z</time></trkpt><trkpt lat="32.4523469" lon="-110.4869991"><ele>865.0</ele><time>2026-05-02T15:29:53.334Z</time></trkpt><trkpt lat="32.4524893" lon="-110.4869274"><ele>866.0</ele><time>2026-05-02T15:29:54.333Z</time></trkpt><trkpt lat="32.4526434" lon="-110.4868593"><ele>867.0</ele><time>2026-05-02T15:29:55.334Z</time></trkpt><trkpt lat="32.4527959" lon="-110.486801"><ele>868.0</ele><time>2026-05-02T15:29:56.334Z</time></trkpt><trkpt lat="32.4529502" lon="-110.4867504"><ele>867.6666666666666</ele><time>2026-05-02T15:29:57.333Z</time></trkpt><trkpt lat="32.4531043" lon="-110.4867086"><ele>867.3333333333333</ele><time>2026-05-02T15:29:58.333Z</time></trkpt><trkpt lat="32.4532574" lon="-110.4866752"><ele>867.0</ele><time>2026-05-02T15:29:59.332Z</time></trkpt><trkpt lat="32.4534144" lon="-110.4866501"><ele>867.0</ele><time>2026-05-02T15:30:00.333Z</time></trkpt><trkpt lat="32.4535795" lon="-110.4866352"><ele>867.0</ele><time>2026-05-02T15:30:01.333Z</time></trkpt><trkpt lat="32.4537527" lon="-110.4866269"><ele>867.0</ele><time>2026-05-02T15:30:02.333Z</time></trkpt><trkpt lat="32.4539265" lon="-110.4866227"><ele>865.0</ele><time>2026-05-02T15:30:03.333Z</time></trkpt><trkpt lat="32.4540992" lon="-110.4866239"><ele>863.0</ele><time>2026-05-02T15:30:04.332Z</time></trkpt><trkpt lat="32.4542714" lon="-110.4866305"><ele>861.0</ele><time>2026-05-02T15:30:05.334Z</time></trkpt><trkpt lat="32.4544438" lon="-110.4866398"><ele>861.0</ele><time>2026-05-02T15:30:06.333Z</time></trkpt><trkpt lat="32.4546152" lon="-110.4866512"><ele>861.0</ele><time>2026-05-02T15:30:07.334Z</time></trkpt><trkpt lat="32.4547864" lon="-110.4866638"><ele>861.0</ele><time>2026-05-02T15:30:08.333Z</time></trkpt><trkpt lat="32.4549589" lon="-110.4866774"><ele>861.3333333333333</ele><time>2026-05-02T15:30:09.334Z</time></trkpt><trkpt lat="32.4551329" lon="-110.4866938"><ele>861.6666666666666</ele><time>2026-05-02T15:30:10.334Z</time></trkpt><trkpt lat="32.4553043" lon="-110.4867145"><ele>862.0</ele><time>2026-05-02T15:30:11.333Z</time></trkpt><trkpt lat="32.4554716" lon="-110.4867463"><ele>861.0</ele><time>2026-05-02T15:30:12.333Z</time></trkpt><trkpt lat="32.4556405" lon="-110.4867934"><ele>860.0</ele><time>2026-05-02T15:30:13.333Z</time></trkpt><trkpt lat="32.4558043" lon="-110.4868462"><ele>859.0</ele><time>2026-05-02T15:30:14.333Z</time></trkpt><trkpt lat="32.4559713" lon="-110.4869094"><ele>859.0</ele><time>2026-05-02T15:30:15.334Z</time></trkpt><trkpt lat="32.4561349" lon="-110.4869705"><ele>859.0</ele><time>2026-05-02T15:30:16.333Z</time></trkpt><trkpt lat="32.4563002" lon="-110.4870331"><ele>859.0</ele><time>2026-05-02T15:30:17.334Z</time></trkpt><trkpt lat="32.456464" lon="-110.4870892"><ele>861.0</ele><time>2026-05-02T15:30:18.334Z</time></trkpt><trkpt lat="32.4566299" lon="-110.4871288"><ele>863.0</ele><time>2026-05-02T15:30:19.333Z</time></trkpt><trkpt lat="32.4567863" lon="-110.4871563"><ele>865.0</ele><time>2026-05-02T15:30:20.334Z</time></trkpt><trkpt lat="32.456947" lon="-110.4871745"><ele>865.0</ele><time>2026-05-02T15:30:21.334Z</time></trkpt><trkpt lat="32.4571189" lon="-110.487185"><ele>865.0</ele><time>2026-05-02T15:30:22.333Z</time></trkpt><trkpt lat="32.4572877" lon="-110.4871874"><ele>865.0</ele><time>2026-05-02T15:30:23.334Z</time></trkpt><trkpt lat="32.4574558" lon="-110.4872079"><ele>864.3333333333333</ele><time>2026-05-02T15:30:24.334Z</time></trkpt><trkpt lat="32.4576295" lon="-110.4872446"><ele>863.6666666666667</ele><time>2026-05-02T15:30:25.333Z</time></trkpt><trkpt lat="32.4578018" lon="-110.4872951"><ele>863.0</ele><time>2026-05-02T15:30:26.334Z</time></trkpt><trkpt lat="32.4579768" lon="-110.4873525"><ele>861.0</ele><time>2026-05-02T15:30:27.334Z</time></trkpt><trkpt lat="32.4581572" lon="-110.4874112"><ele>859.0</ele><time>2026-05-02T15:30:28.333Z</time></trkpt><trkpt lat="32.4583401" lon="-110.4874656"><ele>857.0</ele><time>2026-05-02T15:30:29.333Z</time></trkpt><trkpt lat="32.4585181" lon="-110.4875146"><ele>857.0</ele><time>2026-05-02T15:30:30.334Z</time></trkpt><trkpt lat="32.4586977" lon="-110.4875585"><ele>857.0</ele><time>2026-05-02T15:30:31.333Z</time></trkpt><trkpt lat="32.4588789" lon="-110.4875996"><ele>857.0</ele><time>2026-05-02T15:30:32.333Z</time></trkpt><trkpt lat="32.4590567" lon="-110.4876387"><ele>856.6666666666667</ele><time>2026-05-02T15:30:33.334Z</time></trkpt><trkpt lat="32.4592321" lon="-110.4876775"><ele>856.3333333333333</ele><time>2026-05-02T15:30:34.334Z</time></trkpt><trkpt lat="32.4594057" lon="-110.4877201"><ele>856.0</ele><time>2026-05-02T15:30:35.333Z</time></trkpt><trkpt lat="32.4595802" lon="-110.4877653"><ele>855.6666666666666</ele><time>2026-05-02T15:30:36.333Z</time></trkpt><trkpt lat="32.4597452" lon="-110.4878104"><ele>855.3333333333333</ele><time>2026-05-02T15:30:37.333Z</time></trkpt><trkpt lat="32.4599068" lon="-110.4878568"><ele>855.0</ele><time>2026-05-02T15:30:38.333Z</time></trkpt><trkpt lat="32.4600652" lon="-110.4879123"><ele>855.0</ele><time>2026-05-02T15:30:39.333Z</time></trkpt><trkpt lat="32.4602147" lon="-110.4879742"><ele>855.0</ele><time>2026-05-02T15:30:40.333Z</time></trkpt><trkpt lat="32.4603641" lon="-110.4880307"><ele>855.0</ele><time>2026-05-02T15:30:41.334Z</time></trkpt><trkpt lat="32.4605131" lon="-110.4880746"><ele>855.0</ele><time>2026-05-02T15:30:42.334Z</time></trkpt><trkpt lat="32.4606672" lon="-110.4881117"><ele>855.0</ele><time>2026-05-02T15:30:43.334Z</time></trkpt><trkpt lat="32.460817" lon="-110.4881214"><ele>855.0</ele><time>2026-05-02T15:30:44.334Z</time></trkpt><trkpt lat="32.4609663" lon="-110.488117"><ele>855.0</ele><time>2026-05-02T15:30:45.333Z</time></trkpt><trkpt lat="32.4611133" lon="-110.4880887"><ele>855.0</ele><time>2026-05-02T15:30:46.334Z</time></trkpt><trkpt lat="32.4612678" lon="-110.4880447"><ele>855.0</ele><time>2026-05-02T15:30:47.334Z</time></trkpt><trkpt lat="32.4614296" lon="-110.4879917"><ele>854.6666666666667</ele><time>2026-05-02T15:30:48.333Z</time></trkpt><trkpt lat="32.4615914" lon="-110.4879274"><ele>854.3333333333334</ele><time>2026-05-02T15:30:49.334Z</time></trkpt><trkpt lat="32.4617567" lon="-110.4878571"><ele>854.0</ele><time>2026-05-02T15:30:50.334Z</time></trkpt><trkpt lat="32.4619291" lon="-110.4877865"><ele>854.0</ele><time>2026-05-02T15:30:51.333Z</time></trkpt><trkpt lat="32.4621051" lon="-110.4877135"><ele>854.0</ele><time>2026-05-02T15:30:52.334Z</time></trkpt><trkpt lat="32.4622816" lon="-110.4876443"><ele>854.0</ele><time>2026-05-02T15:30:53.333Z</time></trkpt><trkpt lat="32.4624642" lon="-110.4875884"><ele>854.6666666666667</ele><time>2026-05-02T15:30:54.333Z</time></trkpt><trkpt lat="32.4626478" lon="-110.4875326"><ele>855.3333333333333</ele><time>2026-05-02T15:30:55.334Z</time></trkpt><trkpt lat="32.4628293" lon="-110.4874795"><ele>856.0</ele><time>2026-05-02T15:30:56.334Z</time></trkpt><trkpt lat="32.4630127" lon="-110.4874263"><ele>857.0</ele><time>2026-05-02T15:30:57.333Z</time></trkpt><trkpt lat="32.4631887" lon="-110.4873679"><ele>858.0</ele><time>2026-05-02T15:30:58.334Z</time></trkpt><trkpt lat="32.4633602" lon="-110.4873117"><ele>859.0</ele><time>2026-05-02T15:30:59.333Z</time></trkpt><trkpt lat="32.4635335" lon="-110.4872612"><ele>859.0</ele><time>2026-05-02T15:31:00.334Z</time></trkpt><trkpt lat="32.4636958" lon="-110.487222"><ele>859.0</ele><time>2026-05-02T15:31:01.334Z</time></trkpt><trkpt lat="32.4638608" lon="-110.4871885"><ele>859.0</ele><time>2026-05-02T15:31:02.333Z</time></trkpt><trkpt lat="32.4640158" lon="-110.4871674"><ele>859.6666666666666</ele><time>2026-05-02T15:31:03.333Z</time></trkpt><trkpt lat="32.4641677" lon="-110.4871597"><ele>860.3333333333333</ele><time>2026-05-02T15:31:04.334Z</time></trkpt><trkpt lat="32.4643236" lon="-110.4871706"><ele>861.0</ele><time>2026-05-02T15:31:05.334Z</time></trkpt><trkpt lat="32.4644898" lon="-110.4872035"><ele>860.6666666666667</ele><time>2026-05-02T15:31:06.334Z</time></trkpt><trkpt lat="32.4646653" lon="-110.48725"><ele>860.3333333333334</ele><time>2026-05-02T15:31:07.333Z</time></trkpt><trkpt lat="32.4648526" lon="-110.487307"><ele>860.0</ele><time>2026-05-02T15:31:08.334Z</time></trkpt><trkpt lat="32.4650384" lon="-110.4873673"><ele>860.0</ele><time>2026-05-02T15:31:09.334Z</time></trkpt><trkpt lat="32.4652219" lon="-110.4874262"><ele>860.0</ele><time>2026-05-02T15:31:10.333Z</time></trkpt><trkpt lat="32.4654057" lon="-110.4874759"><ele>860.0</ele><time>2026-05-02T15:31:11.333Z</time></trkpt><trkpt lat="32.4655873" lon="-110.4875161"><ele>859.6666666666667</ele><time>2026-05-02T15:31:12.335Z</time></trkpt><trkpt lat="32.465768" lon="-110.4875484"><ele>859.3333333333333</ele><time>2026-05-02T15:31:13.335Z</time></trkpt><trkpt lat="32.4659518" lon="-110.487571"><ele>859.0</ele><time>2026-05-02T15:31:14.334Z</time></trkpt><trkpt lat="32.4661373" lon="-110.4875855"><ele>859.0</ele><time>2026-05-02T15:31:15.334Z</time></trkpt><trkpt lat="32.466324" lon="-110.4875872"><ele>859.0</ele><time>2026-05-02T15:31:16.333Z</time></trkpt><trkpt lat="32.4665134" lon="-110.4875838"><ele>859.0</ele><time>2026-05-02T15:31:17.333Z</time></trkpt><trkpt lat="32.4667048" lon="-110.4875818"><ele>859.0</ele><time>2026-05-02T15:31:18.334Z</time></trkpt><trkpt lat="32.4668911" lon="-110.4875768"><ele>859.0</ele><time>2026-05-02T15:31:19.334Z</time></trkpt><trkpt lat="32.467078" lon="-110.487571"><ele>859.0</ele><time>2026-05-02T15:31:20.334Z</time></trkpt><trkpt lat="32.467262" lon="-110.4875616"><ele>859.0</ele><time>2026-05-02T15:31:21.333Z</time></trkpt><trkpt lat="32.4674501" lon="-110.4875529"><ele>859.0</ele><time>2026-05-02T15:31:22.334Z</time></trkpt><trkpt lat="32.4676258" lon="-110.4875467"><ele>859.0</ele><time>2026-05-02T15:31:23.334Z</time></trkpt><trkpt lat="32.4677932" lon="-110.4875389"><ele>859.3333333333333</ele><time>2026-05-02T15:31:24.333Z</time></trkpt><trkpt lat="32.4679548" lon="-110.487527"><ele>859.6666666666667</ele><time>2026-05-02T15:31:25.334Z</time></trkpt><trkpt lat="32.4681124" lon="-110.4875119"><ele>860.0</ele><time>2026-05-02T15:31:26.334Z</time></trkpt><trkpt lat="32.4682674" lon="-110.4874941"><ele>860.0</ele><time>2026-05-02T15:31:27.335Z</time></trkpt><trkpt lat="32.4684223" lon="-110.4874673"><ele>860.0</ele><time>2026-05-02T15:31:28.333Z</time></trkpt><trkpt lat="32.4685657" lon="-110.4874389"><ele>860.0</ele><time>2026-05-02T15:31:29.334Z</time></trkpt><trkpt lat="32.4686984" lon="-110.4874196"><ele>860.0</ele><time>2026-05-02T15:31:30.333Z</time></trkpt><trkpt lat="32.4688226" lon="-110.4874271"><ele>859.75</ele><time>2026-05-02T15:31:31.333Z</time></trkpt><trkpt lat="32.4689426" lon="-110.4874553"><ele>859.5</ele><time>2026-05-02T15:31:32.333Z</time></trkpt><trkpt lat="32.4690647" lon="-110.4875066"><ele>859.25</ele><time>2026-05-02T15:31:33.333Z</time></trkpt><trkpt lat="32.4691846" lon="-110.4875859"><ele>859.0</ele><time>2026-05-02T15:31:34.334Z</time></trkpt><trkpt lat="32.4693114" lon="-110.4876913"><ele>859.0</ele><time>2026-05-02T15:31:35.333Z</time></trkpt><trkpt lat="32.4694479" lon="-110.4878159"><ele>859.0</ele><time>2026-05-02T15:31:36.334Z</time></trkpt><trkpt lat="32.4695902" lon="-110.4879505"><ele>859.0</ele><time>2026-05-02T15:31:37.334Z</time></trkpt><trkpt lat="32.4697392" lon="-110.4880892"><ele>858.6666666666666</ele><time>2026-05-02T15:31:38.334Z</time></trkpt><trkpt lat="32.469888" lon="-110.4882289"><ele>858.3333333333333</ele><time>2026-05-02T15:31:39.335Z</time></trkpt><trkpt lat="32.4700377" lon="-110.4883682"><ele>858.0</ele><time>2026-05-02T15:31:40.334Z</time></trkpt><trkpt lat="32.4701909" lon="-110.4885085"><ele>858.0</ele><time>2026-05-02T15:31:41.334Z</time></trkpt><trkpt lat="32.4703406" lon="-110.4886448"><ele>858.0</ele><time>2026-05-02T15:31:42.335Z</time></trkpt><trkpt lat="32.4704905" lon="-110.4887819"><ele>858.0</ele><time>2026-05-02T15:31:43.335Z</time></trkpt><trkpt lat="32.4706436" lon="-110.4889152"><ele>856.6666666666667</ele><time>2026-05-02T15:31:44.334Z</time></trkpt><trkpt lat="32.4707922" lon="-110.4890497"><ele>855.3333333333334</ele><time>2026-05-02T15:31:45.333Z</time></trkpt><trkpt lat="32.4709418" lon="-110.4891801"><ele>854.0</ele><time>2026-05-02T15:31:46.333Z</time></trkpt><trkpt lat="32.4710914" lon="-110.4893134"><ele>854.0</ele><time>2026-05-02T15:31:47.334Z</time></trkpt><trkpt lat="32.4712413" lon="-110.4894465"><ele>854.0</ele><time>2026-05-02T15:31:48.333Z</time></trkpt><trkpt lat="32.4713874" lon="-110.4895824"><ele>854.0</ele><time>2026-05-02T15:31:49.334Z</time></trkpt><trkpt lat="32.4715301" lon="-110.4897146"><ele>854.0</ele><time>2026-05-02T15:31:50.335Z</time></trkpt><trkpt lat="32.4716686" lon="-110.489848"><ele>854.0</ele><time>2026-05-02T15:31:51.335Z</time></trkpt><trkpt lat="32.4718025" lon="-110.4899699"><ele>854.0</ele><time>2026-05-02T15:31:52.334Z</time></trkpt><trkpt lat="32.4719476" lon="-110.4900822"><ele>854.0</ele><time>2026-05-02T15:31:53.335Z</time></trkpt><trkpt lat="32.472091" lon="-110.4901859"><ele>854.0</ele><time>2026-05-02T15:31:54.334Z</time></trkpt><trkpt lat="32.4722395" lon="-110.4902836"><ele>854.0</ele><time>2026-05-02T15:31:55.334Z</time></trkpt><trkpt lat="32.4723902" lon="-110.4903623"><ele>854.3333333333334</ele><time>2026-05-02T15:31:56.334Z</time></trkpt><trkpt lat="32.4725524" lon="-110.4904267"><ele>854.6666666666667</ele><time>2026-05-02T15:31:57.335Z</time></trkpt><trkpt lat="32.4727182" lon="-110.4904833"><ele>855.0</ele><time>2026-05-02T15:31:58.334Z</time></trkpt><trkpt lat="32.4728899" lon="-110.4905324"><ele>854.0</ele><time>2026-05-02T15:31:59.335Z</time></trkpt><trkpt lat="32.4730631" lon="-110.4905816"><ele>853.0</ele><time>2026-05-02T15:32:00.334Z</time></trkpt><trkpt lat="32.4732311" lon="-110.4906269"><ele>852.0</ele><time>2026-05-02T15:32:01.335Z</time></trkpt><trkpt lat="32.4734015" lon="-110.4906678"><ele>852.0</ele><time>2026-05-02T15:32:02.335Z</time></trkpt><trkpt lat="32.4735753" lon="-110.4907132"><ele>852.0</ele><time>2026-05-02T15:32:03.335Z</time></trkpt><trkpt lat="32.4737533" lon="-110.4907477"><ele>852.0</ele><time>2026-05-02T15:32:04.334Z</time></trkpt><trkpt lat="32.4739347" lon="-110.4907727"><ele>851.6666666666667</ele><time>2026-05-02T15:32:05.334Z</time></trkpt><trkpt lat="32.4741165" lon="-110.4907801"><ele>851.3333333333334</ele><time>2026-05-02T15:32:06.335Z</time></trkpt><trkpt lat="32.4743021" lon="-110.4907782"><ele>851.0</ele><time>2026-05-02T15:32:07.334Z</time></trkpt><trkpt lat="32.4744908" lon="-110.4907639"><ele>852.0</ele><time>2026-05-02T15:32:08.334Z</time></trkpt><trkpt lat="32.4746766" lon="-110.4907506"><ele>853.0</ele><time>2026-05-02T15:32:09.334Z</time></trkpt><trkpt lat="32.4748639" lon="-110.4907326"><ele>854.0</ele><time>2026-05-02T15:32:10.335Z</time></trkpt><trkpt lat="32.4750511" lon="-110.4907087"><ele>854.0</ele><time>2026-05-02T15:32:11.334Z</time></trkpt><trkpt lat="32.4752357" lon="-110.4906916"><ele>854.0</ele><time>2026-05-02T15:32:12.334Z</time></trkpt><trkpt lat="32.4754208" lon="-110.4906709"><ele>854.0</ele><time>2026-05-02T15:32:13.334Z</time></trkpt><trkpt lat="32.4756119" lon="-110.4906545"><ele>853.3333333333334</ele><time>2026-05-02T15:32:14.334Z</time></trkpt><trkpt lat="32.4757941" lon="-110.4906282"><ele>852.6666666666667</ele><time>2026-05-02T15:32:15.334Z</time></trkpt><trkpt lat="32.4759749" lon="-110.490601"><ele>852.0</ele><time>2026-05-02T15:32:16.335Z</time></trkpt><trkpt lat="32.4761531" lon="-110.4905644"><ele>853.3333333333333</ele><time>2026-05-02T15:32:17.335Z</time></trkpt><trkpt lat="32.4763316" lon="-110.4905257"><ele>854.6666666666666</ele><time>2026-05-02T15:32:18.335Z</time></trkpt><trkpt lat="32.4765118" lon="-110.4904864"><ele>856.0</ele><time>2026-05-02T15:32:19.334Z</time></trkpt><trkpt lat="32.4766811" lon="-110.4904413"><ele>853.0</ele><time>2026-05-02T15:32:20.334Z</time></trkpt><trkpt lat="32.4768508" lon="-110.4904034"><ele>850.0</ele><time>2026-05-02T15:32:21.334Z</time></trkpt><trkpt lat="32.477014" lon="-110.4903673"><ele>847.0</ele><time>2026-05-02T15:32:22.334Z</time></trkpt><trkpt lat="32.4771735" lon="-110.4903345"><ele>846.75</ele><time>2026-05-02T15:32:23.335Z</time></trkpt><trkpt lat="32.4773261" lon="-110.4903135"><ele>846.5</ele><time>2026-05-02T15:32:24.334Z</time></trkpt><trkpt lat="32.4774705" lon="-110.490305"><ele>846.25</ele><time>2026-05-02T15:32:25.334Z</time></trkpt><trkpt lat="32.4776069" lon="-110.4903178"><ele>846.0</ele><time>2026-05-02T15:32:26.335Z</time></trkpt><trkpt lat="32.4777444" lon="-110.4903468"><ele>846.0</ele><time>2026-05-02T15:32:27.334Z</time></trkpt><trkpt lat="32.4778824" lon="-110.4903965"><ele>846.0</ele><time>2026-05-02T15:32:28.334Z</time></trkpt><trkpt lat="32.4780184" lon="-110.4904674"><ele>846.0</ele><time>2026-05-02T15:32:29.334Z</time></trkpt><trkpt lat="32.4781546" lon="-110.4905558"><ele>846.0</ele><time>2026-05-02T15:32:30.334Z</time></trkpt><trkpt lat="32.4782879" lon="-110.4906642"><ele>846.3333333333333</ele><time>2026-05-02T15:32:31.335Z</time></trkpt><trkpt lat="32.4784275" lon="-110.4907873"><ele>846.6666666666666</ele><time>2026-05-02T15:32:32.334Z</time></trkpt><trkpt lat="32.4785758" lon="-110.4909221"><ele>847.0</ele><time>2026-05-02T15:32:33.334Z</time></trkpt><trkpt lat="32.4787312" lon="-110.491052"><ele>847.6666666666666</ele><time>2026-05-02T15:32:34.335Z</time></trkpt><trkpt lat="32.4788803" lon="-110.4911733"><ele>848.3333333333333</ele><time>2026-05-02T15:32:35.334Z</time></trkpt><trkpt lat="32.4790219" lon="-110.49129"><ele>849.0</ele><time>2026-05-02T15:32:36.335Z</time></trkpt><trkpt lat="32.4791557" lon="-110.4914042"><ele>849.0</ele><time>2026-05-02T15:32:37.335Z</time></trkpt><trkpt lat="32.4792934" lon="-110.4915078"><ele>849.0</ele><time>2026-05-02T15:32:38.335Z</time></trkpt><trkpt lat="32.4794361" lon="-110.4916001"><ele>849.0</ele><time>2026-05-02T15:32:39.335Z</time></trkpt><trkpt lat="32.4795806" lon="-110.4916843"><ele>848.3333333333333</ele><time>2026-05-02T15:32:40.335Z</time></trkpt><trkpt lat="32.4797316" lon="-110.4917442"><ele>847.6666666666666</ele><time>2026-05-02T15:32:41.335Z</time></trkpt><trkpt lat="32.4798873" lon="-110.4917936"><ele>847.0</ele><time>2026-05-02T15:32:42.334Z</time></trkpt><trkpt lat="32.4800506" lon="-110.4918179"><ele>847.0</ele><time>2026-05-02T15:32:43.335Z</time></trkpt><trkpt lat="32.4802185" lon="-110.4918252"><ele>847.0</ele><time>2026-05-02T15:32:44.335Z</time></trkpt><trkpt lat="32.4803981" lon="-110.4918375"><ele>847.0</ele><time>2026-05-02T15:32:45.335Z</time></trkpt><trkpt lat="32.4805869" lon="-110.4918547"><ele>847.0</ele><time>2026-05-02T15:32:46.334Z</time></trkpt><trkpt lat="32.4807763" lon="-110.4918787"><ele>847.0</ele><time>2026-05-02T15:32:47.334Z</time></trkpt><trkpt lat="32.4809586" lon="-110.4919095"><ele>847.0</ele><time>2026-05-02T15:32:48.335Z</time></trkpt><trkpt lat="32.4811433" lon="-110.4919461"><ele>846.6666666666666</ele><time>2026-05-02T15:32:49.335Z</time></trkpt><trkpt lat="32.4813247" lon="-110.4919921"><ele>846.3333333333333</ele><time>2026-05-02T15:32:50.334Z</time></trkpt><trkpt lat="32.4815058" lon="-110.4920363"><ele>846.0</ele><time>2026-05-02T15:32:51.334Z</time></trkpt><trkpt lat="32.4816857" lon="-110.4920839"><ele>848.0</ele><time>2026-05-02T15:32:52.335Z</time></trkpt><trkpt lat="32.4818672" lon="-110.4921429"><ele>850.0</ele><time>2026-05-02T15:32:53.335Z</time></trkpt><trkpt lat="32.4820458" lon="-110.492214"><ele>852.0</ele><time>2026-05-02T15:32:54.335Z</time></trkpt><trkpt lat="32.4822209" lon="-110.4922951"><ele>852.0</ele><time>2026-05-02T15:32:55.335Z</time></trkpt><trkpt lat="32.482389" lon="-110.4923816"><ele>852.0</ele><time>2026-05-02T15:32:56.334Z</time></trkpt><trkpt lat="32.4825643" lon="-110.4924627"><ele>852.0</ele><time>2026-05-02T15:32:57.334Z</time></trkpt><trkpt lat="32.482743" lon="-110.4925297"><ele>850.0</ele><time>2026-05-02T15:32:58.335Z</time></trkpt><trkpt lat="32.4829336" lon="-110.4925865"><ele>848.0</ele><time>2026-05-02T15:32:59.334Z</time></trkpt><trkpt lat="32.4831287" lon="-110.492636"><ele>846.0</ele><time>2026-05-02T15:33:00.335Z</time></trkpt><trkpt lat="32.4833226" lon="-110.4926854"><ele>846.0</ele><time>2026-05-02T15:33:01.335Z</time></trkpt><trkpt lat="32.4835173" lon="-110.4927317"><ele>846.0</ele><time>2026-05-02T15:33:02.334Z</time></trkpt><trkpt lat="32.4837111" lon="-110.492779"><ele>846.0</ele><time>2026-05-02T15:33:03.334Z</time></trkpt><trkpt lat="32.4839043" lon="-110.4928294"><ele>845.3333333333333</ele><time>2026-05-02T15:33:04.335Z</time></trkpt><trkpt lat="32.4841039" lon="-110.4928758"><ele>844.6666666666666</ele><time>2026-05-02T15:33:05.334Z</time></trkpt><trkpt lat="32.4843007" lon="-110.4929244"><ele>844.0</ele><time>2026-05-02T15:33:06.335Z</time></trkpt><trkpt lat="32.4844829" lon="-110.4929644"><ele>847.6666666666666</ele><time>2026-05-02T15:33:07.334Z</time></trkpt><trkpt lat="32.4846577" lon="-110.4929969"><ele>851.3333333333333</ele><time>2026-05-02T15:33:08.335Z</time></trkpt><trkpt lat="32.4848259" lon="-110.493031"><ele>855.0</ele><time>2026-05-02T15:33:09.334Z</time></trkpt><trkpt lat="32.4849919" lon="-110.4930593"><ele>855.0</ele><time>2026-05-02T15:33:10.335Z</time></trkpt><trkpt lat="32.4851634" lon="-110.4931039"><ele>855.0</ele><time>2026-05-02T15:33:11.334Z</time></trkpt><trkpt lat="32.4853315" lon="-110.4931472"><ele>855.0</ele><time>2026-05-02T15:33:12.334Z</time></trkpt><trkpt lat="32.4855006" lon="-110.4931978"><ele>853.0</ele><time>2026-05-02T15:33:13.334Z</time></trkpt><trkpt lat="32.485671" lon="-110.4932562"><ele>851.0</ele><time>2026-05-02T15:33:14.335Z</time></trkpt><trkpt lat="32.4858397" lon="-110.4933184"><ele>849.0</ele><time>2026-05-02T15:33:15.335Z</time></trkpt><trkpt lat="32.4860105" lon="-110.493382"><ele>849.0</ele><time>2026-05-02T15:33:16.335Z</time></trkpt><trkpt lat="32.4861834" lon="-110.4934489"><ele>849.0</ele><time>2026-05-02T15:33:17.335Z</time></trkpt><trkpt lat="32.4863583" lon="-110.4935139"><ele>849.0</ele><time>2026-05-02T15:33:18.335Z</time></trkpt><trkpt lat="32.4865346" lon="-110.4935789"><ele>847.6666666666667</ele><time>2026-05-02T15:33:19.335Z</time></trkpt><trkpt lat="32.4867061" lon="-110.4936404"><ele>846.3333333333334</ele><time>2026-05-02T15:33:20.334Z</time></trkpt><trkpt lat="32.48688" lon="-110.4937053"><ele>845.0</ele><time>2026-05-02T15:33:21.334Z</time></trkpt><trkpt lat="32.4870551" lon="-110.4937654"><ele>846.3333333333334</ele><time>2026-05-02T15:33:22.335Z</time></trkpt><trkpt lat="32.4872265" lon="-110.493828"><ele>847.6666666666667</ele><time>2026-05-02T15:33:23.335Z</time></trkpt><trkpt lat="32.4873995" lon="-110.4938852"><ele>849.0</ele><time>2026-05-02T15:33:24.336Z</time></trkpt><trkpt lat="32.4875743" lon="-110.4939399"><ele>849.0</ele><time>2026-05-02T15:33:25.336Z</time></trkpt><trkpt lat="32.4877454" lon="-110.4939928"><ele>849.0</ele><time>2026-05-02T15:33:26.336Z</time></trkpt><trkpt lat="32.4879157" lon="-110.4940391"><ele>849.0</ele><time>2026-05-02T15:33:27.335Z</time></trkpt><trkpt lat="32.4880891" lon="-110.49408"><ele>848.0</ele><time>2026-05-02T15:33:28.336Z</time></trkpt><trkpt lat="32.4882624" lon="-110.4941186"><ele>847.0</ele><time>2026-05-02T15:33:29.336Z</time></trkpt><trkpt lat="32.4884376" lon="-110.4941615"><ele>846.0</ele><time>2026-05-02T15:33:30.335Z</time></trkpt><trkpt lat="32.4886193" lon="-110.4942002"><ele>846.3333333333333</ele><time>2026-05-02T15:33:31.334Z</time></trkpt><trkpt lat="32.4887953" lon="-110.4942394"><ele>846.6666666666666</ele><time>2026-05-02T15:33:32.334Z</time></trkpt><trkpt lat="32.4889717" lon="-110.4942712"><ele>847.0</ele><time>2026-05-02T15:33:33.334Z</time></trkpt><trkpt lat="32.4891506" lon="-110.4943072"><ele>847.0</ele><time>2026-05-02T15:33:34.334Z</time></trkpt><trkpt lat="32.4893288" lon="-110.4943387"><ele>847.0</ele><time>2026-05-02T15:33:35.335Z</time></trkpt><trkpt lat="32.4895071" lon="-110.4943735"><ele>847.0</ele><time>2026-05-02T15:33:36.334Z</time></trkpt><trkpt lat="32.489675" lon="-110.4944089"><ele>846.6666666666666</ele><time>2026-05-02T15:33:37.335Z</time></trkpt><trkpt lat="32.4898375" lon="-110.4944404"><ele>846.3333333333333</ele><time>2026-05-02T15:33:38.335Z</time></trkpt><trkpt lat="32.4899982" lon="-110.49447"><ele>846.0</ele><time>2026-05-02T15:33:39.335Z</time></trkpt><trkpt lat="32.4901607" lon="-110.4944838"><ele>846.0</ele><time>2026-05-02T15:33:40.335Z</time></trkpt><trkpt lat="32.4903157" lon="-110.4944874"><ele>846.0</ele><time>2026-05-02T15:33:41.335Z</time></trkpt><trkpt lat="32.4904738" lon="-110.4944682"><ele>846.0</ele><time>2026-05-02T15:33:42.336Z</time></trkpt><trkpt lat="32.4906363" lon="-110.4944368"><ele>846.3333333333333</ele><time>2026-05-02T15:33:43.334Z</time></trkpt><trkpt lat="32.4908079" lon="-110.4943886"><ele>846.6666666666666</ele><time>2026-05-02T15:33:44.336Z</time></trkpt><trkpt lat="32.4909844" lon="-110.4943366"><ele>847.0</ele><time>2026-05-02T15:33:45.334Z</time></trkpt><trkpt lat="32.491168" lon="-110.494279"><ele>846.3333333333333</ele><time>2026-05-02T15:33:46.335Z</time></trkpt><trkpt lat="32.4913455" lon="-110.4942216"><ele>845.6666666666667</ele><time>2026-05-02T15:33:47.336Z</time></trkpt><trkpt lat="32.4915208" lon="-110.4941673"><ele>845.0</ele><time>2026-05-02T15:33:48.335Z</time></trkpt><trkpt lat="32.4916934" lon="-110.4941148"><ele>845.0</ele><time>2026-05-02T15:33:49.336Z</time></trkpt><trkpt lat="32.4918537" lon="-110.4940649"><ele>845.0</ele><time>2026-05-02T15:33:50.334Z</time></trkpt><trkpt lat="32.4920112" lon="-110.4940203"><ele>845.0</ele><time>2026-05-02T15:33:51.335Z</time></trkpt><trkpt lat="32.4921576" lon="-110.4939804"><ele>845.5</ele><time>2026-05-02T15:33:52.334Z</time></trkpt><trkpt lat="32.4922982" lon="-110.4939499"><ele>846.0</ele><time>2026-05-02T15:33:53.336Z</time></trkpt><trkpt lat="32.4924308" lon="-110.4939391"><ele>846.5</ele><time>2026-05-02T15:33:54.334Z</time></trkpt><trkpt lat="32.4925568" lon="-110.4939357"><ele>847.0</ele><time>2026-05-02T15:33:55.336Z</time></trkpt><trkpt lat="32.492693" lon="-110.4939508"><ele>847.0</ele><time>2026-05-02T15:33:56.335Z</time></trkpt><trkpt lat="32.4928437" lon="-110.4939802"><ele>847.0</ele><time>2026-05-02T15:33:57.335Z</time></trkpt><trkpt lat="32.4930086" lon="-110.4940165"><ele>847.0</ele><time>2026-05-02T15:33:58.336Z</time></trkpt><trkpt lat="32.4931824" lon="-110.4940584"><ele>846.3333333333333</ele><time>2026-05-02T15:33:59.335Z</time></trkpt><trkpt lat="32.4933677" lon="-110.4941036"><ele>845.6666666666667</ele><time>2026-05-02T15:34:00.335Z</time></trkpt><trkpt lat="32.493555" lon="-110.4941534"><ele>845.0</ele><time>2026-05-02T15:34:01.336Z</time></trkpt><trkpt lat="32.4937495" lon="-110.4942065"><ele>844.3333333333334</ele><time>2026-05-02T15:34:02.336Z</time></trkpt><trkpt lat="32.4939465" lon="-110.4942554"><ele>843.6666666666667</ele><time>2026-05-02T15:34:03.336Z</time></trkpt><trkpt lat="32.4941397" lon="-110.4943067"><ele>843.0</ele><time>2026-05-02T15:34:04.336Z</time></trkpt><trkpt lat="32.4943344" lon="-110.4943559"><ele>843.0</ele><time>2026-05-02T15:34:05.335Z</time></trkpt><trkpt lat="32.4945297" lon="-110.4944131"><ele>843.0</ele><time>2026-05-02T15:34:06.335Z</time></trkpt><trkpt lat="32.4947308" lon="-110.4944666"><ele>843.0</ele><time>2026-05-02T15:34:07.335Z</time></trkpt><trkpt lat="32.4949339" lon="-110.49452"><ele>842.6666666666667</ele><time>2026-05-02T15:34:08.336Z</time></trkpt><trkpt lat="32.4951402" lon="-110.4945758"><ele>842.3333333333334</ele><time>2026-05-02T15:34:09.335Z</time></trkpt><trkpt lat="32.4953471" lon="-110.494631"><ele>842.0</ele><time>2026-05-02T15:34:10.335Z</time></trkpt><trkpt lat="32.4955546" lon="-110.4946825"><ele>841.3333333333334</ele><time>2026-05-02T15:34:11.335Z</time></trkpt><trkpt lat="32.4957618" lon="-110.4947366"><ele>840.6666666666667</ele><time>2026-05-02T15:34:12.336Z</time></trkpt><trkpt lat="32.4959708" lon="-110.4947881"><ele>840.0</ele><time>2026-05-02T15:34:13.336Z</time></trkpt><trkpt lat="32.4961811" lon="-110.4948424"><ele>840.3333333333333</ele><time>2026-05-02T15:34:14.335Z</time></trkpt><trkpt lat="32.4963843" lon="-110.4948909"><ele>840.6666666666666</ele><time>2026-05-02T15:34:15.335Z</time></trkpt><trkpt lat="32.4965849" lon="-110.4949466"><ele>841.0</ele><time>2026-05-02T15:34:16.335Z</time></trkpt><trkpt lat="32.4967859" lon="-110.4949994"><ele>841.0</ele><time>2026-05-02T15:34:17.336Z</time></trkpt><trkpt lat="32.496988" lon="-110.4950478"><ele>841.0</ele><time>2026-05-02T15:34:18.335Z</time></trkpt><trkpt lat="32.4971921" lon="-110.4950955"><ele>841.0</ele><time>2026-05-02T15:34:19.337Z</time></trkpt><trkpt lat="32.4973975" lon="-110.495144"><ele>840.6666666666666</ele><time>2026-05-02T15:34:20.336Z</time></trkpt><trkpt lat="32.4976005" lon="-110.4951915"><ele>840.3333333333333</ele><time>2026-05-02T15:34:21.335Z</time></trkpt><trkpt lat="32.4977981" lon="-110.4952435"><ele>840.0</ele><time>2026-05-02T15:34:22.336Z</time></trkpt><trkpt lat="32.4980015" lon="-110.4952943"><ele>840.6666666666667</ele><time>2026-05-02T15:34:23.335Z</time></trkpt><trkpt lat="32.4982029" lon="-110.4953457"><ele>841.3333333333334</ele><time>2026-05-02T15:34:24.336Z</time></trkpt><trkpt lat="32.4984049" lon="-110.4953999"><ele>842.0</ele><time>2026-05-02T15:34:25.335Z</time></trkpt><trkpt lat="32.4986106" lon="-110.495452"><ele>842.3333333333334</ele><time>2026-05-02T15:34:26.336Z</time></trkpt><trkpt lat="32.4988214" lon="-110.4955031"><ele>842.6666666666667</ele><time>2026-05-02T15:34:27.335Z</time></trkpt><trkpt lat="32.4990282" lon="-110.4955568"><ele>843.0</ele><time>2026-05-02T15:34:28.335Z</time></trkpt><trkpt lat="32.4992295" lon="-110.4956121"><ele>843.0</ele><time>2026-05-02T15:34:29.336Z</time></trkpt><trkpt lat="32.4994312" lon="-110.4956674"><ele>843.0</ele><time>2026-05-02T15:34:30.335Z</time></trkpt><trkpt lat="32.4996349" lon="-110.4957193"><ele>843.0</ele><time>2026-05-02T15:34:31.336Z</time></trkpt><trkpt lat="32.4998414" lon="-110.495774"><ele>843.0</ele><time>2026-05-02T15:34:32.336Z</time></trkpt><trkpt lat="32.5000492" lon="-110.4958253"><ele>843.0</ele><time>2026-05-02T15:34:33.335Z</time></trkpt><trkpt lat="32.5002553" lon="-110.4958735"><ele>843.0</ele><time>2026-05-02T15:34:34.336Z</time></trkpt><trkpt lat="32.500462" lon="-110.4959244"><ele>842.3333333333333</ele><time>2026-05-02T15:34:35.335Z</time></trkpt><trkpt lat="32.5006682" lon="-110.4959754"><ele>841.6666666666666</ele><time>2026-05-02T15:34:36.335Z</time></trkpt><trkpt lat="32.5008738" lon="-110.4960248"><ele>841.0</ele><time>2026-05-02T15:34:37.335Z</time></trkpt><trkpt lat="32.5010788" lon="-110.4960751"><ele>840.3333333333333</ele><time>2026-05-02T15:34:38.335Z</time></trkpt><trkpt lat="32.5012843" lon="-110.4961269"><ele>839.6666666666667</ele><time>2026-05-02T15:34:39.335Z</time></trkpt><trkpt lat="32.5014904" lon="-110.4961785"><ele>839.0</ele><time>2026-05-02T15:34:40.336Z</time></trkpt><trkpt lat="32.5016975" lon="-110.4962283"><ele>839.6666666666667</ele><time>2026-05-02T15:34:41.336Z</time></trkpt><trkpt lat="32.5019034" lon="-110.496282"><ele>840.3333333333333</ele><time>2026-05-02T15:34:42.336Z</time></trkpt><trkpt lat="32.5021066" lon="-110.4963338"><ele>841.0</ele><time>2026-05-02T15:34:43.335Z</time></trkpt><trkpt lat="32.5023133" lon="-110.4963869"><ele>841.0</ele><time>2026-05-02T15:34:44.335Z</time></trkpt><trkpt lat="32.5025162" lon="-110.4964442"><ele>841.0</ele><time>2026-05-02T15:34:45.336Z</time></trkpt><trkpt lat="32.5027192" lon="-110.4964949"><ele>841.0</ele><time>2026-05-02T15:34:46.336Z</time></trkpt><trkpt lat="32.5029214" lon="-110.4965436"><ele>841.0</ele><time>2026-05-02T15:34:47.335Z</time></trkpt><trkpt lat="32.503124" lon="-110.4965933"><ele>841.0</ele><time>2026-05-02T15:34:48.335Z</time></trkpt><trkpt lat="32.5033245" lon="-110.4966441"><ele>841.0</ele><time>2026-05-02T15:34:49.336Z</time></trkpt><trkpt lat="32.5035238" lon="-110.4966934"><ele>841.0</ele><time>2026-05-02T15:34:50.335Z</time></trkpt><trkpt lat="32.5037256" lon="-110.4967433"><ele>841.0</ele><time>2026-05-02T15:34:51.336Z</time></trkpt><trkpt lat="32.5039231" lon="-110.4967904"><ele>841.0</ele><time>2026-05-02T15:34:52.336Z</time></trkpt><trkpt lat="32.504113" lon="-110.4968403"><ele>841.0</ele><time>2026-05-02T15:34:53.335Z</time></trkpt><trkpt lat="32.5043039" lon="-110.4968846"><ele>841.0</ele><time>2026-05-02T15:34:54.336Z</time></trkpt><trkpt lat="32.5044947" lon="-110.4969379"><ele>841.0</ele><time>2026-05-02T15:34:55.336Z</time></trkpt><trkpt lat="32.5046907" lon="-110.4969933"><ele>841.0</ele><time>2026-05-02T15:34:56.335Z</time></trkpt><trkpt lat="32.5048863" lon="-110.4970551"><ele>841.0</ele><time>2026-05-02T15:34:57.335Z</time></trkpt><trkpt lat="32.5050842" lon="-110.4971247"><ele>841.0</ele><time>2026-05-02T15:34:58.335Z</time></trkpt><trkpt lat="32.5052813" lon="-110.4971954"><ele>840.6666666666666</ele><time>2026-05-02T15:34:59.335Z</time></trkpt><trkpt lat="32.5054756" lon="-110.4972661"><ele>840.3333333333333</ele><time>2026-05-02T15:35:00.335Z</time></trkpt><trkpt lat="32.5056684" lon="-110.4973379"><ele>840.0</ele><time>2026-05-02T15:35:01.335Z</time></trkpt><trkpt lat="32.5058494" lon="-110.497407"><ele>840.0</ele><time>2026-05-02T15:35:02.335Z</time></trkpt><trkpt lat="32.5060295" lon="-110.4974718"><ele>840.0</ele><time>2026-05-02T15:35:03.336Z</time></trkpt><trkpt lat="32.5062088" lon="-110.4975375"><ele>840.0</ele><time>2026-05-02T15:35:04.336Z</time></trkpt><trkpt lat="32.5063887" lon="-110.497607"><ele>839.0</ele><time>2026-05-02T15:35:05.337Z</time></trkpt><trkpt lat="32.5065694" lon="-110.4976783"><ele>838.0</ele><time>2026-05-02T15:35:06.335Z</time></trkpt><trkpt lat="32.5067492" lon="-110.497752"><ele>837.0</ele><time>2026-05-02T15:35:07.336Z</time></trkpt><trkpt lat="32.5069296" lon="-110.4978219"><ele>836.3333333333333</ele><time>2026-05-02T15:35:08.335Z</time></trkpt><trkpt lat="32.5071131" lon="-110.4978934"><ele>835.6666666666666</ele><time>2026-05-02T15:35:09.336Z</time></trkpt><trkpt lat="32.5073021" lon="-110.4979672"><ele>835.0</ele><time>2026-05-02T15:35:10.335Z</time></trkpt><trkpt lat="32.5074968" lon="-110.4980411"><ele>835.3333333333333</ele><time>2026-05-02T15:35:11.336Z</time></trkpt><trkpt lat="32.5076888" lon="-110.4981144"><ele>835.6666666666667</ele><time>2026-05-02T15:35:12.336Z</time></trkpt><trkpt lat="32.5078831" lon="-110.4981779"><ele>836.0</ele><time>2026-05-02T15:35:13.335Z</time></trkpt><trkpt lat="32.5080721" lon="-110.4982487"><ele>836.0</ele><time>2026-05-02T15:35:14.335Z</time></trkpt><trkpt lat="32.5082618" lon="-110.4983222"><ele>836.0</ele><time>2026-05-02T15:35:15.336Z</time></trkpt><trkpt lat="32.5084438" lon="-110.4983911"><ele>836.0</ele><time>2026-05-02T15:35:16.337Z</time></trkpt><trkpt lat="32.5086238" lon="-110.4984582"><ele>835.3333333333334</ele><time>2026-05-02T15:35:17.336Z</time></trkpt><trkpt lat="32.5088055" lon="-110.4985304"><ele>834.6666666666667</ele><time>2026-05-02T15:35:18.335Z</time></trkpt><trkpt lat="32.5089898" lon="-110.4986019"><ele>834.0</ele><time>2026-05-02T15:35:19.336Z</time></trkpt><trkpt lat="32.5091746" lon="-110.4986745"><ele>834.0</ele><time>2026-05-02T15:35:20.336Z</time></trkpt><trkpt lat="32.5093642" lon="-110.4987467"><ele>834.0</ele><time>2026-05-02T15:35:21.335Z</time></trkpt><trkpt lat="32.5095597" lon="-110.4988201"><ele>834.0</ele><time>2026-05-02T15:35:22.335Z</time></trkpt><trkpt lat="32.5097496" lon="-110.4988904"><ele>834.6666666666667</ele><time>2026-05-02T15:35:23.336Z</time></trkpt><trkpt lat="32.5099466" lon="-110.4989682"><ele>835.3333333333334</ele><time>2026-05-02T15:35:24.336Z</time></trkpt><trkpt lat="32.5101465" lon="-110.4990422"><ele>836.0</ele><time>2026-05-02T15:35:25.335Z</time></trkpt><trkpt lat="32.5103451" lon="-110.4991193"><ele>835.0</ele><time>2026-05-02T15:35:26.336Z</time></trkpt><trkpt lat="32.51054" lon="-110.4991985"><ele>834.0</ele><time>2026-05-02T15:35:27.337Z</time></trkpt><trkpt lat="32.5107285" lon="-110.4992771"><ele>833.0</ele><time>2026-05-02T15:35:28.335Z</time></trkpt><trkpt lat="32.5109123" lon="-110.4993512"><ele>833.0</ele><time>2026-05-02T15:35:29.336Z</time></trkpt><trkpt lat="32.511093" lon="-110.499422"><ele>833.0</ele><time>2026-05-02T15:35:30.336Z</time></trkpt><trkpt lat="32.5112761" lon="-110.4994938"><ele>833.0</ele><time>2026-05-02T15:35:31.337Z</time></trkpt><trkpt lat="32.511455" lon="-110.4995594"><ele>832.6666666666667</ele><time>2026-05-02T15:35:32.337Z</time></trkpt><trkpt lat="32.5116299" lon="-110.4996224"><ele>832.3333333333333</ele><time>2026-05-02T15:35:33.336Z</time></trkpt><trkpt lat="32.5118112" lon="-110.4996919"><ele>832.0</ele><time>2026-05-02T15:35:34.337Z</time></trkpt><trkpt lat="32.5119887" lon="-110.499757"><ele>832.3333333333333</ele><time>2026-05-02T15:35:35.336Z</time></trkpt><trkpt lat="32.5121605" lon="-110.4998236"><ele>832.6666666666667</ele><time>2026-05-02T15:35:36.336Z</time></trkpt><trkpt lat="32.5123244" lon="-110.4998937"><ele>833.0</ele><time>2026-05-02T15:35:37.336Z</time></trkpt><trkpt lat="32.5124816" lon="-110.4999517"><ele>833.0</ele><time>2026-05-02T15:35:38.335Z</time></trkpt><trkpt lat="32.5126384" lon="-110.5000078"><ele>833.0</ele><time>2026-05-02T15:35:39.337Z</time></trkpt><trkpt lat="32.5127887" lon="-110.5000631"><ele>833.0</ele><time>2026-05-02T15:35:40.336Z</time></trkpt><trkpt lat="32.5129338" lon="-110.500115"><ele>833.0</ele><time>2026-05-02T15:35:41.336Z</time></trkpt><trkpt lat="32.5130714" lon="-110.5001663"><ele>833.0</ele><time>2026-05-02T15:35:42.335Z</time></trkpt><trkpt lat="32.5132106" lon="-110.5002197"><ele>833.0</ele><time>2026-05-02T15:35:43.336Z</time></trkpt><trkpt lat="32.5133429" lon="-110.5002691"><ele>833.0</ele><time>2026-05-02T15:35:44.335Z</time></trkpt><trkpt lat="32.5134763" lon="-110.5003179"><ele>836.0</ele><time>2026-05-02T15:35:45.337Z</time></trkpt><trkpt lat="32.5080721" lon="-110.4982487"><ele>836.0</ele><time>2026-05-02T15:35:14.335Z</time></trkpt><trkpt lat="32.5082618" lon="-110.4983222"><ele>836.0</ele><time>2026-05-02T15:35:15.336Z</time></trkpt><trkpt lat="32.5084438" lon="-110.4983911"><ele>836.0</ele><time>2026-05-02T15:35:16.337Z</time></trkpt><trkpt lat="32.5086238" lon="-110.4984582"><ele>835.3333333333334</ele><time>2026-05-02T15:35:17.336Z</time></trkpt><trkpt lat="32.5088055" lon="-110.4985304"><ele>834.6666666666667</ele><time>2026-05-02T15:35:18.335Z</time></trkpt><trkpt lat="32.5089898" lon="-110.4986019"><ele>834.0</ele><time>2026-05-02T15:35:19.336Z</time></trkpt><trkpt lat="32.5091746" lon="-110.4986745"><ele>834.0</ele><time>2026-05-02T15:35:20.336Z</time></trkpt><trkpt lat="32.5093642" lon="-110.4987467"><ele>834.0</ele><time>2026-05-02T15:35:21.335Z</time></trkpt><trkpt lat="32.5095597" lon="-110.4988201"><ele>834.0</ele><time>2026-05-02T15:35:22.335Z</time></trkpt><trkpt lat="32.5097496" lon="-110.4988904"><ele>834.6666666666667</ele><time>2026-05-02T15:35:23.336Z</time></trkpt><trkpt lat="32.5099466" lon="-110.4989682"><ele>835.3333333333334</ele><time>2026-05-02T15:35:24.336Z</time></trkpt><trkpt lat="32.5101465" lon="-110.4990422"><ele>836.0</ele><time>2026-05-02T15:35:25.335Z</time></trkpt><trkpt lat="32.5103451" lon="-110.4991193"><ele>835.0</ele><time>2026-05-02T15:35:26.336Z</time></trkpt><trkpt lat="32.51054" lon="-110.4991985"><ele>834.0</ele><time>2026-05-02T15:35:27.337Z</time></trkpt><trkpt lat="32.5107285" lon="-110.4992771"><ele>833.0</ele><time>2026-05-02T15:35:28.335Z</time></trkpt><trkpt lat="32.5109123" lon="-110.4993512"><ele>833.0</ele><time>2026-05-02T15:35:29.336Z</time></trkpt><trkpt lat="32.511093" lon="-110.499422"><ele>833.0</ele><time>2026-05-02T15:35:30.336Z</time></trkpt><trkpt lat="32.5112761" lon="-110.4994938"><ele>833.0</ele><time>2026-05-02T15:35:31.337Z</time></trkpt><trkpt lat="32.511455" lon="-110.4995594"><ele>832.6666666666667</ele><time>2026-05-02T15:35:32.337Z</time></trkpt><trkpt lat="32.5116299" lon="-110.4996224"><ele>832.3333333333333</ele><time>2026-05-02T15:35:33.336Z</time></trkpt><trkpt lat="32.5118112" lon="-110.4996919"><ele>832.0</ele><time>2026-05-02T15:35:34.337Z</time></trkpt><trkpt lat="32.5119887" lon="-110.499757"><ele>832.3333333333333</ele><time>2026-05-02T15:35:35.336Z</time></trkpt><trkpt lat="32.5121605" lon="-110.4998236"><ele>832.6666666666667</ele><time>2026-05-02T15:35:36.336Z</time></trkpt><trkpt lat="32.5123244" lon="-110.4998937"><ele>833.0</ele><time>2026-05-02T15:35:37.336Z</time></trkpt><trkpt lat="32.5124816" lon="-110.4999517"><ele>833.0</ele><time>2026-05-02T15:35:38.335Z</time></trkpt><trkpt lat="32.5126384" lon="-110.5000078"><ele>833.0</ele><time>2026-05-02T15:35:39.337Z</time></trkpt><trkpt lat="32.5127887" lon="-110.5000631"><ele>833.0</ele><time>2026-05-02T15:35:40.336Z</time></trkpt><trkpt lat="32.5129338" lon="-110.500115"><ele>833.0</ele><time>2026-05-02T15:35:41.336Z</time></trkpt><trkpt lat="32.5130714" lon="-110.5001663"><ele>833.0</ele><time>2026-05-02T15:35:42.335Z</time></trkpt><trkpt lat="32.5132106" lon="-110.5002197"><ele>833.0</ele><time>2026-05-02T15:35:43.336Z</time></trkpt><trkpt lat="32.5133429" lon="-110.5002691"><ele>833.0</ele><time>2026-05-02T15:35:44.335Z</time></trkpt><trkpt lat="32.5134763" lon="-110.5003179"><ele>833.0</ele><time>2026-05-02T15:35:45.337Z</time></trkpt><trkpt lat="32.5136055" lon="-110.5003603"><ele>833.0</ele><time>2026-05-02T15:35:46.336Z</time></trkpt><trkpt lat="32.5137303" lon="-110.5004117"><ele>833.0</ele><time>2026-05-02T15:35:47.337Z</time></trkpt><trkpt lat="32.5138507" lon="-110.5004549"><ele>833.0</ele><time>2026-05-02T15:35:48.337Z</time></trkpt><trkpt lat="32.5139721" lon="-110.5005028"><ele>834.25</ele><time>2026-05-02T15:35:49.336Z</time></trkpt><trkpt lat="32.514105" lon="-110.5005521"><ele>835.5</ele><time>2026-05-02T15:35:50.336Z</time></trkpt><trkpt lat="32.5142461" lon="-110.5006019"><ele>836.75</ele><time>2026-05-02T15:35:51.337Z</time></trkpt><trkpt lat="32.5143915" lon="-110.500652"><ele>838.0</ele><time>2026-05-02T15:35:52.336Z</time></trkpt><trkpt lat="32.5145485" lon="-110.5006986"><ele>837.3333333333333</ele><time>2026-05-02T15:35:53.336Z</time></trkpt><trkpt lat="32.5147144" lon="-110.5007405"><ele>836.6666666666667</ele><time>2026-05-02T15:35:54.337Z</time></trkpt><trkpt lat="32.5148854" lon="-110.5007714"><ele>836.0</ele><time>2026-05-02T15:35:55.336Z</time></trkpt><trkpt lat="32.5150614" lon="-110.500799"><ele>836.0</ele><time>2026-05-02T15:35:56.336Z</time></trkpt><trkpt lat="32.515234" lon="-110.5008313"><ele>836.0</ele><time>2026-05-02T15:35:57.337Z</time></trkpt><trkpt lat="32.5154026" lon="-110.5008595"><ele>836.0</ele><time>2026-05-02T15:35:58.337Z</time></trkpt><trkpt lat="32.5155756" lon="-110.5008828"><ele>836.3333333333334</ele><time>2026-05-02T15:35:59.336Z</time></trkpt><trkpt lat="32.5157464" lon="-110.5009093"><ele>836.6666666666667</ele><time>2026-05-02T15:36:00.336Z</time></trkpt><trkpt lat="32.5159281" lon="-110.5009331"><ele>837.0</ele><time>2026-05-02T15:36:01.337Z</time></trkpt><trkpt lat="32.5161129" lon="-110.5009537"><ele>835.3333333333333</ele><time>2026-05-02T15:36:02.336Z</time></trkpt><trkpt lat="32.5162981" lon="-110.5009723"><ele>833.6666666666666</ele><time>2026-05-02T15:36:03.337Z</time></trkpt><trkpt lat="32.5164807" lon="-110.5009864"><ele>832.0</ele><time>2026-05-02T15:36:04.337Z</time></trkpt><trkpt lat="32.5166674" lon="-110.5010052"><ele>832.0</ele><time>2026-05-02T15:36:05.337Z</time></trkpt><trkpt lat="32.5168535" lon="-110.5010204"><ele>832.0</ele><time>2026-05-02T15:36:06.336Z</time></trkpt><trkpt lat="32.5170459" lon="-110.5010388"><ele>832.0</ele><time>2026-05-02T15:36:07.337Z</time></trkpt><trkpt lat="32.5172404" lon="-110.501055"><ele>831.6666666666666</ele><time>2026-05-02T15:36:08.337Z</time></trkpt><trkpt lat="32.517438" lon="-110.501074"><ele>831.3333333333333</ele><time>2026-05-02T15:36:09.337Z</time></trkpt><trkpt lat="32.517636" lon="-110.5010955"><ele>831.0</ele><time>2026-05-02T15:36:10.336Z</time></trkpt><trkpt lat="32.5178332" lon="-110.5011149"><ele>831.0</ele><time>2026-05-02T15:36:11.336Z</time></trkpt><trkpt lat="32.5180312" lon="-110.5011387"><ele>831.0</ele><time>2026-05-02T15:36:12.337Z</time></trkpt><trkpt lat="32.5182311" lon="-110.5011563"><ele>831.0</ele><time>2026-05-02T15:36:13.337Z</time></trkpt><trkpt lat="32.518432" lon="-110.5011742"><ele>831.0</ele><time>2026-05-02T15:36:14.337Z</time></trkpt><trkpt lat="32.5186338" lon="-110.5011891"><ele>831.0</ele><time>2026-05-02T15:36:15.337Z</time></trkpt><trkpt lat="32.5188337" lon="-110.5012067"><ele>831.0</ele><time>2026-05-02T15:36:16.337Z</time></trkpt><trkpt lat="32.5190354" lon="-110.5012217"><ele>831.0</ele><time>2026-05-02T15:36:17.336Z</time></trkpt><trkpt lat="32.5192319" lon="-110.5012338"><ele>831.0</ele><time>2026-05-02T15:36:18.336Z</time></trkpt><trkpt lat="32.5194353" lon="-110.5012502"><ele>831.0</ele><time>2026-05-02T15:36:19.336Z</time></trkpt><trkpt lat="32.5196347" lon="-110.5012681"><ele>831.0</ele><time>2026-05-02T15:36:20.337Z</time></trkpt><trkpt lat="32.5198332" lon="-110.501287"><ele>831.0</ele><time>2026-05-02T15:36:21.337Z</time></trkpt><trkpt lat="32.5200309" lon="-110.5013063"><ele>831.0</ele><time>2026-05-02T15:36:22.337Z</time></trkpt><trkpt lat="32.5202341" lon="-110.5013223"><ele>831.0</ele><time>2026-05-02T15:36:23.336Z</time></trkpt><trkpt lat="32.5204303" lon="-110.5013338"><ele>831.0</ele><time>2026-05-02T15:36:24.337Z</time></trkpt><trkpt lat="32.5206223" lon="-110.5013447"><ele>831.0</ele><time>2026-05-02T15:36:25.337Z</time></trkpt><trkpt lat="32.5208182" lon="-110.5013529"><ele>831.0</ele><time>2026-05-02T15:36:26.337Z</time></trkpt><trkpt lat="32.5210132" lon="-110.5013636"><ele>831.0</ele><time>2026-05-02T15:36:27.337Z</time></trkpt><trkpt lat="32.5212125" lon="-110.5013795"><ele>831.0</ele><time>2026-05-02T15:36:28.336Z</time></trkpt><trkpt lat="32.521406" lon="-110.5013989"><ele>830.3333333333333</ele><time>2026-05-02T15:36:29.336Z</time></trkpt><trkpt lat="32.5215982" lon="-110.5014255"><ele>829.6666666666666</ele><time>2026-05-02T15:36:30.337Z</time></trkpt><trkpt lat="32.5217948" lon="-110.5014586"><ele>829.0</ele><time>2026-05-02T15:36:31.336Z</time></trkpt><trkpt lat="32.5219857" lon="-110.5015054"><ele>828.0</ele><time>2026-05-02T15:36:32.336Z</time></trkpt><trkpt lat="32.5221768" lon="-110.5015661"><ele>827.0</ele><time>2026-05-02T15:36:33.336Z</time></trkpt><trkpt lat="32.5223747" lon="-110.5016396"><ele>826.0</ele><time>2026-05-02T15:36:34.336Z</time></trkpt><trkpt lat="32.5225718" lon="-110.5017269"><ele>826.0</ele><time>2026-05-02T15:36:35.336Z</time></trkpt><trkpt lat="32.5227614" lon="-110.50183"><ele>826.0</ele><time>2026-05-02T15:36:36.337Z</time></trkpt><trkpt lat="32.522938" lon="-110.5019532"><ele>826.0</ele><time>2026-05-02T15:36:37.337Z</time></trkpt><trkpt lat="32.5231157" lon="-110.502079"><ele>827.3333333333333</ele><time>2026-05-02T15:36:38.336Z</time></trkpt><trkpt lat="32.5232895" lon="-110.5022072"><ele>828.6666666666667</ele><time>2026-05-02T15:36:39.336Z</time></trkpt><trkpt lat="32.5234672" lon="-110.502338"><ele>830.0</ele><time>2026-05-02T15:36:40.336Z</time></trkpt><trkpt lat="32.5236416" lon="-110.5024654"><ele>828.6666666666667</ele><time>2026-05-02T15:36:41.337Z</time></trkpt><trkpt lat="32.5238083" lon="-110.5025873"><ele>827.3333333333333</ele><time>2026-05-02T15:36:42.336Z</time></trkpt><trkpt lat="32.523969" lon="-110.5026942"><ele>826.0</ele><time>2026-05-02T15:36:43.336Z</time></trkpt><trkpt lat="32.5241279" lon="-110.5027906"><ele>826.0</ele><time>2026-05-02T15:36:44.336Z</time></trkpt><trkpt lat="32.5242912" lon="-110.5028723"><ele>826.0</ele><time>2026-05-02T15:36:45.337Z</time></trkpt><trkpt lat="32.5244624" lon="-110.5029373"><ele>826.0</ele><time>2026-05-02T15:36:46.338Z</time></trkpt><trkpt lat="32.5246357" lon="-110.5029919"><ele>826.0</ele><time>2026-05-02T15:36:47.336Z</time></trkpt><trkpt lat="32.5248068" lon="-110.5030271"><ele>826.0</ele><time>2026-05-02T15:36:48.336Z</time></trkpt><trkpt lat="32.5249758" lon="-110.5030489"><ele>826.0</ele><time>2026-05-02T15:36:49.337Z</time></trkpt><trkpt lat="32.5251412" lon="-110.503048"><ele>826.0</ele><time>2026-05-02T15:36:50.337Z</time></trkpt><trkpt lat="32.5252968" lon="-110.5030219"><ele>826.0</ele><time>2026-05-02T15:36:51.338Z</time></trkpt><trkpt lat="32.5254462" lon="-110.5029636"><ele>826.0</ele><time>2026-05-02T15:36:52.336Z</time></trkpt><trkpt lat="32.5255953" lon="-110.502883"><ele>825.3333333333333</ele><time>2026-05-02T15:36:53.336Z</time></trkpt><trkpt lat="32.5257532" lon="-110.5027994"><ele>824.6666666666667</ele><time>2026-05-02T15:36:54.336Z</time></trkpt><trkpt lat="32.5259087" lon="-110.5027174"><ele>824.0</ele><time>2026-05-02T15:36:55.337Z</time></trkpt><trkpt lat="32.5260675" lon="-110.5026626"><ele>823.3333333333334</ele><time>2026-05-02T15:36:56.336Z</time></trkpt><trkpt lat="32.5262347" lon="-110.5026372"><ele>822.6666666666667</ele><time>2026-05-02T15:36:57.337Z</time></trkpt><trkpt lat="32.526411" lon="-110.5026326"><ele>822.0</ele><time>2026-05-02T15:36:58.336Z</time></trkpt><trkpt lat="32.5266035" lon="-110.5026475"><ele>822.0</ele><time>2026-05-02T15:36:59.338Z</time></trkpt><trkpt lat="32.5268075" lon="-110.5026826"><ele>822.0</ele><time>2026-05-02T15:37:00.337Z</time></trkpt><trkpt lat="32.5270228" lon="-110.5027315"><ele>822.0</ele><time>2026-05-02T15:37:01.337Z</time></trkpt><trkpt lat="32.5272381" lon="-110.5027937"><ele>821.6666666666667</ele><time>2026-05-02T15:37:02.337Z</time></trkpt><trkpt lat="32.5274528" lon="-110.5028593"><ele>821.3333333333334</ele><time>2026-05-02T15:37:03.337Z</time></trkpt><trkpt lat="32.5276681" lon="-110.5029264"><ele>821.0</ele><time>2026-05-02T15:37:04.337Z</time></trkpt><trkpt lat="32.5278761" lon="-110.5030001"><ele>821.6666666666667</ele><time>2026-05-02T15:37:05.336Z</time></trkpt><trkpt lat="32.5280836" lon="-110.5030748"><ele>822.3333333333333</ele><time>2026-05-02T15:37:06.336Z</time></trkpt><trkpt lat="32.5282887" lon="-110.5031559"><ele>823.0</ele><time>2026-05-02T15:37:07.337Z</time></trkpt><trkpt lat="32.5284855" lon="-110.5032451"><ele>823.0</ele><time>2026-05-02T15:37:08.336Z</time></trkpt><trkpt lat="32.5286779" lon="-110.5033374"><ele>823.0</ele><time>2026-05-02T15:37:09.337Z</time></trkpt><trkpt lat="32.528861" lon="-110.5034252"><ele>823.0</ele><time>2026-05-02T15:37:10.336Z</time></trkpt><trkpt lat="32.5290415" lon="-110.5035044"><ele>822.3333333333333</ele><time>2026-05-02T15:37:11.336Z</time></trkpt><trkpt lat="32.529221" lon="-110.50357"><ele>821.6666666666667</ele><time>2026-05-02T15:37:12.338Z</time></trkpt><trkpt lat="32.5294075" lon="-110.5036234"><ele>821.0</ele><time>2026-05-02T15:37:13.337Z</time></trkpt><trkpt lat="32.5296036" lon="-110.5036597"><ele>820.3333333333334</ele><time>2026-05-02T15:37:14.338Z</time></trkpt><trkpt lat="32.5298124" lon="-110.5036938"><ele>819.6666666666667</ele><time>2026-05-02T15:37:15.337Z</time></trkpt><trkpt lat="32.5300278" lon="-110.503728"><ele>819.0</ele><time>2026-05-02T15:37:16.337Z</time></trkpt><trkpt lat="32.5302455" lon="-110.5037639"><ele>819.6666666666667</ele><time>2026-05-02T15:37:17.336Z</time></trkpt><trkpt lat="32.5304589" lon="-110.5037986"><ele>820.3333333333334</ele><time>2026-05-02T15:37:18.336Z</time></trkpt><trkpt lat="32.5306672" lon="-110.5038321"><ele>821.0</ele><time>2026-05-02T15:37:19.338Z</time></trkpt><trkpt lat="32.5308777" lon="-110.5038663"><ele>821.0</ele><time>2026-05-02T15:37:20.338Z</time></trkpt><trkpt lat="32.5310892" lon="-110.5038978"><ele>821.0</ele><time>2026-05-02T15:37:21.338Z</time></trkpt><trkpt lat="32.5312968" lon="-110.5039341"><ele>821.0</ele><time>2026-05-02T15:37:22.338Z</time></trkpt><trkpt lat="32.5315078" lon="-110.5039667"><ele>821.3333333333334</ele><time>2026-05-02T15:37:23.337Z</time></trkpt><trkpt lat="32.5317135" lon="-110.5040009"><ele>821.6666666666667</ele><time>2026-05-02T15:37:24.336Z</time></trkpt><trkpt lat="32.5319239" lon="-110.5040298"><ele>822.0</ele><time>2026-05-02T15:37:25.337Z</time></trkpt><trkpt lat="32.5321369" lon="-110.5040604"><ele>822.3333333333333</ele><time>2026-05-02T15:37:26.338Z</time></trkpt><trkpt lat="32.53235" lon="-110.5040907"><ele>822.6666666666666</ele><time>2026-05-02T15:37:27.337Z</time></trkpt><trkpt lat="32.5325622" lon="-110.5041206"><ele>823.0</ele><time>2026-05-02T15:37:28.338Z</time></trkpt><trkpt lat="32.5327789" lon="-110.504149"><ele>821.6666666666666</ele><time>2026-05-02T15:37:29.337Z</time></trkpt><trkpt lat="32.5329947" lon="-110.5041766"><ele>820.3333333333333</ele><time>2026-05-02T15:37:30.337Z</time></trkpt><trkpt lat="32.5332096" lon="-110.5041999"><ele>819.0</ele><time>2026-05-02T15:37:31.337Z</time></trkpt><trkpt lat="32.5334171" lon="-110.5042233"><ele>819.0</ele><time>2026-05-02T15:37:32.338Z</time></trkpt><trkpt lat="32.5336276" lon="-110.5042411"><ele>819.0</ele><time>2026-05-02T15:37:33.338Z</time></trkpt><trkpt lat="32.5338415" lon="-110.5042537"><ele>819.0</ele><time>2026-05-02T15:37:34.337Z</time></trkpt><trkpt lat="32.5340519" lon="-110.5042667"><ele>819.0</ele><time>2026-05-02T15:37:35.337Z</time></trkpt><trkpt lat="32.5342507" lon="-110.5042783"><ele>819.0</ele><time>2026-05-02T15:37:36.337Z</time></trkpt><trkpt lat="32.5344507" lon="-110.5042893"><ele>819.0</ele><time>2026-05-02T15:37:37.338Z</time></trkpt><trkpt lat="32.5346469" lon="-110.5043014"><ele>819.0</ele><time>2026-05-02T15:37:38.337Z</time></trkpt><trkpt lat="32.5348447" lon="-110.5043153"><ele>819.0</ele><time>2026-05-02T15:37:39.337Z</time></trkpt><trkpt lat="32.535047" lon="-110.5043309"><ele>819.0</ele><time>2026-05-02T15:37:40.337Z</time></trkpt><trkpt lat="32.5352446" lon="-110.5043493"><ele>819.0</ele><time>2026-05-02T15:37:41.338Z</time></trkpt><trkpt lat="32.5354369" lon="-110.5043605"><ele>819.0</ele><time>2026-05-02T15:37:42.337Z</time></trkpt><trkpt lat="32.53563" lon="-110.5043643"><ele>819.0</ele><time>2026-05-02T15:37:43.337Z</time></trkpt><trkpt lat="32.5358252" lon="-110.5043661"><ele>819.0</ele><time>2026-05-02T15:37:44.338Z</time></trkpt><trkpt lat="32.5360168" lon="-110.5043666"><ele>819.0</ele><time>2026-05-02T15:37:45.338Z</time></trkpt><trkpt lat="32.5362053" lon="-110.5043752"><ele>819.0</ele><time>2026-05-02T15:37:46.337Z</time></trkpt><trkpt lat="32.5363989" lon="-110.5044066"><ele>818.3333333333333</ele><time>2026-05-02T15:37:47.337Z</time></trkpt><trkpt lat="32.5366021" lon="-110.5044508"><ele>817.6666666666666</ele><time>2026-05-02T15:37:48.338Z</time></trkpt><trkpt lat="32.5368074" lon="-110.5045047"><ele>817.0</ele><time>2026-05-02T15:37:49.337Z</time></trkpt><trkpt lat="32.5370054" lon="-110.5045581"><ele>818.3333333333333</ele><time>2026-05-02T15:37:50.338Z</time></trkpt><trkpt lat="32.5372071" lon="-110.5046129"><ele>819.6666666666667</ele><time>2026-05-02T15:37:51.337Z</time></trkpt><trkpt lat="32.5374055" lon="-110.5046631"><ele>821.0</ele><time>2026-05-02T15:37:52.338Z</time></trkpt><trkpt lat="32.5376042" lon="-110.5047099"><ele>821.0</ele><time>2026-05-02T15:37:53.338Z</time></trkpt><trkpt lat="32.5377955" lon="-110.5047606"><ele>821.0</ele><time>2026-05-02T15:37:54.337Z</time></trkpt><trkpt lat="32.5379854" lon="-110.5048111"><ele>821.0</ele><time>2026-05-02T15:37:55.338Z</time></trkpt><trkpt lat="32.5381843" lon="-110.504866"><ele>821.0</ele><time>2026-05-02T15:37:56.338Z</time></trkpt><trkpt lat="32.5383856" lon="-110.5049219"><ele>821.0</ele><time>2026-05-02T15:37:57.337Z</time></trkpt><trkpt lat="32.5385839" lon="-110.5049821"><ele>821.0</ele><time>2026-05-02T15:37:58.338Z</time></trkpt><trkpt lat="32.5387841" lon="-110.5050396"><ele>821.0</ele><time>2026-05-02T15:37:59.337Z</time></trkpt><trkpt lat="32.5389799" lon="-110.5050911"><ele>821.0</ele><time>2026-05-02T15:38:00.337Z</time></trkpt><trkpt lat="32.5391701" lon="-110.5051382"><ele>821.0</ele><time>2026-05-02T15:38:01.337Z</time></trkpt><trkpt lat="32.5393596" lon="-110.5051755"><ele>821.0</ele><time>2026-05-02T15:38:02.337Z</time></trkpt><trkpt lat="32.5395491" lon="-110.5052142"><ele>821.0</ele><time>2026-05-02T15:38:03.337Z</time></trkpt><trkpt lat="32.539745" lon="-110.5052471"><ele>821.0</ele><time>2026-05-02T15:38:04.338Z</time></trkpt><trkpt lat="32.5399385" lon="-110.5052748"><ele>821.0</ele><time>2026-05-02T15:38:05.338Z</time></trkpt><trkpt lat="32.5401388" lon="-110.5052988"><ele>821.0</ele><time>2026-05-02T15:38:06.337Z</time></trkpt><trkpt lat="32.5403347" lon="-110.5053252"><ele>821.0</ele><time>2026-05-02T15:38:07.338Z</time></trkpt><trkpt lat="32.5405317" lon="-110.5053462"><ele>820.3333333333334</ele><time>2026-05-02T15:38:08.337Z</time></trkpt><trkpt lat="32.5407252" lon="-110.5053675"><ele>819.6666666666667</ele><time>2026-05-02T15:38:09.338Z</time></trkpt><trkpt lat="32.5409201" lon="-110.5053765"><ele>819.0</ele><time>2026-05-02T15:38:10.337Z</time></trkpt><trkpt lat="32.5411142" lon="-110.5053895"><ele>818.6666666666667</ele><time>2026-05-02T15:38:11.338Z</time></trkpt><trkpt lat="32.5413109" lon="-110.5053907"><ele>818.3333333333334</ele><time>2026-05-02T15:38:12.337Z</time></trkpt><trkpt lat="32.5415047" lon="-110.5053946"><ele>818.0</ele><time>2026-05-02T15:38:13.337Z</time></trkpt><trkpt lat="32.5417001" lon="-110.5053945"><ele>818.0</ele><time>2026-05-02T15:38:14.338Z</time></trkpt><trkpt lat="32.5418977" lon="-110.5053935"><ele>818.0</ele><time>2026-05-02T15:38:15.338Z</time></trkpt><trkpt lat="32.5420951" lon="-110.5053899"><ele>818.0</ele><time>2026-05-02T15:38:16.338Z</time></trkpt><trkpt lat="32.5422901" lon="-110.5053913"><ele>818.0</ele><time>2026-05-02T15:38:17.338Z</time></trkpt><trkpt lat="32.5424848" lon="-110.5053929"><ele>818.0</ele><time>2026-05-02T15:38:18.337Z</time></trkpt><trkpt lat="32.5426789" lon="-110.5053956"><ele>818.0</ele><time>2026-05-02T15:38:19.337Z</time></trkpt><trkpt lat="32.5428678" lon="-110.5053985"><ele>819.0</ele><time>2026-05-02T15:38:20.337Z</time></trkpt><trkpt lat="32.5430501" lon="-110.5054052"><ele>820.0</ele><time>2026-05-02T15:38:21.337Z</time></trkpt><trkpt lat="32.543229" lon="-110.5054191"><ele>821.0</ele><time>2026-05-02T15:38:22.338Z</time></trkpt><trkpt lat="32.54341" lon="-110.5054333"><ele>821.6666666666667</ele><time>2026-05-02T15:38:23.337Z</time></trkpt><trkpt lat="32.5435948" lon="-110.5054506"><ele>822.3333333333333</ele><time>2026-05-02T15:38:24.338Z</time></trkpt><trkpt lat="32.5437895" lon="-110.5054674"><ele>823.0</ele><time>2026-05-02T15:38:25.337Z</time></trkpt><trkpt lat="32.5439852" lon="-110.5054943"><ele>823.3333333333333</ele><time>2026-05-02T15:38:26.337Z</time></trkpt><trkpt lat="32.544185" lon="-110.5055196"><ele>823.6666666666667</ele><time>2026-05-02T15:38:27.337Z</time></trkpt><trkpt lat="32.5443852" lon="-110.5055561"><ele>824.0</ele><time>2026-05-02T15:38:28.337Z</time></trkpt><trkpt lat="32.5445899" lon="-110.5055948"><ele>824.0</ele><time>2026-05-02T15:38:29.337Z</time></trkpt><trkpt lat="32.5447946" lon="-110.5056295"><ele>824.0</ele><time>2026-05-02T15:38:30.337Z</time></trkpt><trkpt lat="32.5449966" lon="-110.5056607"><ele>824.0</ele><time>2026-05-02T15:38:31.337Z</time></trkpt><trkpt lat="32.5452008" lon="-110.5056892"><ele>821.6666666666667</ele><time>2026-05-02T15:38:32.338Z</time></trkpt><trkpt lat="32.5454035" lon="-110.5057152"><ele>819.3333333333333</ele><time>2026-05-02T15:38:33.337Z</time></trkpt><trkpt lat="32.545597" lon="-110.505754"><ele>817.0</ele><time>2026-05-02T15:38:34.339Z</time></trkpt><trkpt lat="32.5457878" lon="-110.5058077"><ele>817.0</ele><time>2026-05-02T15:38:35.338Z</time></trkpt><trkpt lat="32.5459816" lon="-110.5058797"><ele>817.0</ele><time>2026-05-02T15:38:36.337Z</time></trkpt><trkpt lat="32.5461746" lon="-110.50596"><ele>817.0</ele><time>2026-05-02T15:38:37.337Z</time></trkpt><trkpt lat="32.5463746" lon="-110.5060626"><ele>816.6666666666666</ele><time>2026-05-02T15:38:38.338Z</time></trkpt><trkpt lat="32.5465725" lon="-110.5061698"><ele>816.3333333333333</ele><time>2026-05-02T15:38:39.338Z</time></trkpt><trkpt lat="32.5467642" lon="-110.5062783"><ele>816.0</ele><time>2026-05-02T15:38:40.339Z</time></trkpt><trkpt lat="32.546956" lon="-110.5063907"><ele>814.6666666666667</ele><time>2026-05-02T15:38:41.338Z</time></trkpt><trkpt lat="32.5471456" lon="-110.5065076"><ele>813.3333333333334</ele><time>2026-05-02T15:38:42.338Z</time></trkpt><trkpt lat="32.5473405" lon="-110.5066366"><ele>812.0</ele><time>2026-05-02T15:38:43.339Z</time></trkpt><trkpt lat="32.5475261" lon="-110.5067697"><ele>812.0</ele><time>2026-05-02T15:38:44.338Z</time></trkpt><trkpt lat="32.5477072" lon="-110.5069171"><ele>812.0</ele><time>2026-05-02T15:38:45.338Z</time></trkpt><trkpt lat="32.5478883" lon="-110.507069"><ele>812.0</ele><time>2026-05-02T15:38:46.339Z</time></trkpt><trkpt lat="32.5480623" lon="-110.5072304"><ele>812.3333333333334</ele><time>2026-05-02T15:38:47.338Z</time></trkpt><trkpt lat="32.5482298" lon="-110.5073942"><ele>812.6666666666667</ele><time>2026-05-02T15:38:48.337Z</time></trkpt><trkpt lat="32.5483971" lon="-110.5075593"><ele>813.0</ele><time>2026-05-02T15:38:49.338Z</time></trkpt><trkpt lat="32.5485686" lon="-110.5077241"><ele>812.3333333333333</ele><time>2026-05-02T15:38:50.339Z</time></trkpt><trkpt lat="32.5487433" lon="-110.5078905"><ele>811.6666666666666</ele><time>2026-05-02T15:38:51.339Z</time></trkpt><trkpt lat="32.5489093" lon="-110.5080607"><ele>811.0</ele><time>2026-05-02T15:38:52.339Z</time></trkpt><trkpt lat="32.5490699" lon="-110.5082276"><ele>811.0</ele><time>2026-05-02T15:38:53.339Z</time></trkpt><trkpt lat="32.5492322" lon="-110.5083972"><ele>811.0</ele><time>2026-05-02T15:38:54.338Z</time></trkpt><trkpt lat="32.5493917" lon="-110.5085691"><ele>811.0</ele><time>2026-05-02T15:38:55.337Z</time></trkpt><trkpt lat="32.549552" lon="-110.5087407"><ele>810.3333333333333</ele><time>2026-05-02T15:38:56.339Z</time></trkpt><trkpt lat="32.5497159" lon="-110.5089105"><ele>809.6666666666667</ele><time>2026-05-02T15:38:57.339Z</time></trkpt><trkpt lat="32.5498766" lon="-110.5090793"><ele>809.0</ele><time>2026-05-02T15:38:58.339Z</time></trkpt><trkpt lat="32.5500358" lon="-110.5092486"><ele>809.0</ele><time>2026-05-02T15:38:59.339Z</time></trkpt><trkpt lat="32.550195" lon="-110.5094178"><ele>809.0</ele><time>2026-05-02T15:39:00.337Z</time></trkpt><trkpt lat="32.5503558" lon="-110.5095897"><ele>809.0</ele><time>2026-05-02T15:39:01.34Z</time></trkpt><trkpt lat="32.5505156" lon="-110.5097621"><ele>808.6666666666667</ele><time>2026-05-02T15:39:02.337Z</time></trkpt><trkpt lat="32.5506729" lon="-110.5099342"><ele>808.3333333333333</ele><time>2026-05-02T15:39:03.339Z</time></trkpt><trkpt lat="32.5508337" lon="-110.5101045"><ele>808.0</ele><time>2026-05-02T15:39:04.338Z</time></trkpt><trkpt lat="32.5509901" lon="-110.51027"><ele>809.0</ele><time>2026-05-02T15:39:05.337Z</time></trkpt><trkpt lat="32.5511513" lon="-110.5104354"><ele>810.0</ele><time>2026-05-02T15:39:06.338Z</time></trkpt><trkpt lat="32.5513085" lon="-110.5106004"><ele>811.0</ele><time>2026-05-02T15:39:07.338Z</time></trkpt><trkpt lat="32.5514665" lon="-110.5107731"><ele>811.0</ele><time>2026-05-02T15:39:08.338Z</time></trkpt><trkpt lat="32.5516243" lon="-110.5109451"><ele>811.0</ele><time>2026-05-02T15:39:09.337Z</time></trkpt><trkpt lat="32.5517791" lon="-110.5111146"><ele>811.0</ele><time>2026-05-02T15:39:10.338Z</time></trkpt><trkpt lat="32.5519331" lon="-110.5112877"><ele>811.0</ele><time>2026-05-02T15:39:11.339Z</time></trkpt><trkpt lat="32.5520878" lon="-110.5114608"><ele>811.0</ele><time>2026-05-02T15:39:12.338Z</time></trkpt><trkpt lat="32.5522432" lon="-110.5116309"><ele>811.0</ele><time>2026-05-02T15:39:13.339Z</time></trkpt><trkpt lat="32.5524005" lon="-110.5118007"><ele>811.0</ele><time>2026-05-02T15:39:14.339Z</time></trkpt><trkpt lat="32.5525531" lon="-110.511972"><ele>811.0</ele><time>2026-05-02T15:39:15.339Z</time></trkpt><trkpt lat="32.5527093" lon="-110.5121438"><ele>811.0</ele><time>2026-05-02T15:39:16.338Z</time></trkpt><trkpt lat="32.5528648" lon="-110.5123163"><ele>811.3333333333333</ele><time>2026-05-02T15:39:17.338Z</time></trkpt><trkpt lat="32.5530225" lon="-110.5124855"><ele>811.6666666666667</ele><time>2026-05-02T15:39:18.339Z</time></trkpt><trkpt lat="32.5531793" lon="-110.512655"><ele>812.0</ele><time>2026-05-02T15:39:19.338Z</time></trkpt><trkpt lat="32.55334" lon="-110.5128244"><ele>812.3333333333334</ele><time>2026-05-02T15:39:20.339Z</time></trkpt><trkpt lat="32.5534994" lon="-110.5129981"><ele>812.6666666666667</ele><time>2026-05-02T15:39:21.338Z</time></trkpt><trkpt lat="32.5536639" lon="-110.5131717"><ele>813.0</ele><time>2026-05-02T15:39:22.339Z</time></trkpt><trkpt lat="32.5538234" lon="-110.5133454"><ele>813.0</ele><time>2026-05-02T15:39:23.338Z</time></trkpt><trkpt lat="32.5539899" lon="-110.5135153"><ele>813.0</ele><time>2026-05-02T15:39:24.339Z</time></trkpt><trkpt lat="32.5541514" lon="-110.5136867"><ele>813.0</ele><time>2026-05-02T15:39:25.338Z</time></trkpt><trkpt lat="32.5543174" lon="-110.5138492"><ele>813.3333333333333</ele><time>2026-05-02T15:39:26.338Z</time></trkpt><trkpt lat="32.5544908" lon="-110.5140062"><ele>813.6666666666666</ele><time>2026-05-02T15:39:27.338Z</time></trkpt><trkpt lat="32.5546658" lon="-110.5141571"><ele>814.0</ele><time>2026-05-02T15:39:28.338Z</time></trkpt><trkpt lat="32.5548492" lon="-110.514292"><ele>814.0</ele><time>2026-05-02T15:39:29.338Z</time></trkpt><trkpt lat="32.5550288" lon="-110.5144267"><ele>814.0</ele><time>2026-05-02T15:39:30.339Z</time></trkpt><trkpt lat="32.5552129" lon="-110.5145574"><ele>814.0</ele><time>2026-05-02T15:39:31.338Z</time></trkpt><trkpt lat="32.5554016" lon="-110.5146907"><ele>815.0</ele><time>2026-05-02T15:39:32.339Z</time></trkpt><trkpt lat="32.5555853" lon="-110.5148183"><ele>816.0</ele><time>2026-05-02T15:39:33.338Z</time></trkpt><trkpt lat="32.5557713" lon="-110.5149483"><ele>817.0</ele><time>2026-05-02T15:39:34.338Z</time></trkpt><trkpt lat="32.5559569" lon="-110.5150801"><ele>817.0</ele><time>2026-05-02T15:39:35.338Z</time></trkpt><trkpt lat="32.5561439" lon="-110.5151999"><ele>817.0</ele><time>2026-05-02T15:39:36.339Z</time></trkpt><trkpt lat="32.556338" lon="-110.5153076"><ele>817.0</ele><time>2026-05-02T15:39:37.338Z</time></trkpt><trkpt lat="32.5565343" lon="-110.5153959"><ele>816.6666666666666</ele><time>2026-05-02T15:39:38.339Z</time></trkpt><trkpt lat="32.5567372" lon="-110.5154647"><ele>816.3333333333333</ele><time>2026-05-02T15:39:39.339Z</time></trkpt><trkpt lat="32.5569449" lon="-110.5155149"><ele>816.0</ele><time>2026-05-02T15:39:40.339Z</time></trkpt><trkpt lat="32.5571559" lon="-110.5155575"><ele>817.0</ele><time>2026-05-02T15:39:41.338Z</time></trkpt><trkpt lat="32.5573661" lon="-110.5155959"><ele>818.0</ele><time>2026-05-02T15:39:42.338Z</time></trkpt><trkpt lat="32.557581" lon="-110.5156316"><ele>819.0</ele><time>2026-05-02T15:39:43.338Z</time></trkpt><trkpt lat="32.5577937" lon="-110.5156606"><ele>819.3333333333333</ele><time>2026-05-02T15:39:44.339Z</time></trkpt><trkpt lat="32.5580045" lon="-110.5156842"><ele>819.6666666666666</ele><time>2026-05-02T15:39:45.339Z</time></trkpt><trkpt lat="32.5582153" lon="-110.5156971"><ele>820.0</ele><time>2026-05-02T15:39:46.339Z</time></trkpt><trkpt lat="32.5584236" lon="-110.5157042"><ele>820.0</ele><time>2026-05-02T15:39:47.338Z</time></trkpt><trkpt lat="32.558637" lon="-110.5157074"><ele>820.0</ele><time>2026-05-02T15:39:48.339Z</time></trkpt><trkpt lat="32.5588547" lon="-110.5157105"><ele>820.0</ele><time>2026-05-02T15:39:49.339Z</time></trkpt><trkpt lat="32.5590734" lon="-110.5157203"><ele>820.0</ele><time>2026-05-02T15:39:50.339Z</time></trkpt><trkpt lat="32.5592891" lon="-110.5157378"><ele>820.0</ele><time>2026-05-02T15:39:51.338Z</time></trkpt><trkpt lat="32.5595025" lon="-110.5157559"><ele>820.0</ele><time>2026-05-02T15:39:52.339Z</time></trkpt><trkpt lat="32.5597159" lon="-110.5157748"><ele>819.0</ele><time>2026-05-02T15:39:53.338Z</time></trkpt><trkpt lat="32.5599258" lon="-110.5157995"><ele>818.0</ele><time>2026-05-02T15:39:54.339Z</time></trkpt><trkpt lat="32.5601305" lon="-110.5158222"><ele>817.0</ele><time>2026-05-02T15:39:55.339Z</time></trkpt><trkpt lat="32.5603372" lon="-110.5158471"><ele>817.0</ele><time>2026-05-02T15:39:56.338Z</time></trkpt><trkpt lat="32.560545" lon="-110.51587"><ele>817.0</ele><time>2026-05-02T15:39:57.338Z</time></trkpt><trkpt lat="32.5607498" lon="-110.5158918"><ele>817.0</ele><time>2026-05-02T15:39:58.339Z</time></trkpt><trkpt lat="32.5609506" lon="-110.5159122"><ele>817.0</ele><time>2026-05-02T15:39:59.338Z</time></trkpt><trkpt lat="32.5611499" lon="-110.5159277"><ele>817.0</ele><time>2026-05-02T15:40:00.338Z</time></trkpt><trkpt lat="32.5613398" lon="-110.5159363"><ele>817.0</ele><time>2026-05-02T15:40:01.338Z</time></trkpt><trkpt lat="32.561529" lon="-110.5159586"><ele>818.0</ele><time>2026-05-02T15:40:02.339Z</time></trkpt><trkpt lat="32.5617138" lon="-110.5159895"><ele>819.0</ele><time>2026-05-02T15:40:03.339Z</time></trkpt><trkpt lat="32.561905" lon="-110.5160231"><ele>820.0</ele><time>2026-05-02T15:40:04.339Z</time></trkpt><trkpt lat="32.5621004" lon="-110.5160584"><ele>818.0</ele><time>2026-05-02T15:40:05.338Z</time></trkpt><trkpt lat="32.5623029" lon="-110.5160904"><ele>816.0</ele><time>2026-05-02T15:40:06.339Z</time></trkpt><trkpt lat="32.5625078" lon="-110.516115"><ele>814.0</ele><time>2026-05-02T15:40:07.339Z</time></trkpt><trkpt lat="32.5627123" lon="-110.516139"><ele>814.0</ele><time>2026-05-02T15:40:08.339Z</time></trkpt><trkpt lat="32.5629234" lon="-110.5161721"><ele>814.0</ele><time>2026-05-02T15:40:09.339Z</time></trkpt><trkpt lat="32.563138" lon="-110.5162168"><ele>814.0</ele><time>2026-05-02T15:40:10.338Z</time></trkpt><trkpt lat="32.5633579" lon="-110.5162755"><ele>814.0</ele><time>2026-05-02T15:40:11.339Z</time></trkpt><trkpt lat="32.5635773" lon="-110.5163464"><ele>814.0</ele><time>2026-05-02T15:40:12.339Z</time></trkpt><trkpt lat="32.5637989" lon="-110.5164207"><ele>812.0</ele><time>2026-05-02T15:40:13.338Z</time></trkpt><trkpt lat="32.5640231" lon="-110.5164942"><ele>810.0</ele><time>2026-05-02T15:40:14.339Z</time></trkpt><trkpt lat="32.5642458" lon="-110.5165718"><ele>810.0</ele><time>2026-05-02T15:40:15.339Z</time></trkpt><trkpt lat="32.5644664" lon="-110.5166526"><ele>810.0</ele><time>2026-05-02T15:40:16.339Z</time></trkpt><trkpt lat="32.5646808" lon="-110.5167339"><ele>809.5</ele><time>2026-05-02T15:40:17.338Z</time></trkpt><trkpt lat="32.5648982" lon="-110.5168199"><ele>809.0</ele><time>2026-05-02T15:40:18.339Z</time></trkpt><trkpt lat="32.5651141" lon="-110.5169081"><ele>809.0</ele><time>2026-05-02T15:40:19.339Z</time></trkpt><trkpt lat="32.5653301" lon="-110.5169932"><ele>809.0</ele><time>2026-05-02T15:40:20.339Z</time></trkpt><trkpt lat="32.5655447" lon="-110.5170787"><ele>809.3333333333334</ele><time>2026-05-02T15:40:21.338Z</time></trkpt><trkpt lat="32.5657535" lon="-110.5171595"><ele>809.6666666666667</ele><time>2026-05-02T15:40:22.339Z</time></trkpt><trkpt lat="32.5659663" lon="-110.5172369"><ele>810.0</ele><time>2026-05-02T15:40:23.338Z</time></trkpt><trkpt lat="32.5661791" lon="-110.5173162"><ele>808.0</ele><time>2026-05-02T15:40:24.338Z</time></trkpt><trkpt lat="32.5663936" lon="-110.5174006"><ele>806.0</ele><time>2026-05-02T15:40:25.339Z</time></trkpt><trkpt lat="32.5666069" lon="-110.5174889"><ele>806.0</ele><time>2026-05-02T15:40:26.339Z</time></trkpt><trkpt lat="32.5668127" lon="-110.5175786"><ele>806.0</ele><time>2026-05-02T15:40:27.339Z</time></trkpt><trkpt lat="32.5670214" lon="-110.5176725"><ele>806.0</ele><time>2026-05-02T15:40:28.34Z</time></trkpt><trkpt lat="32.5672262" lon="-110.5177676"><ele>805.0</ele><time>2026-05-02T15:40:29.34Z</time></trkpt><trkpt lat="32.5674322" lon="-110.5178704"><ele>804.0</ele><time>2026-05-02T15:40:30.339Z</time></trkpt><trkpt lat="32.56764" lon="-110.5179861"><ele>805.5</ele><time>2026-05-02T15:40:31.338Z</time></trkpt><trkpt lat="32.5678391" lon="-110.5181032"><ele>807.0</ele><time>2026-05-02T15:40:32.338Z</time></trkpt><trkpt lat="32.5680451" lon="-110.5182275"><ele>807.0</ele><time>2026-05-02T15:40:33.338Z</time></trkpt><trkpt lat="32.5682527" lon="-110.5183418"><ele>807.0</ele><time>2026-05-02T15:40:34.34Z</time></trkpt><trkpt lat="32.5684635" lon="-110.5184436"><ele>807.0</ele><time>2026-05-02T15:40:35.339Z</time></trkpt><trkpt lat="32.5686763" lon="-110.5185457"><ele>807.0</ele><time>2026-05-02T15:40:36.339Z</time></trkpt><trkpt lat="32.5688875" lon="-110.5186422"><ele>807.5</ele><time>2026-05-02T15:40:37.34Z</time></trkpt><trkpt lat="32.5690971" lon="-110.5187415"><ele>808.0</ele><time>2026-05-02T15:40:38.34Z</time></trkpt><trkpt lat="32.5693058" lon="-110.5188442"><ele>808.0</ele><time>2026-05-02T15:40:39.339Z</time></trkpt><trkpt lat="32.5695162" lon="-110.5189503"><ele>808.0</ele><time>2026-05-02T15:40:40.339Z</time></trkpt><trkpt lat="32.5697233" lon="-110.5190561"><ele>807.0</ele><time>2026-05-02T15:40:41.339Z</time></trkpt><trkpt lat="32.569933" lon="-110.5191641"><ele>806.0</ele><time>2026-05-02T15:40:42.338Z</time></trkpt><trkpt lat="32.5701479" lon="-110.5192785"><ele>805.5</ele><time>2026-05-02T15:40:43.339Z</time></trkpt><trkpt lat="32.5703634" lon="-110.5193929"><ele>805.0</ele><time>2026-05-02T15:40:44.339Z</time></trkpt><trkpt lat="32.5705822" lon="-110.5195065"><ele>808.5</ele><time>2026-05-02T15:40:45.338Z</time></trkpt><trkpt lat="32.5707988" lon="-110.5196136"><ele>812.0</ele><time>2026-05-02T15:40:46.339Z</time></trkpt><trkpt lat="32.5710174" lon="-110.5197155"><ele>809.0</ele><time>2026-05-02T15:40:47.339Z</time></trkpt><trkpt lat="32.5712303" lon="-110.5198221"><ele>806.0</ele><time>2026-05-02T15:40:48.34Z</time></trkpt><trkpt lat="32.5714461" lon="-110.5199217"><ele>806.0</ele><time>2026-05-02T15:40:49.339Z</time></trkpt><trkpt lat="32.5716636" lon="-110.5200126"><ele>806.0</ele><time>2026-05-02T15:40:50.339Z</time></trkpt><trkpt lat="32.5718806" lon="-110.5201035"><ele>804.5</ele><time>2026-05-02T15:40:51.34Z</time></trkpt><trkpt lat="32.572093" lon="-110.5201996"><ele>803.0</ele><time>2026-05-02T15:40:52.339Z</time></trkpt><trkpt lat="32.5723107" lon="-110.5202912"><ele>803.0</ele><time>2026-05-02T15:40:53.339Z</time></trkpt><trkpt lat="32.5725208" lon="-110.5203894"><ele>803.0</ele><time>2026-05-02T15:40:54.339Z</time></trkpt><trkpt lat="32.5727347" lon="-110.5204921"><ele>804.0</ele><time>2026-05-02T15:40:55.34Z</time></trkpt><trkpt lat="32.5729434" lon="-110.5206002"><ele>805.0</ele><time>2026-05-02T15:40:56.34Z</time></trkpt><trkpt lat="32.5731533" lon="-110.5207166"><ele>805.0</ele><time>2026-05-02T15:40:57.339Z</time></trkpt><trkpt lat="32.5733596" lon="-110.5208305"><ele>805.0</ele><time>2026-05-02T15:40:58.34Z</time></trkpt><trkpt lat="32.5735657" lon="-110.5209404"><ele>803.5</ele><time>2026-05-02T15:40:59.339Z</time></trkpt><trkpt lat="32.5737703" lon="-110.5210532"><ele>802.0</ele><time>2026-05-02T15:41:00.339Z</time></trkpt><trkpt lat="32.5739768" lon="-110.5211646"><ele>806.0</ele><time>2026-05-02T15:41:01.339Z</time></trkpt><trkpt lat="32.574184" lon="-110.5212845"><ele>810.0</ele><time>2026-05-02T15:41:02.339Z</time></trkpt><trkpt lat="32.5743895" lon="-110.5214131"><ele>808.0</ele><time>2026-05-02T15:41:03.34Z</time></trkpt><trkpt lat="32.5745771" lon="-110.5215452"><ele>806.0</ele><time>2026-05-02T15:41:04.339Z</time></trkpt><trkpt lat="32.5747475" lon="-110.5216764"><ele>804.0</ele><time>2026-05-02T15:41:05.34Z</time></trkpt><trkpt lat="32.5749059" lon="-110.5218137"><ele>804.0</ele><time>2026-05-02T15:41:06.339Z</time></trkpt><trkpt lat="32.5750502" lon="-110.5219484"><ele>804.0</ele><time>2026-05-02T15:41:07.339Z</time></trkpt><trkpt lat="32.5751881" lon="-110.5220781"><ele>804.0</ele><time>2026-05-02T15:41:08.34Z</time></trkpt><trkpt lat="32.5753184" lon="-110.5222005"><ele>805.0</ele><time>2026-05-02T15:41:09.339Z</time></trkpt><trkpt lat="32.5754487" lon="-110.5223156"><ele>806.0</ele><time>2026-05-02T15:41:10.34Z</time></trkpt><trkpt lat="32.5755754" lon="-110.522425"><ele>807.0</ele><time>2026-05-02T15:41:11.339Z</time></trkpt><trkpt lat="32.575702" lon="-110.522534"><ele>807.0</ele><time>2026-05-02T15:41:12.34Z</time></trkpt><trkpt lat="32.5758293" lon="-110.522643"><ele>807.0</ele><time>2026-05-02T15:41:13.34Z</time></trkpt><trkpt lat="32.5759603" lon="-110.5227532"><ele>807.0</ele><time>2026-05-02T15:41:14.339Z</time></trkpt><trkpt lat="32.5760888" lon="-110.5228584"><ele>806.3333333333333</ele><time>2026-05-02T15:41:15.34Z</time></trkpt><trkpt lat="32.5762156" lon="-110.5229605"><ele>805.6666666666666</ele><time>2026-05-02T15:41:16.339Z</time></trkpt><trkpt lat="32.5763413" lon="-110.5230579"><ele>805.0</ele><time>2026-05-02T15:41:17.339Z</time></trkpt><trkpt lat="32.5764682" lon="-110.5231526"><ele>805.0</ele><time>2026-05-02T15:41:18.34Z</time></trkpt><trkpt lat="32.5765958" lon="-110.5232485"><ele>805.0</ele><time>2026-05-02T15:41:19.339Z</time></trkpt><trkpt lat="32.5767227" lon="-110.5233415"><ele>805.0</ele><time>2026-05-02T15:41:20.34Z</time></trkpt><trkpt lat="32.5768613" lon="-110.5234331"><ele>805.0</ele><time>2026-05-02T15:41:21.339Z</time></trkpt><trkpt lat="32.5770153" lon="-110.5235228"><ele>805.0</ele><time>2026-05-02T15:41:22.339Z</time></trkpt><trkpt lat="32.577188" lon="-110.5236104"><ele>805.0</ele><time>2026-05-02T15:41:23.34Z</time></trkpt><trkpt lat="32.5773705" lon="-110.5237067"><ele>805.0</ele><time>2026-05-02T15:41:24.34Z</time></trkpt><trkpt lat="32.5775608" lon="-110.5237998"><ele>805.0</ele><time>2026-05-02T15:41:25.339Z</time></trkpt><trkpt lat="32.5777696" lon="-110.5238999"><ele>805.0</ele><time>2026-05-02T15:41:26.34Z</time></trkpt><trkpt lat="32.5779815" lon="-110.5240155"><ele>805.0</ele><time>2026-05-02T15:41:27.339Z</time></trkpt><trkpt lat="32.5781909" lon="-110.524138"><ele>805.0</ele><time>2026-05-02T15:41:28.339Z</time></trkpt><trkpt lat="32.5783984" lon="-110.5242702"><ele>805.0</ele><time>2026-05-02T15:41:29.339Z</time></trkpt><trkpt lat="32.5786022" lon="-110.5244102"><ele>805.0</ele><time>2026-05-02T15:41:30.339Z</time></trkpt><trkpt lat="32.5788116" lon="-110.5245514"><ele>803.0</ele><time>2026-05-02T15:41:31.339Z</time></trkpt><trkpt lat="32.5790188" lon="-110.5246916"><ele>801.0</ele><time>2026-05-02T15:41:32.339Z</time></trkpt><trkpt lat="32.5792245" lon="-110.5248335"><ele>801.0</ele><time>2026-05-02T15:41:33.339Z</time></trkpt><trkpt lat="32.5794351" lon="-110.5249721"><ele>801.0</ele><time>2026-05-02T15:41:34.34Z</time></trkpt><trkpt lat="32.57964" lon="-110.5251089"><ele>800.5</ele><time>2026-05-02T15:41:35.339Z</time></trkpt><trkpt lat="32.5798461" lon="-110.5252484"><ele>800.0</ele><time>2026-05-02T15:41:36.339Z</time></trkpt><trkpt lat="32.5800606" lon="-110.5253958"><ele>800.0</ele><time>2026-05-02T15:41:37.339Z</time></trkpt><trkpt lat="32.580272" lon="-110.5255394"><ele>800.0</ele><time>2026-05-02T15:41:38.34Z</time></trkpt><trkpt lat="32.5804833" lon="-110.5256801"><ele>799.0</ele><time>2026-05-02T15:41:39.34Z</time></trkpt><trkpt lat="32.5806883" lon="-110.5258301"><ele>798.0</ele><time>2026-05-02T15:41:40.339Z</time></trkpt><trkpt lat="32.580889" lon="-110.5259853"><ele>798.0</ele><time>2026-05-02T15:41:41.339Z</time></trkpt><trkpt lat="32.5810898" lon="-110.5261507"><ele>798.0</ele><time>2026-05-02T15:41:42.339Z</time></trkpt><trkpt lat="32.581292" lon="-110.5263325"><ele>798.0</ele><time>2026-05-02T15:41:43.339Z</time></trkpt><trkpt lat="32.5814871" lon="-110.5265216"><ele>798.0</ele><time>2026-05-02T15:41:44.339Z</time></trkpt><trkpt lat="32.5816849" lon="-110.5267155"><ele>798.0</ele><time>2026-05-02T15:41:45.339Z</time></trkpt><trkpt lat="32.5818823" lon="-110.5269086"><ele>798.0</ele><time>2026-05-02T15:41:46.34Z</time></trkpt><trkpt lat="32.5820755" lon="-110.5271044"><ele>798.0</ele><time>2026-05-02T15:41:47.341Z</time></trkpt><trkpt lat="32.5822679" lon="-110.527292"><ele>798.0</ele><time>2026-05-02T15:41:48.34Z</time></trkpt><trkpt lat="32.5824575" lon="-110.5274848"><ele>798.0</ele><time>2026-05-02T15:41:49.339Z</time></trkpt><trkpt lat="32.5826483" lon="-110.527671"><ele>798.0</ele><time>2026-05-02T15:41:50.339Z</time></trkpt><trkpt lat="32.5828375" lon="-110.5278556"><ele>799.5</ele><time>2026-05-02T15:41:51.339Z</time></trkpt><trkpt lat="32.5830337" lon="-110.5280383"><ele>801.0</ele><time>2026-05-02T15:41:52.34Z</time></trkpt><trkpt lat="32.5832362" lon="-110.5282314"><ele>801.0</ele><time>2026-05-02T15:41:53.34Z</time></trkpt><trkpt lat="32.5834342" lon="-110.5284301"><ele>801.0</ele><time>2026-05-02T15:41:54.339Z</time></trkpt><trkpt lat="32.5836334" lon="-110.5286268"><ele>799.5</ele><time>2026-05-02T15:41:55.339Z</time></trkpt><trkpt lat="32.5838291" lon="-110.5288175"><ele>798.0</ele><time>2026-05-02T15:41:56.339Z</time></trkpt><trkpt lat="32.5840217" lon="-110.5289991"><ele>798.0</ele><time>2026-05-02T15:41:57.339Z</time></trkpt><trkpt lat="32.5842131" lon="-110.5291814"><ele>798.0</ele><time>2026-05-02T15:41:58.34Z</time></trkpt><trkpt lat="32.5844001" lon="-110.5293535"><ele>797.5</ele><time>2026-05-02T15:41:59.341Z</time></trkpt><trkpt lat="32.5845797" lon="-110.5295292"><ele>797.0</ele><time>2026-05-02T15:42:00.34Z</time></trkpt><trkpt lat="32.5847564" lon="-110.5297006"><ele>797.0</ele><time>2026-05-02T15:42:01.339Z</time></trkpt><trkpt lat="32.5849335" lon="-110.5298674"><ele>797.0</ele><time>2026-05-02T15:42:02.34Z</time></trkpt><trkpt lat="32.585109" lon="-110.530033"><ele>797.0</ele><time>2026-05-02T15:42:03.341Z</time></trkpt><trkpt lat="32.5852821" lon="-110.5301928"><ele>797.0</ele><time>2026-05-02T15:42:04.341Z</time></trkpt><trkpt lat="32.5854591" lon="-110.5303537"><ele>797.0</ele><time>2026-05-02T15:42:05.341Z</time></trkpt><trkpt lat="32.5856376" lon="-110.5305057"><ele>798.6666666666667</ele><time>2026-05-02T15:42:06.341Z</time></trkpt><trkpt lat="32.5858155" lon="-110.5306457"><ele>800.3333333333333</ele><time>2026-05-02T15:42:07.341Z</time></trkpt><trkpt lat="32.5859976" lon="-110.5307742"><ele>802.0</ele><time>2026-05-02T15:42:08.339Z</time></trkpt><trkpt lat="32.5861896" lon="-110.5308976"><ele>802.0</ele><time>2026-05-02T15:42:09.34Z</time></trkpt><trkpt lat="32.586389" lon="-110.5310203"><ele>802.0</ele><time>2026-05-02T15:42:10.34Z</time></trkpt><trkpt lat="32.5865793" lon="-110.5311402"><ele>802.0</ele><time>2026-05-02T15:42:11.34Z</time></trkpt><trkpt lat="32.5867697" lon="-110.5312593"><ele>802.0</ele><time>2026-05-02T15:42:12.339Z</time></trkpt><trkpt lat="32.5869467" lon="-110.5313778"><ele>802.0</ele><time>2026-05-02T15:42:13.34Z</time></trkpt><trkpt lat="32.5871116" lon="-110.5315005"><ele>802.0</ele><time>2026-05-02T15:42:14.34Z</time></trkpt><trkpt lat="32.5872706" lon="-110.5316326"><ele>802.0</ele><time>2026-05-02T15:42:15.34Z</time></trkpt><trkpt lat="32.5874193" lon="-110.5317889"><ele>802.0</ele><time>2026-05-02T15:42:16.34Z</time></trkpt><trkpt lat="32.5875539" lon="-110.5319613"><ele>802.0</ele><time>2026-05-02T15:42:17.34Z</time></trkpt><trkpt lat="32.5876782" lon="-110.5321512"><ele>802.3333333333333</ele><time>2026-05-02T15:42:18.339Z</time></trkpt><trkpt lat="32.5877904" lon="-110.5323498"><ele>802.6666666666667</ele><time>2026-05-02T15:42:19.34Z</time></trkpt><trkpt lat="32.5878929" lon="-110.5325539"><ele>803.0</ele><time>2026-05-02T15:42:20.34Z</time></trkpt><trkpt lat="32.5879881" lon="-110.5327633"><ele>803.3333333333334</ele><time>2026-05-02T15:42:21.34Z</time></trkpt><trkpt lat="32.5880729" lon="-110.532972"><ele>803.6666666666667</ele><time>2026-05-02T15:42:22.341Z</time></trkpt><trkpt lat="32.5881431" lon="-110.5331705"><ele>804.0</ele><time>2026-05-02T15:42:23.339Z</time></trkpt><trkpt lat="32.5881955" lon="-110.5333586"><ele>804.0</ele><time>2026-05-02T15:42:24.339Z</time></trkpt><trkpt lat="32.588228" lon="-110.5335383"><ele>804.0</ele><time>2026-05-02T15:42:25.339Z</time></trkpt><trkpt lat="32.5882358" lon="-110.5337257"><ele>804.0</ele><time>2026-05-02T15:42:26.34Z</time></trkpt><trkpt lat="32.5882242" lon="-110.5339239"><ele>805.0</ele><time>2026-05-02T15:42:27.34Z</time></trkpt><trkpt lat="32.5881988" lon="-110.5341361"><ele>806.0</ele><time>2026-05-02T15:42:28.34Z</time></trkpt><trkpt lat="32.5881643" lon="-110.5343558"><ele>807.0</ele><time>2026-05-02T15:42:29.341Z</time></trkpt><trkpt lat="32.5881286" lon="-110.5345755"><ele>809.6666666666667</ele><time>2026-05-02T15:42:30.34Z</time></trkpt><trkpt lat="32.5880894" lon="-110.5347905"><ele>812.3333333333334</ele><time>2026-05-02T15:42:31.34Z</time></trkpt><trkpt lat="32.5880395" lon="-110.5350089"><ele>815.0</ele><time>2026-05-02T15:42:32.34Z</time></trkpt><trkpt lat="32.5879801" lon="-110.5352335"><ele>816.3333333333334</ele><time>2026-05-02T15:42:33.34Z</time></trkpt><trkpt lat="32.5879061" lon="-110.5354473"><ele>817.6666666666667</ele><time>2026-05-02T15:42:34.34Z</time></trkpt><trkpt lat="32.5878165" lon="-110.5356624"><ele>819.0</ele><time>2026-05-02T15:42:35.339Z</time></trkpt><trkpt lat="32.5877095" lon="-110.535882"><ele>819.0</ele><time>2026-05-02T15:42:36.341Z</time></trkpt><trkpt lat="32.5876011" lon="-110.5360986"><ele>819.0</ele><time>2026-05-02T15:42:37.339Z</time></trkpt><trkpt lat="32.5874909" lon="-110.5363203"><ele>819.0</ele><time>2026-05-02T15:42:38.341Z</time></trkpt><trkpt lat="32.5873826" lon="-110.536537"><ele>821.3333333333333</ele><time>2026-05-02T15:42:39.341Z</time></trkpt><trkpt lat="32.5872797" lon="-110.5367565"><ele>823.6666666666666</ele><time>2026-05-02T15:42:40.341Z</time></trkpt><trkpt lat="32.587176" lon="-110.5369754"><ele>826.0</ele><time>2026-05-02T15:42:41.34Z</time></trkpt><trkpt lat="32.5870725" lon="-110.5371921"><ele>828.0</ele><time>2026-05-02T15:42:42.341Z</time></trkpt><trkpt lat="32.5869618" lon="-110.5373987"><ele>830.0</ele><time>2026-05-02T15:42:43.341Z</time></trkpt><trkpt lat="32.5868461" lon="-110.5375998"><ele>832.0</ele><time>2026-05-02T15:42:44.34Z</time></trkpt><trkpt lat="32.5867301" lon="-110.5377994"><ele>833.6666666666666</ele><time>2026-05-02T15:42:45.341Z</time></trkpt><trkpt lat="32.5866146" lon="-110.5379989"><ele>835.3333333333333</ele><time>2026-05-02T15:42:46.34Z</time></trkpt><trkpt lat="32.5865148" lon="-110.5382008"><ele>837.0</ele><time>2026-05-02T15:42:47.341Z</time></trkpt><trkpt lat="32.5864283" lon="-110.5383927"><ele>837.0</ele><time>2026-05-02T15:42:48.341Z</time></trkpt><trkpt lat="32.5863649" lon="-110.5385769"><ele>837.0</ele><time>2026-05-02T15:42:49.34Z</time></trkpt><trkpt lat="32.5863191" lon="-110.5387765"><ele>837.0</ele><time>2026-05-02T15:42:50.34Z</time></trkpt><trkpt lat="32.5862802" lon="-110.5389908"><ele>839.0</ele><time>2026-05-02T15:42:51.341Z</time></trkpt><trkpt lat="32.5862501" lon="-110.5392143"><ele>841.0</ele><time>2026-05-02T15:42:52.341Z</time></trkpt><trkpt lat="32.586225" lon="-110.5394296"><ele>843.0</ele><time>2026-05-02T15:42:53.34Z</time></trkpt><trkpt lat="32.5861899" lon="-110.5396352"><ele>843.3333333333333</ele><time>2026-05-02T15:42:54.34Z</time></trkpt><trkpt lat="32.5861476" lon="-110.5398433"><ele>843.6666666666666</ele><time>2026-05-02T15:42:55.341Z</time></trkpt><trkpt lat="32.5861059" lon="-110.5400575"><ele>844.0</ele><time>2026-05-02T15:42:56.34Z</time></trkpt><trkpt lat="32.586078" lon="-110.5402796"><ele>844.0</ele><time>2026-05-02T15:42:57.341Z</time></trkpt><trkpt lat="32.5860678" lon="-110.5405143"><ele>844.0</ele><time>2026-05-02T15:42:58.34Z</time></trkpt><trkpt lat="32.5860718" lon="-110.5407432"><ele>844.0</ele><time>2026-05-02T15:42:59.341Z</time></trkpt><trkpt lat="32.5860707" lon="-110.5409645"><ele>844.0</ele><time>2026-05-02T15:43:00.34Z</time></trkpt><trkpt lat="32.5860624" lon="-110.5411829"><ele>844.0</ele><time>2026-05-02T15:43:01.341Z</time></trkpt><trkpt lat="32.5860325" lon="-110.5413989"><ele>844.0</ele><time>2026-05-02T15:43:02.34Z</time></trkpt><trkpt lat="32.5859839" lon="-110.5416122"><ele>844.6666666666666</ele><time>2026-05-02T15:43:03.341Z</time></trkpt><trkpt lat="32.5859183" lon="-110.5418203"><ele>845.3333333333333</ele><time>2026-05-02T15:43:04.341Z</time></trkpt><trkpt lat="32.5858325" lon="-110.5420203"><ele>846.0</ele><time>2026-05-02T15:43:05.34Z</time></trkpt><trkpt lat="32.5857352" lon="-110.5422295"><ele>846.0</ele><time>2026-05-02T15:43:06.34Z</time></trkpt><trkpt lat="32.5856311" lon="-110.5424452"><ele>846.0</ele><time>2026-05-02T15:43:07.34Z</time></trkpt><trkpt lat="32.5855305" lon="-110.542662"><ele>846.0</ele><time>2026-05-02T15:43:08.341Z</time></trkpt><trkpt lat="32.5854446" lon="-110.5428908"><ele>845.0</ele><time>2026-05-02T15:43:09.341Z</time></trkpt><trkpt lat="32.5853629" lon="-110.5431263"><ele>844.0</ele><time>2026-05-02T15:43:10.34Z</time></trkpt><trkpt lat="32.5852967" lon="-110.5433752"><ele>843.0</ele><time>2026-05-02T15:43:11.341Z</time></trkpt><trkpt lat="32.5852354" lon="-110.5436209"><ele>844.6666666666667</ele><time>2026-05-02T15:43:12.341Z</time></trkpt><trkpt lat="32.5851793" lon="-110.5438689"><ele>846.3333333333334</ele><time>2026-05-02T15:43:13.34Z</time></trkpt><trkpt lat="32.5851309" lon="-110.5441144"><ele>848.0</ele><time>2026-05-02T15:43:14.34Z</time></trkpt><trkpt lat="32.5850838" lon="-110.5443528"><ele>848.6666666666667</ele><time>2026-05-02T15:43:15.34Z</time></trkpt><trkpt lat="32.5850417" lon="-110.5445955"><ele>849.3333333333333</ele><time>2026-05-02T15:43:16.34Z</time></trkpt><trkpt lat="32.5850051" lon="-110.5448394"><ele>850.0</ele><time>2026-05-02T15:43:17.341Z</time></trkpt><trkpt lat="32.5849717" lon="-110.5450831"><ele>850.0</ele><time>2026-05-02T15:43:18.341Z</time></trkpt><trkpt lat="32.5849444" lon="-110.5453237"><ele>850.0</ele><time>2026-05-02T15:43:19.341Z</time></trkpt><trkpt lat="32.5849117" lon="-110.5455571"><ele>850.0</ele><time>2026-05-02T15:43:20.341Z</time></trkpt><trkpt lat="32.5848722" lon="-110.5457827"><ele>852.3333333333333</ele><time>2026-05-02T15:43:21.34Z</time></trkpt><trkpt lat="32.5848157" lon="-110.5459921"><ele>854.6666666666667</ele><time>2026-05-02T15:43:22.341Z</time></trkpt><trkpt lat="32.5847422" lon="-110.5461915"><ele>857.0</ele><time>2026-05-02T15:43:23.341Z</time></trkpt><trkpt lat="32.5846497" lon="-110.5463865"><ele>857.3333333333334</ele><time>2026-05-02T15:43:24.34Z</time></trkpt><trkpt lat="32.5845455" lon="-110.5465748"><ele>857.6666666666667</ele><time>2026-05-02T15:43:25.34Z</time></trkpt><trkpt lat="32.5844165" lon="-110.5467474"><ele>858.0</ele><time>2026-05-02T15:43:26.34Z</time></trkpt><trkpt lat="32.5842904" lon="-110.5469117"><ele>860.3333333333333</ele><time>2026-05-02T15:43:27.34Z</time></trkpt><trkpt lat="32.5841693" lon="-110.5470662"><ele>862.6666666666666</ele><time>2026-05-02T15:43:28.34Z</time></trkpt><trkpt lat="32.5840511" lon="-110.5472105"><ele>865.0</ele><time>2026-05-02T15:43:29.341Z</time></trkpt><trkpt lat="32.5839428" lon="-110.5473522"><ele>865.0</ele><time>2026-05-02T15:43:30.341Z</time></trkpt><trkpt lat="32.5838375" lon="-110.5474787"><ele>865.0</ele><time>2026-05-02T15:43:31.341Z</time></trkpt><trkpt lat="32.5837409" lon="-110.5476014"><ele>865.0</ele><time>2026-05-02T15:43:32.342Z</time></trkpt><trkpt lat="32.5836463" lon="-110.547723"><ele>865.0</ele><time>2026-05-02T15:43:33.345Z</time></trkpt><trkpt lat="32.5835523" lon="-110.5478429"><ele>866.25</ele><time>2026-05-02T15:43:34.341Z</time></trkpt><trkpt lat="32.5834665" lon="-110.5479721"><ele>867.5</ele><time>2026-05-02T15:43:35.34Z</time></trkpt><trkpt lat="32.5833832" lon="-110.5481094"><ele>868.75</ele><time>2026-05-02T15:43:36.34Z</time></trkpt><trkpt lat="32.5833089" lon="-110.5482557"><ele>870.0</ele><time>2026-05-02T15:43:37.34Z</time></trkpt><trkpt lat="32.5832425" lon="-110.5484063"><ele>870.0</ele><time>2026-05-02T15:43:38.34Z</time></trkpt><trkpt lat="32.5831891" lon="-110.5485716"><ele>870.0</ele><time>2026-05-02T15:43:39.34Z</time></trkpt><trkpt lat="32.583145" lon="-110.5487383"><ele>870.0</ele><time>2026-05-02T15:43:40.341Z</time></trkpt><trkpt lat="32.5831112" lon="-110.5489084"><ele>870.0</ele><time>2026-05-02T15:43:41.341Z</time></trkpt><trkpt lat="32.5830864" lon="-110.5490849"><ele>870.0</ele><time>2026-05-02T15:43:42.34Z</time></trkpt><trkpt lat="32.5830627" lon="-110.5492582"><ele>870.0</ele><time>2026-05-02T15:43:43.341Z</time></trkpt><trkpt lat="32.5830472" lon="-110.5494428"><ele>870.0</ele><time>2026-05-02T15:43:44.34Z</time></trkpt><trkpt lat="32.5830316" lon="-110.5496492"><ele>870.0</ele><time>2026-05-02T15:43:45.341Z</time></trkpt><trkpt lat="32.5830112" lon="-110.549871"><ele>870.0</ele><time>2026-05-02T15:43:46.341Z</time></trkpt><trkpt lat="32.5829823" lon="-110.5501002"><ele>870.0</ele><time>2026-05-02T15:43:47.341Z</time></trkpt><trkpt lat="32.5829501" lon="-110.5503476"><ele>870.3333333333333</ele><time>2026-05-02T15:43:48.34Z</time></trkpt><trkpt lat="32.5829198" lon="-110.5505945"><ele>870.6666666666666</ele><time>2026-05-02T15:43:49.34Z</time></trkpt><trkpt lat="32.5828863" lon="-110.5508431"><ele>871.0</ele><time>2026-05-02T15:43:50.341Z</time></trkpt><trkpt lat="32.5828512" lon="-110.5510849"><ele>872.0</ele><time>2026-05-02T15:43:51.342Z</time></trkpt><trkpt lat="32.5828122" lon="-110.5513276"><ele>873.0</ele><time>2026-05-02T15:43:52.341Z</time></trkpt><trkpt lat="32.5827687" lon="-110.5515691"><ele>874.0</ele><time>2026-05-02T15:43:53.34Z</time></trkpt><trkpt lat="32.5827218" lon="-110.5518118"><ele>876.0</ele><time>2026-05-02T15:43:54.341Z</time></trkpt><trkpt lat="32.5826592" lon="-110.5520655"><ele>878.0</ele><time>2026-05-02T15:43:55.342Z</time></trkpt><trkpt lat="32.5825921" lon="-110.5523305"><ele>878.0</ele><time>2026-05-02T15:43:56.341Z</time></trkpt><trkpt lat="32.5825212" lon="-110.5525938"><ele>878.0</ele><time>2026-05-02T15:43:57.342Z</time></trkpt><trkpt lat="32.5824484" lon="-110.5528551"><ele>878.5</ele><time>2026-05-02T15:43:58.341Z</time></trkpt><trkpt lat="32.5823689" lon="-110.553118"><ele>879.0</ele><time>2026-05-02T15:43:59.342Z</time></trkpt><trkpt lat="32.5822784" lon="-110.5533721"><ele>879.0</ele><time>2026-05-02T15:44:00.341Z</time></trkpt><trkpt lat="32.582187" lon="-110.5536217"><ele>879.0</ele><time>2026-05-02T15:44:01.341Z</time></trkpt><trkpt lat="32.5820901" lon="-110.553864"><ele>881.0</ele><time>2026-05-02T15:44:02.342Z</time></trkpt><trkpt lat="32.5819904" lon="-110.5541033"><ele>883.0</ele><time>2026-05-02T15:44:03.341Z</time></trkpt><trkpt lat="32.5818889" lon="-110.5543355"><ele>885.0</ele><time>2026-05-02T15:44:04.34Z</time></trkpt><trkpt lat="32.5817872" lon="-110.5545735"><ele>885.0</ele><time>2026-05-02T15:44:05.34Z</time></trkpt><trkpt lat="32.5816884" lon="-110.5548093"><ele>885.0</ele><time>2026-05-02T15:44:06.342Z</time></trkpt><trkpt lat="32.5815889" lon="-110.5550415"><ele>885.0</ele><time>2026-05-02T15:44:07.341Z</time></trkpt><trkpt lat="32.5814876" lon="-110.5552938"><ele>886.0</ele><time>2026-05-02T15:44:08.341Z</time></trkpt><trkpt lat="32.581382" lon="-110.5555495"><ele>887.0</ele><time>2026-05-02T15:44:09.342Z</time></trkpt><trkpt lat="32.5812789" lon="-110.5558014"><ele>888.5</ele><time>2026-05-02T15:44:10.341Z</time></trkpt><trkpt lat="32.5811761" lon="-110.5560503"><ele>890.0</ele><time>2026-05-02T15:44:11.341Z</time></trkpt><trkpt lat="32.5810741" lon="-110.5562948"><ele>890.5</ele><time>2026-05-02T15:44:12.342Z</time></trkpt><trkpt lat="32.5809751" lon="-110.5565352"><ele>891.0</ele><time>2026-05-02T15:44:13.342Z</time></trkpt><trkpt lat="32.5808744" lon="-110.5567733"><ele>891.0</ele><time>2026-05-02T15:44:14.342Z</time></trkpt><trkpt lat="32.5807739" lon="-110.5570122"><ele>891.0</ele><time>2026-05-02T15:44:15.341Z</time></trkpt><trkpt lat="32.5806756" lon="-110.5572512"><ele>891.0</ele><time>2026-05-02T15:44:16.341Z</time></trkpt><trkpt lat="32.5805768" lon="-110.5574927"><ele>891.3333333333333</ele><time>2026-05-02T15:44:17.341Z</time></trkpt><trkpt lat="32.5804818" lon="-110.5577371"><ele>891.6666666666666</ele><time>2026-05-02T15:44:18.341Z</time></trkpt><trkpt lat="32.5803928" lon="-110.5579781"><ele>892.0</ele><time>2026-05-02T15:44:19.34Z</time></trkpt><trkpt lat="32.5803078" lon="-110.5582211"><ele>893.0</ele><time>2026-05-02T15:44:20.341Z</time></trkpt><trkpt lat="32.5802281" lon="-110.5584673"><ele>894.0</ele><time>2026-05-02T15:44:21.342Z</time></trkpt><trkpt lat="32.5801546" lon="-110.5587161"><ele>895.0</ele><time>2026-05-02T15:44:22.342Z</time></trkpt><trkpt lat="32.5800853" lon="-110.5589713"><ele>896.5</ele><time>2026-05-02T15:44:23.342Z</time></trkpt><trkpt lat="32.5800262" lon="-110.559236"><ele>898.0</ele><time>2026-05-02T15:44:24.342Z</time></trkpt><trkpt lat="32.5799764" lon="-110.5594997"><ele>899.0</ele><time>2026-05-02T15:44:25.342Z</time></trkpt><trkpt lat="32.579936" lon="-110.5597697"><ele>900.0</ele><time>2026-05-02T15:44:26.342Z</time></trkpt><trkpt lat="32.5798989" lon="-110.560038"><ele>900.0</ele><time>2026-05-02T15:44:27.342Z</time></trkpt><trkpt lat="32.579865" lon="-110.5603101"><ele>900.0</ele><time>2026-05-02T15:44:28.341Z</time></trkpt><trkpt lat="32.5798284" lon="-110.5605823"><ele>900.5</ele><time>2026-05-02T15:44:29.342Z</time></trkpt><trkpt lat="32.5797936" lon="-110.5608526"><ele>901.0</ele><time>2026-05-02T15:44:30.341Z</time></trkpt><trkpt lat="32.5797561" lon="-110.5611267"><ele>902.5</ele><time>2026-05-02T15:44:31.342Z</time></trkpt><trkpt lat="32.5797187" lon="-110.5614025"><ele>904.0</ele><time>2026-05-02T15:44:32.342Z</time></trkpt><trkpt lat="32.5796809" lon="-110.5616783"><ele>904.0</ele><time>2026-05-02T15:44:33.341Z</time></trkpt><trkpt lat="32.5796417" lon="-110.561958"><ele>904.0</ele><time>2026-05-02T15:44:34.341Z</time></trkpt><trkpt lat="32.5796016" lon="-110.5622382"><ele>905.0</ele><time>2026-05-02T15:44:35.341Z</time></trkpt><trkpt lat="32.5795604" lon="-110.5625133"><ele>906.0</ele><time>2026-05-02T15:44:36.341Z</time></trkpt><trkpt lat="32.5795162" lon="-110.5627896"><ele>907.5</ele><time>2026-05-02T15:44:37.342Z</time></trkpt><trkpt lat="32.5794688" lon="-110.5630603"><ele>909.0</ele><time>2026-05-02T15:44:38.342Z</time></trkpt><trkpt lat="32.5794202" lon="-110.5633325"><ele>909.0</ele><time>2026-05-02T15:44:39.341Z</time></trkpt><trkpt lat="32.5793696" lon="-110.5636021"><ele>909.0</ele><time>2026-05-02T15:44:40.342Z</time></trkpt><trkpt lat="32.5793158" lon="-110.5638771"><ele>910.5</ele><time>2026-05-02T15:44:41.342Z</time></trkpt><trkpt lat="32.5792606" lon="-110.5641531"><ele>912.0</ele><time>2026-05-02T15:44:42.341Z</time></trkpt><trkpt lat="32.579206" lon="-110.5644277"><ele>913.5</ele><time>2026-05-02T15:44:43.341Z</time></trkpt><trkpt lat="32.5791437" lon="-110.5646995"><ele>915.0</ele><time>2026-05-02T15:44:44.341Z</time></trkpt><trkpt lat="32.579082" lon="-110.5649721"><ele>915.0</ele><time>2026-05-02T15:44:45.341Z</time></trkpt><trkpt lat="32.579015" lon="-110.5652428"><ele>915.0</ele><time>2026-05-02T15:44:46.342Z</time></trkpt><trkpt lat="32.5789384" lon="-110.5655074"><ele>916.5</ele><time>2026-05-02T15:44:47.341Z</time></trkpt><trkpt lat="32.5788524" lon="-110.5657687"><ele>918.0</ele><time>2026-05-02T15:44:48.341Z</time></trkpt><trkpt lat="32.5787636" lon="-110.5660321"><ele>919.0</ele><time>2026-05-02T15:44:49.341Z</time></trkpt><trkpt lat="32.578676" lon="-110.5662943"><ele>920.0</ele><time>2026-05-02T15:44:50.342Z</time></trkpt><trkpt lat="32.5785831" lon="-110.5665486"><ele>920.0</ele><time>2026-05-02T15:44:51.341Z</time></trkpt><trkpt lat="32.578491" lon="-110.5668019"><ele>920.0</ele><time>2026-05-02T15:44:52.342Z</time></trkpt><trkpt lat="32.578401" lon="-110.5670549"><ele>920.5</ele><time>2026-05-02T15:44:53.341Z</time></trkpt><trkpt lat="32.5783078" lon="-110.5673092"><ele>921.0</ele><time>2026-05-02T15:44:54.341Z</time></trkpt><trkpt lat="32.5782137" lon="-110.5675613"><ele>921.0</ele><time>2026-05-02T15:44:55.341Z</time></trkpt><trkpt lat="32.5781199" lon="-110.5678178"><ele>921.0</ele><time>2026-05-02T15:44:56.341Z</time></trkpt><trkpt lat="32.5780263" lon="-110.568072"><ele>921.5</ele><time>2026-05-02T15:44:57.341Z</time></trkpt><trkpt lat="32.5779332" lon="-110.5683255"><ele>922.0</ele><time>2026-05-02T15:44:58.342Z</time></trkpt><trkpt lat="32.5778406" lon="-110.5685791"><ele>923.5</ele><time>2026-05-02T15:44:59.341Z</time></trkpt><trkpt lat="32.5777472" lon="-110.5688394"><ele>925.0</ele><time>2026-05-02T15:45:00.342Z</time></trkpt><trkpt lat="32.5776527" lon="-110.5690967"><ele>925.0</ele><time>2026-05-02T15:45:01.342Z</time></trkpt><trkpt lat="32.5775599" lon="-110.5693536"><ele>925.0</ele><time>2026-05-02T15:45:02.341Z</time></trkpt><trkpt lat="32.5774668" lon="-110.5696041"><ele>926.5</ele><time>2026-05-02T15:45:03.341Z</time></trkpt><trkpt lat="32.5773776" lon="-110.5698562"><ele>928.0</ele><time>2026-05-02T15:45:04.341Z</time></trkpt><trkpt lat="32.5772923" lon="-110.5701129"><ele>927.0</ele><time>2026-05-02T15:45:05.342Z</time></trkpt><trkpt lat="32.5772098" lon="-110.5703668"><ele>926.0</ele><time>2026-05-02T15:45:06.342Z</time></trkpt><trkpt lat="32.5771245" lon="-110.5706202"><ele>926.0</ele><time>2026-05-02T15:45:07.341Z</time></trkpt><trkpt lat="32.5770453" lon="-110.5708843"><ele>926.0</ele><time>2026-05-02T15:45:08.341Z</time></trkpt><trkpt lat="32.5769663" lon="-110.5711591"><ele>929.5</ele><time>2026-05-02T15:45:09.341Z</time></trkpt><trkpt lat="32.5768972" lon="-110.5714258"><ele>933.0</ele><time>2026-05-02T15:45:10.342Z</time></trkpt><trkpt lat="32.5768344" lon="-110.5716961"><ele>933.0</ele><time>2026-05-02T15:45:11.341Z</time></trkpt><trkpt lat="32.576779" lon="-110.5719701"><ele>933.0</ele><time>2026-05-02T15:45:12.342Z</time></trkpt><trkpt lat="32.5767317" lon="-110.572247"><ele>933.0</ele><time>2026-05-02T15:45:13.341Z</time></trkpt><trkpt lat="32.5766883" lon="-110.5725291"><ele>933.0</ele><time>2026-05-02T15:45:14.341Z</time></trkpt><trkpt lat="32.5766466" lon="-110.5728027"><ele>934.5</ele><time>2026-05-02T15:45:15.341Z</time></trkpt><trkpt lat="32.5766046" lon="-110.5730798"><ele>936.0</ele><time>2026-05-02T15:45:16.341Z</time></trkpt><trkpt lat="32.5765612" lon="-110.573364"><ele>936.0</ele><time>2026-05-02T15:45:17.342Z</time></trkpt><trkpt lat="32.5765218" lon="-110.5736471"><ele>936.0</ele><time>2026-05-02T15:45:18.341Z</time></trkpt><trkpt lat="32.5764804" lon="-110.5739255"><ele>937.5</ele><time>2026-05-02T15:45:19.342Z</time></trkpt><trkpt lat="32.5764457" lon="-110.5742064"><ele>939.0</ele><time>2026-05-02T15:45:20.342Z</time></trkpt><trkpt lat="32.5764066" lon="-110.5744857"><ele>939.5</ele><time>2026-05-02T15:45:21.343Z</time></trkpt><trkpt lat="32.5763721" lon="-110.5747707"><ele>940.0</ele><time>2026-05-02T15:45:22.342Z</time></trkpt><trkpt lat="32.5763417" lon="-110.5750519"><ele>940.0</ele><time>2026-05-02T15:45:23.342Z</time></trkpt><trkpt lat="32.576309" lon="-110.5753313"><ele>940.0</ele><time>2026-05-02T15:45:24.342Z</time></trkpt><trkpt lat="32.5762752" lon="-110.5756053"><ele>942.0</ele><time>2026-05-02T15:45:25.341Z</time></trkpt><trkpt lat="32.576241" lon="-110.5758839"><ele>944.0</ele><time>2026-05-02T15:45:26.342Z</time></trkpt><trkpt lat="32.5762111" lon="-110.5761563"><ele>944.5</ele><time>2026-05-02T15:45:27.341Z</time></trkpt><trkpt lat="32.5761784" lon="-110.5764329"><ele>945.0</ele><time>2026-05-02T15:45:28.341Z</time></trkpt><trkpt lat="32.576145" lon="-110.5767039"><ele>945.0</ele><time>2026-05-02T15:45:29.341Z</time></trkpt><trkpt lat="32.576113" lon="-110.5769766"><ele>945.0</ele><time>2026-05-02T15:45:30.342Z</time></trkpt><trkpt lat="32.5760663" lon="-110.5772444"><ele>947.0</ele><time>2026-05-02T15:45:31.341Z</time></trkpt><trkpt lat="32.5760065" lon="-110.5775116"><ele>949.0</ele><time>2026-05-02T15:45:32.343Z</time></trkpt><trkpt lat="32.5759396" lon="-110.5777668"><ele>949.0</ele><time>2026-05-02T15:45:33.342Z</time></trkpt><trkpt lat="32.5758674" lon="-110.5780108"><ele>949.0</ele><time>2026-05-02T15:45:34.342Z</time></trkpt><trkpt lat="32.5757913" lon="-110.5782518"><ele>949.0</ele><time>2026-05-02T15:45:35.341Z</time></trkpt><trkpt lat="32.5757149" lon="-110.5784907"><ele>947.6666666666666</ele><time>2026-05-02T15:45:36.342Z</time></trkpt><trkpt lat="32.575639" lon="-110.5787288"><ele>946.3333333333333</ele><time>2026-05-02T15:45:37.343Z</time></trkpt><trkpt lat="32.575568" lon="-110.5789647"><ele>945.0</ele><time>2026-05-02T15:45:38.342Z</time></trkpt><trkpt lat="32.5755054" lon="-110.5791877"><ele>945.0</ele><time>2026-05-02T15:45:39.343Z</time></trkpt><trkpt lat="32.575446" lon="-110.5794069"><ele>945.0</ele><time>2026-05-02T15:45:40.341Z</time></trkpt><trkpt lat="32.5753868" lon="-110.579616"><ele>945.0</ele><time>2026-05-02T15:45:41.342Z</time></trkpt><trkpt lat="32.5753244" lon="-110.5798124"><ele>944.6666666666667</ele><time>2026-05-02T15:45:42.342Z</time></trkpt><trkpt lat="32.5752504" lon="-110.5800077"><ele>944.3333333333334</ele><time>2026-05-02T15:45:43.342Z</time></trkpt><trkpt lat="32.5751678" lon="-110.5801988"><ele>944.0</ele><time>2026-05-02T15:45:44.343Z</time></trkpt><trkpt lat="32.5750705" lon="-110.5803868"><ele>944.0</ele><time>2026-05-02T15:45:45.343Z</time></trkpt><trkpt lat="32.5749642" lon="-110.5805692"><ele>944.0</ele><time>2026-05-02T15:45:46.342Z</time></trkpt><trkpt lat="32.5748548" lon="-110.5807511"><ele>944.0</ele><time>2026-05-02T15:45:47.342Z</time></trkpt><trkpt lat="32.5747465" lon="-110.5809173"><ele>944.0</ele><time>2026-05-02T15:45:48.341Z</time></trkpt><trkpt lat="32.5746464" lon="-110.5810757"><ele>944.0</ele><time>2026-05-02T15:45:49.342Z</time></trkpt><trkpt lat="32.5745595" lon="-110.5812157"><ele>944.0</ele><time>2026-05-02T15:45:50.342Z</time></trkpt><trkpt lat="32.5744865" lon="-110.5813315"><ele>944.0</ele><time>2026-05-02T15:45:51.342Z</time></trkpt><trkpt lat="32.5744299" lon="-110.5814314"><ele>945.4000000000001</ele><time>2026-05-02T15:45:52.342Z</time></trkpt><trkpt lat="32.5743827" lon="-110.5815058"><ele>946.8000000000001</ele><time>2026-05-02T15:45:53.343Z</time></trkpt><trkpt lat="32.5743003" lon="-110.5816045"><ele>948.1999999999999</ele><time>2026-05-02T15:45:55.342Z</time></trkpt><trkpt lat="32.5741856" lon="-110.5816243"><ele>949.5999999999999</ele><time>2026-05-02T15:45:57.342Z</time></trkpt><trkpt lat="32.5740693" lon="-110.5815896"><ele>951.0</ele><time>2026-05-02T15:45:59.342Z</time></trkpt><trkpt lat="32.5740018" lon="-110.581578"><ele>951.0</ele><time>2026-05-02T15:46:00.342Z</time></trkpt><trkpt lat="32.5739281" lon="-110.581571"><ele>951.0</ele><time>2026-05-02T15:46:01.342Z</time></trkpt><trkpt lat="32.5738544" lon="-110.5815699"><ele>951.0</ele><time>2026-05-02T15:46:02.343Z</time></trkpt><trkpt lat="32.5737784" lon="-110.5815779"><ele>951.0</ele><time>2026-05-02T15:46:03.341Z</time></trkpt><trkpt lat="32.5736962" lon="-110.5815869"><ele>951.0</ele><time>2026-05-02T15:46:04.342Z</time></trkpt><trkpt lat="32.5736098" lon="-110.5815904"><ele>951.0</ele><time>2026-05-02T15:46:05.342Z</time></trkpt><trkpt lat="32.5735114" lon="-110.5815772"><ele>950.75</ele><time>2026-05-02T15:46:06.343Z</time></trkpt><trkpt lat="32.5734165" lon="-110.5815356"><ele>950.5</ele><time>2026-05-02T15:46:07.342Z</time></trkpt><trkpt lat="32.573317" lon="-110.5814724"><ele>950.25</ele><time>2026-05-02T15:46:08.343Z</time></trkpt><trkpt lat="32.5732241" lon="-110.5813987"><ele>950.0</ele><time>2026-05-02T15:46:09.342Z</time></trkpt><trkpt lat="32.5731287" lon="-110.5813034"><ele>950.0</ele><time>2026-05-02T15:46:10.342Z</time></trkpt><trkpt lat="32.5730326" lon="-110.5811876"><ele>950.0</ele><time>2026-05-02T15:46:11.343Z</time></trkpt><trkpt lat="32.5729373" lon="-110.5810572"><ele>950.0</ele><time>2026-05-02T15:46:12.343Z</time></trkpt><trkpt lat="32.572831" lon="-110.5809191"><ele>950.0</ele><time>2026-05-02T15:46:13.342Z</time></trkpt><trkpt lat="32.572713" lon="-110.5807725"><ele>949.0</ele><time>2026-05-02T15:46:14.343Z</time></trkpt><trkpt lat="32.572585" lon="-110.580625"><ele>948.0</ele><time>2026-05-02T15:46:15.343Z</time></trkpt><trkpt lat="32.572449" lon="-110.5804748"><ele>947.0</ele><time>2026-05-02T15:46:16.343Z</time></trkpt><trkpt lat="32.5723061" lon="-110.5803251"><ele>947.0</ele><time>2026-05-02T15:46:17.342Z</time></trkpt><trkpt lat="32.572156" lon="-110.5801748"><ele>947.0</ele><time>2026-05-02T15:46:18.342Z</time></trkpt><trkpt lat="32.5719992" lon="-110.5800253"><ele>947.0</ele><time>2026-05-02T15:46:19.342Z</time></trkpt><trkpt lat="32.571847" lon="-110.5798734"><ele>949.0</ele><time>2026-05-02T15:46:20.343Z</time></trkpt><trkpt lat="32.5716982" lon="-110.5797245"><ele>951.0</ele><time>2026-05-02T15:46:21.343Z</time></trkpt><trkpt lat="32.5715478" lon="-110.5795782"><ele>953.0</ele><time>2026-05-02T15:46:22.343Z</time></trkpt><trkpt lat="32.5713943" lon="-110.5794282"><ele>953.0</ele><time>2026-05-02T15:46:23.342Z</time></trkpt><trkpt lat="32.5712426" lon="-110.5792798"><ele>953.0</ele><time>2026-05-02T15:46:24.342Z</time></trkpt><trkpt lat="32.5710935" lon="-110.5791303"><ele>953.0</ele><time>2026-05-02T15:46:25.344Z</time></trkpt><trkpt lat="32.5709436" lon="-110.5789792"><ele>952.0</ele><time>2026-05-02T15:46:26.342Z</time></trkpt><trkpt lat="32.5707959" lon="-110.5788256"><ele>951.0</ele><time>2026-05-02T15:46:27.342Z</time></trkpt><trkpt lat="32.5706431" lon="-110.5786783"><ele>950.0</ele><time>2026-05-02T15:46:28.343Z</time></trkpt><trkpt lat="32.5704942" lon="-110.5785266"><ele>947.3333333333334</ele><time>2026-05-02T15:46:29.342Z</time></trkpt><trkpt lat="32.5703445" lon="-110.5783807"><ele>944.6666666666667</ele><time>2026-05-02T15:46:30.342Z</time></trkpt><trkpt lat="32.5701915" lon="-110.5782304"><ele>942.0</ele><time>2026-05-02T15:46:31.342Z</time></trkpt><trkpt lat="32.5700395" lon="-110.5780796"><ele>942.0</ele><time>2026-05-02T15:46:32.342Z</time></trkpt><trkpt lat="32.5698844" lon="-110.5779247"><ele>942.0</ele><time>2026-05-02T15:46:33.342Z</time></trkpt><trkpt lat="32.5697308" lon="-110.5777669"><ele>942.0</ele><time>2026-05-02T15:46:34.342Z</time></trkpt><trkpt lat="32.5695795" lon="-110.5776101"><ele>940.6666666666667</ele><time>2026-05-02T15:46:35.343Z</time></trkpt><trkpt lat="32.5694269" lon="-110.57746"><ele>939.3333333333334</ele><time>2026-05-02T15:46:36.343Z</time></trkpt><trkpt lat="32.5692744" lon="-110.5773067"><ele>938.0</ele><time>2026-05-02T15:46:37.342Z</time></trkpt><trkpt lat="32.5691239" lon="-110.5771547"><ele>939.3333333333334</ele><time>2026-05-02T15:46:38.343Z</time></trkpt><trkpt lat="32.5689788" lon="-110.5770081"><ele>940.6666666666667</ele><time>2026-05-02T15:46:39.343Z</time></trkpt><trkpt lat="32.5688309" lon="-110.5768557"><ele>942.0</ele><time>2026-05-02T15:46:40.343Z</time></trkpt><trkpt lat="32.5686791" lon="-110.5767077"><ele>944.3333333333333</ele><time>2026-05-02T15:46:41.342Z</time></trkpt><trkpt lat="32.5685314" lon="-110.5765567"><ele>946.6666666666666</ele><time>2026-05-02T15:46:42.343Z</time></trkpt><trkpt lat="32.568387" lon="-110.5764047"><ele>949.0</ele><time>2026-05-02T15:46:43.342Z</time></trkpt><trkpt lat="32.5682397" lon="-110.5762513"><ele>948.6666666666666</ele><time>2026-05-02T15:46:44.342Z</time></trkpt><trkpt lat="32.5680918" lon="-110.5761052"><ele>948.3333333333333</ele><time>2026-05-02T15:46:45.342Z</time></trkpt><trkpt lat="32.5679399" lon="-110.5759589"><ele>948.0</ele><time>2026-05-02T15:46:46.342Z</time></trkpt><trkpt lat="32.5677925" lon="-110.5758099"><ele>945.3333333333333</ele><time>2026-05-02T15:46:47.343Z</time></trkpt><trkpt lat="32.5676403" lon="-110.5756593"><ele>942.6666666666666</ele><time>2026-05-02T15:46:48.342Z</time></trkpt><trkpt lat="32.5674902" lon="-110.5755124"><ele>940.0</ele><time>2026-05-02T15:46:49.343Z</time></trkpt><trkpt lat="32.5673371" lon="-110.5753634"><ele>938.3333333333333</ele><time>2026-05-02T15:46:50.342Z</time></trkpt><trkpt lat="32.5671846" lon="-110.5752169"><ele>936.6666666666667</ele><time>2026-05-02T15:46:51.342Z</time></trkpt><trkpt lat="32.5670351" lon="-110.5750662"><ele>935.0</ele><time>2026-05-02T15:46:52.343Z</time></trkpt><trkpt lat="32.5668829" lon="-110.5749172"><ele>935.0</ele><time>2026-05-02T15:46:53.343Z</time></trkpt><trkpt lat="32.5667346" lon="-110.5747662"><ele>935.0</ele><time>2026-05-02T15:46:54.342Z</time></trkpt><trkpt lat="32.5665888" lon="-110.5746158"><ele>935.0</ele><time>2026-05-02T15:46:55.342Z</time></trkpt><trkpt lat="32.5664391" lon="-110.5744601"><ele>936.0</ele><time>2026-05-02T15:46:56.343Z</time></trkpt><trkpt lat="32.5662887" lon="-110.5743062"><ele>937.0</ele><time>2026-05-02T15:46:57.342Z</time></trkpt><trkpt lat="32.5661365" lon="-110.574153"><ele>938.0</ele><time>2026-05-02T15:46:58.342Z</time></trkpt><trkpt lat="32.5659916" lon="-110.5740078"><ele>938.0</ele><time>2026-05-02T15:46:59.342Z</time></trkpt><trkpt lat="32.5658454" lon="-110.5738598"><ele>938.0</ele><time>2026-05-02T15:47:00.342Z</time></trkpt><trkpt lat="32.5656983" lon="-110.5737112"><ele>938.0</ele><time>2026-05-02T15:47:01.343Z</time></trkpt><trkpt lat="32.5655566" lon="-110.573565"><ele>937.3333333333334</ele><time>2026-05-02T15:47:02.343Z</time></trkpt><trkpt lat="32.5654124" lon="-110.5734149"><ele>936.6666666666667</ele><time>2026-05-02T15:47:03.342Z</time></trkpt><trkpt lat="32.5652649" lon="-110.5732662"><ele>936.0</ele><time>2026-05-02T15:47:04.342Z</time></trkpt><trkpt lat="32.5651165" lon="-110.5731127"><ele>933.0</ele><time>2026-05-02T15:47:05.343Z</time></trkpt><trkpt lat="32.5649649" lon="-110.5729624"><ele>930.0</ele><time>2026-05-02T15:47:06.342Z</time></trkpt><trkpt lat="32.5648132" lon="-110.5728061"><ele>927.0</ele><time>2026-05-02T15:47:07.343Z</time></trkpt><trkpt lat="32.5646659" lon="-110.572651"><ele>926.3333333333333</ele><time>2026-05-02T15:47:08.342Z</time></trkpt><trkpt lat="32.564513" lon="-110.5724975"><ele>925.6666666666666</ele><time>2026-05-02T15:47:09.342Z</time></trkpt><trkpt lat="32.5643604" lon="-110.5723475"><ele>925.0</ele><time>2026-05-02T15:47:10.343Z</time></trkpt><trkpt lat="32.5642061" lon="-110.5721969"><ele>925.0</ele><time>2026-05-02T15:47:11.343Z</time></trkpt><trkpt lat="32.5640535" lon="-110.5720499"><ele>925.0</ele><time>2026-05-02T15:47:12.343Z</time></trkpt><trkpt lat="32.5639037" lon="-110.5719058"><ele>925.0</ele><time>2026-05-02T15:47:13.343Z</time></trkpt><trkpt lat="32.5637602" lon="-110.5717589"><ele>928.0</ele><time>2026-05-02T15:47:14.344Z</time></trkpt><trkpt lat="32.563615" lon="-110.5716155"><ele>931.0</ele><time>2026-05-02T15:47:15.343Z</time></trkpt><trkpt lat="32.563467" lon="-110.571471"><ele>934.0</ele><time>2026-05-02T15:47:16.343Z</time></trkpt><trkpt lat="32.5633158" lon="-110.57133"><ele>931.6666666666666</ele><time>2026-05-02T15:47:17.343Z</time></trkpt><trkpt lat="32.5631665" lon="-110.5711889"><ele>929.3333333333333</ele><time>2026-05-02T15:47:18.342Z</time></trkpt><trkpt lat="32.563021" lon="-110.57104"><ele>927.0</ele><time>2026-05-02T15:47:19.342Z</time></trkpt><trkpt lat="32.5628718" lon="-110.5709007"><ele>928.3333333333333</ele><time>2026-05-02T15:47:20.343Z</time></trkpt><trkpt lat="32.5627127" lon="-110.5707635"><ele>929.6666666666666</ele><time>2026-05-02T15:47:21.34Z</time></trkpt><trkpt lat="32.5625477" lon="-110.570642"><ele>931.0</ele><time>2026-05-02T15:47:22.343Z</time></trkpt><trkpt lat="32.5623771" lon="-110.5705219"><ele>931.0</ele><time>2026-05-02T15:47:23.342Z</time></trkpt><trkpt lat="32.5621966" lon="-110.5704052"><ele>931.0</ele><time>2026-05-02T15:47:24.343Z</time></trkpt><trkpt lat="32.5620141" lon="-110.5702887"><ele>931.0</ele><time>2026-05-02T15:47:25.343Z</time></trkpt><trkpt lat="32.5618267" lon="-110.5701765"><ele>929.6666666666666</ele><time>2026-05-02T15:47:26.344Z</time></trkpt><trkpt lat="32.5616401" lon="-110.5700667"><ele>928.3333333333333</ele><time>2026-05-02T15:47:27.343Z</time></trkpt><trkpt lat="32.5614461" lon="-110.5699461"><ele>927.0</ele><time>2026-05-02T15:47:28.344Z</time></trkpt><trkpt lat="32.5612542" lon="-110.5698311"><ele>926.0</ele><time>2026-05-02T15:47:29.342Z</time></trkpt><trkpt lat="32.5610623" lon="-110.5697108"><ele>925.0</ele><time>2026-05-02T15:47:30.342Z</time></trkpt><trkpt lat="32.5608703" lon="-110.5695919"><ele>924.0</ele><time>2026-05-02T15:47:31.343Z</time></trkpt><trkpt lat="32.5606747" lon="-110.5694742"><ele>922.0</ele><time>2026-05-02T15:47:32.343Z</time></trkpt><trkpt lat="32.5604843" lon="-110.5693584"><ele>920.0</ele><time>2026-05-02T15:47:33.344Z</time></trkpt><trkpt lat="32.5602926" lon="-110.5692491"><ele>918.0</ele><time>2026-05-02T15:47:34.343Z</time></trkpt><trkpt lat="32.5600995" lon="-110.5691378"><ele>918.0</ele><time>2026-05-02T15:47:35.344Z</time></trkpt><trkpt lat="32.5599166" lon="-110.5690323"><ele>918.0</ele><time>2026-05-02T15:47:36.344Z</time></trkpt><trkpt lat="32.5597404" lon="-110.5689227"><ele>918.0</ele><time>2026-05-02T15:47:37.342Z</time></trkpt><trkpt lat="32.559565" lon="-110.5688119"><ele>918.3333333333333</ele><time>2026-05-02T15:47:38.343Z</time></trkpt><trkpt lat="32.5593869" lon="-110.568709"><ele>918.6666666666666</ele><time>2026-05-02T15:47:39.343Z</time></trkpt><trkpt lat="32.5592057" lon="-110.5686007"><ele>919.0</ele><time>2026-05-02T15:47:40.342Z</time></trkpt><trkpt lat="32.5590243" lon="-110.5684938"><ele>919.0</ele><time>2026-05-02T15:47:41.344Z</time></trkpt><trkpt lat="32.5588413" lon="-110.5683864"><ele>919.0</ele><time>2026-05-02T15:47:42.343Z</time></trkpt><trkpt lat="32.558661" lon="-110.5682793"><ele>919.0</ele><time>2026-05-02T15:47:43.342Z</time></trkpt><trkpt lat="32.5584773" lon="-110.5681712"><ele>921.3333333333333</ele><time>2026-05-02T15:47:44.344Z</time></trkpt><trkpt lat="32.5582976" lon="-110.5680608"><ele>923.6666666666667</ele><time>2026-05-02T15:47:45.344Z</time></trkpt><trkpt lat="32.5581167" lon="-110.567953"><ele>926.0</ele><time>2026-05-02T15:47:46.343Z</time></trkpt><trkpt lat="32.5579336" lon="-110.567842"><ele>930.0</ele><time>2026-05-02T15:47:47.344Z</time></trkpt><trkpt lat="32.557749" lon="-110.5677368"><ele>934.0</ele><time>2026-05-02T15:47:48.344Z</time></trkpt><trkpt lat="32.5575708" lon="-110.5676276"><ele>938.0</ele><time>2026-05-02T15:47:49.344Z</time></trkpt><trkpt lat="32.5573931" lon="-110.5675153"><ele>938.0</ele><time>2026-05-02T15:47:50.343Z</time></trkpt><trkpt lat="32.5572126" lon="-110.567403"><ele>938.0</ele><time>2026-05-02T15:47:51.343Z</time></trkpt><trkpt lat="32.5570322" lon="-110.5672962"><ele>938.0</ele><time>2026-05-02T15:47:52.343Z</time></trkpt><trkpt lat="32.5568516" lon="-110.5671914"><ele>939.0</ele><time>2026-05-02T15:47:53.343Z</time></trkpt><trkpt lat="32.5566679" lon="-110.5670838"><ele>940.0</ele><time>2026-05-02T15:47:54.343Z</time></trkpt><trkpt lat="32.5564846" lon="-110.5669756"><ele>941.0</ele><time>2026-05-02T15:47:55.344Z</time></trkpt><trkpt lat="32.556304" lon="-110.5668701"><ele>941.0</ele><time>2026-05-02T15:47:56.344Z</time></trkpt><trkpt lat="32.5561214" lon="-110.5667642"><ele>941.0</ele><time>2026-05-02T15:47:57.344Z</time></trkpt><trkpt lat="32.555937" lon="-110.5666557"><ele>941.0</ele><time>2026-05-02T15:47:58.343Z</time></trkpt><trkpt lat="32.5557514" lon="-110.5665476"><ele>941.0</ele><time>2026-05-02T15:47:59.344Z</time></trkpt><trkpt lat="32.5555679" lon="-110.5664384"><ele>941.0</ele><time>2026-05-02T15:48:00.344Z</time></trkpt><trkpt lat="32.5553872" lon="-110.5663262"><ele>941.0</ele><time>2026-05-02T15:48:01.343Z</time></trkpt><trkpt lat="32.5552038" lon="-110.5662184"><ele>941.0</ele><time>2026-05-02T15:48:02.343Z</time></trkpt><trkpt lat="32.5550206" lon="-110.5661099"><ele>941.0</ele><time>2026-05-02T15:48:03.344Z</time></trkpt><trkpt lat="32.5548367" lon="-110.5659998"><ele>941.0</ele><time>2026-05-02T15:48:04.343Z</time></trkpt><trkpt lat="32.5546522" lon="-110.5658927"><ele>942.6666666666667</ele><time>2026-05-02T15:48:05.344Z</time></trkpt><trkpt lat="32.554469" lon="-110.5657864"><ele>944.3333333333333</ele><time>2026-05-02T15:48:06.344Z</time></trkpt><trkpt lat="32.5542844" lon="-110.5656846"><ele>946.0</ele><time>2026-05-02T15:48:07.343Z</time></trkpt><trkpt lat="32.5541033" lon="-110.5655729"><ele>946.0</ele><time>2026-05-02T15:48:08.344Z</time></trkpt><trkpt lat="32.5539219" lon="-110.5654672"><ele>946.0</ele><time>2026-05-02T15:48:09.343Z</time></trkpt><trkpt lat="32.5537409" lon="-110.5653541"><ele>946.0</ele><time>2026-05-02T15:48:10.344Z</time></trkpt><trkpt lat="32.5535601" lon="-110.5652435"><ele>944.6666666666666</ele><time>2026-05-02T15:48:11.344Z</time></trkpt><trkpt lat="32.5533745" lon="-110.5651298"><ele>943.3333333333333</ele><time>2026-05-02T15:48:12.343Z</time></trkpt><trkpt lat="32.5531848" lon="-110.5650211"><ele>942.0</ele><time>2026-05-02T15:48:13.344Z</time></trkpt><trkpt lat="32.5529933" lon="-110.5649135"><ele>941.0</ele><time>2026-05-02T15:48:14.344Z</time></trkpt><trkpt lat="32.5528019" lon="-110.5648067"><ele>940.0</ele><time>2026-05-02T15:48:15.343Z</time></trkpt><trkpt lat="32.5526191" lon="-110.5647003"><ele>939.0</ele><time>2026-05-02T15:48:16.343Z</time></trkpt><trkpt lat="32.5524481" lon="-110.5646041"><ele>939.3333333333333</ele><time>2026-05-02T15:48:17.344Z</time></trkpt><trkpt lat="32.5522886" lon="-110.5645241"><ele>939.6666666666666</ele><time>2026-05-02T15:48:18.343Z</time></trkpt><trkpt lat="32.5521439" lon="-110.5644615"><ele>940.0</ele><time>2026-05-02T15:48:19.344Z</time></trkpt><trkpt lat="32.5520095" lon="-110.5644173"><ele>941.25</ele><time>2026-05-02T15:48:20.343Z</time></trkpt><trkpt lat="32.5518886" lon="-110.5643988"><ele>942.5</ele><time>2026-05-02T15:48:21.343Z</time></trkpt><trkpt lat="32.5517723" lon="-110.5644042"><ele>943.75</ele><time>2026-05-02T15:48:22.344Z</time></trkpt><trkpt lat="32.5516605" lon="-110.5644286"><ele>945.0</ele><time>2026-05-02T15:48:23.343Z</time></trkpt><trkpt lat="32.5515464" lon="-110.5644672"><ele>945.0</ele><time>2026-05-02T15:48:24.343Z</time></trkpt><trkpt lat="32.5514301" lon="-110.5645168"><ele>945.0</ele><time>2026-05-02T15:48:25.344Z</time></trkpt><trkpt lat="32.5513067" lon="-110.5645682"><ele>945.0</ele><time>2026-05-02T15:48:26.343Z</time></trkpt><trkpt lat="32.5511754" lon="-110.564615"><ele>945.0</ele><time>2026-05-02T15:48:27.343Z</time></trkpt><trkpt lat="32.551036" lon="-110.5646684"><ele>944.6666666666667</ele><time>2026-05-02T15:48:28.344Z</time></trkpt><trkpt lat="32.5508914" lon="-110.564727"><ele>944.3333333333334</ele><time>2026-05-02T15:48:29.343Z</time></trkpt><trkpt lat="32.5507419" lon="-110.5647907"><ele>944.0</ele><time>2026-05-02T15:48:30.344Z</time></trkpt><trkpt lat="32.5505828" lon="-110.5648586"><ele>944.0</ele><time>2026-05-02T15:48:31.343Z</time></trkpt><trkpt lat="32.5504225" lon="-110.5649157"><ele>944.0</ele><time>2026-05-02T15:48:32.344Z</time></trkpt><trkpt lat="32.5502614" lon="-110.5649749"><ele>944.0</ele><time>2026-05-02T15:48:33.344Z</time></trkpt><trkpt lat="32.5500957" lon="-110.5650362"><ele>944.0</ele><time>2026-05-02T15:48:34.344Z</time></trkpt><trkpt lat="32.5499306" lon="-110.5650956"><ele>944.0</ele><time>2026-05-02T15:48:35.344Z</time></trkpt><trkpt lat="32.5497659" lon="-110.5651544"><ele>944.0</ele><time>2026-05-02T15:48:36.344Z</time></trkpt><trkpt lat="32.5495977" lon="-110.5652191"><ele>944.6666666666667</ele><time>2026-05-02T15:48:37.343Z</time></trkpt><trkpt lat="32.549427" lon="-110.5652835"><ele>945.3333333333333</ele><time>2026-05-02T15:48:38.344Z</time></trkpt><trkpt lat="32.549251" lon="-110.5653435"><ele>946.0</ele><time>2026-05-02T15:48:39.344Z</time></trkpt><trkpt lat="32.5490712" lon="-110.5654074"><ele>947.0</ele><time>2026-05-02T15:48:40.344Z</time></trkpt><trkpt lat="32.5488901" lon="-110.5654731"><ele>948.0</ele><time>2026-05-02T15:48:41.344Z</time></trkpt><trkpt lat="32.5487097" lon="-110.5655452"><ele>949.0</ele><time>2026-05-02T15:48:42.343Z</time></trkpt><trkpt lat="32.5485306" lon="-110.5656164"><ele>949.0</ele><time>2026-05-02T15:48:43.344Z</time></trkpt><trkpt lat="32.5483545" lon="-110.5656834"><ele>949.0</ele><time>2026-05-02T15:48:44.343Z</time></trkpt><trkpt lat="32.5481773" lon="-110.565749"><ele>949.0</ele><time>2026-05-02T15:48:45.343Z</time></trkpt><trkpt lat="32.5480036" lon="-110.5658156"><ele>949.0</ele><time>2026-05-02T15:48:46.344Z</time></trkpt><trkpt lat="32.5478255" lon="-110.565882"><ele>949.0</ele><time>2026-05-02T15:48:47.343Z</time></trkpt><trkpt lat="32.5476564" lon="-110.5659508"><ele>949.0</ele><time>2026-05-02T15:48:48.343Z</time></trkpt><trkpt lat="32.5474906" lon="-110.5660122"><ele>949.0</ele><time>2026-05-02T15:48:49.345Z</time></trkpt><trkpt lat="32.5473313" lon="-110.5660743"><ele>949.0</ele><time>2026-05-02T15:48:50.344Z</time></trkpt><trkpt lat="32.5471835" lon="-110.5661324"><ele>949.0</ele><time>2026-05-02T15:48:51.344Z</time></trkpt><trkpt lat="32.5470378" lon="-110.5661839"><ele>949.75</ele><time>2026-05-02T15:48:52.345Z</time></trkpt><trkpt lat="32.5469058" lon="-110.5662232"><ele>950.5</ele><time>2026-05-02T15:48:53.343Z</time></trkpt><trkpt lat="32.5467812" lon="-110.5662594"><ele>951.25</ele><time>2026-05-02T15:48:54.344Z</time></trkpt><trkpt lat="32.5466515" lon="-110.5663008"><ele>952.0</ele><time>2026-05-02T15:48:55.345Z</time></trkpt><trkpt lat="32.546519" lon="-110.5663469"><ele>952.0</ele><time>2026-05-02T15:48:56.343Z</time></trkpt><trkpt lat="32.5463766" lon="-110.5664036"><ele>952.0</ele><time>2026-05-02T15:48:57.344Z</time></trkpt><trkpt lat="32.5462347" lon="-110.5664666"><ele>952.0</ele><time>2026-05-02T15:48:58.344Z</time></trkpt><trkpt lat="32.5460874" lon="-110.5665269"><ele>953.0</ele><time>2026-05-02T15:48:59.344Z</time></trkpt><trkpt lat="32.545935" lon="-110.5665873"><ele>954.0</ele><time>2026-05-02T15:49:00.345Z</time></trkpt><trkpt lat="32.5457788" lon="-110.5666466"><ele>955.0</ele><time>2026-05-02T15:49:01.344Z</time></trkpt><trkpt lat="32.5456189" lon="-110.5667037"><ele>955.0</ele><time>2026-05-02T15:49:02.344Z</time></trkpt><trkpt lat="32.545457" lon="-110.5667643"><ele>955.0</ele><time>2026-05-02T15:49:03.344Z</time></trkpt><trkpt lat="32.545286" lon="-110.5668293"><ele>955.0</ele><time>2026-05-02T15:49:04.345Z</time></trkpt><trkpt lat="32.5451174" lon="-110.5668995"><ele>955.0</ele><time>2026-05-02T15:49:05.343Z</time></trkpt><trkpt lat="32.544945" lon="-110.5669681"><ele>955.0</ele><time>2026-05-02T15:49:06.344Z</time></trkpt><trkpt lat="32.5447655" lon="-110.567035"><ele>955.0</ele><time>2026-05-02T15:49:07.345Z</time></trkpt><trkpt lat="32.5445858" lon="-110.5671036"><ele>955.6666666666666</ele><time>2026-05-02T15:49:08.344Z</time></trkpt><trkpt lat="32.5444041" lon="-110.5671698"><ele>956.3333333333333</ele><time>2026-05-02T15:49:09.343Z</time></trkpt><trkpt lat="32.5442238" lon="-110.567236"><ele>957.0</ele><time>2026-05-02T15:49:10.344Z</time></trkpt><trkpt lat="32.5440385" lon="-110.5673077"><ele>957.0</ele><time>2026-05-02T15:49:11.344Z</time></trkpt><trkpt lat="32.543856" lon="-110.567373"><ele>957.0</ele><time>2026-05-02T15:49:12.343Z</time></trkpt><trkpt lat="32.5436764" lon="-110.5674409"><ele>957.0</ele><time>2026-05-02T15:49:13.344Z</time></trkpt><trkpt lat="32.5434967" lon="-110.5675063"><ele>957.0</ele><time>2026-05-02T15:49:14.345Z</time></trkpt><trkpt lat="32.5433306" lon="-110.5675715"><ele>957.0</ele><time>2026-05-02T15:49:15.344Z</time></trkpt><trkpt lat="32.5431587" lon="-110.5676311"><ele>957.0</ele><time>2026-05-02T15:49:16.345Z</time></trkpt><trkpt lat="32.5429889" lon="-110.567683"><ele>957.3333333333333</ele><time>2026-05-02T15:49:17.344Z</time></trkpt><trkpt lat="32.5428287" lon="-110.5677368"><ele>957.6666666666666</ele><time>2026-05-02T15:49:18.345Z</time></trkpt><trkpt lat="32.5426795" lon="-110.5677874"><ele>958.0</ele><time>2026-05-02T15:49:19.344Z</time></trkpt><trkpt lat="32.5425473" lon="-110.567848"><ele>958.6666666666666</ele><time>2026-05-02T15:49:20.344Z</time></trkpt><trkpt lat="32.5424039" lon="-110.567903"><ele>959.3333333333333</ele><time>2026-05-02T15:49:21.345Z</time></trkpt><trkpt lat="32.5422537" lon="-110.5679632"><ele>960.0</ele><time>2026-05-02T15:49:22.344Z</time></trkpt><trkpt lat="32.542092" lon="-110.5680239"><ele>960.6666666666667</ele><time>2026-05-02T15:49:23.344Z</time></trkpt><trkpt lat="32.5419256" lon="-110.5680886"><ele>961.3333333333334</ele><time>2026-05-02T15:49:24.345Z</time></trkpt><trkpt lat="32.5417529" lon="-110.568153"><ele>962.0</ele><time>2026-05-02T15:49:25.345Z</time></trkpt><trkpt lat="32.5415753" lon="-110.5682226"><ele>962.0</ele><time>2026-05-02T15:49:26.344Z</time></trkpt><trkpt lat="32.5413992" lon="-110.5682923"><ele>962.0</ele><time>2026-05-02T15:49:27.345Z</time></trkpt><trkpt lat="32.5412204" lon="-110.5683614"><ele>962.0</ele><time>2026-05-02T15:49:28.344Z</time></trkpt><trkpt lat="32.5410368" lon="-110.5684289"><ele>962.3333333333334</ele><time>2026-05-02T15:49:29.345Z</time></trkpt><trkpt lat="32.5408554" lon="-110.5684989"><ele>962.6666666666667</ele><time>2026-05-02T15:49:30.345Z</time></trkpt><trkpt lat="32.5406739" lon="-110.5685734"><ele>963.0</ele><time>2026-05-02T15:49:31.344Z</time></trkpt><trkpt lat="32.5404887" lon="-110.568643"><ele>964.0</ele><time>2026-05-02T15:49:32.344Z</time></trkpt><trkpt lat="32.5403076" lon="-110.5687167"><ele>965.0</ele><time>2026-05-02T15:49:33.344Z</time></trkpt><trkpt lat="32.5401249" lon="-110.5687891"><ele>966.0</ele><time>2026-05-02T15:49:34.344Z</time></trkpt><trkpt lat="32.53994" lon="-110.5688582"><ele>966.0</ele><time>2026-05-02T15:49:35.344Z</time></trkpt><trkpt lat="32.5397522" lon="-110.568925"><ele>966.0</ele><time>2026-05-02T15:49:36.344Z</time></trkpt><trkpt lat="32.539567" lon="-110.5689882"><ele>966.0</ele><time>2026-05-02T15:49:37.344Z</time></trkpt><trkpt lat="32.5393797" lon="-110.5690514"><ele>967.3333333333333</ele><time>2026-05-02T15:49:38.345Z</time></trkpt><trkpt lat="32.5391902" lon="-110.5691172"><ele>968.6666666666666</ele><time>2026-05-02T15:49:39.345Z</time></trkpt><trkpt lat="32.5390031" lon="-110.5691841"><ele>970.0</ele><time>2026-05-02T15:49:40.345Z</time></trkpt><trkpt lat="32.5388179" lon="-110.5692581"><ele>970.6666666666666</ele><time>2026-05-02T15:49:41.344Z</time></trkpt><trkpt lat="32.5386332" lon="-110.5693306"><ele>971.3333333333333</ele><time>2026-05-02T15:49:42.344Z</time></trkpt><trkpt lat="32.5384453" lon="-110.5694012"><ele>972.0</ele><time>2026-05-02T15:49:43.345Z</time></trkpt><trkpt lat="32.5382537" lon="-110.5694683"><ele>972.6666666666667</ele><time>2026-05-02T15:49:44.345Z</time></trkpt><trkpt lat="32.5380611" lon="-110.5695406"><ele>973.3333333333334</ele><time>2026-05-02T15:49:45.344Z</time></trkpt><trkpt lat="32.5378732" lon="-110.5696156"><ele>974.0</ele><time>2026-05-02T15:49:46.345Z</time></trkpt><trkpt lat="32.5376887" lon="-110.5696857"><ele>975.0</ele><time>2026-05-02T15:49:47.344Z</time></trkpt><trkpt lat="32.5375066" lon="-110.5697545"><ele>976.0</ele><time>2026-05-02T15:49:48.344Z</time></trkpt><trkpt lat="32.5373208" lon="-110.5698164"><ele>977.0</ele><time>2026-05-02T15:49:49.345Z</time></trkpt><trkpt lat="32.5371441" lon="-110.5698779"><ele>978.3333333333334</ele><time>2026-05-02T15:49:50.345Z</time></trkpt><trkpt lat="32.5369692" lon="-110.5699364"><ele>979.6666666666667</ele><time>2026-05-02T15:49:51.344Z</time></trkpt><trkpt lat="32.5367976" lon="-110.5699883"><ele>981.0</ele><time>2026-05-02T15:49:52.344Z</time></trkpt><trkpt lat="32.5366344" lon="-110.5700378"><ele>981.0</ele><time>2026-05-02T15:49:53.345Z</time></trkpt><trkpt lat="32.536467" lon="-110.5700885"><ele>981.0</ele><time>2026-05-02T15:49:54.345Z</time></trkpt><trkpt lat="32.5362938" lon="-110.5701449"><ele>981.0</ele><time>2026-05-02T15:49:55.345Z</time></trkpt><trkpt lat="32.536127" lon="-110.5702034"><ele>981.6666666666667</ele><time>2026-05-02T15:49:56.344Z</time></trkpt><trkpt lat="32.5359639" lon="-110.5702633"><ele>982.3333333333334</ele><time>2026-05-02T15:49:57.344Z</time></trkpt><trkpt lat="32.5358014" lon="-110.5703279"><ele>983.0</ele><time>2026-05-02T15:49:58.345Z</time></trkpt><trkpt lat="32.5356401" lon="-110.5703927"><ele>983.0</ele><time>2026-05-02T15:49:59.345Z</time></trkpt><trkpt lat="32.5354815" lon="-110.5704574"><ele>983.0</ele><time>2026-05-02T15:50:00.345Z</time></trkpt><trkpt lat="32.5353188" lon="-110.5705281"><ele>983.0</ele><time>2026-05-02T15:50:01.344Z</time></trkpt><trkpt lat="32.5351531" lon="-110.5705903"><ele>980.0</ele><time>2026-05-02T15:50:02.344Z</time></trkpt><trkpt lat="32.534986" lon="-110.5706557"><ele>977.0</ele><time>2026-05-02T15:50:03.345Z</time></trkpt><trkpt lat="32.5348059" lon="-110.5707198"><ele>974.0</ele><time>2026-05-02T15:50:04.345Z</time></trkpt><trkpt lat="32.5346189" lon="-110.5707821"><ele>974.0</ele><time>2026-05-02T15:50:05.345Z</time></trkpt><trkpt lat="32.5344328" lon="-110.5708539"><ele>974.0</ele><time>2026-05-02T15:50:06.344Z</time></trkpt><trkpt lat="32.5342485" lon="-110.5709351"><ele>974.0</ele><time>2026-05-02T15:50:07.344Z</time></trkpt><trkpt lat="32.5340702" lon="-110.5710111"><ele>974.0</ele><time>2026-05-02T15:50:08.344Z</time></trkpt><trkpt lat="32.5338976" lon="-110.5710807"><ele>974.0</ele><time>2026-05-02T15:50:09.344Z</time></trkpt><trkpt lat="32.5337251" lon="-110.571149"><ele>974.0</ele><time>2026-05-02T15:50:10.344Z</time></trkpt><trkpt lat="32.533557" lon="-110.5712142"><ele>974.6666666666667</ele><time>2026-05-02T15:50:11.345Z</time></trkpt><trkpt lat="32.5333905" lon="-110.5712766"><ele>975.3333333333333</ele><time>2026-05-02T15:50:12.344Z</time></trkpt><trkpt lat="32.5332194" lon="-110.5713381"><ele>976.0</ele><time>2026-05-02T15:50:13.345Z</time></trkpt><trkpt lat="32.5330501" lon="-110.5714032"><ele>974.3333333333333</ele><time>2026-05-02T15:50:14.344Z</time></trkpt><trkpt lat="32.5328752" lon="-110.5714697"><ele>972.6666666666667</ele><time>2026-05-02T15:50:15.344Z</time></trkpt><trkpt lat="32.5326979" lon="-110.5715313"><ele>971.0</ele><time>2026-05-02T15:50:16.345Z</time></trkpt><trkpt lat="32.532528" lon="-110.5716034"><ele>971.0</ele><time>2026-05-02T15:50:17.345Z</time></trkpt><trkpt lat="32.5323519" lon="-110.5716698"><ele>971.0</ele><time>2026-05-02T15:50:18.345Z</time></trkpt><trkpt lat="32.5321752" lon="-110.5717337"><ele>971.0</ele><time>2026-05-02T15:50:19.344Z</time></trkpt><trkpt lat="32.5320036" lon="-110.5718026"><ele>970.3333333333334</ele><time>2026-05-02T15:50:20.344Z</time></trkpt><trkpt lat="32.5318379" lon="-110.5718654"><ele>969.6666666666667</ele><time>2026-05-02T15:50:21.344Z</time></trkpt><trkpt lat="32.5316809" lon="-110.5719292"><ele>969.0</ele><time>2026-05-02T15:50:22.345Z</time></trkpt><trkpt lat="32.5315221" lon="-110.571976"><ele>969.0</ele><time>2026-05-02T15:50:23.345Z</time></trkpt><trkpt lat="32.5313625" lon="-110.5720137"><ele>969.0</ele><time>2026-05-02T15:50:24.345Z</time></trkpt><trkpt lat="32.5311998" lon="-110.5720565"><ele>969.0</ele><time>2026-05-02T15:50:25.345Z</time></trkpt><trkpt lat="32.5310323" lon="-110.572116"><ele>970.6666666666667</ele><time>2026-05-02T15:50:26.345Z</time></trkpt><trkpt lat="32.530863" lon="-110.5721813"><ele>972.3333333333334</ele><time>2026-05-02T15:50:27.346Z</time></trkpt><trkpt lat="32.5306951" lon="-110.5722501"><ele>974.0</ele><time>2026-05-02T15:50:28.344Z</time></trkpt><trkpt lat="32.5305254" lon="-110.5723187"><ele>975.0</ele><time>2026-05-02T15:50:29.346Z</time></trkpt><trkpt lat="32.5303513" lon="-110.5723808"><ele>976.0</ele><time>2026-05-02T15:50:30.346Z</time></trkpt><trkpt lat="32.5301765" lon="-110.5724378"><ele>977.0</ele><time>2026-05-02T15:50:31.346Z</time></trkpt><trkpt lat="32.5300078" lon="-110.5725004"><ele>977.0</ele><time>2026-05-02T15:50:32.345Z</time></trkpt><trkpt lat="32.5298442" lon="-110.5725661"><ele>977.0</ele><time>2026-05-02T15:50:33.346Z</time></trkpt><trkpt lat="32.5296903" lon="-110.5726328"><ele>977.0</ele><time>2026-05-02T15:50:34.346Z</time></trkpt><trkpt lat="32.5295359" lon="-110.5726977"><ele>980.3333333333334</ele><time>2026-05-02T15:50:35.346Z</time></trkpt><trkpt lat="32.5293853" lon="-110.5727622"><ele>983.6666666666667</ele><time>2026-05-02T15:50:36.346Z</time></trkpt><trkpt lat="32.5292383" lon="-110.5728217"><ele>987.0</ele><time>2026-05-02T15:50:37.344Z</time></trkpt><trkpt lat="32.5290932" lon="-110.5728738"><ele>987.0</ele><time>2026-05-02T15:50:38.346Z</time></trkpt><trkpt lat="32.5289514" lon="-110.572922"><ele>987.0</ele><time>2026-05-02T15:50:39.345Z</time></trkpt><trkpt lat="32.5288125" lon="-110.5729762"><ele>987.0</ele><time>2026-05-02T15:50:40.345Z</time></trkpt><trkpt lat="32.5286751" lon="-110.5730351"><ele>987.0</ele><time>2026-05-02T15:50:41.345Z</time></trkpt><trkpt lat="32.5285384" lon="-110.5731015"><ele>990.6666666666667</ele><time>2026-05-02T15:50:42.344Z</time></trkpt><trkpt lat="32.5283997" lon="-110.5731677"><ele>994.3333333333334</ele><time>2026-05-02T15:50:43.345Z</time></trkpt><trkpt lat="32.528258" lon="-110.5732325"><ele>998.0</ele><time>2026-05-02T15:50:44.344Z</time></trkpt><trkpt lat="32.5281148" lon="-110.5732939"><ele>998.0</ele><time>2026-05-02T15:50:45.345Z</time></trkpt><trkpt lat="32.527971" lon="-110.5733493"><ele>998.0</ele><time>2026-05-02T15:50:46.344Z</time></trkpt><trkpt lat="32.5278299" lon="-110.573388"><ele>998.0</ele><time>2026-05-02T15:50:47.344Z</time></trkpt><trkpt lat="32.5276916" lon="-110.5734027"><ele>998.0</ele><time>2026-05-02T15:50:48.345Z</time></trkpt><trkpt lat="32.5275545" lon="-110.5733894"><ele>999.0</ele><time>2026-05-02T15:50:49.345Z</time></trkpt><trkpt lat="32.5274111" lon="-110.5733434"><ele>1000.0</ele><time>2026-05-02T15:50:50.344Z</time></trkpt><trkpt lat="32.5272631" lon="-110.5732803"><ele>1001.0</ele><time>2026-05-02T15:50:51.345Z</time></trkpt><trkpt lat="32.5271097" lon="-110.5731962"><ele>1001.0</ele><time>2026-05-02T15:50:52.345Z</time></trkpt><trkpt lat="32.5269445" lon="-110.5731073"><ele>1001.0</ele><time>2026-05-02T15:50:53.345Z</time></trkpt><trkpt lat="32.5267746" lon="-110.5730109"><ele>1001.0</ele><time>2026-05-02T15:50:54.345Z</time></trkpt><trkpt lat="32.5265974" lon="-110.5729091"><ele>1000.6666666666667</ele><time>2026-05-02T15:50:55.345Z</time></trkpt><trkpt lat="32.526414" lon="-110.5728052"><ele>1000.3333333333333</ele><time>2026-05-02T15:50:56.345Z</time></trkpt><trkpt lat="32.5262305" lon="-110.5727045"><ele>1000.0</ele><time>2026-05-02T15:50:57.344Z</time></trkpt><trkpt lat="32.5260469" lon="-110.5726059"><ele>999.6666666666666</ele><time>2026-05-02T15:50:58.346Z</time></trkpt><trkpt lat="32.5258628" lon="-110.572504"><ele>999.3333333333333</ele><time>2026-05-02T15:50:59.345Z</time></trkpt><trkpt lat="32.5256782" lon="-110.5724007"><ele>999.0</ele><time>2026-05-02T15:51:00.346Z</time></trkpt><trkpt lat="32.5254997" lon="-110.5722956"><ele>999.0</ele><time>2026-05-02T15:51:01.346Z</time></trkpt><trkpt lat="32.5253192" lon="-110.572193"><ele>999.0</ele><time>2026-05-02T15:51:02.345Z</time></trkpt><trkpt lat="32.5251396" lon="-110.5720944"><ele>999.0</ele><time>2026-05-02T15:51:03.346Z</time></trkpt><trkpt lat="32.5249646" lon="-110.5719986"><ele>999.0</ele><time>2026-05-02T15:51:04.345Z</time></trkpt><trkpt lat="32.5247962" lon="-110.5719011"><ele>999.0</ele><time>2026-05-02T15:51:05.346Z</time></trkpt><trkpt lat="32.5246384" lon="-110.5718075"><ele>999.0</ele><time>2026-05-02T15:51:06.346Z</time></trkpt><trkpt lat="32.5244893" lon="-110.5717193"><ele>998.3333333333333</ele><time>2026-05-02T15:51:07.346Z</time></trkpt><trkpt lat="32.524341" lon="-110.5716368"><ele>997.6666666666666</ele><time>2026-05-02T15:51:08.345Z</time></trkpt><trkpt lat="32.524197" lon="-110.5715574"><ele>997.0</ele><time>2026-05-02T15:51:09.345Z</time></trkpt><trkpt lat="32.5240561" lon="-110.5714826"><ele>997.0</ele><time>2026-05-02T15:51:10.345Z</time></trkpt><trkpt lat="32.5239062" lon="-110.5714092"><ele>997.0</ele><time>2026-05-02T15:51:11.346Z</time></trkpt><trkpt lat="32.5237457" lon="-110.5713305"><ele>997.0</ele><time>2026-05-02T15:51:12.346Z</time></trkpt><trkpt lat="32.523571" lon="-110.5712445"><ele>994.0</ele><time>2026-05-02T15:51:13.345Z</time></trkpt><trkpt lat="32.5233963" lon="-110.5711521"><ele>991.0</ele><time>2026-05-02T15:51:14.345Z</time></trkpt><trkpt lat="32.5232263" lon="-110.5710564"><ele>988.0</ele><time>2026-05-02T15:51:15.346Z</time></trkpt><trkpt lat="32.5230639" lon="-110.5709609"><ele>988.0</ele><time>2026-05-02T15:51:16.345Z</time></trkpt><trkpt lat="32.5229085" lon="-110.5708703"><ele>988.0</ele><time>2026-05-02T15:51:17.345Z</time></trkpt><trkpt lat="32.5227589" lon="-110.5707924"><ele>988.0</ele><time>2026-05-02T15:51:18.346Z</time></trkpt><trkpt lat="32.5226197" lon="-110.5707266"><ele>988.0</ele><time>2026-05-02T15:51:19.345Z</time></trkpt><trkpt lat="32.5224808" lon="-110.5706522"><ele>988.0</ele><time>2026-05-02T15:51:20.345Z</time></trkpt><trkpt lat="32.5223491" lon="-110.5705732"><ele>988.0</ele><time>2026-05-02T15:51:21.346Z</time></trkpt><trkpt lat="32.522209" lon="-110.5704856"><ele>988.0</ele><time>2026-05-02T15:51:22.345Z</time></trkpt><trkpt lat="32.522071" lon="-110.5704066"><ele>988.0</ele><time>2026-05-02T15:51:23.346Z</time></trkpt><trkpt lat="32.5219325" lon="-110.5703313"><ele>988.0</ele><time>2026-05-02T15:51:24.345Z</time></trkpt><trkpt lat="32.5217977" lon="-110.5702627"><ele>990.0</ele><time>2026-05-02T15:51:25.345Z</time></trkpt><trkpt lat="32.5216628" lon="-110.5701962"><ele>992.0</ele><time>2026-05-02T15:51:26.345Z</time></trkpt><trkpt lat="32.5215276" lon="-110.5701315"><ele>994.0</ele><time>2026-05-02T15:51:27.346Z</time></trkpt><trkpt lat="32.5213868" lon="-110.5700547"><ele>996.0</ele><time>2026-05-02T15:51:28.346Z</time></trkpt><trkpt lat="32.5212403" lon="-110.5699741"><ele>996.3333333333333</ele><time>2026-05-02T15:51:29.345Z</time></trkpt><trkpt lat="32.5210884" lon="-110.5698861"><ele>996.6666666666666</ele><time>2026-05-02T15:51:30.346Z</time></trkpt><trkpt lat="32.5209342" lon="-110.5697973"><ele>997.0</ele><time>2026-05-02T15:51:31.345Z</time></trkpt><trkpt lat="32.5207736" lon="-110.5697127"><ele>997.0</ele><time>2026-05-02T15:51:32.345Z</time></trkpt><trkpt lat="32.5206091" lon="-110.5696254"><ele>997.0</ele><time>2026-05-02T15:51:33.346Z</time></trkpt><trkpt lat="32.5204379" lon="-110.5695374"><ele>997.0</ele><time>2026-05-02T15:51:34.345Z</time></trkpt><trkpt lat="32.520269" lon="-110.569448"><ele>996.0</ele><time>2026-05-02T15:51:35.346Z</time></trkpt><trkpt lat="32.5201038" lon="-110.5693605"><ele>995.0</ele><time>2026-05-02T15:51:36.346Z</time></trkpt><trkpt lat="32.5199403" lon="-110.5692694"><ele>994.0</ele><time>2026-05-02T15:51:37.346Z</time></trkpt><trkpt lat="32.5197771" lon="-110.5691761"><ele>994.0</ele><time>2026-05-02T15:51:38.346Z</time></trkpt><trkpt lat="32.5196146" lon="-110.5690813"><ele>994.0</ele><time>2026-05-02T15:51:39.346Z</time></trkpt><trkpt lat="32.5194522" lon="-110.5689846"><ele>994.0</ele><time>2026-05-02T15:51:40.346Z</time></trkpt><trkpt lat="32.5192895" lon="-110.5688891"><ele>995.3333333333333</ele><time>2026-05-02T15:51:41.346Z</time></trkpt><trkpt lat="32.5191275" lon="-110.5687957"><ele>996.6666666666667</ele><time>2026-05-02T15:51:42.346Z</time></trkpt><trkpt lat="32.5189644" lon="-110.5687074"><ele>998.0</ele><time>2026-05-02T15:51:43.345Z</time></trkpt><trkpt lat="32.5187998" lon="-110.5686184"><ele>997.3333333333334</ele><time>2026-05-02T15:51:44.345Z</time></trkpt><trkpt lat="32.5186346" lon="-110.5685266"><ele>996.6666666666667</ele><time>2026-05-02T15:51:45.345Z</time></trkpt><trkpt lat="32.5184658" lon="-110.5684325"><ele>996.0</ele><time>2026-05-02T15:51:46.345Z</time></trkpt><trkpt lat="32.5182929" lon="-110.5683385"><ele>996.0</ele><time>2026-05-02T15:51:47.346Z</time></trkpt><trkpt lat="32.5181145" lon="-110.5682429"><ele>996.0</ele><time>2026-05-02T15:51:48.345Z</time></trkpt><trkpt lat="32.5179364" lon="-110.5681447"><ele>996.0</ele><time>2026-05-02T15:51:49.345Z</time></trkpt><trkpt lat="32.5177545" lon="-110.5680486"><ele>996.0</ele><time>2026-05-02T15:51:50.346Z</time></trkpt><trkpt lat="32.5175733" lon="-110.5679506"><ele>996.0</ele><time>2026-05-02T15:51:51.347Z</time></trkpt><trkpt lat="32.5173902" lon="-110.567851"><ele>996.0</ele><time>2026-05-02T15:51:52.345Z</time></trkpt><trkpt lat="32.5172056" lon="-110.5677499"><ele>996.6666666666667</ele><time>2026-05-02T15:51:53.346Z</time></trkpt><trkpt lat="32.5170223" lon="-110.5676473"><ele>997.3333333333334</ele><time>2026-05-02T15:51:54.346Z</time></trkpt><trkpt lat="32.5168405" lon="-110.5675426"><ele>998.0</ele><time>2026-05-02T15:51:55.345Z</time></trkpt><trkpt lat="32.5166617" lon="-110.5674385"><ele>998.0</ele><time>2026-05-02T15:51:56.346Z</time></trkpt><trkpt lat="32.5164836" lon="-110.5673385"><ele>998.0</ele><time>2026-05-02T15:51:57.345Z</time></trkpt><trkpt lat="32.5163095" lon="-110.5672408"><ele>998.0</ele><time>2026-05-02T15:51:58.346Z</time></trkpt><trkpt lat="32.5161383" lon="-110.5671439"><ele>997.6666666666667</ele><time>2026-05-02T15:51:59.346Z</time></trkpt><trkpt lat="32.5159665" lon="-110.567048"><ele>997.3333333333333</ele><time>2026-05-02T15:52:00.345Z</time></trkpt><trkpt lat="32.5157963" lon="-110.5669503"><ele>997.0</ele><time>2026-05-02T15:52:01.347Z</time></trkpt><trkpt lat="32.5156269" lon="-110.5668572"><ele>996.3333333333333</ele><time>2026-05-02T15:52:02.347Z</time></trkpt><trkpt lat="32.5154672" lon="-110.5667707"><ele>995.6666666666667</ele><time>2026-05-02T15:52:03.346Z</time></trkpt><trkpt lat="32.5153189" lon="-110.5666905"><ele>995.0</ele><time>2026-05-02T15:52:04.347Z</time></trkpt><trkpt lat="32.5151788" lon="-110.5666155"><ele>994.3333333333334</ele><time>2026-05-02T15:52:05.347Z</time></trkpt><trkpt lat="32.51504" lon="-110.5665428"><ele>993.6666666666667</ele><time>2026-05-02T15:52:06.347Z</time></trkpt><trkpt lat="32.5148978" lon="-110.5664701"><ele>993.0</ele><time>2026-05-02T15:52:07.346Z</time></trkpt><trkpt lat="32.5147631" lon="-110.5663973"><ele>993.0</ele><time>2026-05-02T15:52:08.345Z</time></trkpt><trkpt lat="32.5146295" lon="-110.5663276"><ele>993.0</ele><time>2026-05-02T15:52:09.346Z</time></trkpt><trkpt lat="32.5145005" lon="-110.5662639"><ele>993.0</ele><time>2026-05-02T15:52:10.347Z</time></trkpt><trkpt lat="32.5143754" lon="-110.5662171"><ele>993.0</ele><time>2026-05-02T15:52:11.346Z</time></trkpt><trkpt lat="32.5142491" lon="-110.5661928"><ele>992.0</ele><time>2026-05-02T15:52:12.346Z</time></trkpt><trkpt lat="32.5141197" lon="-110.5661956"><ele>991.0</ele><time>2026-05-02T15:52:13.345Z</time></trkpt><trkpt lat="32.5139918" lon="-110.5662239"><ele>990.0</ele><time>2026-05-02T15:52:14.345Z</time></trkpt><trkpt lat="32.5138788" lon="-110.5662802"><ele>989.0</ele><time>2026-05-02T15:52:15.346Z</time></trkpt><trkpt lat="32.5137815" lon="-110.5663489"><ele>986.5</ele><time>2026-05-02T15:52:16.346Z</time></trkpt><trkpt lat="32.5136945" lon="-110.5664235"><ele>984.0</ele><time>2026-05-02T15:52:17.346Z</time></trkpt><trkpt lat="32.5136328" lon="-110.5665291"><ele>981.5</ele><time>2026-05-02T15:52:18.346Z</time></trkpt><trkpt lat="32.5136006" lon="-110.5666724"><ele>979.0</ele><time>2026-05-02T15:52:19.345Z</time></trkpt><trkpt lat="32.513577" lon="-110.5668153"><ele>979.0</ele><time>2026-05-02T15:52:20.347Z</time></trkpt><trkpt lat="32.513568" lon="-110.5669626"><ele>979.0</ele><time>2026-05-02T15:52:21.345Z</time></trkpt><trkpt lat="32.5135692" lon="-110.5671141"><ele>979.0</ele><time>2026-05-02T15:52:22.347Z</time></trkpt><trkpt lat="32.5135783" lon="-110.5672654"><ele>979.0</ele><time>2026-05-02T15:52:23.345Z</time></trkpt><trkpt lat="32.5135842" lon="-110.5674088"><ele>979.5</ele><time>2026-05-02T15:52:24.347Z</time></trkpt><trkpt lat="32.5135759" lon="-110.5675438"><ele>980.0</ele><time>2026-05-02T15:52:25.345Z</time></trkpt><trkpt lat="32.5135486" lon="-110.567677"><ele>980.5</ele><time>2026-05-02T15:52:26.346Z</time></trkpt><trkpt lat="32.5135009" lon="-110.5678172"><ele>981.0</ele><time>2026-05-02T15:52:27.346Z</time></trkpt><trkpt lat="32.5134372" lon="-110.5679606"><ele>981.0</ele><time>2026-05-02T15:52:28.346Z</time></trkpt><trkpt lat="32.5133641" lon="-110.5680957"><ele>981.0</ele><time>2026-05-02T15:52:29.346Z</time></trkpt><trkpt lat="32.513294" lon="-110.5682262"><ele>981.0</ele><time>2026-05-02T15:52:30.346Z</time></trkpt><trkpt lat="32.51323" lon="-110.5683569"><ele>981.0</ele><time>2026-05-02T15:52:31.346Z</time></trkpt><trkpt lat="32.5131774" lon="-110.5684844"><ele>981.0</ele><time>2026-05-02T15:52:32.346Z</time></trkpt><trkpt lat="32.513135" lon="-110.5686059"><ele>980.9999999999999</ele><time>2026-05-02T15:52:33.346Z</time></trkpt><trkpt lat="32.5131021" lon="-110.5687237"><ele>980.9999999999999</ele><time>2026-05-02T15:52:34.347Z</time></trkpt><trkpt lat="32.5130675" lon="-110.5688286"><ele>981.0</ele><time>2026-05-02T15:52:35.346Z</time></trkpt><trkpt lat="32.5130249" lon="-110.5689195"><ele>981.0</ele><time>2026-05-02T15:52:36.346Z</time></trkpt><trkpt lat="32.5129759" lon="-110.5690001"><ele>981.0</ele><time>2026-05-02T15:52:37.346Z</time></trkpt><trkpt lat="32.5129179" lon="-110.5690667"><ele>981.0</ele><time>2026-05-02T15:52:38.346Z</time></trkpt><trkpt lat="32.5128545" lon="-110.569117"><ele>981.0</ele><time>2026-05-02T15:52:39.346Z</time></trkpt><trkpt lat="32.5127802" lon="-110.5691524"><ele>981.0</ele><time>2026-05-02T15:52:40.347Z</time></trkpt><trkpt lat="32.5127053" lon="-110.5691726"><ele>981.0</ele><time>2026-05-02T15:52:41.346Z</time></trkpt><trkpt lat="32.5126337" lon="-110.5691813"><ele>981.0</ele><time>2026-05-02T15:52:42.346Z</time></trkpt><trkpt lat="32.5125323" lon="-110.5691562"><ele>979.8</ele><time>2026-05-02T15:52:44.347Z</time></trkpt><trkpt lat="32.512483" lon="-110.5690935"><ele>978.5999999999999</ele><time>2026-05-02T15:59:20.35Z</time></trkpt><trkpt lat="32.5124134" lon="-110.5690014"><ele>977.4</ele><time>2026-05-02T15:59:22.35Z</time></trkpt><trkpt lat="32.5123676" lon="-110.5689148"><ele>976.2</ele><time>2026-05-02T15:59:23.35Z</time></trkpt><trkpt lat="32.5123157" lon="-110.5688159"><ele>975.0</ele><time>2026-05-02T15:59:24.351Z</time></trkpt><trkpt lat="32.5122552" lon="-110.5687032"><ele>974.25</ele><time>2026-05-02T15:59:25.351Z</time></trkpt><trkpt lat="32.5121943" lon="-110.5685882"><ele>973.5</ele><time>2026-05-02T15:59:26.351Z</time></trkpt><trkpt lat="32.5121352" lon="-110.5684608"><ele>972.75</ele><time>2026-05-02T15:59:27.351Z</time></trkpt><trkpt lat="32.5120773" lon="-110.5683221"><ele>972.0</ele><time>2026-05-02T15:59:28.35Z</time></trkpt><trkpt lat="32.5120256" lon="-110.5681798"><ele>975.0</ele><time>2026-05-02T15:59:29.35Z</time></trkpt><trkpt lat="32.5119814" lon="-110.5680369"><ele>978.0</ele><time>2026-05-02T15:59:30.351Z</time></trkpt><trkpt lat="32.5119471" lon="-110.567895"><ele>981.0</ele><time>2026-05-02T15:59:31.35Z</time></trkpt><trkpt lat="32.5119121" lon="-110.5677558"><ele>984.0</ele><time>2026-05-02T15:59:32.351Z</time></trkpt><trkpt lat="32.5118757" lon="-110.5676171"><ele>984.0</ele><time>2026-05-02T15:59:33.35Z</time></trkpt><trkpt lat="32.5118314" lon="-110.5674833"><ele>984.0</ele><time>2026-05-02T15:59:34.35Z</time></trkpt><trkpt lat="32.5117936" lon="-110.5673455"><ele>984.0</ele><time>2026-05-02T15:59:35.351Z</time></trkpt><trkpt lat="32.5117585" lon="-110.5672174"><ele>984.0</ele><time>2026-05-02T15:59:36.351Z</time></trkpt><trkpt lat="32.5117351" lon="-110.5670935"><ele>984.0</ele><time>2026-05-02T15:59:37.35Z</time></trkpt><trkpt lat="32.5117301" lon="-110.5669689"><ele>984.0</ele><time>2026-05-02T15:59:38.35Z</time></trkpt><trkpt lat="32.5117452" lon="-110.5668357"><ele>984.0</ele><time>2026-05-02T15:59:39.351Z</time></trkpt><trkpt lat="32.5117722" lon="-110.5666996"><ele>984.0</ele><time>2026-05-02T15:59:40.351Z</time></trkpt><trkpt lat="32.5118031" lon="-110.5665592"><ele>984.0</ele><time>2026-05-02T15:59:41.35Z</time></trkpt><trkpt lat="32.5118349" lon="-110.5664197"><ele>984.0000000000001</ele><time>2026-05-02T15:59:42.35Z</time></trkpt><trkpt lat="32.5118669" lon="-110.5662886"><ele>984.0000000000001</ele><time>2026-05-02T15:59:43.35Z</time></trkpt><trkpt lat="32.5118943" lon="-110.5661722"><ele>984.0</ele><time>2026-05-02T15:59:44.35Z</time></trkpt><trkpt lat="32.5119135" lon="-110.5660779"><ele>984.0</ele><time>2026-05-02T15:59:45.351Z</time></trkpt><trkpt lat="32.5119226" lon="-110.5659972"><ele>984.1666666666666</ele><time>2026-05-02T15:59:46.351Z</time></trkpt><trkpt lat="32.5118941" lon="-110.5658673"><ele>984.3333333333333</ele><time>2026-05-02T15:59:48.35Z</time></trkpt><trkpt lat="32.511795" lon="-110.5657903"><ele>984.5</ele><time>2026-05-02T15:59:50.351Z</time></trkpt><trkpt lat="32.5117269" lon="-110.5657893"><ele>984.6666666666666</ele><time>2026-05-02T15:59:51.35Z</time></trkpt><trkpt lat="32.51166" lon="-110.5658116"><ele>984.8333333333333</ele><time>2026-05-02T15:59:52.351Z</time></trkpt><trkpt lat="32.5116003" lon="-110.5658571"><ele>985.0</ele><time>2026-05-02T15:59:53.352Z</time></trkpt><trkpt lat="32.5115623" lon="-110.565925"><ele>984.9999999999999</ele><time>2026-05-02T15:59:54.351Z</time></trkpt><trkpt lat="32.511537" lon="-110.5660105"><ele>985.0</ele><time>2026-05-02T15:59:55.351Z</time></trkpt><trkpt lat="32.5115245" lon="-110.5661063"><ele>985.0</ele><time>2026-05-02T15:59:56.352Z</time></trkpt><trkpt lat="32.5115255" lon="-110.5662098"><ele>985.0</ele><time>2026-05-02T15:59:57.351Z</time></trkpt><trkpt lat="32.5115337" lon="-110.5663308"><ele>984.9999999999999</ele><time>2026-05-02T15:59:58.35Z</time></trkpt><trkpt lat="32.5115386" lon="-110.566451"><ele>985.0</ele><time>2026-05-02T15:59:59.351Z</time></trkpt><trkpt lat="32.5115314" lon="-110.5665624"><ele>984.8571428571429</ele><time>2026-05-02T16:00:00.35Z</time></trkpt><trkpt lat="32.5115088" lon="-110.5666587"><ele>984.7142857142858</ele><time>2026-05-02T16:00:01.35Z</time></trkpt><trkpt lat="32.5114789" lon="-110.5667422"><ele>984.5714285714287</ele><time>2026-05-02T16:00:02.351Z</time></trkpt><trkpt lat="32.5114452" lon="-110.5668239"><ele>984.4285714285716</ele><time>2026-05-02T16:00:03.352Z</time></trkpt><trkpt lat="32.5114122" lon="-110.5668992"><ele>984.2857142857143</ele><time>2026-05-02T16:00:04.35Z</time></trkpt><trkpt lat="32.5113831" lon="-110.5669697"><ele>984.1428571428573</ele><time>2026-05-02T16:00:05.351Z</time></trkpt><trkpt lat="32.511357" lon="-110.5670454"><ele>984.0000000000001</ele><time>2026-05-02T16:00:06.351Z</time></trkpt><trkpt lat="32.5113115" lon="-110.5672077"><ele>984.0</ele><time>2026-05-02T16:00:08.351Z</time></trkpt><trkpt lat="32.5112923" lon="-110.5672916"><ele>984.0</ele><time>2026-05-02T16:00:09.35Z</time></trkpt><trkpt lat="32.5112769" lon="-110.5673727"><ele>984.0</ele><time>2026-05-02T16:00:10.351Z</time></trkpt><trkpt lat="32.5112636" lon="-110.5674484"><ele>984.0</ele><time>2026-05-02T16:00:11.351Z</time></trkpt><trkpt lat="32.5112404" lon="-110.5675869"><ele>984.0</ele><time>2026-05-02T16:00:13.351Z</time></trkpt><trkpt lat="32.5112235" lon="-110.5676946"><ele>984.0</ele><time>2026-05-02T16:00:15.351Z</time></trkpt><trkpt lat="32.5112118" lon="-110.5677728"><ele>985.2</ele><time>2026-05-02T16:00:17.351Z</time></trkpt><trkpt lat="32.5112011" lon="-110.5678877"><ele>986.4000000000001</ele><time>2026-05-02T16:00:22.351Z</time></trkpt><trkpt lat="32.5111912" lon="-110.5680372"><ele>987.6</ele><time>2026-05-02T16:00:24.352Z</time></trkpt><trkpt lat="32.5111832" lon="-110.5681318"><ele>988.8</ele><time>2026-05-02T16:00:25.351Z</time></trkpt><trkpt lat="32.5111757" lon="-110.5682368"><ele>990.0</ele><time>2026-05-02T16:00:26.352Z</time></trkpt><trkpt lat="32.511168" lon="-110.568357"><ele>990.0</ele><time>2026-05-02T16:00:27.351Z</time></trkpt><trkpt lat="32.5111601" lon="-110.5684875"><ele>990.0</ele><time>2026-05-02T16:00:28.351Z</time></trkpt><trkpt lat="32.5111525" lon="-110.5686306"><ele>990.0</ele><time>2026-05-02T16:00:29.352Z</time></trkpt><trkpt lat="32.5111474" lon="-110.5687819"><ele>990.0</ele><time>2026-05-02T16:00:30.352Z</time></trkpt><trkpt lat="32.5111497" lon="-110.5689401"><ele>992.0</ele><time>2026-05-02T16:00:31.352Z</time></trkpt><trkpt lat="32.5111604" lon="-110.5691043"><ele>994.0</ele><time>2026-05-02T16:00:32.352Z</time></trkpt><trkpt lat="32.5111765" lon="-110.5692713"><ele>996.0</ele><time>2026-05-02T16:00:33.351Z</time></trkpt><trkpt lat="32.5111984" lon="-110.5694396"><ele>998.0</ele><time>2026-05-02T16:00:34.351Z</time></trkpt><trkpt lat="32.5112269" lon="-110.5696165"><ele>998.0</ele><time>2026-05-02T16:00:35.352Z</time></trkpt><trkpt lat="32.5112594" lon="-110.5698034"><ele>998.0</ele><time>2026-05-02T16:00:36.351Z</time></trkpt><trkpt lat="32.5112955" lon="-110.5699955"><ele>998.0</ele><time>2026-05-02T16:00:37.351Z</time></trkpt><trkpt lat="32.511333" lon="-110.5701902"><ele>998.3333333333334</ele><time>2026-05-02T16:00:38.352Z</time></trkpt><trkpt lat="32.5113708" lon="-110.5703862"><ele>998.6666666666667</ele><time>2026-05-02T16:00:39.352Z</time></trkpt><trkpt lat="32.5114066" lon="-110.5705795"><ele>999.0</ele><time>2026-05-02T16:00:40.351Z</time></trkpt><trkpt lat="32.5114398" lon="-110.5707713"><ele>999.0</ele><time>2026-05-02T16:00:41.352Z</time></trkpt><trkpt lat="32.5114708" lon="-110.5709605"><ele>999.0</ele><time>2026-05-02T16:00:42.352Z</time></trkpt><trkpt lat="32.5114982" lon="-110.5711486"><ele>999.0</ele><time>2026-05-02T16:00:43.352Z</time></trkpt><trkpt lat="32.5115225" lon="-110.5713358"><ele>998.6666666666667</ele><time>2026-05-02T16:00:44.352Z</time></trkpt><trkpt lat="32.5115441" lon="-110.5715229"><ele>998.3333333333334</ele><time>2026-05-02T16:00:45.351Z</time></trkpt><trkpt lat="32.5115629" lon="-110.5717091"><ele>998.0</ele><time>2026-05-02T16:00:46.351Z</time></trkpt><trkpt lat="32.5115783" lon="-110.5718958"><ele>1000.0</ele><time>2026-05-02T16:00:47.351Z</time></trkpt><trkpt lat="32.5115916" lon="-110.5720836"><ele>1002.0</ele><time>2026-05-02T16:00:48.352Z</time></trkpt><trkpt lat="32.5116038" lon="-110.5722705"><ele>1004.0</ele><time>2026-05-02T16:00:49.352Z</time></trkpt><trkpt lat="32.5116142" lon="-110.5724588"><ele>1004.0</ele><time>2026-05-02T16:00:50.351Z</time></trkpt><trkpt lat="32.5116217" lon="-110.5726476"><ele>1004.0</ele><time>2026-05-02T16:00:51.352Z</time></trkpt><trkpt lat="32.5116259" lon="-110.5728354"><ele>1004.0</ele><time>2026-05-02T16:00:52.351Z</time></trkpt><trkpt lat="32.5116247" lon="-110.5730223"><ele>1006.0</ele><time>2026-05-02T16:00:53.351Z</time></trkpt><trkpt lat="32.5116148" lon="-110.573206"><ele>1008.0</ele><time>2026-05-02T16:00:54.352Z</time></trkpt><trkpt lat="32.5115969" lon="-110.5733885"><ele>1010.0</ele><time>2026-05-02T16:00:55.351Z</time></trkpt><trkpt lat="32.5115717" lon="-110.5735697"><ele>1010.3333333333334</ele><time>2026-05-02T16:00:56.351Z</time></trkpt><trkpt lat="32.5115388" lon="-110.5737482"><ele>1010.6666666666667</ele><time>2026-05-02T16:00:57.352Z</time></trkpt><trkpt lat="32.5114995" lon="-110.5739253"><ele>1011.0</ele><time>2026-05-02T16:00:58.352Z</time></trkpt><trkpt lat="32.5114576" lon="-110.5741039"><ele>1011.0</ele><time>2026-05-02T16:00:59.352Z</time></trkpt><trkpt lat="32.5114161" lon="-110.5742845"><ele>1011.0</ele><time>2026-05-02T16:01:00.352Z</time></trkpt><trkpt lat="32.511376" lon="-110.5744679"><ele>1011.0</ele><time>2026-05-02T16:01:01.351Z</time></trkpt><trkpt lat="32.5113368" lon="-110.5746537"><ele>1011.0</ele><time>2026-05-02T16:01:02.351Z</time></trkpt><trkpt lat="32.5112983" lon="-110.5748403"><ele>1011.0</ele><time>2026-05-02T16:01:03.352Z</time></trkpt><trkpt lat="32.5112604" lon="-110.5750263"><ele>1011.0</ele><time>2026-05-02T16:01:04.352Z</time></trkpt><trkpt lat="32.5112236" lon="-110.5752125"><ele>1012.3333333333333</ele><time>2026-05-02T16:01:05.351Z</time></trkpt><trkpt lat="32.5111895" lon="-110.5754017"><ele>1013.6666666666666</ele><time>2026-05-02T16:01:06.351Z</time></trkpt><trkpt lat="32.5111594" lon="-110.5755929"><ele>1015.0</ele><time>2026-05-02T16:01:07.351Z</time></trkpt><trkpt lat="32.5111311" lon="-110.575785"><ele>1015.0</ele><time>2026-05-02T16:01:08.352Z</time></trkpt><trkpt lat="32.5111041" lon="-110.575977"><ele>1015.0</ele><time>2026-05-02T16:01:09.352Z</time></trkpt><trkpt lat="32.5110782" lon="-110.5761672"><ele>1015.0</ele><time>2026-05-02T16:01:10.351Z</time></trkpt><trkpt lat="32.5110526" lon="-110.5763563"><ele>1016.0</ele><time>2026-05-02T16:01:11.351Z</time></trkpt><trkpt lat="32.511028" lon="-110.5765446"><ele>1017.0</ele><time>2026-05-02T16:01:12.352Z</time></trkpt><trkpt lat="32.5110036" lon="-110.5767329"><ele>1018.0</ele><time>2026-05-02T16:01:13.352Z</time></trkpt><trkpt lat="32.510979" lon="-110.5769202"><ele>1017.3333333333333</ele><time>2026-05-02T16:01:14.352Z</time></trkpt><trkpt lat="32.5109519" lon="-110.5771086"><ele>1016.6666666666667</ele><time>2026-05-02T16:01:15.352Z</time></trkpt><trkpt lat="32.5109231" lon="-110.5772977"><ele>1016.0</ele><time>2026-05-02T16:01:16.351Z</time></trkpt><trkpt lat="32.5108931" lon="-110.5774857"><ele>1016.0</ele><time>2026-05-02T16:01:17.352Z</time></trkpt><trkpt lat="32.5108616" lon="-110.5776738"><ele>1016.0</ele><time>2026-05-02T16:01:18.352Z</time></trkpt><trkpt lat="32.5108298" lon="-110.5778616"><ele>1016.0</ele><time>2026-05-02T16:01:19.351Z</time></trkpt><trkpt lat="32.5108005" lon="-110.5780473"><ele>1016.0</ele><time>2026-05-02T16:01:20.352Z</time></trkpt><trkpt lat="32.5107755" lon="-110.578232"><ele>1016.0</ele><time>2026-05-02T16:01:21.352Z</time></trkpt><trkpt lat="32.5107558" lon="-110.5784181"><ele>1016.0</ele><time>2026-05-02T16:01:22.352Z</time></trkpt><trkpt lat="32.5107433" lon="-110.5786055"><ele>1016.3333333333334</ele><time>2026-05-02T16:01:23.351Z</time></trkpt><trkpt lat="32.5107388" lon="-110.5787938"><ele>1016.6666666666667</ele><time>2026-05-02T16:01:24.352Z</time></trkpt><trkpt lat="32.5107433" lon="-110.578984"><ele>1017.0</ele><time>2026-05-02T16:01:25.352Z</time></trkpt><trkpt lat="32.5107567" lon="-110.579175"><ele>1017.0</ele><time>2026-05-02T16:01:26.351Z</time></trkpt><trkpt lat="32.510776" lon="-110.5793661"><ele>1017.0</ele><time>2026-05-02T16:01:27.353Z</time></trkpt><trkpt lat="32.5107961" lon="-110.579555"><ele>1017.0</ele><time>2026-05-02T16:01:28.351Z</time></trkpt><trkpt lat="32.5108111" lon="-110.5797396"><ele>1017.5</ele><time>2026-05-02T16:01:29.352Z</time></trkpt><trkpt lat="32.5108177" lon="-110.5799162"><ele>1018.0</ele><time>2026-05-02T16:01:30.351Z</time></trkpt><trkpt lat="32.5108156" lon="-110.5800901"><ele>1018.5</ele><time>2026-05-02T16:01:31.352Z</time></trkpt><trkpt lat="32.5108053" lon="-110.5802639"><ele>1019.0</ele><time>2026-05-02T16:01:32.353Z</time></trkpt><trkpt lat="32.5107829" lon="-110.580437"><ele>1020.6666666666667</ele><time>2026-05-02T16:01:33.351Z</time></trkpt><trkpt lat="32.5107501" lon="-110.5806101"><ele>1022.3333333333333</ele><time>2026-05-02T16:01:34.353Z</time></trkpt><trkpt lat="32.5107146" lon="-110.5807849"><ele>1024.0</ele><time>2026-05-02T16:01:35.352Z</time></trkpt><trkpt lat="32.51068" lon="-110.580961"><ele>1024.0</ele><time>2026-05-02T16:01:36.351Z</time></trkpt><trkpt lat="32.5106459" lon="-110.5811373"><ele>1024.0</ele><time>2026-05-02T16:01:37.353Z</time></trkpt><trkpt lat="32.5106129" lon="-110.5813141"><ele>1024.0</ele><time>2026-05-02T16:01:38.352Z</time></trkpt><trkpt lat="32.5105805" lon="-110.5814926"><ele>1024.6666666666665</ele><time>2026-05-02T16:01:39.352Z</time></trkpt><trkpt lat="32.5105486" lon="-110.5816725"><ele>1025.3333333333333</ele><time>2026-05-02T16:01:40.352Z</time></trkpt><trkpt lat="32.5105192" lon="-110.5818565"><ele>1026.0</ele><time>2026-05-02T16:01:41.351Z</time></trkpt><trkpt lat="32.5104928" lon="-110.5820441"><ele>1026.6666666666667</ele><time>2026-05-02T16:01:42.351Z</time></trkpt><trkpt lat="32.5104667" lon="-110.5822349"><ele>1027.3333333333335</ele><time>2026-05-02T16:01:43.352Z</time></trkpt><trkpt lat="32.5104398" lon="-110.5824284"><ele>1028.0</ele><time>2026-05-02T16:01:44.352Z</time></trkpt><trkpt lat="32.5104113" lon="-110.5826221"><ele>1029.0</ele><time>2026-05-02T16:01:45.352Z</time></trkpt><trkpt lat="32.5103805" lon="-110.5828146"><ele>1030.0</ele><time>2026-05-02T16:01:46.352Z</time></trkpt><trkpt lat="32.5103464" lon="-110.583006"><ele>1031.0</ele><time>2026-05-02T16:01:47.353Z</time></trkpt><trkpt lat="32.5103098" lon="-110.5831968"><ele>1033.0</ele><time>2026-05-02T16:01:48.351Z</time></trkpt><trkpt lat="32.5102718" lon="-110.5833863"><ele>1035.0</ele><time>2026-05-02T16:01:49.352Z</time></trkpt><trkpt lat="32.510234" lon="-110.5835742"><ele>1037.0</ele><time>2026-05-02T16:01:50.351Z</time></trkpt><trkpt lat="32.5101975" lon="-110.5837594"><ele>1038.0</ele><time>2026-05-02T16:01:51.352Z</time></trkpt><trkpt lat="32.5101618" lon="-110.5839382"><ele>1039.0</ele><time>2026-05-02T16:01:52.352Z</time></trkpt><trkpt lat="32.510125" lon="-110.5841087"><ele>1040.0</ele><time>2026-05-02T16:01:53.352Z</time></trkpt><trkpt lat="32.5100852" lon="-110.5842663"><ele>1041.0</ele><time>2026-05-02T16:01:54.352Z</time></trkpt><trkpt lat="32.5100362" lon="-110.5844158"><ele>1041.25</ele><time>2026-05-02T16:01:55.353Z</time></trkpt><trkpt lat="32.5099729" lon="-110.584554"><ele>1041.5</ele><time>2026-05-02T16:01:56.352Z</time></trkpt><trkpt lat="32.5098955" lon="-110.5846834"><ele>1041.75</ele><time>2026-05-02T16:01:57.353Z</time></trkpt><trkpt lat="32.5098052" lon="-110.5848075"><ele>1042.0</ele><time>2026-05-02T16:01:58.352Z</time></trkpt><trkpt lat="32.5097046" lon="-110.5849285"><ele>1042.0</ele><time>2026-05-02T16:01:59.352Z</time></trkpt><trkpt lat="32.5096012" lon="-110.5850475"><ele>1042.0</ele><time>2026-05-02T16:02:00.352Z</time></trkpt><trkpt lat="32.5094975" lon="-110.5851703"><ele>1042.0</ele><time>2026-05-02T16:02:01.352Z</time></trkpt><trkpt lat="32.5093937" lon="-110.5853045"><ele>1042.0</ele><time>2026-05-02T16:02:02.352Z</time></trkpt><trkpt lat="32.5092922" lon="-110.5854461"><ele>1045.3333333333333</ele><time>2026-05-02T16:02:03.353Z</time></trkpt><trkpt lat="32.5091929" lon="-110.5855935"><ele>1048.6666666666667</ele><time>2026-05-02T16:02:04.353Z</time></trkpt><trkpt lat="32.5090959" lon="-110.5857451"><ele>1052.0</ele><time>2026-05-02T16:02:05.353Z</time></trkpt><trkpt lat="32.5089997" lon="-110.5858979"><ele>1052.0</ele><time>2026-05-02T16:02:06.353Z</time></trkpt><trkpt lat="32.5089031" lon="-110.5860482"><ele>1052.0</ele><time>2026-05-02T16:02:07.353Z</time></trkpt><trkpt lat="32.5088052" lon="-110.5861982"><ele>1052.0</ele><time>2026-05-02T16:02:08.353Z</time></trkpt><trkpt lat="32.5087075" lon="-110.5863476"><ele>1052.6666666666667</ele><time>2026-05-02T16:02:09.352Z</time></trkpt><trkpt lat="32.5086091" lon="-110.5864975"><ele>1053.3333333333333</ele><time>2026-05-02T16:02:10.352Z</time></trkpt><trkpt lat="32.5085111" lon="-110.5866497"><ele>1054.0</ele><time>2026-05-02T16:02:11.353Z</time></trkpt><trkpt lat="32.5084155" lon="-110.5868065"><ele>1054.0</ele><time>2026-05-02T16:02:12.352Z</time></trkpt><trkpt lat="32.5083213" lon="-110.5869647"><ele>1054.0</ele><time>2026-05-02T16:02:13.353Z</time></trkpt><trkpt lat="32.5082257" lon="-110.5871223"><ele>1054.0</ele><time>2026-05-02T16:02:14.353Z</time></trkpt><trkpt lat="32.5081296" lon="-110.5872789"><ele>1053.3333333333333</ele><time>2026-05-02T16:02:15.352Z</time></trkpt><trkpt lat="32.5080312" lon="-110.5874307"><ele>1052.6666666666667</ele><time>2026-05-02T16:02:16.352Z</time></trkpt><trkpt lat="32.5079269" lon="-110.5875744"><ele>1052.0</ele><time>2026-05-02T16:02:17.353Z</time></trkpt><trkpt lat="32.5078178" lon="-110.5877072"><ele>1054.0</ele><time>2026-05-02T16:02:18.352Z</time></trkpt><trkpt lat="32.5077067" lon="-110.5878288"><ele>1056.0</ele><time>2026-05-02T16:02:19.353Z</time></trkpt><trkpt lat="32.5075917" lon="-110.5879416"><ele>1058.0</ele><time>2026-05-02T16:02:20.352Z</time></trkpt><trkpt lat="32.5074726" lon="-110.5880494"><ele>1058.6666666666667</ele><time>2026-05-02T16:02:21.352Z</time></trkpt><trkpt lat="32.5073432" lon="-110.5881583"><ele>1059.3333333333333</ele><time>2026-05-02T16:02:22.352Z</time></trkpt><trkpt lat="32.5072104" lon="-110.5882728"><ele>1060.0</ele><time>2026-05-02T16:02:23.353Z</time></trkpt><trkpt lat="32.5070716" lon="-110.5883905"><ele>1060.6666666666665</ele><time>2026-05-02T16:02:24.352Z</time></trkpt><trkpt lat="32.5069287" lon="-110.5885074"><ele>1061.3333333333333</ele><time>2026-05-02T16:02:25.352Z</time></trkpt><trkpt lat="32.5067856" lon="-110.5886246"><ele>1062.0</ele><time>2026-05-02T16:02:26.352Z</time></trkpt><trkpt lat="32.5066405" lon="-110.5887424"><ele>1062.6666666666667</ele><time>2026-05-02T16:02:27.353Z</time></trkpt><trkpt lat="32.5064961" lon="-110.588857"><ele>1063.3333333333335</ele><time>2026-05-02T16:02:28.352Z</time></trkpt><trkpt lat="32.5063513" lon="-110.5889689"><ele>1064.0</ele><time>2026-05-02T16:02:29.353Z</time></trkpt><trkpt lat="32.5062059" lon="-110.5890785"><ele>1065.0</ele><time>2026-05-02T16:02:30.352Z</time></trkpt><trkpt lat="32.5060597" lon="-110.5891862"><ele>1066.0</ele><time>2026-05-02T16:02:31.353Z</time></trkpt><trkpt lat="32.5059132" lon="-110.5892913"><ele>1067.0</ele><time>2026-05-02T16:02:32.352Z</time></trkpt><trkpt lat="32.5057662" lon="-110.5893961"><ele>1067.0</ele><time>2026-05-02T16:02:33.352Z</time></trkpt><trkpt lat="32.5056204" lon="-110.5895033"><ele>1067.0</ele><time>2026-05-02T16:02:34.353Z</time></trkpt><trkpt lat="32.5054755" lon="-110.589607"><ele>1067.0</ele><time>2026-05-02T16:02:35.353Z</time></trkpt><trkpt lat="32.5053318" lon="-110.5897207"><ele>1071.0</ele><time>2026-05-02T16:02:36.352Z</time></trkpt><trkpt lat="32.5051894" lon="-110.5898147"><ele>1075.0</ele><time>2026-05-02T16:02:37.352Z</time></trkpt><trkpt lat="32.5050522" lon="-110.5898891"><ele>1079.0</ele><time>2026-05-02T16:02:38.352Z</time></trkpt><trkpt lat="32.5049084" lon="-110.5899534"><ele>1079.0</ele><time>2026-05-02T16:02:39.352Z</time></trkpt><trkpt lat="32.5047654" lon="-110.5900143"><ele>1079.0</ele><time>2026-05-02T16:02:40.353Z</time></trkpt><trkpt lat="32.5046216" lon="-110.5900717"><ele>1079.0</ele><time>2026-05-02T16:02:41.353Z</time></trkpt><trkpt lat="32.5044809" lon="-110.5901302"><ele>1079.5</ele><time>2026-05-02T16:02:42.353Z</time></trkpt><trkpt lat="32.5043588" lon="-110.590209"><ele>1080.0</ele><time>2026-05-02T16:02:43.353Z</time></trkpt><trkpt lat="32.5042474" lon="-110.5902981"><ele>1080.5</ele><time>2026-05-02T16:02:44.352Z</time></trkpt><trkpt lat="32.5041425" lon="-110.5903982"><ele>1081.0</ele><time>2026-05-02T16:02:45.352Z</time></trkpt><trkpt lat="32.5040464" lon="-110.5905157"><ele>1081.5</ele><time>2026-05-02T16:02:46.353Z</time></trkpt><trkpt lat="32.5039428" lon="-110.5906323"><ele>1082.0</ele><time>2026-05-02T16:02:47.353Z</time></trkpt><trkpt lat="32.5038274" lon="-110.5907458"><ele>1082.5</ele><time>2026-05-02T16:02:48.353Z</time></trkpt><trkpt lat="32.5037033" lon="-110.5908585"><ele>1083.0</ele><time>2026-05-02T16:02:49.353Z</time></trkpt><trkpt lat="32.5035748" lon="-110.5909719"><ele>1084.5</ele><time>2026-05-02T16:02:50.352Z</time></trkpt><trkpt lat="32.5034498" lon="-110.5910845"><ele>1086.0</ele><time>2026-05-02T16:02:51.353Z</time></trkpt><trkpt lat="32.5033402" lon="-110.5911997"><ele>1087.5</ele><time>2026-05-02T16:02:52.353Z</time></trkpt><trkpt lat="32.5032398" lon="-110.5913178"><ele>1089.0</ele><time>2026-05-02T16:02:53.352Z</time></trkpt><trkpt lat="32.5031516" lon="-110.5914463"><ele>1089.3333333333333</ele><time>2026-05-02T16:02:54.353Z</time></trkpt><trkpt lat="32.5030683" lon="-110.5915852"><ele>1089.6666666666665</ele><time>2026-05-02T16:02:55.353Z</time></trkpt><trkpt lat="32.5029844" lon="-110.591739"><ele>1090.0</ele><time>2026-05-02T16:02:56.353Z</time></trkpt><trkpt lat="32.5029119" lon="-110.5918967"><ele>1093.0</ele><time>2026-05-02T16:02:57.353Z</time></trkpt><trkpt lat="32.5028425" lon="-110.5920607"><ele>1096.0</ele><time>2026-05-02T16:02:58.353Z</time></trkpt><trkpt lat="32.5027821" lon="-110.5922281"><ele>1099.0</ele><time>2026-05-02T16:02:59.354Z</time></trkpt><trkpt lat="32.502718" lon="-110.5923908"><ele>1099.0</ele><time>2026-05-02T16:03:00.353Z</time></trkpt><trkpt lat="32.5026507" lon="-110.5925511"><ele>1099.0</ele><time>2026-05-02T16:03:01.352Z</time></trkpt><trkpt lat="32.5025746" lon="-110.5927001"><ele>1099.0</ele><time>2026-05-02T16:03:02.354Z</time></trkpt><trkpt lat="32.5024853" lon="-110.5928385"><ele>1099.0</ele><time>2026-05-02T16:03:03.353Z</time></trkpt><trkpt lat="32.5023881" lon="-110.5929712"><ele>1099.5</ele><time>2026-05-02T16:03:04.353Z</time></trkpt><trkpt lat="32.5022823" lon="-110.5930995"><ele>1100.0</ele><time>2026-05-02T16:03:05.352Z</time></trkpt><trkpt lat="32.502172" lon="-110.5932243"><ele>1100.5</ele><time>2026-05-02T16:03:06.352Z</time></trkpt><trkpt lat="32.5020664" lon="-110.5933365"><ele>1101.0</ele><time>2026-05-02T16:03:07.352Z</time></trkpt><trkpt lat="32.5019817" lon="-110.593449"><ele>1102.0</ele><time>2026-05-02T16:03:08.354Z</time></trkpt><trkpt lat="32.5019083" lon="-110.5935746"><ele>1103.0</ele><time>2026-05-02T16:03:09.353Z</time></trkpt><trkpt lat="32.5018508" lon="-110.5937114"><ele>1104.0</ele><time>2026-05-02T16:03:10.353Z</time></trkpt><trkpt lat="32.5018107" lon="-110.5938618"><ele>1105.0</ele><time>2026-05-02T16:03:11.353Z</time></trkpt><trkpt lat="32.5017783" lon="-110.5940233"><ele>1105.6666666666665</ele><time>2026-05-02T16:03:12.352Z</time></trkpt><trkpt lat="32.5017492" lon="-110.5941995"><ele>1106.3333333333333</ele><time>2026-05-02T16:03:13.353Z</time></trkpt><trkpt lat="32.5017225" lon="-110.594381"><ele>1107.0</ele><time>2026-05-02T16:03:14.353Z</time></trkpt><trkpt lat="32.5016956" lon="-110.5945622"><ele>1107.0</ele><time>2026-05-02T16:03:15.354Z</time></trkpt><trkpt lat="32.50167" lon="-110.5947417"><ele>1107.0</ele><time>2026-05-02T16:03:16.353Z</time></trkpt><trkpt lat="32.5016469" lon="-110.5949188"><ele>1107.0</ele><time>2026-05-02T16:03:17.354Z</time></trkpt><trkpt lat="32.5016305" lon="-110.5950923"><ele>1107.0</ele><time>2026-05-02T16:03:18.353Z</time></trkpt><trkpt lat="32.50162" lon="-110.5952663"><ele>1107.0</ele><time>2026-05-02T16:03:19.353Z</time></trkpt><trkpt lat="32.50162" lon="-110.5954404"><ele>1107.0</ele><time>2026-05-02T16:03:20.352Z</time></trkpt><trkpt lat="32.5016328" lon="-110.595613"><ele>1107.0</ele><time>2026-05-02T16:03:21.352Z</time></trkpt><trkpt lat="32.5016601" lon="-110.5957856"><ele>1107.3333333333333</ele><time>2026-05-02T16:03:22.354Z</time></trkpt><trkpt lat="32.5017024" lon="-110.5959572"><ele>1107.6666666666665</ele><time>2026-05-02T16:03:23.353Z</time></trkpt><trkpt lat="32.5017551" lon="-110.5961289"><ele>1108.0</ele><time>2026-05-02T16:03:24.353Z</time></trkpt><trkpt lat="32.501815" lon="-110.5963014"><ele>1109.0</ele><time>2026-05-02T16:03:25.353Z</time></trkpt><trkpt lat="32.5018791" lon="-110.5964717"><ele>1110.0</ele><time>2026-05-02T16:03:26.353Z</time></trkpt><trkpt lat="32.5019397" lon="-110.5966399"><ele>1111.0</ele><time>2026-05-02T16:03:27.353Z</time></trkpt><trkpt lat="32.5019919" lon="-110.5968099"><ele>1111.0</ele><time>2026-05-02T16:03:28.354Z</time></trkpt><trkpt lat="32.5020361" lon="-110.5969831"><ele>1111.0</ele><time>2026-05-02T16:03:29.352Z</time></trkpt><trkpt lat="32.5020732" lon="-110.5971592"><ele>1111.0</ele><time>2026-05-02T16:03:30.354Z</time></trkpt><trkpt lat="32.5021025" lon="-110.5973392"><ele>1112.6666666666665</ele><time>2026-05-02T16:03:31.354Z</time></trkpt><trkpt lat="32.502125" lon="-110.5975243"><ele>1114.3333333333333</ele><time>2026-05-02T16:03:32.353Z</time></trkpt><trkpt lat="32.5021409" lon="-110.5977087"><ele>1116.0</ele><time>2026-05-02T16:03:33.354Z</time></trkpt><trkpt lat="32.5021456" lon="-110.597884"><ele>1116.0</ele><time>2026-05-02T16:03:34.353Z</time></trkpt><trkpt lat="32.5021361" lon="-110.5980544"><ele>1116.0</ele><time>2026-05-02T16:03:35.353Z</time></trkpt><trkpt lat="32.5021114" lon="-110.598223"><ele>1116.0</ele><time>2026-05-02T16:03:36.354Z</time></trkpt><trkpt lat="32.5020696" lon="-110.5983903"><ele>1116.0</ele><time>2026-05-02T16:03:37.354Z</time></trkpt><trkpt lat="32.5020142" lon="-110.5985634"><ele>1116.6666666666667</ele><time>2026-05-02T16:03:38.353Z</time></trkpt><trkpt lat="32.5019534" lon="-110.5987433"><ele>1117.3333333333335</ele><time>2026-05-02T16:03:39.353Z</time></trkpt><trkpt lat="32.5018916" lon="-110.5989258"><ele>1118.0</ele><time>2026-05-02T16:03:40.354Z</time></trkpt><trkpt lat="32.5018294" lon="-110.599112"><ele>1118.0</ele><time>2026-05-02T16:03:41.353Z</time></trkpt><trkpt lat="32.5017679" lon="-110.5992998"><ele>1118.0</ele><time>2026-05-02T16:03:42.353Z</time></trkpt><trkpt lat="32.5017086" lon="-110.59949"><ele>1118.0</ele><time>2026-05-02T16:03:43.353Z</time></trkpt><trkpt lat="32.5016511" lon="-110.5996817"><ele>1117.6666666666667</ele><time>2026-05-02T16:03:44.354Z</time></trkpt><trkpt lat="32.5015938" lon="-110.5998755"><ele>1117.3333333333333</ele><time>2026-05-02T16:03:45.354Z</time></trkpt><trkpt lat="32.5015369" lon="-110.6000729"><ele>1117.0</ele><time>2026-05-02T16:03:46.354Z</time></trkpt><trkpt lat="32.501481" lon="-110.6002729"><ele>1118.0</ele><time>2026-05-02T16:03:47.353Z</time></trkpt><trkpt lat="32.5014259" lon="-110.600475"><ele>1119.0</ele><time>2026-05-02T16:03:48.354Z</time></trkpt><trkpt lat="32.5013714" lon="-110.6006786"><ele>1120.0</ele><time>2026-05-02T16:03:49.353Z</time></trkpt><trkpt lat="32.5013184" lon="-110.6008828"><ele>1120.0</ele><time>2026-05-02T16:03:50.353Z</time></trkpt><trkpt lat="32.5012673" lon="-110.6010856"><ele>1120.0</ele><time>2026-05-02T16:03:51.353Z</time></trkpt><trkpt lat="32.5012181" lon="-110.6012864"><ele>1120.0</ele><time>2026-05-02T16:03:52.354Z</time></trkpt><trkpt lat="32.5011696" lon="-110.6014834"><ele>1121.3333333333333</ele><time>2026-05-02T16:03:53.353Z</time></trkpt><trkpt lat="32.5011258" lon="-110.6016896"><ele>1122.6666666666667</ele><time>2026-05-02T16:03:54.353Z</time></trkpt><trkpt lat="32.5010809" lon="-110.6018968"><ele>1124.0</ele><time>2026-05-02T16:03:55.353Z</time></trkpt><trkpt lat="32.5010366" lon="-110.6020986"><ele>1125.6666666666667</ele><time>2026-05-02T16:03:56.353Z</time></trkpt><trkpt lat="32.5009948" lon="-110.6023054"><ele>1127.3333333333333</ele><time>2026-05-02T16:03:57.353Z</time></trkpt><trkpt lat="32.5009551" lon="-110.6025095"><ele>1129.0</ele><time>2026-05-02T16:03:58.353Z</time></trkpt><trkpt lat="32.5009125" lon="-110.6027122"><ele>1133.0</ele><time>2026-05-02T16:03:59.354Z</time></trkpt><trkpt lat="32.5008629" lon="-110.6029091"><ele>1137.0</ele><time>2026-05-02T16:04:00.353Z</time></trkpt><trkpt lat="32.5007997" lon="-110.6031073"><ele>1141.0</ele><time>2026-05-02T16:04:01.353Z</time></trkpt><trkpt lat="32.5007363" lon="-110.6033"><ele>1141.0</ele><time>2026-05-02T16:04:02.354Z</time></trkpt><trkpt lat="32.5006806" lon="-110.6034886"><ele>1141.0</ele><time>2026-05-02T16:04:03.353Z</time></trkpt><trkpt lat="32.5006285" lon="-110.6036781"><ele>1141.0</ele><time>2026-05-02T16:04:04.353Z</time></trkpt><trkpt lat="32.5005891" lon="-110.6038568"><ele>1141.6666666666665</ele><time>2026-05-02T16:04:05.354Z</time></trkpt><trkpt lat="32.5005445" lon="-110.6040272"><ele>1142.3333333333333</ele><time>2026-05-02T16:04:06.353Z</time></trkpt><trkpt lat="32.5004971" lon="-110.6041931"><ele>1143.0</ele><time>2026-05-02T16:04:07.353Z</time></trkpt><trkpt lat="32.5004392" lon="-110.6043606"><ele>1144.25</ele><time>2026-05-02T16:04:08.353Z</time></trkpt><trkpt lat="32.5003677" lon="-110.60451"><ele>1145.5</ele><time>2026-05-02T16:04:09.354Z</time></trkpt><trkpt lat="32.5002821" lon="-110.6046537"><ele>1146.75</ele><time>2026-05-02T16:04:10.354Z</time></trkpt><trkpt lat="32.5001906" lon="-110.6047874"><ele>1148.0</ele><time>2026-05-02T16:04:11.353Z</time></trkpt><trkpt lat="32.5000837" lon="-110.6049049"><ele>1148.0</ele><time>2026-05-02T16:04:12.353Z</time></trkpt><trkpt lat="32.4999642" lon="-110.6050092"><ele>1148.0</ele><time>2026-05-02T16:04:13.353Z</time></trkpt><trkpt lat="32.4998265" lon="-110.6050988"><ele>1148.0</ele><time>2026-05-02T16:04:14.353Z</time></trkpt><trkpt lat="32.4996866" lon="-110.6051838"><ele>1150.0</ele><time>2026-05-02T16:04:15.353Z</time></trkpt><trkpt lat="32.4995522" lon="-110.6052549"><ele>1152.0</ele><time>2026-05-02T16:04:16.353Z</time></trkpt><trkpt lat="32.4994083" lon="-110.6053171"><ele>1154.0</ele><time>2026-05-02T16:04:17.354Z</time></trkpt><trkpt lat="32.4992715" lon="-110.6053657"><ele>1156.0</ele><time>2026-05-02T16:04:18.353Z</time></trkpt><trkpt lat="32.4991234" lon="-110.6054042"><ele>1156.0</ele><time>2026-05-02T16:04:19.353Z</time></trkpt><trkpt lat="32.4989752" lon="-110.6054536"><ele>1156.0</ele><time>2026-05-02T16:04:20.354Z</time></trkpt><trkpt lat="32.4988296" lon="-110.6055002"><ele>1156.0</ele><time>2026-05-02T16:04:21.353Z</time></trkpt><trkpt lat="32.4986878" lon="-110.6055502"><ele>1158.0</ele><time>2026-05-02T16:04:22.354Z</time></trkpt><trkpt lat="32.4985525" lon="-110.6056004"><ele>1160.0</ele><time>2026-05-02T16:04:23.355Z</time></trkpt><trkpt lat="32.498419" lon="-110.6056628"><ele>1162.0</ele><time>2026-05-02T16:04:24.354Z</time></trkpt><trkpt lat="32.4982974" lon="-110.6057468"><ele>1164.0</ele><time>2026-05-02T16:04:25.353Z</time></trkpt><trkpt lat="32.4981871" lon="-110.6058375"><ele>1164.0</ele><time>2026-05-02T16:04:26.353Z</time></trkpt><trkpt lat="32.4980817" lon="-110.6059507"><ele>1164.0</ele><time>2026-05-02T16:04:27.353Z</time></trkpt><trkpt lat="32.4979804" lon="-110.6060777"><ele>1164.0</ele><time>2026-05-02T16:04:28.354Z</time></trkpt><trkpt lat="32.4978871" lon="-110.6062025"><ele>1164.0</ele><time>2026-05-02T16:04:29.353Z</time></trkpt><trkpt lat="32.4977945" lon="-110.6063413"><ele>1166.3333333333333</ele><time>2026-05-02T16:04:30.353Z</time></trkpt><trkpt lat="32.4977018" lon="-110.6064884"><ele>1168.6666666666665</ele><time>2026-05-02T16:04:31.353Z</time></trkpt><trkpt lat="32.4976088" lon="-110.6066355"><ele>1171.0</ele><time>2026-05-02T16:04:32.354Z</time></trkpt><trkpt lat="32.4975163" lon="-110.6067909"><ele>1171.0</ele><time>2026-05-02T16:04:33.354Z</time></trkpt><trkpt lat="32.4974306" lon="-110.6069526"><ele>1171.0</ele><time>2026-05-02T16:04:34.353Z</time></trkpt><trkpt lat="32.497351" lon="-110.6071174"><ele>1171.0</ele><time>2026-05-02T16:04:35.354Z</time></trkpt><trkpt lat="32.497274" lon="-110.6072888"><ele>1170.3333333333333</ele><time>2026-05-02T16:04:36.354Z</time></trkpt><trkpt lat="32.4971975" lon="-110.6074609"><ele>1169.6666666666667</ele><time>2026-05-02T16:04:37.353Z</time></trkpt><trkpt lat="32.4971172" lon="-110.6076413"><ele>1169.0</ele><time>2026-05-02T16:04:38.354Z</time></trkpt><trkpt lat="32.497046" lon="-110.6078144"><ele>1170.6666666666667</ele><time>2026-05-02T16:04:39.355Z</time></trkpt><trkpt lat="32.496974" lon="-110.6079892"><ele>1172.3333333333333</ele><time>2026-05-02T16:04:40.353Z</time></trkpt><trkpt lat="32.4968988" lon="-110.6081604"><ele>1174.0</ele><time>2026-05-02T16:04:41.354Z</time></trkpt><trkpt lat="32.4968216" lon="-110.6083369"><ele>1174.0</ele><time>2026-05-02T16:04:42.353Z</time></trkpt><trkpt lat="32.4967455" lon="-110.6085081"><ele>1174.0</ele><time>2026-05-02T16:04:43.353Z</time></trkpt><trkpt lat="32.4966711" lon="-110.6086635"><ele>1174.0</ele><time>2026-05-02T16:04:44.353Z</time></trkpt><trkpt lat="32.4965943" lon="-110.6088025"><ele>1174.0</ele><time>2026-05-02T16:04:45.354Z</time></trkpt><trkpt lat="32.4965063" lon="-110.6089338"><ele>1174.0</ele><time>2026-05-02T16:04:46.353Z</time></trkpt><trkpt lat="32.4964117" lon="-110.6090618"><ele>1174.0</ele><time>2026-05-02T16:04:47.355Z</time></trkpt><trkpt lat="32.4963044" lon="-110.6091828"><ele>1174.0</ele><time>2026-05-02T16:04:48.353Z</time></trkpt><trkpt lat="32.4962051" lon="-110.6092985"><ele>1175.0</ele><time>2026-05-02T16:04:49.354Z</time></trkpt><trkpt lat="32.4961227" lon="-110.6094333"><ele>1176.0</ele><time>2026-05-02T16:04:50.355Z</time></trkpt><trkpt lat="32.4960512" lon="-110.6095725"><ele>1177.0</ele><time>2026-05-02T16:04:51.353Z</time></trkpt><trkpt lat="32.4959965" lon="-110.6097295"><ele>1178.0</ele><time>2026-05-02T16:04:52.354Z</time></trkpt><trkpt lat="32.4959537" lon="-110.6098949"><ele>1178.0</ele><time>2026-05-02T16:04:53.354Z</time></trkpt><trkpt lat="32.4959043" lon="-110.6100687"><ele>1178.0</ele><time>2026-05-02T16:04:54.354Z</time></trkpt><trkpt lat="32.4958483" lon="-110.6102503"><ele>1178.0</ele><time>2026-05-02T16:04:55.354Z</time></trkpt><trkpt lat="32.4957765" lon="-110.6104397"><ele>1177.0</ele><time>2026-05-02T16:04:56.353Z</time></trkpt><trkpt lat="32.4957005" lon="-110.6106235"><ele>1176.0</ele><time>2026-05-02T16:04:57.354Z</time></trkpt><trkpt lat="32.4956256" lon="-110.6108086"><ele>1175.0</ele><time>2026-05-02T16:04:58.354Z</time></trkpt><trkpt lat="32.4955459" lon="-110.6109909"><ele>1175.6666666666667</ele><time>2026-05-02T16:04:59.353Z</time></trkpt><trkpt lat="32.4954598" lon="-110.6111755"><ele>1176.3333333333333</ele><time>2026-05-02T16:05:00.353Z</time></trkpt><trkpt lat="32.4953762" lon="-110.6113603"><ele>1177.0</ele><time>2026-05-02T16:05:01.353Z</time></trkpt><trkpt lat="32.4952974" lon="-110.611547"><ele>1177.0</ele><time>2026-05-02T16:05:02.354Z</time></trkpt><trkpt lat="32.4952138" lon="-110.6117366"><ele>1177.0</ele><time>2026-05-02T16:05:03.355Z</time></trkpt><trkpt lat="32.495133" lon="-110.6119182"><ele>1177.0</ele><time>2026-05-02T16:05:04.354Z</time></trkpt><trkpt lat="32.4950484" lon="-110.612098"><ele>1178.3333333333333</ele><time>2026-05-02T16:05:05.354Z</time></trkpt><trkpt lat="32.4949621" lon="-110.6122847"><ele>1179.6666666666667</ele><time>2026-05-02T16:05:06.354Z</time></trkpt><trkpt lat="32.4948747" lon="-110.612464"><ele>1181.0</ele><time>2026-05-02T16:05:07.354Z</time></trkpt><trkpt lat="32.4947859" lon="-110.6126407"><ele>1181.0</ele><time>2026-05-02T16:05:08.355Z</time></trkpt><trkpt lat="32.4946945" lon="-110.6128104"><ele>1181.0</ele><time>2026-05-02T16:05:09.354Z</time></trkpt><trkpt lat="32.4946014" lon="-110.6129718"><ele>1181.0</ele><time>2026-05-02T16:05:10.355Z</time></trkpt><trkpt lat="32.4944977" lon="-110.6131287"><ele>1186.6666666666667</ele><time>2026-05-02T16:05:11.355Z</time></trkpt><trkpt lat="32.4943925" lon="-110.6132885"><ele>1192.3333333333333</ele><time>2026-05-02T16:05:12.355Z</time></trkpt><trkpt lat="32.494291" lon="-110.6134563"><ele>1198.0</ele><time>2026-05-02T16:05:13.355Z</time></trkpt><trkpt lat="32.4941918" lon="-110.6136204"><ele>1195.0</ele><time>2026-05-02T16:05:14.354Z</time></trkpt><trkpt lat="32.4940963" lon="-110.613784"><ele>1192.0</ele><time>2026-05-02T16:05:15.354Z</time></trkpt><trkpt lat="32.4940031" lon="-110.6139461"><ele>1189.0</ele><time>2026-05-02T16:05:16.355Z</time></trkpt><trkpt lat="32.4939182" lon="-110.6141172"><ele>1189.0</ele><time>2026-05-02T16:05:17.354Z</time></trkpt><trkpt lat="32.493848" lon="-110.6142913"><ele>1189.0</ele><time>2026-05-02T16:05:18.354Z</time></trkpt><trkpt lat="32.4937754" lon="-110.614458"><ele>1189.0</ele><time>2026-05-02T16:05:19.354Z</time></trkpt><trkpt lat="32.4936938" lon="-110.6146194"><ele>1194.6666666666665</ele><time>2026-05-02T16:05:20.355Z</time></trkpt><trkpt lat="32.4936046" lon="-110.614779"><ele>1200.3333333333333</ele><time>2026-05-02T16:05:21.355Z</time></trkpt><trkpt lat="32.4935081" lon="-110.6149308"><ele>1206.0</ele><time>2026-05-02T16:05:22.355Z</time></trkpt><trkpt lat="32.4934145" lon="-110.6150788"><ele>1206.0</ele><time>2026-05-02T16:05:23.355Z</time></trkpt><trkpt lat="32.4933297" lon="-110.6152254"><ele>1206.0</ele><time>2026-05-02T16:05:24.355Z</time></trkpt><trkpt lat="32.4932547" lon="-110.6153828"><ele>1206.0</ele><time>2026-05-02T16:05:25.355Z</time></trkpt><trkpt lat="32.4931862" lon="-110.6155456"><ele>1204.0</ele><time>2026-05-02T16:05:26.354Z</time></trkpt><trkpt lat="32.4931205" lon="-110.6157159"><ele>1202.0</ele><time>2026-05-02T16:05:27.355Z</time></trkpt><trkpt lat="32.4930565" lon="-110.615889"><ele>1200.0</ele><time>2026-05-02T16:05:28.354Z</time></trkpt><trkpt lat="32.4929904" lon="-110.6160661"><ele>1201.3333333333333</ele><time>2026-05-02T16:05:29.354Z</time></trkpt><trkpt lat="32.4929213" lon="-110.6162478"><ele>1202.6666666666665</ele><time>2026-05-02T16:05:30.355Z</time></trkpt><trkpt lat="32.4928467" lon="-110.6164304"><ele>1204.0</ele><time>2026-05-02T16:05:31.354Z</time></trkpt><trkpt lat="32.492774" lon="-110.6166126"><ele>1204.0</ele><time>2026-05-02T16:05:32.354Z</time></trkpt><trkpt lat="32.4926986" lon="-110.6167941"><ele>1204.0</ele><time>2026-05-02T16:05:33.354Z</time></trkpt><trkpt lat="32.4926208" lon="-110.616982"><ele>1204.0</ele><time>2026-05-02T16:05:34.354Z</time></trkpt><trkpt lat="32.492543" lon="-110.6171697"><ele>1205.0</ele><time>2026-05-02T16:05:35.355Z</time></trkpt><trkpt lat="32.4924644" lon="-110.6173644"><ele>1206.0</ele><time>2026-05-02T16:05:36.354Z</time></trkpt><trkpt lat="32.4923847" lon="-110.6175558"><ele>1207.0</ele><time>2026-05-02T16:05:37.354Z</time></trkpt><trkpt lat="32.4923106" lon="-110.617747"><ele>1207.0</ele><time>2026-05-02T16:05:38.354Z</time></trkpt><trkpt lat="32.4922342" lon="-110.6179335"><ele>1207.0</ele><time>2026-05-02T16:05:39.354Z</time></trkpt><trkpt lat="32.4921501" lon="-110.6181219"><ele>1207.0</ele><time>2026-05-02T16:05:40.355Z</time></trkpt><trkpt lat="32.4920666" lon="-110.6183092"><ele>1207.0</ele><time>2026-05-02T16:05:41.355Z</time></trkpt><trkpt lat="32.4919858" lon="-110.6184931"><ele>1207.0</ele><time>2026-05-02T16:05:42.354Z</time></trkpt><trkpt lat="32.4919073" lon="-110.6186822"><ele>1207.0</ele><time>2026-05-02T16:05:43.354Z</time></trkpt><trkpt lat="32.4918322" lon="-110.6188684"><ele>1211.0</ele><time>2026-05-02T16:05:44.355Z</time></trkpt><trkpt lat="32.4917578" lon="-110.6190534"><ele>1215.0</ele><time>2026-05-02T16:05:45.354Z</time></trkpt><trkpt lat="32.4916841" lon="-110.6192359"><ele>1219.0</ele><time>2026-05-02T16:05:46.354Z</time></trkpt><trkpt lat="32.4916085" lon="-110.6194147"><ele>1218.6666666666665</ele><time>2026-05-02T16:05:47.354Z</time></trkpt><trkpt lat="32.4915342" lon="-110.6195891"><ele>1218.3333333333333</ele><time>2026-05-02T16:05:48.355Z</time></trkpt><trkpt lat="32.4914611" lon="-110.6197615"><ele>1218.0</ele><time>2026-05-02T16:05:49.354Z</time></trkpt><trkpt lat="32.4913893" lon="-110.6199361"><ele>1218.0</ele><time>2026-05-02T16:05:50.354Z</time></trkpt><trkpt lat="32.4913175" lon="-110.6201125"><ele>1218.0</ele><time>2026-05-02T16:05:51.354Z</time></trkpt><trkpt lat="32.4912478" lon="-110.6202847"><ele>1218.0</ele><time>2026-05-02T16:05:52.354Z</time></trkpt><trkpt lat="32.4911795" lon="-110.6204556"><ele>1223.3333333333333</ele><time>2026-05-02T16:05:53.354Z</time></trkpt><trkpt lat="32.4911128" lon="-110.6206207"><ele>1228.6666666666665</ele><time>2026-05-02T16:05:54.354Z</time></trkpt><trkpt lat="32.4910433" lon="-110.6207954"><ele>1234.0</ele><time>2026-05-02T16:05:55.355Z</time></trkpt><trkpt lat="32.4909705" lon="-110.6209699"><ele>1234.0</ele><time>2026-05-02T16:05:56.355Z</time></trkpt><trkpt lat="32.4908946" lon="-110.6211398"><ele>1234.0</ele><time>2026-05-02T16:05:57.354Z</time></trkpt><trkpt lat="32.4908193" lon="-110.6213125"><ele>1234.0</ele><time>2026-05-02T16:05:58.354Z</time></trkpt><trkpt lat="32.4907468" lon="-110.6214932"><ele>1234.3333333333333</ele><time>2026-05-02T16:05:59.354Z</time></trkpt><trkpt lat="32.4906753" lon="-110.6216789"><ele>1234.6666666666667</ele><time>2026-05-02T16:06:00.354Z</time></trkpt><trkpt lat="32.4906039" lon="-110.6218638"><ele>1235.0</ele><time>2026-05-02T16:06:01.355Z</time></trkpt><trkpt lat="32.4905328" lon="-110.6220476"><ele>1235.3333333333335</ele><time>2026-05-02T16:06:02.355Z</time></trkpt><trkpt lat="32.4904552" lon="-110.62223"><ele>1235.6666666666667</ele><time>2026-05-02T16:06:03.354Z</time></trkpt><trkpt lat="32.4903824" lon="-110.622418"><ele>1236.0</ele><time>2026-05-02T16:06:04.356Z</time></trkpt><trkpt lat="32.4903139" lon="-110.622616"><ele>1238.3333333333333</ele><time>2026-05-02T16:06:05.355Z</time></trkpt><trkpt lat="32.4902602" lon="-110.6228201"><ele>1240.6666666666665</ele><time>2026-05-02T16:06:06.354Z</time></trkpt><trkpt lat="32.4902085" lon="-110.6230276"><ele>1243.0</ele><time>2026-05-02T16:06:07.356Z</time></trkpt><trkpt lat="32.4901707" lon="-110.6232328"><ele>1243.0</ele><time>2026-05-02T16:06:08.355Z</time></trkpt><trkpt lat="32.4901307" lon="-110.6234429"><ele>1243.0</ele><time>2026-05-02T16:06:09.354Z</time></trkpt><trkpt lat="32.4900982" lon="-110.6236544"><ele>1243.0</ele><time>2026-05-02T16:06:10.355Z</time></trkpt><trkpt lat="32.4900732" lon="-110.6238687"><ele>1243.6666666666665</ele><time>2026-05-02T16:06:11.355Z</time></trkpt><trkpt lat="32.490051" lon="-110.6240796"><ele>1244.3333333333333</ele><time>2026-05-02T16:06:12.356Z</time></trkpt><trkpt lat="32.4900293" lon="-110.6242934"><ele>1245.0</ele><time>2026-05-02T16:06:13.354Z</time></trkpt><trkpt lat="32.4900057" lon="-110.6245051"><ele>1245.0</ele><time>2026-05-02T16:06:14.355Z</time></trkpt><trkpt lat="32.4899872" lon="-110.6247205"><ele>1245.0</ele><time>2026-05-02T16:06:15.354Z</time></trkpt><trkpt lat="32.4899656" lon="-110.6249364"><ele>1245.0</ele><time>2026-05-02T16:06:16.355Z</time></trkpt><trkpt lat="32.4899449" lon="-110.6251513"><ele>1246.0</ele><time>2026-05-02T16:06:17.356Z</time></trkpt><trkpt lat="32.4899226" lon="-110.6253696"><ele>1247.0</ele><time>2026-05-02T16:06:18.354Z</time></trkpt><trkpt lat="32.4898995" lon="-110.6255898"><ele>1248.0</ele><time>2026-05-02T16:06:19.354Z</time></trkpt><trkpt lat="32.4898682" lon="-110.6258078"><ele>1248.0</ele><time>2026-05-02T16:06:20.354Z</time></trkpt><trkpt lat="32.4898398" lon="-110.6260281"><ele>1248.0</ele><time>2026-05-02T16:06:21.355Z</time></trkpt><trkpt lat="32.4898072" lon="-110.6262452"><ele>1248.0</ele><time>2026-05-02T16:06:22.355Z</time></trkpt><trkpt lat="32.4897717" lon="-110.6264624"><ele>1249.3333333333333</ele><time>2026-05-02T16:06:23.354Z</time></trkpt><trkpt lat="32.4897343" lon="-110.6266826"><ele>1250.6666666666665</ele><time>2026-05-02T16:06:24.354Z</time></trkpt><trkpt lat="32.4896951" lon="-110.626899"><ele>1252.0</ele><time>2026-05-02T16:06:25.355Z</time></trkpt><trkpt lat="32.4896522" lon="-110.627109"><ele>1252.3333333333333</ele><time>2026-05-02T16:06:26.354Z</time></trkpt><trkpt lat="32.4896024" lon="-110.62732"><ele>1252.6666666666667</ele><time>2026-05-02T16:06:27.355Z</time></trkpt><trkpt lat="32.4895556" lon="-110.6275302"><ele>1253.0</ele><time>2026-05-02T16:06:28.355Z</time></trkpt><trkpt lat="32.4895001" lon="-110.6277408"><ele>1253.6666666666667</ele><time>2026-05-02T16:06:29.356Z</time></trkpt><trkpt lat="32.4894414" lon="-110.6279507"><ele>1254.3333333333333</ele><time>2026-05-02T16:06:30.356Z</time></trkpt><trkpt lat="32.4893842" lon="-110.6281678"><ele>1255.0</ele><time>2026-05-02T16:06:31.354Z</time></trkpt><trkpt lat="32.4893248" lon="-110.6283714"><ele>1255.0</ele><time>2026-05-02T16:06:32.354Z</time></trkpt><trkpt lat="32.4892626" lon="-110.6285817"><ele>1255.0</ele><time>2026-05-02T16:06:33.354Z</time></trkpt><trkpt lat="32.4892004" lon="-110.628792"><ele>1255.0</ele><time>2026-05-02T16:06:34.354Z</time></trkpt><trkpt lat="32.4891386" lon="-110.6290018"><ele>1255.6666666666665</ele><time>2026-05-02T16:06:35.355Z</time></trkpt><trkpt lat="32.4890717" lon="-110.6292088"><ele>1256.3333333333333</ele><time>2026-05-02T16:06:36.355Z</time></trkpt><trkpt lat="32.4889994" lon="-110.6294147"><ele>1257.0</ele><time>2026-05-02T16:06:37.356Z</time></trkpt><trkpt lat="32.4889272" lon="-110.6296238"><ele>1257.3333333333333</ele><time>2026-05-02T16:06:38.355Z</time></trkpt><trkpt lat="32.4888544" lon="-110.6298276"><ele>1257.6666666666665</ele><time>2026-05-02T16:06:39.355Z</time></trkpt><trkpt lat="32.4887761" lon="-110.6300296"><ele>1258.0</ele><time>2026-05-02T16:06:40.356Z</time></trkpt><trkpt lat="32.4886992" lon="-110.6302307"><ele>1259.0</ele><time>2026-05-02T16:06:41.355Z</time></trkpt><trkpt lat="32.4886193" lon="-110.630428"><ele>1260.0</ele><time>2026-05-02T16:06:42.356Z</time></trkpt><trkpt lat="32.4885425" lon="-110.6306245"><ele>1261.0</ele><time>2026-05-02T16:06:43.356Z</time></trkpt><trkpt lat="32.4884635" lon="-110.6308228"><ele>1261.0</ele><time>2026-05-02T16:06:44.355Z</time></trkpt><trkpt lat="32.4883797" lon="-110.6310271"><ele>1261.0</ele><time>2026-05-02T16:06:45.356Z</time></trkpt><trkpt lat="32.4882901" lon="-110.6312273"><ele>1261.0</ele><time>2026-05-02T16:06:46.355Z</time></trkpt><trkpt lat="32.4881969" lon="-110.6314243"><ele>1261.3333333333333</ele><time>2026-05-02T16:06:47.355Z</time></trkpt><trkpt lat="32.4881019" lon="-110.631624"><ele>1261.6666666666667</ele><time>2026-05-02T16:06:48.356Z</time></trkpt><trkpt lat="32.4880111" lon="-110.6318192"><ele>1262.0</ele><time>2026-05-02T16:06:49.356Z</time></trkpt><trkpt lat="32.4879172" lon="-110.6320126"><ele>1262.0</ele><time>2026-05-02T16:06:50.355Z</time></trkpt><trkpt lat="32.4878227" lon="-110.6322051"><ele>1262.0</ele><time>2026-05-02T16:06:51.355Z</time></trkpt><trkpt lat="32.4877324" lon="-110.6323967"><ele>1262.0</ele><time>2026-05-02T16:06:52.356Z</time></trkpt><trkpt lat="32.4876383" lon="-110.6325895"><ele>1262.0</ele><time>2026-05-02T16:06:53.355Z</time></trkpt><trkpt lat="32.4875417" lon="-110.6327814"><ele>1262.0</ele><time>2026-05-02T16:06:54.355Z</time></trkpt><trkpt lat="32.4874441" lon="-110.632976"><ele>1262.0</ele><time>2026-05-02T16:06:55.355Z</time></trkpt><trkpt lat="32.4873466" lon="-110.6331726"><ele>1264.0</ele><time>2026-05-02T16:06:56.355Z</time></trkpt><trkpt lat="32.487243" lon="-110.6333748"><ele>1266.0</ele><time>2026-05-02T16:06:57.356Z</time></trkpt><trkpt lat="32.4871422" lon="-110.633572"><ele>1268.0</ele><time>2026-05-02T16:06:58.355Z</time></trkpt><trkpt lat="32.4870436" lon="-110.6337705"><ele>1268.6666666666667</ele><time>2026-05-02T16:06:59.356Z</time></trkpt><trkpt lat="32.4869426" lon="-110.6339655"><ele>1269.3333333333333</ele><time>2026-05-02T16:07:00.356Z</time></trkpt><trkpt lat="32.4868421" lon="-110.6341583"><ele>1270.0</ele><time>2026-05-02T16:07:01.356Z</time></trkpt><trkpt lat="32.4867412" lon="-110.6343535"><ele>1270.6666666666665</ele><time>2026-05-02T16:07:02.355Z</time></trkpt><trkpt lat="32.4866392" lon="-110.6345476"><ele>1271.3333333333333</ele><time>2026-05-02T16:07:03.356Z</time></trkpt><trkpt lat="32.4865446" lon="-110.6347461"><ele>1272.0</ele><time>2026-05-02T16:07:04.356Z</time></trkpt><trkpt lat="32.4864515" lon="-110.6349422"><ele>1272.0</ele><time>2026-05-02T16:07:05.355Z</time></trkpt><trkpt lat="32.4863603" lon="-110.6351422"><ele>1272.0</ele><time>2026-05-02T16:07:06.356Z</time></trkpt><trkpt lat="32.4862723" lon="-110.6353415"><ele>1272.0</ele><time>2026-05-02T16:07:07.356Z</time></trkpt><trkpt lat="32.4861908" lon="-110.6355458"><ele>1272.0</ele><time>2026-05-02T16:07:08.355Z</time></trkpt><trkpt lat="32.4861124" lon="-110.6357546"><ele>1272.0</ele><time>2026-05-02T16:07:09.356Z</time></trkpt><trkpt lat="32.4860452" lon="-110.6359653"><ele>1272.0</ele><time>2026-05-02T16:07:10.356Z</time></trkpt><trkpt lat="32.4859879" lon="-110.6361835"><ele>1272.0</ele><time>2026-05-02T16:07:11.355Z</time></trkpt><trkpt lat="32.4859402" lon="-110.6364"><ele>1272.0</ele><time>2026-05-02T16:07:12.356Z</time></trkpt><trkpt lat="32.4859043" lon="-110.6366146"><ele>1272.0</ele><time>2026-05-02T16:07:13.356Z</time></trkpt><trkpt lat="32.4858619" lon="-110.6368416"><ele>1273.0</ele><time>2026-05-02T16:07:14.356Z</time></trkpt><trkpt lat="32.4858296" lon="-110.6370668"><ele>1274.0</ele><time>2026-05-02T16:07:15.356Z</time></trkpt><trkpt lat="32.4858016" lon="-110.6372977"><ele>1275.0</ele><time>2026-05-02T16:07:16.356Z</time></trkpt><trkpt lat="32.4857813" lon="-110.6375305"><ele>1275.0</ele><time>2026-05-02T16:07:17.355Z</time></trkpt><trkpt lat="32.4857617" lon="-110.6377586"><ele>1275.0</ele><time>2026-05-02T16:07:18.356Z</time></trkpt><trkpt lat="32.4857511" lon="-110.6379938"><ele>1275.0</ele><time>2026-05-02T16:07:19.356Z</time></trkpt><trkpt lat="32.48574" lon="-110.6382246"><ele>1275.6666666666667</ele><time>2026-05-02T16:07:20.355Z</time></trkpt><trkpt lat="32.4857298" lon="-110.6384659"><ele>1276.3333333333335</ele><time>2026-05-02T16:07:21.355Z</time></trkpt><trkpt lat="32.4857212" lon="-110.6387123"><ele>1277.0</ele><time>2026-05-02T16:07:22.356Z</time></trkpt><trkpt lat="32.4857126" lon="-110.6389521"><ele>1277.6666666666667</ele><time>2026-05-02T16:07:23.355Z</time></trkpt><trkpt lat="32.4857084" lon="-110.6391857"><ele>1278.3333333333333</ele><time>2026-05-02T16:07:24.356Z</time></trkpt><trkpt lat="32.4857019" lon="-110.639419"><ele>1279.0</ele><time>2026-05-02T16:07:25.355Z</time></trkpt><trkpt lat="32.4856982" lon="-110.6396576"><ele>1279.0</ele><time>2026-05-02T16:07:26.355Z</time></trkpt><trkpt lat="32.4856929" lon="-110.6398909"><ele>1279.0</ele><time>2026-05-02T16:07:27.355Z</time></trkpt><trkpt lat="32.4856919" lon="-110.6401302"><ele>1279.0</ele><time>2026-05-02T16:07:28.356Z</time></trkpt><trkpt lat="32.4856929" lon="-110.6403681"><ele>1279.0</ele><time>2026-05-02T16:07:29.355Z</time></trkpt><trkpt lat="32.4856988" lon="-110.6406061"><ele>1279.0</ele><time>2026-05-02T16:07:30.356Z</time></trkpt><trkpt lat="32.4857081" lon="-110.640842"><ele>1279.0</ele><time>2026-05-02T16:07:31.355Z</time></trkpt><trkpt lat="32.485725" lon="-110.6410871"><ele>1280.0</ele><time>2026-05-02T16:07:32.356Z</time></trkpt><trkpt lat="32.4857434" lon="-110.64134"><ele>1281.0</ele><time>2026-05-02T16:07:33.356Z</time></trkpt><trkpt lat="32.4857697" lon="-110.6416013"><ele>1282.0</ele><time>2026-05-02T16:07:34.356Z</time></trkpt><trkpt lat="32.4857981" lon="-110.6418662"><ele>1282.0</ele><time>2026-05-02T16:07:35.356Z</time></trkpt><trkpt lat="32.485827" lon="-110.6421268"><ele>1282.0</ele><time>2026-05-02T16:07:36.355Z</time></trkpt><trkpt lat="32.4858602" lon="-110.6423846"><ele>1282.0</ele><time>2026-05-02T16:07:37.356Z</time></trkpt><trkpt lat="32.4858921" lon="-110.6426413"><ele>1282.0</ele><time>2026-05-02T16:07:38.356Z</time></trkpt><trkpt lat="32.4859217" lon="-110.6428942"><ele>1282.0</ele><time>2026-05-02T16:07:39.356Z</time></trkpt><trkpt lat="32.4859535" lon="-110.6431392"><ele>1282.0</ele><time>2026-05-02T16:07:40.356Z</time></trkpt><trkpt lat="32.4859891" lon="-110.6433755"><ele>1282.0</ele><time>2026-05-02T16:07:41.356Z</time></trkpt><trkpt lat="32.4860175" lon="-110.6436107"><ele>1282.0</ele><time>2026-05-02T16:07:42.355Z</time></trkpt><trkpt lat="32.4860415" lon="-110.6438431"><ele>1282.0</ele><time>2026-05-02T16:07:43.356Z</time></trkpt><trkpt lat="32.4860616" lon="-110.6440739"><ele>1282.0</ele><time>2026-05-02T16:07:44.355Z</time></trkpt><trkpt lat="32.4860773" lon="-110.6443026"><ele>1282.0</ele><time>2026-05-02T16:07:45.356Z</time></trkpt><trkpt lat="32.4860865" lon="-110.6445253"><ele>1282.0</ele><time>2026-05-02T16:07:46.356Z</time></trkpt><trkpt lat="32.4860932" lon="-110.644743"><ele>1282.0</ele><time>2026-05-02T16:07:47.355Z</time></trkpt><trkpt lat="32.4860996" lon="-110.6449629"><ele>1282.0</ele><time>2026-05-02T16:07:48.356Z</time></trkpt><trkpt lat="32.4861029" lon="-110.645188"><ele>1282.0</ele><time>2026-05-02T16:07:49.356Z</time></trkpt><trkpt lat="32.4860981" lon="-110.6454071"><ele>1282.6666666666665</ele><time>2026-05-02T16:07:50.355Z</time></trkpt><trkpt lat="32.4860984" lon="-110.6456328"><ele>1283.3333333333333</ele><time>2026-05-02T16:07:51.355Z</time></trkpt><trkpt lat="32.4860912" lon="-110.6458482"><ele>1284.0</ele><time>2026-05-02T16:07:52.357Z</time></trkpt><trkpt lat="32.486078" lon="-110.6460635"><ele>1285.0</ele><time>2026-05-02T16:07:53.356Z</time></trkpt><trkpt lat="32.4860624" lon="-110.6462863"><ele>1286.0</ele><time>2026-05-02T16:07:54.355Z</time></trkpt><trkpt lat="32.4860378" lon="-110.6465109"><ele>1287.0</ele><time>2026-05-02T16:07:55.356Z</time></trkpt><trkpt lat="32.486004" lon="-110.6467391"><ele>1288.0</ele><time>2026-05-02T16:07:56.356Z</time></trkpt><trkpt lat="32.4859701" lon="-110.6469697"><ele>1289.0</ele><time>2026-05-02T16:07:57.357Z</time></trkpt><trkpt lat="32.4859435" lon="-110.6471935"><ele>1290.0</ele><time>2026-05-02T16:07:58.355Z</time></trkpt><trkpt lat="32.4859124" lon="-110.6474128"><ele>1290.0</ele><time>2026-05-02T16:07:59.355Z</time></trkpt><trkpt lat="32.4858781" lon="-110.6476403"><ele>1290.0</ele><time>2026-05-02T16:08:00.356Z</time></trkpt><trkpt lat="32.4858465" lon="-110.6478569"><ele>1290.0</ele><time>2026-05-02T16:08:01.357Z</time></trkpt><trkpt lat="32.4858023" lon="-110.6480843"><ele>1290.0</ele><time>2026-05-02T16:08:02.356Z</time></trkpt><trkpt lat="32.4857654" lon="-110.6483146"><ele>1290.0</ele><time>2026-05-02T16:08:03.357Z</time></trkpt><trkpt lat="32.4857259" lon="-110.648541"><ele>1290.0</ele><time>2026-05-02T16:08:04.356Z</time></trkpt><trkpt lat="32.4856884" lon="-110.6487645"><ele>1290.0</ele><time>2026-05-02T16:08:05.356Z</time></trkpt><trkpt lat="32.4856503" lon="-110.6489791"><ele>1290.0</ele><time>2026-05-02T16:08:06.357Z</time></trkpt><trkpt lat="32.4856143" lon="-110.6492013"><ele>1290.0</ele><time>2026-05-02T16:08:07.356Z</time></trkpt><trkpt lat="32.4855702" lon="-110.6494228"><ele>1288.6666666666667</ele><time>2026-05-02T16:08:08.356Z</time></trkpt><trkpt lat="32.485524" lon="-110.6496468"><ele>1287.3333333333335</ele><time>2026-05-02T16:08:09.355Z</time></trkpt><trkpt lat="32.4854782" lon="-110.6498628"><ele>1286.0</ele><time>2026-05-02T16:08:10.356Z</time></trkpt><trkpt lat="32.4854232" lon="-110.6500786"><ele>1288.3333333333335</ele><time>2026-05-02T16:08:11.355Z</time></trkpt><trkpt lat="32.4853668" lon="-110.6502947"><ele>1290.6666666666667</ele><time>2026-05-02T16:08:12.355Z</time></trkpt><trkpt lat="32.4853097" lon="-110.65051"><ele>1293.0</ele><time>2026-05-02T16:08:13.356Z</time></trkpt><trkpt lat="32.4852619" lon="-110.6507278"><ele>1293.0</ele><time>2026-05-02T16:08:14.356Z</time></trkpt><trkpt lat="32.4852216" lon="-110.6509391"><ele>1293.0</ele><time>2026-05-02T16:08:15.357Z</time></trkpt><trkpt lat="32.4851871" lon="-110.6511617"><ele>1293.0</ele><time>2026-05-02T16:08:16.356Z</time></trkpt><trkpt lat="32.4851544" lon="-110.6513963"><ele>1294.0</ele><time>2026-05-02T16:08:17.356Z</time></trkpt><trkpt lat="32.4851185" lon="-110.6516281"><ele>1295.0</ele><time>2026-05-02T16:08:18.356Z</time></trkpt><trkpt lat="32.4850729" lon="-110.6518554"><ele>1296.0</ele><time>2026-05-02T16:08:19.356Z</time></trkpt><trkpt lat="32.4850272" lon="-110.6520833"><ele>1296.6666666666667</ele><time>2026-05-02T16:08:20.357Z</time></trkpt><trkpt lat="32.4849724" lon="-110.6523071"><ele>1297.3333333333335</ele><time>2026-05-02T16:08:21.356Z</time></trkpt><trkpt lat="32.4849157" lon="-110.6525285"><ele>1298.0</ele><time>2026-05-02T16:08:22.357Z</time></trkpt><trkpt lat="32.4848538" lon="-110.6527457"><ele>1298.3333333333335</ele><time>2026-05-02T16:08:23.356Z</time></trkpt><trkpt lat="32.4847935" lon="-110.6529606"><ele>1298.6666666666667</ele><time>2026-05-02T16:08:24.356Z</time></trkpt><trkpt lat="32.4847354" lon="-110.6531831"><ele>1299.0</ele><time>2026-05-02T16:08:25.357Z</time></trkpt><trkpt lat="32.4846875" lon="-110.6534049"><ele>1298.3333333333333</ele><time>2026-05-02T16:08:26.357Z</time></trkpt><trkpt lat="32.4846415" lon="-110.65363"><ele>1297.6666666666665</ele><time>2026-05-02T16:08:27.357Z</time></trkpt><trkpt lat="32.484604" lon="-110.6538583"><ele>1297.0</ele><time>2026-05-02T16:08:28.357Z</time></trkpt><trkpt lat="32.4845704" lon="-110.6540879"><ele>1298.6666666666665</ele><time>2026-05-02T16:08:29.356Z</time></trkpt><trkpt lat="32.4845413" lon="-110.654317"><ele>1300.3333333333333</ele><time>2026-05-02T16:08:30.357Z</time></trkpt><trkpt lat="32.4845183" lon="-110.6545479"><ele>1302.0</ele><time>2026-05-02T16:08:31.356Z</time></trkpt><trkpt lat="32.4845004" lon="-110.6547745"><ele>1302.6666666666667</ele><time>2026-05-02T16:08:32.356Z</time></trkpt><trkpt lat="32.4844803" lon="-110.6550059"><ele>1303.3333333333335</ele><time>2026-05-02T16:08:33.357Z</time></trkpt><trkpt lat="32.4844553" lon="-110.6552424"><ele>1304.0</ele><time>2026-05-02T16:08:34.356Z</time></trkpt><trkpt lat="32.4844264" lon="-110.6554692"><ele>1304.6666666666667</ele><time>2026-05-02T16:08:35.357Z</time></trkpt><trkpt lat="32.4843947" lon="-110.6556844"><ele>1305.3333333333333</ele><time>2026-05-02T16:08:36.356Z</time></trkpt><trkpt lat="32.4843632" lon="-110.6558991"><ele>1306.0</ele><time>2026-05-02T16:08:37.357Z</time></trkpt><trkpt lat="32.4843394" lon="-110.6561093"><ele>1306.6666666666665</ele><time>2026-05-02T16:08:38.356Z</time></trkpt><trkpt lat="32.484316" lon="-110.656328"><ele>1307.3333333333333</ele><time>2026-05-02T16:08:39.357Z</time></trkpt><trkpt lat="32.4842752" lon="-110.656554"><ele>1308.0</ele><time>2026-05-02T16:08:40.356Z</time></trkpt><trkpt lat="32.4842395" lon="-110.6567723"><ele>1307.0</ele><time>2026-05-02T16:08:41.356Z</time></trkpt><trkpt lat="32.4842072" lon="-110.6569863"><ele>1306.0</ele><time>2026-05-02T16:08:42.356Z</time></trkpt><trkpt lat="32.4841827" lon="-110.6571996"><ele>1305.0</ele><time>2026-05-02T16:08:43.356Z</time></trkpt><trkpt lat="32.4841698" lon="-110.6574176"><ele>1305.0</ele><time>2026-05-02T16:08:44.357Z</time></trkpt><trkpt lat="32.4841591" lon="-110.6576332"><ele>1305.0</ele><time>2026-05-02T16:08:45.356Z</time></trkpt><trkpt lat="32.4841607" lon="-110.6578549"><ele>1305.0</ele><time>2026-05-02T16:08:46.356Z</time></trkpt><trkpt lat="32.4841645" lon="-110.6580817"><ele>1304.6666666666667</ele><time>2026-05-02T16:08:47.356Z</time></trkpt><trkpt lat="32.4841867" lon="-110.6583137"><ele>1304.3333333333335</ele><time>2026-05-02T16:08:48.356Z</time></trkpt><trkpt lat="32.4842147" lon="-110.6585444"><ele>1304.0</ele><time>2026-05-02T16:08:49.357Z</time></trkpt><trkpt lat="32.484248" lon="-110.6587725"><ele>1304.0</ele><time>2026-05-02T16:08:50.356Z</time></trkpt><trkpt lat="32.4842851" lon="-110.6589991"><ele>1304.0</ele><time>2026-05-02T16:08:51.356Z</time></trkpt><trkpt lat="32.4843135" lon="-110.6592286"><ele>1304.0</ele><time>2026-05-02T16:08:52.357Z</time></trkpt><trkpt lat="32.4843291" lon="-110.6594514"><ele>1304.6666666666667</ele><time>2026-05-02T16:08:53.357Z</time></trkpt><trkpt lat="32.4843371" lon="-110.6596736"><ele>1305.3333333333333</ele><time>2026-05-02T16:08:54.357Z</time></trkpt><trkpt lat="32.4843359" lon="-110.6598896"><ele>1306.0</ele><time>2026-05-02T16:08:55.357Z</time></trkpt><trkpt lat="32.4843317" lon="-110.6601107"><ele>1305.0</ele><time>2026-05-02T16:08:56.356Z</time></trkpt><trkpt lat="32.4843208" lon="-110.6603408"><ele>1304.0</ele><time>2026-05-02T16:08:57.357Z</time></trkpt><trkpt lat="32.4843098" lon="-110.6605723"><ele>1303.0</ele><time>2026-05-02T16:08:58.357Z</time></trkpt><trkpt lat="32.4842903" lon="-110.6608006"><ele>1303.0</ele><time>2026-05-02T16:08:59.356Z</time></trkpt><trkpt lat="32.4842642" lon="-110.6610303"><ele>1303.0</ele><time>2026-05-02T16:09:00.356Z</time></trkpt><trkpt lat="32.4842287" lon="-110.6612578"><ele>1303.0</ele><time>2026-05-02T16:09:01.357Z</time></trkpt><trkpt lat="32.4841822" lon="-110.6614846"><ele>1303.6666666666665</ele><time>2026-05-02T16:09:02.357Z</time></trkpt><trkpt lat="32.4841276" lon="-110.661708"><ele>1304.3333333333333</ele><time>2026-05-02T16:09:03.357Z</time></trkpt><trkpt lat="32.4840697" lon="-110.6619276"><ele>1305.0</ele><time>2026-05-02T16:09:04.357Z</time></trkpt><trkpt lat="32.484017" lon="-110.6621374"><ele>1306.0</ele><time>2026-05-02T16:09:05.356Z</time></trkpt><trkpt lat="32.4839681" lon="-110.6623364"><ele>1307.0</ele><time>2026-05-02T16:09:06.356Z</time></trkpt><trkpt lat="32.483929" lon="-110.6625346"><ele>1308.0</ele><time>2026-05-02T16:09:07.358Z</time></trkpt><trkpt lat="32.4839029" lon="-110.6627283"><ele>1307.0</ele><time>2026-05-02T16:09:08.356Z</time></trkpt><trkpt lat="32.4838786" lon="-110.6629187"><ele>1306.0</ele><time>2026-05-02T16:09:09.357Z</time></trkpt><trkpt lat="32.4838687" lon="-110.6631093"><ele>1305.0</ele><time>2026-05-02T16:09:10.357Z</time></trkpt><trkpt lat="32.4838711" lon="-110.6632894"><ele>1305.0</ele><time>2026-05-02T16:09:11.357Z</time></trkpt><trkpt lat="32.4838922" lon="-110.6634829"><ele>1305.0</ele><time>2026-05-02T16:09:12.357Z</time></trkpt><trkpt lat="32.4839194" lon="-110.6636854"><ele>1305.0</ele><time>2026-05-02T16:09:13.357Z</time></trkpt><trkpt lat="32.4839446" lon="-110.6638905"><ele>1303.3333333333333</ele><time>2026-05-02T16:09:14.357Z</time></trkpt><trkpt lat="32.4839656" lon="-110.6640977"><ele>1301.6666666666665</ele><time>2026-05-02T16:09:15.357Z</time></trkpt><trkpt lat="32.4839727" lon="-110.664304"><ele>1300.0</ele><time>2026-05-02T16:09:16.356Z</time></trkpt><trkpt lat="32.4839799" lon="-110.6645156"><ele>1298.3333333333333</ele><time>2026-05-02T16:09:17.356Z</time></trkpt><trkpt lat="32.4839749" lon="-110.6647267"><ele>1296.6666666666667</ele><time>2026-05-02T16:09:18.357Z</time></trkpt><trkpt lat="32.4839694" lon="-110.6649397"><ele>1295.0</ele><time>2026-05-02T16:09:19.357Z</time></trkpt><trkpt lat="32.4839597" lon="-110.665145"><ele>1295.3333333333335</ele><time>2026-05-02T16:09:20.356Z</time></trkpt><trkpt lat="32.4839536" lon="-110.6653539"><ele>1295.6666666666667</ele><time>2026-05-02T16:09:21.358Z</time></trkpt><trkpt lat="32.4839519" lon="-110.6655674"><ele>1296.0</ele><time>2026-05-02T16:09:22.356Z</time></trkpt><trkpt lat="32.4839529" lon="-110.6657823"><ele>1296.0</ele><time>2026-05-02T16:09:23.356Z</time></trkpt><trkpt lat="32.4839606" lon="-110.6659965"><ele>1296.0</ele><time>2026-05-02T16:09:24.356Z</time></trkpt><trkpt lat="32.4839754" lon="-110.6662022"><ele>1296.0</ele><time>2026-05-02T16:09:25.357Z</time></trkpt><trkpt lat="32.4839984" lon="-110.6664027"><ele>1299.6666666666667</ele><time>2026-05-02T16:09:26.356Z</time></trkpt><trkpt lat="32.4840243" lon="-110.6666063"><ele>1303.3333333333335</ele><time>2026-05-02T16:09:27.357Z</time></trkpt><trkpt lat="32.4840563" lon="-110.6668169"><ele>1307.0</ele><time>2026-05-02T16:09:28.357Z</time></trkpt><trkpt lat="32.4840994" lon="-110.66702"><ele>1310.0</ele><time>2026-05-02T16:09:29.358Z</time></trkpt><trkpt lat="32.4841398" lon="-110.6672091"><ele>1313.0</ele><time>2026-05-02T16:09:30.357Z</time></trkpt><trkpt lat="32.4841676" lon="-110.6673954"><ele>1316.0</ele><time>2026-05-02T16:09:31.356Z</time></trkpt><trkpt lat="32.4841835" lon="-110.6675842"><ele>1316.0</ele><time>2026-05-02T16:09:32.357Z</time></trkpt><trkpt lat="32.4841816" lon="-110.6677639"><ele>1316.0</ele><time>2026-05-02T16:09:33.358Z</time></trkpt><trkpt lat="32.4841602" lon="-110.6679427"><ele>1316.0</ele><time>2026-05-02T16:09:34.357Z</time></trkpt><trkpt lat="32.4841352" lon="-110.6681253"><ele>1316.6666666666667</ele><time>2026-05-02T16:09:35.358Z</time></trkpt><trkpt lat="32.4840857" lon="-110.6683063"><ele>1317.3333333333333</ele><time>2026-05-02T16:09:36.357Z</time></trkpt><trkpt lat="32.4840281" lon="-110.668494"><ele>1318.0</ele><time>2026-05-02T16:09:37.357Z</time></trkpt><trkpt lat="32.4839729" lon="-110.6686852"><ele>1318.0</ele><time>2026-05-02T16:09:38.357Z</time></trkpt><trkpt lat="32.4839182" lon="-110.6688896"><ele>1318.0</ele><time>2026-05-02T16:09:39.358Z</time></trkpt><trkpt lat="32.4838654" lon="-110.6690827"><ele>1318.0</ele><time>2026-05-02T16:09:40.356Z</time></trkpt><trkpt lat="32.4838204" lon="-110.6692818"><ele>1317.6666666666665</ele><time>2026-05-02T16:09:41.357Z</time></trkpt><trkpt lat="32.4837815" lon="-110.6694842"><ele>1317.3333333333333</ele><time>2026-05-02T16:09:42.358Z</time></trkpt><trkpt lat="32.4837612" lon="-110.6696784"><ele>1317.0</ele><time>2026-05-02T16:09:43.357Z</time></trkpt><trkpt lat="32.483748" lon="-110.6698834"><ele>1321.6666666666667</ele><time>2026-05-02T16:09:44.358Z</time></trkpt><trkpt lat="32.4837398" lon="-110.6700887"><ele>1326.3333333333335</ele><time>2026-05-02T16:09:45.357Z</time></trkpt><trkpt lat="32.4837375" lon="-110.6702914"><ele>1331.0</ele><time>2026-05-02T16:09:46.358Z</time></trkpt><trkpt lat="32.4837342" lon="-110.6704848"><ele>1333.0</ele><time>2026-05-02T16:09:47.357Z</time></trkpt><trkpt lat="32.4837228" lon="-110.6706717"><ele>1335.0</ele><time>2026-05-02T16:09:48.357Z</time></trkpt><trkpt lat="32.483704" lon="-110.6708577"><ele>1337.0</ele><time>2026-05-02T16:09:49.357Z</time></trkpt><trkpt lat="32.4836812" lon="-110.6710438"><ele>1340.25</ele><time>2026-05-02T16:09:50.358Z</time></trkpt><trkpt lat="32.4836639" lon="-110.6712194"><ele>1343.5</ele><time>2026-05-02T16:09:51.357Z</time></trkpt><trkpt lat="32.4836538" lon="-110.6713796"><ele>1346.75</ele><time>2026-05-02T16:09:52.357Z</time></trkpt><trkpt lat="32.4836483" lon="-110.6715304"><ele>1350.0</ele><time>2026-05-02T16:09:53.357Z</time></trkpt><trkpt lat="32.4836479" lon="-110.6716741"><ele>1350.0</ele><time>2026-05-02T16:09:54.358Z</time></trkpt><trkpt lat="32.4836502" lon="-110.6718105"><ele>1350.0</ele><time>2026-05-02T16:09:55.357Z</time></trkpt><trkpt lat="32.4836411" lon="-110.6719253"><ele>1350.0</ele><time>2026-05-02T16:09:56.358Z</time></trkpt><trkpt lat="32.483615" lon="-110.6720314"><ele>1350.0</ele><time>2026-05-02T16:09:57.358Z</time></trkpt><trkpt lat="32.4835614" lon="-110.6721386"><ele>1350.0</ele><time>2026-05-02T16:09:58.357Z</time></trkpt><trkpt lat="32.4835003" lon="-110.6722383"><ele>1352.25</ele><time>2026-05-02T16:09:59.358Z</time></trkpt><trkpt lat="32.4834253" lon="-110.6723442"><ele>1354.5</ele><time>2026-05-02T16:10:00.358Z</time></trkpt><trkpt lat="32.4833451" lon="-110.6724635"><ele>1356.75</ele><time>2026-05-02T16:10:01.357Z</time></trkpt><trkpt lat="32.4832674" lon="-110.6725932"><ele>1359.0</ele><time>2026-05-02T16:10:02.357Z</time></trkpt><trkpt lat="32.483201" lon="-110.6727199"><ele>1358.25</ele><time>2026-05-02T16:10:03.357Z</time></trkpt><trkpt lat="32.483144" lon="-110.6728516"><ele>1357.5</ele><time>2026-05-02T16:10:04.357Z</time></trkpt><trkpt lat="32.4830908" lon="-110.6729746"><ele>1356.75</ele><time>2026-05-02T16:10:05.358Z</time></trkpt><trkpt lat="32.4830369" lon="-110.673099"><ele>1356.0</ele><time>2026-05-02T16:10:06.357Z</time></trkpt><trkpt lat="32.4829835" lon="-110.6732261"><ele>1355.75</ele><time>2026-05-02T16:10:07.357Z</time></trkpt><trkpt lat="32.4829286" lon="-110.6733533"><ele>1355.5</ele><time>2026-05-02T16:10:08.357Z</time></trkpt><trkpt lat="32.482863" lon="-110.6734651"><ele>1355.25</ele><time>2026-05-02T16:10:09.357Z</time></trkpt><trkpt lat="32.4827862" lon="-110.6735538"><ele>1355.0</ele><time>2026-05-02T16:10:10.357Z</time></trkpt><trkpt lat="32.4826951" lon="-110.6736283"><ele>1355.0</ele><time>2026-05-02T16:10:11.357Z</time></trkpt><trkpt lat="32.482589" lon="-110.6737018"><ele>1355.0</ele><time>2026-05-02T16:10:12.358Z</time></trkpt><trkpt lat="32.482461" lon="-110.6737439"><ele>1355.0</ele><time>2026-05-02T16:10:13.358Z</time></trkpt><trkpt lat="32.4823188" lon="-110.6737788"><ele>1355.0</ele><time>2026-05-02T16:10:14.357Z</time></trkpt><trkpt lat="32.4821655" lon="-110.6738133"><ele>1356.0</ele><time>2026-05-02T16:10:15.357Z</time></trkpt><trkpt lat="32.4820302" lon="-110.673851"><ele>1357.0</ele><time>2026-05-02T16:10:16.358Z</time></trkpt><trkpt lat="32.4819017" lon="-110.6739003"><ele>1358.0</ele><time>2026-05-02T16:10:17.357Z</time></trkpt><trkpt lat="32.4817769" lon="-110.6739579"><ele>1359.0</ele><time>2026-05-02T16:10:18.358Z</time></trkpt><trkpt lat="32.4816521" lon="-110.6740224"><ele>1359.0</ele><time>2026-05-02T16:10:19.357Z</time></trkpt><trkpt lat="32.4815322" lon="-110.6741076"><ele>1359.0</ele><time>2026-05-02T16:10:20.357Z</time></trkpt><trkpt lat="32.4814153" lon="-110.6741981"><ele>1359.0</ele><time>2026-05-02T16:10:21.357Z</time></trkpt><trkpt lat="32.4813071" lon="-110.6743001"><ele>1359.0</ele><time>2026-05-02T16:10:22.357Z</time></trkpt><trkpt lat="32.4812097" lon="-110.6744155"><ele>1360.6666666666667</ele><time>2026-05-02T16:10:23.358Z</time></trkpt><trkpt lat="32.4811147" lon="-110.6745505"><ele>1362.3333333333335</ele><time>2026-05-02T16:10:24.358Z</time></trkpt><trkpt lat="32.4810245" lon="-110.6746916"><ele>1364.0</ele><time>2026-05-02T16:10:25.358Z</time></trkpt><trkpt lat="32.4809478" lon="-110.6748571"><ele>1364.0</ele><time>2026-05-02T16:10:26.357Z</time></trkpt><trkpt lat="32.4808787" lon="-110.6750292"><ele>1364.0</ele><time>2026-05-02T16:10:27.358Z</time></trkpt><trkpt lat="32.4808193" lon="-110.675204"><ele>1364.0</ele><time>2026-05-02T16:10:28.358Z</time></trkpt><trkpt lat="32.4807681" lon="-110.6753817"><ele>1364.6666666666667</ele><time>2026-05-02T16:10:29.357Z</time></trkpt><trkpt lat="32.4807292" lon="-110.6755612"><ele>1365.3333333333333</ele><time>2026-05-02T16:10:30.357Z</time></trkpt><trkpt lat="32.4807005" lon="-110.6757439"><ele>1366.0</ele><time>2026-05-02T16:10:31.358Z</time></trkpt><trkpt lat="32.4806782" lon="-110.6759268"><ele>1365.25</ele><time>2026-05-02T16:10:32.357Z</time></trkpt><trkpt lat="32.4806576" lon="-110.6761048"><ele>1364.5</ele><time>2026-05-02T16:10:33.358Z</time></trkpt><trkpt lat="32.4806333" lon="-110.6762764"><ele>1363.75</ele><time>2026-05-02T16:10:34.358Z</time></trkpt><trkpt lat="32.4806028" lon="-110.6764474"><ele>1363.0</ele><time>2026-05-02T16:10:35.358Z</time></trkpt><trkpt lat="32.48057" lon="-110.6766198"><ele>1363.0</ele><time>2026-05-02T16:10:36.358Z</time></trkpt><trkpt lat="32.4805308" lon="-110.6767932"><ele>1363.0</ele><time>2026-05-02T16:10:37.357Z</time></trkpt><trkpt lat="32.480492" lon="-110.6769685"><ele>1363.0</ele><time>2026-05-02T16:10:38.357Z</time></trkpt><trkpt lat="32.4804498" lon="-110.677137"><ele>1362.3333333333333</ele><time>2026-05-02T16:10:39.357Z</time></trkpt><trkpt lat="32.4804052" lon="-110.6773142"><ele>1361.6666666666667</ele><time>2026-05-02T16:10:40.357Z</time></trkpt><trkpt lat="32.4803591" lon="-110.6774845"><ele>1361.0</ele><time>2026-05-02T16:10:41.357Z</time></trkpt><trkpt lat="32.4803049" lon="-110.6776505"><ele>1361.75</ele><time>2026-05-02T16:10:42.358Z</time></trkpt><trkpt lat="32.4802426" lon="-110.6778116"><ele>1362.5</ele><time>2026-05-02T16:10:43.358Z</time></trkpt><trkpt lat="32.4801684" lon="-110.6779615"><ele>1363.25</ele><time>2026-05-02T16:10:44.357Z</time></trkpt><trkpt lat="32.480081" lon="-110.6780949"><ele>1364.0</ele><time>2026-05-02T16:10:45.357Z</time></trkpt><trkpt lat="32.4799768" lon="-110.6782102"><ele>1364.0</ele><time>2026-05-02T16:10:46.358Z</time></trkpt><trkpt lat="32.4798574" lon="-110.6783145"><ele>1364.0</ele><time>2026-05-02T16:10:47.358Z</time></trkpt><trkpt lat="32.4797341" lon="-110.6784216"><ele>1364.0</ele><time>2026-05-02T16:10:48.357Z</time></trkpt><trkpt lat="32.4796121" lon="-110.6785388"><ele>1366.3333333333335</ele><time>2026-05-02T16:10:49.358Z</time></trkpt><trkpt lat="32.4795025" lon="-110.6786657"><ele>1368.6666666666667</ele><time>2026-05-02T16:10:50.358Z</time></trkpt><trkpt lat="32.4794061" lon="-110.678808"><ele>1371.0</ele><time>2026-05-02T16:10:51.358Z</time></trkpt><trkpt lat="32.479322" lon="-110.6789626"><ele>1371.0</ele><time>2026-05-02T16:10:52.359Z</time></trkpt><trkpt lat="32.4792478" lon="-110.6791285"><ele>1371.0</ele><time>2026-05-02T16:10:53.358Z</time></trkpt><trkpt lat="32.4791821" lon="-110.6792999"><ele>1371.0</ele><time>2026-05-02T16:10:54.357Z</time></trkpt><trkpt lat="32.4791233" lon="-110.6794742"><ele>1371.6666666666667</ele><time>2026-05-02T16:10:55.357Z</time></trkpt><trkpt lat="32.4790754" lon="-110.6796521"><ele>1372.3333333333335</ele><time>2026-05-02T16:10:56.359Z</time></trkpt><trkpt lat="32.4790328" lon="-110.6798323"><ele>1373.0</ele><time>2026-05-02T16:10:57.358Z</time></trkpt><trkpt lat="32.4789914" lon="-110.6800109"><ele>1373.0</ele><time>2026-05-02T16:10:58.358Z</time></trkpt><trkpt lat="32.4789521" lon="-110.6801886"><ele>1373.0</ele><time>2026-05-02T16:10:59.358Z</time></trkpt><trkpt lat="32.4789212" lon="-110.6803666"><ele>1373.0</ele><time>2026-05-02T16:11:00.357Z</time></trkpt><trkpt lat="32.4789001" lon="-110.6805424"><ele>1373.0</ele><time>2026-05-02T16:11:01.359Z</time></trkpt><trkpt lat="32.4788833" lon="-110.6807037"><ele>1373.0</ele><time>2026-05-02T16:11:02.358Z</time></trkpt><trkpt lat="32.4788623" lon="-110.6808568"><ele>1373.0</ele><time>2026-05-02T16:11:03.357Z</time></trkpt><trkpt lat="32.478831" lon="-110.6810132"><ele>1373.0</ele><time>2026-05-02T16:11:04.358Z</time></trkpt><trkpt lat="32.4787878" lon="-110.6811719"><ele>1377.0</ele><time>2026-05-02T16:11:05.358Z</time></trkpt><trkpt lat="32.4787391" lon="-110.6813223"><ele>1381.0</ele><time>2026-05-02T16:11:06.358Z</time></trkpt><trkpt lat="32.478688" lon="-110.6814792"><ele>1385.0</ele><time>2026-05-02T16:11:07.358Z</time></trkpt><trkpt lat="32.4786433" lon="-110.6816421"><ele>1389.0</ele><time>2026-05-02T16:11:08.358Z</time></trkpt><trkpt lat="32.4786083" lon="-110.6818068"><ele>1388.5</ele><time>2026-05-02T16:11:09.358Z</time></trkpt><trkpt lat="32.4785825" lon="-110.6819749"><ele>1388.0</ele><time>2026-05-02T16:11:10.359Z</time></trkpt><trkpt lat="32.4785695" lon="-110.682148"><ele>1387.5</ele><time>2026-05-02T16:11:11.357Z</time></trkpt><trkpt lat="32.4785712" lon="-110.6823231"><ele>1387.0</ele><time>2026-05-02T16:11:12.357Z</time></trkpt><trkpt lat="32.4785845" lon="-110.6824983"><ele>1387.0</ele><time>2026-05-02T16:11:13.359Z</time></trkpt><trkpt lat="32.4786051" lon="-110.68267"><ele>1387.0</ele><time>2026-05-02T16:11:14.359Z</time></trkpt><trkpt lat="32.4786271" lon="-110.6828443"><ele>1387.0</ele><time>2026-05-02T16:11:15.358Z</time></trkpt><trkpt lat="32.4786467" lon="-110.6830158"><ele>1387.0</ele><time>2026-05-02T16:11:16.359Z</time></trkpt><trkpt lat="32.4786654" lon="-110.6831851"><ele>1384.5</ele><time>2026-05-02T16:11:17.359Z</time></trkpt><trkpt lat="32.478683" lon="-110.6833479"><ele>1382.0</ele><time>2026-05-02T16:11:18.358Z</time></trkpt><trkpt lat="32.4787017" lon="-110.6835082"><ele>1379.5</ele><time>2026-05-02T16:11:19.358Z</time></trkpt><trkpt lat="32.4787187" lon="-110.6836672"><ele>1377.0</ele><time>2026-05-02T16:11:20.358Z</time></trkpt><trkpt lat="32.4787336" lon="-110.6838215"><ele>1376.5</ele><time>2026-05-02T16:11:21.359Z</time></trkpt><trkpt lat="32.4787475" lon="-110.6839772"><ele>1376.0</ele><time>2026-05-02T16:11:22.359Z</time></trkpt><trkpt lat="32.478771" lon="-110.6841391"><ele>1375.5</ele><time>2026-05-02T16:11:23.358Z</time></trkpt><trkpt lat="32.4787957" lon="-110.6843144"><ele>1375.0</ele><time>2026-05-02T16:11:24.358Z</time></trkpt><trkpt lat="32.478816" lon="-110.6844994"><ele>1375.0</ele><time>2026-05-02T16:11:25.358Z</time></trkpt><trkpt lat="32.4788344" lon="-110.6846927"><ele>1375.0</ele><time>2026-05-02T16:11:26.358Z</time></trkpt><trkpt lat="32.4788531" lon="-110.6848823"><ele>1375.0</ele><time>2026-05-02T16:11:27.358Z</time></trkpt><trkpt lat="32.4788719" lon="-110.6850642"><ele>1375.0</ele><time>2026-05-02T16:11:28.358Z</time></trkpt><trkpt lat="32.4788927" lon="-110.6852416"><ele>1375.0</ele><time>2026-05-02T16:11:29.358Z</time></trkpt><trkpt lat="32.4789125" lon="-110.6854098"><ele>1375.0</ele><time>2026-05-02T16:11:30.359Z</time></trkpt><trkpt lat="32.4789284" lon="-110.6855715"><ele>1375.0</ele><time>2026-05-02T16:11:31.359Z</time></trkpt><trkpt lat="32.4789374" lon="-110.6857349"><ele>1376.0</ele><time>2026-05-02T16:11:32.359Z</time></trkpt><trkpt lat="32.4789433" lon="-110.6859055"><ele>1377.0</ele><time>2026-05-02T16:11:33.359Z</time></trkpt><trkpt lat="32.478954" lon="-110.6860768"><ele>1378.0</ele><time>2026-05-02T16:11:34.358Z</time></trkpt><trkpt lat="32.4789677" lon="-110.6862459"><ele>1379.0</ele><time>2026-05-02T16:11:35.358Z</time></trkpt><trkpt lat="32.4789808" lon="-110.6864053"><ele>1379.5</ele><time>2026-05-02T16:11:36.359Z</time></trkpt><trkpt lat="32.479" lon="-110.6865588"><ele>1380.0</ele><time>2026-05-02T16:11:37.359Z</time></trkpt><trkpt lat="32.4790306" lon="-110.6867117"><ele>1380.5</ele><time>2026-05-02T16:11:38.358Z</time></trkpt><trkpt lat="32.4790749" lon="-110.6868682"><ele>1381.0</ele><time>2026-05-02T16:11:39.358Z</time></trkpt><trkpt lat="32.4791334" lon="-110.6870289"><ele>1379.6666666666665</ele><time>2026-05-02T16:11:40.359Z</time></trkpt><trkpt lat="32.4792014" lon="-110.6871901"><ele>1378.3333333333333</ele><time>2026-05-02T16:11:41.358Z</time></trkpt><trkpt lat="32.4792724" lon="-110.6873535"><ele>1377.0</ele><time>2026-05-02T16:11:42.358Z</time></trkpt><trkpt lat="32.4793449" lon="-110.6875219"><ele>1377.0</ele><time>2026-05-02T16:11:43.358Z</time></trkpt><trkpt lat="32.4794203" lon="-110.687693"><ele>1377.0</ele><time>2026-05-02T16:11:44.359Z</time></trkpt><trkpt lat="32.4794974" lon="-110.6878576"><ele>1377.0</ele><time>2026-05-02T16:11:45.359Z</time></trkpt><trkpt lat="32.4795763" lon="-110.6880064"><ele>1380.0</ele><time>2026-05-02T16:11:46.358Z</time></trkpt><trkpt lat="32.479663" lon="-110.6881442"><ele>1383.0</ele><time>2026-05-02T16:11:47.359Z</time></trkpt><trkpt lat="32.47976" lon="-110.6882684"><ele>1386.0</ele><time>2026-05-02T16:11:48.359Z</time></trkpt><trkpt lat="32.4798649" lon="-110.6883708"><ele>1389.0</ele><time>2026-05-02T16:11:49.358Z</time></trkpt><trkpt lat="32.4799714" lon="-110.688463"><ele>1389.0</ele><time>2026-05-02T16:11:50.358Z</time></trkpt><trkpt lat="32.4800817" lon="-110.6885172"><ele>1389.0</ele><time>2026-05-02T16:11:51.359Z</time></trkpt><trkpt lat="32.4801994" lon="-110.6885653"><ele>1389.0</ele><time>2026-05-02T16:11:52.359Z</time></trkpt><trkpt lat="32.4803354" lon="-110.6886165"><ele>1389.0</ele><time>2026-05-02T16:11:53.359Z</time></trkpt><trkpt lat="32.4804797" lon="-110.688662"><ele>1390.0</ele><time>2026-05-02T16:11:54.358Z</time></trkpt><trkpt lat="32.4806293" lon="-110.6887044"><ele>1391.0</ele><time>2026-05-02T16:11:55.358Z</time></trkpt><trkpt lat="32.4807774" lon="-110.6887483"><ele>1392.0</ele><time>2026-05-02T16:11:56.358Z</time></trkpt><trkpt lat="32.4809135" lon="-110.6887918"><ele>1393.0</ele><time>2026-05-02T16:11:57.359Z</time></trkpt><trkpt lat="32.4810372" lon="-110.6888425"><ele>1393.0</ele><time>2026-05-02T16:11:58.358Z</time></trkpt><trkpt lat="32.4811468" lon="-110.6889089"><ele>1393.0</ele><time>2026-05-02T16:11:59.358Z</time></trkpt><trkpt lat="32.4812526" lon="-110.6889838"><ele>1393.0</ele><time>2026-05-02T16:12:00.358Z</time></trkpt><trkpt lat="32.4813418" lon="-110.6890989"><ele>1393.0</ele><time>2026-05-02T16:12:01.358Z</time></trkpt><trkpt lat="32.4814313" lon="-110.6892398"><ele>1393.0</ele><time>2026-05-02T16:12:02.358Z</time></trkpt><trkpt lat="32.481519" lon="-110.6893921"><ele>1393.0</ele><time>2026-05-02T16:12:03.358Z</time></trkpt><trkpt lat="32.4815977" lon="-110.6895419"><ele>1393.0</ele><time>2026-05-02T16:12:04.358Z</time></trkpt><trkpt lat="32.481666" lon="-110.6896999"><ele>1393.0</ele><time>2026-05-02T16:12:05.359Z</time></trkpt><trkpt lat="32.481723" lon="-110.6898696"><ele>1393.0</ele><time>2026-05-02T16:12:06.358Z</time></trkpt><trkpt lat="32.4817704" lon="-110.6900405"><ele>1393.0</ele><time>2026-05-02T16:12:07.358Z</time></trkpt><trkpt lat="32.4818054" lon="-110.6902104"><ele>1393.0</ele><time>2026-05-02T16:12:08.359Z</time></trkpt><trkpt lat="32.4818336" lon="-110.6903797"><ele>1393.0</ele><time>2026-05-02T16:12:09.358Z</time></trkpt><trkpt lat="32.4818369" lon="-110.6905569"><ele>1393.0</ele><time>2026-05-02T16:12:10.358Z</time></trkpt><trkpt lat="32.4818286" lon="-110.6907346"><ele>1393.0</ele><time>2026-05-02T16:12:11.359Z</time></trkpt><trkpt lat="32.4818114" lon="-110.6909131"><ele>1394.3333333333333</ele><time>2026-05-02T16:12:12.359Z</time></trkpt><trkpt lat="32.4817861" lon="-110.6911007"><ele>1395.6666666666667</ele><time>2026-05-02T16:12:13.359Z</time></trkpt><trkpt lat="32.4817543" lon="-110.6912845"><ele>1397.0</ele><time>2026-05-02T16:12:14.359Z</time></trkpt><trkpt lat="32.4817161" lon="-110.6914558"><ele>1397.0</ele><time>2026-05-02T16:12:15.358Z</time></trkpt><trkpt lat="32.4816712" lon="-110.6916257"><ele>1397.0</ele><time>2026-05-02T16:12:16.359Z</time></trkpt><trkpt lat="32.4816166" lon="-110.6917956"><ele>1397.0</ele><time>2026-05-02T16:12:17.359Z</time></trkpt><trkpt lat="32.4815481" lon="-110.6919578"><ele>1397.0</ele><time>2026-05-02T16:12:18.36Z</time></trkpt><trkpt lat="32.4814619" lon="-110.6921118"><ele>1397.0</ele><time>2026-05-02T16:12:19.358Z</time></trkpt><trkpt lat="32.4813536" lon="-110.6922688"><ele>1397.0</ele><time>2026-05-02T16:12:20.359Z</time></trkpt><trkpt lat="32.4812316" lon="-110.6924285"><ele>1397.0</ele><time>2026-05-02T16:12:21.359Z</time></trkpt><trkpt lat="32.4811117" lon="-110.6925787"><ele>1397.0</ele><time>2026-05-02T16:12:22.359Z</time></trkpt><trkpt lat="32.4809987" lon="-110.6927177"><ele>1397.0</ele><time>2026-05-02T16:12:23.358Z</time></trkpt><trkpt lat="32.4808944" lon="-110.692849"><ele>1397.75</ele><time>2026-05-02T16:12:24.36Z</time></trkpt><trkpt lat="32.4807974" lon="-110.6929848"><ele>1398.5</ele><time>2026-05-02T16:12:25.358Z</time></trkpt><trkpt lat="32.480712" lon="-110.6931285"><ele>1399.25</ele><time>2026-05-02T16:12:26.358Z</time></trkpt><trkpt lat="32.48064" lon="-110.6932826"><ele>1400.0</ele><time>2026-05-02T16:12:27.359Z</time></trkpt><trkpt lat="32.4805816" lon="-110.6934504"><ele>1402.0</ele><time>2026-05-02T16:12:28.359Z</time></trkpt><trkpt lat="32.4805332" lon="-110.6936318"><ele>1404.0</ele><time>2026-05-02T16:12:29.359Z</time></trkpt><trkpt lat="32.48049" lon="-110.6938188"><ele>1406.0</ele><time>2026-05-02T16:12:30.359Z</time></trkpt><trkpt lat="32.4804487" lon="-110.6940017"><ele>1405.5</ele><time>2026-05-02T16:12:31.358Z</time></trkpt><trkpt lat="32.4804125" lon="-110.6941721"><ele>1405.0</ele><time>2026-05-02T16:12:32.36Z</time></trkpt><trkpt lat="32.4803796" lon="-110.694344"><ele>1404.5</ele><time>2026-05-02T16:12:33.36Z</time></trkpt><trkpt lat="32.4803529" lon="-110.6945118"><ele>1404.0</ele><time>2026-05-02T16:12:34.36Z</time></trkpt><trkpt lat="32.4803281" lon="-110.6946752"><ele>1406.75</ele><time>2026-05-02T16:12:35.358Z</time></trkpt><trkpt lat="32.4802983" lon="-110.6948275"><ele>1409.5</ele><time>2026-05-02T16:12:36.358Z</time></trkpt><trkpt lat="32.4802584" lon="-110.6949667"><ele>1412.25</ele><time>2026-05-02T16:12:37.359Z</time></trkpt><trkpt lat="32.4802019" lon="-110.6950923"><ele>1415.0</ele><time>2026-05-02T16:12:38.359Z</time></trkpt><trkpt lat="32.4801257" lon="-110.6951996"><ele>1417.25</ele><time>2026-05-02T16:12:39.36Z</time></trkpt><trkpt lat="32.4800333" lon="-110.6952904"><ele>1419.5</ele><time>2026-05-02T16:12:40.36Z</time></trkpt><trkpt lat="32.4799303" lon="-110.6953679"><ele>1421.75</ele><time>2026-05-02T16:12:41.36Z</time></trkpt><trkpt lat="32.4798203" lon="-110.695435"><ele>1424.0</ele><time>2026-05-02T16:12:42.36Z</time></trkpt><trkpt lat="32.4797187" lon="-110.6954987"><ele>1424.0</ele><time>2026-05-02T16:12:43.359Z</time></trkpt><trkpt lat="32.4796352" lon="-110.6955674"><ele>1424.0</ele><time>2026-05-02T16:12:44.359Z</time></trkpt><trkpt lat="32.4795685" lon="-110.6956474"><ele>1424.0</ele><time>2026-05-02T16:12:45.36Z</time></trkpt><trkpt lat="32.4795154" lon="-110.6957452"><ele>1424.0</ele><time>2026-05-02T16:12:46.36Z</time></trkpt><trkpt lat="32.4794758" lon="-110.6958643"><ele>1424.0</ele><time>2026-05-02T16:12:47.359Z</time></trkpt><trkpt lat="32.4794452" lon="-110.6959977"><ele>1423.75</ele><time>2026-05-02T16:12:48.359Z</time></trkpt><trkpt lat="32.4794153" lon="-110.696133"><ele>1423.5</ele><time>2026-05-02T16:12:49.359Z</time></trkpt><trkpt lat="32.4793855" lon="-110.6962629"><ele>1423.25</ele><time>2026-05-02T16:12:50.36Z</time></trkpt><trkpt lat="32.4793552" lon="-110.696394"><ele>1423.0</ele><time>2026-05-02T16:12:51.36Z</time></trkpt><trkpt lat="32.479321" lon="-110.6965359"><ele>1423.0</ele><time>2026-05-02T16:12:52.36Z</time></trkpt><trkpt lat="32.4792831" lon="-110.6966897"><ele>1423.0</ele><time>2026-05-02T16:12:53.36Z</time></trkpt><trkpt lat="32.4792465" lon="-110.6968574"><ele>1423.0</ele><time>2026-05-02T16:12:54.359Z</time></trkpt><trkpt lat="32.479218" lon="-110.6970348"><ele>1423.0</ele><time>2026-05-02T16:12:55.359Z</time></trkpt><trkpt lat="32.479196" lon="-110.6972214"><ele>1424.3333333333333</ele><time>2026-05-02T16:12:56.359Z</time></trkpt><trkpt lat="32.4791757" lon="-110.6974166"><ele>1425.6666666666667</ele><time>2026-05-02T16:12:57.36Z</time></trkpt><trkpt lat="32.4791546" lon="-110.6976122"><ele>1427.0</ele><time>2026-05-02T16:12:58.36Z</time></trkpt><trkpt lat="32.4791315" lon="-110.6978107"><ele>1428.6666666666667</ele><time>2026-05-02T16:12:59.36Z</time></trkpt><trkpt lat="32.4791044" lon="-110.6980043"><ele>1430.3333333333333</ele><time>2026-05-02T16:13:00.359Z</time></trkpt><trkpt lat="32.4790763" lon="-110.6981847"><ele>1432.0</ele><time>2026-05-02T16:13:01.36Z</time></trkpt><trkpt lat="32.4790497" lon="-110.6983631"><ele>1432.0</ele><time>2026-05-02T16:13:02.36Z</time></trkpt><trkpt lat="32.4790272" lon="-110.6985453"><ele>1432.0</ele><time>2026-05-02T16:13:03.359Z</time></trkpt><trkpt lat="32.4790081" lon="-110.6987276"><ele>1432.0</ele><time>2026-05-02T16:13:04.359Z</time></trkpt><trkpt lat="32.4789912" lon="-110.6989102"><ele>1433.25</ele><time>2026-05-02T16:13:05.36Z</time></trkpt><trkpt lat="32.4789741" lon="-110.6990847"><ele>1434.5</ele><time>2026-05-02T16:13:06.359Z</time></trkpt><trkpt lat="32.4789542" lon="-110.6992554"><ele>1435.75</ele><time>2026-05-02T16:13:07.359Z</time></trkpt><trkpt lat="32.478936" lon="-110.6994291"><ele>1437.0</ele><time>2026-05-02T16:13:08.359Z</time></trkpt><trkpt lat="32.4789235" lon="-110.6996061"><ele>1438.5</ele><time>2026-05-02T16:13:09.36Z</time></trkpt><trkpt lat="32.478913" lon="-110.6997842"><ele>1440.0</ele><time>2026-05-02T16:13:10.36Z</time></trkpt><trkpt lat="32.4789" lon="-110.6999552"><ele>1441.5</ele><time>2026-05-02T16:13:11.359Z</time></trkpt><trkpt lat="32.4788767" lon="-110.7001125"><ele>1443.0</ele><time>2026-05-02T16:13:12.359Z</time></trkpt><trkpt lat="32.4788437" lon="-110.7002658"><ele>1445.0</ele><time>2026-05-02T16:13:13.36Z</time></trkpt><trkpt lat="32.4787949" lon="-110.7004134"><ele>1447.0</ele><time>2026-05-02T16:13:14.359Z</time></trkpt><trkpt lat="32.4787275" lon="-110.7005499"><ele>1449.0</ele><time>2026-05-02T16:13:15.359Z</time></trkpt><trkpt lat="32.4786447" lon="-110.7006832"><ele>1451.0</ele><time>2026-05-02T16:13:16.36Z</time></trkpt><trkpt lat="32.4785544" lon="-110.7008145"><ele>1452.5</ele><time>2026-05-02T16:13:17.359Z</time></trkpt><trkpt lat="32.4784616" lon="-110.7009321"><ele>1454.0</ele><time>2026-05-02T16:13:18.359Z</time></trkpt><trkpt lat="32.4783578" lon="-110.7010345"><ele>1455.5</ele><time>2026-05-02T16:13:19.359Z</time></trkpt><trkpt lat="32.4782424" lon="-110.7011203"><ele>1457.0</ele><time>2026-05-02T16:13:20.36Z</time></trkpt><trkpt lat="32.4781153" lon="-110.7011888"><ele>1457.0</ele><time>2026-05-02T16:13:21.36Z</time></trkpt><trkpt lat="32.4779778" lon="-110.7012391"><ele>1457.0</ele><time>2026-05-02T16:13:22.36Z</time></trkpt><trkpt lat="32.4778329" lon="-110.7012768"><ele>1457.0</ele><time>2026-05-02T16:13:23.359Z</time></trkpt><trkpt lat="32.4776848" lon="-110.7013093"><ele>1457.0</ele><time>2026-05-02T16:13:24.36Z</time></trkpt><trkpt lat="32.4775377" lon="-110.7013499"><ele>1455.75</ele><time>2026-05-02T16:13:25.36Z</time></trkpt><trkpt lat="32.4773931" lon="-110.7014046"><ele>1454.5</ele><time>2026-05-02T16:13:26.359Z</time></trkpt><trkpt lat="32.4772531" lon="-110.7014671"><ele>1453.25</ele><time>2026-05-02T16:13:27.359Z</time></trkpt><trkpt lat="32.4771191" lon="-110.7015285"><ele>1452.0</ele><time>2026-05-02T16:13:28.36Z</time></trkpt><trkpt lat="32.4769949" lon="-110.7015895"><ele>1450.25</ele><time>2026-05-02T16:13:29.359Z</time></trkpt><trkpt lat="32.4768767" lon="-110.7016618"><ele>1448.5</ele><time>2026-05-02T16:13:30.359Z</time></trkpt><trkpt lat="32.4767662" lon="-110.7017469"><ele>1446.75</ele><time>2026-05-02T16:13:31.359Z</time></trkpt><trkpt lat="32.4766684" lon="-110.7018433"><ele>1445.0</ele><time>2026-05-02T16:13:32.359Z</time></trkpt><trkpt lat="32.4765821" lon="-110.7019574"><ele>1448.5</ele><time>2026-05-02T16:13:33.359Z</time></trkpt><trkpt lat="32.4765036" lon="-110.7020918"><ele>1452.0</ele><time>2026-05-02T16:13:34.359Z</time></trkpt><trkpt lat="32.4764297" lon="-110.7022432"><ele>1455.5</ele><time>2026-05-02T16:13:35.359Z</time></trkpt><trkpt lat="32.4763562" lon="-110.7023989"><ele>1459.0</ele><time>2026-05-02T16:13:36.359Z</time></trkpt><trkpt lat="32.4762808" lon="-110.7025654"><ele>1458.0</ele><time>2026-05-02T16:13:37.359Z</time></trkpt><trkpt lat="32.4762092" lon="-110.7027399"><ele>1457.0</ele><time>2026-05-02T16:13:38.36Z</time></trkpt><trkpt lat="32.4761513" lon="-110.7029071"><ele>1456.0</ele><time>2026-05-02T16:13:39.359Z</time></trkpt><trkpt lat="32.4761035" lon="-110.7030635"><ele>1456.0</ele><time>2026-05-02T16:13:40.359Z</time></trkpt><trkpt lat="32.4760617" lon="-110.7032094"><ele>1456.0</ele><time>2026-05-02T16:13:41.359Z</time></trkpt><trkpt lat="32.4760214" lon="-110.7033439"><ele>1456.0</ele><time>2026-05-02T16:13:42.361Z</time></trkpt><trkpt lat="32.4759813" lon="-110.703466"><ele>1456.0</ele><time>2026-05-02T16:13:43.36Z</time></trkpt><trkpt lat="32.4759413" lon="-110.7035787"><ele>1456.1999999999998</ele><time>2026-05-02T16:13:44.36Z</time></trkpt><trkpt lat="32.4759053" lon="-110.703677"><ele>1456.3999999999999</ele><time>2026-05-02T16:13:45.36Z</time></trkpt><trkpt lat="32.4758755" lon="-110.7037571"><ele>1456.6</ele><time>2026-05-02T16:13:46.36Z</time></trkpt><trkpt lat="32.4758303" lon="-110.7038945"><ele>1456.8</ele><time>2026-05-02T16:13:48.359Z</time></trkpt><trkpt lat="32.4757855" lon="-110.7040256"><ele>1457.0</ele><time>2026-05-02T16:13:50.36Z</time></trkpt><trkpt lat="32.4757358" lon="-110.7041607"><ele>1457.0</ele><time>2026-05-02T16:13:52.359Z</time></trkpt><trkpt lat="32.4756895" lon="-110.704299"><ele>1457.0</ele><time>2026-05-02T16:13:54.359Z</time></trkpt><trkpt lat="32.4756696" lon="-110.7043711"><ele>1457.0</ele><time>2026-05-02T16:13:55.359Z</time></trkpt><trkpt lat="32.4756486" lon="-110.7044487"><ele>1457.0</ele><time>2026-05-02T16:13:56.359Z</time></trkpt><trkpt lat="32.475627" lon="-110.7045337"><ele>1457.0</ele><time>2026-05-02T16:13:57.359Z</time></trkpt><trkpt lat="32.4756138" lon="-110.7046196"><ele>1457.0</ele><time>2026-05-02T16:13:58.36Z</time></trkpt><trkpt lat="32.4756043" lon="-110.7047011"><ele>1458.1999999999998</ele><time>2026-05-02T16:13:59.36Z</time></trkpt><trkpt lat="32.4756147" lon="-110.7048248"><ele>1459.4</ele><time>2026-05-02T16:14:01.36Z</time></trkpt><trkpt lat="32.4756243" lon="-110.7049041"><ele>1460.6</ele><time>2026-05-02T16:14:03.36Z</time></trkpt><trkpt lat="32.4756496" lon="-110.7050015"><ele>1461.8000000000002</ele><time>2026-05-02T16:14:59.361Z</time></trkpt><trkpt lat="32.4756712" lon="-110.7051381"><ele>1463.0</ele><time>2026-05-02T16:15:01.361Z</time></trkpt><trkpt lat="32.475687" lon="-110.7052255"><ele>1463.2</ele><time>2026-05-02T16:15:02.36Z</time></trkpt><trkpt lat="32.4757089" lon="-110.7053233"><ele>1463.4</ele><time>2026-05-02T16:15:03.36Z</time></trkpt><trkpt lat="32.4757345" lon="-110.7054327"><ele>1463.6000000000001</ele><time>2026-05-02T16:15:04.36Z</time></trkpt><trkpt lat="32.4757634" lon="-110.7055523"><ele>1463.8000000000002</ele><time>2026-05-02T16:15:05.36Z</time></trkpt><trkpt lat="32.4757919" lon="-110.705671"><ele>1464.0</ele><time>2026-05-02T16:15:06.361Z</time></trkpt><trkpt lat="32.4758192" lon="-110.7057905"><ele>1464.0</ele><time>2026-05-02T16:15:07.361Z</time></trkpt><trkpt lat="32.4758461" lon="-110.7059054"><ele>1464.0</ele><time>2026-05-02T16:15:08.36Z</time></trkpt><trkpt lat="32.475873" lon="-110.7060104"><ele>1464.0</ele><time>2026-05-02T16:15:09.361Z</time></trkpt><trkpt lat="32.4759018" lon="-110.7061061"><ele>1464.0</ele><time>2026-05-02T16:15:10.36Z</time></trkpt><trkpt lat="32.4759368" lon="-110.7061975"><ele>1464.0</ele><time>2026-05-02T16:15:11.36Z</time></trkpt><trkpt lat="32.4759836" lon="-110.7062827"><ele>1464.0</ele><time>2026-05-02T16:15:12.361Z</time></trkpt><trkpt lat="32.4760419" lon="-110.7063567"><ele>1464.0</ele><time>2026-05-02T16:15:13.361Z</time></trkpt><trkpt lat="32.4761107" lon="-110.7064182"><ele>1464.0</ele><time>2026-05-02T16:15:14.361Z</time></trkpt><trkpt lat="32.4761883" lon="-110.7064754"><ele>1464.0</ele><time>2026-05-02T16:15:15.361Z</time></trkpt><trkpt lat="32.4762706" lon="-110.7065319"><ele>1464.0</ele><time>2026-05-02T16:15:16.361Z</time></trkpt><trkpt lat="32.4763552" lon="-110.7065882"><ele>1464.0</ele><time>2026-05-02T16:15:17.36Z</time></trkpt><trkpt lat="32.4764445" lon="-110.706643"><ele>1465.6</ele><time>2026-05-02T16:15:18.361Z</time></trkpt><trkpt lat="32.4765317" lon="-110.7066995"><ele>1467.2</ele><time>2026-05-02T16:15:19.361Z</time></trkpt><trkpt lat="32.476617" lon="-110.7067601"><ele>1468.8</ele><time>2026-05-02T16:15:20.361Z</time></trkpt><trkpt lat="32.4766986" lon="-110.7068212"><ele>1470.3999999999999</ele><time>2026-05-02T16:15:21.36Z</time></trkpt><trkpt lat="32.4767793" lon="-110.7068822"><ele>1472.0</ele><time>2026-05-02T16:15:22.362Z</time></trkpt><trkpt lat="32.4768533" lon="-110.7069431"><ele>1474.6</ele><time>2026-05-02T16:15:23.361Z</time></trkpt><trkpt lat="32.4769144" lon="-110.7069988"><ele>1477.1999999999998</ele><time>2026-05-02T16:15:24.36Z</time></trkpt><trkpt lat="32.4769621" lon="-110.7070558"><ele>1479.8</ele><time>2026-05-02T16:15:25.361Z</time></trkpt><trkpt lat="32.4770203" lon="-110.7071975"><ele>1482.4</ele><time>2026-05-02T16:15:27.361Z</time></trkpt><trkpt lat="32.4770296" lon="-110.707299"><ele>1485.0</ele><time>2026-05-02T16:15:28.361Z</time></trkpt><trkpt lat="32.4770422" lon="-110.7074136"><ele>1485.0</ele><time>2026-05-02T16:15:29.361Z</time></trkpt><trkpt lat="32.4770618" lon="-110.7075341"><ele>1485.0</ele><time>2026-05-02T16:15:30.361Z</time></trkpt><trkpt lat="32.477087" lon="-110.7076563"><ele>1485.0</ele><time>2026-05-02T16:15:31.361Z</time></trkpt><trkpt lat="32.4771189" lon="-110.7077789"><ele>1485.0</ele><time>2026-05-02T16:15:32.362Z</time></trkpt><trkpt lat="32.4771512" lon="-110.7079016"><ele>1485.0</ele><time>2026-05-02T16:15:33.362Z</time></trkpt><trkpt lat="32.4771823" lon="-110.7080239"><ele>1486.8</ele><time>2026-05-02T16:15:34.36Z</time></trkpt><trkpt lat="32.477215" lon="-110.7081453"><ele>1488.6</ele><time>2026-05-02T16:15:35.361Z</time></trkpt><trkpt lat="32.4772499" lon="-110.7082641"><ele>1490.4</ele><time>2026-05-02T16:15:36.361Z</time></trkpt><trkpt lat="32.4772848" lon="-110.7083783"><ele>1492.2</ele><time>2026-05-02T16:15:37.361Z</time></trkpt><trkpt lat="32.4773299" lon="-110.7084849"><ele>1494.0</ele><time>2026-05-02T16:15:38.361Z</time></trkpt><trkpt lat="32.477379" lon="-110.7085746"><ele>1496.3333333333333</ele><time>2026-05-02T16:15:39.361Z</time></trkpt><trkpt lat="32.4774321" lon="-110.7086502"><ele>1498.6666666666667</ele><time>2026-05-02T16:15:40.361Z</time></trkpt><trkpt lat="32.4774905" lon="-110.7087165"><ele>1501.0</ele><time>2026-05-02T16:15:41.361Z</time></trkpt><trkpt lat="32.4775562" lon="-110.7087632"><ele>1503.3333333333335</ele><time>2026-05-02T16:15:42.36Z</time></trkpt><trkpt lat="32.4776294" lon="-110.708786"><ele>1505.6666666666667</ele><time>2026-05-02T16:15:43.361Z</time></trkpt><trkpt lat="32.4777102" lon="-110.7087881"><ele>1508.0</ele><time>2026-05-02T16:15:44.361Z</time></trkpt><trkpt lat="32.4778002" lon="-110.7087818"><ele>1508.0</ele><time>2026-05-02T16:15:45.362Z</time></trkpt><trkpt lat="32.4779002" lon="-110.7087691"><ele>1508.0</ele><time>2026-05-02T16:15:46.361Z</time></trkpt><trkpt lat="32.4779982" lon="-110.7087594"><ele>1508.0</ele><time>2026-05-02T16:15:47.361Z</time></trkpt><trkpt lat="32.478088" lon="-110.7087635"><ele>1508.0</ele><time>2026-05-02T16:15:48.361Z</time></trkpt><trkpt lat="32.4781658" lon="-110.7087877"><ele>1508.0</ele><time>2026-05-02T16:15:49.362Z</time></trkpt><trkpt lat="32.4782312" lon="-110.7088283"><ele>1508.0</ele><time>2026-05-02T16:15:50.36Z</time></trkpt><trkpt lat="32.4782796" lon="-110.7088793"><ele>1507.0</ele><time>2026-05-02T16:15:51.361Z</time></trkpt><trkpt lat="32.4783223" lon="-110.7089884"><ele>1506.0</ele><time>2026-05-02T16:15:53.362Z</time></trkpt><trkpt lat="32.4783145" lon="-110.709116"><ele>1505.0</ele><time>2026-05-02T16:15:55.361Z</time></trkpt><trkpt lat="32.478288" lon="-110.7091935"><ele>1504.0</ele><time>2026-05-02T16:15:56.362Z</time></trkpt><trkpt lat="32.4782438" lon="-110.7092774"><ele>1503.0</ele><time>2026-05-02T16:15:57.361Z</time></trkpt><trkpt lat="32.4781907" lon="-110.7093691"><ele>1503.4</ele><time>2026-05-02T16:15:58.362Z</time></trkpt><trkpt lat="32.4781447" lon="-110.7094675"><ele>1503.8000000000002</ele><time>2026-05-02T16:15:59.361Z</time></trkpt><trkpt lat="32.4781186" lon="-110.7095684"><ele>1504.2</ele><time>2026-05-02T16:16:00.361Z</time></trkpt><trkpt lat="32.4781124" lon="-110.7096714"><ele>1504.6</ele><time>2026-05-02T16:16:01.361Z</time></trkpt><trkpt lat="32.4781188" lon="-110.7097818"><ele>1505.0</ele><time>2026-05-02T16:16:02.361Z</time></trkpt><trkpt lat="32.478131" lon="-110.7099035"><ele>1505.0</ele><time>2026-05-02T16:16:03.361Z</time></trkpt><trkpt lat="32.478144" lon="-110.7100349"><ele>1505.0</ele><time>2026-05-02T16:16:04.361Z</time></trkpt><trkpt lat="32.4781461" lon="-110.7101712"><ele>1505.0</ele><time>2026-05-02T16:16:05.361Z</time></trkpt><trkpt lat="32.4781333" lon="-110.7103101"><ele>1505.0</ele><time>2026-05-02T16:16:06.361Z</time></trkpt><trkpt lat="32.478108" lon="-110.7104517"><ele>1505.25</ele><time>2026-05-02T16:16:07.362Z</time></trkpt><trkpt lat="32.478071" lon="-110.710596"><ele>1505.5</ele><time>2026-05-02T16:16:08.361Z</time></trkpt><trkpt lat="32.4780275" lon="-110.7107397"><ele>1505.75</ele><time>2026-05-02T16:16:09.361Z</time></trkpt><trkpt lat="32.477984" lon="-110.7108773"><ele>1506.0</ele><time>2026-05-02T16:16:10.362Z</time></trkpt><trkpt lat="32.4779431" lon="-110.7110073"><ele>1511.0</ele><time>2026-05-02T16:16:11.361Z</time></trkpt><trkpt lat="32.4778997" lon="-110.7111279"><ele>1516.0</ele><time>2026-05-02T16:16:12.361Z</time></trkpt><trkpt lat="32.4778582" lon="-110.7112382"><ele>1521.0</ele><time>2026-05-02T16:16:13.361Z</time></trkpt><trkpt lat="32.4778276" lon="-110.7113424"><ele>1526.0</ele><time>2026-05-02T16:16:14.361Z</time></trkpt><trkpt lat="32.4778113" lon="-110.7114479"><ele>1531.0</ele><time>2026-05-02T16:16:15.361Z</time></trkpt><trkpt lat="32.4778112" lon="-110.711558"><ele>1531.0</ele><time>2026-05-02T16:16:16.361Z</time></trkpt><trkpt lat="32.4778228" lon="-110.7116764"><ele>1531.0</ele><time>2026-05-02T16:16:17.361Z</time></trkpt><trkpt lat="32.4778384" lon="-110.7117998"><ele>1531.0</ele><time>2026-05-02T16:16:18.362Z</time></trkpt><trkpt lat="32.4778507" lon="-110.711934"><ele>1531.0</ele><time>2026-05-02T16:16:19.362Z</time></trkpt><trkpt lat="32.477853" lon="-110.7120699"><ele>1531.0</ele><time>2026-05-02T16:16:20.361Z</time></trkpt><trkpt lat="32.477849" lon="-110.7122019"><ele>1532.75</ele><time>2026-05-02T16:16:21.362Z</time></trkpt><trkpt lat="32.477832" lon="-110.7123386"><ele>1534.5</ele><time>2026-05-02T16:16:22.362Z</time></trkpt><trkpt lat="32.477807" lon="-110.7124761"><ele>1536.25</ele><time>2026-05-02T16:16:23.361Z</time></trkpt><trkpt lat="32.4777789" lon="-110.7126206"><ele>1538.0</ele><time>2026-05-02T16:16:24.361Z</time></trkpt><trkpt lat="32.4777559" lon="-110.7127591"><ele>1538.8333333333333</ele><time>2026-05-02T16:16:25.362Z</time></trkpt><trkpt lat="32.4777386" lon="-110.712887"><ele>1539.6666666666665</ele><time>2026-05-02T16:16:26.362Z</time></trkpt><trkpt lat="32.4777224" lon="-110.7130008"><ele>1540.5</ele><time>2026-05-02T16:16:27.362Z</time></trkpt><trkpt lat="32.477704" lon="-110.7131005"><ele>1541.3333333333335</ele><time>2026-05-02T16:16:28.362Z</time></trkpt><trkpt lat="32.4776883" lon="-110.7131893"><ele>1542.1666666666667</ele><time>2026-05-02T16:16:29.362Z</time></trkpt><trkpt lat="32.4776836" lon="-110.71327"><ele>1543.0</ele><time>2026-05-02T16:16:30.361Z</time></trkpt><trkpt lat="32.4777203" lon="-110.7134018"><ele>1543.0</ele><time>2026-05-02T16:16:32.362Z</time></trkpt><trkpt lat="32.4778278" lon="-110.7134685"><ele>1543.0</ele><time>2026-05-02T16:16:34.362Z</time></trkpt><trkpt lat="32.4779137" lon="-110.7134753"><ele>1543.0</ele><time>2026-05-02T16:16:35.362Z</time></trkpt><trkpt lat="32.4780113" lon="-110.7134554"><ele>1543.0</ele><time>2026-05-02T16:16:36.361Z</time></trkpt><trkpt lat="32.4781201" lon="-110.7134022"><ele>1543.0</ele><time>2026-05-02T16:16:37.361Z</time></trkpt><trkpt lat="32.4782233" lon="-110.7133486"><ele>1542.8000000000002</ele><time>2026-05-02T16:16:38.361Z</time></trkpt><trkpt lat="32.4783243" lon="-110.7132831"><ele>1542.6</ele><time>2026-05-02T16:16:39.361Z</time></trkpt><trkpt lat="32.4784199" lon="-110.7132091"><ele>1542.4</ele><time>2026-05-02T16:16:40.362Z</time></trkpt><trkpt lat="32.4785079" lon="-110.7131383"><ele>1542.1999999999998</ele><time>2026-05-02T16:16:41.361Z</time></trkpt><trkpt lat="32.4785943" lon="-110.7130803"><ele>1542.0</ele><time>2026-05-02T16:16:42.362Z</time></trkpt><trkpt lat="32.4786806" lon="-110.713039"><ele>1544.8</ele><time>2026-05-02T16:16:43.361Z</time></trkpt><trkpt lat="32.4787728" lon="-110.7130079"><ele>1547.6</ele><time>2026-05-02T16:16:44.362Z</time></trkpt><trkpt lat="32.4788666" lon="-110.7129801"><ele>1550.3999999999999</ele><time>2026-05-02T16:16:45.361Z</time></trkpt><trkpt lat="32.4789601" lon="-110.7129553"><ele>1553.1999999999998</ele><time>2026-05-02T16:16:46.362Z</time></trkpt><trkpt lat="32.4790521" lon="-110.7129322"><ele>1556.0</ele><time>2026-05-02T16:16:47.361Z</time></trkpt><trkpt lat="32.4791415" lon="-110.7129031"><ele>1555.9999999999998</ele><time>2026-05-02T16:16:48.362Z</time></trkpt><trkpt lat="32.4792291" lon="-110.71287"><ele>1556.0</ele><time>2026-05-02T16:16:49.361Z</time></trkpt><trkpt lat="32.4792946" lon="-110.7128079"><ele>1556.0</ele><time>2026-05-02T16:16:50.362Z</time></trkpt><trkpt lat="32.4793542" lon="-110.7127395"><ele>1556.0</ele><time>2026-05-02T16:16:51.362Z</time></trkpt><trkpt lat="32.4794079" lon="-110.7126563"><ele>1555.9999999999998</ele><time>2026-05-02T16:16:52.362Z</time></trkpt><trkpt lat="32.4794626" lon="-110.7125794"><ele>1556.0</ele><time>2026-05-02T16:16:53.362Z</time></trkpt><trkpt lat="32.4795264" lon="-110.7125411"><ele>1552.8333333333333</ele><time>2026-05-02T16:16:54.363Z</time></trkpt><trkpt lat="32.4795946" lon="-110.7125362"><ele>1549.6666666666665</ele><time>2026-05-02T16:16:55.363Z</time></trkpt><trkpt lat="32.4796558" lon="-110.7125633"><ele>1546.5</ele><time>2026-05-02T16:16:56.361Z</time></trkpt><trkpt lat="32.4796989" lon="-110.712619"><ele>1543.3333333333335</ele><time>2026-05-02T16:16:57.361Z</time></trkpt><trkpt lat="32.4797149" lon="-110.7127569"><ele>1540.1666666666667</ele><time>2026-05-02T16:16:59.362Z</time></trkpt><trkpt lat="32.4796868" lon="-110.7128268"><ele>1537.0</ele><time>2026-05-02T16:17:00.363Z</time></trkpt><trkpt lat="32.4796355" lon="-110.7128973"><ele>1540.8</ele><time>2026-05-02T16:17:01.362Z</time></trkpt><trkpt lat="32.4795731" lon="-110.7129671"><ele>1544.6</ele><time>2026-05-02T16:17:02.361Z</time></trkpt><trkpt lat="32.4794716" lon="-110.7130156"><ele>1548.3999999999999</ele><time>2026-05-02T16:17:03.361Z</time></trkpt><trkpt lat="32.4793528" lon="-110.7130533"><ele>1552.1999999999998</ele><time>2026-05-02T16:17:04.362Z</time></trkpt><trkpt lat="32.4792283" lon="-110.7130863"><ele>1556.0</ele><time>2026-05-02T16:17:05.361Z</time></trkpt><trkpt lat="32.4791091" lon="-110.713119"><ele>1556.0</ele><time>2026-05-02T16:17:06.362Z</time></trkpt><trkpt lat="32.4789952" lon="-110.7131563"><ele>1556.0</ele><time>2026-05-02T16:17:07.361Z</time></trkpt><trkpt lat="32.4788864" lon="-110.7132033"><ele>1556.0</ele><time>2026-05-02T16:17:08.363Z</time></trkpt><trkpt lat="32.4787804" lon="-110.7132677"><ele>1556.0</ele><time>2026-05-02T16:17:09.362Z</time></trkpt><trkpt lat="32.4786793" lon="-110.7133457"><ele>1559.0</ele><time>2026-05-02T16:17:10.362Z</time></trkpt><trkpt lat="32.4785856" lon="-110.7134309"><ele>1562.0</ele><time>2026-05-02T16:17:11.362Z</time></trkpt><trkpt lat="32.4784958" lon="-110.7135174"><ele>1565.0</ele><time>2026-05-02T16:17:12.362Z</time></trkpt><trkpt lat="32.4784054" lon="-110.7135926"><ele>1568.0</ele><time>2026-05-02T16:17:13.362Z</time></trkpt><trkpt lat="32.4783128" lon="-110.7136546"><ele>1567.9999999999998</ele><time>2026-05-02T16:17:14.362Z</time></trkpt><trkpt lat="32.4782196" lon="-110.7137044"><ele>1568.0</ele><time>2026-05-02T16:17:15.361Z</time></trkpt><trkpt lat="32.4781288" lon="-110.7137443"><ele>1568.0</ele><time>2026-05-02T16:17:16.363Z</time></trkpt><trkpt lat="32.4780477" lon="-110.7137804"><ele>1568.0</ele><time>2026-05-02T16:17:17.361Z</time></trkpt><trkpt lat="32.4779708" lon="-110.7138223"><ele>1567.9999999999998</ele><time>2026-05-02T16:17:18.362Z</time></trkpt><trkpt lat="32.4779089" lon="-110.713878"><ele>1568.0</ele><time>2026-05-02T16:17:19.362Z</time></trkpt><trkpt lat="32.4778624" lon="-110.7139437"><ele>1566.8333333333333</ele><time>2026-05-02T16:17:20.362Z</time></trkpt><trkpt lat="32.4778247" lon="-110.7140159"><ele>1565.6666666666665</ele><time>2026-05-02T16:17:21.363Z</time></trkpt><trkpt lat="32.4777967" lon="-110.7140946"><ele>1564.5</ele><time>2026-05-02T16:17:22.362Z</time></trkpt><trkpt lat="32.4777786" lon="-110.7141779"><ele>1563.3333333333335</ele><time>2026-05-02T16:17:23.363Z</time></trkpt><trkpt lat="32.4777751" lon="-110.714269"><ele>1562.1666666666667</ele><time>2026-05-02T16:17:24.363Z</time></trkpt><trkpt lat="32.4777861" lon="-110.7143675"><ele>1561.0</ele><time>2026-05-02T16:17:25.363Z</time></trkpt><trkpt lat="32.4778072" lon="-110.7144692"><ele>1561.0000000000002</ele><time>2026-05-02T16:17:26.362Z</time></trkpt><trkpt lat="32.4778329" lon="-110.7145722"><ele>1561.0</ele><time>2026-05-02T16:17:27.363Z</time></trkpt><trkpt lat="32.4778514" lon="-110.7146747"><ele>1561.0</ele><time>2026-05-02T16:17:28.363Z</time></trkpt><trkpt lat="32.4778649" lon="-110.7147749"><ele>1561.0</ele><time>2026-05-02T16:17:29.363Z</time></trkpt><trkpt lat="32.4778519" lon="-110.7148688"><ele>1561.0000000000002</ele><time>2026-05-02T16:17:30.362Z</time></trkpt><trkpt lat="32.4778196" lon="-110.714953"><ele>1561.0</ele><time>2026-05-02T16:17:31.363Z</time></trkpt><trkpt lat="32.4777792" lon="-110.7150321"><ele>1561.0</ele><time>2026-05-02T16:17:32.362Z</time></trkpt><trkpt lat="32.477708" lon="-110.7150838"><ele>1561.0</ele><time>2026-05-02T16:17:33.363Z</time></trkpt><trkpt lat="32.4776222" lon="-110.7151288"><ele>1561.0</ele><time>2026-05-02T16:17:34.363Z</time></trkpt><trkpt lat="32.4775222" lon="-110.7151727"><ele>1561.0</ele><time>2026-05-02T16:17:35.362Z</time></trkpt><trkpt lat="32.4774222" lon="-110.7152269"><ele>1561.0</ele><time>2026-05-02T16:17:36.363Z</time></trkpt><trkpt lat="32.4773231" lon="-110.7152958"><ele>1562.75</ele><time>2026-05-02T16:17:37.362Z</time></trkpt><trkpt lat="32.4772268" lon="-110.7153775"><ele>1564.5</ele><time>2026-05-02T16:17:38.363Z</time></trkpt><trkpt lat="32.4771381" lon="-110.715469"><ele>1566.25</ele><time>2026-05-02T16:17:39.362Z</time></trkpt><trkpt lat="32.4770633" lon="-110.7155664"><ele>1568.0</ele><time>2026-05-02T16:17:40.362Z</time></trkpt><trkpt lat="32.4769996" lon="-110.7156713"><ele>1568.0</ele><time>2026-05-02T16:17:41.363Z</time></trkpt><trkpt lat="32.476946" lon="-110.7157848"><ele>1568.0</ele><time>2026-05-02T16:17:42.362Z</time></trkpt><trkpt lat="32.4768994" lon="-110.7159081"><ele>1568.0</ele><time>2026-05-02T16:17:43.362Z</time></trkpt><trkpt lat="32.4768589" lon="-110.7160324"><ele>1568.0</ele><time>2026-05-02T16:17:44.363Z</time></trkpt><trkpt lat="32.47682" lon="-110.7161459"><ele>1568.0</ele><time>2026-05-02T16:17:45.362Z</time></trkpt><trkpt lat="32.4767744" lon="-110.7162513"><ele>1571.4</ele><time>2026-05-02T16:17:46.362Z</time></trkpt><trkpt lat="32.476719" lon="-110.7163405"><ele>1574.8000000000002</ele><time>2026-05-02T16:17:47.363Z</time></trkpt><trkpt lat="32.4766453" lon="-110.7164113"><ele>1578.2</ele><time>2026-05-02T16:17:48.363Z</time></trkpt><trkpt lat="32.4765591" lon="-110.7164598"><ele>1581.6</ele><time>2026-05-02T16:17:49.362Z</time></trkpt><trkpt lat="32.4764654" lon="-110.7164893"><ele>1585.0</ele><time>2026-05-02T16:17:50.362Z</time></trkpt><trkpt lat="32.4763651" lon="-110.716502"><ele>1581.8</ele><time>2026-05-02T16:17:51.363Z</time></trkpt><trkpt lat="32.4762692" lon="-110.7165015"><ele>1578.6</ele><time>2026-05-02T16:17:52.362Z</time></trkpt><trkpt lat="32.4761874" lon="-110.7165017"><ele>1575.4</ele><time>2026-05-02T16:17:53.362Z</time></trkpt><trkpt lat="32.4761199" lon="-110.716512"><ele>1572.2</ele><time>2026-05-02T16:17:54.362Z</time></trkpt><trkpt lat="32.4760168" lon="-110.7165683"><ele>1569.0</ele><time>2026-05-02T16:17:56.363Z</time></trkpt><trkpt lat="32.4759914" lon="-110.7166856"><ele>1569.0</ele><time>2026-05-02T16:17:58.362Z</time></trkpt><trkpt lat="32.4760521" lon="-110.7167899"><ele>1569.0</ele><time>2026-05-02T16:18:00.363Z</time></trkpt><trkpt lat="32.4761248" lon="-110.7168143"><ele>1569.0</ele><time>2026-05-02T16:18:01.363Z</time></trkpt><trkpt lat="32.4762127" lon="-110.7168139"><ele>1569.0</ele><time>2026-05-02T16:18:02.363Z</time></trkpt><trkpt lat="32.4763138" lon="-110.7167968"><ele>1569.0</ele><time>2026-05-02T16:18:03.362Z</time></trkpt><trkpt lat="32.4764275" lon="-110.7167747"><ele>1572.2</ele><time>2026-05-02T16:18:04.362Z</time></trkpt><trkpt lat="32.4765462" lon="-110.7167527"><ele>1575.4</ele><time>2026-05-02T16:18:05.362Z</time></trkpt><trkpt lat="32.4766558" lon="-110.7167339"><ele>1578.6</ele><time>2026-05-02T16:18:06.362Z</time></trkpt><trkpt lat="32.4767551" lon="-110.7167081"><ele>1581.8</ele><time>2026-05-02T16:18:07.363Z</time></trkpt><trkpt lat="32.4768455" lon="-110.7166707"><ele>1585.0</ele><time>2026-05-02T16:18:08.362Z</time></trkpt><trkpt lat="32.4769237" lon="-110.7166154"><ele>1585.0</ele><time>2026-05-02T16:18:09.363Z</time></trkpt><trkpt lat="32.4769887" lon="-110.7165434"><ele>1585.0</ele><time>2026-05-02T16:18:10.363Z</time></trkpt><trkpt lat="32.4770457" lon="-110.7164594"><ele>1585.0</ele><time>2026-05-02T16:18:11.362Z</time></trkpt><trkpt lat="32.4771014" lon="-110.7163616"><ele>1585.0</ele><time>2026-05-02T16:18:12.363Z</time></trkpt><trkpt lat="32.4771578" lon="-110.7162539"><ele>1585.0</ele><time>2026-05-02T16:18:13.363Z</time></trkpt><trkpt lat="32.477215" lon="-110.7161518"><ele>1584.2</ele><time>2026-05-02T16:18:14.362Z</time></trkpt><trkpt lat="32.477273" lon="-110.7160563"><ele>1583.4</ele><time>2026-05-02T16:18:15.362Z</time></trkpt><trkpt lat="32.4773395" lon="-110.7159862"><ele>1582.6</ele><time>2026-05-02T16:18:16.362Z</time></trkpt><trkpt lat="32.4774169" lon="-110.7159335"><ele>1581.8</ele><time>2026-05-02T16:18:17.362Z</time></trkpt><trkpt lat="32.477502" lon="-110.7158966"><ele>1581.0</ele><time>2026-05-02T16:18:18.363Z</time></trkpt><trkpt lat="32.477588" lon="-110.7158669"><ele>1581.0</ele><time>2026-05-02T16:18:19.363Z</time></trkpt><trkpt lat="32.4776702" lon="-110.7158748"><ele>1581.0</ele><time>2026-05-02T16:18:20.363Z</time></trkpt><trkpt lat="32.4777457" lon="-110.7159044"><ele>1581.0</ele><time>2026-05-02T16:18:21.363Z</time></trkpt><trkpt lat="32.4778117" lon="-110.7159549"><ele>1581.0</ele><time>2026-05-02T16:18:22.363Z</time></trkpt><trkpt lat="32.4778604" lon="-110.7160242"><ele>1581.0</ele><time>2026-05-02T16:18:23.363Z</time></trkpt><trkpt lat="32.4778912" lon="-110.7161092"><ele>1581.0</ele><time>2026-05-02T16:18:24.363Z</time></trkpt><trkpt lat="32.4779154" lon="-110.7161982"><ele>1583.0</ele><time>2026-05-02T16:18:25.363Z</time></trkpt><trkpt lat="32.4779107" lon="-110.7163096"><ele>1585.0</ele><time>2026-05-02T16:18:26.363Z</time></trkpt><trkpt lat="32.4778878" lon="-110.7164222"><ele>1587.0</ele><time>2026-05-02T16:18:27.362Z</time></trkpt><trkpt lat="32.4778503" lon="-110.7165366"><ele>1589.0</ele><time>2026-05-02T16:18:28.362Z</time></trkpt><trkpt lat="32.4777993" lon="-110.7166502"><ele>1591.0</ele><time>2026-05-02T16:18:29.362Z</time></trkpt><trkpt lat="32.4777339" lon="-110.7167586"><ele>1591.0</ele><time>2026-05-02T16:18:30.363Z</time></trkpt><trkpt lat="32.4776626" lon="-110.7168643"><ele>1591.0</ele><time>2026-05-02T16:18:31.363Z</time></trkpt><trkpt lat="32.4775792" lon="-110.7169532"><ele>1591.0</ele><time>2026-05-02T16:18:32.363Z</time></trkpt><trkpt lat="32.4774968" lon="-110.717048"><ele>1591.0</ele><time>2026-05-02T16:18:33.364Z</time></trkpt><trkpt lat="32.4774312" lon="-110.7171546"><ele>1591.5</ele><time>2026-05-02T16:18:34.363Z</time></trkpt><trkpt lat="32.4773797" lon="-110.7172714"><ele>1592.0</ele><time>2026-05-02T16:18:35.363Z</time></trkpt><trkpt lat="32.4773379" lon="-110.7173979"><ele>1592.5</ele><time>2026-05-02T16:18:36.362Z</time></trkpt><trkpt lat="32.4773064" lon="-110.7175317"><ele>1593.0</ele><time>2026-05-02T16:18:37.362Z</time></trkpt><trkpt lat="32.4772826" lon="-110.7176692"><ele>1591.75</ele><time>2026-05-02T16:18:38.363Z</time></trkpt><trkpt lat="32.4772589" lon="-110.7178123"><ele>1590.5</ele><time>2026-05-02T16:18:39.362Z</time></trkpt><trkpt lat="32.4772323" lon="-110.7179488"><ele>1589.25</ele><time>2026-05-02T16:18:40.363Z</time></trkpt><trkpt lat="32.4771965" lon="-110.7180757"><ele>1588.0</ele><time>2026-05-02T16:18:41.362Z</time></trkpt><trkpt lat="32.4771481" lon="-110.7181973"><ele>1593.5</ele><time>2026-05-02T16:18:42.364Z</time></trkpt><trkpt lat="32.477088" lon="-110.7183165"><ele>1599.0</ele><time>2026-05-02T16:18:43.363Z</time></trkpt><trkpt lat="32.4770245" lon="-110.7184371"><ele>1604.5</ele><time>2026-05-02T16:18:44.363Z</time></trkpt><trkpt lat="32.4769693" lon="-110.7185576"><ele>1610.0</ele><time>2026-05-02T16:18:45.363Z</time></trkpt><trkpt lat="32.4769254" lon="-110.7186756"><ele>1610.4</ele><time>2026-05-02T16:18:46.363Z</time></trkpt><trkpt lat="32.4768879" lon="-110.7187963"><ele>1610.8</ele><time>2026-05-02T16:18:47.362Z</time></trkpt><trkpt lat="32.4768528" lon="-110.7189131"><ele>1611.1999999999998</ele><time>2026-05-02T16:18:48.363Z</time></trkpt><trkpt lat="32.4768175" lon="-110.7190243"><ele>1611.6</ele><time>2026-05-02T16:18:49.363Z</time></trkpt><trkpt lat="32.4767844" lon="-110.7191391"><ele>1612.0</ele><time>2026-05-02T16:18:50.363Z</time></trkpt><trkpt lat="32.4767618" lon="-110.7192458"><ele>1612.0000000000002</ele><time>2026-05-02T16:18:51.362Z</time></trkpt><trkpt lat="32.4767568" lon="-110.7193484"><ele>1612.0</ele><time>2026-05-02T16:18:52.364Z</time></trkpt><trkpt lat="32.476771" lon="-110.7194492"><ele>1612.0</ele><time>2026-05-02T16:18:53.362Z</time></trkpt><trkpt lat="32.476804" lon="-110.7195446"><ele>1612.0</ele><time>2026-05-02T16:18:54.364Z</time></trkpt><trkpt lat="32.4768446" lon="-110.7196404"><ele>1612.0000000000002</ele><time>2026-05-02T16:18:55.363Z</time></trkpt><trkpt lat="32.4769079" lon="-110.7197208"><ele>1612.0</ele><time>2026-05-02T16:18:56.364Z</time></trkpt><trkpt lat="32.4769605" lon="-110.7198052"><ele>1613.1999999999998</ele><time>2026-05-02T16:18:57.363Z</time></trkpt><trkpt lat="32.4769944" lon="-110.7198987"><ele>1614.4</ele><time>2026-05-02T16:18:58.364Z</time></trkpt><trkpt lat="32.4770086" lon="-110.720003"><ele>1615.6</ele><time>2026-05-02T16:18:59.364Z</time></trkpt><trkpt lat="32.4770041" lon="-110.7201074"><ele>1616.8000000000002</ele><time>2026-05-02T16:19:00.364Z</time></trkpt><trkpt lat="32.476984" lon="-110.7202191"><ele>1618.0</ele><time>2026-05-02T16:19:01.364Z</time></trkpt><trkpt lat="32.4769607" lon="-110.7203352"><ele>1619.75</ele><time>2026-05-02T16:19:02.363Z</time></trkpt><trkpt lat="32.4769348" lon="-110.7204753"><ele>1621.5</ele><time>2026-05-02T16:19:03.364Z</time></trkpt><trkpt lat="32.4769136" lon="-110.720631"><ele>1623.25</ele><time>2026-05-02T16:19:04.364Z</time></trkpt><trkpt lat="32.4768971" lon="-110.7207908"><ele>1625.0</ele><time>2026-05-02T16:19:05.364Z</time></trkpt><trkpt lat="32.4768858" lon="-110.7209405"><ele>1626.0</ele><time>2026-05-02T16:19:06.363Z</time></trkpt><trkpt lat="32.4768777" lon="-110.7210873"><ele>1627.0</ele><time>2026-05-02T16:19:07.363Z</time></trkpt><trkpt lat="32.4768679" lon="-110.7212281"><ele>1628.0</ele><time>2026-05-02T16:19:08.363Z</time></trkpt><trkpt lat="32.4768515" lon="-110.7213679"><ele>1629.0</ele><time>2026-05-02T16:19:09.363Z</time></trkpt><trkpt lat="32.4768228" lon="-110.7215126"><ele>1629.0</ele><time>2026-05-02T16:19:10.363Z</time></trkpt><trkpt lat="32.4767905" lon="-110.7216622"><ele>1629.0</ele><time>2026-05-02T16:19:11.363Z</time></trkpt><trkpt lat="32.4767626" lon="-110.7218078"><ele>1629.0</ele><time>2026-05-02T16:19:12.364Z</time></trkpt><trkpt lat="32.4767356" lon="-110.7219437"><ele>1629.0</ele><time>2026-05-02T16:19:13.363Z</time></trkpt><trkpt lat="32.4767058" lon="-110.722073"><ele>1629.4</ele><time>2026-05-02T16:19:14.363Z</time></trkpt><trkpt lat="32.4766712" lon="-110.7221991"><ele>1629.8000000000002</ele><time>2026-05-02T16:19:15.364Z</time></trkpt><trkpt lat="32.4766383" lon="-110.7223192"><ele>1630.1999999999998</ele><time>2026-05-02T16:19:16.363Z</time></trkpt><trkpt lat="32.4766078" lon="-110.7224338"><ele>1630.6</ele><time>2026-05-02T16:19:17.364Z</time></trkpt><trkpt lat="32.4765811" lon="-110.7225377"><ele>1631.0</ele><time>2026-05-02T16:19:18.364Z</time></trkpt><trkpt lat="32.4765585" lon="-110.7226331"><ele>1631.0</ele><time>2026-05-02T16:19:19.363Z</time></trkpt><trkpt lat="32.4765423" lon="-110.7227159"><ele>1631.0</ele><time>2026-05-02T16:19:20.363Z</time></trkpt><trkpt lat="32.4765373" lon="-110.7227945"><ele>1631.0</ele><time>2026-05-02T16:19:21.364Z</time></trkpt><trkpt lat="32.4765557" lon="-110.7228731"><ele>1631.0</ele><time>2026-05-02T16:19:22.363Z</time></trkpt><trkpt lat="32.4766014" lon="-110.7229382"><ele>1631.0</ele><time>2026-05-02T16:19:23.363Z</time></trkpt><trkpt lat="32.4766689" lon="-110.7229807"><ele>1631.0</ele><time>2026-05-02T16:19:24.363Z</time></trkpt><trkpt lat="32.4767376" lon="-110.723014"><ele>1631.0</ele><time>2026-05-02T16:19:25.364Z</time></trkpt><trkpt lat="32.476809" lon="-110.7229895"><ele>1630.9999999999998</ele><time>2026-05-02T16:19:26.364Z</time></trkpt><trkpt lat="32.47687" lon="-110.7229321"><ele>1631.0</ele><time>2026-05-02T16:19:27.363Z</time></trkpt><trkpt lat="32.4769156" lon="-110.7228477"><ele>1631.0</ele><time>2026-05-02T16:19:28.364Z</time></trkpt><trkpt lat="32.4769483" lon="-110.7227575"><ele>1631.0</ele><time>2026-05-02T16:19:29.363Z</time></trkpt><trkpt lat="32.4769785" lon="-110.7226779"><ele>1630.9999999999998</ele><time>2026-05-02T16:19:30.363Z</time></trkpt><trkpt lat="32.4770204" lon="-110.7225975"><ele>1631.0</ele><time>2026-05-02T16:19:31.363Z</time></trkpt><trkpt lat="32.4770788" lon="-110.7225053"><ele>1633.4</ele><time>2026-05-02T16:19:32.363Z</time></trkpt><trkpt lat="32.4771504" lon="-110.722412"><ele>1635.8</ele><time>2026-05-02T16:19:33.364Z</time></trkpt><trkpt lat="32.4772272" lon="-110.7223212"><ele>1638.2</ele><time>2026-05-02T16:19:34.363Z</time></trkpt><trkpt lat="32.477307" lon="-110.7222397"><ele>1640.6000000000001</ele><time>2026-05-02T16:19:35.363Z</time></trkpt><trkpt lat="32.4773904" lon="-110.7221572"><ele>1643.0</ele><time>2026-05-02T16:19:36.363Z</time></trkpt><trkpt lat="32.477476" lon="-110.7220803"><ele>1643.0</ele><time>2026-05-02T16:19:37.364Z</time></trkpt><trkpt lat="32.4775662" lon="-110.7219986"><ele>1643.0</ele><time>2026-05-02T16:19:38.364Z</time></trkpt><trkpt lat="32.4776566" lon="-110.721915"><ele>1643.0</ele><time>2026-05-02T16:19:39.363Z</time></trkpt><trkpt lat="32.4777378" lon="-110.7218266"><ele>1643.0</ele><time>2026-05-02T16:19:40.363Z</time></trkpt><trkpt lat="32.4778169" lon="-110.7217328"><ele>1640.4</ele><time>2026-05-02T16:19:41.364Z</time></trkpt><trkpt lat="32.477881" lon="-110.7216231"><ele>1637.8000000000002</ele><time>2026-05-02T16:19:42.363Z</time></trkpt><trkpt lat="32.4779366" lon="-110.7215139"><ele>1635.2</ele><time>2026-05-02T16:19:43.364Z</time></trkpt><trkpt lat="32.4779828" lon="-110.7214009"><ele>1632.6</ele><time>2026-05-02T16:19:44.364Z</time></trkpt><trkpt lat="32.4780202" lon="-110.7212907"><ele>1630.0</ele><time>2026-05-02T16:19:45.364Z</time></trkpt><trkpt lat="32.4780537" lon="-110.7211842"><ele>1630.0</ele><time>2026-05-02T16:19:46.363Z</time></trkpt><trkpt lat="32.4780917" lon="-110.7210817"><ele>1630.0</ele><time>2026-05-02T16:19:47.363Z</time></trkpt><trkpt lat="32.4781344" lon="-110.7209901"><ele>1630.0</ele><time>2026-05-02T16:19:48.364Z</time></trkpt><trkpt lat="32.4781796" lon="-110.7209133"><ele>1630.0</ele><time>2026-05-02T16:19:49.363Z</time></trkpt><trkpt lat="32.4782263" lon="-110.7208476"><ele>1630.0</ele><time>2026-05-02T16:19:50.363Z</time></trkpt><trkpt lat="32.4783193" lon="-110.720765"><ele>1630.0000000000002</ele><time>2026-05-02T16:19:52.364Z</time></trkpt><trkpt lat="32.4784052" lon="-110.7207419"><ele>1630.0</ele><time>2026-05-02T16:19:54.363Z</time></trkpt><trkpt lat="32.4784727" lon="-110.720794"><ele>1630.0</ele><time>2026-05-02T16:19:56.364Z</time></trkpt><trkpt lat="32.4785075" lon="-110.7208945"><ele>1630.0</ele><time>2026-05-02T16:19:58.364Z</time></trkpt><trkpt lat="32.4785034" lon="-110.7210077"><ele>1630.0000000000002</ele><time>2026-05-02T16:20:00.365Z</time></trkpt><trkpt lat="32.4784774" lon="-110.7210837"><ele>1630.0</ele><time>2026-05-02T16:20:01.365Z</time></trkpt><trkpt lat="32.4784398" lon="-110.7211668"><ele>1630.0</ele><time>2026-05-02T16:20:02.363Z</time></trkpt><trkpt lat="32.4783858" lon="-110.7212607"><ele>1630.0</ele><time>2026-05-02T16:20:03.363Z</time></trkpt><trkpt lat="32.478313" lon="-110.7213643"><ele>1630.0</ele><time>2026-05-02T16:20:04.363Z</time></trkpt><trkpt lat="32.4782265" lon="-110.7214642"><ele>1630.0</ele><time>2026-05-02T16:20:05.364Z</time></trkpt><trkpt lat="32.4781315" lon="-110.7215665"><ele>1630.0</ele><time>2026-05-02T16:20:06.364Z</time></trkpt><trkpt lat="32.4780305" lon="-110.7216748"><ele>1630.0</ele><time>2026-05-02T16:20:07.363Z</time></trkpt><trkpt lat="32.477933" lon="-110.7217846"><ele>1630.0</ele><time>2026-05-02T16:20:08.364Z</time></trkpt><trkpt lat="32.4778406" lon="-110.7218863"><ele>1630.0</ele><time>2026-05-02T16:20:09.363Z</time></trkpt><trkpt lat="32.477753" lon="-110.7219836"><ele>1633.25</ele><time>2026-05-02T16:20:10.363Z</time></trkpt><trkpt lat="32.4776687" lon="-110.7220808"><ele>1636.5</ele><time>2026-05-02T16:20:11.364Z</time></trkpt><trkpt lat="32.4775862" lon="-110.7221854"><ele>1639.75</ele><time>2026-05-02T16:20:12.363Z</time></trkpt><trkpt lat="32.4775078" lon="-110.7222955"><ele>1643.0</ele><time>2026-05-02T16:20:13.365Z</time></trkpt><trkpt lat="32.4774351" lon="-110.7224104"><ele>1643.0</ele><time>2026-05-02T16:20:14.365Z</time></trkpt><trkpt lat="32.4773719" lon="-110.7225287"><ele>1643.0</ele><time>2026-05-02T16:20:15.364Z</time></trkpt><trkpt lat="32.477319" lon="-110.7226528"><ele>1643.0</ele><time>2026-05-02T16:20:16.363Z</time></trkpt><trkpt lat="32.4772752" lon="-110.7227868"><ele>1643.0</ele><time>2026-05-02T16:20:17.364Z</time></trkpt><trkpt lat="32.4772393" lon="-110.7229313"><ele>1642.0</ele><time>2026-05-02T16:20:18.364Z</time></trkpt><trkpt lat="32.4772073" lon="-110.7230809"><ele>1641.0</ele><time>2026-05-02T16:20:19.363Z</time></trkpt><trkpt lat="32.4771756" lon="-110.7232231"><ele>1640.0</ele><time>2026-05-02T16:20:20.364Z</time></trkpt><trkpt lat="32.4771387" lon="-110.7233635"><ele>1639.0</ele><time>2026-05-02T16:20:21.364Z</time></trkpt><trkpt lat="32.4770934" lon="-110.7235037"><ele>1643.6</ele><time>2026-05-02T16:20:22.363Z</time></trkpt><trkpt lat="32.4770445" lon="-110.7236372"><ele>1648.2</ele><time>2026-05-02T16:20:23.364Z</time></trkpt><trkpt lat="32.4769933" lon="-110.7237498"><ele>1652.8</ele><time>2026-05-02T16:20:24.364Z</time></trkpt><trkpt lat="32.4769394" lon="-110.7238518"><ele>1657.3999999999999</ele><time>2026-05-02T16:20:25.363Z</time></trkpt><trkpt lat="32.4768786" lon="-110.7239398"><ele>1662.0</ele><time>2026-05-02T16:20:26.363Z</time></trkpt><trkpt lat="32.4768086" lon="-110.7240096"><ele>1662.0</ele><time>2026-05-02T16:20:27.365Z</time></trkpt><trkpt lat="32.4767279" lon="-110.7240581"><ele>1662.0</ele><time>2026-05-02T16:20:28.364Z</time></trkpt><trkpt lat="32.4766364" lon="-110.7240914"><ele>1662.0</ele><time>2026-05-02T16:20:29.365Z</time></trkpt><trkpt lat="32.4765418" lon="-110.7241248"><ele>1662.0</ele><time>2026-05-02T16:20:30.364Z</time></trkpt><trkpt lat="32.4764505" lon="-110.7241726"><ele>1662.0</ele><time>2026-05-02T16:20:31.365Z</time></trkpt><trkpt lat="32.476366" lon="-110.7242386"><ele>1662.0</ele><time>2026-05-02T16:20:32.364Z</time></trkpt><trkpt lat="32.4762877" lon="-110.724312"><ele>1662.0</ele><time>2026-05-02T16:20:33.364Z</time></trkpt><trkpt lat="32.4762129" lon="-110.7244006"><ele>1662.0</ele><time>2026-05-02T16:20:34.365Z</time></trkpt><trkpt lat="32.4761353" lon="-110.7244894"><ele>1662.0</ele><time>2026-05-02T16:20:35.365Z</time></trkpt><trkpt lat="32.4760388" lon="-110.724559"><ele>1662.0</ele><time>2026-05-02T16:20:36.364Z</time></trkpt><trkpt lat="32.4759339" lon="-110.7246114"><ele>1664.1999999999998</ele><time>2026-05-02T16:20:37.365Z</time></trkpt><trkpt lat="32.4758269" lon="-110.7246695"><ele>1666.4</ele><time>2026-05-02T16:20:38.364Z</time></trkpt><trkpt lat="32.4757311" lon="-110.7247316"><ele>1668.6</ele><time>2026-05-02T16:20:39.365Z</time></trkpt><trkpt lat="32.4756511" lon="-110.7247948"><ele>1670.8000000000002</ele><time>2026-05-02T16:20:40.364Z</time></trkpt><trkpt lat="32.4755782" lon="-110.7248572"><ele>1673.0</ele><time>2026-05-02T16:20:41.364Z</time></trkpt><trkpt lat="32.4754856" lon="-110.724926"><ele>1674.4</ele><time>2026-05-02T16:20:43.364Z</time></trkpt><trkpt lat="32.4753933" lon="-110.7249121"><ele>1675.8000000000002</ele><time>2026-05-02T16:20:45.364Z</time></trkpt><trkpt lat="32.4753274" lon="-110.7248217"><ele>1677.2</ele><time>2026-05-02T16:20:47.365Z</time></trkpt><trkpt lat="32.4753201" lon="-110.7246631"><ele>1678.6</ele><time>2026-05-02T16:20:49.364Z</time></trkpt><trkpt lat="32.4753298" lon="-110.7245797"><ele>1680.0</ele><time>2026-05-02T16:20:50.365Z</time></trkpt><trkpt lat="32.4753396" lon="-110.7244991"><ele>1680.0</ele><time>2026-05-02T16:20:51.364Z</time></trkpt><trkpt lat="32.4753503" lon="-110.7244233"><ele>1680.0</ele><time>2026-05-02T16:20:52.365Z</time></trkpt><trkpt lat="32.4753755" lon="-110.724296"><ele>1680.0</ele><time>2026-05-02T16:20:54.365Z</time></trkpt><trkpt lat="32.4754012" lon="-110.724201"><ele>1680.0</ele><time>2026-05-02T16:20:56.364Z</time></trkpt><trkpt lat="32.4754274" lon="-110.7240601"><ele>1680.0</ele><time>2026-05-02T16:20:58.365Z</time></trkpt><trkpt lat="32.4754365" lon="-110.7239724"><ele>1679.6666666666667</ele><time>2026-05-02T16:20:59.364Z</time></trkpt><trkpt lat="32.475445" lon="-110.7238799"><ele>1679.3333333333335</ele><time>2026-05-02T16:21:00.365Z</time></trkpt><trkpt lat="32.4754454" lon="-110.7237849"><ele>1679.0</ele><time>2026-05-02T16:21:01.365Z</time></trkpt><trkpt lat="32.475432" lon="-110.7236953"><ele>1678.6666666666667</ele><time>2026-05-02T16:21:02.364Z</time></trkpt><trkpt lat="32.4754101" lon="-110.7236111"><ele>1678.3333333333335</ele><time>2026-05-02T16:21:03.364Z</time></trkpt><trkpt lat="32.4753743" lon="-110.7235386"><ele>1678.0</ele><time>2026-05-02T16:21:04.365Z</time></trkpt><trkpt lat="32.4753249" lon="-110.7234779"><ele>1675.6666666666667</ele><time>2026-05-02T16:21:05.365Z</time></trkpt><trkpt lat="32.4752613" lon="-110.7234324"><ele>1673.3333333333335</ele><time>2026-05-02T16:21:06.364Z</time></trkpt><trkpt lat="32.4751881" lon="-110.7234064"><ele>1671.0</ele><time>2026-05-02T16:21:07.364Z</time></trkpt><trkpt lat="32.4751111" lon="-110.7234033"><ele>1668.6666666666665</ele><time>2026-05-02T16:21:08.365Z</time></trkpt><trkpt lat="32.4750348" lon="-110.7234234"><ele>1666.3333333333333</ele><time>2026-05-02T16:21:09.364Z</time></trkpt><trkpt lat="32.474958" lon="-110.7234646"><ele>1664.0</ele><time>2026-05-02T16:21:10.365Z</time></trkpt><trkpt lat="32.474874" lon="-110.7235256"><ele>1667.5</ele><time>2026-05-02T16:21:11.365Z</time></trkpt><trkpt lat="32.474778" lon="-110.7235997"><ele>1671.0</ele><time>2026-05-02T16:21:12.365Z</time></trkpt><trkpt lat="32.4746734" lon="-110.7236794"><ele>1674.5</ele><time>2026-05-02T16:21:13.364Z</time></trkpt><trkpt lat="32.474567" lon="-110.7237654"><ele>1678.0</ele><time>2026-05-02T16:21:14.365Z</time></trkpt><trkpt lat="32.4744676" lon="-110.7238493"><ele>1678.4</ele><time>2026-05-02T16:21:15.364Z</time></trkpt><trkpt lat="32.4743722" lon="-110.7239268"><ele>1678.8000000000002</ele><time>2026-05-02T16:21:16.365Z</time></trkpt><trkpt lat="32.4742806" lon="-110.7239976"><ele>1679.2</ele><time>2026-05-02T16:21:17.364Z</time></trkpt><trkpt lat="32.4741912" lon="-110.7240669"><ele>1679.6</ele><time>2026-05-02T16:21:18.365Z</time></trkpt><trkpt lat="32.4741033" lon="-110.7241347"><ele>1680.0</ele><time>2026-05-02T16:21:19.365Z</time></trkpt><trkpt lat="32.4740222" lon="-110.7241991"><ele>1680.0</ele><time>2026-05-02T16:21:20.365Z</time></trkpt><trkpt lat="32.4739452" lon="-110.7242582"><ele>1680.0</ele><time>2026-05-02T16:21:21.364Z</time></trkpt><trkpt lat="32.4738606" lon="-110.7243162"><ele>1680.0</ele><time>2026-05-02T16:21:22.365Z</time></trkpt><trkpt lat="32.4737712" lon="-110.7243651"><ele>1680.0</ele><time>2026-05-02T16:21:23.365Z</time></trkpt><trkpt lat="32.4736821" lon="-110.7244"><ele>1680.0</ele><time>2026-05-02T16:21:24.365Z</time></trkpt><trkpt lat="32.473589" lon="-110.7244161"><ele>1680.0</ele><time>2026-05-02T16:21:25.364Z</time></trkpt><trkpt lat="32.4735002" lon="-110.72442"><ele>1680.0</ele><time>2026-05-02T16:21:26.365Z</time></trkpt><trkpt lat="32.4734239" lon="-110.7244197"><ele>1680.0</ele><time>2026-05-02T16:21:27.366Z</time></trkpt><trkpt lat="32.4733503" lon="-110.7244292"><ele>1680.0</ele><time>2026-05-02T16:21:28.365Z</time></trkpt><trkpt lat="32.4732855" lon="-110.7244469"><ele>1680.0</ele><time>2026-05-02T16:21:29.365Z</time></trkpt><trkpt lat="32.4732179" lon="-110.7245527"><ele>1680.0</ele><time>2026-05-02T16:21:31.366Z</time></trkpt><trkpt lat="32.4732145" lon="-110.7246319"><ele>1680.0</ele><time>2026-05-02T16:21:32.365Z</time></trkpt><trkpt lat="32.4732187" lon="-110.7247156"><ele>1680.0</ele><time>2026-05-02T16:21:33.365Z</time></trkpt><trkpt lat="32.4732459" lon="-110.7247869"><ele>1680.0</ele><time>2026-05-02T16:21:34.366Z</time></trkpt><trkpt lat="32.4733459" lon="-110.7248569"><ele>1680.0</ele><time>2026-05-02T16:21:36.366Z</time></trkpt><trkpt lat="32.4734103" lon="-110.7248539"><ele>1680.0</ele><time>2026-05-02T16:21:37.364Z</time></trkpt><trkpt lat="32.4734787" lon="-110.7248274"><ele>1680.0</ele><time>2026-05-02T16:21:38.365Z</time></trkpt><trkpt lat="32.4735533" lon="-110.7247895"><ele>1680.0</ele><time>2026-05-02T16:21:39.365Z</time></trkpt><trkpt lat="32.473646" lon="-110.7247192"><ele>1680.0</ele><time>2026-05-02T16:21:40.365Z</time></trkpt><trkpt lat="32.4737515" lon="-110.7246481"><ele>1680.0</ele><time>2026-05-02T16:21:41.365Z</time></trkpt><trkpt lat="32.4738604" lon="-110.7245795"><ele>1680.0</ele><time>2026-05-02T16:21:42.364Z</time></trkpt><trkpt lat="32.4739656" lon="-110.7245139"><ele>1680.0</ele><time>2026-05-02T16:21:43.366Z</time></trkpt><trkpt lat="32.4740679" lon="-110.7244553"><ele>1680.0</ele><time>2026-05-02T16:21:44.366Z</time></trkpt><trkpt lat="32.4741686" lon="-110.7243984"><ele>1680.0</ele><time>2026-05-02T16:21:45.365Z</time></trkpt><trkpt lat="32.4742731" lon="-110.7243444"><ele>1680.0</ele><time>2026-05-02T16:21:46.364Z</time></trkpt><trkpt lat="32.4743697" lon="-110.7243085"><ele>1680.0</ele><time>2026-05-02T16:21:47.364Z</time></trkpt><trkpt lat="32.4744565" lon="-110.7242839"><ele>1680.0</ele><time>2026-05-02T16:21:48.365Z</time></trkpt><trkpt lat="32.474534" lon="-110.7242767"><ele>1680.0</ele><time>2026-05-02T16:21:49.365Z</time></trkpt><trkpt lat="32.4746094" lon="-110.7242933"><ele>1680.0</ele><time>2026-05-02T16:21:50.364Z</time></trkpt><trkpt lat="32.4746713" lon="-110.72433"><ele>1680.0</ele><time>2026-05-02T16:21:51.365Z</time></trkpt><trkpt lat="32.4747156" lon="-110.7243894"><ele>1680.0</ele><time>2026-05-02T16:21:52.364Z</time></trkpt><trkpt lat="32.4747415" lon="-110.7244667"><ele>1680.0</ele><time>2026-05-02T16:21:53.365Z</time></trkpt><trkpt lat="32.4747502" lon="-110.7245562"><ele>1680.0</ele><time>2026-05-02T16:21:54.366Z</time></trkpt><trkpt lat="32.4747521" lon="-110.7246456"><ele>1680.0</ele><time>2026-05-02T16:21:55.366Z</time></trkpt><trkpt lat="32.4747209" lon="-110.7247433"><ele>1680.0</ele><time>2026-05-02T16:21:56.364Z</time></trkpt><trkpt lat="32.4746729" lon="-110.7248377"><ele>1680.0</ele><time>2026-05-02T16:21:57.364Z</time></trkpt><trkpt lat="32.4746087" lon="-110.7249267"><ele>1680.0</ele><time>2026-05-02T16:21:58.364Z</time></trkpt><trkpt lat="32.4745317" lon="-110.7250027"><ele>1680.0</ele><time>2026-05-02T16:21:59.366Z</time></trkpt><trkpt lat="32.4744431" lon="-110.7250763"><ele>1683.2</ele><time>2026-05-02T16:22:00.365Z</time></trkpt><trkpt lat="32.4743605" lon="-110.7251516"><ele>1686.4</ele><time>2026-05-02T16:22:01.365Z</time></trkpt><trkpt lat="32.4742959" lon="-110.725244"><ele>1689.6</ele><time>2026-05-02T16:22:02.366Z</time></trkpt><trkpt lat="32.4742337" lon="-110.7253416"><ele>1692.8</ele><time>2026-05-02T16:22:03.365Z</time></trkpt><trkpt lat="32.4741898" lon="-110.7254565"><ele>1696.0</ele><time>2026-05-02T16:22:04.365Z</time></trkpt><trkpt lat="32.4741446" lon="-110.7255632"><ele>1696.1999999999998</ele><time>2026-05-02T16:22:05.365Z</time></trkpt><trkpt lat="32.4740941" lon="-110.7256719"><ele>1696.3999999999999</ele><time>2026-05-02T16:22:06.365Z</time></trkpt><trkpt lat="32.4740427" lon="-110.725778"><ele>1696.6</ele><time>2026-05-02T16:22:07.365Z</time></trkpt><trkpt lat="32.4739837" lon="-110.7258886"><ele>1696.8</ele><time>2026-05-02T16:22:08.366Z</time></trkpt><trkpt lat="32.4739283" lon="-110.7259913"><ele>1697.0</ele><time>2026-05-02T16:22:09.365Z</time></trkpt><trkpt lat="32.4738821" lon="-110.7260825"><ele>1697.3333333333333</ele><time>2026-05-02T16:22:10.366Z</time></trkpt><trkpt lat="32.4738478" lon="-110.726172"><ele>1697.6666666666665</ele><time>2026-05-02T16:22:11.365Z</time></trkpt><trkpt lat="32.4738257" lon="-110.7262521"><ele>1698.0</ele><time>2026-05-02T16:22:12.365Z</time></trkpt><trkpt lat="32.473807" lon="-110.7263265"><ele>1698.3333333333335</ele><time>2026-05-02T16:22:13.366Z</time></trkpt><trkpt lat="32.4737782" lon="-110.726447"><ele>1698.6666666666667</ele><time>2026-05-02T16:22:15.366Z</time></trkpt><trkpt lat="32.4737465" lon="-110.7265206"><ele>1699.0</ele><time>2026-05-02T16:22:17.365Z</time></trkpt><trkpt lat="32.4736985" lon="-110.7265764"><ele>1699.0</ele><time>2026-05-02T16:22:43.365Z</time></trkpt><trkpt lat="32.4736184" lon="-110.7266596"><ele>1699.0</ele><time>2026-05-02T16:22:46.366Z</time></trkpt><trkpt lat="32.4735453" lon="-110.7267668"><ele>1699.0</ele><time>2026-05-02T16:22:48.365Z</time></trkpt><trkpt lat="32.4734894" lon="-110.7268721"><ele>1699.0</ele><time>2026-05-02T16:22:50.367Z</time></trkpt><trkpt lat="32.4734258" lon="-110.7269743"><ele>1699.0</ele><time>2026-05-02T16:22:52.366Z</time></trkpt><trkpt lat="32.4733492" lon="-110.7270717"><ele>1703.2</ele><time>2026-05-02T16:22:54.366Z</time></trkpt><trkpt lat="32.4732717" lon="-110.7271769"><ele>1707.4</ele><time>2026-05-02T16:22:56.365Z</time></trkpt><trkpt lat="32.4732059" lon="-110.727276"><ele>1711.6</ele><time>2026-05-02T16:22:58.365Z</time></trkpt><trkpt lat="32.4731434" lon="-110.727369"><ele>1715.8</ele><time>2026-05-02T16:23:00.366Z</time></trkpt><trkpt lat="32.4730932" lon="-110.7274682"><ele>1720.0</ele><time>2026-05-02T16:23:02.365Z</time></trkpt><trkpt lat="32.4730515" lon="-110.7275599"><ele>1720.0000000000002</ele><time>2026-05-02T16:23:04.367Z</time></trkpt><trkpt lat="32.4730154" lon="-110.7276399"><ele>1720.0</ele><time>2026-05-02T16:23:06.365Z</time></trkpt><trkpt lat="32.4729834" lon="-110.7277175"><ele>1720.0</ele><time>2026-05-02T16:23:09.367Z</time></trkpt><trkpt lat="32.472948" lon="-110.7278145"><ele>1720.0</ele><time>2026-05-02T16:23:11.366Z</time></trkpt><trkpt lat="32.4729037" lon="-110.7279484"><ele>1720.0000000000002</ele><time>2026-05-02T16:23:13.365Z</time></trkpt><trkpt lat="32.4728836" lon="-110.7280239"><ele>1720.0</ele><time>2026-05-02T16:23:14.365Z</time></trkpt><trkpt lat="32.4728615" lon="-110.7281015"><ele>1721.3333333333335</ele><time>2026-05-02T16:23:15.366Z</time></trkpt><trkpt lat="32.47284" lon="-110.7281753"><ele>1722.6666666666667</ele><time>2026-05-02T16:23:16.366Z</time></trkpt><trkpt lat="32.4728147" lon="-110.7282486"><ele>1724.0</ele><time>2026-05-02T16:23:17.365Z</time></trkpt><trkpt lat="32.4727863" lon="-110.728316"><ele>1725.3333333333335</ele><time>2026-05-02T16:23:18.366Z</time></trkpt><trkpt lat="32.4726954" lon="-110.728414"><ele>1726.6666666666667</ele><time>2026-05-02T16:23:20.365Z</time></trkpt><trkpt lat="32.472632" lon="-110.7284421"><ele>1728.0</ele><time>2026-05-02T16:23:21.368Z</time></trkpt><trkpt lat="32.4725626" lon="-110.7284584"><ele>1728.0</ele><time>2026-05-02T16:23:22.365Z</time></trkpt><trkpt lat="32.4724891" lon="-110.7284691"><ele>1728.0</ele><time>2026-05-02T16:23:23.367Z</time></trkpt><trkpt lat="32.4724176" lon="-110.7284804"><ele>1728.0</ele><time>2026-05-02T16:23:24.365Z</time></trkpt><trkpt lat="32.4723423" lon="-110.7284721"><ele>1728.0</ele><time>2026-05-02T16:23:25.365Z</time></trkpt><trkpt lat="32.472267" lon="-110.7284354"><ele>1728.0</ele><time>2026-05-02T16:23:26.365Z</time></trkpt><trkpt lat="32.4721962" lon="-110.7283932"><ele>1728.0</ele><time>2026-05-02T16:23:27.367Z</time></trkpt><trkpt lat="32.4721211" lon="-110.7283601"><ele>1726.4</ele><time>2026-05-02T16:23:28.367Z</time></trkpt><trkpt lat="32.4720519" lon="-110.7283491"><ele>1724.8000000000002</ele><time>2026-05-02T16:23:29.365Z</time></trkpt><trkpt lat="32.471987" lon="-110.7283567"><ele>1723.2</ele><time>2026-05-02T16:23:30.366Z</time></trkpt><trkpt lat="32.4718853" lon="-110.7284303"><ele>1721.6</ele><time>2026-05-02T16:23:32.366Z</time></trkpt><trkpt lat="32.4718372" lon="-110.7285606"><ele>1720.0</ele><time>2026-05-02T16:23:34.367Z</time></trkpt><trkpt lat="32.4718249" lon="-110.72865"><ele>1723.8333333333335</ele><time>2026-05-02T16:23:35.366Z</time></trkpt><trkpt lat="32.4718167" lon="-110.7287548"><ele>1727.6666666666667</ele><time>2026-05-02T16:23:36.366Z</time></trkpt><trkpt lat="32.4718048" lon="-110.7288544"><ele>1731.5</ele><time>2026-05-02T16:23:37.366Z</time></trkpt><trkpt lat="32.4717827" lon="-110.7289423"><ele>1735.3333333333335</ele><time>2026-05-02T16:23:38.366Z</time></trkpt><trkpt lat="32.4717479" lon="-110.7290169"><ele>1739.1666666666667</ele><time>2026-05-02T16:23:39.366Z</time></trkpt><trkpt lat="32.4717107" lon="-110.7290871"><ele>1743.0</ele><time>2026-05-02T16:23:40.366Z</time></trkpt><trkpt lat="32.4716686" lon="-110.729144"><ele>1743.0</ele><time>2026-05-02T16:23:41.366Z</time></trkpt><trkpt lat="32.4716159" lon="-110.72921"><ele>1743.0</ele><time>2026-05-02T16:23:42.367Z</time></trkpt><trkpt lat="32.4715621" lon="-110.7292809"><ele>1743.0</ele><time>2026-05-02T16:23:43.367Z</time></trkpt><trkpt lat="32.4715033" lon="-110.7293588"><ele>1743.0</ele><time>2026-05-02T16:23:44.366Z</time></trkpt><trkpt lat="32.4714417" lon="-110.7294392"><ele>1743.0</ele><time>2026-05-02T16:23:45.367Z</time></trkpt><trkpt lat="32.4713911" lon="-110.7295261"><ele>1743.0</ele><time>2026-05-02T16:23:46.367Z</time></trkpt><trkpt lat="32.4713439" lon="-110.7296218"><ele>1743.3333333333333</ele><time>2026-05-02T16:23:47.366Z</time></trkpt><trkpt lat="32.4713003" lon="-110.7297224"><ele>1743.6666666666665</ele><time>2026-05-02T16:23:48.367Z</time></trkpt><trkpt lat="32.47126" lon="-110.7298139"><ele>1744.0</ele><time>2026-05-02T16:23:49.366Z</time></trkpt><trkpt lat="32.471224" lon="-110.729897"><ele>1744.3333333333333</ele><time>2026-05-02T16:23:50.367Z</time></trkpt><trkpt lat="32.4711896" lon="-110.7299751"><ele>1744.6666666666665</ele><time>2026-05-02T16:23:51.366Z</time></trkpt><trkpt lat="32.4711547" lon="-110.7300465"><ele>1745.0</ele><time>2026-05-02T16:23:52.366Z</time></trkpt><trkpt lat="32.4710444" lon="-110.7301181"><ele>1744.9999999999998</ele><time>2026-05-02T16:23:54.366Z</time></trkpt><trkpt lat="32.4709799" lon="-110.730139"><ele>1745.0</ele><time>2026-05-02T16:23:55.366Z</time></trkpt><trkpt lat="32.4708947" lon="-110.7301352"><ele>1745.0</ele><time>2026-05-02T16:23:56.366Z</time></trkpt><trkpt lat="32.4708182" lon="-110.7301438"><ele>1745.0</ele><time>2026-05-02T16:23:57.367Z</time></trkpt><trkpt lat="32.4707519" lon="-110.7301644"><ele>1744.9999999999998</ele><time>2026-05-02T16:23:58.367Z</time></trkpt><trkpt lat="32.4706898" lon="-110.7301899"><ele>1745.0</ele><time>2026-05-02T16:23:59.366Z</time></trkpt><trkpt lat="32.4706255" lon="-110.7303075"><ele>1746.9999999999998</ele><time>2026-05-02T16:24:01.367Z</time></trkpt><trkpt lat="32.470614" lon="-110.7303868"><ele>1749.0</ele><time>2026-05-02T16:24:02.367Z</time></trkpt><trkpt lat="32.4706123" lon="-110.7304703"><ele>1751.0</ele><time>2026-05-02T16:24:03.367Z</time></trkpt><trkpt lat="32.4705967" lon="-110.7306047"><ele>1753.0</ele><time>2026-05-02T16:24:05.366Z</time></trkpt><trkpt lat="32.4705353" lon="-110.7307145"><ele>1754.9999999999998</ele><time>2026-05-02T16:24:07.367Z</time></trkpt><trkpt lat="32.4704729" lon="-110.7307516"><ele>1757.0</ele><time>2026-05-02T16:24:08.366Z</time></trkpt><trkpt lat="32.4704055" lon="-110.7307507"><ele>1756.9999999999998</ele><time>2026-05-02T16:24:09.366Z</time></trkpt><trkpt lat="32.47033" lon="-110.7307502"><ele>1757.0</ele><time>2026-05-02T16:24:10.366Z</time></trkpt><trkpt lat="32.470247" lon="-110.7307585"><ele>1757.0</ele><time>2026-05-02T16:24:11.367Z</time></trkpt><trkpt lat="32.4701675" lon="-110.7307824"><ele>1757.0</ele><time>2026-05-02T16:24:12.366Z</time></trkpt><trkpt lat="32.470098" lon="-110.7308123"><ele>1756.9999999999998</ele><time>2026-05-02T16:24:13.367Z</time></trkpt><trkpt lat="32.4700401" lon="-110.7308569"><ele>1757.0</ele><time>2026-05-02T16:24:14.367Z</time></trkpt><trkpt lat="32.4699899" lon="-110.7309215"><ele>1757.0</ele><time>2026-05-02T16:24:15.367Z</time></trkpt><trkpt lat="32.4699426" lon="-110.7309958"><ele>1756.9999999999998</ele><time>2026-05-02T16:24:16.366Z</time></trkpt><trkpt lat="32.4698924" lon="-110.7310632"><ele>1756.9999999999998</ele><time>2026-05-02T16:24:17.366Z</time></trkpt><trkpt lat="32.4698383" lon="-110.7311107"><ele>1757.0</ele><time>2026-05-02T16:24:18.366Z</time></trkpt><trkpt lat="32.4697252" lon="-110.7311461"><ele>1757.0</ele><time>2026-05-02T16:24:20.367Z</time></trkpt><trkpt lat="32.4696026" lon="-110.7311316"><ele>1759.1666666666665</ele><time>2026-05-02T16:24:22.367Z</time></trkpt><trkpt lat="32.4695274" lon="-110.7311093"><ele>1761.3333333333333</ele><time>2026-05-02T16:24:23.366Z</time></trkpt><trkpt lat="32.4694484" lon="-110.7311067"><ele>1763.5</ele><time>2026-05-02T16:24:24.366Z</time></trkpt><trkpt lat="32.469375" lon="-110.7311192"><ele>1765.6666666666665</ele><time>2026-05-02T16:24:25.366Z</time></trkpt><trkpt lat="32.4693073" lon="-110.7311393"><ele>1767.8333333333333</ele><time>2026-05-02T16:24:26.368Z</time></trkpt><trkpt lat="32.469247" lon="-110.7311673"><ele>1770.0</ele><time>2026-05-02T16:24:27.367Z</time></trkpt><trkpt lat="32.4691554" lon="-110.7312587"><ele>1770.0</ele><time>2026-05-02T16:24:29.368Z</time></trkpt><trkpt lat="32.4691151" lon="-110.7313164"><ele>1770.0</ele><time>2026-05-02T16:24:30.366Z</time></trkpt><trkpt lat="32.4690821" lon="-110.7313848"><ele>1770.0</ele><time>2026-05-02T16:24:31.367Z</time></trkpt><trkpt lat="32.4690646" lon="-110.7314589"><ele>1770.0</ele><time>2026-05-02T16:24:32.374Z</time></trkpt><trkpt lat="32.4690604" lon="-110.7315365"><ele>1770.0</ele><time>2026-05-02T16:24:33.367Z</time></trkpt><trkpt lat="32.4690653" lon="-110.731619"><ele>1770.0</ele><time>2026-05-02T16:24:34.367Z</time></trkpt><trkpt lat="32.4690762" lon="-110.7317103"><ele>1770.0</ele><time>2026-05-02T16:24:35.367Z</time></trkpt><trkpt lat="32.4690869" lon="-110.7318087"><ele>1774.4</ele><time>2026-05-02T16:24:36.367Z</time></trkpt><trkpt lat="32.469088" lon="-110.7319196"><ele>1778.8</ele><time>2026-05-02T16:24:37.367Z</time></trkpt><trkpt lat="32.4690743" lon="-110.732033"><ele>1783.1999999999998</ele><time>2026-05-02T16:24:38.367Z</time></trkpt><trkpt lat="32.4690488" lon="-110.7321409"><ele>1787.6</ele><time>2026-05-02T16:24:39.367Z</time></trkpt><trkpt lat="32.4690197" lon="-110.7322437"><ele>1792.0</ele><time>2026-05-02T16:24:40.368Z</time></trkpt><trkpt lat="32.4689867" lon="-110.7323433"><ele>1792.0</ele><time>2026-05-02T16:24:41.366Z</time></trkpt><trkpt lat="32.468947" lon="-110.7324325"><ele>1792.0</ele><time>2026-05-02T16:24:42.366Z</time></trkpt><trkpt lat="32.468899" lon="-110.732507"><ele>1792.0</ele><time>2026-05-02T16:24:43.367Z</time></trkpt><trkpt lat="32.468859" lon="-110.7325832"><ele>1792.0</ele><time>2026-05-02T16:24:44.366Z</time></trkpt><trkpt lat="32.4688385" lon="-110.7326655"><ele>1792.0</ele><time>2026-05-02T16:24:45.367Z</time></trkpt><trkpt lat="32.4688287" lon="-110.7327472"><ele>1792.0</ele><time>2026-05-02T16:24:46.368Z</time></trkpt><trkpt lat="32.4688138" lon="-110.7328202"><ele>1792.0</ele><time>2026-05-02T16:24:47.367Z</time></trkpt><trkpt lat="32.4687399" lon="-110.7329229"><ele>1792.1666666666667</ele><time>2026-05-02T16:24:49.366Z</time></trkpt><trkpt lat="32.4686754" lon="-110.7329647"><ele>1792.3333333333335</ele><time>2026-05-02T16:24:50.366Z</time></trkpt><trkpt lat="32.4686025" lon="-110.7329992"><ele>1792.5</ele><time>2026-05-02T16:24:51.368Z</time></trkpt><trkpt lat="32.4685281" lon="-110.733029"><ele>1792.6666666666665</ele><time>2026-05-02T16:24:52.368Z</time></trkpt><trkpt lat="32.4684497" lon="-110.7330342"><ele>1792.8333333333333</ele><time>2026-05-02T16:24:53.368Z</time></trkpt><trkpt lat="32.4683723" lon="-110.7330379"><ele>1793.0</ele><time>2026-05-02T16:24:54.367Z</time></trkpt><trkpt lat="32.4682875" lon="-110.7330251"><ele>1792.9999999999998</ele><time>2026-05-02T16:24:55.366Z</time></trkpt><trkpt lat="32.4681987" lon="-110.7330089"><ele>1793.0</ele><time>2026-05-02T16:24:56.367Z</time></trkpt><trkpt lat="32.4681124" lon="-110.7329881"><ele>1793.0</ele><time>2026-05-02T16:24:57.368Z</time></trkpt><trkpt lat="32.4680342" lon="-110.7329691"><ele>1793.0</ele><time>2026-05-02T16:24:58.367Z</time></trkpt><trkpt lat="32.4679612" lon="-110.7329547"><ele>1792.9999999999998</ele><time>2026-05-02T16:24:59.367Z</time></trkpt><trkpt lat="32.4678934" lon="-110.732933"><ele>1793.0</ele><time>2026-05-02T16:25:00.366Z</time></trkpt><trkpt lat="32.4677967" lon="-110.7329188"><ele>1792.2</ele><time>2026-05-02T16:25:02.368Z</time></trkpt><trkpt lat="32.467718" lon="-110.7329594"><ele>1791.4</ele><time>2026-05-02T16:25:04.367Z</time></trkpt><trkpt lat="32.4676626" lon="-110.7330529"><ele>1790.6000000000001</ele><time>2026-05-02T16:25:06.367Z</time></trkpt><trkpt lat="32.4676171" lon="-110.7331835"><ele>1789.8000000000002</ele><time>2026-05-02T16:25:08.368Z</time></trkpt><trkpt lat="32.4675593" lon="-110.733303"><ele>1789.0</ele><time>2026-05-02T16:25:10.368Z</time></trkpt><trkpt lat="32.4674603" lon="-110.7333742"><ele>1789.0000000000002</ele><time>2026-05-02T16:25:12.367Z</time></trkpt><trkpt lat="32.4673929" lon="-110.7333954"><ele>1789.0</ele><time>2026-05-02T16:25:13.367Z</time></trkpt><trkpt lat="32.4673192" lon="-110.733415"><ele>1789.0</ele><time>2026-05-02T16:25:14.367Z</time></trkpt><trkpt lat="32.4672439" lon="-110.733435"><ele>1789.0</ele><time>2026-05-02T16:25:15.367Z</time></trkpt><trkpt lat="32.4671739" lon="-110.7334589"><ele>1789.0000000000002</ele><time>2026-05-02T16:25:16.367Z</time></trkpt><trkpt lat="32.46711" lon="-110.733486"><ele>1789.0</ele><time>2026-05-02T16:25:17.368Z</time></trkpt><trkpt lat="32.467007" lon="-110.7335342"><ele>1792.4</ele><time>2026-05-02T16:25:19.368Z</time></trkpt><trkpt lat="32.4669125" lon="-110.7335105"><ele>1795.8000000000002</ele><time>2026-05-02T16:25:21.367Z</time></trkpt><trkpt lat="32.4668352" lon="-110.7333926"><ele>1799.1999999999998</ele><time>2026-05-02T16:25:23.368Z</time></trkpt><trkpt lat="32.4667902" lon="-110.7333287"><ele>1802.6</ele><time>2026-05-02T16:25:24.368Z</time></trkpt><trkpt lat="32.4667429" lon="-110.7332774"><ele>1806.0</ele><time>2026-05-02T16:25:25.368Z</time></trkpt><trkpt lat="32.466637" lon="-110.7332339"><ele>1806.0</ele><time>2026-05-02T16:25:27.367Z</time></trkpt><trkpt lat="32.4665164" lon="-110.7332214"><ele>1806.0</ele><time>2026-05-02T16:25:29.367Z</time></trkpt><trkpt lat="32.4664179" lon="-110.7331681"><ele>1806.0</ele><time>2026-05-02T16:25:31.368Z</time></trkpt><trkpt lat="32.466373" lon="-110.7330405"><ele>1806.0</ele><time>2026-05-02T16:25:33.367Z</time></trkpt><trkpt lat="32.4663614" lon="-110.7329659"><ele>1806.0</ele><time>2026-05-02T16:25:34.368Z</time></trkpt><trkpt lat="32.4663686" lon="-110.732883"><ele>1806.0</ele><time>2026-05-02T16:25:35.368Z</time></trkpt><trkpt lat="32.4663751" lon="-110.7328059"><ele>1806.0</ele><time>2026-05-02T16:25:36.367Z</time></trkpt><trkpt lat="32.4663689" lon="-110.7327313"><ele>1806.0</ele><time>2026-05-02T16:25:37.367Z</time></trkpt><trkpt lat="32.4663213" lon="-110.7326094"><ele>1806.0</ele><time>2026-05-02T16:25:39.368Z</time></trkpt><trkpt lat="32.4662418" lon="-110.7325522"><ele>1806.0</ele><time>2026-05-02T16:25:41.367Z</time></trkpt><trkpt lat="32.4661406" lon="-110.7325514"><ele>1806.0</ele><time>2026-05-02T16:25:43.367Z</time></trkpt><trkpt lat="32.4660764" lon="-110.7325717"><ele>1805.4285714285716</ele><time>2026-05-02T16:25:44.368Z</time></trkpt><trkpt lat="32.466011" lon="-110.7325972"><ele>1804.857142857143</ele><time>2026-05-02T16:25:45.368Z</time></trkpt><trkpt lat="32.4659519" lon="-110.732623"><ele>1804.2857142857142</ele><time>2026-05-02T16:25:46.367Z</time></trkpt><trkpt lat="32.4658326" lon="-110.732649"><ele>1803.7142857142858</ele><time>2026-05-02T16:25:48.367Z</time></trkpt><trkpt lat="32.4657669" lon="-110.7326615"><ele>1803.1428571428573</ele><time>2026-05-02T16:25:49.368Z</time></trkpt><trkpt lat="32.4657047" lon="-110.7326787"><ele>1802.5714285714287</ele><time>2026-05-02T16:25:50.367Z</time></trkpt><trkpt lat="32.4656417" lon="-110.7326999"><ele>1802.0</ele><time>2026-05-02T16:25:51.367Z</time></trkpt><trkpt lat="32.4655726" lon="-110.7327247"><ele>1807.6666666666665</ele><time>2026-05-02T16:25:52.367Z</time></trkpt><trkpt lat="32.4655047" lon="-110.7327492"><ele>1813.3333333333333</ele><time>2026-05-02T16:25:53.367Z</time></trkpt><trkpt lat="32.4654385" lon="-110.7327678"><ele>1819.0</ele><time>2026-05-02T16:25:54.367Z</time></trkpt><trkpt lat="32.465377" lon="-110.7327845"><ele>1824.6666666666665</ele><time>2026-05-02T16:25:55.367Z</time></trkpt><trkpt lat="32.4652528" lon="-110.7328122"><ele>1830.3333333333333</ele><time>2026-05-02T16:25:57.368Z</time></trkpt><trkpt lat="32.4651907" lon="-110.732825"><ele>1836.0</ele><time>2026-05-02T16:25:58.367Z</time></trkpt><trkpt lat="32.4650706" lon="-110.7328499"><ele>1835.6</ele><time>2026-05-02T16:26:00.367Z</time></trkpt><trkpt lat="32.4649564" lon="-110.7328514"><ele>1835.1999999999998</ele><time>2026-05-02T16:26:02.368Z</time></trkpt><trkpt lat="32.4648489" lon="-110.7328089"><ele>1834.8000000000002</ele><time>2026-05-02T16:26:04.367Z</time></trkpt><trkpt lat="32.4647881" lon="-110.7327713"><ele>1834.4</ele><time>2026-05-02T16:26:05.368Z</time></trkpt><trkpt lat="32.4646868" lon="-110.732712"><ele>1834.0</ele><time>2026-05-02T16:26:07.368Z</time></trkpt><trkpt lat="32.4645687" lon="-110.7326692"><ele>1834.0</ele><time>2026-05-02T16:26:09.368Z</time></trkpt><trkpt lat="32.4645076" lon="-110.7326378"><ele>1834.0</ele><time>2026-05-02T16:26:10.367Z</time></trkpt><trkpt lat="32.464412" lon="-110.7325537"><ele>1834.0</ele><time>2026-05-02T16:26:12.367Z</time></trkpt><trkpt lat="32.4643415" lon="-110.7324665"><ele>1834.0</ele><time>2026-05-02T16:26:14.368Z</time></trkpt><trkpt lat="32.4642613" lon="-110.7323837"><ele>1834.0</ele><time>2026-05-02T16:26:16.368Z</time></trkpt><trkpt lat="32.4641628" lon="-110.7322983"><ele>1834.0</ele><time>2026-05-02T16:26:18.367Z</time></trkpt><trkpt lat="32.4640591" lon="-110.7322052"><ele>1834.0</ele><time>2026-05-02T16:26:20.367Z</time></trkpt><trkpt lat="32.4640043" lon="-110.7321653"><ele>1834.0</ele><time>2026-05-02T16:26:21.368Z</time></trkpt><trkpt lat="32.4638984" lon="-110.7321308"><ele>1834.0</ele><time>2026-05-02T16:26:23.368Z</time></trkpt><trkpt lat="32.4637953" lon="-110.7321419"><ele>1834.0</ele><time>2026-05-02T16:26:25.367Z</time></trkpt><trkpt lat="32.4637313" lon="-110.7322072"><ele>1833.0000000000002</ele><time>2026-05-02T16:26:27.367Z</time></trkpt><trkpt lat="32.4636817" lon="-110.7323325"><ele>1832.0</ele><time>2026-05-02T16:26:29.367Z</time></trkpt><trkpt lat="32.4636556" lon="-110.7324189"><ele>1831.0</ele><time>2026-05-02T16:26:30.368Z</time></trkpt><trkpt lat="32.4636298" lon="-110.7325096"><ele>1830.0</ele><time>2026-05-02T16:26:31.367Z</time></trkpt><trkpt lat="32.4636174" lon="-110.732602"><ele>1829.0000000000002</ele><time>2026-05-02T16:26:32.369Z</time></trkpt><trkpt lat="32.4636245" lon="-110.7326932"><ele>1828.0</ele><time>2026-05-02T16:26:33.368Z</time></trkpt><trkpt lat="32.4636439" lon="-110.7327908"><ele>1827.2</ele><time>2026-05-02T16:26:34.369Z</time></trkpt><trkpt lat="32.4636659" lon="-110.7328954"><ele>1826.4</ele><time>2026-05-02T16:26:35.368Z</time></trkpt><trkpt lat="32.4636938" lon="-110.7330134"><ele>1825.6000000000001</ele><time>2026-05-02T16:26:36.368Z</time></trkpt><trkpt lat="32.4637306" lon="-110.733124"><ele>1824.8000000000002</ele><time>2026-05-02T16:26:37.368Z</time></trkpt><trkpt lat="32.4637739" lon="-110.7332202"><ele>1824.0</ele><time>2026-05-02T16:26:38.368Z</time></trkpt><trkpt lat="32.4638146" lon="-110.7333146"><ele>1828.1666666666667</ele><time>2026-05-02T16:26:39.368Z</time></trkpt><trkpt lat="32.463846" lon="-110.7334048"><ele>1832.3333333333335</ele><time>2026-05-02T16:26:40.369Z</time></trkpt><trkpt lat="32.46388" lon="-110.7334937"><ele>1836.5</ele><time>2026-05-02T16:26:41.368Z</time></trkpt><trkpt lat="32.4639203" lon="-110.7335808"><ele>1840.6666666666667</ele><time>2026-05-02T16:26:42.369Z</time></trkpt><trkpt lat="32.4639604" lon="-110.7336674"><ele>1844.8333333333335</ele><time>2026-05-02T16:26:43.368Z</time></trkpt><trkpt lat="32.4639932" lon="-110.7337472"><ele>1849.0</ele><time>2026-05-02T16:26:44.369Z</time></trkpt><trkpt lat="32.4640219" lon="-110.7338265"><ele>1849.0000000000002</ele><time>2026-05-02T16:26:45.368Z</time></trkpt><trkpt lat="32.4640621" lon="-110.7339554"><ele>1849.0</ele><time>2026-05-02T16:26:47.369Z</time></trkpt><trkpt lat="32.4641228" lon="-110.7340591"><ele>1849.0</ele><time>2026-05-02T16:26:49.369Z</time></trkpt><trkpt lat="32.4641737" lon="-110.7341129"><ele>1849.0</ele><time>2026-05-02T16:26:50.369Z</time></trkpt><trkpt lat="32.4642336" lon="-110.7341663"><ele>1849.0000000000002</ele><time>2026-05-02T16:26:51.369Z</time></trkpt><trkpt lat="32.4643016" lon="-110.7342095"><ele>1849.0</ele><time>2026-05-02T16:26:52.369Z</time></trkpt><trkpt lat="32.4643584" lon="-110.734248"><ele>1849.0000000000002</ele><time>2026-05-02T16:26:53.368Z</time></trkpt><trkpt lat="32.4644464" lon="-110.7343424"><ele>1849.0</ele><time>2026-05-02T16:26:55.369Z</time></trkpt><trkpt lat="32.4644673" lon="-110.7344913"><ele>1849.0</ele><time>2026-05-02T16:26:57.369Z</time></trkpt><trkpt lat="32.4644681" lon="-110.7345681"><ele>1849.0</ele><time>2026-05-02T16:26:58.369Z</time></trkpt><trkpt lat="32.4644807" lon="-110.7346427"><ele>1849.0000000000002</ele><time>2026-05-02T16:26:59.368Z</time></trkpt><trkpt lat="32.4645062" lon="-110.7347128"><ele>1849.0</ele><time>2026-05-02T16:27:00.368Z</time></trkpt><trkpt lat="32.4645433" lon="-110.734781"><ele>1849.0000000000002</ele><time>2026-05-02T16:27:01.369Z</time></trkpt><trkpt lat="32.4645847" lon="-110.7348534"><ele>1849.0</ele><time>2026-05-02T16:27:02.369Z</time></trkpt><trkpt lat="32.4646246" lon="-110.7349228"><ele>1849.0</ele><time>2026-05-02T16:27:03.369Z</time></trkpt><trkpt lat="32.4646659" lon="-110.7349965"><ele>1849.0</ele><time>2026-05-02T16:27:04.369Z</time></trkpt><trkpt lat="32.4647081" lon="-110.7350657"><ele>1849.0000000000002</ele><time>2026-05-02T16:27:05.368Z</time></trkpt><trkpt lat="32.4647486" lon="-110.7351314"><ele>1849.0</ele><time>2026-05-02T16:27:06.368Z</time></trkpt><trkpt lat="32.464798" lon="-110.7352389"><ele>1853.3333333333335</ele><time>2026-05-02T16:27:08.368Z</time></trkpt><trkpt lat="32.4647695" lon="-110.735327"><ele>1857.6666666666667</ele><time>2026-05-02T16:27:10.368Z</time></trkpt><trkpt lat="32.4646947" lon="-110.7353875"><ele>1862.0</ele><time>2026-05-02T16:27:12.369Z</time></trkpt><trkpt lat="32.4645904" lon="-110.7354019"><ele>1866.3333333333335</ele><time>2026-05-02T16:27:14.369Z</time></trkpt><trkpt lat="32.4645274" lon="-110.7353899"><ele>1870.6666666666667</ele><time>2026-05-02T16:27:15.368Z</time></trkpt><trkpt lat="32.4644633" lon="-110.7353811"><ele>1875.0</ele><time>2026-05-02T16:27:16.369Z</time></trkpt><trkpt lat="32.4643487" lon="-110.7353802"><ele>1875.0</ele><time>2026-05-02T16:27:18.369Z</time></trkpt><trkpt lat="32.4642266" lon="-110.7354464"><ele>1875.0</ele><time>2026-05-02T16:27:20.368Z</time></trkpt><trkpt lat="32.4641603" lon="-110.7354943"><ele>1875.0</ele><time>2026-05-02T16:27:21.369Z</time></trkpt><trkpt lat="32.4640938" lon="-110.7355521"><ele>1875.0</ele><time>2026-05-02T16:27:22.368Z</time></trkpt><trkpt lat="32.4640394" lon="-110.7356163"><ele>1875.0</ele><time>2026-05-02T16:27:23.368Z</time></trkpt><trkpt lat="32.4639927" lon="-110.7356975"><ele>1875.0</ele><time>2026-05-02T16:27:24.368Z</time></trkpt><trkpt lat="32.4639495" lon="-110.735779"><ele>1875.0</ele><time>2026-05-02T16:27:25.368Z</time></trkpt><trkpt lat="32.4639093" lon="-110.735872"><ele>1875.0</ele><time>2026-05-02T16:27:26.369Z</time></trkpt><trkpt lat="32.4638736" lon="-110.7359594"><ele>1875.0</ele><time>2026-05-02T16:27:27.369Z</time></trkpt><trkpt lat="32.4638367" lon="-110.7360458"><ele>1875.0</ele><time>2026-05-02T16:27:28.369Z</time></trkpt><trkpt lat="32.4637906" lon="-110.7361307"><ele>1875.0</ele><time>2026-05-02T16:27:29.368Z</time></trkpt><trkpt lat="32.4637438" lon="-110.7362192"><ele>1872.6666666666667</ele><time>2026-05-02T16:27:30.368Z</time></trkpt><trkpt lat="32.463708" lon="-110.7363105"><ele>1870.3333333333335</ele><time>2026-05-02T16:27:31.37Z</time></trkpt><trkpt lat="32.4636856" lon="-110.7364054"><ele>1868.0</ele><time>2026-05-02T16:27:32.368Z</time></trkpt><trkpt lat="32.4636756" lon="-110.7364927"><ele>1865.6666666666667</ele><time>2026-05-02T16:27:33.369Z</time></trkpt><trkpt lat="32.4636636" lon="-110.736574"><ele>1863.3333333333335</ele><time>2026-05-02T16:27:34.368Z</time></trkpt><trkpt lat="32.4636432" lon="-110.7366474"><ele>1861.0</ele><time>2026-05-02T16:27:35.368Z</time></trkpt><trkpt lat="32.4635917" lon="-110.7367629"><ele>1861.0000000000002</ele><time>2026-05-02T16:27:37.368Z</time></trkpt><trkpt lat="32.463516" lon="-110.7368666"><ele>1861.0</ele><time>2026-05-02T16:27:39.368Z</time></trkpt><trkpt lat="32.4634686" lon="-110.7369255"><ele>1861.0</ele><time>2026-05-02T16:27:40.369Z</time></trkpt><trkpt lat="32.463432" lon="-110.7369908"><ele>1861.0</ele><time>2026-05-02T16:27:41.369Z</time></trkpt><trkpt lat="32.4634057" lon="-110.7370588"><ele>1861.0000000000002</ele><time>2026-05-02T16:27:42.368Z</time></trkpt><trkpt lat="32.4633995" lon="-110.7371904"><ele>1861.0</ele><time>2026-05-02T16:27:44.369Z</time></trkpt><trkpt lat="32.4634503" lon="-110.7373211"><ele>1861.5714285714284</ele><time>2026-05-02T16:27:46.37Z</time></trkpt><trkpt lat="32.4634839" lon="-110.7373895"><ele>1862.142857142857</ele><time>2026-05-02T16:27:47.369Z</time></trkpt><trkpt lat="32.463523" lon="-110.7374587"><ele>1862.7142857142858</ele><time>2026-05-02T16:27:48.369Z</time></trkpt><trkpt lat="32.463566" lon="-110.7375249"><ele>1863.2857142857142</ele><time>2026-05-02T16:27:49.369Z</time></trkpt><trkpt lat="32.4636217" lon="-110.7375742"><ele>1863.8571428571431</ele><time>2026-05-02T16:27:50.369Z</time></trkpt><trkpt lat="32.4636839" lon="-110.7376188"><ele>1864.4285714285716</ele><time>2026-05-02T16:27:51.369Z</time></trkpt><trkpt lat="32.4637546" lon="-110.7376605"><ele>1865.0</ele><time>2026-05-02T16:27:52.368Z</time></trkpt><trkpt lat="32.4638296" lon="-110.7376991"><ele>1869.4285714285716</ele><time>2026-05-02T16:27:53.369Z</time></trkpt><trkpt lat="32.4639008" lon="-110.7377373"><ele>1873.8571428571431</ele><time>2026-05-02T16:27:54.369Z</time></trkpt><trkpt lat="32.4639561" lon="-110.73778"><ele>1878.2857142857142</ele><time>2026-05-02T16:27:55.369Z</time></trkpt><trkpt lat="32.4639986" lon="-110.7378389"><ele>1882.7142857142858</ele><time>2026-05-02T16:27:56.369Z</time></trkpt><trkpt lat="32.4640304" lon="-110.7379136"><ele>1887.142857142857</ele><time>2026-05-02T16:27:57.369Z</time></trkpt><trkpt lat="32.4640614" lon="-110.73799"><ele>1891.5714285714284</ele><time>2026-05-02T16:27:58.37Z</time></trkpt><trkpt lat="32.4640987" lon="-110.7380729"><ele>1895.9999999999998</ele><time>2026-05-02T16:27:59.369Z</time></trkpt><trkpt lat="32.4641321" lon="-110.7381446"><ele>1896.0</ele><time>2026-05-02T16:28:00.369Z</time></trkpt><trkpt lat="32.4641468" lon="-110.7382211"><ele>1896.0</ele><time>2026-05-02T16:28:01.369Z</time></trkpt><trkpt lat="32.4641441" lon="-110.7383081"><ele>1896.0</ele><time>2026-05-02T16:28:02.37Z</time></trkpt><trkpt lat="32.4641378" lon="-110.7384048"><ele>1896.0</ele><time>2026-05-02T16:28:03.37Z</time></trkpt><trkpt lat="32.4641375" lon="-110.7385081"><ele>1896.0</ele><time>2026-05-02T16:28:04.368Z</time></trkpt><trkpt lat="32.4641467" lon="-110.7386108"><ele>1896.0</ele><time>2026-05-02T16:28:05.369Z</time></trkpt><trkpt lat="32.4641615" lon="-110.7387084"><ele>1894.8333333333333</ele><time>2026-05-02T16:28:06.369Z</time></trkpt><trkpt lat="32.4641767" lon="-110.7388086"><ele>1893.6666666666665</ele><time>2026-05-02T16:28:07.37Z</time></trkpt><trkpt lat="32.4641898" lon="-110.7389068"><ele>1892.5</ele><time>2026-05-02T16:28:08.369Z</time></trkpt><trkpt lat="32.4642087" lon="-110.738997"><ele>1891.3333333333333</ele><time>2026-05-02T16:28:09.37Z</time></trkpt><trkpt lat="32.4642369" lon="-110.739072"><ele>1890.1666666666665</ele><time>2026-05-02T16:28:10.369Z</time></trkpt><trkpt lat="32.464278" lon="-110.7391376"><ele>1889.0</ele><time>2026-05-02T16:28:11.369Z</time></trkpt><trkpt lat="32.4643223" lon="-110.7391984"><ele>1888.9999999999998</ele><time>2026-05-02T16:28:12.369Z</time></trkpt><trkpt lat="32.4643763" lon="-110.7392484"><ele>1889.0</ele><time>2026-05-02T16:28:13.37Z</time></trkpt><trkpt lat="32.4644442" lon="-110.7392945"><ele>1889.0</ele><time>2026-05-02T16:28:14.37Z</time></trkpt><trkpt lat="32.4645101" lon="-110.7393377"><ele>1889.0</ele><time>2026-05-02T16:28:15.369Z</time></trkpt><trkpt lat="32.4645894" lon="-110.7394113"><ele>1888.9999999999998</ele><time>2026-05-02T16:28:17.37Z</time></trkpt><trkpt lat="32.4646149" lon="-110.7394993"><ele>1889.0</ele><time>2026-05-02T16:28:19.369Z</time></trkpt><trkpt lat="32.464559" lon="-110.7395912"><ele>1891.8000000000002</ele><time>2026-05-02T16:28:21.369Z</time></trkpt><trkpt lat="32.4644576" lon="-110.7396712"><ele>1894.6000000000001</ele><time>2026-05-02T16:28:23.37Z</time></trkpt><trkpt lat="32.4643948" lon="-110.7397059"><ele>1897.4</ele><time>2026-05-02T16:28:24.37Z</time></trkpt><trkpt lat="32.464335" lon="-110.7397386"><ele>1900.2</ele><time>2026-05-02T16:28:25.369Z</time></trkpt><trkpt lat="32.464236" lon="-110.7398117"><ele>1903.0</ele><time>2026-05-02T16:28:27.37Z</time></trkpt><trkpt lat="32.4641661" lon="-110.7398881"><ele>1903.0000000000002</ele><time>2026-05-02T16:28:29.37Z</time></trkpt><trkpt lat="32.4641198" lon="-110.7399826"><ele>1903.0</ele><time>2026-05-02T16:28:31.37Z</time></trkpt><trkpt lat="32.4640943" lon="-110.7400795"><ele>1903.0</ele><time>2026-05-02T16:28:33.369Z</time></trkpt><trkpt lat="32.4640702" lon="-110.7401541"><ele>1903.0</ele><time>2026-05-02T16:28:34.37Z</time></trkpt><trkpt lat="32.4640489" lon="-110.740236"><ele>1903.0000000000002</ele><time>2026-05-02T16:28:35.37Z</time></trkpt><trkpt lat="32.4640318" lon="-110.7403164"><ele>1903.0</ele><time>2026-05-02T16:28:36.37Z</time></trkpt><trkpt lat="32.4640149" lon="-110.7403932"><ele>1904.1666666666667</ele><time>2026-05-02T16:28:37.37Z</time></trkpt><trkpt lat="32.4639964" lon="-110.7404706"><ele>1905.3333333333335</ele><time>2026-05-02T16:28:38.369Z</time></trkpt><trkpt lat="32.4639761" lon="-110.7405459"><ele>1906.5</ele><time>2026-05-02T16:28:39.369Z</time></trkpt><trkpt lat="32.4639405" lon="-110.7406641"><ele>1907.6666666666665</ele><time>2026-05-02T16:28:41.37Z</time></trkpt><trkpt lat="32.4639437" lon="-110.7407593"><ele>1908.8333333333333</ele><time>2026-05-02T16:28:43.369Z</time></trkpt><trkpt lat="32.4639705" lon="-110.7408643"><ele>1910.0</ele><time>2026-05-02T16:28:45.369Z</time></trkpt><trkpt lat="32.4640368" lon="-110.7409947"><ele>1911.2</ele><time>2026-05-02T16:28:47.37Z</time></trkpt><trkpt lat="32.4640894" lon="-110.7411191"><ele>1912.4</ele><time>2026-05-02T16:28:49.369Z</time></trkpt><trkpt lat="32.4641158" lon="-110.7412246"><ele>1913.6</ele><time>2026-05-02T16:28:51.369Z</time></trkpt><trkpt lat="32.4641293" lon="-110.7412977"><ele>1914.8</ele><time>2026-05-02T16:28:53.37Z</time></trkpt><trkpt lat="32.4641491" lon="-110.741417"><ele>1916.0</ele><time>2026-05-02T16:29:00.369Z</time></trkpt><trkpt lat="32.4641658" lon="-110.7415386"><ele>1915.9999999999998</ele><time>2026-05-02T16:29:02.37Z</time></trkpt><trkpt lat="32.4641467" lon="-110.7416361"><ele>1916.0</ele><time>2026-05-02T16:29:04.37Z</time></trkpt><trkpt lat="32.4640814" lon="-110.7416955"><ele>1916.0</ele><time>2026-05-02T16:29:06.369Z</time></trkpt><trkpt lat="32.4639951" lon="-110.7416728"><ele>1916.0</ele><time>2026-05-02T16:29:08.371Z</time></trkpt><trkpt lat="32.463902" lon="-110.7416095"><ele>1915.9999999999998</ele><time>2026-05-02T16:29:10.37Z</time></trkpt><trkpt lat="32.4638466" lon="-110.7415611"><ele>1916.0</ele><time>2026-05-02T16:29:11.369Z</time></trkpt><trkpt lat="32.4637916" lon="-110.7415084"><ele>1917.4999999999998</ele><time>2026-05-02T16:29:12.37Z</time></trkpt><trkpt lat="32.463734" lon="-110.74145"><ele>1919.0</ele><time>2026-05-02T16:29:13.371Z</time></trkpt><trkpt lat="32.4636722" lon="-110.7413925"><ele>1920.5</ele><time>2026-05-02T16:29:14.37Z</time></trkpt><trkpt lat="32.4636121" lon="-110.7413352"><ele>1922.0</ele><time>2026-05-02T16:29:15.369Z</time></trkpt><trkpt lat="32.4635562" lon="-110.7412849"><ele>1923.4999999999998</ele><time>2026-05-02T16:29:16.371Z</time></trkpt><trkpt lat="32.4635026" lon="-110.7412447"><ele>1925.0</ele><time>2026-05-02T16:29:17.37Z</time></trkpt><trkpt lat="32.4634091" lon="-110.7411681"><ele>1920.6</ele><time>2026-05-02T16:29:19.37Z</time></trkpt><trkpt lat="32.4633756" lon="-110.7410341"><ele>1916.2</ele><time>2026-05-02T16:29:21.37Z</time></trkpt><trkpt lat="32.4633344" lon="-110.7409099"><ele>1911.8000000000002</ele><time>2026-05-02T16:29:23.369Z</time></trkpt><trkpt lat="32.463254" lon="-110.7407928"><ele>1907.4</ele><time>2026-05-02T16:29:25.371Z</time></trkpt><trkpt lat="32.4632041" lon="-110.7407341"><ele>1903.0</ele><time>2026-05-02T16:29:26.369Z</time></trkpt><trkpt lat="32.4631226" lon="-110.7406213"><ele>1903.0000000000002</ele><time>2026-05-02T16:29:28.37Z</time></trkpt><trkpt lat="32.4630824" lon="-110.7405533"><ele>1903.0</ele><time>2026-05-02T16:29:29.369Z</time></trkpt><trkpt lat="32.463043" lon="-110.7404872"><ele>1903.0</ele><time>2026-05-02T16:29:30.369Z</time></trkpt><trkpt lat="32.4629936" lon="-110.7403511"><ele>1903.0</ele><time>2026-05-02T16:29:32.371Z</time></trkpt><trkpt lat="32.4629808" lon="-110.7402756"><ele>1903.0000000000002</ele><time>2026-05-02T16:29:33.37Z</time></trkpt><trkpt lat="32.4629766" lon="-110.7401862"><ele>1903.0</ele><time>2026-05-02T16:29:34.369Z</time></trkpt><trkpt lat="32.4629695" lon="-110.7400996"><ele>1905.8000000000002</ele><time>2026-05-02T16:29:35.369Z</time></trkpt><trkpt lat="32.4629576" lon="-110.740026"><ele>1908.6000000000001</ele><time>2026-05-02T16:29:36.369Z</time></trkpt><trkpt lat="32.4629049" lon="-110.7398974"><ele>1911.3999999999999</ele><time>2026-05-02T16:29:38.371Z</time></trkpt><trkpt lat="32.4628195" lon="-110.7397949"><ele>1914.1999999999998</ele><time>2026-05-02T16:29:40.369Z</time></trkpt><trkpt lat="32.4627156" lon="-110.7397253"><ele>1917.0</ele><time>2026-05-02T16:29:42.371Z</time></trkpt><trkpt lat="32.4625965" lon="-110.7396894"><ele>1917.0</ele><time>2026-05-02T16:29:44.371Z</time></trkpt><trkpt lat="32.4625233" lon="-110.7396917"><ele>1917.0</ele><time>2026-05-02T16:29:45.371Z</time></trkpt><trkpt lat="32.4624442" lon="-110.7397002"><ele>1917.0</ele><time>2026-05-02T16:29:46.37Z</time></trkpt><trkpt lat="32.4623672" lon="-110.7397175"><ele>1917.0</ele><time>2026-05-02T16:29:47.37Z</time></trkpt><trkpt lat="32.462291" lon="-110.739727"><ele>1917.0</ele><time>2026-05-02T16:29:48.37Z</time></trkpt><trkpt lat="32.462222" lon="-110.7397255"><ele>1917.0</ele><time>2026-05-02T16:29:49.371Z</time></trkpt><trkpt lat="32.4621221" lon="-110.7397261"><ele>1919.3999999999999</ele><time>2026-05-02T16:29:51.371Z</time></trkpt><trkpt lat="32.462035" lon="-110.7397445"><ele>1921.7999999999997</ele><time>2026-05-02T16:29:53.37Z</time></trkpt><trkpt lat="32.4619329" lon="-110.7397565"><ele>1924.2</ele><time>2026-05-02T16:29:55.37Z</time></trkpt><trkpt lat="32.4618082" lon="-110.7397657"><ele>1926.6</ele><time>2026-05-02T16:29:57.37Z</time></trkpt><trkpt lat="32.4617208" lon="-110.739744"><ele>1929.0</ele><time>2026-05-02T16:29:59.37Z</time></trkpt><trkpt lat="32.4616688" lon="-110.7396887"><ele>1929.0</ele><time>2026-05-02T16:30:01.371Z</time></trkpt><trkpt lat="32.4615941" lon="-110.7396217"><ele>1929.0</ele><time>2026-05-02T16:30:03.37Z</time></trkpt><trkpt lat="32.4615388" lon="-110.7395703"><ele>1929.0</ele><time>2026-05-02T16:30:04.371Z</time></trkpt><trkpt lat="32.461481" lon="-110.7395185"><ele>1929.0</ele><time>2026-05-02T16:30:05.371Z</time></trkpt><trkpt lat="32.4614141" lon="-110.7394653"><ele>1929.0</ele><time>2026-05-02T16:30:06.371Z</time></trkpt><trkpt lat="32.4613439" lon="-110.7394112"><ele>1929.0</ele><time>2026-05-02T16:30:07.371Z</time></trkpt><trkpt lat="32.4612747" lon="-110.7393568"><ele>1928.3333333333333</ele><time>2026-05-02T16:30:08.37Z</time></trkpt><trkpt lat="32.4612084" lon="-110.7393013"><ele>1927.6666666666665</ele><time>2026-05-02T16:30:09.371Z</time></trkpt><trkpt lat="32.4611484" lon="-110.7392492"><ele>1927.0</ele><time>2026-05-02T16:30:10.371Z</time></trkpt><trkpt lat="32.4610924" lon="-110.7392031"><ele>1926.3333333333333</ele><time>2026-05-02T16:30:11.371Z</time></trkpt><trkpt lat="32.4609765" lon="-110.7391579"><ele>1925.6666666666665</ele><time>2026-05-02T16:30:13.37Z</time></trkpt><trkpt lat="32.4609103" lon="-110.7391493"><ele>1925.0</ele><time>2026-05-02T16:30:14.371Z</time></trkpt><trkpt lat="32.4608468" lon="-110.7391386"><ele>1924.9999999999998</ele><time>2026-05-02T16:30:15.371Z</time></trkpt><trkpt lat="32.4607502" lon="-110.7391094"><ele>1925.0</ele><time>2026-05-02T16:30:17.371Z</time></trkpt><trkpt lat="32.4607088" lon="-110.7390061"><ele>1925.0</ele><time>2026-05-02T16:30:19.371Z</time></trkpt><trkpt lat="32.4607068" lon="-110.7389259"><ele>1925.0</ele><time>2026-05-02T16:30:20.371Z</time></trkpt><trkpt lat="32.4607028" lon="-110.7388402"><ele>1924.9999999999998</ele><time>2026-05-02T16:30:21.37Z</time></trkpt><trkpt lat="32.4606932" lon="-110.7387553"><ele>1925.0</ele><time>2026-05-02T16:30:22.371Z</time></trkpt><trkpt lat="32.460679" lon="-110.7386714"><ele>1920.8</ele><time>2026-05-02T16:30:23.37Z</time></trkpt><trkpt lat="32.4606333" lon="-110.7385415"><ele>1916.6</ele><time>2026-05-02T16:30:25.37Z</time></trkpt><trkpt lat="32.460556" lon="-110.7384775"><ele>1912.4</ele><time>2026-05-02T16:30:27.371Z</time></trkpt><trkpt lat="32.4604662" lon="-110.738462"><ele>1908.2</ele><time>2026-05-02T16:30:29.371Z</time></trkpt><trkpt lat="32.4603706" lon="-110.7384856"><ele>1904.0</ele><time>2026-05-02T16:30:31.37Z</time></trkpt><trkpt lat="32.4602762" lon="-110.7385268"><ele>1909.6</ele><time>2026-05-02T16:30:33.371Z</time></trkpt><trkpt lat="32.4601856" lon="-110.7385744"><ele>1915.2</ele><time>2026-05-02T16:30:35.37Z</time></trkpt><trkpt lat="32.4601013" lon="-110.7386221"><ele>1920.7999999999997</ele><time>2026-05-02T16:30:37.37Z</time></trkpt><trkpt lat="32.4600214" lon="-110.7386848"><ele>1926.3999999999999</ele><time>2026-05-02T16:30:39.37Z</time></trkpt><trkpt lat="32.459956" lon="-110.7387829"><ele>1932.0</ele><time>2026-05-02T16:30:41.37Z</time></trkpt><trkpt lat="32.4599181" lon="-110.7388442"><ele>1932.0</ele><time>2026-05-02T16:30:42.371Z</time></trkpt><trkpt lat="32.4598803" lon="-110.7389104"><ele>1931.9999999999998</ele><time>2026-05-02T16:30:43.371Z</time></trkpt><trkpt lat="32.4598464" lon="-110.7389771"><ele>1931.9999999999998</ele><time>2026-05-02T16:30:44.371Z</time></trkpt><trkpt lat="32.4598092" lon="-110.739111"><ele>1932.0</ele><time>2026-05-02T16:30:46.372Z</time></trkpt><trkpt lat="32.4598255" lon="-110.7392465"><ele>1932.0</ele><time>2026-05-02T16:30:48.371Z</time></trkpt><trkpt lat="32.4598484" lon="-110.7393808"><ele>1935.8</ele><time>2026-05-02T16:30:50.371Z</time></trkpt><trkpt lat="32.4598171" lon="-110.7394969"><ele>1939.6</ele><time>2026-05-02T16:30:52.371Z</time></trkpt><trkpt lat="32.4597785" lon="-110.7396234"><ele>1943.3999999999999</ele><time>2026-05-02T16:30:54.37Z</time></trkpt><trkpt lat="32.4597282" lon="-110.7397379"><ele>1947.1999999999998</ele><time>2026-05-02T16:30:56.371Z</time></trkpt><trkpt lat="32.4596736" lon="-110.7398216"><ele>1951.0</ele><time>2026-05-02T16:30:58.371Z</time></trkpt><trkpt lat="32.459626" lon="-110.7398986"><ele>1951.6</ele><time>2026-05-02T16:31:00.371Z</time></trkpt><trkpt lat="32.4595829" lon="-110.7400022"><ele>1952.1999999999998</ele><time>2026-05-02T16:31:02.371Z</time></trkpt><trkpt lat="32.4595389" lon="-110.7401257"><ele>1952.8000000000002</ele><time>2026-05-02T16:31:04.371Z</time></trkpt><trkpt lat="32.4594836" lon="-110.7402406"><ele>1953.4</ele><time>2026-05-02T16:31:06.37Z</time></trkpt><trkpt lat="32.4594188" lon="-110.7403362"><ele>1954.0</ele><time>2026-05-02T16:31:08.371Z</time></trkpt><trkpt lat="32.4593715" lon="-110.7404178"><ele>1954.0</ele><time>2026-05-02T16:31:10.37Z</time></trkpt><trkpt lat="32.4593063" lon="-110.7405212"><ele>1954.0</ele><time>2026-05-02T16:31:12.37Z</time></trkpt><trkpt lat="32.4592306" lon="-110.7406325"><ele>1954.0</ele><time>2026-05-02T16:31:14.371Z</time></trkpt><trkpt lat="32.4591836" lon="-110.7407443"><ele>1954.0</ele><time>2026-05-02T16:31:16.372Z</time></trkpt><trkpt lat="32.4591495" lon="-110.7408523"><ele>1954.0</ele><time>2026-05-02T16:31:18.371Z</time></trkpt><trkpt lat="32.4590979" lon="-110.7409337"><ele>1954.0</ele><time>2026-05-02T16:31:20.371Z</time></trkpt><trkpt lat="32.458993" lon="-110.7409875"><ele>1954.0</ele><time>2026-05-02T16:31:22.372Z</time></trkpt><trkpt lat="32.4588755" lon="-110.7410355"><ele>1954.0</ele><time>2026-05-02T16:31:24.371Z</time></trkpt><trkpt lat="32.4587793" lon="-110.7410847"><ele>1954.0</ele><time>2026-05-02T16:31:26.371Z</time></trkpt><trkpt lat="32.458732" lon="-110.7411884"><ele>1954.0</ele><time>2026-05-02T16:31:28.371Z</time></trkpt><trkpt lat="32.4586972" lon="-110.7413184"><ele>1958.2</ele><time>2026-05-02T16:31:30.372Z</time></trkpt><trkpt lat="32.4586505" lon="-110.7414301"><ele>1962.4</ele><time>2026-05-02T16:31:32.371Z</time></trkpt><trkpt lat="32.4585531" lon="-110.7414863"><ele>1966.6</ele><time>2026-05-02T16:31:34.371Z</time></trkpt><trkpt lat="32.458437" lon="-110.74148"><ele>1970.8</ele><time>2026-05-02T16:31:36.371Z</time></trkpt><trkpt lat="32.4583448" lon="-110.741413"><ele>1975.0</ele><time>2026-05-02T16:31:38.371Z</time></trkpt><trkpt lat="32.4583188" lon="-110.741262"><ele>1975.0000000000002</ele><time>2026-05-02T16:31:40.372Z</time></trkpt><trkpt lat="32.4583076" lon="-110.7411723"><ele>1975.0</ele><time>2026-05-02T16:31:41.371Z</time></trkpt><trkpt lat="32.4582905" lon="-110.7410706"><ele>1975.0</ele><time>2026-05-02T16:31:42.372Z</time></trkpt><trkpt lat="32.4582666" lon="-110.7409742"><ele>1975.0</ele><time>2026-05-02T16:31:43.371Z</time></trkpt><trkpt lat="32.4582408" lon="-110.7408825"><ele>1975.0000000000002</ele><time>2026-05-02T16:31:44.372Z</time></trkpt><trkpt lat="32.458211" lon="-110.7407908"><ele>1975.0</ele><time>2026-05-02T16:31:45.371Z</time></trkpt><trkpt lat="32.4581879" lon="-110.7407071"><ele>1972.6666666666667</ele><time>2026-05-02T16:31:46.371Z</time></trkpt><trkpt lat="32.4581767" lon="-110.7406261"><ele>1970.3333333333335</ele><time>2026-05-02T16:31:47.371Z</time></trkpt><trkpt lat="32.4581787" lon="-110.7405401"><ele>1968.0</ele><time>2026-05-02T16:31:48.372Z</time></trkpt><trkpt lat="32.4581878" lon="-110.7404525"><ele>1965.6666666666665</ele><time>2026-05-02T16:31:49.372Z</time></trkpt><trkpt lat="32.4581999" lon="-110.74036"><ele>1963.3333333333333</ele><time>2026-05-02T16:31:50.371Z</time></trkpt><trkpt lat="32.4582186" lon="-110.7402667"><ele>1961.0</ele><time>2026-05-02T16:31:51.372Z</time></trkpt><trkpt lat="32.4582477" lon="-110.740178"><ele>1960.2857142857147</ele><time>2026-05-02T16:31:52.372Z</time></trkpt><trkpt lat="32.4582778" lon="-110.7400929"><ele>1959.5714285714287</ele><time>2026-05-02T16:31:53.371Z</time></trkpt><trkpt lat="32.4583064" lon="-110.7400191"><ele>1958.8571428571431</ele><time>2026-05-02T16:31:54.371Z</time></trkpt><trkpt lat="32.4583358" lon="-110.7399419"><ele>1958.1428571428573</ele><time>2026-05-02T16:31:55.372Z</time></trkpt><trkpt lat="32.4583578" lon="-110.7398528"><ele>1957.4285714285716</ele><time>2026-05-02T16:31:56.372Z</time></trkpt><trkpt lat="32.4583753" lon="-110.7397664"><ele>1956.7142857142858</ele><time>2026-05-02T16:31:57.371Z</time></trkpt><trkpt lat="32.4583916" lon="-110.7396759"><ele>1956.0</ele><time>2026-05-02T16:31:58.372Z</time></trkpt><trkpt lat="32.4583992" lon="-110.7395948"><ele>1956.0</ele><time>2026-05-02T16:31:59.372Z</time></trkpt><trkpt lat="32.4583953" lon="-110.7394743"><ele>1956.0</ele><time>2026-05-02T16:32:01.372Z</time></trkpt><trkpt lat="32.4583578" lon="-110.7393731"><ele>1956.0</ele><time>2026-05-02T16:32:03.372Z</time></trkpt><trkpt lat="32.4582833" lon="-110.7393049"><ele>1956.0</ele><time>2026-05-02T16:32:05.371Z</time></trkpt><trkpt lat="32.4581703" lon="-110.7392741"><ele>1956.0</ele><time>2026-05-02T16:32:07.371Z</time></trkpt><trkpt lat="32.4580596" lon="-110.7392895"><ele>1954.3333333333333</ele><time>2026-05-02T16:32:09.372Z</time></trkpt><trkpt lat="32.4579955" lon="-110.739297"><ele>1952.6666666666665</ele><time>2026-05-02T16:32:10.372Z</time></trkpt><trkpt lat="32.4579304" lon="-110.7393022"><ele>1951.0</ele><time>2026-05-02T16:32:11.372Z</time></trkpt><trkpt lat="32.4578234" lon="-110.7392352"><ele>1949.3333333333333</ele><time>2026-05-02T16:32:13.372Z</time></trkpt><trkpt lat="32.4577748" lon="-110.7391833"><ele>1947.6666666666665</ele><time>2026-05-02T16:32:14.371Z</time></trkpt><trkpt lat="32.4577144" lon="-110.7391282"><ele>1946.0</ele><time>2026-05-02T16:32:15.373Z</time></trkpt><trkpt lat="32.4576602" lon="-110.7390792"><ele>1951.1999999999998</ele><time>2026-05-02T16:32:16.371Z</time></trkpt><trkpt lat="32.4575779" lon="-110.7389839"><ele>1956.3999999999999</ele><time>2026-05-02T16:32:18.372Z</time></trkpt><trkpt lat="32.4575577" lon="-110.7388582"><ele>1961.6</ele><time>2026-05-02T16:32:20.372Z</time></trkpt><trkpt lat="32.457569" lon="-110.7387051"><ele>1966.8</ele><time>2026-05-02T16:32:22.372Z</time></trkpt><trkpt lat="32.4575737" lon="-110.738615"><ele>1972.0</ele><time>2026-05-02T16:32:23.371Z</time></trkpt><trkpt lat="32.4575852" lon="-110.7385238"><ele>1972.0000000000002</ele><time>2026-05-02T16:32:24.371Z</time></trkpt><trkpt lat="32.457605" lon="-110.7384329"><ele>1972.0</ele><time>2026-05-02T16:32:25.372Z</time></trkpt><trkpt lat="32.4576335" lon="-110.738349"><ele>1972.0</ele><time>2026-05-02T16:32:26.372Z</time></trkpt><trkpt lat="32.4576707" lon="-110.7382709"><ele>1972.0</ele><time>2026-05-02T16:32:27.372Z</time></trkpt><trkpt lat="32.4577094" lon="-110.7381929"><ele>1972.0000000000002</ele><time>2026-05-02T16:32:28.371Z</time></trkpt><trkpt lat="32.4577478" lon="-110.7381121"><ele>1972.0</ele><time>2026-05-02T16:32:29.372Z</time></trkpt><trkpt lat="32.4577768" lon="-110.7380201"><ele>1972.0</ele><time>2026-05-02T16:32:30.373Z</time></trkpt><trkpt lat="32.4578" lon="-110.737936"><ele>1972.0</ele><time>2026-05-02T16:32:31.372Z</time></trkpt><trkpt lat="32.4578235" lon="-110.737846"><ele>1972.0</ele><time>2026-05-02T16:32:32.373Z</time></trkpt><trkpt lat="32.4578404" lon="-110.7377588"><ele>1972.0</ele><time>2026-05-02T16:32:33.371Z</time></trkpt><trkpt lat="32.4578471" lon="-110.7376771"><ele>1972.0</ele><time>2026-05-02T16:32:34.372Z</time></trkpt><trkpt lat="32.457851" lon="-110.7376008"><ele>1972.0</ele><time>2026-05-02T16:32:35.371Z</time></trkpt><trkpt lat="32.4578493" lon="-110.7375255"><ele>1972.0</ele><time>2026-05-02T16:32:36.372Z</time></trkpt><trkpt lat="32.4578177" lon="-110.7374013"><ele>1970.3999999999999</ele><time>2026-05-02T16:32:38.372Z</time></trkpt><trkpt lat="32.4577377" lon="-110.7373299"><ele>1968.7999999999997</ele><time>2026-05-02T16:32:40.371Z</time></trkpt><trkpt lat="32.4576117" lon="-110.737314"><ele>1967.2</ele><time>2026-05-02T16:32:42.373Z</time></trkpt><trkpt lat="32.4575247" lon="-110.7373144"><ele>1965.6</ele><time>2026-05-02T16:32:43.373Z</time></trkpt><trkpt lat="32.4574225" lon="-110.7373078"><ele>1964.0</ele><time>2026-05-02T16:32:44.372Z</time></trkpt><trkpt lat="32.4573285" lon="-110.7372947"><ele>1963.9999999999998</ele><time>2026-05-02T16:32:45.372Z</time></trkpt><trkpt lat="32.4572484" lon="-110.7372949"><ele>1964.0</ele><time>2026-05-02T16:32:46.372Z</time></trkpt><trkpt lat="32.4571712" lon="-110.7373149"><ele>1964.0</ele><time>2026-05-02T16:32:47.371Z</time></trkpt><trkpt lat="32.4570993" lon="-110.7373437"><ele>1964.0</ele><time>2026-05-02T16:32:48.372Z</time></trkpt><trkpt lat="32.4570314" lon="-110.7373875"><ele>1963.9999999999998</ele><time>2026-05-02T16:32:49.372Z</time></trkpt><trkpt lat="32.4569702" lon="-110.7374439"><ele>1964.0</ele><time>2026-05-02T16:32:50.372Z</time></trkpt><trkpt lat="32.4569096" lon="-110.7375114"><ele>1962.8000000000002</ele><time>2026-05-02T16:32:51.372Z</time></trkpt><trkpt lat="32.456851" lon="-110.737589"><ele>1961.6000000000001</ele><time>2026-05-02T16:32:52.373Z</time></trkpt><trkpt lat="32.4567828" lon="-110.7376609"><ele>1960.4</ele><time>2026-05-02T16:32:53.372Z</time></trkpt><trkpt lat="32.4567089" lon="-110.7377263"><ele>1959.2</ele><time>2026-05-02T16:32:54.373Z</time></trkpt><trkpt lat="32.4566307" lon="-110.7377896"><ele>1958.0</ele><time>2026-05-02T16:32:55.373Z</time></trkpt><trkpt lat="32.4565509" lon="-110.7378503"><ele>1960.0</ele><time>2026-05-02T16:32:56.372Z</time></trkpt><trkpt lat="32.4564729" lon="-110.7379061"><ele>1962.0000000000002</ele><time>2026-05-02T16:32:57.372Z</time></trkpt><trkpt lat="32.4563945" lon="-110.7379648"><ele>1964.0000000000002</ele><time>2026-05-02T16:32:58.372Z</time></trkpt><trkpt lat="32.4563147" lon="-110.7380257"><ele>1966.0</ele><time>2026-05-02T16:32:59.372Z</time></trkpt><trkpt lat="32.4562389" lon="-110.7380911"><ele>1968.0</ele><time>2026-05-02T16:33:00.372Z</time></trkpt><trkpt lat="32.4561673" lon="-110.7381617"><ele>1968.0</ele><time>2026-05-02T16:33:01.372Z</time></trkpt><trkpt lat="32.4561029" lon="-110.7382358"><ele>1968.0</ele><time>2026-05-02T16:33:02.373Z</time></trkpt><trkpt lat="32.4560508" lon="-110.7383148"><ele>1968.0</ele><time>2026-05-02T16:33:03.372Z</time></trkpt><trkpt lat="32.4560128" lon="-110.7383989"><ele>1968.0</ele><time>2026-05-02T16:33:04.373Z</time></trkpt><trkpt lat="32.4559841" lon="-110.7384886"><ele>1968.0</ele><time>2026-05-02T16:33:05.373Z</time></trkpt><trkpt lat="32.4559671" lon="-110.7385846"><ele>1968.0</ele><time>2026-05-02T16:33:06.373Z</time></trkpt><trkpt lat="32.4559565" lon="-110.7386821"><ele>1969.8333333333333</ele><time>2026-05-02T16:33:07.372Z</time></trkpt><trkpt lat="32.4559485" lon="-110.7387794"><ele>1971.6666666666665</ele><time>2026-05-02T16:33:08.373Z</time></trkpt><trkpt lat="32.4559442" lon="-110.7388809"><ele>1973.5</ele><time>2026-05-02T16:33:09.373Z</time></trkpt><trkpt lat="32.4559451" lon="-110.7389822"><ele>1975.3333333333333</ele><time>2026-05-02T16:33:10.372Z</time></trkpt><trkpt lat="32.4559564" lon="-110.7390781"><ele>1977.1666666666665</ele><time>2026-05-02T16:33:11.372Z</time></trkpt><trkpt lat="32.4559686" lon="-110.7391733"><ele>1979.0</ele><time>2026-05-02T16:33:12.373Z</time></trkpt><trkpt lat="32.4559975" lon="-110.73926"><ele>1979.0</ele><time>2026-05-02T16:33:13.373Z</time></trkpt><trkpt lat="32.4560328" lon="-110.7393419"><ele>1979.0</ele><time>2026-05-02T16:33:14.372Z</time></trkpt><trkpt lat="32.4560708" lon="-110.7394274"><ele>1979.0</ele><time>2026-05-02T16:33:15.373Z</time></trkpt><trkpt lat="32.456102" lon="-110.739508"><ele>1979.0</ele><time>2026-05-02T16:33:16.372Z</time></trkpt><trkpt lat="32.4561287" lon="-110.7395825"><ele>1979.0</ele><time>2026-05-02T16:33:17.372Z</time></trkpt><trkpt lat="32.4561408" lon="-110.7396609"><ele>1979.0</ele><time>2026-05-02T16:33:18.372Z</time></trkpt><trkpt lat="32.4561316" lon="-110.7397383"><ele>1979.0</ele><time>2026-05-02T16:33:19.372Z</time></trkpt><trkpt lat="32.4560868" lon="-110.7398744"><ele>1981.6</ele><time>2026-05-02T16:33:21.372Z</time></trkpt><trkpt lat="32.4560428" lon="-110.7400038"><ele>1984.2</ele><time>2026-05-02T16:33:23.372Z</time></trkpt><trkpt lat="32.4560285" lon="-110.7401431"><ele>1986.7999999999997</ele><time>2026-05-02T16:33:25.372Z</time></trkpt><trkpt lat="32.4560081" lon="-110.7402173"><ele>1989.3999999999999</ele><time>2026-05-02T16:33:26.372Z</time></trkpt><trkpt lat="32.45598" lon="-110.7402961"><ele>1992.0</ele><time>2026-05-02T16:33:27.373Z</time></trkpt><trkpt lat="32.4559463" lon="-110.7403788"><ele>1994.5</ele><time>2026-05-02T16:33:28.372Z</time></trkpt><trkpt lat="32.4559091" lon="-110.7404605"><ele>1997.0</ele><time>2026-05-02T16:33:29.374Z</time></trkpt><trkpt lat="32.4558684" lon="-110.7405362"><ele>1999.5</ele><time>2026-05-02T16:33:30.373Z</time></trkpt><trkpt lat="32.4558288" lon="-110.7406051"><ele>2002.0</ele><time>2026-05-02T16:33:31.372Z</time></trkpt><trkpt lat="32.4557947" lon="-110.7406691"><ele>2004.5</ele><time>2026-05-02T16:33:32.373Z</time></trkpt><trkpt lat="32.4557299" lon="-110.7407739"><ele>2007.0</ele><time>2026-05-02T16:33:34.372Z</time></trkpt><trkpt lat="32.4556265" lon="-110.7408256"><ele>2007.0</ele><time>2026-05-02T16:33:36.372Z</time></trkpt><trkpt lat="32.455521" lon="-110.7408259"><ele>2006.9999999999998</ele><time>2026-05-02T16:33:38.372Z</time></trkpt><trkpt lat="32.4554289" lon="-110.7407482"><ele>2006.9999999999998</ele><time>2026-05-02T16:33:40.373Z</time></trkpt><trkpt lat="32.455333" lon="-110.7406726"><ele>2007.0</ele><time>2026-05-02T16:33:42.372Z</time></trkpt><trkpt lat="32.4552196" lon="-110.7406778"><ele>2007.0</ele><time>2026-05-02T16:33:44.372Z</time></trkpt><trkpt lat="32.45512" lon="-110.7407405"><ele>2009.3333333333333</ele><time>2026-05-02T16:33:46.373Z</time></trkpt><trkpt lat="32.4550456" lon="-110.7407767"><ele>2011.6666666666665</ele><time>2026-05-02T16:33:48.372Z</time></trkpt><trkpt lat="32.4549824" lon="-110.7407354"><ele>2014.0</ele><time>2026-05-02T16:33:50.372Z</time></trkpt><trkpt lat="32.4549541" lon="-110.7406402"><ele>2016.3333333333333</ele><time>2026-05-02T16:33:52.372Z</time></trkpt><trkpt lat="32.4549199" lon="-110.740521"><ele>2018.6666666666665</ele><time>2026-05-02T16:33:54.373Z</time></trkpt><trkpt lat="32.4548522" lon="-110.7404259"><ele>2021.0</ele><time>2026-05-02T16:33:56.372Z</time></trkpt><trkpt lat="32.4547477" lon="-110.7403324"><ele>2021.0</ele><time>2026-05-02T16:33:58.374Z</time></trkpt><trkpt lat="32.4546904" lon="-110.7402786"><ele>2021.0</ele><time>2026-05-02T16:33:59.374Z</time></trkpt><trkpt lat="32.4546407" lon="-110.7402168"><ele>2021.0</ele><time>2026-05-02T16:34:00.373Z</time></trkpt><trkpt lat="32.4545974" lon="-110.7401539"><ele>2021.0</ele><time>2026-05-02T16:34:01.373Z</time></trkpt><trkpt lat="32.4545266" lon="-110.7400416"><ele>2021.0</ele><time>2026-05-02T16:34:03.372Z</time></trkpt><trkpt lat="32.4544551" lon="-110.7399276"><ele>2020.4999999999998</ele><time>2026-05-02T16:34:05.372Z</time></trkpt><trkpt lat="32.4544224" lon="-110.7398611"><ele>2020.0</ele><time>2026-05-02T16:34:06.372Z</time></trkpt><trkpt lat="32.454373" lon="-110.7397265"><ele>2019.5</ele><time>2026-05-02T16:34:08.373Z</time></trkpt><trkpt lat="32.4543507" lon="-110.7396512"><ele>2019.0</ele><time>2026-05-02T16:34:09.373Z</time></trkpt><trkpt lat="32.4543359" lon="-110.7395748"><ele>2018.4999999999998</ele><time>2026-05-02T16:34:10.373Z</time></trkpt><trkpt lat="32.4543183" lon="-110.7394401"><ele>2018.0</ele><time>2026-05-02T16:34:12.373Z</time></trkpt><trkpt lat="32.4542849" lon="-110.7393084"><ele>2018.0</ele><time>2026-05-02T16:34:14.373Z</time></trkpt><trkpt lat="32.4542347" lon="-110.739186"><ele>2018.0000000000002</ele><time>2026-05-02T16:34:16.373Z</time></trkpt><trkpt lat="32.4541551" lon="-110.7390844"><ele>2018.0000000000002</ele><time>2026-05-02T16:34:18.373Z</time></trkpt><trkpt lat="32.4540952" lon="-110.7390381"><ele>2018.0</ele><time>2026-05-02T16:34:19.373Z</time></trkpt><trkpt lat="32.4540293" lon="-110.7389924"><ele>2018.0</ele><time>2026-05-02T16:34:20.373Z</time></trkpt><trkpt lat="32.4539612" lon="-110.7389464"><ele>2017.9999999999998</ele><time>2026-05-02T16:34:21.373Z</time></trkpt><trkpt lat="32.4538901" lon="-110.7389077"><ele>2018.0</ele><time>2026-05-02T16:34:22.373Z</time></trkpt><trkpt lat="32.4538151" lon="-110.7388714"><ele>2018.0</ele><time>2026-05-02T16:34:23.373Z</time></trkpt><trkpt lat="32.453743" lon="-110.7388375"><ele>2018.0</ele><time>2026-05-02T16:34:24.373Z</time></trkpt><trkpt lat="32.4536717" lon="-110.7388067"><ele>2017.9999999999998</ele><time>2026-05-02T16:34:25.373Z</time></trkpt><trkpt lat="32.4535961" lon="-110.7387888"><ele>2018.0</ele><time>2026-05-02T16:34:26.374Z</time></trkpt><trkpt lat="32.4535184" lon="-110.7387879"><ele>2021.8333333333333</ele><time>2026-05-02T16:34:27.373Z</time></trkpt><trkpt lat="32.4534395" lon="-110.7387962"><ele>2025.6666666666665</ele><time>2026-05-02T16:34:28.373Z</time></trkpt><trkpt lat="32.4533597" lon="-110.7388093"><ele>2029.5</ele><time>2026-05-02T16:34:29.374Z</time></trkpt><trkpt lat="32.4532759" lon="-110.7388239"><ele>2033.3333333333335</ele><time>2026-05-02T16:34:30.373Z</time></trkpt><trkpt lat="32.4531958" lon="-110.7388378"><ele>2037.1666666666667</ele><time>2026-05-02T16:34:31.374Z</time></trkpt><trkpt lat="32.4531234" lon="-110.7388536"><ele>2041.0</ele><time>2026-05-02T16:34:32.374Z</time></trkpt><trkpt lat="32.4530568" lon="-110.7388749"><ele>2044.4</ele><time>2026-05-02T16:34:33.374Z</time></trkpt><trkpt lat="32.4529391" lon="-110.7389172"><ele>2047.8</ele><time>2026-05-02T16:34:35.373Z</time></trkpt><trkpt lat="32.4528325" lon="-110.7389278"><ele>2051.2000000000003</ele><time>2026-05-02T16:34:37.373Z</time></trkpt><trkpt lat="32.4527468" lon="-110.738856"><ele>2054.6</ele><time>2026-05-02T16:34:39.373Z</time></trkpt><trkpt lat="32.4526924" lon="-110.7387955"><ele>2058.0</ele><time>2026-05-02T16:34:40.374Z</time></trkpt><trkpt lat="32.452633" lon="-110.7387462"><ele>2058.0</ele><time>2026-05-02T16:34:41.374Z</time></trkpt><trkpt lat="32.4525821" lon="-110.7386992"><ele>2058.0</ele><time>2026-05-02T16:34:42.373Z</time></trkpt><trkpt lat="32.4525157" lon="-110.7385999"><ele>2058.0</ele><time>2026-05-02T16:34:44.374Z</time></trkpt><trkpt lat="32.4524897" lon="-110.7384726"><ele>2058.0</ele><time>2026-05-02T16:34:46.373Z</time></trkpt><trkpt lat="32.4524244" lon="-110.7383752"><ele>2058.0</ele><time>2026-05-02T16:34:48.373Z</time></trkpt><trkpt lat="32.4523238" lon="-110.7383283"><ele>2058.4</ele><time>2026-05-02T16:34:50.373Z</time></trkpt><trkpt lat="32.4522085" lon="-110.738287"><ele>2058.8</ele><time>2026-05-02T16:34:52.373Z</time></trkpt><trkpt lat="32.4520957" lon="-110.7382529"><ele>2059.2</ele><time>2026-05-02T16:34:54.374Z</time></trkpt><trkpt lat="32.4519802" lon="-110.7382049"><ele>2059.6</ele><time>2026-05-02T16:34:56.374Z</time></trkpt><trkpt lat="32.4519196" lon="-110.738173"><ele>2060.0</ele><time>2026-05-02T16:34:57.374Z</time></trkpt><trkpt lat="32.4518614" lon="-110.7381405"><ele>2060.0</ele><time>2026-05-02T16:34:58.373Z</time></trkpt><trkpt lat="32.4518063" lon="-110.7381038"><ele>2060.0</ele><time>2026-05-02T16:34:59.374Z</time></trkpt><trkpt lat="32.451753" lon="-110.7380637"><ele>2060.0</ele><time>2026-05-02T16:35:00.373Z</time></trkpt><trkpt lat="32.4516466" lon="-110.737995"><ele>2060.0</ele><time>2026-05-02T16:35:02.373Z</time></trkpt><trkpt lat="32.451589" lon="-110.7379638"><ele>2060.0</ele><time>2026-05-02T16:35:03.374Z</time></trkpt><trkpt lat="32.4514845" lon="-110.7379086"><ele>2060.0</ele><time>2026-05-02T16:35:05.374Z</time></trkpt><trkpt lat="32.4514062" lon="-110.7378293"><ele>2060.0</ele><time>2026-05-02T16:35:07.373Z</time></trkpt><trkpt lat="32.4513671" lon="-110.7377196"><ele>2060.0</ele><time>2026-05-02T16:35:09.373Z</time></trkpt><trkpt lat="32.4513219" lon="-110.7376004"><ele>2060.0</ele><time>2026-05-02T16:35:11.373Z</time></trkpt><trkpt lat="32.4512317" lon="-110.7375237"><ele>2060.0</ele><time>2026-05-02T16:35:13.373Z</time></trkpt><trkpt lat="32.4511449" lon="-110.737437"><ele>2060.0</ele><time>2026-05-02T16:35:15.373Z</time></trkpt><trkpt lat="32.4511147" lon="-110.7373695"><ele>2061.2</ele><time>2026-05-02T16:35:16.373Z</time></trkpt><trkpt lat="32.4510916" lon="-110.7372998"><ele>2062.4</ele><time>2026-05-02T16:35:17.374Z</time></trkpt><trkpt lat="32.4510851" lon="-110.7371622"><ele>2063.6</ele><time>2026-05-02T16:35:19.373Z</time></trkpt><trkpt lat="32.4511016" lon="-110.7370317"><ele>2064.8</ele><time>2026-05-02T16:35:21.373Z</time></trkpt><trkpt lat="32.4510592" lon="-110.7369045"><ele>2066.0</ele><time>2026-05-02T16:35:23.374Z</time></trkpt><trkpt lat="32.451021" lon="-110.7368427"><ele>2063.4</ele><time>2026-05-02T16:35:24.373Z</time></trkpt><trkpt lat="32.4509418" lon="-110.7367377"><ele>2060.8</ele><time>2026-05-02T16:35:26.373Z</time></trkpt><trkpt lat="32.4508535" lon="-110.7366438"><ele>2058.2000000000003</ele><time>2026-05-02T16:35:28.375Z</time></trkpt><trkpt lat="32.4507617" lon="-110.7366077"><ele>2055.6</ele><time>2026-05-02T16:35:30.375Z</time></trkpt><trkpt lat="32.4506563" lon="-110.7365956"><ele>2053.0</ele><time>2026-05-02T16:35:32.374Z</time></trkpt><trkpt lat="32.4505973" lon="-110.7365147"><ele>2053.0</ele><time>2026-05-02T16:35:34.374Z</time></trkpt><trkpt lat="32.4505719" lon="-110.7363721"><ele>2053.0</ele><time>2026-05-02T16:35:36.373Z</time></trkpt><trkpt lat="32.4505304" lon="-110.7362431"><ele>2053.0</ele><time>2026-05-02T16:35:38.374Z</time></trkpt><trkpt lat="32.4504522" lon="-110.7361533"><ele>2053.0</ele><time>2026-05-02T16:35:40.375Z</time></trkpt><trkpt lat="32.4503551" lon="-110.7360891"><ele>2052.8</ele><time>2026-05-02T16:35:42.374Z</time></trkpt><trkpt lat="32.4502681" lon="-110.7360529"><ele>2052.6000000000004</ele><time>2026-05-02T16:35:44.374Z</time></trkpt><trkpt lat="32.4501722" lon="-110.7360149"><ele>2052.3999999999996</ele><time>2026-05-02T16:35:46.375Z</time></trkpt><trkpt lat="32.450099" lon="-110.7359834"><ele>2052.2</ele><time>2026-05-02T16:35:48.374Z</time></trkpt><trkpt lat="32.4499779" lon="-110.7360147"><ele>2052.0</ele><time>2026-05-02T16:37:44.548Z</time></trkpt><trkpt lat="32.4498144" lon="-110.7360496"><ele>2056.0</ele><time>2026-05-02T16:37:46.375Z</time></trkpt><trkpt lat="32.4497468" lon="-110.7360765"><ele>2060.0</ele><time>2026-05-02T16:37:47.376Z</time></trkpt><trkpt lat="32.4496835" lon="-110.7361135"><ele>2064.0</ele><time>2026-05-02T16:37:48.375Z</time></trkpt><trkpt lat="32.4496257" lon="-110.7361567"><ele>2068.0</ele><time>2026-05-02T16:37:49.375Z</time></trkpt><trkpt lat="32.4495747" lon="-110.7362022"><ele>2072.0</ele><time>2026-05-02T16:37:50.375Z</time></trkpt><trkpt lat="32.449487" lon="-110.7362886"><ele>2076.0</ele><time>2026-05-02T16:37:52.376Z</time></trkpt><trkpt lat="32.4494112" lon="-110.7363531"><ele>2076.3333333333335</ele><time>2026-05-02T16:37:54.375Z</time></trkpt><trkpt lat="32.4493191" lon="-110.7364164"><ele>2076.6666666666665</ele><time>2026-05-02T16:37:56.375Z</time></trkpt><trkpt lat="32.4492593" lon="-110.736446"><ele>2077.0</ele><time>2026-05-02T16:37:57.375Z</time></trkpt><trkpt lat="32.4491337" lon="-110.736471"><ele>2077.333333333333</ele><time>2026-05-02T16:37:59.376Z</time></trkpt><trkpt lat="32.4490612" lon="-110.7364578"><ele>2077.6666666666665</ele><time>2026-05-02T16:38:00.376Z</time></trkpt><trkpt lat="32.4489896" lon="-110.7364374"><ele>2078.0</ele><time>2026-05-02T16:38:01.376Z</time></trkpt><trkpt lat="32.4489259" lon="-110.7364284"><ele>2078.0</ele><time>2026-05-02T16:38:02.375Z</time></trkpt><trkpt lat="32.4488075" lon="-110.736461"><ele>2078.0</ele><time>2026-05-02T16:38:04.375Z</time></trkpt><trkpt lat="32.4487387" lon="-110.7365022"><ele>2078.0</ele><time>2026-05-02T16:38:05.376Z</time></trkpt><trkpt lat="32.4486666" lon="-110.7365527"><ele>2078.0</ele><time>2026-05-02T16:38:06.375Z</time></trkpt><trkpt lat="32.4485928" lon="-110.7366091"><ele>2078.0</ele><time>2026-05-02T16:38:07.376Z</time></trkpt><trkpt lat="32.4485194" lon="-110.7366668"><ele>2077.0</ele><time>2026-05-02T16:38:08.376Z</time></trkpt><trkpt lat="32.4484516" lon="-110.7367236"><ele>2076.0</ele><time>2026-05-02T16:38:09.375Z</time></trkpt><trkpt lat="32.448391" lon="-110.7367758"><ele>2075.0</ele><time>2026-05-02T16:38:10.375Z</time></trkpt><trkpt lat="32.4483345" lon="-110.7368159"><ele>2074.0</ele><time>2026-05-02T16:38:11.375Z</time></trkpt><trkpt lat="32.4482394" lon="-110.7368861"><ele>2073.0</ele><time>2026-05-02T16:38:13.376Z</time></trkpt><trkpt lat="32.4482012" lon="-110.7370018"><ele>2072.0</ele><time>2026-05-02T16:38:15.376Z</time></trkpt><trkpt lat="32.4482093" lon="-110.737079"><ele>2071.833333333333</ele><time>2026-05-02T16:38:16.376Z</time></trkpt><trkpt lat="32.4482403" lon="-110.7371568"><ele>2071.6666666666665</ele><time>2026-05-02T16:38:17.375Z</time></trkpt><trkpt lat="32.4482828" lon="-110.7372313"><ele>2071.5</ele><time>2026-05-02T16:38:18.375Z</time></trkpt><trkpt lat="32.448341" lon="-110.7372941"><ele>2071.3333333333335</ele><time>2026-05-02T16:38:19.375Z</time></trkpt><trkpt lat="32.4484199" lon="-110.7373425"><ele>2071.166666666667</ele><time>2026-05-02T16:38:20.376Z</time></trkpt><trkpt lat="32.448505" lon="-110.7373904"><ele>2071.0</ele><time>2026-05-02T16:38:21.375Z</time></trkpt><trkpt lat="32.4485854" lon="-110.7374281"><ele>2071.0</ele><time>2026-05-02T16:38:22.375Z</time></trkpt><trkpt lat="32.4486654" lon="-110.7374526"><ele>2071.0</ele><time>2026-05-02T16:38:23.376Z</time></trkpt><trkpt lat="32.4487454" lon="-110.7374671"><ele>2071.0</ele><time>2026-05-02T16:38:24.375Z</time></trkpt><trkpt lat="32.448826" lon="-110.7374622"><ele>2071.0</ele><time>2026-05-02T16:38:25.376Z</time></trkpt><trkpt lat="32.4489085" lon="-110.7374334"><ele>2071.0</ele><time>2026-05-02T16:38:26.377Z</time></trkpt><trkpt lat="32.448988" lon="-110.7373876"><ele>2071.0</ele><time>2026-05-02T16:38:27.375Z</time></trkpt><trkpt lat="32.4490677" lon="-110.7373255"><ele>2073.0</ele><time>2026-05-02T16:38:28.375Z</time></trkpt><trkpt lat="32.4491442" lon="-110.7372481"><ele>2075.0</ele><time>2026-05-02T16:38:29.375Z</time></trkpt><trkpt lat="32.449216" lon="-110.7371642"><ele>2077.0</ele><time>2026-05-02T16:38:30.376Z</time></trkpt><trkpt lat="32.4492841" lon="-110.7370863"><ele>2079.0</ele><time>2026-05-02T16:38:31.376Z</time></trkpt><trkpt lat="32.4493535" lon="-110.7370184"><ele>2081.0</ele><time>2026-05-02T16:38:32.376Z</time></trkpt><trkpt lat="32.449424" lon="-110.7369573"><ele>2081.0</ele><time>2026-05-02T16:38:33.375Z</time></trkpt><trkpt lat="32.4494921" lon="-110.7369128"><ele>2081.0</ele><time>2026-05-02T16:38:34.376Z</time></trkpt><trkpt lat="32.4495593" lon="-110.7368846"><ele>2081.0</ele><time>2026-05-02T16:38:35.376Z</time></trkpt><trkpt lat="32.4496266" lon="-110.73688"><ele>2081.0</ele><time>2026-05-02T16:38:36.377Z</time></trkpt><trkpt lat="32.4496956" lon="-110.7369008"><ele>2081.0</ele><time>2026-05-02T16:38:37.377Z</time></trkpt><trkpt lat="32.4497646" lon="-110.7369456"><ele>2081.0</ele><time>2026-05-02T16:38:38.377Z</time></trkpt><trkpt lat="32.4498341" lon="-110.7370044"><ele>2082.2</ele><time>2026-05-02T16:38:39.375Z</time></trkpt><trkpt lat="32.4498977" lon="-110.7370903"><ele>2083.3999999999996</ele><time>2026-05-02T16:38:40.377Z</time></trkpt><trkpt lat="32.4499521" lon="-110.7371911"><ele>2084.6</ele><time>2026-05-02T16:38:41.377Z</time></trkpt><trkpt lat="32.4499984" lon="-110.7373033"><ele>2085.7999999999997</ele><time>2026-05-02T16:38:42.376Z</time></trkpt><trkpt lat="32.450034" lon="-110.7374184"><ele>2087.0</ele><time>2026-05-02T16:38:43.377Z</time></trkpt><trkpt lat="32.4500581" lon="-110.7375309"><ele>2087.0</ele><time>2026-05-02T16:38:44.376Z</time></trkpt><trkpt lat="32.45006" lon="-110.7376377"><ele>2087.0</ele><time>2026-05-02T16:38:45.376Z</time></trkpt><trkpt lat="32.4500488" lon="-110.7377415"><ele>2087.0</ele><time>2026-05-02T16:38:46.376Z</time></trkpt><trkpt lat="32.4500267" lon="-110.737843"><ele>2087.0</ele><time>2026-05-02T16:38:47.376Z</time></trkpt><trkpt lat="32.4500004" lon="-110.737945"><ele>2087.0</ele><time>2026-05-02T16:38:48.376Z</time></trkpt><trkpt lat="32.4499791" lon="-110.7380425"><ele>2087.0</ele><time>2026-05-02T16:38:49.376Z</time></trkpt><trkpt lat="32.4499652" lon="-110.7381274"><ele>2087.7999999999997</ele><time>2026-05-02T16:38:50.377Z</time></trkpt><trkpt lat="32.4499535" lon="-110.7382085"><ele>2088.6</ele><time>2026-05-02T16:38:51.376Z</time></trkpt><trkpt lat="32.4499924" lon="-110.7383601"><ele>2089.3999999999996</ele><time>2026-05-02T16:38:53.376Z</time></trkpt><trkpt lat="32.4500283" lon="-110.7384437"><ele>2090.2</ele><time>2026-05-02T16:38:54.375Z</time></trkpt><trkpt lat="32.4500857" lon="-110.7385335"><ele>2091.0</ele><time>2026-05-02T16:38:55.375Z</time></trkpt><trkpt lat="32.4501499" lon="-110.7386152"><ele>2091.6</ele><time>2026-05-02T16:38:56.377Z</time></trkpt><trkpt lat="32.4502155" lon="-110.7386999"><ele>2092.2</ele><time>2026-05-02T16:38:57.375Z</time></trkpt><trkpt lat="32.4502726" lon="-110.7387906"><ele>2092.8</ele><time>2026-05-02T16:38:58.376Z</time></trkpt><trkpt lat="32.4503186" lon="-110.7388867"><ele>2093.4</ele><time>2026-05-02T16:38:59.377Z</time></trkpt><trkpt lat="32.4503508" lon="-110.7389885"><ele>2094.0</ele><time>2026-05-02T16:39:00.376Z</time></trkpt><trkpt lat="32.4503704" lon="-110.739079"><ele>2094.0</ele><time>2026-05-02T16:39:01.377Z</time></trkpt><trkpt lat="32.4503884" lon="-110.7391688"><ele>2094.0</ele><time>2026-05-02T16:39:02.376Z</time></trkpt><trkpt lat="32.4504146" lon="-110.7392533"><ele>2094.0</ele><time>2026-05-02T16:39:03.377Z</time></trkpt><trkpt lat="32.450458" lon="-110.7393291"><ele>2094.0</ele><time>2026-05-02T16:39:04.376Z</time></trkpt><trkpt lat="32.4505057" lon="-110.7393999"><ele>2094.0</ele><time>2026-05-02T16:39:05.376Z</time></trkpt><trkpt lat="32.450556" lon="-110.739466"><ele>2094.0</ele><time>2026-05-02T16:39:06.376Z</time></trkpt><trkpt lat="32.4506129" lon="-110.7395274"><ele>2096.1666666666665</ele><time>2026-05-02T16:39:07.376Z</time></trkpt><trkpt lat="32.4506762" lon="-110.739603"><ele>2098.3333333333335</ele><time>2026-05-02T16:39:08.376Z</time></trkpt><trkpt lat="32.4507358" lon="-110.7396734"><ele>2100.5</ele><time>2026-05-02T16:39:09.377Z</time></trkpt><trkpt lat="32.4507934" lon="-110.7397381"><ele>2102.666666666667</ele><time>2026-05-02T16:39:10.376Z</time></trkpt><trkpt lat="32.4508509" lon="-110.7397975"><ele>2104.8333333333335</ele><time>2026-05-02T16:39:11.376Z</time></trkpt><trkpt lat="32.4509097" lon="-110.7398566"><ele>2107.0</ele><time>2026-05-02T16:39:12.376Z</time></trkpt><trkpt lat="32.4509591" lon="-110.739917"><ele>2107.0</ele><time>2026-05-02T16:39:13.377Z</time></trkpt><trkpt lat="32.450992" lon="-110.7399835"><ele>2107.0</ele><time>2026-05-02T16:39:14.376Z</time></trkpt><trkpt lat="32.4510218" lon="-110.7400495"><ele>2107.0</ele><time>2026-05-02T16:39:15.376Z</time></trkpt><trkpt lat="32.4510473" lon="-110.7401192"><ele>2107.0</ele><time>2026-05-02T16:39:16.377Z</time></trkpt><trkpt lat="32.4511088" lon="-110.7402439"><ele>2107.0</ele><time>2026-05-02T16:39:18.377Z</time></trkpt><trkpt lat="32.4511519" lon="-110.740312"><ele>2107.0</ele><time>2026-05-02T16:39:19.376Z</time></trkpt><trkpt lat="32.4511931" lon="-110.7403788"><ele>2107.0</ele><time>2026-05-02T16:39:20.377Z</time></trkpt><trkpt lat="32.4512324" lon="-110.7404411"><ele>2107.0</ele><time>2026-05-02T16:39:21.377Z</time></trkpt><trkpt lat="32.451273" lon="-110.7405102"><ele>2107.0</ele><time>2026-05-02T16:39:22.376Z</time></trkpt><trkpt lat="32.4513172" lon="-110.7405882"><ele>2107.0</ele><time>2026-05-02T16:39:23.377Z</time></trkpt><trkpt lat="32.4513646" lon="-110.7406734"><ele>2107.0</ele><time>2026-05-02T16:39:24.377Z</time></trkpt><trkpt lat="32.4514183" lon="-110.7407617"><ele>2107.0</ele><time>2026-05-02T16:39:25.377Z</time></trkpt><trkpt lat="32.4514833" lon="-110.7408522"><ele>2108.4</ele><time>2026-05-02T16:39:26.377Z</time></trkpt><trkpt lat="32.4515529" lon="-110.7409479"><ele>2109.7999999999997</ele><time>2026-05-02T16:39:27.377Z</time></trkpt><trkpt lat="32.4516216" lon="-110.7410492"><ele>2111.2</ele><time>2026-05-02T16:39:28.376Z</time></trkpt><trkpt lat="32.4516686" lon="-110.7411507"><ele>2112.6</ele><time>2026-05-02T16:39:29.376Z</time></trkpt><trkpt lat="32.4516999" lon="-110.7412519"><ele>2114.0</ele><time>2026-05-02T16:39:30.377Z</time></trkpt><trkpt lat="32.4517141" lon="-110.741355"><ele>2114.5</ele><time>2026-05-02T16:39:31.377Z</time></trkpt><trkpt lat="32.4517178" lon="-110.7414583"><ele>2115.0</ele><time>2026-05-02T16:39:32.376Z</time></trkpt><trkpt lat="32.4517236" lon="-110.7415569"><ele>2115.5</ele><time>2026-05-02T16:39:33.377Z</time></trkpt><trkpt lat="32.4517348" lon="-110.7416498"><ele>2116.0</ele><time>2026-05-02T16:39:34.376Z</time></trkpt><trkpt lat="32.451752" lon="-110.7417422"><ele>2116.5</ele><time>2026-05-02T16:39:35.377Z</time></trkpt><trkpt lat="32.4517827" lon="-110.7418267"><ele>2117.0</ele><time>2026-05-02T16:39:36.377Z</time></trkpt><trkpt lat="32.4518176" lon="-110.7419114"><ele>2117.0</ele><time>2026-05-02T16:39:37.377Z</time></trkpt><trkpt lat="32.4518621" lon="-110.7419854"><ele>2117.0</ele><time>2026-05-02T16:39:38.377Z</time></trkpt><trkpt lat="32.4519078" lon="-110.7420416"><ele>2117.0</ele><time>2026-05-02T16:39:39.377Z</time></trkpt><trkpt lat="32.451989" lon="-110.7420812"><ele>2117.0</ele><time>2026-05-02T16:39:41.376Z</time></trkpt><trkpt lat="32.4520714" lon="-110.7420473"><ele>2117.0</ele><time>2026-05-02T16:39:43.376Z</time></trkpt><trkpt lat="32.4521131" lon="-110.7419466"><ele>2117.0</ele><time>2026-05-02T16:39:45.376Z</time></trkpt><trkpt lat="32.4520815" lon="-110.7418067"><ele>2117.0</ele><time>2026-05-02T16:39:47.376Z</time></trkpt><trkpt lat="32.4520582" lon="-110.7417316"><ele>2117.0</ele><time>2026-05-02T16:39:48.376Z</time></trkpt><trkpt lat="32.4520467" lon="-110.741652"><ele>2117.0</ele><time>2026-05-02T16:39:49.376Z</time></trkpt><trkpt lat="32.4520535" lon="-110.741575"><ele>2117.0</ele><time>2026-05-02T16:39:50.377Z</time></trkpt><trkpt lat="32.4520788" lon="-110.741503"><ele>2117.0</ele><time>2026-05-02T16:39:51.377Z</time></trkpt><trkpt lat="32.4521203" lon="-110.741443"><ele>2117.0</ele><time>2026-05-02T16:39:52.377Z</time></trkpt><trkpt lat="32.4522276" lon="-110.7413818"><ele>2118.0</ele><time>2026-05-02T16:39:54.377Z</time></trkpt><trkpt lat="32.4523393" lon="-110.7413859"><ele>2119.0</ele><time>2026-05-02T16:39:56.376Z</time></trkpt><trkpt lat="32.4524276" lon="-110.7414788"><ele>2120.0</ele><time>2026-05-02T16:39:58.377Z</time></trkpt><trkpt lat="32.4524572" lon="-110.7415508"><ele>2121.0</ele><time>2026-05-02T16:39:59.377Z</time></trkpt><trkpt lat="32.4524836" lon="-110.7416301"><ele>2122.0</ele><time>2026-05-02T16:40:00.376Z</time></trkpt><trkpt lat="32.4525128" lon="-110.7417172"><ele>2123.0</ele><time>2026-05-02T16:40:01.377Z</time></trkpt><trkpt lat="32.4525389" lon="-110.7418043"><ele>2125.6666666666665</ele><time>2026-05-02T16:40:02.376Z</time></trkpt><trkpt lat="32.4525574" lon="-110.7418895"><ele>2128.333333333333</ele><time>2026-05-02T16:40:03.377Z</time></trkpt><trkpt lat="32.4525591" lon="-110.7419878"><ele>2131.0</ele><time>2026-05-02T16:40:04.376Z</time></trkpt><trkpt lat="32.452555" lon="-110.7420908"><ele>2133.6666666666665</ele><time>2026-05-02T16:40:05.377Z</time></trkpt><trkpt lat="32.4525536" lon="-110.7421894"><ele>2136.3333333333335</ele><time>2026-05-02T16:40:06.378Z</time></trkpt><trkpt lat="32.4525449" lon="-110.7422766"><ele>2139.0</ele><time>2026-05-02T16:40:07.378Z</time></trkpt><trkpt lat="32.4525046" lon="-110.7423594"><ele>2139.0</ele><time>2026-05-02T16:40:08.377Z</time></trkpt><trkpt lat="32.4524452" lon="-110.7424321"><ele>2139.0</ele><time>2026-05-02T16:40:09.377Z</time></trkpt><trkpt lat="32.4523732" lon="-110.7425014"><ele>2139.0</ele><time>2026-05-02T16:40:10.377Z</time></trkpt><trkpt lat="32.4522911" lon="-110.742576"><ele>2139.0</ele><time>2026-05-02T16:40:11.377Z</time></trkpt><trkpt lat="32.4522168" lon="-110.7426363"><ele>2139.0</ele><time>2026-05-02T16:40:12.376Z</time></trkpt><trkpt lat="32.4521508" lon="-110.7426946"><ele>2139.4</ele><time>2026-05-02T16:40:13.376Z</time></trkpt><trkpt lat="32.4520997" lon="-110.7427554"><ele>2139.8</ele><time>2026-05-02T16:40:14.377Z</time></trkpt><trkpt lat="32.4520651" lon="-110.7428185"><ele>2140.2</ele><time>2026-05-02T16:40:15.377Z</time></trkpt><trkpt lat="32.4520199" lon="-110.7429497"><ele>2140.6</ele><time>2026-05-02T16:40:17.377Z</time></trkpt><trkpt lat="32.4520064" lon="-110.7430817"><ele>2141.0</ele><time>2026-05-02T16:40:19.376Z</time></trkpt><trkpt lat="32.452013" lon="-110.7432105"><ele>2141.0</ele><time>2026-05-02T16:40:21.376Z</time></trkpt><trkpt lat="32.4520554" lon="-110.7433525"><ele>2141.0</ele><time>2026-05-02T16:40:23.376Z</time></trkpt><trkpt lat="32.4520838" lon="-110.7434813"><ele>2141.0</ele><time>2026-05-02T16:40:25.378Z</time></trkpt><trkpt lat="32.4520245" lon="-110.7435809"><ele>2141.0</ele><time>2026-05-02T16:40:27.377Z</time></trkpt><trkpt lat="32.4519681" lon="-110.7436165"><ele>2141.0</ele><time>2026-05-02T16:40:28.377Z</time></trkpt><trkpt lat="32.4518931" lon="-110.7436386"><ele>2143.333333333333</ele><time>2026-05-02T16:40:29.378Z</time></trkpt><trkpt lat="32.4518136" lon="-110.74367"><ele>2145.6666666666665</ele><time>2026-05-02T16:40:30.378Z</time></trkpt><trkpt lat="32.4517393" lon="-110.7437023"><ele>2148.0</ele><time>2026-05-02T16:40:31.378Z</time></trkpt><trkpt lat="32.4516497" lon="-110.743773"><ele>2150.3333333333335</ele><time>2026-05-02T16:40:33.378Z</time></trkpt><trkpt lat="32.451591" lon="-110.7438562"><ele>2152.666666666667</ele><time>2026-05-02T16:40:35.377Z</time></trkpt><trkpt lat="32.4516053" lon="-110.7439513"><ele>2155.0</ele><time>2026-05-02T16:40:37.378Z</time></trkpt><trkpt lat="32.4516772" lon="-110.7439923"><ele>2155.0</ele><time>2026-05-02T16:40:39.378Z</time></trkpt><trkpt lat="32.4517709" lon="-110.7439769"><ele>2155.0</ele><time>2026-05-02T16:40:41.377Z</time></trkpt><trkpt lat="32.4518344" lon="-110.7439147"><ele>2155.0</ele><time>2026-05-02T16:40:43.377Z</time></trkpt><trkpt lat="32.4518867" lon="-110.7438597"><ele>2155.0</ele><time>2026-05-02T16:40:44.377Z</time></trkpt><trkpt lat="32.4519319" lon="-110.7438067"><ele>2155.0</ele><time>2026-05-02T16:40:45.377Z</time></trkpt><trkpt lat="32.4519879" lon="-110.7437538"><ele>2155.0</ele><time>2026-05-02T16:40:46.377Z</time></trkpt><trkpt lat="32.4520556" lon="-110.743709"><ele>2154.4</ele><time>2026-05-02T16:40:47.377Z</time></trkpt><trkpt lat="32.4521298" lon="-110.743676"><ele>2153.8</ele><time>2026-05-02T16:40:48.378Z</time></trkpt><trkpt lat="32.452203" lon="-110.7436461"><ele>2153.2</ele><time>2026-05-02T16:40:49.377Z</time></trkpt><trkpt lat="32.4522698" lon="-110.743621"><ele>2152.6</ele><time>2026-05-02T16:40:50.378Z</time></trkpt><trkpt lat="32.4523644" lon="-110.7435399"><ele>2152.0</ele><time>2026-05-02T16:40:52.378Z</time></trkpt><trkpt lat="32.4524096" lon="-110.7434017"><ele>2152.0</ele><time>2026-05-02T16:40:54.377Z</time></trkpt><trkpt lat="32.4524257" lon="-110.7433273"><ele>2152.0</ele><time>2026-05-02T16:40:55.377Z</time></trkpt><trkpt lat="32.4524987" lon="-110.7432374"><ele>2152.0</ele><time>2026-05-02T16:40:57.377Z</time></trkpt><trkpt lat="32.4526087" lon="-110.7432341"><ele>2152.0</ele><time>2026-05-02T16:40:59.377Z</time></trkpt><trkpt lat="32.4527029" lon="-110.7433096"><ele>2152.0</ele><time>2026-05-02T16:41:01.377Z</time></trkpt><trkpt lat="32.4527296" lon="-110.7434179"><ele>2152.0</ele><time>2026-05-02T16:41:03.377Z</time></trkpt><trkpt lat="32.4526582" lon="-110.7435324"><ele>2152.0</ele><time>2026-05-02T16:41:05.378Z</time></trkpt><trkpt lat="32.452602" lon="-110.7435932"><ele>2152.0</ele><time>2026-05-02T16:41:06.378Z</time></trkpt><trkpt lat="32.4525347" lon="-110.7436504"><ele>2152.0</ele><time>2026-05-02T16:41:07.377Z</time></trkpt><trkpt lat="32.4524631" lon="-110.7437043"><ele>2152.0</ele><time>2026-05-02T16:41:08.378Z</time></trkpt><trkpt lat="32.4523974" lon="-110.7437716"><ele>2152.5</ele><time>2026-05-02T16:41:09.378Z</time></trkpt><trkpt lat="32.452334" lon="-110.7438427"><ele>2153.0</ele><time>2026-05-02T16:41:10.378Z</time></trkpt><trkpt lat="32.4522701" lon="-110.7439168"><ele>2153.5</ele><time>2026-05-02T16:41:11.378Z</time></trkpt><trkpt lat="32.4522127" lon="-110.7439881"><ele>2154.0</ele><time>2026-05-02T16:41:12.378Z</time></trkpt><trkpt lat="32.4521557" lon="-110.7440706"><ele>2154.5</ele><time>2026-05-02T16:41:13.377Z</time></trkpt><trkpt lat="32.4521092" lon="-110.7441584"><ele>2155.0</ele><time>2026-05-02T16:41:14.377Z</time></trkpt><trkpt lat="32.4520684" lon="-110.7442432"><ele>2155.0</ele><time>2026-05-02T16:41:15.377Z</time></trkpt><trkpt lat="32.4520279" lon="-110.7443259"><ele>2155.0</ele><time>2026-05-02T16:41:16.377Z</time></trkpt><trkpt lat="32.4519855" lon="-110.7444052"><ele>2155.0</ele><time>2026-05-02T16:41:17.378Z</time></trkpt><trkpt lat="32.4519418" lon="-110.7444741"><ele>2155.0</ele><time>2026-05-02T16:41:18.377Z</time></trkpt><trkpt lat="32.4519036" lon="-110.7445405"><ele>2155.0</ele><time>2026-05-02T16:41:19.377Z</time></trkpt><trkpt lat="32.4518728" lon="-110.7446058"><ele>2155.0</ele><time>2026-05-02T16:41:20.377Z</time></trkpt><trkpt lat="32.4518445" lon="-110.7447448"><ele>2157.5714285714284</ele><time>2026-05-02T16:41:22.378Z</time></trkpt><trkpt lat="32.4518416" lon="-110.7448275"><ele>2160.142857142857</ele><time>2026-05-02T16:41:23.377Z</time></trkpt><trkpt lat="32.4518358" lon="-110.7449073"><ele>2162.714285714286</ele><time>2026-05-02T16:41:24.378Z</time></trkpt><trkpt lat="32.4518235" lon="-110.7449816"><ele>2165.285714285714</ele><time>2026-05-02T16:41:25.378Z</time></trkpt><trkpt lat="32.451801" lon="-110.7450605"><ele>2167.857142857143</ele><time>2026-05-02T16:41:26.377Z</time></trkpt><trkpt lat="32.4517753" lon="-110.7451399"><ele>2170.4285714285716</ele><time>2026-05-02T16:41:27.378Z</time></trkpt><trkpt lat="32.4517492" lon="-110.7452133"><ele>2173.0</ele><time>2026-05-02T16:41:28.378Z</time></trkpt><trkpt lat="32.4517225" lon="-110.7452813"><ele>2175.4285714285716</ele><time>2026-05-02T16:41:29.377Z</time></trkpt><trkpt lat="32.4516932" lon="-110.7453494"><ele>2177.857142857143</ele><time>2026-05-02T16:41:30.378Z</time></trkpt><trkpt lat="32.4516614" lon="-110.7454404"><ele>2180.285714285714</ele><time>2026-05-02T16:41:32.378Z</time></trkpt><trkpt lat="32.451683" lon="-110.7455298"><ele>2182.714285714286</ele><time>2026-05-02T16:41:35.379Z</time></trkpt><trkpt lat="32.4516745" lon="-110.7456047"><ele>2185.142857142857</ele><time>2026-05-02T16:43:09.533Z</time></trkpt><trkpt lat="32.4517332" lon="-110.745661"><ele>2187.5714285714284</ele><time>2026-05-02T16:43:11.469Z</time></trkpt><trkpt lat="32.45175" lon="-110.7457566"><ele>2190.0</ele><time>2026-05-02T16:43:12.379Z</time></trkpt><trkpt lat="32.4517519" lon="-110.7458466"><ele>2190.0</ele><time>2026-05-02T16:43:13.378Z</time></trkpt><trkpt lat="32.4516998" lon="-110.7459551"><ele>2190.0</ele><time>2026-05-02T16:43:15.378Z</time></trkpt><trkpt lat="32.4516687" lon="-110.7460431"><ele>2190.0</ele><time>2026-05-02T16:43:17.379Z</time></trkpt><trkpt lat="32.4516672" lon="-110.7461181"><ele>2190.0</ele><time>2026-05-02T16:43:19.379Z</time></trkpt><trkpt lat="32.4516892" lon="-110.7461923"><ele>2190.0</ele><time>2026-05-02T16:43:22.378Z</time></trkpt><trkpt lat="32.4516605" lon="-110.7462647"><ele>2190.0</ele><time>2026-05-02T16:46:31.38Z</time></trkpt><trkpt lat="32.4515943" lon="-110.7463321"><ele>2193.1666666666665</ele><time>2026-05-02T16:46:34.38Z</time></trkpt><trkpt lat="32.4514976" lon="-110.7463602"><ele>2196.3333333333335</ele><time>2026-05-02T16:46:36.381Z</time></trkpt><trkpt lat="32.4514265" lon="-110.746355"><ele>2199.5</ele><time>2026-05-02T16:46:37.382Z</time></trkpt><trkpt lat="32.4513578" lon="-110.7463461"><ele>2202.666666666667</ele><time>2026-05-02T16:46:38.38Z</time></trkpt><trkpt lat="32.4512792" lon="-110.7463445"><ele>2205.8333333333335</ele><time>2026-05-02T16:46:39.38Z</time></trkpt><trkpt lat="32.4512007" lon="-110.7463444"><ele>2209.0</ele><time>2026-05-02T16:46:40.38Z</time></trkpt><trkpt lat="32.4511102" lon="-110.7463483"><ele>2209.4</ele><time>2026-05-02T16:46:41.381Z</time></trkpt><trkpt lat="32.4510233" lon="-110.7463571"><ele>2209.8</ele><time>2026-05-02T16:46:42.381Z</time></trkpt><trkpt lat="32.4509371" lon="-110.7463624"><ele>2210.2</ele><time>2026-05-02T16:46:43.38Z</time></trkpt><trkpt lat="32.4508556" lon="-110.7463665"><ele>2210.6</ele><time>2026-05-02T16:46:44.382Z</time></trkpt><trkpt lat="32.450778" lon="-110.7463631"><ele>2211.0</ele><time>2026-05-02T16:46:45.381Z</time></trkpt><trkpt lat="32.4506554" lon="-110.7463465"><ele>2211.0</ele><time>2026-05-02T16:46:47.381Z</time></trkpt><trkpt lat="32.450546" lon="-110.7463432"><ele>2211.0</ele><time>2026-05-02T16:46:49.381Z</time></trkpt><trkpt lat="32.4504339" lon="-110.7464038"><ele>2211.0</ele><time>2026-05-02T16:46:51.381Z</time></trkpt><trkpt lat="32.4503715" lon="-110.7464539"><ele>2211.0</ele><time>2026-05-02T16:46:52.382Z</time></trkpt><trkpt lat="32.4503044" lon="-110.746522"><ele>2211.0</ele><time>2026-05-02T16:46:53.381Z</time></trkpt><trkpt lat="32.4502439" lon="-110.7465788"><ele>2210.8</ele><time>2026-05-02T16:46:54.381Z</time></trkpt><trkpt lat="32.4501852" lon="-110.7466254"><ele>2210.6</ele><time>2026-05-02T16:46:55.381Z</time></trkpt><trkpt lat="32.4501308" lon="-110.7466757"><ele>2210.4</ele><time>2026-05-02T16:46:56.382Z</time></trkpt><trkpt lat="32.4500617" lon="-110.7467901"><ele>2210.2</ele><time>2026-05-02T16:46:58.382Z</time></trkpt><trkpt lat="32.4500639" lon="-110.7469234"><ele>2210.0</ele><time>2026-05-02T16:47:00.382Z</time></trkpt><trkpt lat="32.4501097" lon="-110.7470147"><ele>2210.0</ele><time>2026-05-02T16:47:02.381Z</time></trkpt><trkpt lat="32.4501923" lon="-110.7470412"><ele>2210.0</ele><time>2026-05-02T16:47:04.381Z</time></trkpt><trkpt lat="32.450282" lon="-110.7469766"><ele>2210.0</ele><time>2026-05-02T16:47:06.382Z</time></trkpt><trkpt lat="32.450343" lon="-110.7468866"><ele>2210.0</ele><time>2026-05-02T16:47:08.382Z</time></trkpt><trkpt lat="32.4504509" lon="-110.7468044"><ele>2210.0</ele><time>2026-05-02T16:47:10.381Z</time></trkpt><trkpt lat="32.4505188" lon="-110.7467838"><ele>2210.142857142857</ele><time>2026-05-02T16:47:11.382Z</time></trkpt><trkpt lat="32.450596" lon="-110.7467638"><ele>2210.285714285714</ele><time>2026-05-02T16:47:12.381Z</time></trkpt><trkpt lat="32.4506682" lon="-110.7467461"><ele>2210.4285714285716</ele><time>2026-05-02T16:47:13.381Z</time></trkpt><trkpt lat="32.4507435" lon="-110.7467263"><ele>2210.5714285714284</ele><time>2026-05-02T16:47:14.381Z</time></trkpt><trkpt lat="32.4508126" lon="-110.7467039"><ele>2210.714285714286</ele><time>2026-05-02T16:47:15.381Z</time></trkpt><trkpt lat="32.4508802" lon="-110.746682"><ele>2210.8571428571427</ele><time>2026-05-02T16:47:16.381Z</time></trkpt><trkpt lat="32.4509511" lon="-110.7466674"><ele>2211.0</ele><time>2026-05-02T16:47:17.381Z</time></trkpt><trkpt lat="32.4510265" lon="-110.7466543"><ele>2211.0</ele><time>2026-05-02T16:47:18.382Z</time></trkpt><trkpt lat="32.4511003" lon="-110.7466659"><ele>2211.0</ele><time>2026-05-02T16:47:19.382Z</time></trkpt><trkpt lat="32.4511772" lon="-110.7466967"><ele>2211.0</ele><time>2026-05-02T16:47:20.381Z</time></trkpt><trkpt lat="32.4512578" lon="-110.7467384"><ele>2211.0</ele><time>2026-05-02T16:47:21.381Z</time></trkpt><trkpt lat="32.4513345" lon="-110.7468075"><ele>2211.0</ele><time>2026-05-02T16:47:22.382Z</time></trkpt><trkpt lat="32.4514084" lon="-110.7468824"><ele>2211.0</ele><time>2026-05-02T16:47:23.382Z</time></trkpt><trkpt lat="32.4514792" lon="-110.746957"><ele>2215.0</ele><time>2026-05-02T16:47:24.381Z</time></trkpt><trkpt lat="32.4515495" lon="-110.7470335"><ele>2219.0</ele><time>2026-05-02T16:47:25.381Z</time></trkpt><trkpt lat="32.4516111" lon="-110.7471155"><ele>2223.0</ele><time>2026-05-02T16:47:26.381Z</time></trkpt><trkpt lat="32.4516725" lon="-110.747196"><ele>2227.0</ele><time>2026-05-02T16:47:27.382Z</time></trkpt><trkpt lat="32.4517322" lon="-110.7472737"><ele>2231.0</ele><time>2026-05-02T16:47:28.382Z</time></trkpt><trkpt lat="32.4517925" lon="-110.7473442"><ele>2231.0</ele><time>2026-05-02T16:47:29.382Z</time></trkpt><trkpt lat="32.4518563" lon="-110.7473953"><ele>2231.0</ele><time>2026-05-02T16:47:30.381Z</time></trkpt><trkpt lat="32.4519233" lon="-110.7474349"><ele>2231.0</ele><time>2026-05-02T16:47:31.381Z</time></trkpt><trkpt lat="32.4519922" lon="-110.7474616"><ele>2231.0</ele><time>2026-05-02T16:47:32.382Z</time></trkpt><trkpt lat="32.452061" lon="-110.7474768"><ele>2231.0</ele><time>2026-05-02T16:47:33.381Z</time></trkpt><trkpt lat="32.4521338" lon="-110.7474838"><ele>2231.0</ele><time>2026-05-02T16:47:34.381Z</time></trkpt><trkpt lat="32.4522089" lon="-110.7474741"><ele>2231.0</ele><time>2026-05-02T16:47:35.382Z</time></trkpt><trkpt lat="32.4522804" lon="-110.7474528"><ele>2231.1666666666665</ele><time>2026-05-02T16:47:36.382Z</time></trkpt><trkpt lat="32.4523394" lon="-110.7474198"><ele>2231.333333333333</ele><time>2026-05-02T16:47:37.382Z</time></trkpt><trkpt lat="32.4523957" lon="-110.7473831"><ele>2231.5</ele><time>2026-05-02T16:47:38.381Z</time></trkpt><trkpt lat="32.4524519" lon="-110.7473486"><ele>2231.6666666666665</ele><time>2026-05-02T16:47:39.381Z</time></trkpt><trkpt lat="32.45257" lon="-110.7473258"><ele>2231.8333333333335</ele><time>2026-05-02T16:47:41.381Z</time></trkpt><trkpt lat="32.4526812" lon="-110.7473862"><ele>2232.0</ele><time>2026-05-02T16:47:43.381Z</time></trkpt><trkpt lat="32.4527339" lon="-110.7474468"><ele>2232.0</ele><time>2026-05-02T16:47:44.381Z</time></trkpt><trkpt lat="32.4527781" lon="-110.7475147"><ele>2232.0</ele><time>2026-05-02T16:47:45.381Z</time></trkpt><trkpt lat="32.4528109" lon="-110.7475898"><ele>2232.0</ele><time>2026-05-02T16:47:46.381Z</time></trkpt><trkpt lat="32.4528452" lon="-110.7476533"><ele>2232.0</ele><time>2026-05-02T16:47:47.382Z</time></trkpt><trkpt lat="32.4529515" lon="-110.7476745"><ele>2232.0</ele><time>2026-05-02T16:47:49.381Z</time></trkpt><trkpt lat="32.4530138" lon="-110.7476379"><ele>2232.0</ele><time>2026-05-02T16:47:50.381Z</time></trkpt><trkpt lat="32.453085" lon="-110.7475842"><ele>2234.1666666666665</ele><time>2026-05-02T16:47:51.381Z</time></trkpt><trkpt lat="32.4531571" lon="-110.7475246"><ele>2236.3333333333335</ele><time>2026-05-02T16:47:52.382Z</time></trkpt><trkpt lat="32.4532235" lon="-110.7474587"><ele>2238.5</ele><time>2026-05-02T16:47:53.382Z</time></trkpt><trkpt lat="32.4532808" lon="-110.7473835"><ele>2240.666666666667</ele><time>2026-05-02T16:47:54.381Z</time></trkpt><trkpt lat="32.4533171" lon="-110.747301"><ele>2242.8333333333335</ele><time>2026-05-02T16:47:55.382Z</time></trkpt><trkpt lat="32.4533284" lon="-110.7471981"><ele>2245.0</ele><time>2026-05-02T16:47:56.381Z</time></trkpt><trkpt lat="32.45333" lon="-110.7471004"><ele>2245.0</ele><time>2026-05-02T16:47:57.381Z</time></trkpt><trkpt lat="32.4533204" lon="-110.7469991"><ele>2245.0</ele><time>2026-05-02T16:47:58.382Z</time></trkpt><trkpt lat="32.4533152" lon="-110.7468874"><ele>2245.0</ele><time>2026-05-02T16:47:59.381Z</time></trkpt><trkpt lat="32.453318" lon="-110.7467624"><ele>2245.0</ele><time>2026-05-02T16:48:00.382Z</time></trkpt><trkpt lat="32.4533299" lon="-110.7466524"><ele>2245.0</ele><time>2026-05-02T16:48:01.382Z</time></trkpt><trkpt lat="32.4533218" lon="-110.7465449"><ele>2244.0</ele><time>2026-05-02T16:48:02.382Z</time></trkpt><trkpt lat="32.4533089" lon="-110.7464383"><ele>2243.0</ele><time>2026-05-02T16:48:03.381Z</time></trkpt><trkpt lat="32.4532915" lon="-110.7463456"><ele>2242.0</ele><time>2026-05-02T16:48:04.382Z</time></trkpt><trkpt lat="32.4532746" lon="-110.7462635"><ele>2241.0</ele><time>2026-05-02T16:48:05.382Z</time></trkpt><trkpt lat="32.4532774" lon="-110.7461269"><ele>2240.0</ele><time>2026-05-02T16:48:07.381Z</time></trkpt><trkpt lat="32.4533568" lon="-110.7460163"><ele>2240.0</ele><time>2026-05-02T16:48:09.381Z</time></trkpt><trkpt lat="32.4534181" lon="-110.7459741"><ele>2240.0</ele><time>2026-05-02T16:48:10.382Z</time></trkpt><trkpt lat="32.4534841" lon="-110.7459488"><ele>2240.0</ele><time>2026-05-02T16:48:11.382Z</time></trkpt><trkpt lat="32.4535482" lon="-110.7459468"><ele>2240.0</ele><time>2026-05-02T16:48:12.382Z</time></trkpt><trkpt lat="32.4536571" lon="-110.7459891"><ele>2240.0</ele><time>2026-05-02T16:48:14.381Z</time></trkpt><trkpt lat="32.4536939" lon="-110.7460946"><ele>2240.0</ele><time>2026-05-02T16:48:16.382Z</time></trkpt><trkpt lat="32.4536634" lon="-110.7462296"><ele>2240.0</ele><time>2026-05-02T16:48:18.382Z</time></trkpt><trkpt lat="32.453603" lon="-110.7462963"><ele>2240.0</ele><time>2026-05-02T16:48:19.381Z</time></trkpt><trkpt lat="32.4535533" lon="-110.746368"><ele>2240.0</ele><time>2026-05-02T16:48:20.382Z</time></trkpt><trkpt lat="32.4535296" lon="-110.7464636"><ele>2240.0</ele><time>2026-05-02T16:48:21.382Z</time></trkpt><trkpt lat="32.4535157" lon="-110.7465657"><ele>2240.0</ele><time>2026-05-02T16:48:22.382Z</time></trkpt><trkpt lat="32.4535089" lon="-110.7466681"><ele>2240.0</ele><time>2026-05-02T16:48:23.381Z</time></trkpt><trkpt lat="32.4535071" lon="-110.7467636"><ele>2240.0</ele><time>2026-05-02T16:48:24.382Z</time></trkpt><trkpt lat="32.4535081" lon="-110.7468593"><ele>2240.0</ele><time>2026-05-02T16:48:25.381Z</time></trkpt><trkpt lat="32.453523" lon="-110.7469516"><ele>2240.0</ele><time>2026-05-02T16:48:26.383Z</time></trkpt><trkpt lat="32.4535604" lon="-110.7470294"><ele>2240.0</ele><time>2026-05-02T16:48:27.382Z</time></trkpt><trkpt lat="32.4535992" lon="-110.7471023"><ele>2240.0</ele><time>2026-05-02T16:48:28.383Z</time></trkpt><trkpt lat="32.4536309" lon="-110.7471756"><ele>2240.0</ele><time>2026-05-02T16:48:29.381Z</time></trkpt><trkpt lat="32.4536458" lon="-110.7472487"><ele>2240.0</ele><time>2026-05-02T16:48:30.381Z</time></trkpt><trkpt lat="32.4536428" lon="-110.7473401"><ele>2240.714285714286</ele><time>2026-05-02T16:48:31.381Z</time></trkpt><trkpt lat="32.4536436" lon="-110.7474309"><ele>2241.4285714285716</ele><time>2026-05-02T16:48:32.381Z</time></trkpt><trkpt lat="32.4536428" lon="-110.7475236"><ele>2242.142857142857</ele><time>2026-05-02T16:48:33.381Z</time></trkpt><trkpt lat="32.4536456" lon="-110.7476213"><ele>2242.857142857143</ele><time>2026-05-02T16:48:34.382Z</time></trkpt><trkpt lat="32.4536536" lon="-110.7477069"><ele>2243.5714285714284</ele><time>2026-05-02T16:48:35.381Z</time></trkpt><trkpt lat="32.4536521" lon="-110.7477926"><ele>2244.285714285714</ele><time>2026-05-02T16:48:36.381Z</time></trkpt><trkpt lat="32.4536238" lon="-110.7478604"><ele>2245.0</ele><time>2026-05-02T16:48:37.381Z</time></trkpt><trkpt lat="32.4535838" lon="-110.7479264"><ele>2247.4</ele><time>2026-05-02T16:48:38.382Z</time></trkpt><trkpt lat="32.4535209" lon="-110.7479697"><ele>2249.8</ele><time>2026-05-02T16:48:39.383Z</time></trkpt><trkpt lat="32.4534509" lon="-110.7480176"><ele>2252.2</ele><time>2026-05-02T16:48:40.381Z</time></trkpt><trkpt lat="32.4533813" lon="-110.7480566"><ele>2254.6</ele><time>2026-05-02T16:48:41.382Z</time></trkpt><trkpt lat="32.4533122" lon="-110.7481764"><ele>2257.0</ele><time>2026-05-02T16:48:43.383Z</time></trkpt><trkpt lat="32.4533041" lon="-110.7483202"><ele>2257.0</ele><time>2026-05-02T16:48:45.382Z</time></trkpt><trkpt lat="32.4533367" lon="-110.7484508"><ele>2257.0</ele><time>2026-05-02T16:48:47.383Z</time></trkpt><trkpt lat="32.4532937" lon="-110.7485602"><ele>2257.0</ele><time>2026-05-02T16:48:49.382Z</time></trkpt><trkpt lat="32.4531733" lon="-110.7486156"><ele>2257.0</ele><time>2026-05-02T16:48:51.382Z</time></trkpt><trkpt lat="32.4530988" lon="-110.748636"><ele>2257.0</ele><time>2026-05-02T16:48:52.383Z</time></trkpt><trkpt lat="32.4530108" lon="-110.7486508"><ele>2259.166666666667</ele><time>2026-05-02T16:48:53.383Z</time></trkpt><trkpt lat="32.452929" lon="-110.7486727"><ele>2261.3333333333335</ele><time>2026-05-02T16:48:54.382Z</time></trkpt><trkpt lat="32.4528505" lon="-110.7486957"><ele>2263.5</ele><time>2026-05-02T16:48:55.382Z</time></trkpt><trkpt lat="32.4527877" lon="-110.7487328"><ele>2265.6666666666665</ele><time>2026-05-02T16:48:56.382Z</time></trkpt><trkpt lat="32.4526927" lon="-110.7488242"><ele>2267.833333333333</ele><time>2026-05-02T16:48:58.383Z</time></trkpt><trkpt lat="32.452645" lon="-110.7489125"><ele>2270.0</ele><time>2026-05-02T16:49:00.382Z</time></trkpt><trkpt lat="32.4526583" lon="-110.7490545"><ele>2270.0</ele><time>2026-05-02T16:49:02.383Z</time></trkpt><trkpt lat="32.452665" lon="-110.7491831"><ele>2270.0</ele><time>2026-05-02T16:49:04.383Z</time></trkpt><trkpt lat="32.4525859" lon="-110.749252"><ele>2270.0</ele><time>2026-05-02T16:49:06.382Z</time></trkpt><trkpt lat="32.452517" lon="-110.7492702"><ele>2270.0</ele><time>2026-05-02T16:49:07.383Z</time></trkpt><trkpt lat="32.4524237" lon="-110.7492788"><ele>2270.0</ele><time>2026-05-02T16:49:08.382Z</time></trkpt><trkpt lat="32.45231" lon="-110.7492753"><ele>2270.0</ele><time>2026-05-02T16:49:09.382Z</time></trkpt><trkpt lat="32.4522042" lon="-110.7492557"><ele>2270.0</ele><time>2026-05-02T16:49:10.383Z</time></trkpt><trkpt lat="32.4521029" lon="-110.7492322"><ele>2270.0</ele><time>2026-05-02T16:49:11.382Z</time></trkpt><trkpt lat="32.4520085" lon="-110.7491983"><ele>2270.0</ele><time>2026-05-02T16:49:12.382Z</time></trkpt><trkpt lat="32.4519118" lon="-110.7491586"><ele>2270.0</ele><time>2026-05-02T16:49:13.383Z</time></trkpt><trkpt lat="32.4518183" lon="-110.7491364"><ele>2270.0</ele><time>2026-05-02T16:49:14.383Z</time></trkpt><trkpt lat="32.4517355" lon="-110.7491236"><ele>2270.0</ele><time>2026-05-02T16:49:15.383Z</time></trkpt><trkpt lat="32.4516686" lon="-110.7491203"><ele>2270.0</ele><time>2026-05-02T16:49:16.383Z</time></trkpt><trkpt lat="32.451556" lon="-110.7491555"><ele>2270.0</ele><time>2026-05-02T16:49:18.383Z</time></trkpt><trkpt lat="32.4514918" lon="-110.7492361"><ele>2270.0</ele><time>2026-05-02T16:49:20.383Z</time></trkpt><trkpt lat="32.4514655" lon="-110.7493454"><ele>2274.0</ele><time>2026-05-02T16:49:22.382Z</time></trkpt><trkpt lat="32.4514894" lon="-110.7494844"><ele>2278.0</ele><time>2026-05-02T16:49:24.383Z</time></trkpt><trkpt lat="32.4515157" lon="-110.7496142"><ele>2282.0</ele><time>2026-05-02T16:49:26.383Z</time></trkpt><trkpt lat="32.4514971" lon="-110.7496878"><ele>2286.0</ele><time>2026-05-02T16:49:27.382Z</time></trkpt><trkpt lat="32.4514165" lon="-110.7498081"><ele>2290.0</ele><time>2026-05-02T16:49:29.382Z</time></trkpt><trkpt lat="32.4513619" lon="-110.7498651"><ele>2290.0</ele><time>2026-05-02T16:49:30.382Z</time></trkpt><trkpt lat="32.451306" lon="-110.7499219"><ele>2290.0</ele><time>2026-05-02T16:49:31.382Z</time></trkpt><trkpt lat="32.4512488" lon="-110.7499853"><ele>2290.0</ele><time>2026-05-02T16:49:32.382Z</time></trkpt><trkpt lat="32.4511941" lon="-110.7500525"><ele>2290.0</ele><time>2026-05-02T16:49:33.383Z</time></trkpt><trkpt lat="32.4511314" lon="-110.7501235"><ele>2290.0</ele><time>2026-05-02T16:49:34.382Z</time></trkpt><trkpt lat="32.4510754" lon="-110.7501903"><ele>2290.0</ele><time>2026-05-02T16:49:35.382Z</time></trkpt><trkpt lat="32.4510249" lon="-110.7502536"><ele>2290.0</ele><time>2026-05-02T16:49:36.382Z</time></trkpt><trkpt lat="32.4509847" lon="-110.7503159"><ele>2290.0</ele><time>2026-05-02T16:49:37.383Z</time></trkpt><trkpt lat="32.4509326" lon="-110.7504241"><ele>2290.0</ele><time>2026-05-02T16:49:39.383Z</time></trkpt><trkpt lat="32.4509366" lon="-110.7505341"><ele>2290.0</ele><time>2026-05-02T16:49:41.383Z</time></trkpt><trkpt lat="32.4510119" lon="-110.7506349"><ele>2290.0</ele><time>2026-05-02T16:49:43.383Z</time></trkpt><trkpt lat="32.4510705" lon="-110.7506804"><ele>2290.0</ele><time>2026-05-02T16:49:44.383Z</time></trkpt><trkpt lat="32.4511302" lon="-110.7507117"><ele>2290.0</ele><time>2026-05-02T16:49:45.382Z</time></trkpt><trkpt lat="32.4512239" lon="-110.7507826"><ele>2290.0</ele><time>2026-05-02T16:49:47.382Z</time></trkpt><trkpt lat="32.4512758" lon="-110.7508925"><ele>2290.0</ele><time>2026-05-02T16:49:49.382Z</time></trkpt><trkpt lat="32.4513012" lon="-110.7510409"><ele>2290.0</ele><time>2026-05-02T16:49:51.382Z</time></trkpt><trkpt lat="32.4513182" lon="-110.7511218"><ele>2290.0</ele><time>2026-05-02T16:49:52.382Z</time></trkpt><trkpt lat="32.4513364" lon="-110.7512054"><ele>2294.8333333333335</ele><time>2026-05-02T16:49:53.383Z</time></trkpt><trkpt lat="32.4513568" lon="-110.7512942"><ele>2299.666666666667</ele><time>2026-05-02T16:49:54.382Z</time></trkpt><trkpt lat="32.4513758" lon="-110.7513885"><ele>2304.5</ele><time>2026-05-02T16:49:55.382Z</time></trkpt><trkpt lat="32.4513939" lon="-110.7514824"><ele>2309.3333333333335</ele><time>2026-05-02T16:49:56.382Z</time></trkpt><trkpt lat="32.4514197" lon="-110.7515644"><ele>2314.1666666666665</ele><time>2026-05-02T16:49:57.382Z</time></trkpt><trkpt lat="32.4514377" lon="-110.7516407"><ele>2319.0</ele><time>2026-05-02T16:49:58.383Z</time></trkpt><trkpt lat="32.4514513" lon="-110.7518046"><ele>2322.0</ele><time>2026-05-02T16:50:00.384Z</time></trkpt><trkpt lat="32.4514442" lon="-110.7519006"><ele>2325.0</ele><time>2026-05-02T16:50:01.382Z</time></trkpt><trkpt lat="32.451426" lon="-110.7519993"><ele>2328.0</ele><time>2026-05-02T16:50:02.383Z</time></trkpt><trkpt lat="32.4513947" lon="-110.7520896"><ele>2331.0</ele><time>2026-05-02T16:50:03.383Z</time></trkpt><trkpt lat="32.4513619" lon="-110.7521728"><ele>2334.0</ele><time>2026-05-02T16:50:04.383Z</time></trkpt><trkpt lat="32.4513298" lon="-110.7522482"><ele>2337.0</ele><time>2026-05-02T16:50:05.382Z</time></trkpt><trkpt lat="32.4512438" lon="-110.752323"><ele>2337.0</ele><time>2026-05-02T16:50:07.382Z</time></trkpt><trkpt lat="32.4511343" lon="-110.7523145"><ele>2337.0</ele><time>2026-05-02T16:50:09.383Z</time></trkpt><trkpt lat="32.4510799" lon="-110.7522672"><ele>2337.0</ele><time>2026-05-02T16:50:10.383Z</time></trkpt><trkpt lat="32.451028" lon="-110.7522146"><ele>2337.0</ele><time>2026-05-02T16:50:11.383Z</time></trkpt><trkpt lat="32.4509833" lon="-110.7521414"><ele>2337.0</ele><time>2026-05-02T16:50:12.383Z</time></trkpt><trkpt lat="32.4509337" lon="-110.7520572"><ele>2337.0</ele><time>2026-05-02T16:50:13.383Z</time></trkpt><trkpt lat="32.4508682" lon="-110.7519787"><ele>2337.0</ele><time>2026-05-02T16:50:14.383Z</time></trkpt><trkpt lat="32.4507938" lon="-110.751906"><ele>2337.0</ele><time>2026-05-02T16:50:15.384Z</time></trkpt><trkpt lat="32.4507137" lon="-110.7518424"><ele>2337.0</ele><time>2026-05-02T16:50:16.383Z</time></trkpt><trkpt lat="32.4506253" lon="-110.7517882"><ele>2337.0</ele><time>2026-05-02T16:50:17.382Z</time></trkpt><trkpt lat="32.4505241" lon="-110.751739"><ele>2337.0</ele><time>2026-05-02T16:50:18.382Z</time></trkpt><trkpt lat="32.4504221" lon="-110.751704"><ele>2334.7999999999997</ele><time>2026-05-02T16:50:19.384Z</time></trkpt><trkpt lat="32.4503245" lon="-110.7516623"><ele>2332.6</ele><time>2026-05-02T16:50:20.383Z</time></trkpt><trkpt lat="32.4502315" lon="-110.7516204"><ele>2330.3999999999996</ele><time>2026-05-02T16:50:21.383Z</time></trkpt><trkpt lat="32.450141" lon="-110.7515617"><ele>2328.2</ele><time>2026-05-02T16:50:22.383Z</time></trkpt><trkpt lat="32.4500533" lon="-110.7514946"><ele>2326.0</ele><time>2026-05-02T16:50:23.382Z</time></trkpt><trkpt lat="32.4499626" lon="-110.7514336"><ele>2326.0</ele><time>2026-05-02T16:50:24.384Z</time></trkpt><trkpt lat="32.4498667" lon="-110.7513824"><ele>2326.0</ele><time>2026-05-02T16:50:25.383Z</time></trkpt><trkpt lat="32.4497823" lon="-110.7513367"><ele>2326.0</ele><time>2026-05-02T16:50:26.383Z</time></trkpt><trkpt lat="32.4496957" lon="-110.7512877"><ele>2326.0</ele><time>2026-05-02T16:50:27.384Z</time></trkpt><trkpt lat="32.4496057" lon="-110.7512371"><ele>2326.0</ele><time>2026-05-02T16:50:28.383Z</time></trkpt><trkpt lat="32.4495151" lon="-110.7511924"><ele>2328.5</ele><time>2026-05-02T16:50:29.383Z</time></trkpt><trkpt lat="32.4494317" lon="-110.751176"><ele>2331.0</ele><time>2026-05-02T16:50:30.384Z</time></trkpt><trkpt lat="32.4493537" lon="-110.7511699"><ele>2333.5</ele><time>2026-05-02T16:50:31.383Z</time></trkpt><trkpt lat="32.449284" lon="-110.751174"><ele>2336.0</ele><time>2026-05-02T16:50:32.384Z</time></trkpt><trkpt lat="32.4491784" lon="-110.751204"><ele>2338.5</ele><time>2026-05-02T16:50:34.383Z</time></trkpt><trkpt lat="32.4491301" lon="-110.7512828"><ele>2341.0</ele><time>2026-05-02T16:50:36.385Z</time></trkpt><trkpt lat="32.4491791" lon="-110.7513725"><ele>2341.0</ele><time>2026-05-02T16:50:38.383Z</time></trkpt><trkpt lat="32.4492896" lon="-110.7514079"><ele>2341.0</ele><time>2026-05-02T16:50:40.383Z</time></trkpt><trkpt lat="32.4493548" lon="-110.7514162"><ele>2341.0</ele><time>2026-05-02T16:50:41.383Z</time></trkpt><trkpt lat="32.4494195" lon="-110.7514142"><ele>2341.0</ele><time>2026-05-02T16:50:42.383Z</time></trkpt><trkpt lat="32.4494894" lon="-110.7514366"><ele>2341.0</ele><time>2026-05-02T16:50:43.384Z</time></trkpt><trkpt lat="32.4495633" lon="-110.7514806"><ele>2341.0</ele><time>2026-05-02T16:50:44.384Z</time></trkpt><trkpt lat="32.4496342" lon="-110.7515425"><ele>2338.5</ele><time>2026-05-02T16:50:45.384Z</time></trkpt><trkpt lat="32.4496993" lon="-110.7516123"><ele>2336.0</ele><time>2026-05-02T16:50:46.384Z</time></trkpt><trkpt lat="32.4497648" lon="-110.7516728"><ele>2333.5</ele><time>2026-05-02T16:50:47.383Z</time></trkpt><trkpt lat="32.4498344" lon="-110.7517308"><ele>2331.0</ele><time>2026-05-02T16:50:48.383Z</time></trkpt><trkpt lat="32.4499088" lon="-110.7517938"><ele>2328.5</ele><time>2026-05-02T16:50:49.383Z</time></trkpt><trkpt lat="32.4499847" lon="-110.751857"><ele>2326.0</ele><time>2026-05-02T16:50:50.384Z</time></trkpt><trkpt lat="32.4500541" lon="-110.7519293"><ele>2327.8333333333335</ele><time>2026-05-02T16:50:51.384Z</time></trkpt><trkpt lat="32.4501218" lon="-110.7519968"><ele>2329.666666666667</ele><time>2026-05-02T16:50:52.384Z</time></trkpt><trkpt lat="32.4501927" lon="-110.7520595"><ele>2331.5</ele><time>2026-05-02T16:50:53.383Z</time></trkpt><trkpt lat="32.4502639" lon="-110.7521209"><ele>2333.3333333333335</ele><time>2026-05-02T16:50:54.384Z</time></trkpt><trkpt lat="32.4503292" lon="-110.7521794"><ele>2335.1666666666665</ele><time>2026-05-02T16:50:55.383Z</time></trkpt><trkpt lat="32.4503942" lon="-110.752237"><ele>2337.0</ele><time>2026-05-02T16:50:56.383Z</time></trkpt><trkpt lat="32.4504608" lon="-110.7523078"><ele>2337.0</ele><time>2026-05-02T16:50:57.384Z</time></trkpt><trkpt lat="32.4505255" lon="-110.7523765"><ele>2337.0</ele><time>2026-05-02T16:50:58.383Z</time></trkpt><trkpt lat="32.4505837" lon="-110.7524411"><ele>2337.0</ele><time>2026-05-02T16:50:59.384Z</time></trkpt><trkpt lat="32.4506304" lon="-110.7525271"><ele>2337.0</ele><time>2026-05-02T16:51:00.383Z</time></trkpt><trkpt lat="32.4506683" lon="-110.7526156"><ele>2337.0</ele><time>2026-05-02T16:51:01.383Z</time></trkpt><trkpt lat="32.4507013" lon="-110.7526963"><ele>2337.0</ele><time>2026-05-02T16:51:02.384Z</time></trkpt><trkpt lat="32.4507234" lon="-110.7527773"><ele>2340.9999999999995</ele><time>2026-05-02T16:51:03.384Z</time></trkpt><trkpt lat="32.4507661" lon="-110.7528429"><ele>2345.0</ele><time>2026-05-02T16:51:04.383Z</time></trkpt><trkpt lat="32.4508114" lon="-110.7529023"><ele>2349.0</ele><time>2026-05-02T16:51:05.384Z</time></trkpt><trkpt lat="32.4508716" lon="-110.7529431"><ele>2353.0</ele><time>2026-05-02T16:51:06.383Z</time></trkpt><trkpt lat="32.4509409" lon="-110.7529819"><ele>2357.0</ele><time>2026-05-02T16:51:07.384Z</time></trkpt><trkpt lat="32.4510088" lon="-110.7530334"><ele>2360.9999999999995</ele><time>2026-05-02T16:51:08.383Z</time></trkpt><trkpt lat="32.4510761" lon="-110.7530903"><ele>2365.0</ele><time>2026-05-02T16:51:09.384Z</time></trkpt><trkpt lat="32.4511342" lon="-110.7531615"><ele>2365.0</ele><time>2026-05-02T16:51:10.384Z</time></trkpt><trkpt lat="32.4511878" lon="-110.7532319"><ele>2365.0</ele><time>2026-05-02T16:51:11.384Z</time></trkpt><trkpt lat="32.4512343" lon="-110.7532987"><ele>2365.0</ele><time>2026-05-02T16:51:12.383Z</time></trkpt><trkpt lat="32.451279" lon="-110.7533613"><ele>2365.0</ele><time>2026-05-02T16:51:13.384Z</time></trkpt><trkpt lat="32.4513651" lon="-110.7534389"><ele>2365.0</ele><time>2026-05-02T16:51:15.384Z</time></trkpt><trkpt lat="32.4514684" lon="-110.7534002"><ele>2365.0</ele><time>2026-05-02T16:51:17.384Z</time></trkpt><trkpt lat="32.4515796" lon="-110.7532899"><ele>2364.8</ele><time>2026-05-02T16:51:19.383Z</time></trkpt><trkpt lat="32.4516397" lon="-110.7532213"><ele>2364.6</ele><time>2026-05-02T16:51:20.384Z</time></trkpt><trkpt lat="32.451704" lon="-110.7531455"><ele>2364.4</ele><time>2026-05-02T16:51:21.383Z</time></trkpt><trkpt lat="32.4517701" lon="-110.7530676"><ele>2364.2</ele><time>2026-05-02T16:51:22.383Z</time></trkpt><trkpt lat="32.4518387" lon="-110.7529814"><ele>2364.0</ele><time>2026-05-02T16:51:23.384Z</time></trkpt><trkpt lat="32.4519018" lon="-110.7528988"><ele>2364.0</ele><time>2026-05-02T16:51:24.384Z</time></trkpt><trkpt lat="32.4519607" lon="-110.7528209"><ele>2364.0</ele><time>2026-05-02T16:51:25.383Z</time></trkpt><trkpt lat="32.4520197" lon="-110.752747"><ele>2364.0</ele><time>2026-05-02T16:51:26.384Z</time></trkpt><trkpt lat="32.4520772" lon="-110.7526785"><ele>2364.0</ele><time>2026-05-02T16:51:27.384Z</time></trkpt><trkpt lat="32.4521329" lon="-110.7526178"><ele>2364.0</ele><time>2026-05-02T16:51:28.383Z</time></trkpt><trkpt lat="32.4521869" lon="-110.752556"><ele>2364.0</ele><time>2026-05-02T16:51:29.384Z</time></trkpt><trkpt lat="32.4522362" lon="-110.7524916"><ele>2366.4285714285716</ele><time>2026-05-02T16:51:30.384Z</time></trkpt><trkpt lat="32.4522746" lon="-110.7524222"><ele>2368.857142857143</ele><time>2026-05-02T16:51:31.384Z</time></trkpt><trkpt lat="32.4523055" lon="-110.752347"><ele>2371.2857142857147</ele><time>2026-05-02T16:51:32.383Z</time></trkpt><trkpt lat="32.452325" lon="-110.752267"><ele>2373.714285714286</ele><time>2026-05-02T16:51:33.384Z</time></trkpt><trkpt lat="32.4523394" lon="-110.7521807"><ele>2376.1428571428573</ele><time>2026-05-02T16:51:34.383Z</time></trkpt><trkpt lat="32.4523574" lon="-110.752099"><ele>2378.571428571429</ele><time>2026-05-02T16:51:35.383Z</time></trkpt><trkpt lat="32.4523854" lon="-110.7520147"><ele>2381.0</ele><time>2026-05-02T16:51:36.384Z</time></trkpt><trkpt lat="32.4524185" lon="-110.7519345"><ele>2376.1666666666665</ele><time>2026-05-02T16:51:37.384Z</time></trkpt><trkpt lat="32.4524526" lon="-110.751854"><ele>2371.333333333333</ele><time>2026-05-02T16:51:38.383Z</time></trkpt><trkpt lat="32.4524902" lon="-110.7517748"><ele>2366.5</ele><time>2026-05-02T16:51:39.384Z</time></trkpt><trkpt lat="32.4525276" lon="-110.7517054"><ele>2361.6666666666665</ele><time>2026-05-02T16:51:40.384Z</time></trkpt><trkpt lat="32.4526057" lon="-110.7516175"><ele>2356.8333333333335</ele><time>2026-05-02T16:51:42.384Z</time></trkpt><trkpt lat="32.452685" lon="-110.7516033"><ele>2352.0</ele><time>2026-05-02T16:51:44.385Z</time></trkpt><trkpt lat="32.4527182" lon="-110.7517007"><ele>2352.0</ele><time>2026-05-02T16:51:47.384Z</time></trkpt><trkpt lat="32.4526426" lon="-110.751803"><ele>2352.0</ele><time>2026-05-02T16:51:49.384Z</time></trkpt><trkpt lat="32.4525903" lon="-110.7518519"><ele>2352.0</ele><time>2026-05-02T16:51:50.384Z</time></trkpt><trkpt lat="32.4525419" lon="-110.7519066"><ele>2352.0</ele><time>2026-05-02T16:51:51.384Z</time></trkpt><trkpt lat="32.4525005" lon="-110.7519653"><ele>2352.0</ele><time>2026-05-02T16:51:52.384Z</time></trkpt><trkpt lat="32.4524691" lon="-110.7520308"><ele>2352.0</ele><time>2026-05-02T16:51:53.384Z</time></trkpt><trkpt lat="32.4524438" lon="-110.7520997"><ele>2352.0</ele><time>2026-05-02T16:51:54.383Z</time></trkpt><trkpt lat="32.4524248" lon="-110.7521729"><ele>2356.8333333333335</ele><time>2026-05-02T16:51:55.383Z</time></trkpt><trkpt lat="32.4524111" lon="-110.7522571"><ele>2361.6666666666665</ele><time>2026-05-02T16:51:56.384Z</time></trkpt><trkpt lat="32.4524004" lon="-110.7523516"><ele>2366.5</ele><time>2026-05-02T16:51:57.384Z</time></trkpt><trkpt lat="32.4523901" lon="-110.7524504"><ele>2371.333333333333</ele><time>2026-05-02T16:51:58.383Z</time></trkpt><trkpt lat="32.4523803" lon="-110.7525467"><ele>2376.1666666666665</ele><time>2026-05-02T16:51:59.385Z</time></trkpt><trkpt lat="32.4523612" lon="-110.7526368"><ele>2381.0</ele><time>2026-05-02T16:52:00.385Z</time></trkpt><trkpt lat="32.4523218" lon="-110.7527158"><ele>2377.6</ele><time>2026-05-02T16:52:01.385Z</time></trkpt><trkpt lat="32.4522726" lon="-110.7527928"><ele>2374.2</ele><time>2026-05-02T16:52:02.385Z</time></trkpt><trkpt lat="32.4522147" lon="-110.7528725"><ele>2370.8</ele><time>2026-05-02T16:52:03.384Z</time></trkpt><trkpt lat="32.452156" lon="-110.7529595"><ele>2367.4</ele><time>2026-05-02T16:52:04.384Z</time></trkpt><trkpt lat="32.4520977" lon="-110.7530521"><ele>2364.0</ele><time>2026-05-02T16:52:05.384Z</time></trkpt><trkpt lat="32.4520425" lon="-110.7531483"><ele>2364.0</ele><time>2026-05-02T16:52:06.385Z</time></trkpt><trkpt lat="32.4519881" lon="-110.7532455"><ele>2364.0</ele><time>2026-05-02T16:52:07.384Z</time></trkpt><trkpt lat="32.451932" lon="-110.7533385"><ele>2364.0</ele><time>2026-05-02T16:52:08.384Z</time></trkpt><trkpt lat="32.4518865" lon="-110.7534356"><ele>2364.0</ele><time>2026-05-02T16:52:09.385Z</time></trkpt><trkpt lat="32.4518426" lon="-110.7535365"><ele>2364.0</ele><time>2026-05-02T16:52:10.385Z</time></trkpt><trkpt lat="32.4518016" lon="-110.7536342"><ele>2366.8333333333335</ele><time>2026-05-02T16:52:11.385Z</time></trkpt><trkpt lat="32.4517625" lon="-110.7537314"><ele>2369.6666666666665</ele><time>2026-05-02T16:52:12.384Z</time></trkpt><trkpt lat="32.4517284" lon="-110.7538256"><ele>2372.5</ele><time>2026-05-02T16:52:13.385Z</time></trkpt><trkpt lat="32.4516985" lon="-110.7539117"><ele>2375.333333333333</ele><time>2026-05-02T16:52:14.385Z</time></trkpt><trkpt lat="32.4516665" lon="-110.7539935"><ele>2378.1666666666665</ele><time>2026-05-02T16:52:15.384Z</time></trkpt><trkpt lat="32.4516352" lon="-110.7540641"><ele>2381.0</ele><time>2026-05-02T16:52:16.384Z</time></trkpt><trkpt lat="32.4515679" lon="-110.7541706"><ele>2381.0</ele><time>2026-05-02T16:52:18.385Z</time></trkpt><trkpt lat="32.4514786" lon="-110.754234"><ele>2381.0</ele><time>2026-05-02T16:52:20.385Z</time></trkpt><trkpt lat="32.451364" lon="-110.7542464"><ele>2381.0</ele><time>2026-05-02T16:52:22.385Z</time></trkpt><trkpt lat="32.4512941" lon="-110.7542441"><ele>2381.0</ele><time>2026-05-02T16:52:23.385Z</time></trkpt><trkpt lat="32.4512165" lon="-110.7542406"><ele>2381.0</ele><time>2026-05-02T16:52:24.384Z</time></trkpt><trkpt lat="32.4511329" lon="-110.7542347"><ele>2381.6666666666665</ele><time>2026-05-02T16:52:25.384Z</time></trkpt><trkpt lat="32.4510467" lon="-110.754219"><ele>2382.333333333333</ele><time>2026-05-02T16:52:26.385Z</time></trkpt><trkpt lat="32.4509589" lon="-110.7541949"><ele>2383.0</ele><time>2026-05-02T16:52:27.385Z</time></trkpt><trkpt lat="32.4508793" lon="-110.7541538"><ele>2383.6666666666665</ele><time>2026-05-02T16:52:28.385Z</time></trkpt><trkpt lat="32.4508037" lon="-110.7541083"><ele>2384.3333333333335</ele><time>2026-05-02T16:52:29.384Z</time></trkpt><trkpt lat="32.4507306" lon="-110.754069"><ele>2385.0</ele><time>2026-05-02T16:52:30.384Z</time></trkpt><trkpt lat="32.450656" lon="-110.7540402"><ele>2385.0</ele><time>2026-05-02T16:52:31.385Z</time></trkpt><trkpt lat="32.4505787" lon="-110.7540251"><ele>2385.0</ele><time>2026-05-02T16:52:32.384Z</time></trkpt><trkpt lat="32.4505089" lon="-110.754024"><ele>2385.0</ele><time>2026-05-02T16:52:33.384Z</time></trkpt><trkpt lat="32.4504153" lon="-110.7540342"><ele>2385.0</ele><time>2026-05-02T16:52:35.384Z</time></trkpt><trkpt lat="32.4503248" lon="-110.7540643"><ele>2385.0</ele><time>2026-05-02T16:52:39.384Z</time></trkpt><trkpt lat="32.45026" lon="-110.7540844"><ele>2385.0</ele><time>2026-05-02T16:52:43.514Z</time></trkpt><trkpt lat="32.4502035" lon="-110.7541216"><ele>2386.714285714286</ele><time>2026-05-02T16:52:48.457Z</time></trkpt><trkpt lat="32.4502479" lon="-110.7541815"><ele>2388.4285714285716</ele><time>2026-05-02T16:52:54.475Z</time></trkpt><trkpt lat="32.4502959" lon="-110.754122"><ele>2390.142857142857</ele><time>2026-05-02T16:52:58.558Z</time></trkpt><trkpt lat="32.450269" lon="-110.7540465"><ele>2391.857142857143</ele><time>2026-05-02T16:53:04.468Z</time></trkpt><trkpt lat="32.4502098" lon="-110.7540871"><ele>2393.571428571429</ele><time>2026-05-02T16:53:09.52Z</time></trkpt><trkpt lat="32.4502445" lon="-110.7541521"><ele>2395.285714285714</ele><time>2026-05-02T16:53:16.505Z</time></trkpt><trkpt lat="32.4502991" lon="-110.7541096"><ele>2397.0</ele><time>2026-05-02T16:53:25.532Z</time></trkpt><trkpt lat="32.450235" lon="-110.754103"><ele>2397.0</ele><time>2026-05-02T16:53:37.461Z</time></trkpt><trkpt lat="32.4501675" lon="-110.7541883"><ele>2397.0</ele><time>2026-05-02T16:55:32.386Z</time></trkpt><trkpt lat="32.4501037" lon="-110.7542261"><ele>2397.0</ele><time>2026-05-02T16:55:33.387Z</time></trkpt><trkpt lat="32.4500429" lon="-110.7542706"><ele>2397.0</ele><time>2026-05-02T16:55:34.386Z</time></trkpt><trkpt lat="32.4499821" lon="-110.7543161"><ele>2397.0</ele><time>2026-05-02T16:55:35.387Z</time></trkpt><trkpt lat="32.4499209" lon="-110.7543619"><ele>2397.0</ele><time>2026-05-02T16:55:36.386Z</time></trkpt><trkpt lat="32.4498517" lon="-110.7544057"><ele>2397.3333333333335</ele><time>2026-05-02T16:55:37.386Z</time></trkpt><trkpt lat="32.4497779" lon="-110.7544476"><ele>2397.6666666666665</ele><time>2026-05-02T16:55:38.386Z</time></trkpt><trkpt lat="32.4497007" lon="-110.7544865"><ele>2398.0</ele><time>2026-05-02T16:55:39.386Z</time></trkpt><trkpt lat="32.4496242" lon="-110.7545232"><ele>2398.333333333333</ele><time>2026-05-02T16:55:40.387Z</time></trkpt><trkpt lat="32.4495501" lon="-110.7545566"><ele>2398.6666666666665</ele><time>2026-05-02T16:55:41.386Z</time></trkpt><trkpt lat="32.4494823" lon="-110.7545851"><ele>2399.0</ele><time>2026-05-02T16:55:42.387Z</time></trkpt><trkpt lat="32.4494211" lon="-110.7546099"><ele>2399.1666666666665</ele><time>2026-05-02T16:55:43.386Z</time></trkpt><trkpt lat="32.4493303" lon="-110.7546568"><ele>2399.333333333333</ele><time>2026-05-02T16:55:45.386Z</time></trkpt><trkpt lat="32.4492311" lon="-110.7547226"><ele>2399.5</ele><time>2026-05-02T16:55:48.387Z</time></trkpt><trkpt lat="32.4491722" lon="-110.754752"><ele>2399.6666666666665</ele><time>2026-05-02T16:55:49.386Z</time></trkpt><trkpt lat="32.4491049" lon="-110.754781"><ele>2399.8333333333335</ele><time>2026-05-02T16:55:50.387Z</time></trkpt><trkpt lat="32.4490306" lon="-110.7548103"><ele>2400.0</ele><time>2026-05-02T16:55:51.386Z</time></trkpt><trkpt lat="32.4489442" lon="-110.7548435"><ele>2400.0</ele><time>2026-05-02T16:55:52.386Z</time></trkpt><trkpt lat="32.4488647" lon="-110.7548803"><ele>2400.0</ele><time>2026-05-02T16:55:53.387Z</time></trkpt><trkpt lat="32.4488033" lon="-110.7549191"><ele>2400.0</ele><time>2026-05-02T16:55:54.387Z</time></trkpt><trkpt lat="32.4487225" lon="-110.7549778"><ele>2400.0</ele><time>2026-05-02T16:55:56.386Z</time></trkpt><trkpt lat="32.4486275" lon="-110.7549998"><ele>2400.0</ele><time>2026-05-02T16:58:14.388Z</time></trkpt><trkpt lat="32.4485135" lon="-110.7550148"><ele>2402.2</ele><time>2026-05-02T16:58:16.388Z</time></trkpt><trkpt lat="32.4484017" lon="-110.755049"><ele>2404.4</ele><time>2026-05-02T16:58:18.389Z</time></trkpt><trkpt lat="32.4483194" lon="-110.7550713"><ele>2406.6</ele><time>2026-05-02T16:58:20.388Z</time></trkpt><trkpt lat="32.4482221" lon="-110.7550338"><ele>2408.8</ele><time>2026-05-02T16:58:23.389Z</time></trkpt><trkpt lat="32.44815" lon="-110.7549094"><ele>2411.0</ele><time>2026-05-02T16:58:25.388Z</time></trkpt><trkpt lat="32.4481206" lon="-110.7548135"><ele>2411.0</ele><time>2026-05-02T16:58:26.388Z</time></trkpt><trkpt lat="32.4480937" lon="-110.7547036"><ele>2411.0</ele><time>2026-05-02T16:58:27.388Z</time></trkpt><trkpt lat="32.4480647" lon="-110.754581"><ele>2411.0</ele><time>2026-05-02T16:58:28.388Z</time></trkpt><trkpt lat="32.4480248" lon="-110.7544549"><ele>2411.0</ele><time>2026-05-02T16:58:29.389Z</time></trkpt><trkpt lat="32.4479709" lon="-110.7543217"><ele>2411.0</ele><time>2026-05-02T16:58:30.388Z</time></trkpt><trkpt lat="32.4479017" lon="-110.7541795"><ele>2417.5</ele><time>2026-05-02T16:58:31.388Z</time></trkpt><trkpt lat="32.4478191" lon="-110.7540503"><ele>2424.0</ele><time>2026-05-02T16:58:32.388Z</time></trkpt><trkpt lat="32.4477268" lon="-110.7539319"><ele>2430.5</ele><time>2026-05-02T16:58:33.389Z</time></trkpt><trkpt lat="32.4476231" lon="-110.7538213"><ele>2437.0</ele><time>2026-05-02T16:58:34.388Z</time></trkpt><trkpt lat="32.4475103" lon="-110.7537233"><ele>2437.0</ele><time>2026-05-02T16:58:35.388Z</time></trkpt><trkpt lat="32.4473872" lon="-110.7536416"><ele>2437.0</ele><time>2026-05-02T16:58:36.389Z</time></trkpt><trkpt lat="32.4472556" lon="-110.7535734"><ele>2437.0</ele><time>2026-05-02T16:58:37.389Z</time></trkpt><trkpt lat="32.4471178" lon="-110.7535154"><ele>2437.0</ele><time>2026-05-02T16:58:38.388Z</time></trkpt><trkpt lat="32.4469769" lon="-110.7534642"><ele>2434.0</ele><time>2026-05-02T16:58:39.388Z</time></trkpt><trkpt lat="32.4468326" lon="-110.7534161"><ele>2431.0</ele><time>2026-05-02T16:58:40.388Z</time></trkpt><trkpt lat="32.4466887" lon="-110.7533686"><ele>2428.0</ele><time>2026-05-02T16:58:41.388Z</time></trkpt><trkpt lat="32.4465421" lon="-110.753322"><ele>2428.0</ele><time>2026-05-02T16:58:42.389Z</time></trkpt><trkpt lat="32.4463927" lon="-110.7532723"><ele>2428.0</ele><time>2026-05-02T16:58:43.389Z</time></trkpt><trkpt lat="32.4462431" lon="-110.7532242"><ele>2428.0</ele><time>2026-05-02T16:58:44.388Z</time></trkpt><trkpt lat="32.4460937" lon="-110.7531778"><ele>2411.0</ele><time>2026-05-02T16:58:45.389Z</time></trkpt><trkpt lat="32.4486275" lon="-110.7549998"><ele>2411.0</ele><time>2026-05-02T16:58:14.388Z</time></trkpt><trkpt lat="32.4485135" lon="-110.7550148"><ele>2411.0</ele><time>2026-05-02T16:58:16.388Z</time></trkpt><trkpt lat="32.4484017" lon="-110.755049"><ele>2411.0</ele><time>2026-05-02T16:58:18.389Z</time></trkpt><trkpt lat="32.4483194" lon="-110.7550713"><ele>2411.0</ele><time>2026-05-02T16:58:20.388Z</time></trkpt><trkpt lat="32.4482221" lon="-110.7550338"><ele>2411.0</ele><time>2026-05-02T16:58:23.389Z</time></trkpt><trkpt lat="32.44815" lon="-110.7549094"><ele>2411.0</ele><time>2026-05-02T16:58:25.388Z</time></trkpt><trkpt lat="32.4481206" lon="-110.7548135"><ele>2411.0</ele><time>2026-05-02T16:58:26.388Z</time></trkpt><trkpt lat="32.4480937" lon="-110.7547036"><ele>2411.0</ele><time>2026-05-02T16:58:27.388Z</time></trkpt><trkpt lat="32.4480647" lon="-110.754581"><ele>2411.0</ele><time>2026-05-02T16:58:28.388Z</time></trkpt><trkpt lat="32.4480248" lon="-110.7544549"><ele>2411.0</ele><time>2026-05-02T16:58:29.389Z</time></trkpt><trkpt lat="32.4479709" lon="-110.7543217"><ele>2417.5</ele><time>2026-05-02T16:58:30.388Z</time></trkpt><trkpt lat="32.4479017" lon="-110.7541795"><ele>2424.0</ele><time>2026-05-02T16:58:31.388Z</time></trkpt><trkpt lat="32.4478191" lon="-110.7540503"><ele>2430.5</ele><time>2026-05-02T16:58:32.388Z</time></trkpt><trkpt lat="32.4477268" lon="-110.7539319"><ele>2437.0</ele><time>2026-05-02T16:58:33.389Z</time></trkpt><trkpt lat="32.4476231" lon="-110.7538213"><ele>2437.0</ele><time>2026-05-02T16:58:34.388Z</time></trkpt><trkpt lat="32.4475103" lon="-110.7537233"><ele>2437.0</ele><time>2026-05-02T16:58:35.388Z</time></trkpt><trkpt lat="32.4473872" lon="-110.7536416"><ele>2437.0</ele><time>2026-05-02T16:58:36.389Z</time></trkpt><trkpt lat="32.4472556" lon="-110.7535734"><ele>2437.0</ele><time>2026-05-02T16:58:37.389Z</time></trkpt><trkpt lat="32.4471178" lon="-110.7535154"><ele>2434.75</ele><time>2026-05-02T16:58:38.388Z</time></trkpt><trkpt lat="32.4469769" lon="-110.7534642"><ele>2432.5</ele><time>2026-05-02T16:58:39.388Z</time></trkpt><trkpt lat="32.4468326" lon="-110.7534161"><ele>2430.25</ele><time>2026-05-02T16:58:40.388Z</time></trkpt><trkpt lat="32.4466887" lon="-110.7533686"><ele>2428.0</ele><time>2026-05-02T16:58:41.388Z</time></trkpt><trkpt lat="32.4465421" lon="-110.753322"><ele>2428.0</ele><time>2026-05-02T16:58:42.389Z</time></trkpt><trkpt lat="32.4463927" lon="-110.7532723"><ele>2428.0</ele><time>2026-05-02T16:58:43.389Z</time></trkpt><trkpt lat="32.4462431" lon="-110.7532242"><ele>2428.0</ele><time>2026-05-02T16:58:44.388Z</time></trkpt><trkpt lat="32.4460937" lon="-110.7531778"><ele>2431.666666666667</ele><time>2026-05-02T16:58:45.389Z</time></trkpt><trkpt lat="32.445944" lon="-110.7531355"><ele>2435.3333333333335</ele><time>2026-05-02T16:58:46.389Z</time></trkpt><trkpt lat="32.4457931" lon="-110.7531008"><ele>2439.0</ele><time>2026-05-02T16:58:47.388Z</time></trkpt><trkpt lat="32.445639" lon="-110.7530826"><ele>2439.0</ele><time>2026-05-02T16:58:48.389Z</time></trkpt><trkpt lat="32.4454792" lon="-110.7530746"><ele>2439.0</ele><time>2026-05-02T16:58:49.389Z</time></trkpt><trkpt lat="32.445312" lon="-110.7530801"><ele>2439.0</ele><time>2026-05-02T16:58:50.388Z</time></trkpt><trkpt lat="32.4451459" lon="-110.7531082"><ele>2439.3333333333335</ele><time>2026-05-02T16:58:51.388Z</time></trkpt><trkpt lat="32.4449761" lon="-110.7531443"><ele>2439.666666666667</ele><time>2026-05-02T16:58:52.389Z</time></trkpt><trkpt lat="32.4448045" lon="-110.7531783"><ele>2440.0</ele><time>2026-05-02T16:58:53.389Z</time></trkpt><trkpt lat="32.4446329" lon="-110.7532102"><ele>2439.666666666667</ele><time>2026-05-02T16:58:54.389Z</time></trkpt><trkpt lat="32.4444613" lon="-110.7532419"><ele>2439.3333333333335</ele><time>2026-05-02T16:58:55.389Z</time></trkpt><trkpt lat="32.4442924" lon="-110.7532719"><ele>2439.0</ele><time>2026-05-02T16:58:56.389Z</time></trkpt><trkpt lat="32.4441254" lon="-110.7533039"><ele>2439.0</ele><time>2026-05-02T16:58:57.389Z</time></trkpt><trkpt lat="32.4439592" lon="-110.7533324"><ele>2439.0</ele><time>2026-05-02T16:58:58.389Z</time></trkpt><trkpt lat="32.4437938" lon="-110.7533505"><ele>2439.0</ele><time>2026-05-02T16:58:59.389Z</time></trkpt><trkpt lat="32.4436277" lon="-110.7533554"><ele>2440.6666666666665</ele><time>2026-05-02T16:59:00.388Z</time></trkpt><trkpt lat="32.4434649" lon="-110.7533516"><ele>2442.333333333333</ele><time>2026-05-02T16:59:01.389Z</time></trkpt><trkpt lat="32.4433006" lon="-110.7533376"><ele>2444.0</ele><time>2026-05-02T16:59:02.388Z</time></trkpt><trkpt lat="32.4431371" lon="-110.7533218"><ele>2444.0</ele><time>2026-05-02T16:59:03.388Z</time></trkpt><trkpt lat="32.4429737" lon="-110.7533079"><ele>2444.0</ele><time>2026-05-02T16:59:04.389Z</time></trkpt><trkpt lat="32.4428086" lon="-110.7532925"><ele>2444.0</ele><time>2026-05-02T16:59:05.388Z</time></trkpt><trkpt lat="32.4426425" lon="-110.7532727"><ele>2447.0</ele><time>2026-05-02T16:59:06.389Z</time></trkpt><trkpt lat="32.4424801" lon="-110.7532396"><ele>2450.0</ele><time>2026-05-02T16:59:07.389Z</time></trkpt><trkpt lat="32.4423231" lon="-110.7531931"><ele>2453.0</ele><time>2026-05-02T16:59:08.389Z</time></trkpt><trkpt lat="32.4421833" lon="-110.7531314"><ele>2456.333333333333</ele><time>2026-05-02T16:59:09.389Z</time></trkpt><trkpt lat="32.4420418" lon="-110.7530632"><ele>2459.6666666666665</ele><time>2026-05-02T16:59:10.389Z</time></trkpt><trkpt lat="32.4419025" lon="-110.7529909"><ele>2463.0</ele><time>2026-05-02T16:59:11.389Z</time></trkpt><trkpt lat="32.4417654" lon="-110.7529182"><ele>2463.0</ele><time>2026-05-02T16:59:12.389Z</time></trkpt><trkpt lat="32.4416289" lon="-110.7528492"><ele>2463.0</ele><time>2026-05-02T16:59:13.389Z</time></trkpt><trkpt lat="32.4414925" lon="-110.7527848"><ele>2463.0</ele><time>2026-05-02T16:59:14.389Z</time></trkpt><trkpt lat="32.4413564" lon="-110.7527228"><ele>2463.0</ele><time>2026-05-02T16:59:15.389Z</time></trkpt><trkpt lat="32.4412209" lon="-110.7526613"><ele>2458.75</ele><time>2026-05-02T16:59:16.388Z</time></trkpt><trkpt lat="32.4410821" lon="-110.752608"><ele>2454.5</ele><time>2026-05-02T16:59:17.388Z</time></trkpt><trkpt lat="32.4409395" lon="-110.7525649"><ele>2450.25</ele><time>2026-05-02T16:59:18.388Z</time></trkpt><trkpt lat="32.4407932" lon="-110.7525313"><ele>2446.0</ele><time>2026-05-02T16:59:19.389Z</time></trkpt><trkpt lat="32.4406433" lon="-110.7525065"><ele>2446.0</ele><time>2026-05-02T16:59:20.388Z</time></trkpt><trkpt lat="32.4404882" lon="-110.7524866"><ele>2446.0</ele><time>2026-05-02T16:59:21.388Z</time></trkpt><trkpt lat="32.4403297" lon="-110.7524716"><ele>2446.0</ele><time>2026-05-02T16:59:22.389Z</time></trkpt><trkpt lat="32.4401672" lon="-110.7524643"><ele>2444.666666666667</ele><time>2026-05-02T16:59:23.389Z</time></trkpt><trkpt lat="32.4400006" lon="-110.7524573"><ele>2443.3333333333335</ele><time>2026-05-02T16:59:24.389Z</time></trkpt><trkpt lat="32.4398337" lon="-110.7524462"><ele>2442.0</ele><time>2026-05-02T16:59:25.388Z</time></trkpt><trkpt lat="32.4396664" lon="-110.7524337"><ele>2441.6666666666665</ele><time>2026-05-02T16:59:26.388Z</time></trkpt><trkpt lat="32.4395007" lon="-110.752424"><ele>2441.333333333333</ele><time>2026-05-02T16:59:27.388Z</time></trkpt><trkpt lat="32.4393356" lon="-110.7524159"><ele>2441.0</ele><time>2026-05-02T16:59:28.388Z</time></trkpt><trkpt lat="32.4391698" lon="-110.7524067"><ele>2441.0</ele><time>2026-05-02T16:59:29.388Z</time></trkpt><trkpt lat="32.4390052" lon="-110.7523977"><ele>2441.0</ele><time>2026-05-02T16:59:30.389Z</time></trkpt><trkpt lat="32.4388401" lon="-110.752393"><ele>2441.0</ele><time>2026-05-02T16:59:31.388Z</time></trkpt><trkpt lat="32.4386751" lon="-110.7523895"><ele>2439.333333333333</ele><time>2026-05-02T16:59:32.388Z</time></trkpt><trkpt lat="32.4385079" lon="-110.7523848"><ele>2437.6666666666665</ele><time>2026-05-02T16:59:33.389Z</time></trkpt><trkpt lat="32.4383417" lon="-110.7523802"><ele>2436.0</ele><time>2026-05-02T16:59:34.389Z</time></trkpt><trkpt lat="32.4381725" lon="-110.7523784"><ele>2436.0</ele><time>2026-05-02T16:59:35.389Z</time></trkpt><trkpt lat="32.4380035" lon="-110.7523721"><ele>2436.0</ele><time>2026-05-02T16:59:36.388Z</time></trkpt><trkpt lat="32.4378347" lon="-110.7523696"><ele>2436.0</ele><time>2026-05-02T16:59:37.389Z</time></trkpt><trkpt lat="32.4376643" lon="-110.7523672"><ele>2436.0</ele><time>2026-05-02T16:59:38.388Z</time></trkpt><trkpt lat="32.4374958" lon="-110.7523682"><ele>2436.0</ele><time>2026-05-02T16:59:39.388Z</time></trkpt><trkpt lat="32.4373266" lon="-110.752365"><ele>2436.0</ele><time>2026-05-02T16:59:40.389Z</time></trkpt><trkpt lat="32.4371583" lon="-110.7523596"><ele>2436.0</ele><time>2026-05-02T16:59:41.389Z</time></trkpt><trkpt lat="32.4369907" lon="-110.7523567"><ele>2436.0</ele><time>2026-05-02T16:59:42.388Z</time></trkpt><trkpt lat="32.4368227" lon="-110.7523551"><ele>2436.0</ele><time>2026-05-02T16:59:43.389Z</time></trkpt><trkpt lat="32.4366563" lon="-110.7523537"><ele>2436.0</ele><time>2026-05-02T16:59:44.388Z</time></trkpt><trkpt lat="32.4364889" lon="-110.7523534"><ele>2436.0</ele><time>2026-05-02T16:59:45.389Z</time></trkpt><trkpt lat="32.4363193" lon="-110.7523515"><ele>2436.0</ele><time>2026-05-02T16:59:46.388Z</time></trkpt><trkpt lat="32.436151" lon="-110.7523481"><ele>2435.3333333333335</ele><time>2026-05-02T16:59:47.389Z</time></trkpt><trkpt lat="32.4359827" lon="-110.7523449"><ele>2434.666666666667</ele><time>2026-05-02T16:59:48.388Z</time></trkpt><trkpt lat="32.4358159" lon="-110.7523397"><ele>2434.0</ele><time>2026-05-02T16:59:49.388Z</time></trkpt><trkpt lat="32.4356518" lon="-110.7523365"><ele>2434.0</ele><time>2026-05-02T16:59:50.388Z</time></trkpt><trkpt lat="32.4354874" lon="-110.752332"><ele>2434.0</ele><time>2026-05-02T16:59:51.389Z</time></trkpt><trkpt lat="32.4353232" lon="-110.7523206"><ele>2434.0</ele><time>2026-05-02T16:59:52.389Z</time></trkpt><trkpt lat="32.4351589" lon="-110.7523014"><ele>2433.666666666667</ele><time>2026-05-02T16:59:53.39Z</time></trkpt><trkpt lat="32.4349966" lon="-110.7522755"><ele>2433.3333333333335</ele><time>2026-05-02T16:59:54.389Z</time></trkpt><trkpt lat="32.4348349" lon="-110.7522342"><ele>2433.0</ele><time>2026-05-02T16:59:55.389Z</time></trkpt><trkpt lat="32.4346765" lon="-110.7521843"><ele>2434.3333333333335</ele><time>2026-05-02T16:59:56.389Z</time></trkpt><trkpt lat="32.4345207" lon="-110.7521258"><ele>2435.666666666667</ele><time>2026-05-02T16:59:57.39Z</time></trkpt><trkpt lat="32.4343671" lon="-110.7520541"><ele>2437.0</ele><time>2026-05-02T16:59:58.389Z</time></trkpt><trkpt lat="32.4342172" lon="-110.7519752"><ele>2437.0</ele><time>2026-05-02T16:59:59.389Z</time></trkpt><trkpt lat="32.4340725" lon="-110.7518857"><ele>2437.0</ele><time>2026-05-02T17:00:00.39Z</time></trkpt><trkpt lat="32.4339306" lon="-110.7517848"><ele>2437.0</ele><time>2026-05-02T17:00:01.39Z</time></trkpt><trkpt lat="32.4337929" lon="-110.7516767"><ele>2435.3333333333335</ele><time>2026-05-02T17:00:02.39Z</time></trkpt><trkpt lat="32.4336601" lon="-110.75156"><ele>2433.6666666666665</ele><time>2026-05-02T17:00:03.389Z</time></trkpt><trkpt lat="32.4335358" lon="-110.7514386"><ele>2432.0</ele><time>2026-05-02T17:00:04.39Z</time></trkpt><trkpt lat="32.4334167" lon="-110.751314"><ele>2432.0</ele><time>2026-05-02T17:00:05.39Z</time></trkpt><trkpt lat="32.4333053" lon="-110.7511759"><ele>2432.0</ele><time>2026-05-02T17:00:06.389Z</time></trkpt><trkpt lat="32.4332003" lon="-110.7510314"><ele>2432.0</ele><time>2026-05-02T17:00:07.389Z</time></trkpt><trkpt lat="32.4331009" lon="-110.7508773"><ele>2430.6666666666665</ele><time>2026-05-02T17:00:08.39Z</time></trkpt><trkpt lat="32.4330074" lon="-110.7507137"><ele>2429.3333333333335</ele><time>2026-05-02T17:00:09.389Z</time></trkpt><trkpt lat="32.4329176" lon="-110.7505447"><ele>2428.0</ele><time>2026-05-02T17:00:10.39Z</time></trkpt><trkpt lat="32.4328356" lon="-110.7503713"><ele>2429.3333333333335</ele><time>2026-05-02T17:00:11.39Z</time></trkpt><trkpt lat="32.4327631" lon="-110.7501922"><ele>2430.6666666666665</ele><time>2026-05-02T17:00:12.39Z</time></trkpt><trkpt lat="32.4326994" lon="-110.7500081"><ele>2432.0</ele><time>2026-05-02T17:00:13.389Z</time></trkpt><trkpt lat="32.4326383" lon="-110.7498213"><ele>2432.0</ele><time>2026-05-02T17:00:14.389Z</time></trkpt><trkpt lat="32.4325789" lon="-110.7496333"><ele>2432.0</ele><time>2026-05-02T17:00:15.389Z</time></trkpt><trkpt lat="32.4325175" lon="-110.7494468"><ele>2432.0</ele><time>2026-05-02T17:00:16.389Z</time></trkpt><trkpt lat="32.4324515" lon="-110.7492656"><ele>2429.0</ele><time>2026-05-02T17:00:17.39Z</time></trkpt><trkpt lat="32.4323773" lon="-110.749091"><ele>2426.0</ele><time>2026-05-02T17:00:18.389Z</time></trkpt><trkpt lat="32.4322975" lon="-110.7489201"><ele>2423.0</ele><time>2026-05-02T17:00:19.39Z</time></trkpt><trkpt lat="32.4322101" lon="-110.7487546"><ele>2425.6666666666665</ele><time>2026-05-02T17:00:20.39Z</time></trkpt><trkpt lat="32.4321188" lon="-110.7485926"><ele>2428.3333333333335</ele><time>2026-05-02T17:00:21.39Z</time></trkpt><trkpt lat="32.4320263" lon="-110.7484309"><ele>2431.0</ele><time>2026-05-02T17:00:22.39Z</time></trkpt><trkpt lat="32.4319345" lon="-110.7482708"><ele>2431.0</ele><time>2026-05-02T17:00:23.389Z</time></trkpt><trkpt lat="32.4318467" lon="-110.7481071"><ele>2431.0</ele><time>2026-05-02T17:00:24.39Z</time></trkpt><trkpt lat="32.4317655" lon="-110.7479411"><ele>2431.0</ele><time>2026-05-02T17:00:25.389Z</time></trkpt><trkpt lat="32.4316958" lon="-110.7477695"><ele>2427.0</ele><time>2026-05-02T17:00:26.389Z</time></trkpt><trkpt lat="32.4316363" lon="-110.7475877"><ele>2423.0</ele><time>2026-05-02T17:00:27.39Z</time></trkpt><trkpt lat="32.4315898" lon="-110.7473987"><ele>2419.0</ele><time>2026-05-02T17:00:28.39Z</time></trkpt><trkpt lat="32.431552" lon="-110.7472073"><ele>2419.0</ele><time>2026-05-02T17:00:29.389Z</time></trkpt><trkpt lat="32.4315198" lon="-110.7470109"><ele>2419.0</ele><time>2026-05-02T17:00:30.389Z</time></trkpt><trkpt lat="32.4314926" lon="-110.7468125"><ele>2419.0</ele><time>2026-05-02T17:00:31.39Z</time></trkpt><trkpt lat="32.4314652" lon="-110.7466171"><ele>2414.666666666667</ele><time>2026-05-02T17:00:32.389Z</time></trkpt><trkpt lat="32.4314346" lon="-110.7464215"><ele>2410.3333333333335</ele><time>2026-05-02T17:00:33.39Z</time></trkpt><trkpt lat="32.4313968" lon="-110.7462306"><ele>2406.0</ele><time>2026-05-02T17:00:34.39Z</time></trkpt><trkpt lat="32.4313478" lon="-110.7460473"><ele>2409.0</ele><time>2026-05-02T17:00:35.39Z</time></trkpt><trkpt lat="32.4312842" lon="-110.7458751"><ele>2412.0</ele><time>2026-05-02T17:00:36.389Z</time></trkpt><trkpt lat="32.4312068" lon="-110.7457083"><ele>2415.0</ele><time>2026-05-02T17:00:37.39Z</time></trkpt><trkpt lat="32.431119" lon="-110.7455454"><ele>2415.0</ele><time>2026-05-02T17:00:38.39Z</time></trkpt><trkpt lat="32.4310211" lon="-110.7453915"><ele>2415.0</ele><time>2026-05-02T17:00:39.389Z</time></trkpt><trkpt lat="32.4309109" lon="-110.7452489"><ele>2415.0</ele><time>2026-05-02T17:00:40.39Z</time></trkpt><trkpt lat="32.4307881" lon="-110.7451143"><ele>2413.6666666666665</ele><time>2026-05-02T17:00:41.389Z</time></trkpt><trkpt lat="32.4306546" lon="-110.744987"><ele>2412.333333333333</ele><time>2026-05-02T17:00:42.39Z</time></trkpt><trkpt lat="32.4305148" lon="-110.7448675"><ele>2411.0</ele><time>2026-05-02T17:00:43.389Z</time></trkpt><trkpt lat="32.4303779" lon="-110.7447477"><ele>2411.0</ele><time>2026-05-02T17:00:44.39Z</time></trkpt><trkpt lat="32.4302388" lon="-110.7446239"><ele>2411.0</ele><time>2026-05-02T17:00:45.39Z</time></trkpt><trkpt lat="32.4300996" lon="-110.7444975"><ele>2411.0</ele><time>2026-05-02T17:00:46.389Z</time></trkpt><trkpt lat="32.429961" lon="-110.7443717"><ele>2410.0</ele><time>2026-05-02T17:00:47.39Z</time></trkpt><trkpt lat="32.4298247" lon="-110.7442374"><ele>2409.0</ele><time>2026-05-02T17:00:48.39Z</time></trkpt><trkpt lat="32.429696" lon="-110.7440954"><ele>2408.0</ele><time>2026-05-02T17:00:49.389Z</time></trkpt><trkpt lat="32.4295685" lon="-110.7439539"><ele>2408.0</ele><time>2026-05-02T17:00:50.389Z</time></trkpt><trkpt lat="32.4294487" lon="-110.7438046"><ele>2408.0</ele><time>2026-05-02T17:00:51.39Z</time></trkpt><trkpt lat="32.4293379" lon="-110.7436461"><ele>2408.0</ele><time>2026-05-02T17:00:52.389Z</time></trkpt><trkpt lat="32.4292313" lon="-110.7434862"><ele>2401.0</ele><time>2026-05-02T17:00:53.39Z</time></trkpt><trkpt lat="32.4291278" lon="-110.7433243"><ele>2394.0</ele><time>2026-05-02T17:00:54.39Z</time></trkpt><trkpt lat="32.4290246" lon="-110.7431648"><ele>2387.0</ele><time>2026-05-02T17:00:55.39Z</time></trkpt><trkpt lat="32.4289199" lon="-110.7430059"><ele>2387.0</ele><time>2026-05-02T17:00:56.389Z</time></trkpt><trkpt lat="32.428816" lon="-110.7428463"><ele>2387.0</ele><time>2026-05-02T17:00:57.39Z</time></trkpt><trkpt lat="32.428712" lon="-110.7426878"><ele>2387.0</ele><time>2026-05-02T17:00:58.39Z</time></trkpt><trkpt lat="32.4286088" lon="-110.7425271"><ele>2384.0</ele><time>2026-05-02T17:00:59.389Z</time></trkpt><trkpt lat="32.4285056" lon="-110.7423668"><ele>2381.0</ele><time>2026-05-02T17:01:00.389Z</time></trkpt><trkpt lat="32.4284" lon="-110.74221"><ele>2378.0</ele><time>2026-05-02T17:01:01.39Z</time></trkpt><trkpt lat="32.428291" lon="-110.7420581"><ele>2378.0</ele><time>2026-05-02T17:01:02.389Z</time></trkpt><trkpt lat="32.4281705" lon="-110.7419116"><ele>2378.0</ele><time>2026-05-02T17:01:03.39Z</time></trkpt><trkpt lat="32.4280407" lon="-110.7417749"><ele>2378.0</ele><time>2026-05-02T17:01:04.389Z</time></trkpt><trkpt lat="32.4279065" lon="-110.7416434"><ele>2374.6666666666665</ele><time>2026-05-02T17:01:05.389Z</time></trkpt><trkpt lat="32.427766" lon="-110.7415195"><ele>2371.3333333333335</ele><time>2026-05-02T17:01:06.389Z</time></trkpt><trkpt lat="32.4276207" lon="-110.7414029"><ele>2368.0</ele><time>2026-05-02T17:01:07.39Z</time></trkpt><trkpt lat="32.4274677" lon="-110.7412895"><ele>2368.0</ele><time>2026-05-02T17:01:08.389Z</time></trkpt><trkpt lat="32.4273131" lon="-110.7411817"><ele>2368.0</ele><time>2026-05-02T17:01:09.39Z</time></trkpt><trkpt lat="32.4271591" lon="-110.7410788"><ele>2368.0</ele><time>2026-05-02T17:01:10.39Z</time></trkpt><trkpt lat="32.4270023" lon="-110.7409788"><ele>2369.666666666667</ele><time>2026-05-02T17:01:11.389Z</time></trkpt><trkpt lat="32.4268499" lon="-110.7408753"><ele>2371.3333333333335</ele><time>2026-05-02T17:01:12.389Z</time></trkpt><trkpt lat="32.4266963" lon="-110.7407736"><ele>2373.0</ele><time>2026-05-02T17:01:13.389Z</time></trkpt><trkpt lat="32.4265478" lon="-110.7406708"><ele>2373.0</ele><time>2026-05-02T17:01:14.389Z</time></trkpt><trkpt lat="32.4264059" lon="-110.7405591"><ele>2373.0</ele><time>2026-05-02T17:01:15.39Z</time></trkpt><trkpt lat="32.4262708" lon="-110.7404382"><ele>2373.0</ele><time>2026-05-02T17:01:16.389Z</time></trkpt><trkpt lat="32.4261463" lon="-110.7403052"><ele>2374.6666666666665</ele><time>2026-05-02T17:01:17.389Z</time></trkpt><trkpt lat="32.4260323" lon="-110.7401585"><ele>2376.333333333333</ele><time>2026-05-02T17:01:18.39Z</time></trkpt><trkpt lat="32.425924" lon="-110.7400013"><ele>2378.0</ele><time>2026-05-02T17:01:19.389Z</time></trkpt><trkpt lat="32.4258194" lon="-110.7398446"><ele>2378.0</ele><time>2026-05-02T17:01:20.389Z</time></trkpt><trkpt lat="32.4257172" lon="-110.7396849"><ele>2378.0</ele><time>2026-05-02T17:01:21.39Z</time></trkpt><trkpt lat="32.4256144" lon="-110.7395313"><ele>2378.0</ele><time>2026-05-02T17:01:22.389Z</time></trkpt><trkpt lat="32.4255093" lon="-110.7393743"><ele>2380.333333333333</ele><time>2026-05-02T17:01:23.389Z</time></trkpt><trkpt lat="32.4254104" lon="-110.7392136"><ele>2382.6666666666665</ele><time>2026-05-02T17:01:24.389Z</time></trkpt><trkpt lat="32.4253123" lon="-110.7390523"><ele>2385.0</ele><time>2026-05-02T17:01:25.389Z</time></trkpt><trkpt lat="32.4252089" lon="-110.7388982"><ele>2385.0</ele><time>2026-05-02T17:01:26.389Z</time></trkpt><trkpt lat="32.4251059" lon="-110.7387425"><ele>2385.0</ele><time>2026-05-02T17:01:27.39Z</time></trkpt><trkpt lat="32.4250025" lon="-110.7385869"><ele>2385.0</ele><time>2026-05-02T17:01:28.39Z</time></trkpt><trkpt lat="32.4249011" lon="-110.7384262"><ele>2386.6666666666665</ele><time>2026-05-02T17:01:29.39Z</time></trkpt><trkpt lat="32.4247875" lon="-110.7382754"><ele>2388.333333333333</ele><time>2026-05-02T17:01:30.39Z</time></trkpt><trkpt lat="32.4246885" lon="-110.7381079"><ele>2390.0</ele><time>2026-05-02T17:01:31.39Z</time></trkpt><trkpt lat="32.4246015" lon="-110.7379338"><ele>2393.6666666666665</ele><time>2026-05-02T17:01:32.389Z</time></trkpt><trkpt lat="32.424523" lon="-110.73776"><ele>2397.3333333333335</ele><time>2026-05-02T17:01:33.39Z</time></trkpt><trkpt lat="32.4244502" lon="-110.7375846"><ele>2401.0</ele><time>2026-05-02T17:01:34.39Z</time></trkpt><trkpt lat="32.4243884" lon="-110.7373994"><ele>2401.0</ele><time>2026-05-02T17:01:35.391Z</time></trkpt><trkpt lat="32.424329" lon="-110.7372146"><ele>2401.0</ele><time>2026-05-02T17:01:36.39Z</time></trkpt><trkpt lat="32.4242838" lon="-110.7370324"><ele>2401.0</ele><time>2026-05-02T17:01:37.39Z</time></trkpt><trkpt lat="32.4242407" lon="-110.7368485"><ele>2401.3333333333335</ele><time>2026-05-02T17:01:38.391Z</time></trkpt><trkpt lat="32.4242119" lon="-110.7366559"><ele>2401.6666666666665</ele><time>2026-05-02T17:01:39.39Z</time></trkpt><trkpt lat="32.4241884" lon="-110.7364573"><ele>2402.0</ele><time>2026-05-02T17:01:40.391Z</time></trkpt><trkpt lat="32.4241745" lon="-110.7362516"><ele>2401.0</ele><time>2026-05-02T17:01:41.391Z</time></trkpt><trkpt lat="32.4241669" lon="-110.7360508"><ele>2400.0</ele><time>2026-05-02T17:01:42.39Z</time></trkpt><trkpt lat="32.4241693" lon="-110.735844"><ele>2399.0</ele><time>2026-05-02T17:01:43.39Z</time></trkpt><trkpt lat="32.4241685" lon="-110.7356482"><ele>2399.0</ele><time>2026-05-02T17:01:44.39Z</time></trkpt><trkpt lat="32.4241566" lon="-110.7354732"><ele>2399.0</ele><time>2026-05-02T17:01:45.391Z</time></trkpt><trkpt lat="32.4241243" lon="-110.7353162"><ele>2399.0</ele><time>2026-05-02T17:01:46.39Z</time></trkpt><trkpt lat="32.4240621" lon="-110.7351711"><ele>2399.0</ele><time>2026-05-02T17:01:47.391Z</time></trkpt><trkpt lat="32.4239786" lon="-110.7350478"><ele>2399.75</ele><time>2026-05-02T17:01:48.39Z</time></trkpt><trkpt lat="32.4238655" lon="-110.7349476"><ele>2400.5</ele><time>2026-05-02T17:01:49.391Z</time></trkpt><trkpt lat="32.4237441" lon="-110.7348719"><ele>2401.25</ele><time>2026-05-02T17:01:50.391Z</time></trkpt><trkpt lat="32.4236194" lon="-110.7348248"><ele>2402.0</ele><time>2026-05-02T17:01:51.39Z</time></trkpt><trkpt lat="32.4234829" lon="-110.7348154"><ele>2402.0</ele><time>2026-05-02T17:01:52.39Z</time></trkpt><trkpt lat="32.4233441" lon="-110.7348469"><ele>2402.0</ele><time>2026-05-02T17:01:53.39Z</time></trkpt><trkpt lat="32.4232217" lon="-110.7349184"><ele>2402.0</ele><time>2026-05-02T17:01:54.39Z</time></trkpt><trkpt lat="32.4231138" lon="-110.7350177"><ele>2402.0</ele><time>2026-05-02T17:01:55.391Z</time></trkpt><trkpt lat="32.4230235" lon="-110.7351553"><ele>2408.75</ele><time>2026-05-02T17:01:56.391Z</time></trkpt><trkpt lat="32.4229683" lon="-110.735309"><ele>2415.5</ele><time>2026-05-02T17:01:57.391Z</time></trkpt><trkpt lat="32.4229366" lon="-110.7354676"><ele>2422.25</ele><time>2026-05-02T17:01:58.391Z</time></trkpt><trkpt lat="32.4229217" lon="-110.7356291"><ele>2429.0</ele><time>2026-05-02T17:01:59.391Z</time></trkpt><trkpt lat="32.4229498" lon="-110.7358046"><ele>2424.0</ele><time>2026-05-02T17:02:00.39Z</time></trkpt><trkpt lat="32.4229974" lon="-110.7359806"><ele>2419.0</ele><time>2026-05-02T17:02:01.39Z</time></trkpt><trkpt lat="32.4230534" lon="-110.7361539"><ele>2414.0</ele><time>2026-05-02T17:02:02.39Z</time></trkpt><trkpt lat="32.4231175" lon="-110.7363225"><ele>2414.0</ele><time>2026-05-02T17:02:03.391Z</time></trkpt><trkpt lat="32.4231771" lon="-110.7364972"><ele>2414.0</ele><time>2026-05-02T17:02:04.39Z</time></trkpt><trkpt lat="32.4232367" lon="-110.7366833"><ele>2414.0</ele><time>2026-05-02T17:02:05.391Z</time></trkpt><trkpt lat="32.4232999" lon="-110.736858"><ele>2419.0</ele><time>2026-05-02T17:02:06.391Z</time></trkpt><trkpt lat="32.4233582" lon="-110.7370363"><ele>2424.0</ele><time>2026-05-02T17:02:07.391Z</time></trkpt><trkpt lat="32.4234212" lon="-110.7372117"><ele>2429.0</ele><time>2026-05-02T17:02:08.39Z</time></trkpt><trkpt lat="32.4234809" lon="-110.7373896"><ele>2429.0</ele><time>2026-05-02T17:02:09.39Z</time></trkpt><trkpt lat="32.4235429" lon="-110.7375727"><ele>2429.0</ele><time>2026-05-02T17:02:10.391Z</time></trkpt><trkpt lat="32.4236066" lon="-110.7377503"><ele>2429.0</ele><time>2026-05-02T17:02:11.391Z</time></trkpt><trkpt lat="32.4236781" lon="-110.7379193"><ele>2433.333333333333</ele><time>2026-05-02T17:02:12.39Z</time></trkpt><trkpt lat="32.4237354" lon="-110.7380903"><ele>2437.6666666666665</ele><time>2026-05-02T17:02:13.391Z</time></trkpt><trkpt lat="32.4237783" lon="-110.7382689"><ele>2442.0</ele><time>2026-05-02T17:02:14.391Z</time></trkpt><trkpt lat="32.4237977" lon="-110.7384511"><ele>2439.5</ele><time>2026-05-02T17:02:15.39Z</time></trkpt><trkpt lat="32.423791" lon="-110.7386238"><ele>2437.0</ele><time>2026-05-02T17:02:16.391Z</time></trkpt><trkpt lat="32.4237661" lon="-110.7387908"><ele>2434.5</ele><time>2026-05-02T17:02:17.391Z</time></trkpt><trkpt lat="32.4237064" lon="-110.7389496"><ele>2432.0</ele><time>2026-05-02T17:02:18.391Z</time></trkpt><trkpt lat="32.4236268" lon="-110.7390948"><ele>2432.0</ele><time>2026-05-02T17:02:19.39Z</time></trkpt><trkpt lat="32.4235122" lon="-110.739223"><ele>2432.0</ele><time>2026-05-02T17:02:20.39Z</time></trkpt><trkpt lat="32.4233803" lon="-110.7393155"><ele>2432.0</ele><time>2026-05-02T17:02:21.39Z</time></trkpt><trkpt lat="32.4232406" lon="-110.7393758"><ele>2431.333333333333</ele><time>2026-05-02T17:02:22.39Z</time></trkpt><trkpt lat="32.4230866" lon="-110.7394113"><ele>2430.6666666666665</ele><time>2026-05-02T17:02:23.391Z</time></trkpt><trkpt lat="32.422924" lon="-110.7394209"><ele>2430.0</ele><time>2026-05-02T17:02:24.39Z</time></trkpt><trkpt lat="32.422759" lon="-110.7394194"><ele>2430.0</ele><time>2026-05-02T17:02:25.39Z</time></trkpt><trkpt lat="32.4225928" lon="-110.7394087"><ele>2430.0</ele><time>2026-05-02T17:02:26.39Z</time></trkpt><trkpt lat="32.4224302" lon="-110.7394054"><ele>2430.0</ele><time>2026-05-02T17:02:27.39Z</time></trkpt><trkpt lat="32.4222629" lon="-110.7394202"><ele>2435.0</ele><time>2026-05-02T17:02:28.39Z</time></trkpt><trkpt lat="32.422103" lon="-110.7394475"><ele>2440.0</ele><time>2026-05-02T17:02:29.39Z</time></trkpt><trkpt lat="32.421945" lon="-110.7394979"><ele>2445.0</ele><time>2026-05-02T17:02:30.39Z</time></trkpt><trkpt lat="32.4217888" lon="-110.7395609"><ele>2445.0</ele><time>2026-05-02T17:02:31.391Z</time></trkpt><trkpt lat="32.4216372" lon="-110.7396387"><ele>2445.0</ele><time>2026-05-02T17:02:32.391Z</time></trkpt><trkpt lat="32.4214933" lon="-110.7397193"><ele>2445.0</ele><time>2026-05-02T17:02:33.391Z</time></trkpt><trkpt lat="32.4213463" lon="-110.7397923"><ele>2448.3333333333335</ele><time>2026-05-02T17:02:34.39Z</time></trkpt><trkpt lat="32.421192" lon="-110.7398591"><ele>2451.666666666667</ele><time>2026-05-02T17:02:35.391Z</time></trkpt><trkpt lat="32.4210334" lon="-110.7399234"><ele>2455.0</ele><time>2026-05-02T17:02:36.39Z</time></trkpt><trkpt lat="32.420872" lon="-110.7399722"><ele>2455.0</ele><time>2026-05-02T17:02:37.391Z</time></trkpt><trkpt lat="32.4207041" lon="-110.7400038"><ele>2455.0</ele><time>2026-05-02T17:02:38.391Z</time></trkpt><trkpt lat="32.4205404" lon="-110.7400106"><ele>2455.0</ele><time>2026-05-02T17:02:39.39Z</time></trkpt><trkpt lat="32.420378" lon="-110.7400009"><ele>2455.3333333333335</ele><time>2026-05-02T17:02:40.39Z</time></trkpt><trkpt lat="32.4202152" lon="-110.7399642"><ele>2455.6666666666665</ele><time>2026-05-02T17:02:41.391Z</time></trkpt><trkpt lat="32.4200541" lon="-110.7399139"><ele>2456.0</ele><time>2026-05-02T17:02:42.39Z</time></trkpt><trkpt lat="32.419898" lon="-110.7398447"><ele>2456.0</ele><time>2026-05-02T17:02:43.39Z</time></trkpt><trkpt lat="32.4197489" lon="-110.7397614"><ele>2456.0</ele><time>2026-05-02T17:02:44.391Z</time></trkpt><trkpt lat="32.4196086" lon="-110.7396542"><ele>2456.0</ele><time>2026-05-02T17:02:45.391Z</time></trkpt><trkpt lat="32.4194762" lon="-110.7395302"><ele>2454.333333333333</ele><time>2026-05-02T17:02:46.39Z</time></trkpt><trkpt lat="32.4193594" lon="-110.7393919"><ele>2452.6666666666665</ele><time>2026-05-02T17:02:47.39Z</time></trkpt><trkpt lat="32.4192496" lon="-110.7392369"><ele>2451.0</ele><time>2026-05-02T17:02:48.39Z</time></trkpt><trkpt lat="32.4191406" lon="-110.7390796"><ele>2451.0</ele><time>2026-05-02T17:02:49.39Z</time></trkpt><trkpt lat="32.4190302" lon="-110.7389208"><ele>2451.0</ele><time>2026-05-02T17:02:50.391Z</time></trkpt><trkpt lat="32.4189207" lon="-110.7387613"><ele>2451.0</ele><time>2026-05-02T17:02:51.391Z</time></trkpt><trkpt lat="32.4188092" lon="-110.7385952"><ele>2451.3333333333335</ele><time>2026-05-02T17:02:52.391Z</time></trkpt><trkpt lat="32.4186983" lon="-110.7384342"><ele>2451.666666666667</ele><time>2026-05-02T17:02:53.391Z</time></trkpt><trkpt lat="32.4185848" lon="-110.738272"><ele>2452.0</ele><time>2026-05-02T17:02:54.391Z</time></trkpt><trkpt lat="32.418474" lon="-110.7381056"><ele>2452.0</ele><time>2026-05-02T17:02:55.391Z</time></trkpt><trkpt lat="32.418374" lon="-110.7379297"><ele>2452.0</ele><time>2026-05-02T17:02:56.39Z</time></trkpt><trkpt lat="32.4182703" lon="-110.7377589"><ele>2452.0</ele><time>2026-05-02T17:02:57.391Z</time></trkpt><trkpt lat="32.4181641" lon="-110.737589"><ele>2451.0</ele><time>2026-05-02T17:02:58.391Z</time></trkpt><trkpt lat="32.4180514" lon="-110.7374342"><ele>2450.0</ele><time>2026-05-02T17:02:59.39Z</time></trkpt><trkpt lat="32.4179278" lon="-110.7372919"><ele>2449.0</ele><time>2026-05-02T17:03:00.39Z</time></trkpt><trkpt lat="32.417786" lon="-110.737163"><ele>2449.0</ele><time>2026-05-02T17:03:01.391Z</time></trkpt><trkpt lat="32.4176417" lon="-110.7370425"><ele>2449.0</ele><time>2026-05-02T17:03:02.391Z</time></trkpt><trkpt lat="32.4175019" lon="-110.7369239"><ele>2449.0</ele><time>2026-05-02T17:03:03.39Z</time></trkpt><trkpt lat="32.4173423" lon="-110.7368306"><ele>2453.0</ele><time>2026-05-02T17:03:04.391Z</time></trkpt><trkpt lat="32.4171762" lon="-110.7367506"><ele>2457.0</ele><time>2026-05-02T17:03:05.391Z</time></trkpt><trkpt lat="32.4170045" lon="-110.7366838"><ele>2461.0</ele><time>2026-05-02T17:03:06.39Z</time></trkpt><trkpt lat="32.4168238" lon="-110.7366348"><ele>2461.0</ele><time>2026-05-02T17:03:07.39Z</time></trkpt><trkpt lat="32.4166485" lon="-110.7365845"><ele>2461.0</ele><time>2026-05-02T17:03:08.391Z</time></trkpt><trkpt lat="32.4164697" lon="-110.7365413"><ele>2461.0</ele><time>2026-05-02T17:03:09.391Z</time></trkpt><trkpt lat="32.4163034" lon="-110.7364853"><ele>2459.3333333333335</ele><time>2026-05-02T17:03:10.39Z</time></trkpt><trkpt lat="32.4161394" lon="-110.7364229"><ele>2457.6666666666665</ele><time>2026-05-02T17:03:11.391Z</time></trkpt><trkpt lat="32.4159873" lon="-110.7363494"><ele>2456.0</ele><time>2026-05-02T17:03:12.391Z</time></trkpt><trkpt lat="32.4158484" lon="-110.7362473"><ele>2456.0</ele><time>2026-05-02T17:03:13.391Z</time></trkpt><trkpt lat="32.4157241" lon="-110.7361281"><ele>2456.0</ele><time>2026-05-02T17:03:14.391Z</time></trkpt><trkpt lat="32.4156201" lon="-110.7359855"><ele>2456.0</ele><time>2026-05-02T17:03:15.391Z</time></trkpt><trkpt lat="32.4155496" lon="-110.7358175"><ele>2456.333333333333</ele><time>2026-05-02T17:03:16.391Z</time></trkpt><trkpt lat="32.4154919" lon="-110.7356462"><ele>2456.6666666666665</ele><time>2026-05-02T17:03:17.391Z</time></trkpt><trkpt lat="32.4154739" lon="-110.735452"><ele>2457.0</ele><time>2026-05-02T17:03:18.391Z</time></trkpt><trkpt lat="32.4154805" lon="-110.7352447"><ele>2463.6666666666665</ele><time>2026-05-02T17:03:19.391Z</time></trkpt><trkpt lat="32.4155109" lon="-110.7350239"><ele>2470.333333333333</ele><time>2026-05-02T17:03:20.391Z</time></trkpt><trkpt lat="32.4155391" lon="-110.7348079"><ele>2477.0</ele><time>2026-05-02T17:03:21.391Z</time></trkpt><trkpt lat="32.4155674" lon="-110.7346"><ele>2477.0</ele><time>2026-05-02T17:03:22.392Z</time></trkpt><trkpt lat="32.4155976" lon="-110.7343886"><ele>2477.0</ele><time>2026-05-02T17:03:23.391Z</time></trkpt><trkpt lat="32.4156268" lon="-110.7341836"><ele>2477.0</ele><time>2026-05-02T17:03:24.392Z</time></trkpt><trkpt lat="32.4156555" lon="-110.7339904"><ele>2477.0</ele><time>2026-05-02T17:03:25.392Z</time></trkpt><trkpt lat="32.415682" lon="-110.7337959"><ele>2477.0</ele><time>2026-05-02T17:03:26.392Z</time></trkpt><trkpt lat="32.4157061" lon="-110.7335996"><ele>2477.0</ele><time>2026-05-02T17:03:27.391Z</time></trkpt><trkpt lat="32.4157216" lon="-110.7334044"><ele>2479.333333333333</ele><time>2026-05-02T17:03:28.391Z</time></trkpt><trkpt lat="32.4157191" lon="-110.7332062"><ele>2481.6666666666665</ele><time>2026-05-02T17:03:29.391Z</time></trkpt><trkpt lat="32.4157053" lon="-110.7330054"><ele>2484.0</ele><time>2026-05-02T17:03:30.392Z</time></trkpt><trkpt lat="32.4156661" lon="-110.7328104"><ele>2480.3333333333335</ele><time>2026-05-02T17:03:31.391Z</time></trkpt><trkpt lat="32.4155959" lon="-110.7326377"><ele>2476.666666666667</ele><time>2026-05-02T17:03:32.391Z</time></trkpt><trkpt lat="32.4155047" lon="-110.7324778"><ele>2473.0</ele><time>2026-05-02T17:03:33.392Z</time></trkpt><trkpt lat="32.4153918" lon="-110.7323356"><ele>2473.0</ele><time>2026-05-02T17:03:34.391Z</time></trkpt><trkpt lat="32.4152549" lon="-110.7322198"><ele>2473.0</ele><time>2026-05-02T17:03:35.392Z</time></trkpt><trkpt lat="32.4151057" lon="-110.7321199"><ele>2473.0</ele><time>2026-05-02T17:03:36.391Z</time></trkpt><trkpt lat="32.414962" lon="-110.7320132"><ele>2473.0</ele><time>2026-05-02T17:03:37.392Z</time></trkpt><trkpt lat="32.4148033" lon="-110.7319529"><ele>2473.0</ele><time>2026-05-02T17:03:38.392Z</time></trkpt><trkpt lat="32.4146374" lon="-110.7319254"><ele>2473.0</ele><time>2026-05-02T17:03:39.392Z</time></trkpt><trkpt lat="32.4144596" lon="-110.7319194"><ele>2475.3333333333335</ele><time>2026-05-02T17:03:40.391Z</time></trkpt><trkpt lat="32.4142904" lon="-110.7319032"><ele>2477.6666666666665</ele><time>2026-05-02T17:03:41.392Z</time></trkpt><trkpt lat="32.4141188" lon="-110.7318842"><ele>2480.0</ele><time>2026-05-02T17:03:42.392Z</time></trkpt><trkpt lat="32.413957" lon="-110.7318557"><ele>2486.0</ele><time>2026-05-02T17:03:43.391Z</time></trkpt><trkpt lat="32.4137919" lon="-110.7318149"><ele>2492.0</ele><time>2026-05-02T17:03:44.392Z</time></trkpt><trkpt lat="32.413628" lon="-110.7317641"><ele>2498.0</ele><time>2026-05-02T17:03:45.392Z</time></trkpt><trkpt lat="32.4134617" lon="-110.7316964"><ele>2498.0</ele><time>2026-05-02T17:03:46.392Z</time></trkpt><trkpt lat="32.4133013" lon="-110.7316283"><ele>2498.0</ele><time>2026-05-02T17:03:47.392Z</time></trkpt><trkpt lat="32.413142" lon="-110.7315468"><ele>2498.0</ele><time>2026-05-02T17:03:48.391Z</time></trkpt><trkpt lat="32.4129852" lon="-110.7314565"><ele>2494.0</ele><time>2026-05-02T17:03:49.392Z</time></trkpt><trkpt lat="32.4128353" lon="-110.7313528"><ele>2490.0</ele><time>2026-05-02T17:03:50.391Z</time></trkpt><trkpt lat="32.412689" lon="-110.7312417"><ele>2486.0</ele><time>2026-05-02T17:03:51.392Z</time></trkpt><trkpt lat="32.4125507" lon="-110.7311176"><ele>2489.0</ele><time>2026-05-02T17:03:52.391Z</time></trkpt><trkpt lat="32.4124159" lon="-110.7309932"><ele>2492.0</ele><time>2026-05-02T17:03:53.392Z</time></trkpt><trkpt lat="32.412291" lon="-110.7308533"><ele>2495.0</ele><time>2026-05-02T17:03:54.391Z</time></trkpt><trkpt lat="32.4121733" lon="-110.7307059"><ele>2495.6666666666665</ele><time>2026-05-02T17:03:55.391Z</time></trkpt><trkpt lat="32.4120671" lon="-110.730552"><ele>2496.3333333333335</ele><time>2026-05-02T17:03:56.391Z</time></trkpt><trkpt lat="32.4119641" lon="-110.7303893"><ele>2497.0</ele><time>2026-05-02T17:03:57.392Z</time></trkpt><trkpt lat="32.4118694" lon="-110.7302227"><ele>2497.0</ele><time>2026-05-02T17:03:58.392Z</time></trkpt><trkpt lat="32.4117768" lon="-110.7300574"><ele>2497.0</ele><time>2026-05-02T17:03:59.391Z</time></trkpt><trkpt lat="32.4116843" lon="-110.7298875"><ele>2497.0</ele><time>2026-05-02T17:04:00.392Z</time></trkpt><trkpt lat="32.4115876" lon="-110.7297212"><ele>2497.0</ele><time>2026-05-02T17:04:01.391Z</time></trkpt><trkpt lat="32.4114886" lon="-110.7295532"><ele>2497.0</ele><time>2026-05-02T17:04:02.391Z</time></trkpt><trkpt lat="32.4113891" lon="-110.7293843"><ele>2497.0</ele><time>2026-05-02T17:04:03.392Z</time></trkpt><trkpt lat="32.4112929" lon="-110.7292166"><ele>2495.3333333333335</ele><time>2026-05-02T17:04:04.391Z</time></trkpt><trkpt lat="32.4111949" lon="-110.7290409"><ele>2493.6666666666665</ele><time>2026-05-02T17:04:05.392Z</time></trkpt><trkpt lat="32.4111001" lon="-110.7288693"><ele>2492.0</ele><time>2026-05-02T17:04:06.391Z</time></trkpt><trkpt lat="32.4109991" lon="-110.7287018"><ele>2493.6666666666665</ele><time>2026-05-02T17:04:07.392Z</time></trkpt><trkpt lat="32.4109021" lon="-110.728529"><ele>2495.3333333333335</ele><time>2026-05-02T17:04:08.391Z</time></trkpt><trkpt lat="32.410806" lon="-110.7283585"><ele>2497.0</ele><time>2026-05-02T17:04:09.391Z</time></trkpt><trkpt lat="32.4107108" lon="-110.7281856"><ele>2497.0</ele><time>2026-05-02T17:04:10.391Z</time></trkpt><trkpt lat="32.4106215" lon="-110.7280114"><ele>2497.0</ele><time>2026-05-02T17:04:11.392Z</time></trkpt><trkpt lat="32.4105346" lon="-110.7278358"><ele>2497.0</ele><time>2026-05-02T17:04:12.392Z</time></trkpt><trkpt lat="32.4104581" lon="-110.7276575"><ele>2495.666666666667</ele><time>2026-05-02T17:04:13.391Z</time></trkpt><trkpt lat="32.4103882" lon="-110.7274743"><ele>2494.3333333333335</ele><time>2026-05-02T17:04:14.392Z</time></trkpt><trkpt lat="32.4103272" lon="-110.7272871"><ele>2493.0</ele><time>2026-05-02T17:04:15.391Z</time></trkpt><trkpt lat="32.4102749" lon="-110.7270953"><ele>2493.0</ele><time>2026-05-02T17:04:16.391Z</time></trkpt><trkpt lat="32.4102272" lon="-110.7268997"><ele>2493.0</ele><time>2026-05-02T17:04:17.392Z</time></trkpt><trkpt lat="32.4101896" lon="-110.7266926"><ele>2493.0</ele><time>2026-05-02T17:04:18.392Z</time></trkpt><trkpt lat="32.4101519" lon="-110.7264838"><ele>2493.6666666666665</ele><time>2026-05-02T17:04:19.391Z</time></trkpt><trkpt lat="32.4101199" lon="-110.7262707"><ele>2494.333333333333</ele><time>2026-05-02T17:04:20.392Z</time></trkpt><trkpt lat="32.4100854" lon="-110.726061"><ele>2495.0</ele><time>2026-05-02T17:04:21.391Z</time></trkpt><trkpt lat="32.4100474" lon="-110.7258514"><ele>2495.0</ele><time>2026-05-02T17:04:22.391Z</time></trkpt><trkpt lat="32.4100069" lon="-110.7256447"><ele>2495.0</ele><time>2026-05-02T17:04:23.391Z</time></trkpt><trkpt lat="32.4099728" lon="-110.7254304"><ele>2495.0</ele><time>2026-05-02T17:04:24.391Z</time></trkpt><trkpt lat="32.4099407" lon="-110.7252143"><ele>2496.333333333333</ele><time>2026-05-02T17:04:25.392Z</time></trkpt><trkpt lat="32.4099073" lon="-110.7250104"><ele>2497.6666666666665</ele><time>2026-05-02T17:04:26.392Z</time></trkpt><trkpt lat="32.4098775" lon="-110.7248098"><ele>2499.0</ele><time>2026-05-02T17:04:27.391Z</time></trkpt><trkpt lat="32.4098493" lon="-110.724614"><ele>2499.0</ele><time>2026-05-02T17:04:28.392Z</time></trkpt><trkpt lat="32.4098324" lon="-110.7244185"><ele>2499.0</ele><time>2026-05-02T17:04:29.391Z</time></trkpt><trkpt lat="32.4098287" lon="-110.7242328"><ele>2499.0</ele><time>2026-05-02T17:04:30.391Z</time></trkpt><trkpt lat="32.4098523" lon="-110.7240477"><ele>2496.3333333333335</ele><time>2026-05-02T17:04:31.391Z</time></trkpt><trkpt lat="32.4099009" lon="-110.723871"><ele>2493.666666666667</ele><time>2026-05-02T17:04:32.391Z</time></trkpt><trkpt lat="32.4099612" lon="-110.7237059"><ele>2491.0</ele><time>2026-05-02T17:04:33.392Z</time></trkpt><trkpt lat="32.410068" lon="-110.7235794"><ele>2484.666666666667</ele><time>2026-05-02T17:04:34.392Z</time></trkpt><trkpt lat="32.4101928" lon="-110.7234641"><ele>2478.3333333333335</ele><time>2026-05-02T17:04:35.391Z</time></trkpt><trkpt lat="32.41033" lon="-110.7233771"><ele>2472.0</ele><time>2026-05-02T17:04:36.392Z</time></trkpt><trkpt lat="32.41047" lon="-110.7233032"><ele>2476.0</ele><time>2026-05-02T17:04:37.392Z</time></trkpt><trkpt lat="32.410615" lon="-110.7232416"><ele>2480.0</ele><time>2026-05-02T17:04:38.391Z</time></trkpt><trkpt lat="32.4107503" lon="-110.723166"><ele>2484.0</ele><time>2026-05-02T17:04:39.391Z</time></trkpt><trkpt lat="32.4108699" lon="-110.7230658"><ele>2484.0</ele><time>2026-05-02T17:04:40.392Z</time></trkpt><trkpt lat="32.4109781" lon="-110.7229568"><ele>2484.0</ele><time>2026-05-02T17:04:41.392Z</time></trkpt><trkpt lat="32.4110534" lon="-110.7228107"><ele>2484.0</ele><time>2026-05-02T17:04:42.391Z</time></trkpt><trkpt lat="32.4111068" lon="-110.7226538"><ele>2484.0</ele><time>2026-05-02T17:04:43.391Z</time></trkpt><trkpt lat="32.4111132" lon="-110.7224657"><ele>2477.0</ele><time>2026-05-02T17:04:44.391Z</time></trkpt><trkpt lat="32.4111016" lon="-110.722271"><ele>2470.0</ele><time>2026-05-02T17:04:45.391Z</time></trkpt><trkpt lat="32.411087" lon="-110.7220705"><ele>2463.0</ele><time>2026-05-02T17:04:46.391Z</time></trkpt><trkpt lat="32.4110645" lon="-110.7218605"><ele>2461.3333333333335</ele><time>2026-05-02T17:04:47.392Z</time></trkpt><trkpt lat="32.4110355" lon="-110.7216608"><ele>2459.666666666667</ele><time>2026-05-02T17:04:48.391Z</time></trkpt><trkpt lat="32.411006" lon="-110.7214603"><ele>2458.0</ele><time>2026-05-02T17:04:49.392Z</time></trkpt><trkpt lat="32.41097" lon="-110.7212633"><ele>2458.0</ele><time>2026-05-02T17:04:50.391Z</time></trkpt><trkpt lat="32.4109288" lon="-110.7210785"><ele>2458.0</ele><time>2026-05-02T17:04:51.393Z</time></trkpt><trkpt lat="32.4108851" lon="-110.7208855"><ele>2458.0</ele><time>2026-05-02T17:04:52.393Z</time></trkpt><trkpt lat="32.410841" lon="-110.720693"><ele>2459.0</ele><time>2026-05-02T17:04:53.392Z</time></trkpt><trkpt lat="32.4108009" lon="-110.7204958"><ele>2460.0</ele><time>2026-05-02T17:04:54.392Z</time></trkpt><trkpt lat="32.4107662" lon="-110.7203008"><ele>2461.0</ele><time>2026-05-02T17:04:55.393Z</time></trkpt><trkpt lat="32.4107456" lon="-110.7201025"><ele>2462.0</ele><time>2026-05-02T17:04:56.392Z</time></trkpt><trkpt lat="32.4107343" lon="-110.7198978"><ele>2463.0</ele><time>2026-05-02T17:04:57.392Z</time></trkpt><trkpt lat="32.4107319" lon="-110.7196812"><ele>2464.0</ele><time>2026-05-02T17:04:58.392Z</time></trkpt><trkpt lat="32.4107425" lon="-110.7194599"><ele>2461.666666666667</ele><time>2026-05-02T17:04:59.392Z</time></trkpt><trkpt lat="32.4107521" lon="-110.7192413"><ele>2459.3333333333335</ele><time>2026-05-02T17:05:00.392Z</time></trkpt><trkpt lat="32.4107666" lon="-110.7190173"><ele>2457.0</ele><time>2026-05-02T17:05:01.393Z</time></trkpt><trkpt lat="32.4107883" lon="-110.718798"><ele>2457.0</ele><time>2026-05-02T17:05:02.392Z</time></trkpt><trkpt lat="32.410807" lon="-110.7185871"><ele>2457.0</ele><time>2026-05-02T17:05:03.392Z</time></trkpt><trkpt lat="32.4108251" lon="-110.7183781"><ele>2457.0</ele><time>2026-05-02T17:05:04.393Z</time></trkpt><trkpt lat="32.4108444" lon="-110.7181745"><ele>2455.3333333333335</ele><time>2026-05-02T17:05:05.393Z</time></trkpt><trkpt lat="32.4108471" lon="-110.717975"><ele>2453.666666666667</ele><time>2026-05-02T17:05:06.392Z</time></trkpt><trkpt lat="32.4108206" lon="-110.7177653"><ele>2452.0</ele><time>2026-05-02T17:05:07.392Z</time></trkpt><trkpt lat="32.4107815" lon="-110.7175574"><ele>2450.666666666667</ele><time>2026-05-02T17:05:08.392Z</time></trkpt><trkpt lat="32.4107338" lon="-110.7173575"><ele>2449.3333333333335</ele><time>2026-05-02T17:05:09.393Z</time></trkpt><trkpt lat="32.4106956" lon="-110.7171598"><ele>2448.0</ele><time>2026-05-02T17:05:10.392Z</time></trkpt><trkpt lat="32.4106658" lon="-110.7169709"><ele>2446.3333333333335</ele><time>2026-05-02T17:05:11.393Z</time></trkpt><trkpt lat="32.4106507" lon="-110.7167848"><ele>2444.666666666667</ele><time>2026-05-02T17:05:12.392Z</time></trkpt><trkpt lat="32.4106487" lon="-110.7166037"><ele>2443.0</ele><time>2026-05-02T17:05:13.392Z</time></trkpt><trkpt lat="32.4106736" lon="-110.7164143"><ele>2443.0</ele><time>2026-05-02T17:05:14.392Z</time></trkpt><trkpt lat="32.4107247" lon="-110.7162257"><ele>2443.0</ele><time>2026-05-02T17:05:15.393Z</time></trkpt><trkpt lat="32.4107751" lon="-110.7160382"><ele>2443.0</ele><time>2026-05-02T17:05:16.393Z</time></trkpt><trkpt lat="32.4108397" lon="-110.7158447"><ele>2441.3333333333335</ele><time>2026-05-02T17:05:17.393Z</time></trkpt><trkpt lat="32.410891" lon="-110.7156536"><ele>2439.6666666666665</ele><time>2026-05-02T17:05:18.393Z</time></trkpt><trkpt lat="32.4109233" lon="-110.7154704"><ele>2438.0</ele><time>2026-05-02T17:05:19.393Z</time></trkpt><trkpt lat="32.4109329" lon="-110.7152828"><ele>2436.333333333333</ele><time>2026-05-02T17:05:20.393Z</time></trkpt><trkpt lat="32.4109182" lon="-110.7150861"><ele>2434.6666666666665</ele><time>2026-05-02T17:05:21.393Z</time></trkpt><trkpt lat="32.4108809" lon="-110.714892"><ele>2433.0</ele><time>2026-05-02T17:05:22.392Z</time></trkpt><trkpt lat="32.4108144" lon="-110.7147097"><ele>2433.0</ele><time>2026-05-02T17:05:23.392Z</time></trkpt><trkpt lat="32.4107273" lon="-110.714539"><ele>2433.0</ele><time>2026-05-02T17:05:24.392Z</time></trkpt><trkpt lat="32.4106134" lon="-110.7143882"><ele>2433.0</ele><time>2026-05-02T17:05:25.393Z</time></trkpt><trkpt lat="32.4104779" lon="-110.7142578"><ele>2430.6666666666665</ele><time>2026-05-02T17:05:26.393Z</time></trkpt><trkpt lat="32.4103319" lon="-110.7141408"><ele>2428.333333333333</ele><time>2026-05-02T17:05:27.392Z</time></trkpt><trkpt lat="32.4101921" lon="-110.7140309"><ele>2426.0</ele><time>2026-05-02T17:05:28.393Z</time></trkpt><trkpt lat="32.4100523" lon="-110.7139235"><ele>2426.0</ele><time>2026-05-02T17:05:29.392Z</time></trkpt><trkpt lat="32.4099131" lon="-110.713819"><ele>2426.0</ele><time>2026-05-02T17:05:30.392Z</time></trkpt><trkpt lat="32.4097721" lon="-110.7137115"><ele>2426.0</ele><time>2026-05-02T17:05:31.392Z</time></trkpt><trkpt lat="32.4096307" lon="-110.7136106"><ele>2424.6666666666665</ele><time>2026-05-02T17:05:32.392Z</time></trkpt><trkpt lat="32.4094902" lon="-110.7135161"><ele>2423.3333333333335</ele><time>2026-05-02T17:05:33.392Z</time></trkpt><trkpt lat="32.4093534" lon="-110.7134235"><ele>2422.0</ele><time>2026-05-02T17:05:34.392Z</time></trkpt><trkpt lat="32.4092266" lon="-110.7133246"><ele>2422.0</ele><time>2026-05-02T17:05:35.393Z</time></trkpt><trkpt lat="32.4091082" lon="-110.7132109"><ele>2422.0</ele><time>2026-05-02T17:05:36.392Z</time></trkpt><trkpt lat="32.4089963" lon="-110.7130784"><ele>2422.0</ele><time>2026-05-02T17:05:37.392Z</time></trkpt><trkpt lat="32.4089011" lon="-110.7129282"><ele>2422.0</ele><time>2026-05-02T17:05:38.393Z</time></trkpt><trkpt lat="32.4088277" lon="-110.7127597"><ele>2422.0</ele><time>2026-05-02T17:05:39.393Z</time></trkpt><trkpt lat="32.4087668" lon="-110.7125847"><ele>2422.0</ele><time>2026-05-02T17:05:40.393Z</time></trkpt><trkpt lat="32.408725" lon="-110.7123969"><ele>2418.0</ele><time>2026-05-02T17:05:41.392Z</time></trkpt><trkpt lat="32.4087026" lon="-110.7122019"><ele>2414.0</ele><time>2026-05-02T17:05:42.393Z</time></trkpt><trkpt lat="32.4087012" lon="-110.7120022"><ele>2410.0</ele><time>2026-05-02T17:05:43.393Z</time></trkpt><trkpt lat="32.4087119" lon="-110.7117935"><ele>2409.3333333333335</ele><time>2026-05-02T17:05:44.393Z</time></trkpt><trkpt lat="32.4087324" lon="-110.7115795"><ele>2408.6666666666665</ele><time>2026-05-02T17:05:45.393Z</time></trkpt><trkpt lat="32.4087559" lon="-110.7113663"><ele>2408.0</ele><time>2026-05-02T17:05:46.392Z</time></trkpt><trkpt lat="32.4087737" lon="-110.7111543"><ele>2410.333333333333</ele><time>2026-05-02T17:05:47.393Z</time></trkpt><trkpt lat="32.4087988" lon="-110.7109423"><ele>2412.6666666666665</ele><time>2026-05-02T17:05:48.392Z</time></trkpt><trkpt lat="32.4088205" lon="-110.7107365"><ele>2415.0</ele><time>2026-05-02T17:05:49.393Z</time></trkpt><trkpt lat="32.4088373" lon="-110.7105354"><ele>2415.0</ele><time>2026-05-02T17:05:50.392Z</time></trkpt><trkpt lat="32.4088578" lon="-110.7103412"><ele>2415.0</ele><time>2026-05-02T17:05:51.393Z</time></trkpt><trkpt lat="32.408885" lon="-110.7101534"><ele>2415.0</ele><time>2026-05-02T17:05:52.392Z</time></trkpt><trkpt lat="32.4089177" lon="-110.709971"><ele>2414.0</ele><time>2026-05-02T17:05:53.392Z</time></trkpt><trkpt lat="32.4089836" lon="-110.7098049"><ele>2413.0</ele><time>2026-05-02T17:05:54.392Z</time></trkpt><trkpt lat="32.4090674" lon="-110.7096564"><ele>2412.0</ele><time>2026-05-02T17:05:55.393Z</time></trkpt><trkpt lat="32.4091741" lon="-110.7095235"><ele>2412.0</ele><time>2026-05-02T17:05:56.392Z</time></trkpt><trkpt lat="32.4092927" lon="-110.7094149"><ele>2412.0</ele><time>2026-05-02T17:05:57.392Z</time></trkpt><trkpt lat="32.4094297" lon="-110.7093292"><ele>2412.0</ele><time>2026-05-02T17:05:58.392Z</time></trkpt><trkpt lat="32.4095785" lon="-110.7092659"><ele>2410.5</ele><time>2026-05-02T17:05:59.393Z</time></trkpt><trkpt lat="32.4097163" lon="-110.7092034"><ele>2409.0</ele><time>2026-05-02T17:06:00.392Z</time></trkpt><trkpt lat="32.4098535" lon="-110.7091446"><ele>2407.5</ele><time>2026-05-02T17:06:01.392Z</time></trkpt><trkpt lat="32.4099822" lon="-110.7090654"><ele>2406.0</ele><time>2026-05-02T17:06:02.392Z</time></trkpt><trkpt lat="32.4100991" lon="-110.7089577"><ele>2406.0</ele><time>2026-05-02T17:06:03.393Z</time></trkpt><trkpt lat="32.4101872" lon="-110.7088284"><ele>2406.0</ele><time>2026-05-02T17:06:04.392Z</time></trkpt><trkpt lat="32.4102413" lon="-110.7086672"><ele>2406.0</ele><time>2026-05-02T17:06:05.392Z</time></trkpt><trkpt lat="32.410267" lon="-110.7084932"><ele>2406.0</ele><time>2026-05-02T17:06:06.392Z</time></trkpt><trkpt lat="32.4102653" lon="-110.7083158"><ele>2401.6666666666665</ele><time>2026-05-02T17:06:07.392Z</time></trkpt><trkpt lat="32.4102369" lon="-110.7081402"><ele>2397.333333333333</ele><time>2026-05-02T17:06:08.393Z</time></trkpt><trkpt lat="32.4101907" lon="-110.7079584"><ele>2393.0</ele><time>2026-05-02T17:06:09.392Z</time></trkpt><trkpt lat="32.4101151" lon="-110.7077851"><ele>2393.333333333333</ele><time>2026-05-02T17:06:10.392Z</time></trkpt><trkpt lat="32.4100272" lon="-110.7076169"><ele>2393.6666666666665</ele><time>2026-05-02T17:06:11.393Z</time></trkpt><trkpt lat="32.4099292" lon="-110.707461"><ele>2394.0</ele><time>2026-05-02T17:06:12.393Z</time></trkpt><trkpt lat="32.4098411" lon="-110.707311"><ele>2394.0</ele><time>2026-05-02T17:06:13.392Z</time></trkpt><trkpt lat="32.4097613" lon="-110.7071586"><ele>2394.0</ele><time>2026-05-02T17:06:14.392Z</time></trkpt><trkpt lat="32.409693" lon="-110.7069905"><ele>2394.0</ele><time>2026-05-02T17:06:15.393Z</time></trkpt><trkpt lat="32.4096351" lon="-110.7068137"><ele>2386.6666666666665</ele><time>2026-05-02T17:06:16.393Z</time></trkpt><trkpt lat="32.4096014" lon="-110.706628"><ele>2379.333333333333</ele><time>2026-05-02T17:06:17.393Z</time></trkpt><trkpt lat="32.4095891" lon="-110.706438"><ele>2372.0</ele><time>2026-05-02T17:06:18.393Z</time></trkpt><trkpt lat="32.4095918" lon="-110.7062471"><ele>2371.333333333333</ele><time>2026-05-02T17:06:19.392Z</time></trkpt><trkpt lat="32.4096032" lon="-110.7060491"><ele>2370.6666666666665</ele><time>2026-05-02T17:06:20.393Z</time></trkpt><trkpt lat="32.4096153" lon="-110.7058504"><ele>2370.0</ele><time>2026-05-02T17:06:21.393Z</time></trkpt><trkpt lat="32.4096286" lon="-110.7056629"><ele>2370.0</ele><time>2026-05-02T17:06:22.393Z</time></trkpt><trkpt lat="32.4096426" lon="-110.7054831"><ele>2370.0</ele><time>2026-05-02T17:06:23.392Z</time></trkpt><trkpt lat="32.4096432" lon="-110.7053081"><ele>2370.0</ele><time>2026-05-02T17:06:24.392Z</time></trkpt><trkpt lat="32.4096189" lon="-110.7051355"><ele>2370.0</ele><time>2026-05-02T17:06:25.393Z</time></trkpt><trkpt lat="32.4095736" lon="-110.7049613"><ele>2370.3333333333335</ele><time>2026-05-02T17:06:26.393Z</time></trkpt><trkpt lat="32.4094989" lon="-110.7048031"><ele>2370.666666666667</ele><time>2026-05-02T17:06:27.394Z</time></trkpt><trkpt lat="32.4093936" lon="-110.7046741"><ele>2371.0</ele><time>2026-05-02T17:06:28.393Z</time></trkpt><trkpt lat="32.4092673" lon="-110.7045541"><ele>2371.0</ele><time>2026-05-02T17:06:29.394Z</time></trkpt><trkpt lat="32.4091163" lon="-110.7044765"><ele>2371.0</ele><time>2026-05-02T17:06:30.394Z</time></trkpt><trkpt lat="32.4089679" lon="-110.7044077"><ele>2371.0</ele><time>2026-05-02T17:06:31.393Z</time></trkpt><trkpt lat="32.4087999" lon="-110.7043651"><ele>2372.3333333333335</ele><time>2026-05-02T17:06:32.394Z</time></trkpt><trkpt lat="32.4086207" lon="-110.7043337"><ele>2373.6666666666665</ele><time>2026-05-02T17:06:33.394Z</time></trkpt><trkpt lat="32.4084499" lon="-110.7042977"><ele>2375.0</ele><time>2026-05-02T17:06:34.394Z</time></trkpt><trkpt lat="32.4082802" lon="-110.704262"><ele>2375.0</ele><time>2026-05-02T17:06:35.394Z</time></trkpt><trkpt lat="32.4081132" lon="-110.7042323"><ele>2375.0</ele><time>2026-05-02T17:06:36.393Z</time></trkpt><trkpt lat="32.4079443" lon="-110.704193"><ele>2375.0</ele><time>2026-05-02T17:06:37.394Z</time></trkpt><trkpt lat="32.4077753" lon="-110.7041526"><ele>2370.6666666666665</ele><time>2026-05-02T17:06:38.393Z</time></trkpt><trkpt lat="32.40761" lon="-110.7041159"><ele>2366.3333333333335</ele><time>2026-05-02T17:06:39.393Z</time></trkpt><trkpt lat="32.4074499" lon="-110.7040899"><ele>2362.0</ele><time>2026-05-02T17:06:40.393Z</time></trkpt><trkpt lat="32.4072938" lon="-110.7040465"><ele>2356.3333333333335</ele><time>2026-05-02T17:06:41.393Z</time></trkpt><trkpt lat="32.4071349" lon="-110.7040053"><ele>2350.6666666666665</ele><time>2026-05-02T17:06:42.394Z</time></trkpt><trkpt lat="32.4069739" lon="-110.7039521"><ele>2345.0</ele><time>2026-05-02T17:06:43.393Z</time></trkpt><trkpt lat="32.406822" lon="-110.7038724"><ele>2345.0</ele><time>2026-05-02T17:06:44.394Z</time></trkpt><trkpt lat="32.4066829" lon="-110.7037747"><ele>2345.0</ele><time>2026-05-02T17:06:45.394Z</time></trkpt><trkpt lat="32.4065617" lon="-110.7036607"><ele>2345.0</ele><time>2026-05-02T17:06:46.393Z</time></trkpt><trkpt lat="32.4064529" lon="-110.7035208"><ele>2339.333333333333</ele><time>2026-05-02T17:06:47.394Z</time></trkpt><trkpt lat="32.406369" lon="-110.7033586"><ele>2333.6666666666665</ele><time>2026-05-02T17:06:48.394Z</time></trkpt><trkpt lat="32.4063027" lon="-110.7031856"><ele>2328.0</ele><time>2026-05-02T17:06:49.393Z</time></trkpt><trkpt lat="32.4062547" lon="-110.7029994"><ele>2328.0</ele><time>2026-05-02T17:06:50.393Z</time></trkpt><trkpt lat="32.406224" lon="-110.7027938"><ele>2328.0</ele><time>2026-05-02T17:06:51.393Z</time></trkpt><trkpt lat="32.4062076" lon="-110.7025826"><ele>2328.0</ele><time>2026-05-02T17:06:52.394Z</time></trkpt><trkpt lat="32.4062" lon="-110.7023713"><ele>2328.0</ele><time>2026-05-02T17:06:53.394Z</time></trkpt><trkpt lat="32.4062018" lon="-110.7021553"><ele>2328.0</ele><time>2026-05-02T17:06:54.394Z</time></trkpt><trkpt lat="32.4062099" lon="-110.701951"><ele>2328.0</ele><time>2026-05-02T17:06:55.393Z</time></trkpt><trkpt lat="32.4062305" lon="-110.7017458"><ele>2328.0</ele><time>2026-05-02T17:06:56.393Z</time></trkpt><trkpt lat="32.4062651" lon="-110.7015526"><ele>2328.0</ele><time>2026-05-02T17:06:57.394Z</time></trkpt><trkpt lat="32.4063004" lon="-110.7013575"><ele>2328.0</ele><time>2026-05-02T17:06:58.393Z</time></trkpt><trkpt lat="32.4063267" lon="-110.7011664"><ele>2326.0</ele><time>2026-05-02T17:06:59.393Z</time></trkpt><trkpt lat="32.4063377" lon="-110.7009864"><ele>2324.0</ele><time>2026-05-02T17:07:00.394Z</time></trkpt><trkpt lat="32.4063364" lon="-110.7007961"><ele>2322.0</ele><time>2026-05-02T17:07:01.394Z</time></trkpt><trkpt lat="32.4063124" lon="-110.7006068"><ele>2322.0</ele><time>2026-05-02T17:07:02.393Z</time></trkpt><trkpt lat="32.4062796" lon="-110.7004133"><ele>2322.0</ele><time>2026-05-02T17:07:03.393Z</time></trkpt><trkpt lat="32.4062172" lon="-110.70023"><ele>2322.0</ele><time>2026-05-02T17:07:04.394Z</time></trkpt><trkpt lat="32.406138" lon="-110.7000534"><ele>2324.0</ele><time>2026-05-02T17:07:05.394Z</time></trkpt><trkpt lat="32.4060407" lon="-110.6998935"><ele>2326.0</ele><time>2026-05-02T17:07:06.393Z</time></trkpt><trkpt lat="32.4059199" lon="-110.6997539"><ele>2328.0</ele><time>2026-05-02T17:07:07.394Z</time></trkpt><trkpt lat="32.4057808" lon="-110.6996455"><ele>2328.0</ele><time>2026-05-02T17:07:08.394Z</time></trkpt><trkpt lat="32.4056261" lon="-110.6995661"><ele>2328.0</ele><time>2026-05-02T17:07:09.393Z</time></trkpt><trkpt lat="32.4054667" lon="-110.6995223"><ele>2328.0</ele><time>2026-05-02T17:07:10.393Z</time></trkpt><trkpt lat="32.4053028" lon="-110.6995076"><ele>2324.3333333333335</ele><time>2026-05-02T17:07:11.394Z</time></trkpt><trkpt lat="32.4051452" lon="-110.6995359"><ele>2320.666666666667</ele><time>2026-05-02T17:07:12.393Z</time></trkpt><trkpt lat="32.4049895" lon="-110.6995867"><ele>2317.0</ele><time>2026-05-02T17:07:13.393Z</time></trkpt><trkpt lat="32.4048398" lon="-110.6996749"><ele>2317.0</ele><time>2026-05-02T17:07:14.393Z</time></trkpt><trkpt lat="32.404704" lon="-110.6997859"><ele>2317.0</ele><time>2026-05-02T17:07:15.393Z</time></trkpt><trkpt lat="32.4045847" lon="-110.6999145"><ele>2317.0</ele><time>2026-05-02T17:07:16.394Z</time></trkpt><trkpt lat="32.4044799" lon="-110.7000602"><ele>2313.0</ele><time>2026-05-02T17:07:17.394Z</time></trkpt><trkpt lat="32.4043749" lon="-110.7001951"><ele>2309.0</ele><time>2026-05-02T17:07:18.393Z</time></trkpt><trkpt lat="32.4042518" lon="-110.7003061"><ele>2305.0</ele><time>2026-05-02T17:07:19.393Z</time></trkpt><trkpt lat="32.4041168" lon="-110.7003942"><ele>2305.0</ele><time>2026-05-02T17:07:20.393Z</time></trkpt><trkpt lat="32.4039614" lon="-110.7004279"><ele>2305.0</ele><time>2026-05-02T17:07:21.393Z</time></trkpt><trkpt lat="32.4037972" lon="-110.7004341"><ele>2305.0</ele><time>2026-05-02T17:07:22.393Z</time></trkpt><trkpt lat="32.4036329" lon="-110.7004259"><ele>2304.3333333333335</ele><time>2026-05-02T17:07:23.393Z</time></trkpt><trkpt lat="32.4034702" lon="-110.7004318"><ele>2303.6666666666665</ele><time>2026-05-02T17:07:24.393Z</time></trkpt><trkpt lat="32.4033143" lon="-110.7004639"><ele>2303.0</ele><time>2026-05-02T17:07:25.393Z</time></trkpt><trkpt lat="32.4031659" lon="-110.7005252"><ele>2303.0</ele><time>2026-05-02T17:07:26.394Z</time></trkpt><trkpt lat="32.4030341" lon="-110.7006135"><ele>2303.0</ele><time>2026-05-02T17:07:27.394Z</time></trkpt><trkpt lat="32.4029157" lon="-110.7007332"><ele>2303.0</ele><time>2026-05-02T17:07:28.394Z</time></trkpt><trkpt lat="32.4028034" lon="-110.7008529"><ele>2306.5</ele><time>2026-05-02T17:07:29.394Z</time></trkpt><trkpt lat="32.4026984" lon="-110.7009815"><ele>2310.0</ele><time>2026-05-02T17:07:30.393Z</time></trkpt><trkpt lat="32.4025768" lon="-110.7010796"><ele>2313.5</ele><time>2026-05-02T17:07:31.393Z</time></trkpt><trkpt lat="32.4024459" lon="-110.7011537"><ele>2317.0</ele><time>2026-05-02T17:07:32.394Z</time></trkpt><trkpt lat="32.4023058" lon="-110.7011954"><ele>2313.5</ele><time>2026-05-02T17:07:33.395Z</time></trkpt><trkpt lat="32.4021603" lon="-110.7012038"><ele>2310.0</ele><time>2026-05-02T17:07:34.394Z</time></trkpt><trkpt lat="32.4020167" lon="-110.7011761"><ele>2306.5</ele><time>2026-05-02T17:07:35.394Z</time></trkpt><trkpt lat="32.4018726" lon="-110.7011135"><ele>2303.0</ele><time>2026-05-02T17:07:36.393Z</time></trkpt><trkpt lat="32.4017401" lon="-110.7010253"><ele>2303.0</ele><time>2026-05-02T17:07:37.393Z</time></trkpt><trkpt lat="32.4016228" lon="-110.7009123"><ele>2303.0</ele><time>2026-05-02T17:07:38.393Z</time></trkpt><trkpt lat="32.4015157" lon="-110.7007604"><ele>2303.0</ele><time>2026-05-02T17:07:39.393Z</time></trkpt><trkpt lat="32.4014131" lon="-110.7005874"><ele>2298.6666666666665</ele><time>2026-05-02T17:07:40.394Z</time></trkpt><trkpt lat="32.4013116" lon="-110.700422"><ele>2294.3333333333335</ele><time>2026-05-02T17:07:41.394Z</time></trkpt><trkpt lat="32.4012069" lon="-110.7002655"><ele>2290.0</ele><time>2026-05-02T17:07:42.394Z</time></trkpt><trkpt lat="32.4011031" lon="-110.7001137"><ele>2290.0</ele><time>2026-05-02T17:07:43.394Z</time></trkpt><trkpt lat="32.4010016" lon="-110.6999709"><ele>2290.0</ele><time>2026-05-02T17:07:44.393Z</time></trkpt><trkpt lat="32.4008991" lon="-110.69982"><ele>2290.0</ele><time>2026-05-02T17:07:45.393Z</time></trkpt><trkpt lat="32.4008108" lon="-110.6996503"><ele>2290.0</ele><time>2026-05-02T17:07:46.393Z</time></trkpt><trkpt lat="32.4007384" lon="-110.6994713"><ele>2290.0</ele><time>2026-05-02T17:07:47.393Z</time></trkpt><trkpt lat="32.4006919" lon="-110.6992814"><ele>2290.0</ele><time>2026-05-02T17:07:48.395Z</time></trkpt><trkpt lat="32.4006685" lon="-110.6990798"><ele>2293.3333333333335</ele><time>2026-05-02T17:07:49.394Z</time></trkpt><trkpt lat="32.4006684" lon="-110.6988775"><ele>2296.6666666666665</ele><time>2026-05-02T17:07:50.393Z</time></trkpt><trkpt lat="32.4006917" lon="-110.6986753"><ele>2300.0</ele><time>2026-05-02T17:07:51.394Z</time></trkpt><trkpt lat="32.4007341" lon="-110.6984801"><ele>2300.0</ele><time>2026-05-02T17:07:52.394Z</time></trkpt><trkpt lat="32.4007809" lon="-110.6982846"><ele>2300.0</ele><time>2026-05-02T17:07:53.394Z</time></trkpt><trkpt lat="32.4008248" lon="-110.6980944"><ele>2300.0</ele><time>2026-05-02T17:07:54.394Z</time></trkpt><trkpt lat="32.40087" lon="-110.6979156"><ele>2297.6666666666665</ele><time>2026-05-02T17:07:55.393Z</time></trkpt><trkpt lat="32.4008671" lon="-110.6977363"><ele>2295.3333333333335</ele><time>2026-05-02T17:07:56.395Z</time></trkpt><trkpt lat="32.4008573" lon="-110.6975547"><ele>2293.0</ele><time>2026-05-02T17:07:57.395Z</time></trkpt><trkpt lat="32.4008103" lon="-110.6973645"><ele>2293.0</ele><time>2026-05-02T17:07:58.395Z</time></trkpt><trkpt lat="32.400757" lon="-110.6971779"><ele>2293.0</ele><time>2026-05-02T17:07:59.394Z</time></trkpt><trkpt lat="32.4006978" lon="-110.6969898"><ele>2293.0</ele><time>2026-05-02T17:08:00.394Z</time></trkpt><trkpt lat="32.4006357" lon="-110.6968027"><ele>2296.666666666667</ele><time>2026-05-02T17:08:01.395Z</time></trkpt><trkpt lat="32.4005833" lon="-110.6966089"><ele>2300.3333333333335</ele><time>2026-05-02T17:08:02.395Z</time></trkpt><trkpt lat="32.4005428" lon="-110.6964148"><ele>2304.0</ele><time>2026-05-02T17:08:03.395Z</time></trkpt><trkpt lat="32.4005204" lon="-110.6962238"><ele>2302.0</ele><time>2026-05-02T17:08:04.394Z</time></trkpt><trkpt lat="32.4005113" lon="-110.6960355"><ele>2300.0</ele><time>2026-05-02T17:08:05.394Z</time></trkpt><trkpt lat="32.4005371" lon="-110.6958384"><ele>2298.0</ele><time>2026-05-02T17:08:06.395Z</time></trkpt><trkpt lat="32.400599" lon="-110.6956492"><ele>2298.0</ele><time>2026-05-02T17:08:07.394Z</time></trkpt><trkpt lat="32.4006877" lon="-110.6954592"><ele>2298.0</ele><time>2026-05-02T17:08:08.394Z</time></trkpt><trkpt lat="32.4007863" lon="-110.6952845"><ele>2298.0</ele><time>2026-05-02T17:08:09.394Z</time></trkpt><trkpt lat="32.4008901" lon="-110.6951105"><ele>2288.6666666666665</ele><time>2026-05-02T17:08:10.394Z</time></trkpt><trkpt lat="32.4009919" lon="-110.6949316"><ele>2279.333333333333</ele><time>2026-05-02T17:08:11.394Z</time></trkpt><trkpt lat="32.4010932" lon="-110.6947601"><ele>2270.0</ele><time>2026-05-02T17:08:12.394Z</time></trkpt><trkpt lat="32.4011943" lon="-110.6945857"><ele>2272.0</ele><time>2026-05-02T17:08:13.394Z</time></trkpt><trkpt lat="32.4012849" lon="-110.6944089"><ele>2274.0</ele><time>2026-05-02T17:08:14.395Z</time></trkpt><trkpt lat="32.4013761" lon="-110.6942453"><ele>2276.0</ele><time>2026-05-02T17:08:15.394Z</time></trkpt><trkpt lat="32.4014653" lon="-110.6940838"><ele>2276.0</ele><time>2026-05-02T17:08:16.394Z</time></trkpt><trkpt lat="32.4015534" lon="-110.6939114"><ele>2276.0</ele><time>2026-05-02T17:08:17.395Z</time></trkpt><trkpt lat="32.4016358" lon="-110.6937418"><ele>2276.0</ele><time>2026-05-02T17:08:18.395Z</time></trkpt><trkpt lat="32.4016945" lon="-110.6935649"><ele>2272.0</ele><time>2026-05-02T17:08:19.394Z</time></trkpt><trkpt lat="32.4017336" lon="-110.6933822"><ele>2268.0</ele><time>2026-05-02T17:08:20.394Z</time></trkpt><trkpt lat="32.4017479" lon="-110.6931832"><ele>2264.0</ele><time>2026-05-02T17:08:21.394Z</time></trkpt><trkpt lat="32.4017388" lon="-110.692982"><ele>2264.0</ele><time>2026-05-02T17:08:22.395Z</time></trkpt><trkpt lat="32.4017143" lon="-110.6927765"><ele>2264.0</ele><time>2026-05-02T17:08:23.394Z</time></trkpt><trkpt lat="32.4016743" lon="-110.6925647"><ele>2264.0</ele><time>2026-05-02T17:08:24.395Z</time></trkpt><trkpt lat="32.4016393" lon="-110.6923528"><ele>2263.0</ele><time>2026-05-02T17:08:25.394Z</time></trkpt><trkpt lat="32.4015966" lon="-110.692147"><ele>2262.0</ele><time>2026-05-02T17:08:26.395Z</time></trkpt><trkpt lat="32.4015554" lon="-110.6919444"><ele>2261.0</ele><time>2026-05-02T17:08:27.395Z</time></trkpt><trkpt lat="32.4015159" lon="-110.6917421"><ele>2261.0</ele><time>2026-05-02T17:08:28.395Z</time></trkpt><trkpt lat="32.4014721" lon="-110.6915415"><ele>2261.0</ele><time>2026-05-02T17:08:29.395Z</time></trkpt><trkpt lat="32.4014158" lon="-110.6913511"><ele>2261.0</ele><time>2026-05-02T17:08:30.394Z</time></trkpt><trkpt lat="32.401343" lon="-110.6911713"><ele>2254.0</ele><time>2026-05-02T17:08:31.395Z</time></trkpt><trkpt lat="32.4012603" lon="-110.690999"><ele>2247.0</ele><time>2026-05-02T17:08:32.394Z</time></trkpt><trkpt lat="32.4011536" lon="-110.6908388"><ele>2240.0</ele><time>2026-05-02T17:08:33.394Z</time></trkpt><trkpt lat="32.4010332" lon="-110.690699"><ele>2240.0</ele><time>2026-05-02T17:08:34.394Z</time></trkpt><trkpt lat="32.4009025" lon="-110.6905685"><ele>2240.0</ele><time>2026-05-02T17:08:35.395Z</time></trkpt><trkpt lat="32.4007632" lon="-110.6904554"><ele>2240.0</ele><time>2026-05-02T17:08:36.394Z</time></trkpt><trkpt lat="32.4006081" lon="-110.6903661"><ele>2240.6666666666665</ele><time>2026-05-02T17:08:37.395Z</time></trkpt><trkpt lat="32.4004423" lon="-110.6902982"><ele>2241.3333333333335</ele><time>2026-05-02T17:08:38.394Z</time></trkpt><trkpt lat="32.400269" lon="-110.6902551"><ele>2242.0</ele><time>2026-05-02T17:08:39.395Z</time></trkpt><trkpt lat="32.4000898" lon="-110.6902404"><ele>2242.0</ele><time>2026-05-02T17:08:40.395Z</time></trkpt><trkpt lat="32.3999121" lon="-110.6902448"><ele>2242.0</ele><time>2026-05-02T17:08:41.394Z</time></trkpt><trkpt lat="32.3997331" lon="-110.6902712"><ele>2242.0</ele><time>2026-05-02T17:08:42.394Z</time></trkpt><trkpt lat="32.3995576" lon="-110.6903093"><ele>2240.3333333333335</ele><time>2026-05-02T17:08:43.394Z</time></trkpt><trkpt lat="32.3993822" lon="-110.6903469"><ele>2238.6666666666665</ele><time>2026-05-02T17:08:44.394Z</time></trkpt><trkpt lat="32.3992157" lon="-110.6903707"><ele>2237.0</ele><time>2026-05-02T17:08:45.394Z</time></trkpt><trkpt lat="32.3990449" lon="-110.6903702"><ele>2237.0</ele><time>2026-05-02T17:08:46.395Z</time></trkpt><trkpt lat="32.398875" lon="-110.6903536"><ele>2237.0</ele><time>2026-05-02T17:08:47.395Z</time></trkpt><trkpt lat="32.3987092" lon="-110.6903201"><ele>2237.0</ele><time>2026-05-02T17:08:48.395Z</time></trkpt><trkpt lat="32.398546" lon="-110.6902465"><ele>2236.0</ele><time>2026-05-02T17:08:49.394Z</time></trkpt><trkpt lat="32.3984008" lon="-110.6901494"><ele>2235.0</ele><time>2026-05-02T17:08:50.395Z</time></trkpt><trkpt lat="32.3982594" lon="-110.6900507"><ele>2234.0</ele><time>2026-05-02T17:08:51.395Z</time></trkpt><trkpt lat="32.3981361" lon="-110.6899405"><ele>2234.0</ele><time>2026-05-02T17:08:52.394Z</time></trkpt><trkpt lat="32.3980117" lon="-110.6898284"><ele>2234.0</ele><time>2026-05-02T17:08:53.394Z</time></trkpt><trkpt lat="32.397888" lon="-110.6897295"><ele>2234.0</ele><time>2026-05-02T17:08:54.394Z</time></trkpt><trkpt lat="32.3977524" lon="-110.689664"><ele>2228.6666666666665</ele><time>2026-05-02T17:08:55.395Z</time></trkpt><trkpt lat="32.3976045" lon="-110.689615"><ele>2223.3333333333335</ele><time>2026-05-02T17:08:56.394Z</time></trkpt><trkpt lat="32.3974532" lon="-110.6896087"><ele>2218.0</ele><time>2026-05-02T17:08:57.394Z</time></trkpt><trkpt lat="32.3973079" lon="-110.6896476"><ele>2221.0</ele><time>2026-05-02T17:08:58.394Z</time></trkpt><trkpt lat="32.3971673" lon="-110.6897269"><ele>2224.0</ele><time>2026-05-02T17:08:59.395Z</time></trkpt><trkpt lat="32.3970343" lon="-110.6898343"><ele>2227.0</ele><time>2026-05-02T17:09:00.394Z</time></trkpt><trkpt lat="32.3969022" lon="-110.6899533"><ele>2227.0</ele><time>2026-05-02T17:09:01.395Z</time></trkpt><trkpt lat="32.396776" lon="-110.6900737"><ele>2227.0</ele><time>2026-05-02T17:09:02.394Z</time></trkpt><trkpt lat="32.3966583" lon="-110.6901938"><ele>2227.0</ele><time>2026-05-02T17:09:03.395Z</time></trkpt><trkpt lat="32.3965277" lon="-110.6903068"><ele>2224.3333333333335</ele><time>2026-05-02T17:09:04.394Z</time></trkpt><trkpt lat="32.3964092" lon="-110.6904245"><ele>2221.6666666666665</ele><time>2026-05-02T17:09:05.395Z</time></trkpt><trkpt lat="32.3962892" lon="-110.6905512"><ele>2219.0</ele><time>2026-05-02T17:09:06.395Z</time></trkpt><trkpt lat="32.3961629" lon="-110.690667"><ele>2219.0</ele><time>2026-05-02T17:09:07.394Z</time></trkpt><trkpt lat="32.3960382" lon="-110.6907838"><ele>2219.0</ele><time>2026-05-02T17:09:08.395Z</time></trkpt><trkpt lat="32.3959189" lon="-110.6908974"><ele>2219.0</ele><time>2026-05-02T17:09:09.395Z</time></trkpt><trkpt lat="32.3957954" lon="-110.6910192"><ele>2215.6666666666665</ele><time>2026-05-02T17:09:10.395Z</time></trkpt><trkpt lat="32.3956711" lon="-110.6911435"><ele>2212.3333333333335</ele><time>2026-05-02T17:09:11.394Z</time></trkpt><trkpt lat="32.3955482" lon="-110.6912659"><ele>2209.0</ele><time>2026-05-02T17:09:12.395Z</time></trkpt><trkpt lat="32.3954284" lon="-110.6913865"><ele>2209.0</ele><time>2026-05-02T17:09:13.394Z</time></trkpt><trkpt lat="32.395313" lon="-110.6915052"><ele>2209.0</ele><time>2026-05-02T17:09:14.396Z</time></trkpt><trkpt lat="32.395188" lon="-110.69162"><ele>2209.0</ele><time>2026-05-02T17:09:15.395Z</time></trkpt><trkpt lat="32.395059" lon="-110.691744"><ele>2209.0</ele><time>2026-05-02T17:09:16.395Z</time></trkpt><trkpt lat="32.3949435" lon="-110.6918772"><ele>2209.0</ele><time>2026-05-02T17:09:17.395Z</time></trkpt><trkpt lat="32.3948479" lon="-110.6920264"><ele>2209.0</ele><time>2026-05-02T17:09:18.394Z</time></trkpt><trkpt lat="32.3947769" lon="-110.6921809"><ele>2208.25</ele><time>2026-05-02T17:09:19.395Z</time></trkpt><trkpt lat="32.3947355" lon="-110.6923483"><ele>2207.5</ele><time>2026-05-02T17:09:20.394Z</time></trkpt><trkpt lat="32.3947176" lon="-110.692524"><ele>2206.75</ele><time>2026-05-02T17:09:21.394Z</time></trkpt><trkpt lat="32.3947204" lon="-110.6927039"><ele>2206.0</ele><time>2026-05-02T17:09:22.394Z</time></trkpt><trkpt lat="32.3947598" lon="-110.6928854"><ele>2206.0</ele><time>2026-05-02T17:09:23.394Z</time></trkpt><trkpt lat="32.3948193" lon="-110.693064"><ele>2206.0</ele><time>2026-05-02T17:09:24.395Z</time></trkpt><trkpt lat="32.3949006" lon="-110.693241"><ele>2206.0</ele><time>2026-05-02T17:09:25.394Z</time></trkpt><trkpt lat="32.3949873" lon="-110.6934149"><ele>2206.0</ele><time>2026-05-02T17:09:26.395Z</time></trkpt><trkpt lat="32.3950634" lon="-110.6935804"><ele>2206.0</ele><time>2026-05-02T17:09:27.395Z</time></trkpt><trkpt lat="32.3951231" lon="-110.6937435"><ele>2206.0</ele><time>2026-05-02T17:09:28.395Z</time></trkpt><trkpt lat="32.3951787" lon="-110.6938941"><ele>2206.0</ele><time>2026-05-02T17:09:29.396Z</time></trkpt><trkpt lat="32.3951991" lon="-110.6940639"><ele>2205.75</ele><time>2026-05-02T17:09:30.396Z</time></trkpt><trkpt lat="32.3951894" lon="-110.6942369"><ele>2205.5</ele><time>2026-05-02T17:09:31.395Z</time></trkpt><trkpt lat="32.3951539" lon="-110.6944004"><ele>2205.25</ele><time>2026-05-02T17:09:32.396Z</time></trkpt><trkpt lat="32.3951" lon="-110.6945536"><ele>2205.0</ele><time>2026-05-02T17:09:33.396Z</time></trkpt><trkpt lat="32.3949982" lon="-110.6946852"><ele>2203.0</ele><time>2026-05-02T17:09:34.396Z</time></trkpt><trkpt lat="32.3948828" lon="-110.6947996"><ele>2201.0</ele><time>2026-05-02T17:09:35.395Z</time></trkpt><trkpt lat="32.3947425" lon="-110.6949117"><ele>2199.0</ele><time>2026-05-02T17:09:36.395Z</time></trkpt><trkpt lat="32.3945941" lon="-110.6950174"><ele>2199.0</ele><time>2026-05-02T17:09:37.395Z</time></trkpt><trkpt lat="32.3944426" lon="-110.6951238"><ele>2199.0</ele><time>2026-05-02T17:09:38.395Z</time></trkpt><trkpt lat="32.3942934" lon="-110.6952231"><ele>2199.0</ele><time>2026-05-02T17:09:39.396Z</time></trkpt><trkpt lat="32.3941537" lon="-110.6953274"><ele>2198.0</ele><time>2026-05-02T17:09:40.396Z</time></trkpt><trkpt lat="32.3940232" lon="-110.6954482"><ele>2197.0</ele><time>2026-05-02T17:09:41.395Z</time></trkpt><trkpt lat="32.3939128" lon="-110.6955919"><ele>2196.0</ele><time>2026-05-02T17:09:42.396Z</time></trkpt><trkpt lat="32.3938196" lon="-110.6957526"><ele>2196.0</ele><time>2026-05-02T17:09:43.395Z</time></trkpt><trkpt lat="32.3937369" lon="-110.6959264"><ele>2196.0</ele><time>2026-05-02T17:09:44.396Z</time></trkpt><trkpt lat="32.3936657" lon="-110.6961137"><ele>2196.0</ele><time>2026-05-02T17:09:45.396Z</time></trkpt><trkpt lat="32.3936032" lon="-110.6963071"><ele>2193.6666666666665</ele><time>2026-05-02T17:09:46.395Z</time></trkpt><trkpt lat="32.3935337" lon="-110.6964921"><ele>2191.333333333333</ele><time>2026-05-02T17:09:47.395Z</time></trkpt><trkpt lat="32.3934612" lon="-110.6966776"><ele>2189.0</ele><time>2026-05-02T17:09:48.395Z</time></trkpt><trkpt lat="32.3933764" lon="-110.6968388"><ele>2184.6666666666665</ele><time>2026-05-02T17:09:49.395Z</time></trkpt><trkpt lat="32.3932813" lon="-110.6969753"><ele>2180.3333333333335</ele><time>2026-05-02T17:09:50.395Z</time></trkpt><trkpt lat="32.393157" lon="-110.6970849"><ele>2176.0</ele><time>2026-05-02T17:09:51.396Z</time></trkpt><trkpt lat="32.3930147" lon="-110.6971738"><ele>2178.666666666667</ele><time>2026-05-02T17:09:52.396Z</time></trkpt><trkpt lat="32.3928682" lon="-110.6972162"><ele>2181.3333333333335</ele><time>2026-05-02T17:09:53.395Z</time></trkpt><trkpt lat="32.3927123" lon="-110.6972298"><ele>2184.0</ele><time>2026-05-02T17:09:54.395Z</time></trkpt><trkpt lat="32.3925612" lon="-110.6972147"><ele>2184.0</ele><time>2026-05-02T17:09:55.395Z</time></trkpt><trkpt lat="32.3924081" lon="-110.6971724"><ele>2184.0</ele><time>2026-05-02T17:09:56.395Z</time></trkpt><trkpt lat="32.3922642" lon="-110.6970873"><ele>2184.0</ele><time>2026-05-02T17:09:57.396Z</time></trkpt><trkpt lat="32.3921299" lon="-110.6969826"><ele>2180.6666666666665</ele><time>2026-05-02T17:09:58.395Z</time></trkpt><trkpt lat="32.3919984" lon="-110.6968537"><ele>2177.333333333333</ele><time>2026-05-02T17:09:59.396Z</time></trkpt><trkpt lat="32.3918686" lon="-110.6967153"><ele>2174.0</ele><time>2026-05-02T17:10:00.396Z</time></trkpt><trkpt lat="32.391734" lon="-110.6965796"><ele>2174.0</ele><time>2026-05-02T17:10:01.396Z</time></trkpt><trkpt lat="32.3916015" lon="-110.6964503"><ele>2174.0</ele><time>2026-05-02T17:10:02.396Z</time></trkpt><trkpt lat="32.3914679" lon="-110.6963259"><ele>2174.0</ele><time>2026-05-02T17:10:03.396Z</time></trkpt><trkpt lat="32.3913401" lon="-110.6961979"><ele>2170.6666666666665</ele><time>2026-05-02T17:10:04.395Z</time></trkpt><trkpt lat="32.3912145" lon="-110.6960688"><ele>2167.3333333333335</ele><time>2026-05-02T17:10:05.395Z</time></trkpt><trkpt lat="32.3910895" lon="-110.6959325"><ele>2164.0</ele><time>2026-05-02T17:10:06.395Z</time></trkpt><trkpt lat="32.3909748" lon="-110.6957926"><ele>2164.0</ele><time>2026-05-02T17:10:07.395Z</time></trkpt><trkpt lat="32.3908898" lon="-110.6956303"><ele>2164.0</ele><time>2026-05-02T17:10:08.396Z</time></trkpt><trkpt lat="32.3908093" lon="-110.6954658"><ele>2164.0</ele><time>2026-05-02T17:10:09.395Z</time></trkpt><trkpt lat="32.3907261" lon="-110.6953102"><ele>2164.0</ele><time>2026-05-02T17:10:10.395Z</time></trkpt><trkpt lat="32.3906262" lon="-110.6951684"><ele>2164.0</ele><time>2026-05-02T17:10:11.396Z</time></trkpt><trkpt lat="32.390508" lon="-110.6950586"><ele>2164.0</ele><time>2026-05-02T17:10:12.395Z</time></trkpt><trkpt lat="32.3903709" lon="-110.6949819"><ele>2164.0</ele><time>2026-05-02T17:10:13.396Z</time></trkpt><trkpt lat="32.3902198" lon="-110.6949344"><ele>2164.0</ele><time>2026-05-02T17:10:14.396Z</time></trkpt><trkpt lat="32.3900685" lon="-110.6949114"><ele>2164.0</ele><time>2026-05-02T17:10:15.396Z</time></trkpt><trkpt lat="32.3899159" lon="-110.694931"><ele>2164.0</ele><time>2026-05-02T17:10:16.396Z</time></trkpt><trkpt lat="32.3897564" lon="-110.6949438"><ele>2164.0</ele><time>2026-05-02T17:10:17.396Z</time></trkpt><trkpt lat="32.3895969" lon="-110.6949379"><ele>2164.0</ele><time>2026-05-02T17:10:18.396Z</time></trkpt><trkpt lat="32.3894473" lon="-110.6949057"><ele>2161.3333333333335</ele><time>2026-05-02T17:10:19.395Z</time></trkpt><trkpt lat="32.3892952" lon="-110.6948408"><ele>2158.6666666666665</ele><time>2026-05-02T17:10:20.396Z</time></trkpt><trkpt lat="32.3891487" lon="-110.6947668"><ele>2156.0</ele><time>2026-05-02T17:10:21.395Z</time></trkpt><trkpt lat="32.3890038" lon="-110.6946921"><ele>2156.0</ele><time>2026-05-02T17:10:22.395Z</time></trkpt><trkpt lat="32.3888566" lon="-110.6946501"><ele>2156.0</ele><time>2026-05-02T17:10:23.395Z</time></trkpt><trkpt lat="32.3887066" lon="-110.6946291"><ele>2156.0</ele><time>2026-05-02T17:10:24.396Z</time></trkpt><trkpt lat="32.3885576" lon="-110.6946433"><ele>2154.0</ele><time>2026-05-02T17:10:25.396Z</time></trkpt><trkpt lat="32.3884122" lon="-110.6946936"><ele>2152.0</ele><time>2026-05-02T17:10:26.395Z</time></trkpt><trkpt lat="32.3882768" lon="-110.6947867"><ele>2150.0</ele><time>2026-05-02T17:10:27.396Z</time></trkpt><trkpt lat="32.388151" lon="-110.6949184"><ele>2150.0</ele><time>2026-05-02T17:10:28.395Z</time></trkpt><trkpt lat="32.3880351" lon="-110.6950583"><ele>2150.0</ele><time>2026-05-02T17:10:29.396Z</time></trkpt><trkpt lat="32.3879142" lon="-110.6952053"><ele>2150.0</ele><time>2026-05-02T17:10:30.396Z</time></trkpt><trkpt lat="32.3877804" lon="-110.6953473"><ele>2147.333333333333</ele><time>2026-05-02T17:10:31.396Z</time></trkpt><trkpt lat="32.3876424" lon="-110.6954828"><ele>2144.6666666666665</ele><time>2026-05-02T17:10:32.395Z</time></trkpt><trkpt lat="32.3874887" lon="-110.6955953"><ele>2142.0</ele><time>2026-05-02T17:10:33.395Z</time></trkpt><trkpt lat="32.3873322" lon="-110.6956783"><ele>2143.0</ele><time>2026-05-02T17:10:34.396Z</time></trkpt><trkpt lat="32.3871675" lon="-110.6957399"><ele>2144.0</ele><time>2026-05-02T17:10:35.396Z</time></trkpt><trkpt lat="32.3869953" lon="-110.6957822"><ele>2145.0</ele><time>2026-05-02T17:10:36.395Z</time></trkpt><trkpt lat="32.386816" lon="-110.6958012"><ele>2145.0</ele><time>2026-05-02T17:10:37.395Z</time></trkpt><trkpt lat="32.3866441" lon="-110.6957994"><ele>2145.0</ele><time>2026-05-02T17:10:38.395Z</time></trkpt><trkpt lat="32.3864756" lon="-110.6957748"><ele>2145.0</ele><time>2026-05-02T17:10:39.395Z</time></trkpt><trkpt lat="32.3863084" lon="-110.6957267"><ele>2140.0</ele><time>2026-05-02T17:10:40.395Z</time></trkpt><trkpt lat="32.3861524" lon="-110.6956577"><ele>2135.0</ele><time>2026-05-02T17:10:41.396Z</time></trkpt><trkpt lat="32.3860007" lon="-110.6955699"><ele>2130.0</ele><time>2026-05-02T17:10:42.395Z</time></trkpt><trkpt lat="32.3858564" lon="-110.6954564"><ele>2130.0</ele><time>2026-05-02T17:10:43.396Z</time></trkpt><trkpt lat="32.3857099" lon="-110.6953272"><ele>2130.0</ele><time>2026-05-02T17:10:44.396Z</time></trkpt><trkpt lat="32.3855727" lon="-110.6951856"><ele>2130.0</ele><time>2026-05-02T17:10:45.395Z</time></trkpt><trkpt lat="32.3854366" lon="-110.695045"><ele>2129.0</ele><time>2026-05-02T17:10:46.396Z</time></trkpt><trkpt lat="32.3853047" lon="-110.6949074"><ele>2128.0</ele><time>2026-05-02T17:10:47.396Z</time></trkpt><trkpt lat="32.3851679" lon="-110.6947809"><ele>2127.0</ele><time>2026-05-02T17:10:48.396Z</time></trkpt><trkpt lat="32.3850243" lon="-110.6946657"><ele>2127.0</ele><time>2026-05-02T17:10:49.396Z</time></trkpt><trkpt lat="32.3848701" lon="-110.6945609"><ele>2127.0</ele><time>2026-05-02T17:10:50.396Z</time></trkpt><trkpt lat="32.3847042" lon="-110.69447"><ele>2127.0</ele><time>2026-05-02T17:10:51.396Z</time></trkpt><trkpt lat="32.3845336" lon="-110.6943919"><ele>2127.3333333333335</ele><time>2026-05-02T17:10:52.396Z</time></trkpt><trkpt lat="32.3843631" lon="-110.6943306"><ele>2127.666666666667</ele><time>2026-05-02T17:10:53.395Z</time></trkpt><trkpt lat="32.3841857" lon="-110.6942737"><ele>2128.0</ele><time>2026-05-02T17:10:54.396Z</time></trkpt><trkpt lat="32.3840067" lon="-110.6942467"><ele>2128.666666666667</ele><time>2026-05-02T17:10:55.396Z</time></trkpt><trkpt lat="32.3838261" lon="-110.6942409"><ele>2129.3333333333335</ele><time>2026-05-02T17:10:56.397Z</time></trkpt><trkpt lat="32.3836489" lon="-110.6942525"><ele>2130.0</ele><time>2026-05-02T17:10:57.396Z</time></trkpt><trkpt lat="32.3834767" lon="-110.6942736"><ele>2130.0</ele><time>2026-05-02T17:10:58.397Z</time></trkpt><trkpt lat="32.3833058" lon="-110.6943124"><ele>2130.0</ele><time>2026-05-02T17:10:59.397Z</time></trkpt><trkpt lat="32.3831396" lon="-110.6943675"><ele>2130.0</ele><time>2026-05-02T17:11:00.397Z</time></trkpt><trkpt lat="32.38298" lon="-110.6944341"><ele>2130.6666666666665</ele><time>2026-05-02T17:11:01.396Z</time></trkpt><trkpt lat="32.3828235" lon="-110.6945212"><ele>2131.333333333333</ele><time>2026-05-02T17:11:02.397Z</time></trkpt><trkpt lat="32.3826712" lon="-110.6946093"><ele>2132.0</ele><time>2026-05-02T17:11:03.396Z</time></trkpt><trkpt lat="32.3825258" lon="-110.6947174"><ele>2132.0</ele><time>2026-05-02T17:11:04.396Z</time></trkpt><trkpt lat="32.3823859" lon="-110.6948493"><ele>2132.0</ele><time>2026-05-02T17:11:05.397Z</time></trkpt><trkpt lat="32.3822537" lon="-110.6949846"><ele>2132.0</ele><time>2026-05-02T17:11:06.397Z</time></trkpt><trkpt lat="32.3821142" lon="-110.6951227"><ele>2133.333333333333</ele><time>2026-05-02T17:11:07.396Z</time></trkpt><trkpt lat="32.3819762" lon="-110.6952678"><ele>2134.6666666666665</ele><time>2026-05-02T17:11:08.397Z</time></trkpt><trkpt lat="32.3818399" lon="-110.6954074"><ele>2136.0</ele><time>2026-05-02T17:11:09.396Z</time></trkpt><trkpt lat="32.3816976" lon="-110.6955384"><ele>2136.0</ele><time>2026-05-02T17:11:10.396Z</time></trkpt><trkpt lat="32.3815572" lon="-110.6956701"><ele>2136.0</ele><time>2026-05-02T17:11:11.396Z</time></trkpt><trkpt lat="32.3814138" lon="-110.6957959"><ele>2136.0</ele><time>2026-05-02T17:11:12.396Z</time></trkpt><trkpt lat="32.3812595" lon="-110.6959072"><ele>2136.3333333333335</ele><time>2026-05-02T17:11:13.396Z</time></trkpt><trkpt lat="32.3811025" lon="-110.6960264"><ele>2136.666666666667</ele><time>2026-05-02T17:11:14.397Z</time></trkpt><trkpt lat="32.3809463" lon="-110.696136"><ele>2137.0</ele><time>2026-05-02T17:11:15.396Z</time></trkpt><trkpt lat="32.3807922" lon="-110.6962476"><ele>2137.0</ele><time>2026-05-02T17:11:16.397Z</time></trkpt><trkpt lat="32.3806357" lon="-110.6963559"><ele>2137.0</ele><time>2026-05-02T17:11:17.397Z</time></trkpt><trkpt lat="32.3804751" lon="-110.696465"><ele>2137.0</ele><time>2026-05-02T17:11:18.397Z</time></trkpt><trkpt lat="32.3803124" lon="-110.6965769"><ele>2128.3333333333335</ele><time>2026-05-02T17:11:19.397Z</time></trkpt><trkpt lat="32.3801541" lon="-110.6966914"><ele>2119.6666666666665</ele><time>2026-05-02T17:11:20.397Z</time></trkpt><trkpt lat="32.3799935" lon="-110.6968072"><ele>2111.0</ele><time>2026-05-02T17:11:21.397Z</time></trkpt><trkpt lat="32.3798432" lon="-110.696914"><ele>2111.6666666666665</ele><time>2026-05-02T17:11:22.396Z</time></trkpt><trkpt lat="32.3796941" lon="-110.6970187"><ele>2112.3333333333335</ele><time>2026-05-02T17:11:23.397Z</time></trkpt><trkpt lat="32.3795537" lon="-110.6971189"><ele>2113.0</ele><time>2026-05-02T17:11:24.396Z</time></trkpt><trkpt lat="32.3794238" lon="-110.6972207"><ele>2113.0</ele><time>2026-05-02T17:11:25.397Z</time></trkpt><trkpt lat="32.3793115" lon="-110.6973334"><ele>2113.0</ele><time>2026-05-02T17:11:26.397Z</time></trkpt><trkpt lat="32.3792185" lon="-110.6974655"><ele>2113.0</ele><time>2026-05-02T17:11:27.396Z</time></trkpt><trkpt lat="32.3791468" lon="-110.697624"><ele>2113.0</ele><time>2026-05-02T17:11:28.397Z</time></trkpt><trkpt lat="32.3791003" lon="-110.697798"><ele>2115.0</ele><time>2026-05-02T17:11:29.397Z</time></trkpt><trkpt lat="32.3790753" lon="-110.6979816"><ele>2117.0</ele><time>2026-05-02T17:11:30.396Z</time></trkpt><trkpt lat="32.3790727" lon="-110.6981701"><ele>2119.0</ele><time>2026-05-02T17:11:31.396Z</time></trkpt><trkpt lat="32.3790949" lon="-110.6983705"><ele>2119.0</ele><time>2026-05-02T17:11:32.397Z</time></trkpt><trkpt lat="32.3791176" lon="-110.698562"><ele>2119.0</ele><time>2026-05-02T17:11:33.397Z</time></trkpt><trkpt lat="32.3791286" lon="-110.6987457"><ele>2119.0</ele><time>2026-05-02T17:11:34.397Z</time></trkpt><trkpt lat="32.3791195" lon="-110.6989301"><ele>2120.3333333333335</ele><time>2026-05-02T17:11:35.397Z</time></trkpt><trkpt lat="32.3790875" lon="-110.699109"><ele>2121.6666666666665</ele><time>2026-05-02T17:11:36.396Z</time></trkpt><trkpt lat="32.3790313" lon="-110.699284"><ele>2123.0</ele><time>2026-05-02T17:11:37.396Z</time></trkpt><trkpt lat="32.3789514" lon="-110.6994451"><ele>2118.0</ele><time>2026-05-02T17:11:38.397Z</time></trkpt><trkpt lat="32.3788491" lon="-110.6995763"><ele>2113.0</ele><time>2026-05-02T17:11:39.397Z</time></trkpt><trkpt lat="32.378732" lon="-110.6997078"><ele>2108.0</ele><time>2026-05-02T17:11:40.396Z</time></trkpt><trkpt lat="32.3785887" lon="-110.6998091"><ele>2108.0</ele><time>2026-05-02T17:11:41.397Z</time></trkpt><trkpt lat="32.3784348" lon="-110.6998869"><ele>2108.0</ele><time>2026-05-02T17:11:42.396Z</time></trkpt><trkpt lat="32.3782784" lon="-110.6999531"><ele>2108.0</ele><time>2026-05-02T17:11:43.396Z</time></trkpt><trkpt lat="32.3781305" lon="-110.7000125"><ele>2100.6666666666665</ele><time>2026-05-02T17:11:44.396Z</time></trkpt><trkpt lat="32.3779868" lon="-110.700094"><ele>2093.3333333333335</ele><time>2026-05-02T17:11:45.397Z</time></trkpt><trkpt lat="32.3778665" lon="-110.7002103"><ele>2086.0</ele><time>2026-05-02T17:11:46.396Z</time></trkpt><trkpt lat="32.3777659" lon="-110.700361"><ele>2086.0</ele><time>2026-05-02T17:11:47.396Z</time></trkpt><trkpt lat="32.3776862" lon="-110.7005375"><ele>2086.0</ele><time>2026-05-02T17:11:48.396Z</time></trkpt><trkpt lat="32.3776105" lon="-110.7007197"><ele>2086.0</ele><time>2026-05-02T17:11:49.397Z</time></trkpt><trkpt lat="32.3775368" lon="-110.7008973"><ele>2086.0</ele><time>2026-05-02T17:11:50.397Z</time></trkpt><trkpt lat="32.3774445" lon="-110.7010562"><ele>2086.0</ele><time>2026-05-02T17:11:51.396Z</time></trkpt><trkpt lat="32.3773469" lon="-110.7012139"><ele>2086.0</ele><time>2026-05-02T17:11:52.396Z</time></trkpt><trkpt lat="32.3772645" lon="-110.7013827"><ele>2090.666666666667</ele><time>2026-05-02T17:11:53.396Z</time></trkpt><trkpt lat="32.3771971" lon="-110.7015652"><ele>2095.3333333333335</ele><time>2026-05-02T17:11:54.397Z</time></trkpt><trkpt lat="32.377142" lon="-110.7017397"><ele>2100.0</ele><time>2026-05-02T17:11:55.396Z</time></trkpt><trkpt lat="32.3770839" lon="-110.7019113"><ele>2096.0</ele><time>2026-05-02T17:11:56.397Z</time></trkpt><trkpt lat="32.3770043" lon="-110.7020744"><ele>2092.0</ele><time>2026-05-02T17:11:57.397Z</time></trkpt><trkpt lat="32.3769199" lon="-110.7022099"><ele>2088.0</ele><time>2026-05-02T17:11:58.396Z</time></trkpt><trkpt lat="32.3767938" lon="-110.7023083"><ele>2088.0</ele><time>2026-05-02T17:11:59.397Z</time></trkpt><trkpt lat="32.3766542" lon="-110.7023839"><ele>2088.0</ele><time>2026-05-02T17:12:00.397Z</time></trkpt><trkpt lat="32.3765131" lon="-110.7024384"><ele>2088.0</ele><time>2026-05-02T17:12:01.396Z</time></trkpt><trkpt lat="32.3763555" lon="-110.7024602"><ele>2084.0</ele><time>2026-05-02T17:12:02.397Z</time></trkpt><trkpt lat="32.3762032" lon="-110.7024674"><ele>2080.0</ele><time>2026-05-02T17:12:03.396Z</time></trkpt><trkpt lat="32.3760631" lon="-110.7024897"><ele>2076.0</ele><time>2026-05-02T17:12:04.396Z</time></trkpt><trkpt lat="32.3759295" lon="-110.7025489"><ele>2072.0</ele><time>2026-05-02T17:12:05.397Z</time></trkpt><trkpt lat="32.3758019" lon="-110.7026428"><ele>2080.333333333333</ele><time>2026-05-02T17:12:06.397Z</time></trkpt><trkpt lat="32.3756944" lon="-110.702768"><ele>2088.6666666666665</ele><time>2026-05-02T17:12:07.397Z</time></trkpt><trkpt lat="32.3756037" lon="-110.7029228"><ele>2097.0</ele><time>2026-05-02T17:12:08.397Z</time></trkpt><trkpt lat="32.3755119" lon="-110.7030924"><ele>2082.3333333333335</ele><time>2026-05-02T17:12:09.397Z</time></trkpt><trkpt lat="32.3754225" lon="-110.7032671"><ele>2067.666666666667</ele><time>2026-05-02T17:12:10.397Z</time></trkpt><trkpt lat="32.3753431" lon="-110.7034386"><ele>2053.0</ele><time>2026-05-02T17:12:11.396Z</time></trkpt><trkpt lat="32.3752683" lon="-110.7036183"><ele>2053.0</ele><time>2026-05-02T17:12:12.396Z</time></trkpt><trkpt lat="32.3752081" lon="-110.7038112"><ele>2053.0</ele><time>2026-05-02T17:12:13.396Z</time></trkpt><trkpt lat="32.3751726" lon="-110.7040064"><ele>2053.0</ele><time>2026-05-02T17:12:14.396Z</time></trkpt><trkpt lat="32.3751607" lon="-110.7042041"><ele>2053.0</ele><time>2026-05-02T17:12:15.397Z</time></trkpt><trkpt lat="32.3751729" lon="-110.7044043"><ele>2053.0</ele><time>2026-05-02T17:12:16.397Z</time></trkpt><trkpt lat="32.375225" lon="-110.7045952"><ele>2053.0</ele><time>2026-05-02T17:12:17.396Z</time></trkpt><trkpt lat="32.3752894" lon="-110.7047777"><ele>2050.3333333333335</ele><time>2026-05-02T17:12:18.397Z</time></trkpt><trkpt lat="32.3753622" lon="-110.7049467"><ele>2047.6666666666665</ele><time>2026-05-02T17:12:19.396Z</time></trkpt><trkpt lat="32.3754229" lon="-110.7051182"><ele>2045.0</ele><time>2026-05-02T17:12:20.396Z</time></trkpt><trkpt lat="32.3754603" lon="-110.7053006"><ele>2040.3333333333333</ele><time>2026-05-02T17:12:21.397Z</time></trkpt><trkpt lat="32.3754722" lon="-110.7054879"><ele>2035.6666666666665</ele><time>2026-05-02T17:12:22.397Z</time></trkpt><trkpt lat="32.3754501" lon="-110.7056805"><ele>2031.0</ele><time>2026-05-02T17:12:23.397Z</time></trkpt><trkpt lat="32.3754024" lon="-110.7058767"><ele>2031.0</ele><time>2026-05-02T17:12:24.397Z</time></trkpt><trkpt lat="32.3753394" lon="-110.7060766"><ele>2031.0</ele><time>2026-05-02T17:12:25.398Z</time></trkpt><trkpt lat="32.3752707" lon="-110.7062813"><ele>2031.0</ele><time>2026-05-02T17:12:26.397Z</time></trkpt><trkpt lat="32.3751994" lon="-110.706482"><ele>2031.3333333333335</ele><time>2026-05-02T17:12:27.398Z</time></trkpt><trkpt lat="32.375135" lon="-110.7066833"><ele>2031.6666666666667</ele><time>2026-05-02T17:12:28.397Z</time></trkpt><trkpt lat="32.3750649" lon="-110.7068853"><ele>2032.0</ele><time>2026-05-02T17:12:29.396Z</time></trkpt><trkpt lat="32.3749975" lon="-110.7070804"><ele>2030.6666666666667</ele><time>2026-05-02T17:12:30.397Z</time></trkpt><trkpt lat="32.3749262" lon="-110.70728"><ele>2029.3333333333335</ele><time>2026-05-02T17:12:31.397Z</time></trkpt><trkpt lat="32.374859" lon="-110.7074787"><ele>2028.0</ele><time>2026-05-02T17:12:32.398Z</time></trkpt><trkpt lat="32.3747803" lon="-110.7076748"><ele>2027.6666666666665</ele><time>2026-05-02T17:12:33.397Z</time></trkpt><trkpt lat="32.3746922" lon="-110.7078585"><ele>2027.3333333333333</ele><time>2026-05-02T17:12:34.397Z</time></trkpt><trkpt lat="32.3745761" lon="-110.7080188"><ele>2027.0</ele><time>2026-05-02T17:12:35.397Z</time></trkpt><trkpt lat="32.374442" lon="-110.7081604"><ele>2027.0</ele><time>2026-05-02T17:12:36.398Z</time></trkpt><trkpt lat="32.3742928" lon="-110.7082893"><ele>2027.0</ele><time>2026-05-02T17:12:37.398Z</time></trkpt><trkpt lat="32.3741273" lon="-110.7083941"><ele>2027.0</ele><time>2026-05-02T17:12:38.398Z</time></trkpt><trkpt lat="32.3739569" lon="-110.7084794"><ele>2030.6666666666665</ele><time>2026-05-02T17:12:39.397Z</time></trkpt><trkpt lat="32.3737865" lon="-110.7085581"><ele>2034.3333333333335</ele><time>2026-05-02T17:12:40.397Z</time></trkpt><trkpt lat="32.3736173" lon="-110.7086417"><ele>2038.0</ele><time>2026-05-02T17:12:41.397Z</time></trkpt><trkpt lat="32.37345" lon="-110.7087278"><ele>2038.0</ele><time>2026-05-02T17:12:42.398Z</time></trkpt><trkpt lat="32.3732849" lon="-110.7088207"><ele>2038.0</ele><time>2026-05-02T17:12:43.397Z</time></trkpt><trkpt lat="32.3731243" lon="-110.708921"><ele>2038.0</ele><time>2026-05-02T17:12:44.398Z</time></trkpt><trkpt lat="32.3729636" lon="-110.7090333"><ele>2037.3333333333335</ele><time>2026-05-02T17:12:45.397Z</time></trkpt><trkpt lat="32.3728077" lon="-110.7091502"><ele>2036.6666666666665</ele><time>2026-05-02T17:12:46.398Z</time></trkpt><trkpt lat="32.3726654" lon="-110.7092936"><ele>2036.0</ele><time>2026-05-02T17:12:47.397Z</time></trkpt><trkpt lat="32.3725286" lon="-110.7094366"><ele>2036.0</ele><time>2026-05-02T17:12:48.398Z</time></trkpt><trkpt lat="32.3723969" lon="-110.7095861"><ele>2036.0</ele><time>2026-05-02T17:12:49.397Z</time></trkpt><trkpt lat="32.3722756" lon="-110.709739"><ele>2036.0</ele><time>2026-05-02T17:12:50.397Z</time></trkpt><trkpt lat="32.3721524" lon="-110.7098894"><ele>2031.3333333333333</ele><time>2026-05-02T17:12:51.398Z</time></trkpt><trkpt lat="32.3720204" lon="-110.7100345"><ele>2026.6666666666665</ele><time>2026-05-02T17:12:52.398Z</time></trkpt><trkpt lat="32.3718893" lon="-110.7101676"><ele>2022.0</ele><time>2026-05-02T17:12:53.397Z</time></trkpt><trkpt lat="32.371747" lon="-110.7102997"><ele>2022.0</ele><time>2026-05-02T17:12:54.397Z</time></trkpt><trkpt lat="32.3716122" lon="-110.7104281"><ele>2022.0</ele><time>2026-05-02T17:12:55.397Z</time></trkpt><trkpt lat="32.3714768" lon="-110.7105493"><ele>2022.0</ele><time>2026-05-02T17:12:56.398Z</time></trkpt><trkpt lat="32.3713404" lon="-110.7106631"><ele>2022.0</ele><time>2026-05-02T17:12:57.397Z</time></trkpt><trkpt lat="32.3712111" lon="-110.7107857"><ele>2022.0</ele><time>2026-05-02T17:12:58.397Z</time></trkpt><trkpt lat="32.371088" lon="-110.7109224"><ele>2022.0</ele><time>2026-05-02T17:12:59.398Z</time></trkpt><trkpt lat="32.3709776" lon="-110.7110621"><ele>2023.3333333333335</ele><time>2026-05-02T17:13:00.397Z</time></trkpt><trkpt lat="32.3708801" lon="-110.7112201"><ele>2024.6666666666667</ele><time>2026-05-02T17:13:01.397Z</time></trkpt><trkpt lat="32.3707946" lon="-110.7113817"><ele>2026.0</ele><time>2026-05-02T17:13:02.397Z</time></trkpt><trkpt lat="32.3707182" lon="-110.7115607"><ele>2026.0</ele><time>2026-05-02T17:13:03.397Z</time></trkpt><trkpt lat="32.3706511" lon="-110.7117578"><ele>2026.0</ele><time>2026-05-02T17:13:04.397Z</time></trkpt><trkpt lat="32.3705832" lon="-110.7119539"><ele>2026.0</ele><time>2026-05-02T17:13:05.397Z</time></trkpt><trkpt lat="32.3705169" lon="-110.7121445"><ele>2026.6666666666667</ele><time>2026-05-02T17:13:06.397Z</time></trkpt><trkpt lat="32.3704482" lon="-110.7123338"><ele>2027.3333333333335</ele><time>2026-05-02T17:13:07.399Z</time></trkpt><trkpt lat="32.3703834" lon="-110.7125166"><ele>2028.0</ele><time>2026-05-02T17:13:08.398Z</time></trkpt><trkpt lat="32.370326" lon="-110.7127017"><ele>2031.0</ele><time>2026-05-02T17:13:09.397Z</time></trkpt><trkpt lat="32.3702962" lon="-110.7128944"><ele>2034.0</ele><time>2026-05-02T17:13:10.397Z</time></trkpt><trkpt lat="32.3702821" lon="-110.7130867"><ele>2037.0</ele><time>2026-05-02T17:13:11.397Z</time></trkpt><trkpt lat="32.3702849" lon="-110.7132787"><ele>2037.0</ele><time>2026-05-02T17:13:12.397Z</time></trkpt><trkpt lat="32.3702976" lon="-110.7134618"><ele>2037.0</ele><time>2026-05-02T17:13:13.398Z</time></trkpt><trkpt lat="32.3702992" lon="-110.7136414"><ele>2037.0</ele><time>2026-05-02T17:13:14.397Z</time></trkpt><trkpt lat="32.3702748" lon="-110.7138293"><ele>2035.6666666666665</ele><time>2026-05-02T17:13:15.397Z</time></trkpt><trkpt lat="32.3702302" lon="-110.714027"><ele>2034.3333333333333</ele><time>2026-05-02T17:13:16.397Z</time></trkpt><trkpt lat="32.3701609" lon="-110.7142194"><ele>2033.0</ele><time>2026-05-02T17:13:17.397Z</time></trkpt><trkpt lat="32.370088" lon="-110.7144065"><ele>2026.0</ele><time>2026-05-02T17:13:18.398Z</time></trkpt><trkpt lat="32.3700265" lon="-110.7145955"><ele>2019.0</ele><time>2026-05-02T17:13:19.398Z</time></trkpt><trkpt lat="32.3699554" lon="-110.7147749"><ele>2012.0</ele><time>2026-05-02T17:13:20.398Z</time></trkpt><trkpt lat="32.3698752" lon="-110.7149355"><ele>2012.0</ele><time>2026-05-02T17:13:21.398Z</time></trkpt><trkpt lat="32.3697728" lon="-110.7150796"><ele>2012.0</ele><time>2026-05-02T17:13:22.398Z</time></trkpt><trkpt lat="32.3696579" lon="-110.7152083"><ele>2012.0</ele><time>2026-05-02T17:13:23.398Z</time></trkpt><trkpt lat="32.3695505" lon="-110.7153261"><ele>2014.0</ele><time>2026-05-02T17:13:24.397Z</time></trkpt><trkpt lat="32.369448" lon="-110.7154479"><ele>2016.0</ele><time>2026-05-02T17:13:25.398Z</time></trkpt><trkpt lat="32.3693656" lon="-110.7155763"><ele>2018.0</ele><time>2026-05-02T17:13:26.398Z</time></trkpt><trkpt lat="32.3693066" lon="-110.7157147"><ele>2020.0</ele><time>2026-05-02T17:13:27.397Z</time></trkpt><trkpt lat="32.3692638" lon="-110.7158645"><ele>2020.0</ele><time>2026-05-02T17:13:28.398Z</time></trkpt><trkpt lat="32.3692165" lon="-110.716013"><ele>2020.0</ele><time>2026-05-02T17:13:29.397Z</time></trkpt><trkpt lat="32.3691706" lon="-110.716149"><ele>2020.0</ele><time>2026-05-02T17:13:30.397Z</time></trkpt><trkpt lat="32.3691191" lon="-110.7162669"><ele>2020.0</ele><time>2026-05-02T17:13:31.398Z</time></trkpt><trkpt lat="32.3690538" lon="-110.7163618"><ele>2017.8</ele><time>2026-05-02T17:13:32.397Z</time></trkpt><trkpt lat="32.3689845" lon="-110.7164401"><ele>2015.6</ele><time>2026-05-02T17:13:33.398Z</time></trkpt><trkpt lat="32.3689032" lon="-110.7165045"><ele>2013.4</ele><time>2026-05-02T17:13:34.397Z</time></trkpt><trkpt lat="32.3688142" lon="-110.7165608"><ele>2011.2</ele><time>2026-05-02T17:13:35.398Z</time></trkpt><trkpt lat="32.3687239" lon="-110.7166034"><ele>2009.0</ele><time>2026-05-02T17:13:36.398Z</time></trkpt><trkpt lat="32.3686312" lon="-110.7166325"><ele>2009.0</ele><time>2026-05-02T17:13:37.398Z</time></trkpt><trkpt lat="32.3685417" lon="-110.7166451"><ele>2009.0</ele><time>2026-05-02T17:13:38.398Z</time></trkpt><trkpt lat="32.3684455" lon="-110.716644"><ele>2009.0</ele><time>2026-05-02T17:13:39.397Z</time></trkpt><trkpt lat="32.368345" lon="-110.7166279"><ele>2009.0</ele><time>2026-05-02T17:13:40.398Z</time></trkpt><trkpt lat="32.368249" lon="-110.7165954"><ele>2009.0</ele><time>2026-05-02T17:13:41.398Z</time></trkpt><trkpt lat="32.3681553" lon="-110.7165571"><ele>2009.0</ele><time>2026-05-02T17:13:42.397Z</time></trkpt><trkpt lat="32.3680617" lon="-110.7165021"><ele>2009.0</ele><time>2026-05-02T17:13:43.397Z</time></trkpt><trkpt lat="32.3679716" lon="-110.7164327"><ele>2009.0</ele><time>2026-05-02T17:13:44.398Z</time></trkpt><trkpt lat="32.3678935" lon="-110.7163495"><ele>2009.0</ele><time>2026-05-02T17:13:45.398Z</time></trkpt><trkpt lat="32.3678249" lon="-110.7162557"><ele>2009.0</ele><time>2026-05-02T17:13:46.397Z</time></trkpt><trkpt lat="32.3677683" lon="-110.7161437"><ele>2005.25</ele><time>2026-05-02T17:13:47.397Z</time></trkpt><trkpt lat="32.3677271" lon="-110.7160149"><ele>2001.5</ele><time>2026-05-02T17:13:48.397Z</time></trkpt><trkpt lat="32.3676944" lon="-110.7158726"><ele>1997.75</ele><time>2026-05-02T17:13:49.397Z</time></trkpt><trkpt lat="32.3676791" lon="-110.7157155"><ele>1994.0</ele><time>2026-05-02T17:13:50.397Z</time></trkpt><trkpt lat="32.3676652" lon="-110.7155409"><ele>1994.0</ele><time>2026-05-02T17:13:51.397Z</time></trkpt><trkpt lat="32.3676497" lon="-110.7153607"><ele>1994.0</ele><time>2026-05-02T17:13:52.397Z</time></trkpt><trkpt lat="32.3676321" lon="-110.7151795"><ele>1994.0</ele><time>2026-05-02T17:13:53.397Z</time></trkpt><trkpt lat="32.3676177" lon="-110.7150023"><ele>1993.25</ele><time>2026-05-02T17:13:54.397Z</time></trkpt><trkpt lat="32.3676116" lon="-110.7148291"><ele>1992.5</ele><time>2026-05-02T17:13:55.397Z</time></trkpt><trkpt lat="32.3676292" lon="-110.7146602"><ele>1991.75</ele><time>2026-05-02T17:13:56.398Z</time></trkpt><trkpt lat="32.3676724" lon="-110.7144958"><ele>1991.0</ele><time>2026-05-02T17:13:57.398Z</time></trkpt><trkpt lat="32.3677401" lon="-110.7143358"><ele>1985.0</ele><time>2026-05-02T17:13:58.397Z</time></trkpt><trkpt lat="32.3678246" lon="-110.714179"><ele>1979.0</ele><time>2026-05-02T17:13:59.398Z</time></trkpt><trkpt lat="32.3679191" lon="-110.7140191"><ele>1973.0</ele><time>2026-05-02T17:14:00.397Z</time></trkpt><trkpt lat="32.3680136" lon="-110.7138601"><ele>1981.0</ele><time>2026-05-02T17:14:01.398Z</time></trkpt><trkpt lat="32.3681017" lon="-110.7137012"><ele>1989.0</ele><time>2026-05-02T17:14:02.398Z</time></trkpt><trkpt lat="32.3681834" lon="-110.7135377"><ele>1997.0</ele><time>2026-05-02T17:14:03.398Z</time></trkpt><trkpt lat="32.3682561" lon="-110.7133712"><ele>1997.0</ele><time>2026-05-02T17:14:04.397Z</time></trkpt><trkpt lat="32.3683208" lon="-110.7132041"><ele>1997.0</ele><time>2026-05-02T17:14:05.398Z</time></trkpt><trkpt lat="32.3683846" lon="-110.713036"><ele>1997.0</ele><time>2026-05-02T17:14:06.398Z</time></trkpt><trkpt lat="32.3684597" lon="-110.712869"><ele>1987.0</ele><time>2026-05-02T17:14:07.398Z</time></trkpt><trkpt lat="32.3685455" lon="-110.7127098"><ele>1977.0</ele><time>2026-05-02T17:14:08.398Z</time></trkpt><trkpt lat="32.3686337" lon="-110.7125592"><ele>1967.0</ele><time>2026-05-02T17:14:09.398Z</time></trkpt><trkpt lat="32.3687463" lon="-110.7124344"><ele>1980.6666666666665</ele><time>2026-05-02T17:14:10.399Z</time></trkpt><trkpt lat="32.3688739" lon="-110.7123267"><ele>1994.3333333333335</ele><time>2026-05-02T17:14:11.398Z</time></trkpt><trkpt lat="32.3690107" lon="-110.7122388"><ele>2008.0</ele><time>2026-05-02T17:14:12.398Z</time></trkpt><trkpt lat="32.369148" lon="-110.7121598"><ele>2008.0</ele><time>2026-05-02T17:14:13.398Z</time></trkpt><trkpt lat="32.3692802" lon="-110.7120732"><ele>2008.0</ele><time>2026-05-02T17:14:14.398Z</time></trkpt><trkpt lat="32.3694005" lon="-110.7119675"><ele>2008.0</ele><time>2026-05-02T17:14:15.398Z</time></trkpt><trkpt lat="32.3695017" lon="-110.7118397"><ele>2008.0</ele><time>2026-05-02T17:14:16.399Z</time></trkpt><trkpt lat="32.3695766" lon="-110.7116911"><ele>1993.0</ele><time>2026-05-02T17:14:17.398Z</time></trkpt><trkpt lat="32.3696254" lon="-110.7115246"><ele>1978.0</ele><time>2026-05-02T17:14:18.398Z</time></trkpt><trkpt lat="32.3696448" lon="-110.7113464"><ele>1963.0</ele><time>2026-05-02T17:14:19.398Z</time></trkpt><trkpt lat="32.3696454" lon="-110.7111623"><ele>1955.3333333333335</ele><time>2026-05-02T17:14:20.399Z</time></trkpt><trkpt lat="32.3696454" lon="-110.710978"><ele>1947.6666666666665</ele><time>2026-05-02T17:14:21.399Z</time></trkpt><trkpt lat="32.3696598" lon="-110.7107979"><ele>1940.0</ele><time>2026-05-02T17:14:22.398Z</time></trkpt><trkpt lat="32.369696" lon="-110.7106202"><ele>1949.0</ele><time>2026-05-02T17:14:23.399Z</time></trkpt><trkpt lat="32.3697564" lon="-110.7104488"><ele>1958.0</ele><time>2026-05-02T17:14:24.398Z</time></trkpt><trkpt lat="32.3698401" lon="-110.7102897"><ele>1967.0</ele><time>2026-05-02T17:14:25.398Z</time></trkpt><trkpt lat="32.3699453" lon="-110.7101464"><ele>1967.0</ele><time>2026-05-02T17:14:26.399Z</time></trkpt><trkpt lat="32.3700625" lon="-110.7100188"><ele>1967.0</ele><time>2026-05-02T17:14:27.399Z</time></trkpt><trkpt lat="32.370179" lon="-110.7098973"><ele>1967.0</ele><time>2026-05-02T17:14:28.398Z</time></trkpt><trkpt lat="32.3702857" lon="-110.7097692"><ele>1967.0</ele><time>2026-05-02T17:14:29.399Z</time></trkpt><trkpt lat="32.37038" lon="-110.7096253"><ele>1967.0</ele><time>2026-05-02T17:14:30.398Z</time></trkpt><trkpt lat="32.3704682" lon="-110.7094778"><ele>1967.0</ele><time>2026-05-02T17:14:31.398Z</time></trkpt><trkpt lat="32.3705175" lon="-110.7092992"><ele>1971.6666666666665</ele><time>2026-05-02T17:14:32.399Z</time></trkpt><trkpt lat="32.370563" lon="-110.7091145"><ele>1976.3333333333335</ele><time>2026-05-02T17:14:33.398Z</time></trkpt><trkpt lat="32.3706128" lon="-110.7089279"><ele>1981.0</ele><time>2026-05-02T17:14:34.399Z</time></trkpt><trkpt lat="32.3706735" lon="-110.7087426"><ele>1972.3333333333335</ele><time>2026-05-02T17:14:35.399Z</time></trkpt><trkpt lat="32.3707404" lon="-110.7085598"><ele>1963.6666666666665</ele><time>2026-05-02T17:14:36.399Z</time></trkpt><trkpt lat="32.3708036" lon="-110.708378"><ele>1955.0</ele><time>2026-05-02T17:14:37.399Z</time></trkpt><trkpt lat="32.3708555" lon="-110.7081975"><ele>1955.0</ele><time>2026-05-02T17:14:38.398Z</time></trkpt><trkpt lat="32.3708964" lon="-110.7080199"><ele>1955.0</ele><time>2026-05-02T17:14:39.399Z</time></trkpt><trkpt lat="32.3709357" lon="-110.707847"><ele>1955.0</ele><time>2026-05-02T17:14:40.398Z</time></trkpt><trkpt lat="32.3709794" lon="-110.7076721"><ele>1949.3333333333333</ele><time>2026-05-02T17:14:41.399Z</time></trkpt><trkpt lat="32.3710352" lon="-110.7074995"><ele>1943.6666666666665</ele><time>2026-05-02T17:14:42.398Z</time></trkpt><trkpt lat="32.3711097" lon="-110.7073382"><ele>1938.0</ele><time>2026-05-02T17:14:43.398Z</time></trkpt><trkpt lat="32.3712053" lon="-110.7071887"><ele>1938.0</ele><time>2026-05-02T17:14:44.399Z</time></trkpt><trkpt lat="32.3713189" lon="-110.7070519"><ele>1938.0</ele><time>2026-05-02T17:14:45.399Z</time></trkpt><trkpt lat="32.3714419" lon="-110.7069265"><ele>1938.0</ele><time>2026-05-02T17:14:46.398Z</time></trkpt><trkpt lat="32.3715694" lon="-110.7068134"><ele>1939.6666666666665</ele><time>2026-05-02T17:14:47.398Z</time></trkpt><trkpt lat="32.3716988" lon="-110.7067098"><ele>1941.3333333333333</ele><time>2026-05-02T17:14:48.399Z</time></trkpt><trkpt lat="32.3718367" lon="-110.7066498"><ele>1943.0</ele><time>2026-05-02T17:14:49.398Z</time></trkpt><trkpt lat="32.3719825" lon="-110.7066199"><ele>1943.0</ele><time>2026-05-02T17:14:50.398Z</time></trkpt><trkpt lat="32.372133" lon="-110.7066172"><ele>1943.0</ele><time>2026-05-02T17:14:51.398Z</time></trkpt><trkpt lat="32.3722839" lon="-110.7066349"><ele>1943.0</ele><time>2026-05-02T17:14:52.398Z</time></trkpt><trkpt lat="32.3724365" lon="-110.7066568"><ele>1943.3333333333333</ele><time>2026-05-02T17:14:53.399Z</time></trkpt><trkpt lat="32.3725851" lon="-110.7066661"><ele>1943.6666666666665</ele><time>2026-05-02T17:14:54.399Z</time></trkpt><trkpt lat="32.3727331" lon="-110.7066511"><ele>1944.0</ele><time>2026-05-02T17:14:55.399Z</time></trkpt><trkpt lat="32.372882" lon="-110.7065999"><ele>1944.0</ele><time>2026-05-02T17:14:56.399Z</time></trkpt><trkpt lat="32.3730174" lon="-110.7065113"><ele>1944.0</ele><time>2026-05-02T17:14:57.398Z</time></trkpt><trkpt lat="32.3731315" lon="-110.7063873"><ele>1944.0</ele><time>2026-05-02T17:14:58.399Z</time></trkpt><trkpt lat="32.3732178" lon="-110.7062348"><ele>1945.0</ele><time>2026-05-02T17:14:59.399Z</time></trkpt><trkpt lat="32.3732716" lon="-110.7060637"><ele>1946.0</ele><time>2026-05-02T17:15:00.398Z</time></trkpt><trkpt lat="32.373292" lon="-110.7058797"><ele>1947.0</ele><time>2026-05-02T17:15:01.398Z</time></trkpt><trkpt lat="32.3732809" lon="-110.7056859"><ele>1947.0</ele><time>2026-05-02T17:15:02.398Z</time></trkpt><trkpt lat="32.3732603" lon="-110.7054883"><ele>1947.0</ele><time>2026-05-02T17:15:03.398Z</time></trkpt><trkpt lat="32.3732247" lon="-110.7052798"><ele>1947.0</ele><time>2026-05-02T17:15:04.398Z</time></trkpt><trkpt lat="32.3731921" lon="-110.7050738"><ele>1944.6666666666665</ele><time>2026-05-02T17:15:05.399Z</time></trkpt><trkpt lat="32.3731654" lon="-110.7048734"><ele>1942.3333333333333</ele><time>2026-05-02T17:15:06.399Z</time></trkpt><trkpt lat="32.3731507" lon="-110.7046801"><ele>1940.0</ele><time>2026-05-02T17:15:07.399Z</time></trkpt><trkpt lat="32.3731586" lon="-110.7044914"><ele>1936.3333333333333</ele><time>2026-05-02T17:15:08.398Z</time></trkpt><trkpt lat="32.3731786" lon="-110.7043002"><ele>1932.6666666666665</ele><time>2026-05-02T17:15:09.398Z</time></trkpt><trkpt lat="32.3732391" lon="-110.704114"><ele>1929.0</ele><time>2026-05-02T17:15:10.399Z</time></trkpt><trkpt lat="32.3733053" lon="-110.7039325"><ele>1929.0</ele><time>2026-05-02T17:15:11.398Z</time></trkpt><trkpt lat="32.3733644" lon="-110.7037585"><ele>1929.0</ele><time>2026-05-02T17:15:12.399Z</time></trkpt><trkpt lat="32.3734152" lon="-110.7035788"><ele>1929.0</ele><time>2026-05-02T17:15:13.398Z</time></trkpt><trkpt lat="32.3734263" lon="-110.7033928"><ele>1925.0</ele><time>2026-05-02T17:15:14.398Z</time></trkpt><trkpt lat="32.3734152" lon="-110.7032097"><ele>1921.0</ele><time>2026-05-02T17:15:15.398Z</time></trkpt><trkpt lat="32.373397" lon="-110.7030287"><ele>1917.0</ele><time>2026-05-02T17:15:16.398Z</time></trkpt><trkpt lat="32.373388" lon="-110.7028477"><ele>1917.0</ele><time>2026-05-02T17:15:17.399Z</time></trkpt><trkpt lat="32.3733852" lon="-110.7026682"><ele>1917.0</ele><time>2026-05-02T17:15:18.398Z</time></trkpt><trkpt lat="32.3734012" lon="-110.7024891"><ele>1917.0</ele><time>2026-05-02T17:15:19.398Z</time></trkpt><trkpt lat="32.3734318" lon="-110.7023101"><ele>1917.0</ele><time>2026-05-02T17:15:20.398Z</time></trkpt><trkpt lat="32.3734688" lon="-110.7021374"><ele>1917.0</ele><time>2026-05-02T17:15:21.399Z</time></trkpt><trkpt lat="32.3735295" lon="-110.7019668"><ele>1917.0</ele><time>2026-05-02T17:15:22.398Z</time></trkpt><trkpt lat="32.3736074" lon="-110.7018085"><ele>1917.0</ele><time>2026-05-02T17:15:23.398Z</time></trkpt><trkpt lat="32.3737043" lon="-110.7016653"><ele>1917.0</ele><time>2026-05-02T17:15:24.399Z</time></trkpt><trkpt lat="32.3738221" lon="-110.701537"><ele>1917.0</ele><time>2026-05-02T17:15:25.399Z</time></trkpt><trkpt lat="32.3739546" lon="-110.7014205"><ele>1921.6666666666665</ele><time>2026-05-02T17:15:26.398Z</time></trkpt><trkpt lat="32.3740941" lon="-110.701308"><ele>1926.3333333333333</ele><time>2026-05-02T17:15:27.399Z</time></trkpt><trkpt lat="32.374231" lon="-110.7011941"><ele>1931.0</ele><time>2026-05-02T17:15:28.398Z</time></trkpt><trkpt lat="32.3743621" lon="-110.7010741"><ele>1931.0</ele><time>2026-05-02T17:15:29.398Z</time></trkpt><trkpt lat="32.3744865" lon="-110.7009458"><ele>1931.0</ele><time>2026-05-02T17:15:30.399Z</time></trkpt><trkpt lat="32.3746036" lon="-110.7008117"><ele>1931.0</ele><time>2026-05-02T17:15:31.398Z</time></trkpt><trkpt lat="32.3747155" lon="-110.7006761"><ele>1931.0</ele><time>2026-05-02T17:15:32.4Z</time></trkpt><trkpt lat="32.3748239" lon="-110.7005396"><ele>1931.0</ele><time>2026-05-02T17:15:33.399Z</time></trkpt><trkpt lat="32.3749202" lon="-110.700395"><ele>1931.0</ele><time>2026-05-02T17:15:34.399Z</time></trkpt><trkpt lat="32.3749911" lon="-110.7002373"><ele>1925.0</ele><time>2026-05-02T17:15:35.398Z</time></trkpt><trkpt lat="32.3750314" lon="-110.7000679"><ele>1919.0</ele><time>2026-05-02T17:15:36.398Z</time></trkpt><trkpt lat="32.3750606" lon="-110.6998998"><ele>1913.0</ele><time>2026-05-02T17:15:37.398Z</time></trkpt><trkpt lat="32.3750333" lon="-110.699719"><ele>1907.0</ele><time>2026-05-02T17:15:38.399Z</time></trkpt><trkpt lat="32.3749852" lon="-110.6995327"><ele>1906.6666666666665</ele><time>2026-05-02T17:15:39.399Z</time></trkpt><trkpt lat="32.374925" lon="-110.6993464"><ele>1906.3333333333335</ele><time>2026-05-02T17:15:40.398Z</time></trkpt><trkpt lat="32.3748746" lon="-110.6991644"><ele>1906.0</ele><time>2026-05-02T17:15:41.398Z</time></trkpt><trkpt lat="32.3748447" lon="-110.6989794"><ele>1906.0</ele><time>2026-05-02T17:15:42.399Z</time></trkpt><trkpt lat="32.374837" lon="-110.6987865"><ele>1906.0</ele><time>2026-05-02T17:15:43.398Z</time></trkpt><trkpt lat="32.3748539" lon="-110.6985906"><ele>1906.0</ele><time>2026-05-02T17:15:44.398Z</time></trkpt><trkpt lat="32.3748956" lon="-110.6983958"><ele>1904.0</ele><time>2026-05-02T17:15:45.398Z</time></trkpt><trkpt lat="32.374957" lon="-110.6982019"><ele>1902.0</ele><time>2026-05-02T17:15:46.4Z</time></trkpt><trkpt lat="32.3750296" lon="-110.6980069"><ele>1900.0</ele><time>2026-05-02T17:15:47.399Z</time></trkpt><trkpt lat="32.3751004" lon="-110.6978047"><ele>1893.3333333333335</ele><time>2026-05-02T17:15:48.4Z</time></trkpt><trkpt lat="32.3751547" lon="-110.6975981"><ele>1886.6666666666665</ele><time>2026-05-02T17:15:49.399Z</time></trkpt><trkpt lat="32.3751885" lon="-110.6973849"><ele>1880.0</ele><time>2026-05-02T17:15:50.4Z</time></trkpt><trkpt lat="32.3752104" lon="-110.6971707"><ele>1880.0</ele><time>2026-05-02T17:15:51.399Z</time></trkpt><trkpt lat="32.3752372" lon="-110.6969588"><ele>1880.0</ele><time>2026-05-02T17:15:52.399Z</time></trkpt><trkpt lat="32.3752751" lon="-110.6967494"><ele>1880.0</ele><time>2026-05-02T17:15:53.399Z</time></trkpt><trkpt lat="32.3753208" lon="-110.6965353"><ele>1875.3333333333333</ele><time>2026-05-02T17:15:54.399Z</time></trkpt><trkpt lat="32.3753629" lon="-110.6963169"><ele>1870.6666666666665</ele><time>2026-05-02T17:15:55.399Z</time></trkpt><trkpt lat="32.3753968" lon="-110.6961007"><ele>1866.0</ele><time>2026-05-02T17:15:56.399Z</time></trkpt><trkpt lat="32.3754256" lon="-110.6958895"><ele>1861.0</ele><time>2026-05-02T17:15:57.4Z</time></trkpt><trkpt lat="32.3754478" lon="-110.6956835"><ele>1856.0</ele><time>2026-05-02T17:15:58.399Z</time></trkpt><trkpt lat="32.375472" lon="-110.6954755"><ele>1851.0</ele><time>2026-05-02T17:15:59.399Z</time></trkpt><trkpt lat="32.3755075" lon="-110.69527"><ele>1866.3333333333335</ele><time>2026-05-02T17:16:00.399Z</time></trkpt><trkpt lat="32.3755375" lon="-110.6950697"><ele>1881.6666666666667</ele><time>2026-05-02T17:16:01.4Z</time></trkpt><trkpt lat="32.3755542" lon="-110.6948697"><ele>1897.0</ele><time>2026-05-02T17:16:02.4Z</time></trkpt><trkpt lat="32.3755522" lon="-110.6946723"><ele>1897.0</ele><time>2026-05-02T17:16:03.399Z</time></trkpt><trkpt lat="32.3755226" lon="-110.6944781"><ele>1897.0</ele><time>2026-05-02T17:16:04.4Z</time></trkpt><trkpt lat="32.375474" lon="-110.6942869"><ele>1897.0</ele><time>2026-05-02T17:16:05.4Z</time></trkpt><trkpt lat="32.3754146" lon="-110.6941082"><ele>1883.5</ele><time>2026-05-02T17:16:06.399Z</time></trkpt><trkpt lat="32.3753581" lon="-110.6939406"><ele>1870.0</ele><time>2026-05-02T17:16:07.399Z</time></trkpt><trkpt lat="32.3753111" lon="-110.6937727"><ele>1856.5</ele><time>2026-05-02T17:16:08.4Z</time></trkpt><trkpt lat="32.3752882" lon="-110.6936051"><ele>1843.0</ele><time>2026-05-02T17:16:09.4Z</time></trkpt><trkpt lat="32.3752959" lon="-110.6934323"><ele>1842.75</ele><time>2026-05-02T17:16:10.399Z</time></trkpt><trkpt lat="32.3753324" lon="-110.6932611"><ele>1842.5</ele><time>2026-05-02T17:16:11.4Z</time></trkpt><trkpt lat="32.3753947" lon="-110.6931052"><ele>1842.25</ele><time>2026-05-02T17:16:12.4Z</time></trkpt><trkpt lat="32.3754884" lon="-110.6929639"><ele>1842.0</ele><time>2026-05-02T17:16:13.399Z</time></trkpt><trkpt lat="32.3756031" lon="-110.6928371"><ele>1843.6666666666665</ele><time>2026-05-02T17:16:14.399Z</time></trkpt><trkpt lat="32.3757337" lon="-110.692721"><ele>1845.3333333333333</ele><time>2026-05-02T17:16:15.399Z</time></trkpt><trkpt lat="32.3758724" lon="-110.6926068"><ele>1847.0</ele><time>2026-05-02T17:16:16.399Z</time></trkpt><trkpt lat="32.3760192" lon="-110.6924858"><ele>1847.0</ele><time>2026-05-02T17:16:17.399Z</time></trkpt><trkpt lat="32.3761613" lon="-110.6923696"><ele>1847.0</ele><time>2026-05-02T17:16:18.399Z</time></trkpt><trkpt lat="32.3762994" lon="-110.6922492"><ele>1847.0</ele><time>2026-05-02T17:16:19.399Z</time></trkpt><trkpt lat="32.3764352" lon="-110.6921316"><ele>1845.6666666666665</ele><time>2026-05-02T17:16:20.4Z</time></trkpt><trkpt lat="32.3765628" lon="-110.692014"><ele>1844.3333333333335</ele><time>2026-05-02T17:16:21.399Z</time></trkpt><trkpt lat="32.3766835" lon="-110.6918863"><ele>1843.0</ele><time>2026-05-02T17:16:22.4Z</time></trkpt><trkpt lat="32.376778" lon="-110.6917429"><ele>1843.0</ele><time>2026-05-02T17:16:23.4Z</time></trkpt><trkpt lat="32.3768471" lon="-110.6915782"><ele>1843.0</ele><time>2026-05-02T17:16:24.4Z</time></trkpt><trkpt lat="32.376883" lon="-110.6914011"><ele>1843.0</ele><time>2026-05-02T17:16:25.399Z</time></trkpt><trkpt lat="32.376897" lon="-110.6912199"><ele>1841.6666666666667</ele><time>2026-05-02T17:16:26.4Z</time></trkpt><trkpt lat="32.376902" lon="-110.6910448"><ele>1840.3333333333335</ele><time>2026-05-02T17:16:27.4Z</time></trkpt><trkpt lat="32.3769144" lon="-110.6908698"><ele>1839.0</ele><time>2026-05-02T17:16:28.399Z</time></trkpt><trkpt lat="32.3769501" lon="-110.6906877"><ele>1839.0</ele><time>2026-05-02T17:16:29.4Z</time></trkpt><trkpt lat="32.3770129" lon="-110.6905128"><ele>1839.0</ele><time>2026-05-02T17:16:30.4Z</time></trkpt><trkpt lat="32.3770844" lon="-110.6903308"><ele>1839.0</ele><time>2026-05-02T17:16:31.4Z</time></trkpt><trkpt lat="32.3771592" lon="-110.6901521"><ele>1838.6666666666665</ele><time>2026-05-02T17:16:32.4Z</time></trkpt><trkpt lat="32.3772333" lon="-110.6899793"><ele>1838.3333333333333</ele><time>2026-05-02T17:16:33.4Z</time></trkpt><trkpt lat="32.3773087" lon="-110.6898092"><ele>1838.0</ele><time>2026-05-02T17:16:34.399Z</time></trkpt><trkpt lat="32.3773937" lon="-110.6896494"><ele>1838.0</ele><time>2026-05-02T17:16:35.399Z</time></trkpt><trkpt lat="32.3774957" lon="-110.6895098"><ele>1838.0</ele><time>2026-05-02T17:16:36.399Z</time></trkpt><trkpt lat="32.3775988" lon="-110.6893781"><ele>1838.0</ele><time>2026-05-02T17:16:37.399Z</time></trkpt><trkpt lat="32.3777014" lon="-110.689256"><ele>1833.25</ele><time>2026-05-02T17:16:38.4Z</time></trkpt><trkpt lat="32.3777957" lon="-110.6891218"><ele>1828.5</ele><time>2026-05-02T17:16:39.4Z</time></trkpt><trkpt lat="32.3778819" lon="-110.6889838"><ele>1823.75</ele><time>2026-05-02T17:16:40.399Z</time></trkpt><trkpt lat="32.3779418" lon="-110.6888294"><ele>1819.0</ele><time>2026-05-02T17:16:41.399Z</time></trkpt><trkpt lat="32.3779712" lon="-110.6886573"><ele>1818.0</ele><time>2026-05-02T17:16:42.4Z</time></trkpt><trkpt lat="32.3779801" lon="-110.6884791"><ele>1817.0</ele><time>2026-05-02T17:16:43.399Z</time></trkpt><trkpt lat="32.3779594" lon="-110.6883013"><ele>1816.0</ele><time>2026-05-02T17:16:44.4Z</time></trkpt><trkpt lat="32.3779151" lon="-110.6881314"><ele>1816.0</ele><time>2026-05-02T17:16:45.4Z</time></trkpt><trkpt lat="32.3778396" lon="-110.6879774"><ele>1816.0</ele><time>2026-05-02T17:16:46.4Z</time></trkpt><trkpt lat="32.3777419" lon="-110.6878444"><ele>1816.0</ele><time>2026-05-02T17:16:47.399Z</time></trkpt><trkpt lat="32.3776255" lon="-110.687726"><ele>1818.0</ele><time>2026-05-02T17:16:48.399Z</time></trkpt><trkpt lat="32.3774866" lon="-110.6876453"><ele>1820.0</ele><time>2026-05-02T17:16:49.4Z</time></trkpt><trkpt lat="32.3773426" lon="-110.6875936"><ele>1822.0</ele><time>2026-05-02T17:16:50.4Z</time></trkpt><trkpt lat="32.3771942" lon="-110.6875788"><ele>1820.3333333333335</ele><time>2026-05-02T17:16:51.401Z</time></trkpt><trkpt lat="32.3770478" lon="-110.6876"><ele>1818.6666666666665</ele><time>2026-05-02T17:16:52.399Z</time></trkpt><trkpt lat="32.3769013" lon="-110.6876504"><ele>1817.0</ele><time>2026-05-02T17:16:53.4Z</time></trkpt><trkpt lat="32.3767678" lon="-110.6877345"><ele>1814.6666666666665</ele><time>2026-05-02T17:16:54.399Z</time></trkpt><trkpt lat="32.3766405" lon="-110.6878369"><ele>1812.3333333333335</ele><time>2026-05-02T17:16:55.4Z</time></trkpt><trkpt lat="32.3765174" lon="-110.6879514"><ele>1810.0</ele><time>2026-05-02T17:16:56.4Z</time></trkpt><trkpt lat="32.3763936" lon="-110.688078"><ele>1812.6666666666667</ele><time>2026-05-02T17:16:57.4Z</time></trkpt><trkpt lat="32.3762579" lon="-110.6882004"><ele>1815.3333333333335</ele><time>2026-05-02T17:16:58.4Z</time></trkpt><trkpt lat="32.3761232" lon="-110.6883166"><ele>1818.0</ele><time>2026-05-02T17:16:59.4Z</time></trkpt><trkpt lat="32.375984" lon="-110.6884293"><ele>1818.0</ele><time>2026-05-02T17:17:00.399Z</time></trkpt><trkpt lat="32.3758345" lon="-110.6885234"><ele>1818.0</ele><time>2026-05-02T17:17:01.399Z</time></trkpt><trkpt lat="32.3756787" lon="-110.6886112"><ele>1818.0</ele><time>2026-05-02T17:17:02.4Z</time></trkpt><trkpt lat="32.3755372" lon="-110.6887091"><ele>1816.0</ele><time>2026-05-02T17:17:03.399Z</time></trkpt><trkpt lat="32.3754029" lon="-110.6888081"><ele>1814.0</ele><time>2026-05-02T17:17:04.4Z</time></trkpt><trkpt lat="32.3752866" lon="-110.6889246"><ele>1812.0</ele><time>2026-05-02T17:17:05.4Z</time></trkpt><trkpt lat="32.3751796" lon="-110.6890441"><ele>1812.0</ele><time>2026-05-02T17:17:06.399Z</time></trkpt><trkpt lat="32.3750707" lon="-110.6891699"><ele>1812.0</ele><time>2026-05-02T17:17:07.399Z</time></trkpt><trkpt lat="32.3749674" lon="-110.6893076"><ele>1812.0</ele><time>2026-05-02T17:17:08.4Z</time></trkpt><trkpt lat="32.374871" lon="-110.6894658"><ele>1811.0</ele><time>2026-05-02T17:17:09.399Z</time></trkpt><trkpt lat="32.3747782" lon="-110.6896417"><ele>1810.0</ele><time>2026-05-02T17:17:10.4Z</time></trkpt><trkpt lat="32.3746933" lon="-110.6898193"><ele>1809.0</ele><time>2026-05-02T17:17:11.4Z</time></trkpt><trkpt lat="32.3746077" lon="-110.6899906"><ele>1809.0</ele><time>2026-05-02T17:17:12.399Z</time></trkpt><trkpt lat="32.3745253" lon="-110.6901661"><ele>1809.0</ele><time>2026-05-02T17:17:13.4Z</time></trkpt><trkpt lat="32.3744417" lon="-110.6903378"><ele>1809.0</ele><time>2026-05-02T17:17:14.4Z</time></trkpt><trkpt lat="32.3743578" lon="-110.6905133"><ele>1807.0</ele><time>2026-05-02T17:17:15.401Z</time></trkpt><trkpt lat="32.3742785" lon="-110.6906977"><ele>1805.0</ele><time>2026-05-02T17:17:16.399Z</time></trkpt><trkpt lat="32.374198" lon="-110.6908873"><ele>1803.0</ele><time>2026-05-02T17:17:17.399Z</time></trkpt><trkpt lat="32.3741178" lon="-110.691075"><ele>1802.0</ele><time>2026-05-02T17:17:18.4Z</time></trkpt><trkpt lat="32.3740439" lon="-110.6912788"><ele>1801.0</ele><time>2026-05-02T17:17:19.399Z</time></trkpt><trkpt lat="32.3739688" lon="-110.6914781"><ele>1800.0</ele><time>2026-05-02T17:17:20.399Z</time></trkpt><trkpt lat="32.3738926" lon="-110.6916734"><ele>1799.3333333333335</ele><time>2026-05-02T17:17:21.4Z</time></trkpt><trkpt lat="32.3738243" lon="-110.6918778"><ele>1798.6666666666667</ele><time>2026-05-02T17:17:22.401Z</time></trkpt><trkpt lat="32.373757" lon="-110.6920801"><ele>1798.0</ele><time>2026-05-02T17:17:23.401Z</time></trkpt><trkpt lat="32.3736923" lon="-110.6922823"><ele>1797.6666666666667</ele><time>2026-05-02T17:17:24.401Z</time></trkpt><trkpt lat="32.3736295" lon="-110.6924861"><ele>1797.3333333333335</ele><time>2026-05-02T17:17:25.4Z</time></trkpt><trkpt lat="32.3735717" lon="-110.6926911"><ele>1797.0</ele><time>2026-05-02T17:17:26.4Z</time></trkpt><trkpt lat="32.3735165" lon="-110.6928944"><ele>1796.3333333333335</ele><time>2026-05-02T17:17:27.401Z</time></trkpt><trkpt lat="32.3734638" lon="-110.693091"><ele>1795.6666666666667</ele><time>2026-05-02T17:17:28.4Z</time></trkpt><trkpt lat="32.3734151" lon="-110.6932875"><ele>1795.0</ele><time>2026-05-02T17:17:29.401Z</time></trkpt><trkpt lat="32.3733575" lon="-110.6934884"><ele>1795.6666666666667</ele><time>2026-05-02T17:17:30.4Z</time></trkpt><trkpt lat="32.3732991" lon="-110.6936869"><ele>1796.3333333333335</ele><time>2026-05-02T17:17:31.4Z</time></trkpt><trkpt lat="32.3732386" lon="-110.6938797"><ele>1797.0</ele><time>2026-05-02T17:17:32.401Z</time></trkpt><trkpt lat="32.3731741" lon="-110.6940664"><ele>1797.0</ele><time>2026-05-02T17:17:33.4Z</time></trkpt><trkpt lat="32.3731018" lon="-110.6942407"><ele>1797.0</ele><time>2026-05-02T17:17:34.401Z</time></trkpt><trkpt lat="32.373015" lon="-110.6944142"><ele>1797.0</ele><time>2026-05-02T17:17:35.401Z</time></trkpt><trkpt lat="32.3729257" lon="-110.6945821"><ele>1796.0</ele><time>2026-05-02T17:17:36.401Z</time></trkpt><trkpt lat="32.3728366" lon="-110.6947589"><ele>1795.0</ele><time>2026-05-02T17:17:37.4Z</time></trkpt><trkpt lat="32.3727504" lon="-110.6949382"><ele>1794.0</ele><time>2026-05-02T17:17:38.4Z</time></trkpt><trkpt lat="32.3726758" lon="-110.6951164"><ele>1792.3333333333335</ele><time>2026-05-02T17:17:39.401Z</time></trkpt><trkpt lat="32.3726074" lon="-110.6952964"><ele>1790.6666666666667</ele><time>2026-05-02T17:17:40.401Z</time></trkpt><trkpt lat="32.3725486" lon="-110.6954852"><ele>1789.0</ele><time>2026-05-02T17:17:41.4Z</time></trkpt><trkpt lat="32.372496" lon="-110.6956802"><ele>1789.0</ele><time>2026-05-02T17:17:42.401Z</time></trkpt><trkpt lat="32.3724408" lon="-110.6958651"><ele>1789.0</ele><time>2026-05-02T17:17:43.401Z</time></trkpt><trkpt lat="32.3723854" lon="-110.6960512"><ele>1789.0</ele><time>2026-05-02T17:17:44.4Z</time></trkpt><trkpt lat="32.372325" lon="-110.6962348"><ele>1790.3333333333335</ele><time>2026-05-02T17:17:45.4Z</time></trkpt><trkpt lat="32.3722695" lon="-110.6964216"><ele>1791.6666666666665</ele><time>2026-05-02T17:17:46.4Z</time></trkpt><trkpt lat="32.3722252" lon="-110.6966123"><ele>1793.0</ele><time>2026-05-02T17:17:47.401Z</time></trkpt><trkpt lat="32.3721817" lon="-110.6968009"><ele>1793.3333333333333</ele><time>2026-05-02T17:17:48.4Z</time></trkpt><trkpt lat="32.3721444" lon="-110.6969977"><ele>1793.6666666666665</ele><time>2026-05-02T17:17:49.401Z</time></trkpt><trkpt lat="32.372119" lon="-110.6972009"><ele>1794.0</ele><time>2026-05-02T17:17:50.4Z</time></trkpt><trkpt lat="32.3721016" lon="-110.697406"><ele>1794.0</ele><time>2026-05-02T17:17:51.401Z</time></trkpt><trkpt lat="32.3720859" lon="-110.6976094"><ele>1794.0</ele><time>2026-05-02T17:17:52.401Z</time></trkpt><trkpt lat="32.3720686" lon="-110.697813"><ele>1794.0</ele><time>2026-05-02T17:17:53.401Z</time></trkpt><trkpt lat="32.3720513" lon="-110.6980179"><ele>1791.6666666666665</ele><time>2026-05-02T17:17:54.401Z</time></trkpt><trkpt lat="32.3720282" lon="-110.6982261"><ele>1789.3333333333333</ele><time>2026-05-02T17:17:55.401Z</time></trkpt><trkpt lat="32.3719927" lon="-110.6984264"><ele>1787.0</ele><time>2026-05-02T17:17:56.4Z</time></trkpt><trkpt lat="32.371943" lon="-110.6986173"><ele>1786.3333333333333</ele><time>2026-05-02T17:17:57.4Z</time></trkpt><trkpt lat="32.3718764" lon="-110.6987994"><ele>1785.6666666666665</ele><time>2026-05-02T17:17:58.401Z</time></trkpt><trkpt lat="32.3717945" lon="-110.698973"><ele>1785.0</ele><time>2026-05-02T17:17:59.401Z</time></trkpt><trkpt lat="32.3716935" lon="-110.6991263"><ele>1785.0</ele><time>2026-05-02T17:18:00.4Z</time></trkpt><trkpt lat="32.3715847" lon="-110.6992716"><ele>1785.0</ele><time>2026-05-02T17:18:01.401Z</time></trkpt><trkpt lat="32.371476" lon="-110.6994125"><ele>1785.0</ele><time>2026-05-02T17:18:02.4Z</time></trkpt><trkpt lat="32.3713728" lon="-110.6995452"><ele>1783.0</ele><time>2026-05-02T17:18:03.401Z</time></trkpt><trkpt lat="32.3712802" lon="-110.6996911"><ele>1781.0</ele><time>2026-05-02T17:18:04.401Z</time></trkpt><trkpt lat="32.3712021" lon="-110.6998544"><ele>1779.0</ele><time>2026-05-02T17:18:05.401Z</time></trkpt><trkpt lat="32.3711441" lon="-110.7000251"><ele>1779.0</ele><time>2026-05-02T17:18:06.4Z</time></trkpt><trkpt lat="32.3711078" lon="-110.7002032"><ele>1779.0</ele><time>2026-05-02T17:18:07.4Z</time></trkpt><trkpt lat="32.3710911" lon="-110.7003813"><ele>1779.0</ele><time>2026-05-02T17:18:08.4Z</time></trkpt><trkpt lat="32.37108" lon="-110.7005455"><ele>1779.0</ele><time>2026-05-02T17:18:09.4Z</time></trkpt><trkpt lat="32.3710674" lon="-110.7007071"><ele>1780.25</ele><time>2026-05-02T17:18:10.401Z</time></trkpt><trkpt lat="32.371038" lon="-110.7008875"><ele>1781.5</ele><time>2026-05-02T17:18:11.401Z</time></trkpt><trkpt lat="32.3710011" lon="-110.7010438"><ele>1782.75</ele><time>2026-05-02T17:18:12.4Z</time></trkpt><trkpt lat="32.3709362" lon="-110.7011907"><ele>1784.0</ele><time>2026-05-02T17:18:13.4Z</time></trkpt><trkpt lat="32.3708566" lon="-110.7013315"><ele>1784.0</ele><time>2026-05-02T17:18:14.4Z</time></trkpt><trkpt lat="32.370755" lon="-110.7014646"><ele>1784.0</ele><time>2026-05-02T17:18:15.401Z</time></trkpt><trkpt lat="32.3706395" lon="-110.7015882"><ele>1784.0</ele><time>2026-05-02T17:18:16.4Z</time></trkpt><trkpt lat="32.3705172" lon="-110.7017036"><ele>1779.6666666666665</ele><time>2026-05-02T17:18:17.4Z</time></trkpt><trkpt lat="32.3703961" lon="-110.7018238"><ele>1775.3333333333335</ele><time>2026-05-02T17:18:18.401Z</time></trkpt><trkpt lat="32.3702815" lon="-110.7019561"><ele>1771.0</ele><time>2026-05-02T17:18:19.4Z</time></trkpt><trkpt lat="32.370173" lon="-110.7020972"><ele>1768.6666666666667</ele><time>2026-05-02T17:18:20.401Z</time></trkpt><trkpt lat="32.370066" lon="-110.7022576"><ele>1766.3333333333335</ele><time>2026-05-02T17:18:21.401Z</time></trkpt><trkpt lat="32.3699732" lon="-110.7024268"><ele>1764.0</ele><time>2026-05-02T17:18:22.4Z</time></trkpt><trkpt lat="32.369896" lon="-110.70261"><ele>1760.0</ele><time>2026-05-02T17:18:23.4Z</time></trkpt><trkpt lat="32.3698283" lon="-110.7027944"><ele>1756.0</ele><time>2026-05-02T17:18:24.4Z</time></trkpt><trkpt lat="32.36976" lon="-110.7029765"><ele>1752.0</ele><time>2026-05-02T17:18:25.401Z</time></trkpt><trkpt lat="32.3696732" lon="-110.7031351"><ele>1752.0</ele><time>2026-05-02T17:18:26.4Z</time></trkpt><trkpt lat="32.369575" lon="-110.7032898"><ele>1752.0</ele><time>2026-05-02T17:18:27.4Z</time></trkpt><trkpt lat="32.3694638" lon="-110.7034291"><ele>1752.0</ele><time>2026-05-02T17:18:28.401Z</time></trkpt><trkpt lat="32.3693404" lon="-110.7035636"><ele>1756.0</ele><time>2026-05-02T17:18:29.4Z</time></trkpt><trkpt lat="32.3692227" lon="-110.7037027"><ele>1760.0</ele><time>2026-05-02T17:18:30.4Z</time></trkpt><trkpt lat="32.3691181" lon="-110.7038553"><ele>1764.0</ele><time>2026-05-02T17:18:31.401Z</time></trkpt><trkpt lat="32.3690251" lon="-110.7040218"><ele>1764.0</ele><time>2026-05-02T17:18:32.4Z</time></trkpt><trkpt lat="32.3689445" lon="-110.7041964"><ele>1764.0</ele><time>2026-05-02T17:18:33.4Z</time></trkpt><trkpt lat="32.3688716" lon="-110.7043746"><ele>1764.0</ele><time>2026-05-02T17:18:34.401Z</time></trkpt><trkpt lat="32.3688028" lon="-110.7045594"><ele>1756.6666666666665</ele><time>2026-05-02T17:18:35.401Z</time></trkpt><trkpt lat="32.3687354" lon="-110.7047452"><ele>1749.3333333333333</ele><time>2026-05-02T17:18:36.4Z</time></trkpt><trkpt lat="32.3686693" lon="-110.7049337"><ele>1742.0</ele><time>2026-05-02T17:18:37.4Z</time></trkpt><trkpt lat="32.3685993" lon="-110.7051153"><ele>1741.3333333333333</ele><time>2026-05-02T17:18:38.402Z</time></trkpt><trkpt lat="32.3685245" lon="-110.7052983"><ele>1740.6666666666665</ele><time>2026-05-02T17:18:39.401Z</time></trkpt><trkpt lat="32.3684411" lon="-110.705481"><ele>1740.0</ele><time>2026-05-02T17:18:40.401Z</time></trkpt><trkpt lat="32.3683653" lon="-110.7056744"><ele>1740.0</ele><time>2026-05-02T17:18:41.4Z</time></trkpt><trkpt lat="32.3682811" lon="-110.705853"><ele>1740.0</ele><time>2026-05-02T17:18:42.401Z</time></trkpt><trkpt lat="32.3681897" lon="-110.7060151"><ele>1740.0</ele><time>2026-05-02T17:18:43.4Z</time></trkpt><trkpt lat="32.3680879" lon="-110.7061763"><ele>1734.6666666666665</ele><time>2026-05-02T17:18:44.401Z</time></trkpt><trkpt lat="32.3679712" lon="-110.7063163"><ele>1729.3333333333333</ele><time>2026-05-02T17:18:45.4Z</time></trkpt><trkpt lat="32.3678484" lon="-110.7064519"><ele>1724.0</ele><time>2026-05-02T17:18:46.4Z</time></trkpt><trkpt lat="32.3677303" lon="-110.7065883"><ele>1724.0</ele><time>2026-05-02T17:18:47.401Z</time></trkpt><trkpt lat="32.3676316" lon="-110.7067321"><ele>1724.0</ele><time>2026-05-02T17:18:48.4Z</time></trkpt><trkpt lat="32.3675457" lon="-110.7068844"><ele>1724.0</ele><time>2026-05-02T17:18:49.4Z</time></trkpt><trkpt lat="32.3674985" lon="-110.7070662"><ele>1726.0</ele><time>2026-05-02T17:18:50.4Z</time></trkpt><trkpt lat="32.3674657" lon="-110.7072507"><ele>1728.0</ele><time>2026-05-02T17:18:51.401Z</time></trkpt><trkpt lat="32.3674314" lon="-110.7074391"><ele>1730.0</ele><time>2026-05-02T17:18:52.4Z</time></trkpt><trkpt lat="32.3673845" lon="-110.7076172"><ele>1724.3333333333333</ele><time>2026-05-02T17:18:53.4Z</time></trkpt><trkpt lat="32.3673124" lon="-110.707782"><ele>1718.6666666666665</ele><time>2026-05-02T17:18:54.401Z</time></trkpt><trkpt lat="32.367216" lon="-110.7079313"><ele>1713.0</ele><time>2026-05-02T17:18:55.401Z</time></trkpt><trkpt lat="32.3670982" lon="-110.708076"><ele>1713.0</ele><time>2026-05-02T17:18:56.402Z</time></trkpt><trkpt lat="32.3669703" lon="-110.7082094"><ele>1713.0</ele><time>2026-05-02T17:18:57.401Z</time></trkpt><trkpt lat="32.3668415" lon="-110.7083499"><ele>1713.0</ele><time>2026-05-02T17:18:58.401Z</time></trkpt><trkpt lat="32.3667109" lon="-110.7084877"><ele>1711.0</ele><time>2026-05-02T17:18:59.402Z</time></trkpt><trkpt lat="32.3665744" lon="-110.7086263"><ele>1709.0</ele><time>2026-05-02T17:19:00.401Z</time></trkpt><trkpt lat="32.3664417" lon="-110.7087623"><ele>1707.0</ele><time>2026-05-02T17:19:01.402Z</time></trkpt><trkpt lat="32.3662917" lon="-110.7088986"><ele>1707.0</ele><time>2026-05-02T17:19:02.402Z</time></trkpt><trkpt lat="32.3661408" lon="-110.7090267"><ele>1707.0</ele><time>2026-05-02T17:19:03.401Z</time></trkpt><trkpt lat="32.3659899" lon="-110.7091508"><ele>1707.0</ele><time>2026-05-02T17:19:04.402Z</time></trkpt><trkpt lat="32.365842" lon="-110.7092834"><ele>1705.0</ele><time>2026-05-02T17:19:05.402Z</time></trkpt><trkpt lat="32.3657062" lon="-110.7094278"><ele>1703.0</ele><time>2026-05-02T17:19:06.402Z</time></trkpt><trkpt lat="32.365577" lon="-110.7095865"><ele>1701.0</ele><time>2026-05-02T17:19:07.401Z</time></trkpt><trkpt lat="32.3654408" lon="-110.709743"><ele>1701.0</ele><time>2026-05-02T17:19:08.401Z</time></trkpt><trkpt lat="32.3653157" lon="-110.709905"><ele>1701.0</ele><time>2026-05-02T17:19:09.401Z</time></trkpt><trkpt lat="32.3651908" lon="-110.7100712"><ele>1701.0</ele><time>2026-05-02T17:19:10.401Z</time></trkpt><trkpt lat="32.3650758" lon="-110.7102374"><ele>1704.0</ele><time>2026-05-02T17:19:11.402Z</time></trkpt><trkpt lat="32.3649731" lon="-110.7104061"><ele>1707.0</ele><time>2026-05-02T17:19:12.401Z</time></trkpt><trkpt lat="32.3648691" lon="-110.7105683"><ele>1710.0</ele><time>2026-05-02T17:19:13.401Z</time></trkpt><trkpt lat="32.3647617" lon="-110.7107232"><ele>1705.0</ele><time>2026-05-02T17:19:14.401Z</time></trkpt><trkpt lat="32.3646433" lon="-110.7108561"><ele>1700.0</ele><time>2026-05-02T17:19:15.402Z</time></trkpt><trkpt lat="32.364525" lon="-110.7109835"><ele>1695.0</ele><time>2026-05-02T17:19:16.402Z</time></trkpt><trkpt lat="32.3644192" lon="-110.7111039"><ele>1695.0</ele><time>2026-05-02T17:19:17.402Z</time></trkpt><trkpt lat="32.3643268" lon="-110.7112413"><ele>1695.0</ele><time>2026-05-02T17:19:18.402Z</time></trkpt><trkpt lat="32.3642507" lon="-110.711383"><ele>1695.0</ele><time>2026-05-02T17:19:19.402Z</time></trkpt><trkpt lat="32.3642062" lon="-110.7115471"><ele>1695.0</ele><time>2026-05-02T17:19:20.402Z</time></trkpt><trkpt lat="32.364169" lon="-110.711723"><ele>1695.0</ele><time>2026-05-02T17:19:21.402Z</time></trkpt><trkpt lat="32.3641356" lon="-110.7118995"><ele>1695.0</ele><time>2026-05-02T17:19:22.401Z</time></trkpt><trkpt lat="32.3640869" lon="-110.7120588"><ele>1695.0</ele><time>2026-05-02T17:19:23.401Z</time></trkpt><trkpt lat="32.3640197" lon="-110.7122201"><ele>1695.0</ele><time>2026-05-02T17:19:24.402Z</time></trkpt><trkpt lat="32.3639376" lon="-110.7123719"><ele>1691.0</ele><time>2026-05-02T17:19:25.401Z</time></trkpt><trkpt lat="32.3638452" lon="-110.7125138"><ele>1687.0</ele><time>2026-05-02T17:19:26.402Z</time></trkpt><trkpt lat="32.3637373" lon="-110.712655"><ele>1683.0</ele><time>2026-05-02T17:19:27.401Z</time></trkpt><trkpt lat="32.3636299" lon="-110.712795"><ele>1681.6666666666665</ele><time>2026-05-02T17:19:28.402Z</time></trkpt><trkpt lat="32.3635438" lon="-110.7129493"><ele>1680.3333333333333</ele><time>2026-05-02T17:19:29.402Z</time></trkpt><trkpt lat="32.3634565" lon="-110.7131129"><ele>1679.0</ele><time>2026-05-02T17:19:30.401Z</time></trkpt><trkpt lat="32.3633897" lon="-110.7132754"><ele>1679.0</ele><time>2026-05-02T17:19:31.401Z</time></trkpt><trkpt lat="32.3633275" lon="-110.7134236"><ele>1679.0</ele><time>2026-05-02T17:19:32.402Z</time></trkpt><trkpt lat="32.3632678" lon="-110.7135739"><ele>1679.0</ele><time>2026-05-02T17:19:33.402Z</time></trkpt><trkpt lat="32.3632065" lon="-110.7137339"><ele>1679.0</ele><time>2026-05-02T17:19:34.401Z</time></trkpt><trkpt lat="32.3631378" lon="-110.7138947"><ele>1678.3333333333333</ele><time>2026-05-02T17:19:35.401Z</time></trkpt><trkpt lat="32.3630546" lon="-110.7140508"><ele>1677.6666666666665</ele><time>2026-05-02T17:19:36.401Z</time></trkpt><trkpt lat="32.3629609" lon="-110.7142036"><ele>1677.0</ele><time>2026-05-02T17:19:37.402Z</time></trkpt><trkpt lat="32.3628443" lon="-110.7143394"><ele>1670.3333333333335</ele><time>2026-05-02T17:19:38.402Z</time></trkpt><trkpt lat="32.3627144" lon="-110.7144649"><ele>1663.6666666666667</ele><time>2026-05-02T17:19:39.401Z</time></trkpt><trkpt lat="32.3625794" lon="-110.7145784"><ele>1657.0</ele><time>2026-05-02T17:19:40.401Z</time></trkpt><trkpt lat="32.3624373" lon="-110.7146789"><ele>1657.0</ele><time>2026-05-02T17:19:41.402Z</time></trkpt><trkpt lat="32.3622954" lon="-110.7147697"><ele>1657.0</ele><time>2026-05-02T17:19:42.401Z</time></trkpt><trkpt lat="32.3621552" lon="-110.7148716"><ele>1657.0</ele><time>2026-05-02T17:19:43.401Z</time></trkpt><trkpt lat="32.3620443" lon="-110.7149994"><ele>1663.0</ele><time>2026-05-02T17:19:44.402Z</time></trkpt><trkpt lat="32.3619631" lon="-110.7151439"><ele>1669.0</ele><time>2026-05-02T17:19:45.402Z</time></trkpt><trkpt lat="32.3619067" lon="-110.7153176"><ele>1675.0</ele><time>2026-05-02T17:19:46.401Z</time></trkpt><trkpt lat="32.361869" lon="-110.7155097"><ele>1675.0</ele><time>2026-05-02T17:19:47.402Z</time></trkpt><trkpt lat="32.3618429" lon="-110.7156996"><ele>1675.0</ele><time>2026-05-02T17:19:48.402Z</time></trkpt><trkpt lat="32.3618187" lon="-110.7158866"><ele>1675.0</ele><time>2026-05-02T17:19:49.402Z</time></trkpt><trkpt lat="32.3618012" lon="-110.716071"><ele>1678.3333333333335</ele><time>2026-05-02T17:19:50.401Z</time></trkpt><trkpt lat="32.3618071" lon="-110.7162531"><ele>1681.6666666666665</ele><time>2026-05-02T17:19:51.401Z</time></trkpt><trkpt lat="32.3618441" lon="-110.7164368"><ele>1685.0</ele><time>2026-05-02T17:19:52.401Z</time></trkpt><trkpt lat="32.3618979" lon="-110.7166181"><ele>1685.0</ele><time>2026-05-02T17:19:53.401Z</time></trkpt><trkpt lat="32.3619618" lon="-110.716801"><ele>1685.0</ele><time>2026-05-02T17:19:54.402Z</time></trkpt><trkpt lat="32.3620288" lon="-110.7169853"><ele>1685.0</ele><time>2026-05-02T17:19:55.402Z</time></trkpt><trkpt lat="32.3620928" lon="-110.7171565"><ele>1692.6666666666665</ele><time>2026-05-02T17:19:56.402Z</time></trkpt><trkpt lat="32.3621585" lon="-110.7173253"><ele>1700.3333333333335</ele><time>2026-05-02T17:19:57.402Z</time></trkpt><trkpt lat="32.3622057" lon="-110.7175039"><ele>1708.0</ele><time>2026-05-02T17:19:58.401Z</time></trkpt><trkpt lat="32.3622324" lon="-110.7176916"><ele>1685.3333333333335</ele><time>2026-05-02T17:19:59.401Z</time></trkpt><trkpt lat="32.3622356" lon="-110.7178838"><ele>1662.6666666666665</ele><time>2026-05-02T17:20:00.401Z</time></trkpt><trkpt lat="32.3622291" lon="-110.7180889"><ele>1640.0</ele><time>2026-05-02T17:20:01.401Z</time></trkpt><trkpt lat="32.3622329" lon="-110.7182908"><ele>1640.0</ele><time>2026-05-02T17:20:02.401Z</time></trkpt><trkpt lat="32.3622506" lon="-110.7184924"><ele>1640.0</ele><time>2026-05-02T17:20:03.401Z</time></trkpt><trkpt lat="32.3622587" lon="-110.7186947"><ele>1640.0</ele><time>2026-05-02T17:20:04.402Z</time></trkpt><trkpt lat="32.362251" lon="-110.7188851"><ele>1636.3333333333333</ele><time>2026-05-02T17:20:05.402Z</time></trkpt><trkpt lat="32.3622243" lon="-110.7190746"><ele>1632.6666666666665</ele><time>2026-05-02T17:20:06.401Z</time></trkpt><trkpt lat="32.3621787" lon="-110.719273"><ele>1629.0</ele><time>2026-05-02T17:20:07.401Z</time></trkpt><trkpt lat="32.3621257" lon="-110.7194649"><ele>1641.0</ele><time>2026-05-02T17:20:08.401Z</time></trkpt><trkpt lat="32.3620748" lon="-110.7196497"><ele>1653.0</ele><time>2026-05-02T17:20:09.401Z</time></trkpt><trkpt lat="32.3620171" lon="-110.7198292"><ele>1665.0</ele><time>2026-05-02T17:20:10.401Z</time></trkpt><trkpt lat="32.3619594" lon="-110.7200056"><ele>1665.0</ele><time>2026-05-02T17:20:11.402Z</time></trkpt><trkpt lat="32.3618795" lon="-110.7201671"><ele>1665.0</ele><time>2026-05-02T17:20:12.401Z</time></trkpt><trkpt lat="32.3617835" lon="-110.7203113"><ele>1665.0</ele><time>2026-05-02T17:20:13.402Z</time></trkpt><trkpt lat="32.3616659" lon="-110.7204434"><ele>1664.0</ele><time>2026-05-02T17:20:14.402Z</time></trkpt><trkpt lat="32.36153" lon="-110.7205628"><ele>1663.0</ele><time>2026-05-02T17:20:15.402Z</time></trkpt><trkpt lat="32.3613872" lon="-110.7206763"><ele>1662.0</ele><time>2026-05-02T17:20:16.402Z</time></trkpt><trkpt lat="32.3612536" lon="-110.7207911"><ele>1662.0</ele><time>2026-05-02T17:20:17.402Z</time></trkpt><trkpt lat="32.3611296" lon="-110.7209177"><ele>1662.0</ele><time>2026-05-02T17:20:18.401Z</time></trkpt><trkpt lat="32.3610156" lon="-110.7210588"><ele>1662.0</ele><time>2026-05-02T17:20:19.402Z</time></trkpt><trkpt lat="32.3609189" lon="-110.7212233"><ele>1648.0</ele><time>2026-05-02T17:20:20.401Z</time></trkpt><trkpt lat="32.3608195" lon="-110.7213848"><ele>1634.0</ele><time>2026-05-02T17:20:21.401Z</time></trkpt><trkpt lat="32.3607155" lon="-110.7215354"><ele>1620.0</ele><time>2026-05-02T17:20:22.402Z</time></trkpt><trkpt lat="32.3605996" lon="-110.7216702"><ele>1614.0</ele><time>2026-05-02T17:20:23.402Z</time></trkpt><trkpt lat="32.3604737" lon="-110.7217923"><ele>1608.0</ele><time>2026-05-02T17:20:24.401Z</time></trkpt><trkpt lat="32.3603187" lon="-110.7218829"><ele>1602.0</ele><time>2026-05-02T17:20:25.401Z</time></trkpt><trkpt lat="32.3601579" lon="-110.7219557"><ele>1602.0</ele><time>2026-05-02T17:20:26.401Z</time></trkpt><trkpt lat="32.3599801" lon="-110.7220093"><ele>1602.0</ele><time>2026-05-02T17:20:27.401Z</time></trkpt><trkpt lat="32.3598166" lon="-110.7220733"><ele>1602.0</ele><time>2026-05-02T17:20:28.402Z</time></trkpt><trkpt lat="32.3596571" lon="-110.7221507"><ele>1609.6666666666665</ele><time>2026-05-02T17:20:29.402Z</time></trkpt><trkpt lat="32.3595068" lon="-110.7222488"><ele>1617.3333333333333</ele><time>2026-05-02T17:20:30.401Z</time></trkpt><trkpt lat="32.359371" lon="-110.7223663"><ele>1625.0</ele><time>2026-05-02T17:20:31.402Z</time></trkpt><trkpt lat="32.3592427" lon="-110.7224954"><ele>1625.0</ele><time>2026-05-02T17:20:32.401Z</time></trkpt><trkpt lat="32.3591134" lon="-110.7226101"><ele>1625.0</ele><time>2026-05-02T17:20:33.401Z</time></trkpt><trkpt lat="32.3589718" lon="-110.722704"><ele>1625.0</ele><time>2026-05-02T17:20:34.401Z</time></trkpt><trkpt lat="32.3588233" lon="-110.7227852"><ele>1623.0</ele><time>2026-05-02T17:20:35.402Z</time></trkpt><trkpt lat="32.3586754" lon="-110.7228558"><ele>1621.0</ele><time>2026-05-02T17:20:36.402Z</time></trkpt><trkpt lat="32.3585363" lon="-110.7229327"><ele>1619.0</ele><time>2026-05-02T17:20:37.403Z</time></trkpt><trkpt lat="32.3584079" lon="-110.7230302"><ele>1619.0</ele><time>2026-05-02T17:20:38.402Z</time></trkpt><trkpt lat="32.3582976" lon="-110.7231481"><ele>1619.0</ele><time>2026-05-02T17:20:39.403Z</time></trkpt><trkpt lat="32.3582057" lon="-110.7232943"><ele>1619.0</ele><time>2026-05-02T17:20:40.403Z</time></trkpt><trkpt lat="32.3581336" lon="-110.7234641"><ele>1609.6666666666665</ele><time>2026-05-02T17:20:41.403Z</time></trkpt><trkpt lat="32.3580845" lon="-110.7236566"><ele>1600.3333333333335</ele><time>2026-05-02T17:20:42.402Z</time></trkpt><trkpt lat="32.3580457" lon="-110.7238583"><ele>1591.0</ele><time>2026-05-02T17:20:43.403Z</time></trkpt><trkpt lat="32.3580122" lon="-110.7240648"><ele>1609.3333333333335</ele><time>2026-05-02T17:20:44.402Z</time></trkpt><trkpt lat="32.3579879" lon="-110.724271"><ele>1627.6666666666665</ele><time>2026-05-02T17:20:45.403Z</time></trkpt><trkpt lat="32.3579809" lon="-110.7244776"><ele>1646.0</ele><time>2026-05-02T17:20:46.403Z</time></trkpt><trkpt lat="32.3579838" lon="-110.7246734"><ele>1646.0</ele><time>2026-05-02T17:20:47.404Z</time></trkpt><trkpt lat="32.3579894" lon="-110.7248581"><ele>1646.0</ele><time>2026-05-02T17:20:48.402Z</time></trkpt><trkpt lat="32.3579747" lon="-110.725037"><ele>1646.0</ele><time>2026-05-02T17:20:49.403Z</time></trkpt><trkpt lat="32.357942" lon="-110.7252051"><ele>1636.5</ele><time>2026-05-02T17:20:50.402Z</time></trkpt><trkpt lat="32.3578881" lon="-110.7253621"><ele>1627.0</ele><time>2026-05-02T17:20:51.402Z</time></trkpt><trkpt lat="32.3578075" lon="-110.7255095"><ele>1617.5</ele><time>2026-05-02T17:20:52.402Z</time></trkpt><trkpt lat="32.3577061" lon="-110.7256288"><ele>1608.0</ele><time>2026-05-02T17:20:53.402Z</time></trkpt><trkpt lat="32.3575841" lon="-110.7257247"><ele>1608.0</ele><time>2026-05-02T17:20:54.402Z</time></trkpt><trkpt lat="32.3574503" lon="-110.7257942"><ele>1608.0</ele><time>2026-05-02T17:20:55.403Z</time></trkpt><trkpt lat="32.3573109" lon="-110.7258435"><ele>1608.0</ele><time>2026-05-02T17:20:56.403Z</time></trkpt><trkpt lat="32.3571567" lon="-110.7258589"><ele>1608.0</ele><time>2026-05-02T17:20:57.402Z</time></trkpt><trkpt lat="32.3569952" lon="-110.7258546"><ele>1611.0</ele><time>2026-05-02T17:20:58.403Z</time></trkpt><trkpt lat="32.3568387" lon="-110.7258541"><ele>1614.0</ele><time>2026-05-02T17:20:59.403Z</time></trkpt><trkpt lat="32.3566847" lon="-110.7258743"><ele>1617.0</ele><time>2026-05-02T17:21:00.403Z</time></trkpt><trkpt lat="32.3565346" lon="-110.7259211"><ele>1617.0</ele><time>2026-05-02T17:21:01.403Z</time></trkpt><trkpt lat="32.3563885" lon="-110.7259921"><ele>1617.0</ele><time>2026-05-02T17:21:02.402Z</time></trkpt><trkpt lat="32.3562442" lon="-110.7260688"><ele>1617.0</ele><time>2026-05-02T17:21:03.403Z</time></trkpt><trkpt lat="32.3560987" lon="-110.7261355"><ele>1607.6666666666665</ele><time>2026-05-02T17:21:04.402Z</time></trkpt><trkpt lat="32.3559464" lon="-110.726173"><ele>1598.3333333333333</ele><time>2026-05-02T17:21:05.402Z</time></trkpt><trkpt lat="32.3557921" lon="-110.7261837"><ele>1589.0</ele><time>2026-05-02T17:21:06.402Z</time></trkpt><trkpt lat="32.3556367" lon="-110.7261632"><ele>1585.3333333333333</ele><time>2026-05-02T17:21:07.402Z</time></trkpt><trkpt lat="32.3554874" lon="-110.7261096"><ele>1581.6666666666665</ele><time>2026-05-02T17:21:08.403Z</time></trkpt><trkpt lat="32.3553417" lon="-110.7260303"><ele>1578.0</ele><time>2026-05-02T17:21:09.402Z</time></trkpt><trkpt lat="32.355205" lon="-110.7259221"><ele>1587.6666666666665</ele><time>2026-05-02T17:21:10.403Z</time></trkpt><trkpt lat="32.3550713" lon="-110.7258104"><ele>1597.3333333333333</ele><time>2026-05-02T17:21:11.402Z</time></trkpt><trkpt lat="32.3549559" lon="-110.7256647"><ele>1607.0</ele><time>2026-05-02T17:21:12.403Z</time></trkpt><trkpt lat="32.3548575" lon="-110.7255177"><ele>1607.0</ele><time>2026-05-02T17:21:13.402Z</time></trkpt><trkpt lat="32.3547742" lon="-110.725356"><ele>1607.0</ele><time>2026-05-02T17:21:14.402Z</time></trkpt><trkpt lat="32.3547063" lon="-110.7251924"><ele>1607.0</ele><time>2026-05-02T17:21:15.403Z</time></trkpt><trkpt lat="32.354657" lon="-110.7250175"><ele>1596.3333333333333</ele><time>2026-05-02T17:21:16.403Z</time></trkpt><trkpt lat="32.3546255" lon="-110.7248245"><ele>1585.6666666666665</ele><time>2026-05-02T17:21:17.402Z</time></trkpt><trkpt lat="32.3546141" lon="-110.7246311"><ele>1575.0</ele><time>2026-05-02T17:21:18.402Z</time></trkpt><trkpt lat="32.3546284" lon="-110.7244354"><ele>1575.6666666666665</ele><time>2026-05-02T17:21:19.403Z</time></trkpt><trkpt lat="32.3546649" lon="-110.7242459"><ele>1576.3333333333333</ele><time>2026-05-02T17:21:20.403Z</time></trkpt><trkpt lat="32.3547198" lon="-110.7240669"><ele>1577.0</ele><time>2026-05-02T17:21:21.403Z</time></trkpt><trkpt lat="32.3547748" lon="-110.7238841"><ele>1588.0</ele><time>2026-05-02T17:21:22.403Z</time></trkpt><trkpt lat="32.3548203" lon="-110.7237164"><ele>1599.0</ele><time>2026-05-02T17:21:23.403Z</time></trkpt><trkpt lat="32.3548435" lon="-110.723546"><ele>1610.0</ele><time>2026-05-02T17:21:24.403Z</time></trkpt><trkpt lat="32.354837" lon="-110.7233852"><ele>1621.0</ele><time>2026-05-02T17:21:25.403Z</time></trkpt><trkpt lat="32.3547826" lon="-110.7232322"><ele>1612.5</ele><time>2026-05-02T17:21:26.403Z</time></trkpt><trkpt lat="32.3547008" lon="-110.7231093"><ele>1604.0</ele><time>2026-05-02T17:21:27.403Z</time></trkpt><trkpt lat="32.3546095" lon="-110.7230079"><ele>1595.5</ele><time>2026-05-02T17:21:28.403Z</time></trkpt><trkpt lat="32.354481" lon="-110.7229482"><ele>1587.0</ele><time>2026-05-02T17:21:29.403Z</time></trkpt><trkpt lat="32.3543427" lon="-110.7229353"><ele>1587.0</ele><time>2026-05-02T17:21:30.403Z</time></trkpt><trkpt lat="32.3542119" lon="-110.7229706"><ele>1587.0</ele><time>2026-05-02T17:21:31.402Z</time></trkpt><trkpt lat="32.3540813" lon="-110.7230343"><ele>1587.0</ele><time>2026-05-02T17:21:32.402Z</time></trkpt><trkpt lat="32.3539475" lon="-110.7231362"><ele>1587.0</ele><time>2026-05-02T17:21:33.402Z</time></trkpt><trkpt lat="32.3538131" lon="-110.7232536"><ele>1586.0</ele><time>2026-05-02T17:21:34.403Z</time></trkpt><trkpt lat="32.3536756" lon="-110.7233844"><ele>1585.0</ele><time>2026-05-02T17:21:35.403Z</time></trkpt><trkpt lat="32.3535413" lon="-110.7235254"><ele>1584.0</ele><time>2026-05-02T17:21:36.403Z</time></trkpt><trkpt lat="32.3534113" lon="-110.7236684"><ele>1584.0</ele><time>2026-05-02T17:21:37.402Z</time></trkpt><trkpt lat="32.353294" lon="-110.7238161"><ele>1584.0</ele><time>2026-05-02T17:21:38.404Z</time></trkpt><trkpt lat="32.3531846" lon="-110.7239748"><ele>1584.0</ele><time>2026-05-02T17:21:39.402Z</time></trkpt><trkpt lat="32.3530822" lon="-110.7241436"><ele>1584.3333333333335</ele><time>2026-05-02T17:21:40.403Z</time></trkpt><trkpt lat="32.3529834" lon="-110.7243128"><ele>1584.6666666666667</ele><time>2026-05-02T17:21:41.402Z</time></trkpt><trkpt lat="32.3528731" lon="-110.7244613"><ele>1585.0</ele><time>2026-05-02T17:21:42.402Z</time></trkpt><trkpt lat="32.3527556" lon="-110.7245895"><ele>1585.0</ele><time>2026-05-02T17:21:43.403Z</time></trkpt><trkpt lat="32.352616" lon="-110.7246868"><ele>1585.0</ele><time>2026-05-02T17:21:44.402Z</time></trkpt><trkpt lat="32.3524718" lon="-110.7247714"><ele>1585.0</ele><time>2026-05-02T17:21:45.403Z</time></trkpt><trkpt lat="32.352321" lon="-110.7248377"><ele>1587.0</ele><time>2026-05-02T17:21:46.402Z</time></trkpt><trkpt lat="32.3521533" lon="-110.7248754"><ele>1589.0</ele><time>2026-05-02T17:21:47.402Z</time></trkpt><trkpt lat="32.3519782" lon="-110.724891"><ele>1591.0</ele><time>2026-05-02T17:21:48.403Z</time></trkpt><trkpt lat="32.3517939" lon="-110.7248865"><ele>1591.0</ele><time>2026-05-02T17:21:49.404Z</time></trkpt><trkpt lat="32.3516152" lon="-110.7248916"><ele>1591.0</ele><time>2026-05-02T17:21:50.403Z</time></trkpt><trkpt lat="32.3514398" lon="-110.7249082"><ele>1591.0</ele><time>2026-05-02T17:21:51.402Z</time></trkpt><trkpt lat="32.3512736" lon="-110.7249419"><ele>1591.0</ele><time>2026-05-02T17:21:52.403Z</time></trkpt><trkpt lat="32.3511097" lon="-110.7249752"><ele>1591.0</ele><time>2026-05-02T17:21:53.403Z</time></trkpt><trkpt lat="32.3509505" lon="-110.7249974"><ele>1591.0</ele><time>2026-05-02T17:21:54.403Z</time></trkpt><trkpt lat="32.3507832" lon="-110.7250062"><ele>1591.0</ele><time>2026-05-02T17:21:55.403Z</time></trkpt><trkpt lat="32.3506138" lon="-110.7249942"><ele>1591.0</ele><time>2026-05-02T17:21:56.403Z</time></trkpt><trkpt lat="32.3504362" lon="-110.7249472"><ele>1591.0</ele><time>2026-05-02T17:21:57.402Z</time></trkpt><trkpt lat="32.3502833" lon="-110.7248871"><ele>1586.6666666666667</ele><time>2026-05-02T17:21:58.402Z</time></trkpt><trkpt lat="32.3501298" lon="-110.7247996"><ele>1582.3333333333335</ele><time>2026-05-02T17:21:59.404Z</time></trkpt><trkpt lat="32.3499778" lon="-110.7246809"><ele>1578.0</ele><time>2026-05-02T17:22:00.402Z</time></trkpt><trkpt lat="32.3498246" lon="-110.7245503"><ele>1577.0</ele><time>2026-05-02T17:22:01.403Z</time></trkpt><trkpt lat="32.3496786" lon="-110.7244206"><ele>1576.0</ele><time>2026-05-02T17:22:02.402Z</time></trkpt><trkpt lat="32.3495391" lon="-110.7242881"><ele>1575.0</ele><time>2026-05-02T17:22:03.403Z</time></trkpt><trkpt lat="32.3494043" lon="-110.7241618"><ele>1575.0</ele><time>2026-05-02T17:22:04.402Z</time></trkpt><trkpt lat="32.3492711" lon="-110.7240342"><ele>1575.0</ele><time>2026-05-02T17:22:05.403Z</time></trkpt><trkpt lat="32.3491392" lon="-110.7238993"><ele>1575.0</ele><time>2026-05-02T17:22:06.404Z</time></trkpt><trkpt lat="32.3490113" lon="-110.7237542"><ele>1575.0</ele><time>2026-05-02T17:22:07.404Z</time></trkpt><trkpt lat="32.3488828" lon="-110.7235948"><ele>1575.0</ele><time>2026-05-02T17:22:08.403Z</time></trkpt><trkpt lat="32.3487646" lon="-110.7234318"><ele>1575.0</ele><time>2026-05-02T17:22:09.402Z</time></trkpt><trkpt lat="32.3486561" lon="-110.7232584"><ele>1575.3333333333335</ele><time>2026-05-02T17:22:10.402Z</time></trkpt><trkpt lat="32.3485568" lon="-110.7230753"><ele>1575.6666666666667</ele><time>2026-05-02T17:22:11.402Z</time></trkpt><trkpt lat="32.3484649" lon="-110.7228902"><ele>1576.0</ele><time>2026-05-02T17:22:12.402Z</time></trkpt><trkpt lat="32.348385" lon="-110.7226876"><ele>1576.0</ele><time>2026-05-02T17:22:13.403Z</time></trkpt><trkpt lat="32.3483125" lon="-110.7224754"><ele>1576.0</ele><time>2026-05-02T17:22:14.403Z</time></trkpt><trkpt lat="32.3482497" lon="-110.7222589"><ele>1576.0</ele><time>2026-05-02T17:22:15.403Z</time></trkpt><trkpt lat="32.3481932" lon="-110.7220401"><ele>1574.3333333333335</ele><time>2026-05-02T17:22:16.404Z</time></trkpt><trkpt lat="32.3481388" lon="-110.7218314"><ele>1572.6666666666665</ele><time>2026-05-02T17:22:17.403Z</time></trkpt><trkpt lat="32.3480932" lon="-110.7216227"><ele>1571.0</ele><time>2026-05-02T17:22:18.403Z</time></trkpt><trkpt lat="32.3480538" lon="-110.7214132"><ele>1565.3333333333333</ele><time>2026-05-02T17:22:19.404Z</time></trkpt><trkpt lat="32.3480067" lon="-110.7212014"><ele>1559.6666666666665</ele><time>2026-05-02T17:22:20.403Z</time></trkpt><trkpt lat="32.347962" lon="-110.7209958"><ele>1554.0</ele><time>2026-05-02T17:22:21.403Z</time></trkpt><trkpt lat="32.3479176" lon="-110.7207929"><ele>1553.0</ele><time>2026-05-02T17:22:22.404Z</time></trkpt><trkpt lat="32.3478743" lon="-110.7205932"><ele>1552.0</ele><time>2026-05-02T17:22:23.403Z</time></trkpt><trkpt lat="32.347839" lon="-110.7203966"><ele>1551.0</ele><time>2026-05-02T17:22:24.403Z</time></trkpt><trkpt lat="32.3478113" lon="-110.7201997"><ele>1550.3333333333335</ele><time>2026-05-02T17:22:25.404Z</time></trkpt><trkpt lat="32.3477986" lon="-110.7199962"><ele>1549.6666666666667</ele><time>2026-05-02T17:22:26.403Z</time></trkpt><trkpt lat="32.3478084" lon="-110.7197909"><ele>1549.0</ele><time>2026-05-02T17:22:27.404Z</time></trkpt><trkpt lat="32.3478404" lon="-110.7195852"><ele>1547.0</ele><time>2026-05-02T17:22:28.403Z</time></trkpt><trkpt lat="32.3478874" lon="-110.7193877"><ele>1545.0</ele><time>2026-05-02T17:22:29.404Z</time></trkpt><trkpt lat="32.3479432" lon="-110.7191941"><ele>1543.0</ele><time>2026-05-02T17:22:30.404Z</time></trkpt><trkpt lat="32.3480049" lon="-110.7190027"><ele>1545.3333333333335</ele><time>2026-05-02T17:22:31.403Z</time></trkpt><trkpt lat="32.3480579" lon="-110.7188207"><ele>1547.6666666666665</ele><time>2026-05-02T17:22:32.404Z</time></trkpt><trkpt lat="32.3480929" lon="-110.7186355"><ele>1550.0</ele><time>2026-05-02T17:22:33.403Z</time></trkpt><trkpt lat="32.3481013" lon="-110.7184435"><ele>1550.0</ele><time>2026-05-02T17:22:34.404Z</time></trkpt><trkpt lat="32.3480789" lon="-110.7182611"><ele>1550.0</ele><time>2026-05-02T17:22:35.403Z</time></trkpt><trkpt lat="32.3480299" lon="-110.718085"><ele>1550.0</ele><time>2026-05-02T17:22:36.404Z</time></trkpt><trkpt lat="32.3479462" lon="-110.7179272"><ele>1545.3333333333333</ele><time>2026-05-02T17:22:37.403Z</time></trkpt><trkpt lat="32.347842" lon="-110.7177906"><ele>1540.6666666666665</ele><time>2026-05-02T17:22:38.404Z</time></trkpt><trkpt lat="32.3477196" lon="-110.7176807"><ele>1536.0</ele><time>2026-05-02T17:22:39.403Z</time></trkpt><trkpt lat="32.3475794" lon="-110.7176089"><ele>1535.0</ele><time>2026-05-02T17:22:40.404Z</time></trkpt><trkpt lat="32.3474251" lon="-110.7175644"><ele>1534.0</ele><time>2026-05-02T17:22:41.403Z</time></trkpt><trkpt lat="32.3472648" lon="-110.7175636"><ele>1533.0</ele><time>2026-05-02T17:22:42.404Z</time></trkpt><trkpt lat="32.3471035" lon="-110.7176037"><ele>1530.0</ele><time>2026-05-02T17:22:43.403Z</time></trkpt><trkpt lat="32.3469423" lon="-110.7176756"><ele>1527.0</ele><time>2026-05-02T17:22:44.404Z</time></trkpt><trkpt lat="32.3467937" lon="-110.7177728"><ele>1524.0</ele><time>2026-05-02T17:22:45.403Z</time></trkpt><trkpt lat="32.3466518" lon="-110.717875"><ele>1524.0</ele><time>2026-05-02T17:22:46.404Z</time></trkpt><trkpt lat="32.3465229" lon="-110.71797"><ele>1524.0</ele><time>2026-05-02T17:22:47.403Z</time></trkpt><trkpt lat="32.3463987" lon="-110.7180594"><ele>1524.0</ele><time>2026-05-02T17:22:48.404Z</time></trkpt><trkpt lat="32.3462855" lon="-110.718143"><ele>1524.0</ele><time>2026-05-02T17:22:49.403Z</time></trkpt><trkpt lat="32.346189" lon="-110.7182202"><ele>1524.4</ele><time>2026-05-02T17:22:50.403Z</time></trkpt><trkpt lat="32.3460973" lon="-110.7182854"><ele>1524.8000000000002</ele><time>2026-05-02T17:22:51.403Z</time></trkpt><trkpt lat="32.3460006" lon="-110.7183463"><ele>1525.1999999999998</ele><time>2026-05-02T17:22:52.403Z</time></trkpt><trkpt lat="32.3459022" lon="-110.7183913"><ele>1525.6</ele><time>2026-05-02T17:22:53.403Z</time></trkpt><trkpt lat="32.3458073" lon="-110.7184309"><ele>1526.0</ele><time>2026-05-02T17:22:54.404Z</time></trkpt><trkpt lat="32.3456987" lon="-110.7184629"><ele>1526.0</ele><time>2026-05-02T17:22:55.404Z</time></trkpt><trkpt lat="32.3455791" lon="-110.7184825"><ele>1526.0</ele><time>2026-05-02T17:22:56.403Z</time></trkpt><trkpt lat="32.3454427" lon="-110.7184937"><ele>1526.0</ele><time>2026-05-02T17:22:57.404Z</time></trkpt><trkpt lat="32.3452971" lon="-110.7184919"><ele>1526.0</ele><time>2026-05-02T17:22:58.404Z</time></trkpt><trkpt lat="32.345144" lon="-110.7184847"><ele>1523.3333333333335</ele><time>2026-05-02T17:22:59.403Z</time></trkpt><trkpt lat="32.3449904" lon="-110.7184838"><ele>1520.6666666666667</ele><time>2026-05-02T17:23:00.403Z</time></trkpt><trkpt lat="32.3448285" lon="-110.7184815"><ele>1518.0</ele><time>2026-05-02T17:23:01.404Z</time></trkpt><trkpt lat="32.3446652" lon="-110.7184857"><ele>1516.0</ele><time>2026-05-02T17:23:02.403Z</time></trkpt><trkpt lat="32.3444913" lon="-110.7184837"><ele>1514.0</ele><time>2026-05-02T17:23:03.403Z</time></trkpt><trkpt lat="32.3443213" lon="-110.71848"><ele>1512.0</ele><time>2026-05-02T17:23:04.403Z</time></trkpt><trkpt lat="32.3441487" lon="-110.7184739"><ele>1512.0</ele><time>2026-05-02T17:23:05.403Z</time></trkpt><trkpt lat="32.3439727" lon="-110.7184667"><ele>1512.0</ele><time>2026-05-02T17:23:06.404Z</time></trkpt><trkpt lat="32.3437955" lon="-110.7184582"><ele>1512.0</ele><time>2026-05-02T17:23:07.404Z</time></trkpt><trkpt lat="32.3436124" lon="-110.7184474"><ele>1509.6666666666667</ele><time>2026-05-02T17:23:08.404Z</time></trkpt><trkpt lat="32.3434338" lon="-110.7184274"><ele>1507.3333333333335</ele><time>2026-05-02T17:23:09.403Z</time></trkpt><trkpt lat="32.343263" lon="-110.718406"><ele>1505.0</ele><time>2026-05-02T17:23:10.404Z</time></trkpt><trkpt lat="32.3430914" lon="-110.7183751"><ele>1502.3333333333335</ele><time>2026-05-02T17:23:11.403Z</time></trkpt><trkpt lat="32.3429219" lon="-110.718337"><ele>1499.6666666666667</ele><time>2026-05-02T17:23:12.404Z</time></trkpt><trkpt lat="32.3427555" lon="-110.7182907"><ele>1497.0</ele><time>2026-05-02T17:23:13.403Z</time></trkpt><trkpt lat="32.3425907" lon="-110.7182435"><ele>1497.0</ele><time>2026-05-02T17:23:14.403Z</time></trkpt><trkpt lat="32.3424247" lon="-110.718191"><ele>1497.0</ele><time>2026-05-02T17:23:15.404Z</time></trkpt><trkpt lat="32.3422501" lon="-110.7181266"><ele>1497.0</ele><time>2026-05-02T17:23:16.403Z</time></trkpt><trkpt lat="32.3420815" lon="-110.7180581"><ele>1494.0</ele><time>2026-05-02T17:23:17.403Z</time></trkpt><trkpt lat="32.3419233" lon="-110.7179826"><ele>1491.0</ele><time>2026-05-02T17:23:18.404Z</time></trkpt><trkpt lat="32.3417587" lon="-110.7178989"><ele>1488.0</ele><time>2026-05-02T17:23:19.404Z</time></trkpt><trkpt lat="32.3415898" lon="-110.7178019"><ele>1488.3333333333333</ele><time>2026-05-02T17:23:20.404Z</time></trkpt><trkpt lat="32.3414228" lon="-110.7176957"><ele>1488.6666666666665</ele><time>2026-05-02T17:23:21.404Z</time></trkpt><trkpt lat="32.3412593" lon="-110.7175833"><ele>1489.0</ele><time>2026-05-02T17:23:22.404Z</time></trkpt><trkpt lat="32.3410882" lon="-110.71746"><ele>1487.6666666666665</ele><time>2026-05-02T17:23:23.404Z</time></trkpt><trkpt lat="32.3409226" lon="-110.7173331"><ele>1486.3333333333333</ele><time>2026-05-02T17:23:24.403Z</time></trkpt><trkpt lat="32.3407657" lon="-110.7171968"><ele>1485.0</ele><time>2026-05-02T17:23:25.405Z</time></trkpt><trkpt lat="32.3406157" lon="-110.7170581"><ele>1485.0</ele><time>2026-05-02T17:23:26.404Z</time></trkpt><trkpt lat="32.3404753" lon="-110.7169113"><ele>1485.0</ele><time>2026-05-02T17:23:27.403Z</time></trkpt><trkpt lat="32.3403425" lon="-110.7167712"><ele>1485.0</ele><time>2026-05-02T17:23:28.404Z</time></trkpt><trkpt lat="32.340218" lon="-110.7166266"><ele>1485.0</ele><time>2026-05-02T17:23:29.404Z</time></trkpt><trkpt lat="32.3400973" lon="-110.7164738"><ele>1485.0</ele><time>2026-05-02T17:23:30.405Z</time></trkpt><trkpt lat="32.3399787" lon="-110.71632"><ele>1485.0</ele><time>2026-05-02T17:23:31.404Z</time></trkpt><trkpt lat="32.3398637" lon="-110.7161631"><ele>1487.3333333333333</ele><time>2026-05-02T17:23:32.403Z</time></trkpt><trkpt lat="32.3397576" lon="-110.7159941"><ele>1489.6666666666665</ele><time>2026-05-02T17:23:33.404Z</time></trkpt><trkpt lat="32.3396501" lon="-110.7158211"><ele>1492.0</ele><time>2026-05-02T17:23:34.405Z</time></trkpt><trkpt lat="32.3395484" lon="-110.7156453"><ele>1492.0</ele><time>2026-05-02T17:23:35.404Z</time></trkpt><trkpt lat="32.3394501" lon="-110.7154629"><ele>1492.0</ele><time>2026-05-02T17:23:36.405Z</time></trkpt><trkpt lat="32.3393641" lon="-110.7152743"><ele>1492.0</ele><time>2026-05-02T17:23:37.404Z</time></trkpt><trkpt lat="32.3392819" lon="-110.7150844"><ele>1488.6666666666665</ele><time>2026-05-02T17:23:38.403Z</time></trkpt><trkpt lat="32.3391993" lon="-110.7148996"><ele>1485.3333333333333</ele><time>2026-05-02T17:23:39.404Z</time></trkpt><trkpt lat="32.3391233" lon="-110.7147113"><ele>1482.0</ele><time>2026-05-02T17:23:40.405Z</time></trkpt><trkpt lat="32.3390454" lon="-110.7145281"><ele>1482.6666666666667</ele><time>2026-05-02T17:23:41.404Z</time></trkpt><trkpt lat="32.3389666" lon="-110.7143513"><ele>1483.3333333333335</ele><time>2026-05-02T17:23:42.404Z</time></trkpt><trkpt lat="32.3388716" lon="-110.71418"><ele>1484.0</ele><time>2026-05-02T17:23:43.405Z</time></trkpt><trkpt lat="32.3387814" lon="-110.7140208"><ele>1477.6666666666667</ele><time>2026-05-02T17:23:44.404Z</time></trkpt><trkpt lat="32.3386922" lon="-110.7138611"><ele>1471.3333333333333</ele><time>2026-05-02T17:23:45.404Z</time></trkpt><trkpt lat="32.3386127" lon="-110.7137095"><ele>1465.0</ele><time>2026-05-02T17:23:46.405Z</time></trkpt><trkpt lat="32.3385458" lon="-110.7135568"><ele>1465.0</ele><time>2026-05-02T17:23:47.405Z</time></trkpt><trkpt lat="32.3385001" lon="-110.713392"><ele>1465.0</ele><time>2026-05-02T17:23:48.404Z</time></trkpt><trkpt lat="32.3384658" lon="-110.7132195"><ele>1465.0</ele><time>2026-05-02T17:23:49.404Z</time></trkpt><trkpt lat="32.3384515" lon="-110.7130402"><ele>1465.0</ele><time>2026-05-02T17:23:50.405Z</time></trkpt><trkpt lat="32.3384572" lon="-110.7128619"><ele>1463.3333333333333</ele><time>2026-05-02T17:23:51.404Z</time></trkpt><trkpt lat="32.3384869" lon="-110.7126736"><ele>1461.6666666666667</ele><time>2026-05-02T17:23:52.404Z</time></trkpt><trkpt lat="32.3385359" lon="-110.7124794"><ele>1460.0</ele><time>2026-05-02T17:23:53.404Z</time></trkpt><trkpt lat="32.3385911" lon="-110.7122748"><ele>1460.0</ele><time>2026-05-02T17:23:54.405Z</time></trkpt><trkpt lat="32.3386528" lon="-110.7120647"><ele>1460.0</ele><time>2026-05-02T17:23:55.404Z</time></trkpt><trkpt lat="32.3387154" lon="-110.7118517"><ele>1460.0</ele><time>2026-05-02T17:23:56.405Z</time></trkpt><trkpt lat="32.3387738" lon="-110.711642"><ele>1461.3333333333335</ele><time>2026-05-02T17:23:57.405Z</time></trkpt><trkpt lat="32.3388261" lon="-110.711428"><ele>1462.6666666666667</ele><time>2026-05-02T17:23:58.405Z</time></trkpt><trkpt lat="32.3388892" lon="-110.7112149"><ele>1464.0</ele><time>2026-05-02T17:23:59.405Z</time></trkpt><trkpt lat="32.3389484" lon="-110.7109964"><ele>1464.0</ele><time>2026-05-02T17:24:00.404Z</time></trkpt><trkpt lat="32.3390134" lon="-110.7107797"><ele>1464.0</ele><time>2026-05-02T17:24:01.405Z</time></trkpt><trkpt lat="32.3390717" lon="-110.7105641"><ele>1464.0</ele><time>2026-05-02T17:24:02.404Z</time></trkpt><trkpt lat="32.3391326" lon="-110.710355"><ele>1459.6666666666667</ele><time>2026-05-02T17:24:03.404Z</time></trkpt><trkpt lat="32.3391874" lon="-110.7101465"><ele>1455.3333333333335</ele><time>2026-05-02T17:24:04.404Z</time></trkpt><trkpt lat="32.3392486" lon="-110.7099338"><ele>1451.0</ele><time>2026-05-02T17:24:05.404Z</time></trkpt><trkpt lat="32.3393042" lon="-110.7097246"><ele>1451.0</ele><time>2026-05-02T17:24:06.405Z</time></trkpt><trkpt lat="32.3393597" lon="-110.7095184"><ele>1451.0</ele><time>2026-05-02T17:24:07.404Z</time></trkpt><trkpt lat="32.3394103" lon="-110.7093153"><ele>1451.0</ele><time>2026-05-02T17:24:08.405Z</time></trkpt><trkpt lat="32.3394449" lon="-110.709113"><ele>1446.6666666666667</ele><time>2026-05-02T17:24:09.404Z</time></trkpt><trkpt lat="32.3394704" lon="-110.7089101"><ele>1442.3333333333333</ele><time>2026-05-02T17:24:10.405Z</time></trkpt><trkpt lat="32.3394725" lon="-110.7087112"><ele>1438.0</ele><time>2026-05-02T17:24:11.404Z</time></trkpt><trkpt lat="32.3394549" lon="-110.7085105"><ele>1436.0</ele><time>2026-05-02T17:24:12.404Z</time></trkpt><trkpt lat="32.3394178" lon="-110.7083086"><ele>1434.0</ele><time>2026-05-02T17:24:13.405Z</time></trkpt><trkpt lat="32.339368" lon="-110.708113"><ele>1432.0</ele><time>2026-05-02T17:24:14.405Z</time></trkpt><trkpt lat="32.3393" lon="-110.7079272"><ele>1432.0</ele><time>2026-05-02T17:24:15.404Z</time></trkpt><trkpt lat="32.3392214" lon="-110.707751"><ele>1432.0</ele><time>2026-05-02T17:24:16.405Z</time></trkpt><trkpt lat="32.3391225" lon="-110.7075866"><ele>1432.0</ele><time>2026-05-02T17:24:17.404Z</time></trkpt><trkpt lat="32.3390098" lon="-110.7074368"><ele>1435.6666666666665</ele><time>2026-05-02T17:24:18.404Z</time></trkpt><trkpt lat="32.3388939" lon="-110.7073004"><ele>1439.3333333333333</ele><time>2026-05-02T17:24:19.405Z</time></trkpt><trkpt lat="32.338763" lon="-110.7071848"><ele>1443.0</ele><time>2026-05-02T17:24:20.404Z</time></trkpt><trkpt lat="32.3386317" lon="-110.707076"><ele>1438.0</ele><time>2026-05-02T17:24:21.405Z</time></trkpt><trkpt lat="32.3385094" lon="-110.7069643"><ele>1433.0</ele><time>2026-05-02T17:24:22.405Z</time></trkpt><trkpt lat="32.3383959" lon="-110.7068485"><ele>1428.0</ele><time>2026-05-02T17:24:23.404Z</time></trkpt><trkpt lat="32.33829" lon="-110.706721"><ele>1428.0</ele><time>2026-05-02T17:24:24.405Z</time></trkpt><trkpt lat="32.3382033" lon="-110.7065757"><ele>1428.0</ele><time>2026-05-02T17:24:25.404Z</time></trkpt><trkpt lat="32.3381299" lon="-110.7064111"><ele>1428.0</ele><time>2026-05-02T17:24:26.405Z</time></trkpt><trkpt lat="32.338077" lon="-110.7062471"><ele>1429.25</ele><time>2026-05-02T17:24:27.404Z</time></trkpt><trkpt lat="32.3380508" lon="-110.7060817"><ele>1430.5</ele><time>2026-05-02T17:24:28.404Z</time></trkpt><trkpt lat="32.3380425" lon="-110.7059151"><ele>1431.75</ele><time>2026-05-02T17:24:29.404Z</time></trkpt><trkpt lat="32.3380519" lon="-110.7057504"><ele>1433.0</ele><time>2026-05-02T17:24:30.405Z</time></trkpt><trkpt lat="32.3380802" lon="-110.7055841"><ele>1433.0</ele><time>2026-05-02T17:24:31.404Z</time></trkpt><trkpt lat="32.3381233" lon="-110.7054161"><ele>1433.0</ele><time>2026-05-02T17:24:32.404Z</time></trkpt><trkpt lat="32.3381741" lon="-110.7052613"><ele>1433.0</ele><time>2026-05-02T17:24:33.405Z</time></trkpt><trkpt lat="32.3382336" lon="-110.7051074"><ele>1433.0</ele><time>2026-05-02T17:24:34.404Z</time></trkpt><trkpt lat="32.3382827" lon="-110.7049447"><ele>1431.25</ele><time>2026-05-02T17:24:35.404Z</time></trkpt><trkpt lat="32.3383071" lon="-110.7047775"><ele>1429.5</ele><time>2026-05-02T17:24:36.405Z</time></trkpt><trkpt lat="32.3383054" lon="-110.7046065"><ele>1427.75</ele><time>2026-05-02T17:24:37.404Z</time></trkpt><trkpt lat="32.338278" lon="-110.7044296"><ele>1426.0</ele><time>2026-05-02T17:24:38.404Z</time></trkpt><trkpt lat="32.3382402" lon="-110.7042488"><ele>1426.0</ele><time>2026-05-02T17:24:39.404Z</time></trkpt><trkpt lat="32.3381755" lon="-110.7040692"><ele>1426.0</ele><time>2026-05-02T17:24:40.404Z</time></trkpt><trkpt lat="32.3380953" lon="-110.7038976"><ele>1426.0</ele><time>2026-05-02T17:24:41.404Z</time></trkpt><trkpt lat="32.3380152" lon="-110.7037319"><ele>1418.0</ele><time>2026-05-02T17:24:42.405Z</time></trkpt><trkpt lat="32.3379316" lon="-110.7035644"><ele>1410.0</ele><time>2026-05-02T17:24:43.404Z</time></trkpt><trkpt lat="32.3378538" lon="-110.7033977"><ele>1402.0</ele><time>2026-05-02T17:24:44.405Z</time></trkpt><trkpt lat="32.3377799" lon="-110.7032372"><ele>1402.0</ele><time>2026-05-02T17:24:45.405Z</time></trkpt><trkpt lat="32.3377125" lon="-110.7030712"><ele>1402.0</ele><time>2026-05-02T17:24:46.404Z</time></trkpt><trkpt lat="32.3376521" lon="-110.7028926"><ele>1402.0</ele><time>2026-05-02T17:24:47.405Z</time></trkpt><trkpt lat="32.3376055" lon="-110.7027143"><ele>1403.0</ele><time>2026-05-02T17:24:48.404Z</time></trkpt><trkpt lat="32.3375669" lon="-110.7025251"><ele>1404.0</ele><time>2026-05-02T17:24:49.405Z</time></trkpt><trkpt lat="32.3375436" lon="-110.7023305"><ele>1405.0</ele><time>2026-05-02T17:24:50.406Z</time></trkpt><trkpt lat="32.3375364" lon="-110.7021389"><ele>1405.0</ele><time>2026-05-02T17:24:51.404Z</time></trkpt><trkpt lat="32.3375441" lon="-110.701952"><ele>1405.0</ele><time>2026-05-02T17:24:52.405Z</time></trkpt><trkpt lat="32.3375606" lon="-110.701754"><ele>1405.0</ele><time>2026-05-02T17:24:53.406Z</time></trkpt><trkpt lat="32.3375878" lon="-110.7015554"><ele>1403.6666666666665</ele><time>2026-05-02T17:24:54.405Z</time></trkpt><trkpt lat="32.3376254" lon="-110.7013453"><ele>1402.3333333333333</ele><time>2026-05-02T17:24:55.404Z</time></trkpt><trkpt lat="32.3376671" lon="-110.7011286"><ele>1401.0</ele><time>2026-05-02T17:24:56.404Z</time></trkpt><trkpt lat="32.3377047" lon="-110.7009137"><ele>1397.0</ele><time>2026-05-02T17:24:57.404Z</time></trkpt><trkpt lat="32.3377483" lon="-110.7007076"><ele>1393.0</ele><time>2026-05-02T17:24:58.405Z</time></trkpt><trkpt lat="32.3377841" lon="-110.7005189"><ele>1389.0</ele><time>2026-05-02T17:24:59.404Z</time></trkpt><trkpt lat="32.3378233" lon="-110.7003103"><ele>1388.3333333333333</ele><time>2026-05-02T17:25:00.405Z</time></trkpt><trkpt lat="32.3378632" lon="-110.7001094"><ele>1387.6666666666665</ele><time>2026-05-02T17:25:01.406Z</time></trkpt><trkpt lat="32.3379031" lon="-110.6999091"><ele>1387.0</ele><time>2026-05-02T17:25:02.404Z</time></trkpt><trkpt lat="32.3379473" lon="-110.6997061"><ele>1387.0</ele><time>2026-05-02T17:25:03.405Z</time></trkpt><trkpt lat="32.3379901" lon="-110.699503"><ele>1387.0</ele><time>2026-05-02T17:25:04.405Z</time></trkpt><trkpt lat="32.3380281" lon="-110.6993097"><ele>1387.0</ele><time>2026-05-02T17:25:05.406Z</time></trkpt><trkpt lat="32.3380519" lon="-110.6991185"><ele>1383.3333333333333</ele><time>2026-05-02T17:25:06.406Z</time></trkpt><trkpt lat="32.3380402" lon="-110.6989404"><ele>1379.6666666666667</ele><time>2026-05-02T17:25:07.405Z</time></trkpt><trkpt lat="32.3380088" lon="-110.6987688"><ele>1376.0</ele><time>2026-05-02T17:25:08.406Z</time></trkpt><trkpt lat="32.3379495" lon="-110.6986046"><ele>1375.0</ele><time>2026-05-02T17:25:09.405Z</time></trkpt><trkpt lat="32.3378699" lon="-110.6984519"><ele>1374.0</ele><time>2026-05-02T17:25:10.404Z</time></trkpt><trkpt lat="32.3377704" lon="-110.698308"><ele>1373.0</ele><time>2026-05-02T17:25:11.407Z</time></trkpt><trkpt lat="32.3376688" lon="-110.6981717"><ele>1373.0</ele><time>2026-05-02T17:25:12.406Z</time></trkpt><trkpt lat="32.3375518" lon="-110.6980358"><ele>1373.0</ele><time>2026-05-02T17:25:13.404Z</time></trkpt><trkpt lat="32.3374491" lon="-110.6978987"><ele>1373.0</ele><time>2026-05-02T17:25:14.406Z</time></trkpt><trkpt lat="32.3373594" lon="-110.6977482"><ele>1369.25</ele><time>2026-05-02T17:25:15.405Z</time></trkpt><trkpt lat="32.3372875" lon="-110.6975964"><ele>1365.5</ele><time>2026-05-02T17:25:16.406Z</time></trkpt><trkpt lat="32.3372202" lon="-110.6974407"><ele>1361.75</ele><time>2026-05-02T17:25:17.405Z</time></trkpt><trkpt lat="32.3371722" lon="-110.697267"><ele>1358.0</ele><time>2026-05-02T17:25:18.405Z</time></trkpt><trkpt lat="32.3371344" lon="-110.697083"><ele>1357.3333333333335</ele><time>2026-05-02T17:25:19.406Z</time></trkpt><trkpt lat="32.3371089" lon="-110.6968911"><ele>1356.6666666666667</ele><time>2026-05-02T17:25:20.405Z</time></trkpt><trkpt lat="32.3371003" lon="-110.696703"><ele>1356.0</ele><time>2026-05-02T17:25:21.405Z</time></trkpt><trkpt lat="32.337107" lon="-110.6965178"><ele>1356.0</ele><time>2026-05-02T17:25:22.405Z</time></trkpt><trkpt lat="32.3371348" lon="-110.6963286"><ele>1356.0</ele><time>2026-05-02T17:25:23.406Z</time></trkpt><trkpt lat="32.3371739" lon="-110.6961456"><ele>1356.0</ele><time>2026-05-02T17:25:24.406Z</time></trkpt><trkpt lat="32.3372269" lon="-110.6959642"><ele>1363.3333333333333</ele><time>2026-05-02T17:25:25.406Z</time></trkpt><trkpt lat="32.3372994" lon="-110.6957918"><ele>1370.6666666666665</ele><time>2026-05-02T17:25:26.406Z</time></trkpt><trkpt lat="32.3373865" lon="-110.6956175"><ele>1378.0</ele><time>2026-05-02T17:25:27.405Z</time></trkpt><trkpt lat="32.3374856" lon="-110.6954359"><ele>1378.0</ele><time>2026-05-02T17:25:28.406Z</time></trkpt><trkpt lat="32.3375858" lon="-110.6952621"><ele>1378.0</ele><time>2026-05-02T17:25:29.406Z</time></trkpt><trkpt lat="32.3376843" lon="-110.6950925"><ele>1378.0</ele><time>2026-05-02T17:25:30.405Z</time></trkpt><trkpt lat="32.3377852" lon="-110.6949196"><ele>1372.3333333333333</ele><time>2026-05-02T17:25:31.405Z</time></trkpt><trkpt lat="32.3378883" lon="-110.6947456"><ele>1366.6666666666667</ele><time>2026-05-02T17:25:32.405Z</time></trkpt><trkpt lat="32.337987" lon="-110.6945699"><ele>1361.0</ele><time>2026-05-02T17:25:33.406Z</time></trkpt><trkpt lat="32.3380921" lon="-110.6943987"><ele>1361.0</ele><time>2026-05-02T17:25:34.406Z</time></trkpt><trkpt lat="32.3381999" lon="-110.6942356"><ele>1361.0</ele><time>2026-05-02T17:25:35.405Z</time></trkpt><trkpt lat="32.3383061" lon="-110.6940746"><ele>1361.0</ele><time>2026-05-02T17:25:36.405Z</time></trkpt><trkpt lat="32.3384044" lon="-110.6939139"><ele>1361.0</ele><time>2026-05-02T17:25:37.406Z</time></trkpt><trkpt lat="32.3384966" lon="-110.6937544"><ele>1361.0</ele><time>2026-05-02T17:25:38.406Z</time></trkpt><trkpt lat="32.3385836" lon="-110.693601"><ele>1361.0</ele><time>2026-05-02T17:25:39.405Z</time></trkpt><trkpt lat="32.3386714" lon="-110.6934504"><ele>1356.75</ele><time>2026-05-02T17:25:40.405Z</time></trkpt><trkpt lat="32.3387457" lon="-110.69329"><ele>1352.5</ele><time>2026-05-02T17:25:41.405Z</time></trkpt><trkpt lat="32.3388014" lon="-110.6931312"><ele>1348.25</ele><time>2026-05-02T17:25:42.405Z</time></trkpt><trkpt lat="32.3388311" lon="-110.6929694"><ele>1344.0</ele><time>2026-05-02T17:25:43.406Z</time></trkpt><trkpt lat="32.3388352" lon="-110.6927987"><ele>1342.6666666666667</ele><time>2026-05-02T17:25:44.405Z</time></trkpt><trkpt lat="32.3388049" lon="-110.6926209"><ele>1341.3333333333335</ele><time>2026-05-02T17:25:45.405Z</time></trkpt><trkpt lat="32.3387516" lon="-110.6924479"><ele>1340.0</ele><time>2026-05-02T17:25:46.406Z</time></trkpt><trkpt lat="32.338687" lon="-110.6922739"><ele>1340.0</ele><time>2026-05-02T17:25:47.405Z</time></trkpt><trkpt lat="32.3386201" lon="-110.692102"><ele>1340.0</ele><time>2026-05-02T17:25:48.405Z</time></trkpt><trkpt lat="32.3385545" lon="-110.6919337"><ele>1340.0</ele><time>2026-05-02T17:25:49.405Z</time></trkpt><trkpt lat="32.3384916" lon="-110.6917631"><ele>1342.0</ele><time>2026-05-02T17:25:50.405Z</time></trkpt><trkpt lat="32.3384304" lon="-110.6915885"><ele>1344.0</ele><time>2026-05-02T17:25:51.406Z</time></trkpt><trkpt lat="32.338368" lon="-110.6914176"><ele>1346.0</ele><time>2026-05-02T17:25:52.406Z</time></trkpt><trkpt lat="32.3383057" lon="-110.6912579"><ele>1346.0</ele><time>2026-05-02T17:25:53.405Z</time></trkpt><trkpt lat="32.338245" lon="-110.6910963"><ele>1346.0</ele><time>2026-05-02T17:25:54.406Z</time></trkpt><trkpt lat="32.3381767" lon="-110.6909484"><ele>1346.0</ele><time>2026-05-02T17:25:55.406Z</time></trkpt><trkpt lat="32.3380911" lon="-110.6908149"><ele>1346.0</ele><time>2026-05-02T17:25:56.406Z</time></trkpt><trkpt lat="32.3379922" lon="-110.6907022"><ele>1340.75</ele><time>2026-05-02T17:25:57.405Z</time></trkpt><trkpt lat="32.3378771" lon="-110.6906105"><ele>1335.5</ele><time>2026-05-02T17:25:58.406Z</time></trkpt><trkpt lat="32.3377425" lon="-110.6905376"><ele>1330.25</ele><time>2026-05-02T17:25:59.405Z</time></trkpt><trkpt lat="32.3375936" lon="-110.6904909"><ele>1325.0</ele><time>2026-05-02T17:26:00.405Z</time></trkpt><trkpt lat="32.337448" lon="-110.6904746"><ele>1325.0</ele><time>2026-05-02T17:26:01.406Z</time></trkpt><trkpt lat="32.3372988" lon="-110.6904858"><ele>1325.0</ele><time>2026-05-02T17:26:02.406Z</time></trkpt><trkpt lat="32.3371577" lon="-110.6905382"><ele>1325.0</ele><time>2026-05-02T17:26:03.406Z</time></trkpt><trkpt lat="32.3370222" lon="-110.6906244"><ele>1328.0</ele><time>2026-05-02T17:26:04.405Z</time></trkpt><trkpt lat="32.3369022" lon="-110.6907413"><ele>1331.0</ele><time>2026-05-02T17:26:05.406Z</time></trkpt><trkpt lat="32.3368055" lon="-110.6908744"><ele>1334.0</ele><time>2026-05-02T17:26:06.406Z</time></trkpt><trkpt lat="32.3367247" lon="-110.6910339"><ele>1331.0</ele><time>2026-05-02T17:26:07.405Z</time></trkpt><trkpt lat="32.3366472" lon="-110.6912096"><ele>1328.0</ele><time>2026-05-02T17:26:08.406Z</time></trkpt><trkpt lat="32.336574" lon="-110.6913889"><ele>1325.0</ele><time>2026-05-02T17:26:09.407Z</time></trkpt><trkpt lat="32.336489" lon="-110.6915417"><ele>1325.0</ele><time>2026-05-02T17:26:10.405Z</time></trkpt><trkpt lat="32.3363882" lon="-110.6916956"><ele>1325.0</ele><time>2026-05-02T17:26:11.405Z</time></trkpt><trkpt lat="32.3362672" lon="-110.6918415"><ele>1325.0</ele><time>2026-05-02T17:26:12.406Z</time></trkpt><trkpt lat="32.3361433" lon="-110.6919929"><ele>1324.0</ele><time>2026-05-02T17:26:13.406Z</time></trkpt><trkpt lat="32.3360211" lon="-110.692146"><ele>1323.0</ele><time>2026-05-02T17:26:14.406Z</time></trkpt><trkpt lat="32.3359024" lon="-110.6922974"><ele>1322.0</ele><time>2026-05-02T17:26:15.405Z</time></trkpt><trkpt lat="32.3357829" lon="-110.6924536"><ele>1322.0</ele><time>2026-05-02T17:26:16.406Z</time></trkpt><trkpt lat="32.3356523" lon="-110.6925991"><ele>1322.0</ele><time>2026-05-02T17:26:17.405Z</time></trkpt><trkpt lat="32.335516" lon="-110.6927529"><ele>1322.0</ele><time>2026-05-02T17:26:18.405Z</time></trkpt><trkpt lat="32.33537" lon="-110.6928905"><ele>1322.3333333333335</ele><time>2026-05-02T17:26:19.406Z</time></trkpt><trkpt lat="32.3352205" lon="-110.693012"><ele>1322.6666666666667</ele><time>2026-05-02T17:26:20.407Z</time></trkpt><trkpt lat="32.3350645" lon="-110.6931202"><ele>1323.0</ele><time>2026-05-02T17:26:21.405Z</time></trkpt><trkpt lat="32.3349078" lon="-110.6932065"><ele>1323.0</ele><time>2026-05-02T17:26:22.406Z</time></trkpt><trkpt lat="32.334758" lon="-110.6933014"><ele>1323.0</ele><time>2026-05-02T17:26:23.406Z</time></trkpt><trkpt lat="32.334612" lon="-110.6934027"><ele>1323.0</ele><time>2026-05-02T17:26:24.406Z</time></trkpt><trkpt lat="32.3344729" lon="-110.6935174"><ele>1320.0</ele><time>2026-05-02T17:26:25.405Z</time></trkpt><trkpt lat="32.3343426" lon="-110.6936513"><ele>1317.0</ele><time>2026-05-02T17:26:26.405Z</time></trkpt><trkpt lat="32.3342306" lon="-110.6937929"><ele>1314.0</ele><time>2026-05-02T17:26:27.407Z</time></trkpt><trkpt lat="32.334143" lon="-110.693953"><ele>1314.0</ele><time>2026-05-02T17:26:28.407Z</time></trkpt><trkpt lat="32.3340585" lon="-110.6941237"><ele>1314.0</ele><time>2026-05-02T17:26:29.406Z</time></trkpt><trkpt lat="32.3339941" lon="-110.6942966"><ele>1314.0</ele><time>2026-05-02T17:26:30.407Z</time></trkpt><trkpt lat="32.3339226" lon="-110.6944587"><ele>1314.0</ele><time>2026-05-02T17:26:31.406Z</time></trkpt><trkpt lat="32.3338379" lon="-110.6946002"><ele>1314.0</ele><time>2026-05-02T17:26:32.406Z</time></trkpt><trkpt lat="32.3337383" lon="-110.6947137"><ele>1314.0</ele><time>2026-05-02T17:26:33.407Z</time></trkpt><trkpt lat="32.3336257" lon="-110.694808"><ele>1314.0</ele><time>2026-05-02T17:26:34.406Z</time></trkpt><trkpt lat="32.3334951" lon="-110.6948796"><ele>1314.0</ele><time>2026-05-02T17:26:35.405Z</time></trkpt><trkpt lat="32.3333555" lon="-110.6949298"><ele>1314.0</ele><time>2026-05-02T17:26:36.406Z</time></trkpt><trkpt lat="32.3332119" lon="-110.6949449"><ele>1314.0</ele><time>2026-05-02T17:26:37.407Z</time></trkpt><trkpt lat="32.333055" lon="-110.6949344"><ele>1314.0</ele><time>2026-05-02T17:26:38.406Z</time></trkpt><trkpt lat="32.3328867" lon="-110.6948948"><ele>1314.0</ele><time>2026-05-02T17:26:39.406Z</time></trkpt><trkpt lat="32.3327248" lon="-110.6948427"><ele>1314.0</ele><time>2026-05-02T17:26:40.407Z</time></trkpt><trkpt lat="32.3325732" lon="-110.6947894"><ele>1314.0</ele><time>2026-05-02T17:26:41.406Z</time></trkpt><trkpt lat="32.3324218" lon="-110.6947345"><ele>1314.0</ele><time>2026-05-02T17:26:42.406Z</time></trkpt><trkpt lat="32.3322732" lon="-110.6946906"><ele>1314.0</ele><time>2026-05-02T17:26:43.406Z</time></trkpt><trkpt lat="32.3321291" lon="-110.694662"><ele>1314.0</ele><time>2026-05-02T17:26:44.407Z</time></trkpt><trkpt lat="32.3319834" lon="-110.6946676"><ele>1314.0</ele><time>2026-05-02T17:26:45.407Z</time></trkpt><trkpt lat="32.3318348" lon="-110.6946988"><ele>1311.0</ele><time>2026-05-02T17:26:46.406Z</time></trkpt><trkpt lat="32.3316878" lon="-110.6947693"><ele>1308.0</ele><time>2026-05-02T17:26:47.406Z</time></trkpt><trkpt lat="32.3315323" lon="-110.6948474"><ele>1305.0</ele><time>2026-05-02T17:26:48.406Z</time></trkpt><trkpt lat="32.3313785" lon="-110.6949466"><ele>1299.0</ele><time>2026-05-02T17:26:49.406Z</time></trkpt><trkpt lat="32.3312177" lon="-110.6950462"><ele>1293.0</ele><time>2026-05-02T17:26:50.406Z</time></trkpt><trkpt lat="32.3310511" lon="-110.6951421"><ele>1287.0</ele><time>2026-05-02T17:26:51.407Z</time></trkpt><trkpt lat="32.3308811" lon="-110.6952394"><ele>1286.6666666666667</ele><time>2026-05-02T17:26:52.407Z</time></trkpt><trkpt lat="32.3307121" lon="-110.6953406"><ele>1286.3333333333335</ele><time>2026-05-02T17:26:53.406Z</time></trkpt><trkpt lat="32.3305536" lon="-110.6954381"><ele>1286.0</ele><time>2026-05-02T17:26:54.407Z</time></trkpt><trkpt lat="32.3303956" lon="-110.695535"><ele>1286.0</ele><time>2026-05-02T17:26:55.407Z</time></trkpt><trkpt lat="32.3302314" lon="-110.6956308"><ele>1286.0</ele><time>2026-05-02T17:26:56.407Z</time></trkpt><trkpt lat="32.3300757" lon="-110.6957377"><ele>1286.0</ele><time>2026-05-02T17:26:57.407Z</time></trkpt><trkpt lat="32.329927" lon="-110.6958542"><ele>1286.0</ele><time>2026-05-02T17:26:58.406Z</time></trkpt><trkpt lat="32.3297864" lon="-110.6959781"><ele>1286.0</ele><time>2026-05-02T17:26:59.406Z</time></trkpt><trkpt lat="32.3296462" lon="-110.6961254"><ele>1286.0</ele><time>2026-05-02T17:27:00.406Z</time></trkpt><trkpt lat="32.3295192" lon="-110.6962914"><ele>1283.3333333333335</ele><time>2026-05-02T17:27:01.407Z</time></trkpt><trkpt lat="32.3293974" lon="-110.6964612"><ele>1280.6666666666667</ele><time>2026-05-02T17:27:02.406Z</time></trkpt><trkpt lat="32.3292996" lon="-110.6966623"><ele>1278.0</ele><time>2026-05-02T17:27:03.406Z</time></trkpt><trkpt lat="32.3292116" lon="-110.6968682"><ele>1281.0</ele><time>2026-05-02T17:27:04.407Z</time></trkpt><trkpt lat="32.3291255" lon="-110.6970873"><ele>1284.0</ele><time>2026-05-02T17:27:05.406Z</time></trkpt><trkpt lat="32.3290394" lon="-110.6973007"><ele>1287.0</ele><time>2026-05-02T17:27:06.406Z</time></trkpt><trkpt lat="32.328945" lon="-110.6975038"><ele>1281.6666666666667</ele><time>2026-05-02T17:27:07.407Z</time></trkpt><trkpt lat="32.3288538" lon="-110.6977124"><ele>1276.3333333333335</ele><time>2026-05-02T17:27:08.406Z</time></trkpt><trkpt lat="32.3287634" lon="-110.6979219"><ele>1271.0</ele><time>2026-05-02T17:27:09.407Z</time></trkpt><trkpt lat="32.328673" lon="-110.69813"><ele>1270.6666666666667</ele><time>2026-05-02T17:27:10.407Z</time></trkpt><trkpt lat="32.3285851" lon="-110.6983393"><ele>1270.3333333333333</ele><time>2026-05-02T17:27:11.406Z</time></trkpt><trkpt lat="32.3284964" lon="-110.6985409"><ele>1270.0</ele><time>2026-05-02T17:27:12.407Z</time></trkpt><trkpt lat="32.3283977" lon="-110.6987381"><ele>1271.6666666666665</ele><time>2026-05-02T17:27:13.406Z</time></trkpt><trkpt lat="32.328289" lon="-110.698925"><ele>1273.3333333333333</ele><time>2026-05-02T17:27:14.406Z</time></trkpt><trkpt lat="32.3281642" lon="-110.6991007"><ele>1275.0</ele><time>2026-05-02T17:27:15.406Z</time></trkpt><trkpt lat="32.3280347" lon="-110.6992697"><ele>1273.0</ele><time>2026-05-02T17:27:16.406Z</time></trkpt><trkpt lat="32.3279073" lon="-110.6994278"><ele>1271.0</ele><time>2026-05-02T17:27:17.407Z</time></trkpt><trkpt lat="32.3277793" lon="-110.6995799"><ele>1269.0</ele><time>2026-05-02T17:27:18.406Z</time></trkpt><trkpt lat="32.3276561" lon="-110.6997191"><ele>1269.0</ele><time>2026-05-02T17:27:19.407Z</time></trkpt><trkpt lat="32.3275431" lon="-110.6998567"><ele>1269.0</ele><time>2026-05-02T17:27:20.406Z</time></trkpt><trkpt lat="32.3274425" lon="-110.7000117"><ele>1269.0</ele><time>2026-05-02T17:27:21.407Z</time></trkpt><trkpt lat="32.3273646" lon="-110.7001766"><ele>1269.0</ele><time>2026-05-02T17:27:22.407Z</time></trkpt><trkpt lat="32.3273036" lon="-110.7003523"><ele>1269.0</ele><time>2026-05-02T17:27:23.407Z</time></trkpt><trkpt lat="32.3272726" lon="-110.7005509"><ele>1269.0</ele><time>2026-05-02T17:27:24.406Z</time></trkpt><trkpt lat="32.3272638" lon="-110.7007501"><ele>1269.0</ele><time>2026-05-02T17:27:25.407Z</time></trkpt><trkpt lat="32.3272954" lon="-110.7009519"><ele>1269.0</ele><time>2026-05-02T17:27:26.406Z</time></trkpt><trkpt lat="32.32735" lon="-110.7011413"><ele>1269.0</ele><time>2026-05-02T17:27:27.408Z</time></trkpt><trkpt lat="32.3273875" lon="-110.701322"><ele>1266.0</ele><time>2026-05-02T17:27:28.407Z</time></trkpt><trkpt lat="32.3274009" lon="-110.7014998"><ele>1263.0</ele><time>2026-05-02T17:27:29.407Z</time></trkpt><trkpt lat="32.327382" lon="-110.7016782"><ele>1260.0</ele><time>2026-05-02T17:27:30.407Z</time></trkpt><trkpt lat="32.3273303" lon="-110.7018506"><ele>1264.0</ele><time>2026-05-02T17:27:31.407Z</time></trkpt><trkpt lat="32.3272613" lon="-110.7020095"><ele>1268.0</ele><time>2026-05-02T17:27:32.407Z</time></trkpt><trkpt lat="32.3271803" lon="-110.7021652"><ele>1272.0</ele><time>2026-05-02T17:27:33.407Z</time></trkpt><trkpt lat="32.3270955" lon="-110.7023079"><ele>1259.0</ele><time>2026-05-02T17:27:34.408Z</time></trkpt><trkpt lat="32.3270133" lon="-110.7024614"><ele>1246.0</ele><time>2026-05-02T17:27:35.407Z</time></trkpt><trkpt lat="32.3269558" lon="-110.7026257"><ele>1233.0</ele><time>2026-05-02T17:27:36.406Z</time></trkpt><trkpt lat="32.3269217" lon="-110.702809"><ele>1233.0</ele><time>2026-05-02T17:27:37.407Z</time></trkpt><trkpt lat="32.3269177" lon="-110.7029894"><ele>1233.0</ele><time>2026-05-02T17:27:38.406Z</time></trkpt><trkpt lat="32.3269336" lon="-110.7031672"><ele>1233.0</ele><time>2026-05-02T17:27:39.406Z</time></trkpt><trkpt lat="32.326959" lon="-110.7033393"><ele>1233.0</ele><time>2026-05-02T17:27:40.407Z</time></trkpt><trkpt lat="32.3269745" lon="-110.7035019"><ele>1233.0</ele><time>2026-05-02T17:27:41.406Z</time></trkpt><trkpt lat="32.3269756" lon="-110.703658"><ele>1233.0</ele><time>2026-05-02T17:27:42.406Z</time></trkpt><trkpt lat="32.3269521" lon="-110.7038168"><ele>1233.0</ele><time>2026-05-02T17:27:43.406Z</time></trkpt><trkpt lat="32.3269049" lon="-110.7039717"><ele>1233.5</ele><time>2026-05-02T17:27:44.407Z</time></trkpt><trkpt lat="32.3268291" lon="-110.7041106"><ele>1234.0</ele><time>2026-05-02T17:27:45.406Z</time></trkpt><trkpt lat="32.3267289" lon="-110.7042246"><ele>1234.5</ele><time>2026-05-02T17:27:46.406Z</time></trkpt><trkpt lat="32.3266162" lon="-110.7043245"><ele>1235.0</ele><time>2026-05-02T17:27:47.407Z</time></trkpt><trkpt lat="32.3264775" lon="-110.704378"><ele>1230.6666666666667</ele><time>2026-05-02T17:27:48.407Z</time></trkpt><trkpt lat="32.3263234" lon="-110.7044117"><ele>1226.3333333333333</ele><time>2026-05-02T17:27:49.407Z</time></trkpt><trkpt lat="32.3261586" lon="-110.7044351"><ele>1222.0</ele><time>2026-05-02T17:27:50.407Z</time></trkpt><trkpt lat="32.3260007" lon="-110.7044616"><ele>1220.3333333333333</ele><time>2026-05-02T17:27:51.407Z</time></trkpt><trkpt lat="32.3258428" lon="-110.7045078"><ele>1218.6666666666667</ele><time>2026-05-02T17:27:52.408Z</time></trkpt><trkpt lat="32.325695" lon="-110.7045866"><ele>1217.0</ele><time>2026-05-02T17:27:53.408Z</time></trkpt><trkpt lat="32.3255497" lon="-110.7046928"><ele>1217.0</ele><time>2026-05-02T17:27:54.407Z</time></trkpt><trkpt lat="32.3254261" lon="-110.7048287"><ele>1217.0</ele><time>2026-05-02T17:27:55.407Z</time></trkpt><trkpt lat="32.3253222" lon="-110.7049769"><ele>1217.0</ele><time>2026-05-02T17:27:56.407Z</time></trkpt><trkpt lat="32.325242" lon="-110.7051467"><ele>1222.6666666666667</ele><time>2026-05-02T17:27:57.408Z</time></trkpt><trkpt lat="32.3251812" lon="-110.7053293"><ele>1228.3333333333333</ele><time>2026-05-02T17:27:58.407Z</time></trkpt><trkpt lat="32.3251226" lon="-110.7055048"><ele>1234.0</ele><time>2026-05-02T17:27:59.407Z</time></trkpt><trkpt lat="32.3250629" lon="-110.7056796"><ele>1234.0</ele><time>2026-05-02T17:28:00.408Z</time></trkpt><trkpt lat="32.3250035" lon="-110.7058331"><ele>1234.0</ele><time>2026-05-02T17:28:01.406Z</time></trkpt><trkpt lat="32.3249289" lon="-110.7059571"><ele>1234.0</ele><time>2026-05-02T17:28:02.407Z</time></trkpt><trkpt lat="32.3248387" lon="-110.7060623"><ele>1234.0</ele><time>2026-05-02T17:28:03.408Z</time></trkpt><trkpt lat="32.3247244" lon="-110.7061593"><ele>1239.0</ele><time>2026-05-02T17:28:04.408Z</time></trkpt><trkpt lat="32.3245972" lon="-110.7062335"><ele>1244.0</ele><time>2026-05-02T17:28:05.408Z</time></trkpt><trkpt lat="32.3244598" lon="-110.7062742"><ele>1249.0</ele><time>2026-05-02T17:28:06.407Z</time></trkpt><trkpt lat="32.3243063" lon="-110.7062877"><ele>1254.0</ele><time>2026-05-02T17:28:07.407Z</time></trkpt><trkpt lat="32.3241433" lon="-110.706274"><ele>1254.0</ele><time>2026-05-02T17:28:08.406Z</time></trkpt><trkpt lat="32.323984" lon="-110.7062505"><ele>1254.0</ele><time>2026-05-02T17:28:09.407Z</time></trkpt><trkpt lat="32.323835" lon="-110.7062274"><ele>1254.0</ele><time>2026-05-02T17:28:10.407Z</time></trkpt><trkpt lat="32.323684" lon="-110.7062153"><ele>1248.0</ele><time>2026-05-02T17:28:11.406Z</time></trkpt><trkpt lat="32.3235331" lon="-110.706226"><ele>1242.0</ele><time>2026-05-02T17:28:12.406Z</time></trkpt><trkpt lat="32.3233798" lon="-110.7062436"><ele>1236.0</ele><time>2026-05-02T17:28:13.406Z</time></trkpt><trkpt lat="32.3232373" lon="-110.7063022"><ele>1236.0</ele><time>2026-05-02T17:28:14.406Z</time></trkpt><trkpt lat="32.3230916" lon="-110.7063821"><ele>1236.0</ele><time>2026-05-02T17:28:15.408Z</time></trkpt><trkpt lat="32.3229434" lon="-110.7064812"><ele>1236.0</ele><time>2026-05-02T17:28:16.408Z</time></trkpt><trkpt lat="32.32279" lon="-110.7065952"><ele>1240.6666666666667</ele><time>2026-05-02T17:28:17.407Z</time></trkpt><trkpt lat="32.3226425" lon="-110.7067298"><ele>1245.3333333333335</ele><time>2026-05-02T17:28:18.407Z</time></trkpt><trkpt lat="32.3224936" lon="-110.7068628"><ele>1250.0</ele><time>2026-05-02T17:28:19.407Z</time></trkpt><trkpt lat="32.3223455" lon="-110.7069874"><ele>1235.0</ele><time>2026-05-02T17:28:20.407Z</time></trkpt><trkpt lat="32.3221959" lon="-110.7071205"><ele>1220.0</ele><time>2026-05-02T17:28:21.408Z</time></trkpt><trkpt lat="32.322045" lon="-110.7072545"><ele>1205.0</ele><time>2026-05-02T17:28:22.407Z</time></trkpt><trkpt lat="32.3218917" lon="-110.7073835"><ele>1205.0</ele><time>2026-05-02T17:28:23.407Z</time></trkpt><trkpt lat="32.3217369" lon="-110.7075139"><ele>1205.0</ele><time>2026-05-02T17:28:24.407Z</time></trkpt><trkpt lat="32.3215738" lon="-110.7076235"><ele>1205.0</ele><time>2026-05-02T17:28:25.407Z</time></trkpt><trkpt lat="32.32141" lon="-110.7077295"><ele>1203.0</ele><time>2026-05-02T17:28:26.407Z</time></trkpt><trkpt lat="32.3212609" lon="-110.7078384"><ele>1201.0</ele><time>2026-05-02T17:28:27.407Z</time></trkpt><trkpt lat="32.3211277" lon="-110.7079665"><ele>1199.0</ele><time>2026-05-02T17:28:28.408Z</time></trkpt><trkpt lat="32.3210147" lon="-110.7081016"><ele>1199.0</ele><time>2026-05-02T17:28:29.408Z</time></trkpt><trkpt lat="32.3209105" lon="-110.7082279"><ele>1199.0</ele><time>2026-05-02T17:28:30.407Z</time></trkpt><trkpt lat="32.3208081" lon="-110.7083567"><ele>1199.0</ele><time>2026-05-02T17:28:31.407Z</time></trkpt><trkpt lat="32.3206889" lon="-110.7084465"><ele>1199.0</ele><time>2026-05-02T17:28:32.408Z</time></trkpt><trkpt lat="32.3205562" lon="-110.7085155"><ele>1204.0</ele><time>2026-05-02T17:28:33.407Z</time></trkpt><trkpt lat="32.3204099" lon="-110.7085748"><ele>1209.0</ele><time>2026-05-02T17:28:34.407Z</time></trkpt><trkpt lat="32.3202558" lon="-110.7086077"><ele>1214.0</ele><time>2026-05-02T17:28:35.407Z</time></trkpt><trkpt lat="32.3201008" lon="-110.708646"><ele>1214.0</ele><time>2026-05-02T17:28:36.408Z</time></trkpt><trkpt lat="32.3199473" lon="-110.7087065"><ele>1214.0</ele><time>2026-05-02T17:28:37.407Z</time></trkpt><trkpt lat="32.3197927" lon="-110.7087869"><ele>1214.0</ele><time>2026-05-02T17:28:38.407Z</time></trkpt><trkpt lat="32.3196379" lon="-110.708886"><ele>1206.0</ele><time>2026-05-02T17:28:39.408Z</time></trkpt><trkpt lat="32.3194841" lon="-110.7089804"><ele>1198.0</ele><time>2026-05-02T17:28:40.408Z</time></trkpt><trkpt lat="32.3193317" lon="-110.7090796"><ele>1190.0</ele><time>2026-05-02T17:28:41.408Z</time></trkpt><trkpt lat="32.3191881" lon="-110.7091776"><ele>1190.0</ele><time>2026-05-02T17:28:42.407Z</time></trkpt><trkpt lat="32.3190494" lon="-110.7092778"><ele>1190.0</ele><time>2026-05-02T17:28:43.407Z</time></trkpt><trkpt lat="32.3189115" lon="-110.7093684"><ele>1190.0</ele><time>2026-05-02T17:28:44.407Z</time></trkpt><trkpt lat="32.3187737" lon="-110.7094531"><ele>1200.6666666666667</ele><time>2026-05-02T17:28:45.408Z</time></trkpt><trkpt lat="32.3186246" lon="-110.7095173"><ele>1211.3333333333333</ele><time>2026-05-02T17:28:46.408Z</time></trkpt><trkpt lat="32.3184639" lon="-110.7095452"><ele>1222.0</ele><time>2026-05-02T17:28:47.408Z</time></trkpt><trkpt lat="32.3182986" lon="-110.7095428"><ele>1222.0</ele><time>2026-05-02T17:28:48.407Z</time></trkpt><trkpt lat="32.3181209" lon="-110.7095155"><ele>1222.0</ele><time>2026-05-02T17:28:49.408Z</time></trkpt><trkpt lat="32.3179428" lon="-110.7094805"><ele>1222.0</ele><time>2026-05-02T17:28:50.407Z</time></trkpt><trkpt lat="32.3177687" lon="-110.7094441"><ele>1203.6666666666665</ele><time>2026-05-02T17:28:51.408Z</time></trkpt><trkpt lat="32.317601" lon="-110.7094031"><ele>1185.3333333333333</ele><time>2026-05-02T17:28:52.408Z</time></trkpt><trkpt lat="32.3174432" lon="-110.7093751"><ele>1167.0</ele><time>2026-05-02T17:28:53.408Z</time></trkpt><trkpt lat="32.3172923" lon="-110.7093593"><ele>1166.25</ele><time>2026-05-02T17:28:54.408Z</time></trkpt><trkpt lat="32.317145" lon="-110.7093559"><ele>1165.5</ele><time>2026-05-02T17:28:55.408Z</time></trkpt><trkpt lat="32.3169995" lon="-110.7093773"><ele>1164.75</ele><time>2026-05-02T17:28:56.407Z</time></trkpt><trkpt lat="32.3168567" lon="-110.7094361"><ele>1164.0</ele><time>2026-05-02T17:28:57.407Z</time></trkpt><trkpt lat="32.316718" lon="-110.7095202"><ele>1172.0</ele><time>2026-05-02T17:28:58.407Z</time></trkpt><trkpt lat="32.3166015" lon="-110.7096459"><ele>1180.0</ele><time>2026-05-02T17:28:59.408Z</time></trkpt><trkpt lat="32.316507" lon="-110.7098014"><ele>1188.0</ele><time>2026-05-02T17:29:00.407Z</time></trkpt><trkpt lat="32.3164401" lon="-110.7099768"><ele>1179.3333333333333</ele><time>2026-05-02T17:29:01.408Z</time></trkpt><trkpt lat="32.3163838" lon="-110.7101583"><ele>1170.6666666666665</ele><time>2026-05-02T17:29:02.407Z</time></trkpt><trkpt lat="32.3163266" lon="-110.7103347"><ele>1162.0</ele><time>2026-05-02T17:29:03.408Z</time></trkpt><trkpt lat="32.316264" lon="-110.7105052"><ele>1162.0</ele><time>2026-05-02T17:29:04.408Z</time></trkpt><trkpt lat="32.3161758" lon="-110.7106466"><ele>1162.0</ele><time>2026-05-02T17:29:05.408Z</time></trkpt><trkpt lat="32.3160766" lon="-110.7107708"><ele>1162.0</ele><time>2026-05-02T17:29:06.408Z</time></trkpt><trkpt lat="32.3159641" lon="-110.7108907"><ele>1162.0</ele><time>2026-05-02T17:29:07.408Z</time></trkpt><trkpt lat="32.3158328" lon="-110.711016"><ele>1166.0</ele><time>2026-05-02T17:29:08.408Z</time></trkpt><trkpt lat="32.315691" lon="-110.7111274"><ele>1170.0</ele><time>2026-05-02T17:29:09.407Z</time></trkpt><trkpt lat="32.315554" lon="-110.711245"><ele>1174.0</ele><time>2026-05-02T17:29:10.408Z</time></trkpt><trkpt lat="32.3154152" lon="-110.7113489"><ele>1174.0</ele><time>2026-05-02T17:29:11.408Z</time></trkpt><trkpt lat="32.3152716" lon="-110.7114369"><ele>1174.0</ele><time>2026-05-02T17:29:12.407Z</time></trkpt><trkpt lat="32.3151259" lon="-110.7114955"><ele>1174.0</ele><time>2026-05-02T17:29:13.407Z</time></trkpt><trkpt lat="32.3149708" lon="-110.7115354"><ele>1174.0</ele><time>2026-05-02T17:29:14.407Z</time></trkpt><trkpt lat="32.3148023" lon="-110.7115506"><ele>1174.0</ele><time>2026-05-02T17:29:15.409Z</time></trkpt><trkpt lat="32.314631" lon="-110.7115491"><ele>1174.0</ele><time>2026-05-02T17:29:16.409Z</time></trkpt><trkpt lat="32.3144509" lon="-110.7115417"><ele>1170.6666666666665</ele><time>2026-05-02T17:29:17.407Z</time></trkpt><trkpt lat="32.3142679" lon="-110.7115317"><ele>1167.3333333333333</ele><time>2026-05-02T17:29:18.408Z</time></trkpt><trkpt lat="32.3140839" lon="-110.7115253"><ele>1164.0</ele><time>2026-05-02T17:29:19.407Z</time></trkpt><trkpt lat="32.3138955" lon="-110.7115151"><ele>1158.6666666666667</ele><time>2026-05-02T17:29:20.407Z</time></trkpt><trkpt lat="32.31371" lon="-110.7115152"><ele>1153.3333333333335</ele><time>2026-05-02T17:29:21.408Z</time></trkpt><trkpt lat="32.3135254" lon="-110.7115222"><ele>1148.0</ele><time>2026-05-02T17:29:22.407Z</time></trkpt><trkpt lat="32.3133478" lon="-110.711549"><ele>1148.0</ele><time>2026-05-02T17:29:23.408Z</time></trkpt><trkpt lat="32.3131738" lon="-110.7115822"><ele>1148.0</ele><time>2026-05-02T17:29:24.407Z</time></trkpt><trkpt lat="32.3129955" lon="-110.7116306"><ele>1148.0</ele><time>2026-05-02T17:29:25.408Z</time></trkpt><trkpt lat="32.3128211" lon="-110.7116945"><ele>1150.6666666666667</ele><time>2026-05-02T17:29:26.408Z</time></trkpt><trkpt lat="32.3126569" lon="-110.7117693"><ele>1153.3333333333333</ele><time>2026-05-02T17:29:27.407Z</time></trkpt><trkpt lat="32.3125008" lon="-110.7118621"><ele>1156.0</ele><time>2026-05-02T17:29:28.407Z</time></trkpt><trkpt lat="32.3123593" lon="-110.7119649"><ele>1147.3333333333333</ele><time>2026-05-02T17:29:29.407Z</time></trkpt><trkpt lat="32.3122203" lon="-110.7120782"><ele>1138.6666666666667</ele><time>2026-05-02T17:29:30.408Z</time></trkpt><trkpt lat="32.3120961" lon="-110.7121927"><ele>1130.0</ele><time>2026-05-02T17:29:31.408Z</time></trkpt><trkpt lat="32.3119744" lon="-110.7123271"><ele>1130.0</ele><time>2026-05-02T17:29:32.408Z</time></trkpt><trkpt lat="32.3118677" lon="-110.712466"><ele>1130.0</ele><time>2026-05-02T17:29:33.407Z</time></trkpt><trkpt lat="32.3117749" lon="-110.7126237"><ele>1130.0</ele><time>2026-05-02T17:29:34.409Z</time></trkpt><trkpt lat="32.311689" lon="-110.7127813"><ele>1134.0</ele><time>2026-05-02T17:29:35.407Z</time></trkpt><trkpt lat="32.3116125" lon="-110.7129407"><ele>1138.0</ele><time>2026-05-02T17:29:36.407Z</time></trkpt><trkpt lat="32.311544" lon="-110.7131047"><ele>1142.0</ele><time>2026-05-02T17:29:37.407Z</time></trkpt><trkpt lat="32.3114787" lon="-110.7132543"><ele>1142.0</ele><time>2026-05-02T17:29:38.408Z</time></trkpt><trkpt lat="32.3114163" lon="-110.7134027"><ele>1142.0</ele><time>2026-05-02T17:29:39.408Z</time></trkpt><trkpt lat="32.3113636" lon="-110.7135504"><ele>1142.0</ele><time>2026-05-02T17:29:40.407Z</time></trkpt><trkpt lat="32.311321" lon="-110.7137025"><ele>1142.0</ele><time>2026-05-02T17:29:41.407Z</time></trkpt><trkpt lat="32.3112888" lon="-110.713867"><ele>1135.25</ele><time>2026-05-02T17:29:42.408Z</time></trkpt><trkpt lat="32.3112555" lon="-110.7140279"><ele>1128.5</ele><time>2026-05-02T17:29:43.409Z</time></trkpt><trkpt lat="32.3112268" lon="-110.7141896"><ele>1121.75</ele><time>2026-05-02T17:29:44.408Z</time></trkpt><trkpt lat="32.3112038" lon="-110.7143573"><ele>1115.0</ele><time>2026-05-02T17:29:45.409Z</time></trkpt><trkpt lat="32.3111853" lon="-110.7145234"><ele>1114.0</ele><time>2026-05-02T17:29:46.408Z</time></trkpt><trkpt lat="32.3111753" lon="-110.7146943"><ele>1113.0</ele><time>2026-05-02T17:29:47.408Z</time></trkpt><trkpt lat="32.3111726" lon="-110.714865"><ele>1112.0</ele><time>2026-05-02T17:29:48.409Z</time></trkpt><trkpt lat="32.3111679" lon="-110.7150368"><ele>1111.0</ele><time>2026-05-02T17:29:49.408Z</time></trkpt><trkpt lat="32.3111623" lon="-110.715215"><ele>1108.75</ele><time>2026-05-02T17:29:50.408Z</time></trkpt><trkpt lat="32.3111598" lon="-110.7153903"><ele>1106.5</ele><time>2026-05-02T17:29:51.408Z</time></trkpt><trkpt lat="32.3111585" lon="-110.7155565"><ele>1104.25</ele><time>2026-05-02T17:29:52.408Z</time></trkpt><trkpt lat="32.3111491" lon="-110.7157209"><ele>1102.0</ele><time>2026-05-02T17:29:53.409Z</time></trkpt><trkpt lat="32.3111343" lon="-110.7158812"><ele>1102.0</ele><time>2026-05-02T17:29:54.408Z</time></trkpt><trkpt lat="32.3111071" lon="-110.716044"><ele>1102.0</ele><time>2026-05-02T17:29:55.408Z</time></trkpt><trkpt lat="32.3110602" lon="-110.7162058"><ele>1102.0</ele><time>2026-05-02T17:29:56.409Z</time></trkpt><trkpt lat="32.3110091" lon="-110.7163608"><ele>1102.0</ele><time>2026-05-02T17:29:57.409Z</time></trkpt><trkpt lat="32.3109428" lon="-110.7165142"><ele>1105.3333333333333</ele><time>2026-05-02T17:29:58.408Z</time></trkpt><trkpt lat="32.3108621" lon="-110.7166789"><ele>1108.6666666666667</ele><time>2026-05-02T17:29:59.409Z</time></trkpt><trkpt lat="32.3107677" lon="-110.7168265"><ele>1112.0</ele><time>2026-05-02T17:30:00.408Z</time></trkpt><trkpt lat="32.3106676" lon="-110.716977"><ele>1117.6666666666667</ele><time>2026-05-02T17:30:01.408Z</time></trkpt><trkpt lat="32.3105763" lon="-110.7171327"><ele>1123.3333333333333</ele><time>2026-05-02T17:30:02.408Z</time></trkpt><trkpt lat="32.3104878" lon="-110.7172719"><ele>1129.0</ele><time>2026-05-02T17:30:03.408Z</time></trkpt><trkpt lat="32.3104005" lon="-110.7174105"><ele>1124.0</ele><time>2026-05-02T17:30:04.409Z</time></trkpt><trkpt lat="32.3103143" lon="-110.7175456"><ele>1119.0</ele><time>2026-05-02T17:30:05.408Z</time></trkpt><trkpt lat="32.310228" lon="-110.7176834"><ele>1114.0</ele><time>2026-05-02T17:30:06.408Z</time></trkpt><trkpt lat="32.3101415" lon="-110.7178203"><ele>1109.0</ele><time>2026-05-02T17:30:07.408Z</time></trkpt><trkpt lat="32.3100528" lon="-110.7179584"><ele>1109.0</ele><time>2026-05-02T17:30:08.409Z</time></trkpt><trkpt lat="32.3099622" lon="-110.7180944"><ele>1109.0</ele><time>2026-05-02T17:30:09.408Z</time></trkpt><trkpt lat="32.3098749" lon="-110.7182324"><ele>1109.0</ele><time>2026-05-02T17:30:10.408Z</time></trkpt><trkpt lat="32.3097891" lon="-110.7183656"><ele>1109.0</ele><time>2026-05-02T17:30:11.409Z</time></trkpt><trkpt lat="32.3097031" lon="-110.7185014"><ele>1102.5</ele><time>2026-05-02T17:30:12.408Z</time></trkpt><trkpt lat="32.3096151" lon="-110.718632"><ele>1096.0</ele><time>2026-05-02T17:30:13.408Z</time></trkpt><trkpt lat="32.3095328" lon="-110.7187545"><ele>1089.5</ele><time>2026-05-02T17:30:14.409Z</time></trkpt><trkpt lat="32.309461" lon="-110.7188737"><ele>1083.0</ele><time>2026-05-02T17:30:15.409Z</time></trkpt><trkpt lat="32.3093931" lon="-110.7190062"><ele>1083.0</ele><time>2026-05-02T17:30:16.408Z</time></trkpt><trkpt lat="32.3093388" lon="-110.7191534"><ele>1083.0</ele><time>2026-05-02T17:30:17.408Z</time></trkpt><trkpt lat="32.3092961" lon="-110.7193005"><ele>1083.0</ele><time>2026-05-02T17:30:18.408Z</time></trkpt><trkpt lat="32.3092734" lon="-110.7194596"><ele>1083.0</ele><time>2026-05-02T17:30:19.409Z</time></trkpt><trkpt lat="32.3092657" lon="-110.7196203"><ele>1083.5</ele><time>2026-05-02T17:30:20.408Z</time></trkpt><trkpt lat="32.3092849" lon="-110.7197806"><ele>1084.0</ele><time>2026-05-02T17:30:21.409Z</time></trkpt><trkpt lat="32.3093146" lon="-110.7199408"><ele>1084.5</ele><time>2026-05-02T17:30:22.408Z</time></trkpt><trkpt lat="32.3093556" lon="-110.7200893"><ele>1085.0</ele><time>2026-05-02T17:30:23.408Z</time></trkpt><trkpt lat="32.3094102" lon="-110.7202294"><ele>1084.25</ele><time>2026-05-02T17:30:24.409Z</time></trkpt><trkpt lat="32.3094717" lon="-110.7203596"><ele>1083.5</ele><time>2026-05-02T17:30:25.409Z</time></trkpt><trkpt lat="32.3095471" lon="-110.7204686"><ele>1082.75</ele><time>2026-05-02T17:30:26.409Z</time></trkpt><trkpt lat="32.3096302" lon="-110.7205575"><ele>1082.0</ele><time>2026-05-02T17:30:27.408Z</time></trkpt><trkpt lat="32.3097223" lon="-110.7206301"><ele>1082.5</ele><time>2026-05-02T17:30:28.408Z</time></trkpt><trkpt lat="32.3098289" lon="-110.7206903"><ele>1083.0</ele><time>2026-05-02T17:30:29.408Z</time></trkpt><trkpt lat="32.3099376" lon="-110.7207432"><ele>1083.5</ele><time>2026-05-02T17:30:30.408Z</time></trkpt><trkpt lat="32.3100513" lon="-110.7207831"><ele>1084.0</ele><time>2026-05-02T17:30:31.408Z</time></trkpt><trkpt lat="32.3101708" lon="-110.7207985"><ele>1084.0</ele><time>2026-05-02T17:30:32.408Z</time></trkpt><trkpt lat="32.3102847" lon="-110.7207998"><ele>1084.0</ele><time>2026-05-02T17:30:33.409Z</time></trkpt><trkpt lat="32.3104015" lon="-110.7207869"><ele>1084.0</ele><time>2026-05-02T17:30:34.409Z</time></trkpt><trkpt lat="32.3105227" lon="-110.7207618"><ele>1084.0</ele><time>2026-05-02T17:30:35.408Z</time></trkpt><trkpt lat="32.3106404" lon="-110.7207293"><ele>1083.0</ele><time>2026-05-02T17:30:36.408Z</time></trkpt><trkpt lat="32.3107527" lon="-110.7206938"><ele>1082.0</ele><time>2026-05-02T17:30:37.408Z</time></trkpt><trkpt lat="32.3108651" lon="-110.7206689"><ele>1081.0</ele><time>2026-05-02T17:30:38.409Z</time></trkpt><trkpt lat="32.3109733" lon="-110.7206593"><ele>1080.0</ele><time>2026-05-02T17:30:39.409Z</time></trkpt><trkpt lat="32.3110767" lon="-110.7206687"><ele>1079.0</ele><time>2026-05-02T17:30:40.408Z</time></trkpt><trkpt lat="32.3111797" lon="-110.7207006"><ele>1079.0</ele><time>2026-05-02T17:30:41.409Z</time></trkpt><trkpt lat="32.311279" lon="-110.7207552"><ele>1079.0</ele><time>2026-05-02T17:30:42.409Z</time></trkpt><trkpt lat="32.3113679" lon="-110.7208339"><ele>1079.0</ele><time>2026-05-02T17:30:43.408Z</time></trkpt><trkpt lat="32.3114435" lon="-110.7209342"><ele>1079.0</ele><time>2026-05-02T17:30:44.408Z</time></trkpt><trkpt lat="32.3115019" lon="-110.7210504"><ele>1079.0</ele><time>2026-05-02T17:30:45.409Z</time></trkpt><trkpt lat="32.3115381" lon="-110.7211773"><ele>1084.25</ele><time>2026-05-02T17:30:46.409Z</time></trkpt><trkpt lat="32.3115515" lon="-110.721316"><ele>1089.5</ele><time>2026-05-02T17:30:47.408Z</time></trkpt><trkpt lat="32.3115412" lon="-110.7214556"><ele>1094.75</ele><time>2026-05-02T17:30:48.409Z</time></trkpt><trkpt lat="32.3115078" lon="-110.7215894"><ele>1100.0</ele><time>2026-05-02T17:30:49.409Z</time></trkpt><trkpt lat="32.3114501" lon="-110.7217171"><ele>1094.0</ele><time>2026-05-02T17:30:50.409Z</time></trkpt><trkpt lat="32.3113682" lon="-110.7218386"><ele>1088.0</ele><time>2026-05-02T17:30:51.409Z</time></trkpt><trkpt lat="32.3112687" lon="-110.7219533"><ele>1082.0</ele><time>2026-05-02T17:30:52.408Z</time></trkpt><trkpt lat="32.3111637" lon="-110.7220609"><ele>1076.0</ele><time>2026-05-02T17:30:53.409Z</time></trkpt><trkpt lat="32.3110595" lon="-110.7221642"><ele>1076.0</ele><time>2026-05-02T17:30:54.409Z</time></trkpt><trkpt lat="32.310958" lon="-110.7222657"><ele>1076.0</ele><time>2026-05-02T17:30:55.409Z</time></trkpt><trkpt lat="32.310859" lon="-110.722366"><ele>1076.0</ele><time>2026-05-02T17:30:56.408Z</time></trkpt><trkpt lat="32.3107628" lon="-110.7224674"><ele>1076.0</ele><time>2026-05-02T17:30:57.41Z</time></trkpt><trkpt lat="32.3106733" lon="-110.7225754"><ele>1076.0</ele><time>2026-05-02T17:30:58.408Z</time></trkpt><trkpt lat="32.3105946" lon="-110.722696"><ele>1076.0</ele><time>2026-05-02T17:30:59.409Z</time></trkpt><trkpt lat="32.3105319" lon="-110.7228284"><ele>1076.0</ele><time>2026-05-02T17:31:00.41Z</time></trkpt><trkpt lat="32.3104875" lon="-110.7229718"><ele>1076.0</ele><time>2026-05-02T17:31:01.409Z</time></trkpt><trkpt lat="32.3104623" lon="-110.7231202"><ele>1071.0</ele><time>2026-05-02T17:31:02.408Z</time></trkpt><trkpt lat="32.3104439" lon="-110.7232695"><ele>1066.0</ele><time>2026-05-02T17:31:03.409Z</time></trkpt><trkpt lat="32.3104623" lon="-110.7234171"><ele>1061.0</ele><time>2026-05-02T17:31:04.41Z</time></trkpt><trkpt lat="32.3105019" lon="-110.7235593"><ele>1056.0</ele><time>2026-05-02T17:31:05.408Z</time></trkpt><trkpt lat="32.3105607" lon="-110.7236968"><ele>1058.0</ele><time>2026-05-02T17:31:06.408Z</time></trkpt><trkpt lat="32.3106339" lon="-110.7238221"><ele>1060.0</ele><time>2026-05-02T17:31:07.409Z</time></trkpt><trkpt lat="32.3107152" lon="-110.7239367"><ele>1062.0</ele><time>2026-05-02T17:31:08.409Z</time></trkpt><trkpt lat="32.3107953" lon="-110.7240481"><ele>1064.0</ele><time>2026-05-02T17:31:09.409Z</time></trkpt><trkpt lat="32.3108696" lon="-110.7241629"><ele>1064.0</ele><time>2026-05-02T17:31:10.408Z</time></trkpt><trkpt lat="32.3109321" lon="-110.7242847"><ele>1064.0</ele><time>2026-05-02T17:31:11.41Z</time></trkpt><trkpt lat="32.310978" lon="-110.7244183"><ele>1064.0</ele><time>2026-05-02T17:31:12.41Z</time></trkpt><trkpt lat="32.3110047" lon="-110.7245583"><ele>1064.0</ele><time>2026-05-02T17:31:13.409Z</time></trkpt><trkpt lat="32.3110097" lon="-110.7247036"><ele>1062.25</ele><time>2026-05-02T17:31:14.408Z</time></trkpt><trkpt lat="32.3109922" lon="-110.7248531"><ele>1060.5</ele><time>2026-05-02T17:31:15.408Z</time></trkpt><trkpt lat="32.3109516" lon="-110.7250011"><ele>1058.75</ele><time>2026-05-02T17:31:16.409Z</time></trkpt><trkpt lat="32.3108883" lon="-110.7251348"><ele>1057.0</ele><time>2026-05-02T17:31:17.41Z</time></trkpt><trkpt lat="32.3108023" lon="-110.7252531"><ele>1055.0</ele><time>2026-05-02T17:31:18.41Z</time></trkpt><trkpt lat="32.3106989" lon="-110.7253598"><ele>1053.0</ele><time>2026-05-02T17:31:19.409Z</time></trkpt><trkpt lat="32.3105856" lon="-110.7254588"><ele>1051.0</ele><time>2026-05-02T17:31:20.409Z</time></trkpt><trkpt lat="32.3104696" lon="-110.7255526"><ele>1049.0</ele><time>2026-05-02T17:31:21.408Z</time></trkpt><trkpt lat="32.3103546" lon="-110.7256444"><ele>1049.0</ele><time>2026-05-02T17:31:22.409Z</time></trkpt><trkpt lat="32.3102418" lon="-110.7257364"><ele>1049.0</ele><time>2026-05-02T17:31:23.409Z</time></trkpt><trkpt lat="32.3101307" lon="-110.7258268"><ele>1049.0</ele><time>2026-05-02T17:31:24.409Z</time></trkpt><trkpt lat="32.3100207" lon="-110.7259147"><ele>1049.0</ele><time>2026-05-02T17:31:25.408Z</time></trkpt><trkpt lat="32.3099117" lon="-110.7260014"><ele>1046.25</ele><time>2026-05-02T17:31:26.409Z</time></trkpt><trkpt lat="32.3098059" lon="-110.7260894"><ele>1043.5</ele><time>2026-05-02T17:31:27.409Z</time></trkpt><trkpt lat="32.3097074" lon="-110.7261845"><ele>1040.75</ele><time>2026-05-02T17:31:28.409Z</time></trkpt><trkpt lat="32.30962" lon="-110.7262926"><ele>1038.0</ele><time>2026-05-02T17:31:29.409Z</time></trkpt><trkpt lat="32.3095457" lon="-110.7264152"><ele>1038.0</ele><time>2026-05-02T17:31:30.41Z</time></trkpt><trkpt lat="32.3094854" lon="-110.7265525"><ele>1038.0</ele><time>2026-05-02T17:31:31.409Z</time></trkpt><trkpt lat="32.3094427" lon="-110.7267033"><ele>1038.0</ele><time>2026-05-02T17:31:32.409Z</time></trkpt><trkpt lat="32.3094211" lon="-110.7268598"><ele>1038.0</ele><time>2026-05-02T17:31:33.41Z</time></trkpt><trkpt lat="32.3094224" lon="-110.7270156"><ele>1039.5</ele><time>2026-05-02T17:31:34.409Z</time></trkpt><trkpt lat="32.3094286" lon="-110.7271718"><ele>1041.0</ele><time>2026-05-02T17:31:35.409Z</time></trkpt><trkpt lat="32.3094728" lon="-110.7273155"><ele>1042.5</ele><time>2026-05-02T17:31:36.409Z</time></trkpt><trkpt lat="32.309534" lon="-110.7274459"><ele>1044.0</ele><time>2026-05-02T17:31:37.409Z</time></trkpt><trkpt lat="32.3096112" lon="-110.7275632"><ele>1044.0</ele><time>2026-05-02T17:31:38.409Z</time></trkpt><trkpt lat="32.3097014" lon="-110.7276597"><ele>1044.0</ele><time>2026-05-02T17:31:39.409Z</time></trkpt><trkpt lat="32.3098015" lon="-110.7277393"><ele>1044.0</ele><time>2026-05-02T17:31:40.41Z</time></trkpt><trkpt lat="32.3099121" lon="-110.7277975"><ele>1044.0</ele><time>2026-05-02T17:31:41.409Z</time></trkpt><trkpt lat="32.3100345" lon="-110.7278354"><ele>1038.25</ele><time>2026-05-02T17:31:42.409Z</time></trkpt><trkpt lat="32.310159" lon="-110.7278532"><ele>1032.5</ele><time>2026-05-02T17:31:43.41Z</time></trkpt><trkpt lat="32.3102805" lon="-110.7278567"><ele>1026.75</ele><time>2026-05-02T17:31:44.41Z</time></trkpt><trkpt lat="32.3103968" lon="-110.7278507"><ele>1021.0</ele><time>2026-05-02T17:31:45.41Z</time></trkpt><trkpt lat="32.3105096" lon="-110.7278404"><ele>1022.5999999999999</ele><time>2026-05-02T17:31:46.409Z</time></trkpt><trkpt lat="32.3106179" lon="-110.7278357"><ele>1024.1999999999998</ele><time>2026-05-02T17:31:47.409Z</time></trkpt><trkpt lat="32.3107235" lon="-110.7278436"><ele>1025.8000000000002</ele><time>2026-05-02T17:31:48.409Z</time></trkpt><trkpt lat="32.3108258" lon="-110.72787"><ele>1027.4</ele><time>2026-05-02T17:31:49.41Z</time></trkpt><trkpt lat="32.3109253" lon="-110.7279191"><ele>1029.0</ele><time>2026-05-02T17:31:50.409Z</time></trkpt><trkpt lat="32.3110154" lon="-110.7279904"><ele>1029.0</ele><time>2026-05-02T17:31:51.41Z</time></trkpt><trkpt lat="32.3110924" lon="-110.7280844"><ele>1029.0</ele><time>2026-05-02T17:31:52.41Z</time></trkpt><trkpt lat="32.3111536" lon="-110.728199"><ele>1029.0</ele><time>2026-05-02T17:31:53.41Z</time></trkpt><trkpt lat="32.3111936" lon="-110.7283291"><ele>1029.0</ele><time>2026-05-02T17:31:54.409Z</time></trkpt><trkpt lat="32.3112092" lon="-110.7284688"><ele>1031.75</ele><time>2026-05-02T17:31:55.409Z</time></trkpt><trkpt lat="32.3111977" lon="-110.728611"><ele>1034.5</ele><time>2026-05-02T17:31:56.409Z</time></trkpt><trkpt lat="32.3111606" lon="-110.728745"><ele>1037.25</ele><time>2026-05-02T17:31:57.411Z</time></trkpt><trkpt lat="32.3110979" lon="-110.7288634"><ele>1040.0</ele><time>2026-05-02T17:31:58.41Z</time></trkpt><trkpt lat="32.3110108" lon="-110.7289663"><ele>1040.0</ele><time>2026-05-02T17:31:59.41Z</time></trkpt><trkpt lat="32.3109038" lon="-110.729059"><ele>1040.0</ele><time>2026-05-02T17:32:00.41Z</time></trkpt><trkpt lat="32.3107904" lon="-110.7291417"><ele>1040.0</ele><time>2026-05-02T17:32:01.409Z</time></trkpt><trkpt lat="32.3106776" lon="-110.7292201"><ele>1040.0</ele><time>2026-05-02T17:32:02.41Z</time></trkpt><trkpt lat="32.3105693" lon="-110.7293015"><ele>1036.5</ele><time>2026-05-02T17:32:03.409Z</time></trkpt><trkpt lat="32.3104648" lon="-110.7293907"><ele>1033.0</ele><time>2026-05-02T17:32:04.409Z</time></trkpt><trkpt lat="32.3103621" lon="-110.7294914"><ele>1029.5</ele><time>2026-05-02T17:32:05.41Z</time></trkpt><trkpt lat="32.3102631" lon="-110.729604"><ele>1026.0</ele><time>2026-05-02T17:32:06.409Z</time></trkpt><trkpt lat="32.3101709" lon="-110.7297266"><ele>1026.0</ele><time>2026-05-02T17:32:07.409Z</time></trkpt><trkpt lat="32.3100872" lon="-110.7298583"><ele>1026.0</ele><time>2026-05-02T17:32:08.409Z</time></trkpt><trkpt lat="32.3100132" lon="-110.7299976"><ele>1026.0</ele><time>2026-05-02T17:32:09.41Z</time></trkpt><trkpt lat="32.3099485" lon="-110.730144"><ele>1026.0</ele><time>2026-05-02T17:32:10.41Z</time></trkpt><trkpt lat="32.3098931" lon="-110.7302972"><ele>1027.75</ele><time>2026-05-02T17:32:11.409Z</time></trkpt><trkpt lat="32.3098471" lon="-110.7304574"><ele>1029.5</ele><time>2026-05-02T17:32:12.409Z</time></trkpt><trkpt lat="32.3098099" lon="-110.7306226"><ele>1031.25</ele><time>2026-05-02T17:32:13.409Z</time></trkpt><trkpt lat="32.3097837" lon="-110.7307899"><ele>1033.0</ele><time>2026-05-02T17:32:14.409Z</time></trkpt><trkpt lat="32.3097691" lon="-110.7309577"><ele>1030.25</ele><time>2026-05-02T17:32:15.409Z</time></trkpt><trkpt lat="32.3097666" lon="-110.7311271"><ele>1027.5</ele><time>2026-05-02T17:32:16.41Z</time></trkpt><trkpt lat="32.3097767" lon="-110.7313001"><ele>1024.75</ele><time>2026-05-02T17:32:17.41Z</time></trkpt><trkpt lat="32.3097987" lon="-110.7314712"><ele>1022.0</ele><time>2026-05-02T17:32:18.41Z</time></trkpt><trkpt lat="32.3098317" lon="-110.7316378"><ele>1022.0</ele><time>2026-05-02T17:32:19.409Z</time></trkpt><trkpt lat="32.3098743" lon="-110.7317989"><ele>1022.0</ele><time>2026-05-02T17:32:20.41Z</time></trkpt><trkpt lat="32.3099238" lon="-110.7319535"><ele>1022.0</ele><time>2026-05-02T17:32:21.409Z</time></trkpt><trkpt lat="32.3099746" lon="-110.7320972"><ele>1022.0</ele><time>2026-05-02T17:32:22.409Z</time></trkpt><trkpt lat="32.310025" lon="-110.7322328"><ele>1020.0</ele><time>2026-05-02T17:32:23.41Z</time></trkpt><trkpt lat="32.3100742" lon="-110.732363"><ele>1018.0</ele><time>2026-05-02T17:32:24.409Z</time></trkpt><trkpt lat="32.3101204" lon="-110.7324913"><ele>1016.0</ele><time>2026-05-02T17:32:25.41Z</time></trkpt><trkpt lat="32.3101592" lon="-110.7326203"><ele>1014.0</ele><time>2026-05-02T17:32:26.41Z</time></trkpt><trkpt lat="32.3101841" lon="-110.7327561"><ele>1014.0</ele><time>2026-05-02T17:32:27.41Z</time></trkpt><trkpt lat="32.3101909" lon="-110.7328978"><ele>1014.0</ele><time>2026-05-02T17:32:28.41Z</time></trkpt><trkpt lat="32.310175" lon="-110.7330397"><ele>1014.0</ele><time>2026-05-02T17:32:29.409Z</time></trkpt><trkpt lat="32.3101349" lon="-110.733182"><ele>1014.0</ele><time>2026-05-02T17:32:30.41Z</time></trkpt><trkpt lat="32.3100718" lon="-110.7333165"><ele>1014.0</ele><time>2026-05-02T17:32:31.409Z</time></trkpt><trkpt lat="32.3099889" lon="-110.7334353"><ele>1014.0</ele><time>2026-05-02T17:32:32.409Z</time></trkpt><trkpt lat="32.3098886" lon="-110.7335353"><ele>1014.0</ele><time>2026-05-02T17:32:33.41Z</time></trkpt><trkpt lat="32.3097763" lon="-110.733615"><ele>1014.0</ele><time>2026-05-02T17:32:34.41Z</time></trkpt><trkpt lat="32.3096676" lon="-110.7336821"><ele>1012.0</ele><time>2026-05-02T17:32:35.41Z</time></trkpt><trkpt lat="32.3095571" lon="-110.7337316"><ele>1010.0</ele><time>2026-05-02T17:32:36.41Z</time></trkpt><trkpt lat="32.3094479" lon="-110.7337854"><ele>1008.0</ele><time>2026-05-02T17:32:37.41Z</time></trkpt><trkpt lat="32.3093444" lon="-110.7338519"><ele>1006.0</ele><time>2026-05-02T17:32:38.41Z</time></trkpt><trkpt lat="32.3092503" lon="-110.733931"><ele>1006.0</ele><time>2026-05-02T17:32:39.411Z</time></trkpt><trkpt lat="32.3091649" lon="-110.7340216"><ele>1006.0</ele><time>2026-05-02T17:32:40.409Z</time></trkpt><trkpt lat="32.3090903" lon="-110.7341261"><ele>1006.0</ele><time>2026-05-02T17:32:41.409Z</time></trkpt><trkpt lat="32.309027" lon="-110.7342437"><ele>1006.0</ele><time>2026-05-02T17:32:42.41Z</time></trkpt><trkpt lat="32.3089752" lon="-110.734372"><ele>1007.0</ele><time>2026-05-02T17:32:43.41Z</time></trkpt><trkpt lat="32.3089351" lon="-110.7345098"><ele>1008.0</ele><time>2026-05-02T17:32:44.411Z</time></trkpt><trkpt lat="32.3089063" lon="-110.7346545"><ele>1009.0</ele><time>2026-05-02T17:32:45.41Z</time></trkpt><trkpt lat="32.3088872" lon="-110.7348045"><ele>1010.0</ele><time>2026-05-02T17:32:46.41Z</time></trkpt><trkpt lat="32.3088734" lon="-110.7349574"><ele>1000.0</ele><time>2026-05-02T17:32:47.41Z</time></trkpt><trkpt lat="32.3088607" lon="-110.735117"><ele>990.0</ele><time>2026-05-02T17:32:48.409Z</time></trkpt><trkpt lat="32.3088493" lon="-110.7352797"><ele>980.0</ele><time>2026-05-02T17:32:49.411Z</time></trkpt><trkpt lat="32.3088377" lon="-110.7354438"><ele>970.0</ele><time>2026-05-02T17:32:50.409Z</time></trkpt><trkpt lat="32.3088251" lon="-110.7356098"><ele>970.0</ele><time>2026-05-02T17:32:51.411Z</time></trkpt><trkpt lat="32.3088119" lon="-110.7357758"><ele>970.0</ele><time>2026-05-02T17:32:52.409Z</time></trkpt><trkpt lat="32.3087991" lon="-110.7359456"><ele>970.0</ele><time>2026-05-02T17:32:53.41Z</time></trkpt><trkpt lat="32.3087882" lon="-110.7361178"><ele>970.0</ele><time>2026-05-02T17:32:54.41Z</time></trkpt><trkpt lat="32.3087766" lon="-110.7362895"><ele>970.5</ele><time>2026-05-02T17:32:55.41Z</time></trkpt><trkpt lat="32.3087669" lon="-110.7364626"><ele>971.0</ele><time>2026-05-02T17:32:56.409Z</time></trkpt><trkpt lat="32.3087572" lon="-110.7366299"><ele>971.5</ele><time>2026-05-02T17:32:57.41Z</time></trkpt><trkpt lat="32.3087464" lon="-110.7367979"><ele>972.0</ele><time>2026-05-02T17:32:58.411Z</time></trkpt><trkpt lat="32.3087388" lon="-110.7369661"><ele>970.25</ele><time>2026-05-02T17:32:59.409Z</time></trkpt><trkpt lat="32.3087408" lon="-110.7371317"><ele>968.5</ele><time>2026-05-02T17:33:00.41Z</time></trkpt><trkpt lat="32.30875" lon="-110.7372931"><ele>966.75</ele><time>2026-05-02T17:33:01.41Z</time></trkpt><trkpt lat="32.3087871" lon="-110.7374481"><ele>965.0</ele><time>2026-05-02T17:33:02.409Z</time></trkpt><trkpt lat="32.30884" lon="-110.7375956"><ele>966.75</ele><time>2026-05-02T17:33:03.409Z</time></trkpt><trkpt lat="32.3089067" lon="-110.7377306"><ele>968.5</ele><time>2026-05-02T17:33:04.41Z</time></trkpt><trkpt lat="32.3089897" lon="-110.7378535"><ele>970.25</ele><time>2026-05-02T17:33:05.41Z</time></trkpt><trkpt lat="32.3090769" lon="-110.7379744"><ele>972.0</ele><time>2026-05-02T17:33:06.411Z</time></trkpt><trkpt lat="32.309179" lon="-110.7380624"><ele>972.0</ele><time>2026-05-02T17:33:07.409Z</time></trkpt><trkpt lat="32.3092838" lon="-110.7381469"><ele>972.0</ele><time>2026-05-02T17:33:08.41Z</time></trkpt><trkpt lat="32.3093829" lon="-110.7382357"><ele>972.0</ele><time>2026-05-02T17:33:09.41Z</time></trkpt><trkpt lat="32.3094687" lon="-110.7383337"><ele>972.0</ele><time>2026-05-02T17:33:10.409Z</time></trkpt><trkpt lat="32.3095402" lon="-110.7384442"><ele>969.5</ele><time>2026-05-02T17:33:11.409Z</time></trkpt><trkpt lat="32.3095948" lon="-110.7385707"><ele>967.0</ele><time>2026-05-02T17:33:12.411Z</time></trkpt><trkpt lat="32.3096335" lon="-110.7387092"><ele>964.5</ele><time>2026-05-02T17:33:13.41Z</time></trkpt><trkpt lat="32.3096517" lon="-110.7388578"><ele>962.0</ele><time>2026-05-02T17:33:14.411Z</time></trkpt><trkpt lat="32.3096455" lon="-110.7390085"><ele>962.0</ele><time>2026-05-02T17:33:15.411Z</time></trkpt><trkpt lat="32.309614" lon="-110.7391541"><ele>962.0</ele><time>2026-05-02T17:33:16.41Z</time></trkpt><trkpt lat="32.3095598" lon="-110.7392883"><ele>962.0</ele><time>2026-05-02T17:33:17.41Z</time></trkpt><trkpt lat="32.3094862" lon="-110.7394074"><ele>962.0</ele><time>2026-05-02T17:33:18.411Z</time></trkpt><trkpt lat="32.3093947" lon="-110.7395094"><ele>966.0</ele><time>2026-05-02T17:33:19.41Z</time></trkpt><trkpt lat="32.3092882" lon="-110.7395919"><ele>970.0</ele><time>2026-05-02T17:33:20.41Z</time></trkpt><trkpt lat="32.3091724" lon="-110.7396586"><ele>974.0</ele><time>2026-05-02T17:33:21.411Z</time></trkpt><trkpt lat="32.3090502" lon="-110.7397183"><ele>978.0</ele><time>2026-05-02T17:33:22.41Z</time></trkpt><trkpt lat="32.3089255" lon="-110.7397769"><ele>972.5</ele><time>2026-05-02T17:33:23.41Z</time></trkpt><trkpt lat="32.3088028" lon="-110.7398364"><ele>967.0</ele><time>2026-05-02T17:33:24.41Z</time></trkpt><trkpt lat="32.3086823" lon="-110.7398988"><ele>961.5</ele><time>2026-05-02T17:33:25.411Z</time></trkpt><trkpt lat="32.3085665" lon="-110.739968"><ele>956.0</ele><time>2026-05-02T17:33:26.41Z</time></trkpt><trkpt lat="32.3084577" lon="-110.7400485"><ele>956.0</ele><time>2026-05-02T17:33:27.41Z</time></trkpt><trkpt lat="32.3083605" lon="-110.7401439"><ele>956.0</ele><time>2026-05-02T17:33:28.41Z</time></trkpt><trkpt lat="32.3082778" lon="-110.7402546"><ele>956.0</ele><time>2026-05-02T17:33:29.411Z</time></trkpt><trkpt lat="32.308212" lon="-110.7403825"><ele>956.0</ele><time>2026-05-02T17:33:30.41Z</time></trkpt><trkpt lat="32.3081644" lon="-110.7405253"><ele>955.0</ele><time>2026-05-02T17:33:31.411Z</time></trkpt><trkpt lat="32.3081384" lon="-110.7406766"><ele>954.0</ele><time>2026-05-02T17:33:32.41Z</time></trkpt><trkpt lat="32.3081339" lon="-110.7408309"><ele>953.0</ele><time>2026-05-02T17:33:33.411Z</time></trkpt><trkpt lat="32.3081489" lon="-110.7409832"><ele>952.0</ele><time>2026-05-02T17:33:34.411Z</time></trkpt><trkpt lat="32.3081821" lon="-110.7411287"><ele>952.0</ele><time>2026-05-02T17:33:35.41Z</time></trkpt><trkpt lat="32.3082322" lon="-110.7412583"><ele>952.0</ele><time>2026-05-02T17:33:36.41Z</time></trkpt><trkpt lat="32.308295" lon="-110.7413697"><ele>952.0</ele><time>2026-05-02T17:33:37.41Z</time></trkpt><trkpt lat="32.3083698" lon="-110.7414671"><ele>952.0</ele><time>2026-05-02T17:33:38.411Z</time></trkpt><trkpt lat="32.3084581" lon="-110.7415529"><ele>952.0</ele><time>2026-05-02T17:33:39.41Z</time></trkpt><trkpt lat="32.3085588" lon="-110.7416246"><ele>952.0</ele><time>2026-05-02T17:33:40.41Z</time></trkpt><trkpt lat="32.3086681" lon="-110.7416783"><ele>952.0</ele><time>2026-05-02T17:33:41.411Z</time></trkpt><trkpt lat="32.3087874" lon="-110.7417119"><ele>952.0</ele><time>2026-05-02T17:33:42.41Z</time></trkpt><trkpt lat="32.3089176" lon="-110.741724"><ele>951.5</ele><time>2026-05-02T17:33:43.411Z</time></trkpt><trkpt lat="32.3090559" lon="-110.7417155"><ele>951.0</ele><time>2026-05-02T17:33:44.411Z</time></trkpt><trkpt lat="32.3091965" lon="-110.7416918"><ele>950.5</ele><time>2026-05-02T17:33:45.41Z</time></trkpt><trkpt lat="32.3093363" lon="-110.741663"><ele>950.0</ele><time>2026-05-02T17:33:46.411Z</time></trkpt><trkpt lat="32.3094777" lon="-110.7416331"><ele>950.0</ele><time>2026-05-02T17:33:47.41Z</time></trkpt><trkpt lat="32.3096206" lon="-110.7416023"><ele>950.0</ele><time>2026-05-02T17:33:48.411Z</time></trkpt><trkpt lat="32.3097635" lon="-110.7415701"><ele>950.0</ele><time>2026-05-02T17:33:49.41Z</time></trkpt><trkpt lat="32.3099082" lon="-110.7415373"><ele>950.0</ele><time>2026-05-02T17:33:50.41Z</time></trkpt><trkpt lat="32.3100537" lon="-110.7415045"><ele>947.75</ele><time>2026-05-02T17:33:51.41Z</time></trkpt><trkpt lat="32.3101987" lon="-110.7414707"><ele>945.5</ele><time>2026-05-02T17:33:52.411Z</time></trkpt><trkpt lat="32.31034" lon="-110.7414378"><ele>943.25</ele><time>2026-05-02T17:33:53.411Z</time></trkpt><trkpt lat="32.3104783" lon="-110.7414073"><ele>941.0</ele><time>2026-05-02T17:33:54.41Z</time></trkpt><trkpt lat="32.3106135" lon="-110.7413786"><ele>938.25</ele><time>2026-05-02T17:33:55.41Z</time></trkpt><trkpt lat="32.3107459" lon="-110.7413499"><ele>935.5</ele><time>2026-05-02T17:33:56.411Z</time></trkpt><trkpt lat="32.3108764" lon="-110.7413203"><ele>932.75</ele><time>2026-05-02T17:33:57.411Z</time></trkpt><trkpt lat="32.3110047" lon="-110.7412905"><ele>930.0</ele><time>2026-05-02T17:33:58.412Z</time></trkpt><trkpt lat="32.311131" lon="-110.7412596"><ele>930.0</ele><time>2026-05-02T17:33:59.41Z</time></trkpt><trkpt lat="32.3112562" lon="-110.7412299"><ele>930.0</ele><time>2026-05-02T17:34:00.411Z</time></trkpt><trkpt lat="32.3113823" lon="-110.7412001"><ele>930.0</ele><time>2026-05-02T17:34:01.41Z</time></trkpt><trkpt lat="32.3115077" lon="-110.7411719"><ele>930.0</ele><time>2026-05-02T17:34:02.41Z</time></trkpt><trkpt lat="32.3116297" lon="-110.7411481"><ele>929.5</ele><time>2026-05-02T17:34:03.41Z</time></trkpt><trkpt lat="32.3117475" lon="-110.7411333"><ele>929.0</ele><time>2026-05-02T17:34:04.41Z</time></trkpt><trkpt lat="32.3118604" lon="-110.7411353"><ele>928.5</ele><time>2026-05-02T17:34:05.41Z</time></trkpt><trkpt lat="32.311967" lon="-110.7411588"><ele>928.0</ele><time>2026-05-02T17:34:06.411Z</time></trkpt><trkpt lat="32.3120706" lon="-110.7412041"><ele>928.0</ele><time>2026-05-02T17:34:07.41Z</time></trkpt><trkpt lat="32.312169" lon="-110.7412738"><ele>928.0</ele><time>2026-05-02T17:34:08.41Z</time></trkpt><trkpt lat="32.3122551" lon="-110.7413668"><ele>928.0</ele><time>2026-05-02T17:34:09.41Z</time></trkpt><trkpt lat="32.3123242" lon="-110.7414775"><ele>928.0</ele><time>2026-05-02T17:34:10.41Z</time></trkpt><trkpt lat="32.3123733" lon="-110.741602"><ele>929.75</ele><time>2026-05-02T17:34:11.411Z</time></trkpt><trkpt lat="32.312399" lon="-110.7417376"><ele>931.5</ele><time>2026-05-02T17:34:12.411Z</time></trkpt><trkpt lat="32.3124" lon="-110.7418759"><ele>933.25</ele><time>2026-05-02T17:34:13.411Z</time></trkpt><trkpt lat="32.3123778" lon="-110.7420101"><ele>935.0</ele><time>2026-05-02T17:34:14.41Z</time></trkpt><trkpt lat="32.3123341" lon="-110.7421362"><ele>934.25</ele><time>2026-05-02T17:34:15.411Z</time></trkpt><trkpt lat="32.3122725" lon="-110.7422502"><ele>933.5</ele><time>2026-05-02T17:34:16.41Z</time></trkpt><trkpt lat="32.3121928" lon="-110.7423461"><ele>932.75</ele><time>2026-05-02T17:34:17.41Z</time></trkpt><trkpt lat="32.3120959" lon="-110.7424188"><ele>932.0</ele><time>2026-05-02T17:34:18.41Z</time></trkpt><trkpt lat="32.3119864" lon="-110.7424713"><ele>932.0</ele><time>2026-05-02T17:34:19.412Z</time></trkpt><trkpt lat="32.3118623" lon="-110.7425101"><ele>932.0</ele><time>2026-05-02T17:34:20.411Z</time></trkpt><trkpt lat="32.3117288" lon="-110.7425425"><ele>932.0</ele><time>2026-05-02T17:34:21.412Z</time></trkpt><trkpt lat="32.3115933" lon="-110.7425734"><ele>932.0</ele><time>2026-05-02T17:34:22.41Z</time></trkpt><trkpt lat="32.3114597" lon="-110.7426063"><ele>935.0</ele><time>2026-05-02T17:34:23.411Z</time></trkpt><trkpt lat="32.3113285" lon="-110.7426427"><ele>938.0</ele><time>2026-05-02T17:34:24.41Z</time></trkpt><trkpt lat="32.3111963" lon="-110.742684"><ele>941.0</ele><time>2026-05-02T17:34:25.41Z</time></trkpt><trkpt lat="32.3110603" lon="-110.7427338"><ele>944.0</ele><time>2026-05-02T17:34:26.411Z</time></trkpt><trkpt lat="32.3109184" lon="-110.7427925"><ele>944.0</ele><time>2026-05-02T17:34:27.411Z</time></trkpt><trkpt lat="32.3107764" lon="-110.7428577"><ele>944.0</ele><time>2026-05-02T17:34:28.411Z</time></trkpt><trkpt lat="32.3106371" lon="-110.7429282"><ele>944.0</ele><time>2026-05-02T17:34:29.412Z</time></trkpt><trkpt lat="32.3104999" lon="-110.7430042"><ele>935.0</ele><time>2026-05-02T17:34:30.41Z</time></trkpt><trkpt lat="32.310365" lon="-110.7430884"><ele>926.0</ele><time>2026-05-02T17:34:31.411Z</time></trkpt><trkpt lat="32.3102316" lon="-110.7431806"><ele>917.0</ele><time>2026-05-02T17:34:32.412Z</time></trkpt><trkpt lat="32.3100997" lon="-110.743277"><ele>917.0</ele><time>2026-05-02T17:34:33.41Z</time></trkpt><trkpt lat="32.3099662" lon="-110.7433785"><ele>917.0</ele><time>2026-05-02T17:34:34.411Z</time></trkpt><trkpt lat="32.3098311" lon="-110.7434815"><ele>917.0</ele><time>2026-05-02T17:34:35.411Z</time></trkpt><trkpt lat="32.3096946" lon="-110.7435822"><ele>916.6666666666667</ele><time>2026-05-02T17:34:36.411Z</time></trkpt><trkpt lat="32.3095556" lon="-110.7436786"><ele>916.3333333333333</ele><time>2026-05-02T17:34:37.412Z</time></trkpt><trkpt lat="32.3094116" lon="-110.7437697"><ele>916.0</ele><time>2026-05-02T17:34:38.412Z</time></trkpt><trkpt lat="32.309257" lon="-110.7438562"><ele>916.0</ele><time>2026-05-02T17:34:39.411Z</time></trkpt><trkpt lat="32.309091" lon="-110.7439368"><ele>916.0</ele><time>2026-05-02T17:34:40.411Z</time></trkpt><trkpt lat="32.3089193" lon="-110.744008"><ele>916.0</ele><time>2026-05-02T17:34:41.411Z</time></trkpt><trkpt lat="32.3087475" lon="-110.744067"><ele>911.0</ele><time>2026-05-02T17:34:42.411Z</time></trkpt><trkpt lat="32.3085756" lon="-110.7441137"><ele>906.0</ele><time>2026-05-02T17:34:43.41Z</time></trkpt><trkpt lat="32.3084044" lon="-110.7441497"><ele>901.0</ele><time>2026-05-02T17:34:44.411Z</time></trkpt><trkpt lat="32.308234" lon="-110.7441752"><ele>900.0</ele><time>2026-05-02T17:34:45.41Z</time></trkpt><trkpt lat="32.3080645" lon="-110.7441915"><ele>899.0</ele><time>2026-05-02T17:34:46.411Z</time></trkpt><trkpt lat="32.307896" lon="-110.7442011"><ele>898.0</ele><time>2026-05-02T17:34:47.411Z</time></trkpt><trkpt lat="32.3077307" lon="-110.7442052"><ele>898.0</ele><time>2026-05-02T17:34:48.412Z</time></trkpt><trkpt lat="32.3075608" lon="-110.7442113"><ele>898.0</ele><time>2026-05-02T17:34:49.412Z</time></trkpt><trkpt lat="32.3073942" lon="-110.7442141"><ele>898.0</ele><time>2026-05-02T17:34:50.411Z</time></trkpt><trkpt lat="32.30722" lon="-110.7442193"><ele>895.6666666666666</ele><time>2026-05-02T17:34:51.41Z</time></trkpt><trkpt lat="32.3070512" lon="-110.7442193"><ele>893.3333333333333</ele><time>2026-05-02T17:34:52.412Z</time></trkpt><trkpt lat="32.3068895" lon="-110.7442277"><ele>891.0</ele><time>2026-05-02T17:34:53.411Z</time></trkpt><trkpt lat="32.3067227" lon="-110.7442335"><ele>891.0</ele><time>2026-05-02T17:34:54.411Z</time></trkpt><trkpt lat="32.3065627" lon="-110.744238"><ele>891.0</ele><time>2026-05-02T17:34:55.411Z</time></trkpt><trkpt lat="32.3064044" lon="-110.7442518"><ele>891.0</ele><time>2026-05-02T17:34:56.411Z</time></trkpt><trkpt lat="32.3062437" lon="-110.7442735"><ele>888.3333333333333</ele><time>2026-05-02T17:34:57.411Z</time></trkpt><trkpt lat="32.3060782" lon="-110.744299"><ele>885.6666666666666</ele><time>2026-05-02T17:34:58.411Z</time></trkpt><trkpt lat="32.3059018" lon="-110.7443331"><ele>883.0</ele><time>2026-05-02T17:34:59.411Z</time></trkpt><trkpt lat="32.3057291" lon="-110.7443791"><ele>882.3333333333333</ele><time>2026-05-02T17:35:00.412Z</time></trkpt><trkpt lat="32.3055522" lon="-110.7444361"><ele>881.6666666666667</ele><time>2026-05-02T17:35:01.411Z</time></trkpt><trkpt lat="32.3053811" lon="-110.7444978"><ele>881.0</ele><time>2026-05-02T17:35:02.411Z</time></trkpt><trkpt lat="32.3052135" lon="-110.7445654"><ele>881.0</ele><time>2026-05-02T17:35:03.412Z</time></trkpt><trkpt lat="32.3050418" lon="-110.744645"><ele>881.0</ele><time>2026-05-02T17:35:04.412Z</time></trkpt><trkpt lat="32.3048648" lon="-110.7447228"><ele>881.0</ele><time>2026-05-02T17:35:05.412Z</time></trkpt><trkpt lat="32.3046973" lon="-110.7448206"><ele>878.6666666666667</ele><time>2026-05-02T17:35:06.411Z</time></trkpt><trkpt lat="32.3045385" lon="-110.7449197"><ele>876.3333333333333</ele><time>2026-05-02T17:35:07.411Z</time></trkpt><trkpt lat="32.3043806" lon="-110.7450312"><ele>874.0</ele><time>2026-05-02T17:35:08.411Z</time></trkpt><trkpt lat="32.3042278" lon="-110.745153"><ele>873.6666666666666</ele><time>2026-05-02T17:35:09.411Z</time></trkpt><trkpt lat="32.3040793" lon="-110.745283"><ele>873.3333333333333</ele><time>2026-05-02T17:35:10.412Z</time></trkpt><trkpt lat="32.3039321" lon="-110.7454216"><ele>873.0</ele><time>2026-05-02T17:35:11.412Z</time></trkpt><trkpt lat="32.3037813" lon="-110.7455619"><ele>871.6666666666667</ele><time>2026-05-02T17:35:12.412Z</time></trkpt><trkpt lat="32.3036319" lon="-110.7457173"><ele>870.3333333333334</ele><time>2026-05-02T17:35:13.411Z</time></trkpt><trkpt lat="32.3034824" lon="-110.7458722"><ele>869.0</ele><time>2026-05-02T17:35:14.412Z</time></trkpt><trkpt lat="32.3033289" lon="-110.7460276"><ele>868.6666666666667</ele><time>2026-05-02T17:35:15.412Z</time></trkpt><trkpt lat="32.3031735" lon="-110.7461775"><ele>868.3333333333333</ele><time>2026-05-02T17:35:16.412Z</time></trkpt><trkpt lat="32.3030121" lon="-110.7463294"><ele>868.0</ele><time>2026-05-02T17:35:17.411Z</time></trkpt><trkpt lat="32.3028595" lon="-110.7464812"><ele>866.6666666666666</ele><time>2026-05-02T17:35:18.412Z</time></trkpt><trkpt lat="32.3027077" lon="-110.7466333"><ele>865.3333333333333</ele><time>2026-05-02T17:35:19.411Z</time></trkpt><trkpt lat="32.3025553" lon="-110.746787"><ele>864.0</ele><time>2026-05-02T17:35:20.411Z</time></trkpt><trkpt lat="32.3023954" lon="-110.7469423"><ele>862.0</ele><time>2026-05-02T17:35:21.412Z</time></trkpt><trkpt lat="32.3022315" lon="-110.7471048"><ele>860.0</ele><time>2026-05-02T17:35:22.412Z</time></trkpt><trkpt lat="32.3020607" lon="-110.7472697"><ele>858.0</ele><time>2026-05-02T17:35:23.411Z</time></trkpt><trkpt lat="32.3018916" lon="-110.7474419"><ele>858.0</ele><time>2026-05-02T17:35:24.412Z</time></trkpt><trkpt lat="32.3017224" lon="-110.7476065"><ele>858.0</ele><time>2026-05-02T17:35:25.412Z</time></trkpt><trkpt lat="32.301558" lon="-110.7477706"><ele>858.0</ele><time>2026-05-02T17:35:26.412Z</time></trkpt><trkpt lat="32.3013926" lon="-110.7479357"><ele>857.6666666666667</ele><time>2026-05-02T17:35:27.412Z</time></trkpt><trkpt lat="32.3012283" lon="-110.7480985"><ele>857.3333333333334</ele><time>2026-05-02T17:35:28.411Z</time></trkpt><trkpt lat="32.3010709" lon="-110.7482646"><ele>857.0</ele><time>2026-05-02T17:35:29.411Z</time></trkpt><trkpt lat="32.3009109" lon="-110.7484202"><ele>856.6666666666667</ele><time>2026-05-02T17:35:30.412Z</time></trkpt><trkpt lat="32.3007525" lon="-110.7485788"><ele>856.3333333333333</ele><time>2026-05-02T17:35:31.412Z</time></trkpt><trkpt lat="32.3005977" lon="-110.7487354"><ele>856.0</ele><time>2026-05-02T17:35:32.412Z</time></trkpt><trkpt lat="32.3004419" lon="-110.7488935"><ele>855.3333333333333</ele><time>2026-05-02T17:35:33.411Z</time></trkpt><trkpt lat="32.300288" lon="-110.7490523"><ele>854.6666666666667</ele><time>2026-05-02T17:35:34.411Z</time></trkpt><trkpt lat="32.300131" lon="-110.7492096"><ele>854.0</ele><time>2026-05-02T17:35:35.411Z</time></trkpt><trkpt lat="32.2999752" lon="-110.7493691"><ele>853.6666666666667</ele><time>2026-05-02T17:35:36.412Z</time></trkpt><trkpt lat="32.2998223" lon="-110.7495155"><ele>853.3333333333333</ele><time>2026-05-02T17:35:37.411Z</time></trkpt><trkpt lat="32.2996699" lon="-110.7496649"><ele>853.0</ele><time>2026-05-02T17:35:38.411Z</time></trkpt><trkpt lat="32.2995194" lon="-110.7498104"><ele>852.6666666666666</ele><time>2026-05-02T17:35:39.411Z</time></trkpt><trkpt lat="32.2993711" lon="-110.7499529"><ele>852.3333333333333</ele><time>2026-05-02T17:35:40.412Z</time></trkpt><trkpt lat="32.2992277" lon="-110.7501009"><ele>852.0</ele><time>2026-05-02T17:35:41.412Z</time></trkpt><trkpt lat="32.2990774" lon="-110.7502514"><ele>851.6666666666667</ele><time>2026-05-02T17:35:42.412Z</time></trkpt><trkpt lat="32.2989261" lon="-110.7504023"><ele>851.3333333333334</ele><time>2026-05-02T17:35:43.411Z</time></trkpt><trkpt lat="32.2987692" lon="-110.750553"><ele>851.0</ele><time>2026-05-02T17:35:44.411Z</time></trkpt><trkpt lat="32.2986172" lon="-110.7507052"><ele>850.3333333333334</ele><time>2026-05-02T17:35:45.411Z</time></trkpt><trkpt lat="32.2984665" lon="-110.7508539"><ele>849.6666666666667</ele><time>2026-05-02T17:35:46.412Z</time></trkpt><trkpt lat="32.2983187" lon="-110.7510038"><ele>849.0</ele><time>2026-05-02T17:35:47.411Z</time></trkpt><trkpt lat="32.2981701" lon="-110.7511535"><ele>848.0</ele><time>2026-05-02T17:35:48.412Z</time></trkpt><trkpt lat="32.298019" lon="-110.7513045"><ele>847.0</ele><time>2026-05-02T17:35:49.411Z</time></trkpt><trkpt lat="32.2978687" lon="-110.7514565"><ele>846.0</ele><time>2026-05-02T17:35:50.412Z</time></trkpt><trkpt lat="32.2977198" lon="-110.7516079"><ele>846.0</ele><time>2026-05-02T17:35:51.411Z</time></trkpt><trkpt lat="32.2975647" lon="-110.751758"><ele>846.0</ele><time>2026-05-02T17:35:52.411Z</time></trkpt><trkpt lat="32.2974107" lon="-110.751915"><ele>846.0</ele><time>2026-05-02T17:35:53.411Z</time></trkpt><trkpt lat="32.2972531" lon="-110.7520704"><ele>845.0</ele><time>2026-05-02T17:35:54.411Z</time></trkpt><trkpt lat="32.297094" lon="-110.7522281"><ele>844.0</ele><time>2026-05-02T17:35:55.411Z</time></trkpt><trkpt lat="32.2969359" lon="-110.752388"><ele>843.0</ele><time>2026-05-02T17:35:56.411Z</time></trkpt><trkpt lat="32.2967799" lon="-110.7525428"><ele>843.0</ele><time>2026-05-02T17:35:57.412Z</time></trkpt><trkpt lat="32.2966296" lon="-110.7526931"><ele>843.0</ele><time>2026-05-02T17:35:58.412Z</time></trkpt><trkpt lat="32.2964826" lon="-110.7528348"><ele>843.0</ele><time>2026-05-02T17:35:59.411Z</time></trkpt><trkpt lat="32.2963416" lon="-110.7529732"><ele>842.6666666666667</ele><time>2026-05-02T17:36:00.412Z</time></trkpt><trkpt lat="32.2962107" lon="-110.7531107"><ele>842.3333333333334</ele><time>2026-05-02T17:36:01.413Z</time></trkpt><trkpt lat="32.2960877" lon="-110.7532327"><ele>842.0</ele><time>2026-05-02T17:36:02.411Z</time></trkpt><trkpt lat="32.2959753" lon="-110.7533482"><ele>842.0</ele><time>2026-05-02T17:36:03.412Z</time></trkpt><trkpt lat="32.2958671" lon="-110.7534565"><ele>842.0</ele><time>2026-05-02T17:36:04.411Z</time></trkpt><trkpt lat="32.2957654" lon="-110.7535584"><ele>842.0</ele><time>2026-05-02T17:36:05.411Z</time></trkpt><trkpt lat="32.2956717" lon="-110.7536523"><ele>842.0</ele><time>2026-05-02T17:36:06.413Z</time></trkpt><trkpt lat="32.2955859" lon="-110.7537378"><ele>841.3333333333334</ele><time>2026-05-02T17:36:07.412Z</time></trkpt><trkpt lat="32.2955073" lon="-110.7538136"><ele>840.6666666666667</ele><time>2026-05-02T17:36:08.412Z</time></trkpt><trkpt lat="32.2954377" lon="-110.7538811"><ele>840.0</ele><time>2026-05-02T17:36:09.412Z</time></trkpt><trkpt lat="32.2953765" lon="-110.7539418"><ele>839.3333333333333</ele><time>2026-05-02T17:36:10.412Z</time></trkpt><trkpt lat="32.2953234" lon="-110.7539983"><ele>838.6666666666666</ele><time>2026-05-02T17:36:11.412Z</time></trkpt><trkpt lat="32.2952734" lon="-110.7540474"><ele>838.0</ele><time>2026-05-02T17:36:12.412Z</time></trkpt><trkpt lat="32.2951881" lon="-110.7541378"><ele>837.9999999999999</ele><time>2026-05-02T17:36:14.413Z</time></trkpt><trkpt lat="32.2951218" lon="-110.7541981"><ele>838.0</ele><time>2026-05-02T17:36:16.412Z</time></trkpt><trkpt lat="32.2950684" lon="-110.7542489"><ele>838.0</ele><time>2026-05-02T17:36:18.411Z</time></trkpt><trkpt lat="32.2950156" lon="-110.7543076"><ele>838.0</ele><time>2026-05-02T17:36:20.412Z</time></trkpt><trkpt lat="32.2949659" lon="-110.754354"><ele>837.9999999999999</ele><time>2026-05-02T17:36:22.412Z</time></trkpt><trkpt lat="32.2949091" lon="-110.7544047"><ele>838.0</ele><time>2026-05-02T17:36:25.412Z</time></trkpt><trkpt lat="32.2948207" lon="-110.7544913"><ele>838.0</ele><time>2026-05-02T17:36:27.412Z</time></trkpt><trkpt lat="32.2947394" lon="-110.7545798"><ele>838.0</ele><time>2026-05-02T17:36:28.413Z</time></trkpt><trkpt lat="32.2946332" lon="-110.7546887"><ele>838.0</ele><time>2026-05-02T17:36:29.411Z</time></trkpt><trkpt lat="32.2945044" lon="-110.7548154"><ele>838.0</ele><time>2026-05-02T17:36:30.412Z</time></trkpt><trkpt lat="32.2943573" lon="-110.7549584"><ele>838.0</ele><time>2026-05-02T17:36:31.412Z</time></trkpt><trkpt lat="32.2942043" lon="-110.7551116"><ele>838.0</ele><time>2026-05-02T17:36:32.413Z</time></trkpt><trkpt lat="32.2940514" lon="-110.7552702"><ele>838.0</ele><time>2026-05-02T17:36:33.412Z</time></trkpt><trkpt lat="32.2939048" lon="-110.7554148"><ele>837.6666666666666</ele><time>2026-05-02T17:36:34.413Z</time></trkpt><trkpt lat="32.2937601" lon="-110.7555615"><ele>837.3333333333333</ele><time>2026-05-02T17:36:35.411Z</time></trkpt><trkpt lat="32.2936137" lon="-110.7557079"><ele>837.0</ele><time>2026-05-02T17:36:36.412Z</time></trkpt><trkpt lat="32.2934635" lon="-110.7558572"><ele>837.0</ele><time>2026-05-02T17:36:37.411Z</time></trkpt><trkpt lat="32.2933087" lon="-110.7560088"><ele>837.0</ele><time>2026-05-02T17:36:38.412Z</time></trkpt><trkpt lat="32.2931516" lon="-110.7561608"><ele>837.0</ele><time>2026-05-02T17:36:39.413Z</time></trkpt><trkpt lat="32.2929951" lon="-110.7563191"><ele>835.6666666666667</ele><time>2026-05-02T17:36:40.412Z</time></trkpt><trkpt lat="32.2928376" lon="-110.756477"><ele>834.3333333333334</ele><time>2026-05-02T17:36:41.413Z</time></trkpt><trkpt lat="32.2926812" lon="-110.7566347"><ele>833.0</ele><time>2026-05-02T17:36:42.412Z</time></trkpt><trkpt lat="32.2925209" lon="-110.7567912"><ele>833.0</ele><time>2026-05-02T17:36:43.412Z</time></trkpt><trkpt lat="32.292365" lon="-110.756957"><ele>833.0</ele><time>2026-05-02T17:36:44.412Z</time></trkpt><trkpt lat="32.2922062" lon="-110.7571207"><ele>833.0</ele><time>2026-05-02T17:36:45.412Z</time></trkpt><trkpt lat="32.2920459" lon="-110.757285"><ele>833.3333333333334</ele><time>2026-05-02T17:36:46.413Z</time></trkpt><trkpt lat="32.2918817" lon="-110.7574455"><ele>833.6666666666667</ele><time>2026-05-02T17:36:47.413Z</time></trkpt><trkpt lat="32.2917185" lon="-110.7576057"><ele>834.0</ele><time>2026-05-02T17:36:48.413Z</time></trkpt><trkpt lat="32.2915547" lon="-110.7577685"><ele>833.3333333333333</ele><time>2026-05-02T17:36:49.413Z</time></trkpt><trkpt lat="32.2913895" lon="-110.7579323"><ele>832.6666666666666</ele><time>2026-05-02T17:36:50.412Z</time></trkpt><trkpt lat="32.2912222" lon="-110.7580967"><ele>832.0</ele><time>2026-05-02T17:36:51.413Z</time></trkpt><trkpt lat="32.2910566" lon="-110.7582626"><ele>832.0</ele><time>2026-05-02T17:36:52.413Z</time></trkpt><trkpt lat="32.2908901" lon="-110.7584307"><ele>832.0</ele><time>2026-05-02T17:36:53.412Z</time></trkpt><trkpt lat="32.2907222" lon="-110.7585977"><ele>832.0</ele><time>2026-05-02T17:36:54.412Z</time></trkpt><trkpt lat="32.2905538" lon="-110.7587627"><ele>831.0</ele><time>2026-05-02T17:36:55.412Z</time></trkpt><trkpt lat="32.2903877" lon="-110.7589284"><ele>830.0</ele><time>2026-05-02T17:36:56.412Z</time></trkpt><trkpt lat="32.2902222" lon="-110.759094"><ele>829.0</ele><time>2026-05-02T17:36:57.413Z</time></trkpt><trkpt lat="32.2900559" lon="-110.7592593"><ele>829.0</ele><time>2026-05-02T17:36:58.412Z</time></trkpt><trkpt lat="32.2898913" lon="-110.7594253"><ele>829.0</ele><time>2026-05-02T17:36:59.413Z</time></trkpt><trkpt lat="32.2897286" lon="-110.7595881"><ele>829.0</ele><time>2026-05-02T17:37:00.413Z</time></trkpt><trkpt lat="32.2895682" lon="-110.7597522"><ele>829.0</ele><time>2026-05-02T17:37:01.413Z</time></trkpt><trkpt lat="32.2894077" lon="-110.759916"><ele>829.0</ele><time>2026-05-02T17:37:02.413Z</time></trkpt><trkpt lat="32.289247" lon="-110.7600838"><ele>829.0</ele><time>2026-05-02T17:37:03.412Z</time></trkpt><trkpt lat="32.2890831" lon="-110.7602521"><ele>829.0</ele><time>2026-05-02T17:37:04.412Z</time></trkpt><trkpt lat="32.2889185" lon="-110.7604143"><ele>829.0</ele><time>2026-05-02T17:37:05.412Z</time></trkpt><trkpt lat="32.2887555" lon="-110.760579"><ele>829.0</ele><time>2026-05-02T17:37:06.412Z</time></trkpt><trkpt lat="32.2885952" lon="-110.7607418"><ele>829.0</ele><time>2026-05-02T17:37:07.412Z</time></trkpt><trkpt lat="32.2884369" lon="-110.7609036"><ele>829.0</ele><time>2026-05-02T17:37:08.412Z</time></trkpt><trkpt lat="32.2882745" lon="-110.7610634"><ele>829.0</ele><time>2026-05-02T17:37:09.412Z</time></trkpt><trkpt lat="32.2881124" lon="-110.761228"><ele>827.6666666666666</ele><time>2026-05-02T17:37:10.412Z</time></trkpt><trkpt lat="32.2879462" lon="-110.7613897"><ele>826.3333333333333</ele><time>2026-05-02T17:37:11.413Z</time></trkpt><trkpt lat="32.2877839" lon="-110.7615536"><ele>825.0</ele><time>2026-05-02T17:37:12.413Z</time></trkpt><trkpt lat="32.2876229" lon="-110.7617174"><ele>824.6666666666667</ele><time>2026-05-02T17:37:13.412Z</time></trkpt><trkpt lat="32.2874562" lon="-110.7618785"><ele>824.3333333333334</ele><time>2026-05-02T17:37:14.412Z</time></trkpt><trkpt lat="32.2872894" lon="-110.762035"><ele>824.0</ele><time>2026-05-02T17:37:15.413Z</time></trkpt><trkpt lat="32.2871273" lon="-110.7621948"><ele>823.6666666666667</ele><time>2026-05-02T17:37:16.412Z</time></trkpt><trkpt lat="32.2869697" lon="-110.7623552"><ele>823.3333333333333</ele><time>2026-05-02T17:37:17.412Z</time></trkpt><trkpt lat="32.2868143" lon="-110.762515"><ele>823.0</ele><time>2026-05-02T17:37:18.413Z</time></trkpt><trkpt lat="32.2866531" lon="-110.7626719"><ele>823.0</ele><time>2026-05-02T17:37:19.414Z</time></trkpt><trkpt lat="32.2864942" lon="-110.7628285"><ele>823.0</ele><time>2026-05-02T17:37:20.413Z</time></trkpt><trkpt lat="32.2863371" lon="-110.7629791"><ele>823.0</ele><time>2026-05-02T17:37:21.413Z</time></trkpt><trkpt lat="32.2861806" lon="-110.763129"><ele>823.0</ele><time>2026-05-02T17:37:22.413Z</time></trkpt><trkpt lat="32.2860299" lon="-110.763274"><ele>823.0</ele><time>2026-05-02T17:37:23.412Z</time></trkpt><trkpt lat="32.2858833" lon="-110.7634212"><ele>823.0</ele><time>2026-05-02T17:37:24.412Z</time></trkpt><trkpt lat="32.2857413" lon="-110.7635667"><ele>823.0</ele><time>2026-05-02T17:37:25.413Z</time></trkpt><trkpt lat="32.2856035" lon="-110.7637106"><ele>823.0</ele><time>2026-05-02T17:37:26.412Z</time></trkpt><trkpt lat="32.2854608" lon="-110.7638553"><ele>823.0</ele><time>2026-05-02T17:37:27.413Z</time></trkpt><trkpt lat="32.285317" lon="-110.7640013"><ele>823.0</ele><time>2026-05-02T17:37:28.412Z</time></trkpt><trkpt lat="32.2851707" lon="-110.7641481"><ele>823.0</ele><time>2026-05-02T17:37:29.413Z</time></trkpt><trkpt lat="32.2850224" lon="-110.7642987"><ele>823.0</ele><time>2026-05-02T17:37:30.413Z</time></trkpt><trkpt lat="32.2848717" lon="-110.7644507"><ele>822.6666666666666</ele><time>2026-05-02T17:37:31.413Z</time></trkpt><trkpt lat="32.2847189" lon="-110.7646002"><ele>822.3333333333333</ele><time>2026-05-02T17:37:32.412Z</time></trkpt><trkpt lat="32.2845693" lon="-110.764751"><ele>822.0</ele><time>2026-05-02T17:37:33.413Z</time></trkpt><trkpt lat="32.2844187" lon="-110.7649071"><ele>822.0</ele><time>2026-05-02T17:37:34.413Z</time></trkpt><trkpt lat="32.2842667" lon="-110.765062"><ele>822.0</ele><time>2026-05-02T17:37:35.413Z</time></trkpt><trkpt lat="32.2841127" lon="-110.7652137"><ele>822.0</ele><time>2026-05-02T17:37:36.413Z</time></trkpt><trkpt lat="32.2839593" lon="-110.765366"><ele>821.6666666666667</ele><time>2026-05-02T17:37:37.413Z</time></trkpt><trkpt lat="32.2838051" lon="-110.7655159"><ele>821.3333333333334</ele><time>2026-05-02T17:37:38.412Z</time></trkpt><trkpt lat="32.2836525" lon="-110.7656695"><ele>821.0</ele><time>2026-05-02T17:37:39.412Z</time></trkpt><trkpt lat="32.2835007" lon="-110.7658222"><ele>821.0</ele><time>2026-05-02T17:37:40.413Z</time></trkpt><trkpt lat="32.2833482" lon="-110.7659724"><ele>821.0</ele><time>2026-05-02T17:37:41.413Z</time></trkpt><trkpt lat="32.2831981" lon="-110.7661254"><ele>821.0</ele><time>2026-05-02T17:37:42.413Z</time></trkpt><trkpt lat="32.2830467" lon="-110.7662742"><ele>820.6666666666667</ele><time>2026-05-02T17:37:43.412Z</time></trkpt><trkpt lat="32.2828975" lon="-110.7664248"><ele>820.3333333333333</ele><time>2026-05-02T17:37:44.413Z</time></trkpt><trkpt lat="32.2827472" lon="-110.7665775"><ele>820.0</ele><time>2026-05-02T17:37:45.413Z</time></trkpt><trkpt lat="32.282598" lon="-110.7667285"><ele>820.0</ele><time>2026-05-02T17:37:46.413Z</time></trkpt><trkpt lat="32.2824489" lon="-110.7668751"><ele>820.0</ele><time>2026-05-02T17:37:47.412Z</time></trkpt><trkpt lat="32.2822983" lon="-110.767021"><ele>820.0</ele><time>2026-05-02T17:37:48.413Z</time></trkpt><trkpt lat="32.2821478" lon="-110.7671696"><ele>820.0</ele><time>2026-05-02T17:37:49.414Z</time></trkpt><trkpt lat="32.2819966" lon="-110.7673223"><ele>820.0</ele><time>2026-05-02T17:37:50.414Z</time></trkpt><trkpt lat="32.2818453" lon="-110.7674787"><ele>820.0</ele><time>2026-05-02T17:37:51.414Z</time></trkpt><trkpt lat="32.2816919" lon="-110.7676387"><ele>819.3333333333333</ele><time>2026-05-02T17:37:52.413Z</time></trkpt><trkpt lat="32.2815351" lon="-110.7677983"><ele>818.6666666666667</ele><time>2026-05-02T17:37:53.413Z</time></trkpt><trkpt lat="32.281379" lon="-110.7679625"><ele>818.0</ele><time>2026-05-02T17:37:54.413Z</time></trkpt><trkpt lat="32.2812295" lon="-110.7681384"><ele>817.6666666666667</ele><time>2026-05-02T17:37:55.414Z</time></trkpt><trkpt lat="32.2810798" lon="-110.7683146"><ele>817.3333333333333</ele><time>2026-05-02T17:37:56.412Z</time></trkpt><trkpt lat="32.2809291" lon="-110.7684989"><ele>817.0</ele><time>2026-05-02T17:37:57.413Z</time></trkpt><trkpt lat="32.2807772" lon="-110.7686835"><ele>817.6666666666666</ele><time>2026-05-02T17:37:58.413Z</time></trkpt><trkpt lat="32.2806256" lon="-110.7688699"><ele>818.3333333333333</ele><time>2026-05-02T17:37:59.412Z</time></trkpt><trkpt lat="32.2804737" lon="-110.7690601"><ele>819.0</ele><time>2026-05-02T17:38:00.413Z</time></trkpt><trkpt lat="32.2803277" lon="-110.7692534"><ele>820.6666666666667</ele><time>2026-05-02T17:38:01.413Z</time></trkpt><trkpt lat="32.2801889" lon="-110.7694433"><ele>822.3333333333334</ele><time>2026-05-02T17:38:02.413Z</time></trkpt><trkpt lat="32.2800564" lon="-110.7696273"><ele>824.0</ele><time>2026-05-02T17:38:03.412Z</time></trkpt><trkpt lat="32.2799294" lon="-110.7698123"><ele>824.0</ele><time>2026-05-02T17:38:04.413Z</time></trkpt><trkpt lat="32.2798066" lon="-110.7699983"><ele>824.0</ele><time>2026-05-02T17:38:05.414Z</time></trkpt><trkpt lat="32.2796849" lon="-110.7701816"><ele>824.0</ele><time>2026-05-02T17:38:06.412Z</time></trkpt><trkpt lat="32.279573" lon="-110.7703586"><ele>825.0</ele><time>2026-05-02T17:38:07.414Z</time></trkpt><trkpt lat="32.279469" lon="-110.7705337"><ele>826.0</ele><time>2026-05-02T17:38:08.414Z</time></trkpt><trkpt lat="32.2793619" lon="-110.7707074"><ele>827.0</ele><time>2026-05-02T17:38:09.412Z</time></trkpt><trkpt lat="32.2792594" lon="-110.7708781"><ele>827.0</ele><time>2026-05-02T17:38:10.412Z</time></trkpt><trkpt lat="32.2791614" lon="-110.7710488"><ele>827.0</ele><time>2026-05-02T17:38:11.412Z</time></trkpt><trkpt lat="32.279069" lon="-110.771216"><ele>827.0</ele><time>2026-05-02T17:38:12.413Z</time></trkpt><trkpt lat="32.2789824" lon="-110.7713831"><ele>826.75</ele><time>2026-05-02T17:38:13.413Z</time></trkpt><trkpt lat="32.2789012" lon="-110.771545"><ele>826.5</ele><time>2026-05-02T17:38:14.414Z</time></trkpt><trkpt lat="32.2788243" lon="-110.7716975"><ele>826.25</ele><time>2026-05-02T17:38:15.414Z</time></trkpt><trkpt lat="32.2787517" lon="-110.771838"><ele>826.0</ele><time>2026-05-02T17:38:16.413Z</time></trkpt><trkpt lat="32.2786858" lon="-110.7719679"><ele>826.0</ele><time>2026-05-02T17:38:17.414Z</time></trkpt><trkpt lat="32.2786265" lon="-110.7720832"><ele>826.0</ele><time>2026-05-02T17:38:18.413Z</time></trkpt><trkpt lat="32.2785729" lon="-110.7721911"><ele>826.0</ele><time>2026-05-02T17:38:19.413Z</time></trkpt><trkpt lat="32.2785272" lon="-110.772282"><ele>826.0</ele><time>2026-05-02T17:38:20.412Z</time></trkpt><trkpt lat="32.278492" lon="-110.7723574"><ele>826.0</ele><time>2026-05-02T17:38:21.413Z</time></trkpt><trkpt lat="32.2784509" lon="-110.7724479"><ele>826.0</ele><time>2026-05-02T17:38:23.413Z</time></trkpt><trkpt lat="32.2784236" lon="-110.7725166"><ele>826.0</ele><time>2026-05-02T17:38:28.413Z</time></trkpt><trkpt lat="32.278376" lon="-110.7726119"><ele>826.0</ele><time>2026-05-02T17:38:29.414Z</time></trkpt><trkpt lat="32.2783164" lon="-110.7727329"><ele>826.0</ele><time>2026-05-02T17:38:30.413Z</time></trkpt><trkpt lat="32.2782514" lon="-110.7728745"><ele>826.0</ele><time>2026-05-02T17:38:31.414Z</time></trkpt><trkpt lat="32.2781779" lon="-110.7730355"><ele>824.6666666666666</ele><time>2026-05-02T17:38:32.414Z</time></trkpt><trkpt lat="32.2780916" lon="-110.7732242"><ele>823.3333333333333</ele><time>2026-05-02T17:38:33.413Z</time></trkpt><trkpt lat="32.277997" lon="-110.7734272"><ele>822.0</ele><time>2026-05-02T17:38:34.413Z</time></trkpt><trkpt lat="32.2778914" lon="-110.7736485"><ele>821.3333333333333</ele><time>2026-05-02T17:38:35.413Z</time></trkpt><trkpt lat="32.2777834" lon="-110.7738792"><ele>820.6666666666666</ele><time>2026-05-02T17:38:36.413Z</time></trkpt><trkpt lat="32.2776754" lon="-110.7741101"><ele>820.0</ele><time>2026-05-02T17:38:37.414Z</time></trkpt><trkpt lat="32.2775684" lon="-110.7743399"><ele>818.6666666666666</ele><time>2026-05-02T17:38:38.414Z</time></trkpt><trkpt lat="32.2774645" lon="-110.7745624"><ele>817.3333333333333</ele><time>2026-05-02T17:38:39.414Z</time></trkpt><trkpt lat="32.2773615" lon="-110.7747861"><ele>816.0</ele><time>2026-05-02T17:38:40.414Z</time></trkpt><trkpt lat="32.2772586" lon="-110.7750043"><ele>814.3333333333333</ele><time>2026-05-02T17:38:41.414Z</time></trkpt><trkpt lat="32.2771555" lon="-110.7752226"><ele>812.6666666666666</ele><time>2026-05-02T17:38:42.413Z</time></trkpt><trkpt lat="32.2770527" lon="-110.7754432"><ele>811.0</ele><time>2026-05-02T17:38:43.413Z</time></trkpt><trkpt lat="32.2769481" lon="-110.7756635"><ele>811.0</ele><time>2026-05-02T17:38:44.414Z</time></trkpt><trkpt lat="32.2768416" lon="-110.7758846"><ele>811.0</ele><time>2026-05-02T17:38:45.414Z</time></trkpt><trkpt lat="32.2767337" lon="-110.7761075"><ele>811.0</ele><time>2026-05-02T17:38:46.414Z</time></trkpt><trkpt lat="32.2766264" lon="-110.7763309"><ele>811.0</ele><time>2026-05-02T17:38:47.413Z</time></trkpt><trkpt lat="32.2765171" lon="-110.7765536"><ele>811.0</ele><time>2026-05-02T17:38:48.414Z</time></trkpt><trkpt lat="32.2764041" lon="-110.7767758"><ele>811.0</ele><time>2026-05-02T17:38:49.413Z</time></trkpt><trkpt lat="32.2762874" lon="-110.7769981"><ele>810.0</ele><time>2026-05-02T17:38:50.414Z</time></trkpt><trkpt lat="32.2761654" lon="-110.7772177"><ele>809.0</ele><time>2026-05-02T17:38:51.413Z</time></trkpt><trkpt lat="32.2760412" lon="-110.777434"><ele>808.0</ele><time>2026-05-02T17:38:52.413Z</time></trkpt><trkpt lat="32.275912" lon="-110.7776475"><ele>808.6666666666666</ele><time>2026-05-02T17:38:53.413Z</time></trkpt><trkpt lat="32.2757848" lon="-110.77786"><ele>809.3333333333333</ele><time>2026-05-02T17:38:54.413Z</time></trkpt><trkpt lat="32.2756575" lon="-110.7780739"><ele>810.0</ele><time>2026-05-02T17:38:55.414Z</time></trkpt><trkpt lat="32.2755282" lon="-110.7782867"><ele>809.0</ele><time>2026-05-02T17:38:56.414Z</time></trkpt><trkpt lat="32.2753967" lon="-110.7784927"><ele>808.0</ele><time>2026-05-02T17:38:57.414Z</time></trkpt><trkpt lat="32.2752575" lon="-110.7786998"><ele>807.0</ele><time>2026-05-02T17:38:58.413Z</time></trkpt><trkpt lat="32.2751136" lon="-110.7789018"><ele>807.0</ele><time>2026-05-02T17:38:59.414Z</time></trkpt><trkpt lat="32.2749732" lon="-110.7791016"><ele>807.0</ele><time>2026-05-02T17:39:00.414Z</time></trkpt><trkpt lat="32.274832" lon="-110.7792989"><ele>807.0</ele><time>2026-05-02T17:39:01.414Z</time></trkpt><trkpt lat="32.2746881" lon="-110.779493"><ele>806.0</ele><time>2026-05-02T17:39:02.414Z</time></trkpt><trkpt lat="32.2745462" lon="-110.7796909"><ele>805.0</ele><time>2026-05-02T17:39:03.413Z</time></trkpt><trkpt lat="32.2744043" lon="-110.7798872"><ele>804.0</ele><time>2026-05-02T17:39:04.413Z</time></trkpt><trkpt lat="32.2742607" lon="-110.7800837"><ele>804.6666666666667</ele><time>2026-05-02T17:39:05.414Z</time></trkpt><trkpt lat="32.2741183" lon="-110.7802775"><ele>805.3333333333334</ele><time>2026-05-02T17:39:06.414Z</time></trkpt><trkpt lat="32.2739793" lon="-110.7804727"><ele>806.0</ele><time>2026-05-02T17:39:07.413Z</time></trkpt><trkpt lat="32.2738394" lon="-110.7806663"><ele>806.0</ele><time>2026-05-02T17:39:08.413Z</time></trkpt><trkpt lat="32.2736995" lon="-110.7808588"><ele>806.0</ele><time>2026-05-02T17:39:09.413Z</time></trkpt><trkpt lat="32.2735585" lon="-110.7810535"><ele>806.0</ele><time>2026-05-02T17:39:10.413Z</time></trkpt><trkpt lat="32.2734164" lon="-110.7812492"><ele>806.3333333333334</ele><time>2026-05-02T17:39:11.413Z</time></trkpt><trkpt lat="32.2732735" lon="-110.7814424"><ele>806.6666666666667</ele><time>2026-05-02T17:39:12.413Z</time></trkpt><trkpt lat="32.2731294" lon="-110.7816378"><ele>807.0</ele><time>2026-05-02T17:39:13.413Z</time></trkpt><trkpt lat="32.2729851" lon="-110.7818343"><ele>805.0</ele><time>2026-05-02T17:39:14.414Z</time></trkpt><trkpt lat="32.2728407" lon="-110.7820337"><ele>803.0</ele><time>2026-05-02T17:39:15.414Z</time></trkpt><trkpt lat="32.2726956" lon="-110.7822331"><ele>801.0</ele><time>2026-05-02T17:39:16.413Z</time></trkpt><trkpt lat="32.27255" lon="-110.7824311"><ele>801.0</ele><time>2026-05-02T17:39:17.413Z</time></trkpt><trkpt lat="32.2724064" lon="-110.7826309"><ele>801.0</ele><time>2026-05-02T17:39:18.413Z</time></trkpt><trkpt lat="32.2722653" lon="-110.7828301"><ele>801.0</ele><time>2026-05-02T17:39:19.413Z</time></trkpt><trkpt lat="32.2721218" lon="-110.7830276"><ele>799.6666666666667</ele><time>2026-05-02T17:39:20.414Z</time></trkpt><trkpt lat="32.2719786" lon="-110.7832237"><ele>798.3333333333334</ele><time>2026-05-02T17:39:21.414Z</time></trkpt><trkpt lat="32.2718353" lon="-110.7834205"><ele>797.0</ele><time>2026-05-02T17:39:22.413Z</time></trkpt><trkpt lat="32.2716906" lon="-110.7836188"><ele>797.0</ele><time>2026-05-02T17:39:23.414Z</time></trkpt><trkpt lat="32.2715466" lon="-110.7838178"><ele>797.0</ele><time>2026-05-02T17:39:24.414Z</time></trkpt><trkpt lat="32.2714016" lon="-110.7840163"><ele>797.0</ele><time>2026-05-02T17:39:25.414Z</time></trkpt><trkpt lat="32.2712569" lon="-110.7842143"><ele>795.6666666666667</ele><time>2026-05-02T17:39:26.414Z</time></trkpt><trkpt lat="32.271113" lon="-110.7844129"><ele>794.3333333333333</ele><time>2026-05-02T17:39:27.414Z</time></trkpt><trkpt lat="32.2709704" lon="-110.784613"><ele>793.0</ele><time>2026-05-02T17:39:28.413Z</time></trkpt><trkpt lat="32.2708284" lon="-110.7848126"><ele>793.0</ele><time>2026-05-02T17:39:29.414Z</time></trkpt><trkpt lat="32.2706842" lon="-110.7850143"><ele>793.0</ele><time>2026-05-02T17:39:30.414Z</time></trkpt><trkpt lat="32.2705379" lon="-110.7852143"><ele>793.0</ele><time>2026-05-02T17:39:31.414Z</time></trkpt><trkpt lat="32.2703939" lon="-110.7854152"><ele>796.5</ele><time>2026-05-02T17:39:32.414Z</time></trkpt><trkpt lat="32.2702462" lon="-110.7856175"><ele>800.0</ele><time>2026-05-02T17:39:33.414Z</time></trkpt><trkpt lat="32.2700986" lon="-110.7858213"><ele>799.0</ele><time>2026-05-02T17:39:34.413Z</time></trkpt><trkpt lat="32.2699507" lon="-110.7860255"><ele>798.0</ele><time>2026-05-02T17:39:35.415Z</time></trkpt><trkpt lat="32.2698015" lon="-110.7862274"><ele>799.6666666666667</ele><time>2026-05-02T17:39:36.415Z</time></trkpt><trkpt lat="32.2696555" lon="-110.7864277"><ele>801.3333333333334</ele><time>2026-05-02T17:39:37.414Z</time></trkpt><trkpt lat="32.269507" lon="-110.7866191"><ele>803.0</ele><time>2026-05-02T17:39:38.413Z</time></trkpt><trkpt lat="32.2693654" lon="-110.7868117"><ele>801.3333333333334</ele><time>2026-05-02T17:39:39.415Z</time></trkpt><trkpt lat="32.2692256" lon="-110.7870006"><ele>799.6666666666667</ele><time>2026-05-02T17:39:40.414Z</time></trkpt><trkpt lat="32.2690888" lon="-110.7871903"><ele>798.0</ele><time>2026-05-02T17:39:41.415Z</time></trkpt><trkpt lat="32.2689489" lon="-110.7873794"><ele>798.0</ele><time>2026-05-02T17:39:42.414Z</time></trkpt><trkpt lat="32.2688098" lon="-110.7875715"><ele>798.0</ele><time>2026-05-02T17:39:43.415Z</time></trkpt><trkpt lat="32.2686687" lon="-110.7877701"><ele>798.0</ele><time>2026-05-02T17:39:44.414Z</time></trkpt><trkpt lat="32.2685225" lon="-110.7879732"><ele>798.0</ele><time>2026-05-02T17:39:45.413Z</time></trkpt><trkpt lat="32.2683765" lon="-110.7881769"><ele>798.0</ele><time>2026-05-02T17:39:46.413Z</time></trkpt><trkpt lat="32.2682288" lon="-110.788384"><ele>795.5</ele><time>2026-05-02T17:39:47.413Z</time></trkpt><trkpt lat="32.2680797" lon="-110.7885877"><ele>793.0</ele><time>2026-05-02T17:39:48.415Z</time></trkpt><trkpt lat="32.2679302" lon="-110.7887929"><ele>793.0</ele><time>2026-05-02T17:39:49.415Z</time></trkpt><trkpt lat="32.2677809" lon="-110.7889973"><ele>793.0</ele><time>2026-05-02T17:39:50.414Z</time></trkpt><trkpt lat="32.2676318" lon="-110.7891972"><ele>793.0</ele><time>2026-05-02T17:39:51.415Z</time></trkpt><trkpt lat="32.2674857" lon="-110.7893951"><ele>793.0</ele><time>2026-05-02T17:39:52.414Z</time></trkpt><trkpt lat="32.2673415" lon="-110.7895926"><ele>793.0</ele><time>2026-05-02T17:39:53.414Z</time></trkpt><trkpt lat="32.267198" lon="-110.7897864"><ele>793.0</ele><time>2026-05-02T17:39:54.414Z</time></trkpt><trkpt lat="32.2670577" lon="-110.7899826"><ele>793.0</ele><time>2026-05-02T17:39:55.414Z</time></trkpt><trkpt lat="32.2669164" lon="-110.7901795"><ele>793.0</ele><time>2026-05-02T17:39:56.414Z</time></trkpt><trkpt lat="32.2667747" lon="-110.7903767"><ele>792.3333333333333</ele><time>2026-05-02T17:39:57.414Z</time></trkpt><trkpt lat="32.2666323" lon="-110.7905724"><ele>791.6666666666667</ele><time>2026-05-02T17:39:58.414Z</time></trkpt><trkpt lat="32.2664904" lon="-110.7907697"><ele>791.0</ele><time>2026-05-02T17:39:59.415Z</time></trkpt><trkpt lat="32.2663488" lon="-110.790968"><ele>790.6666666666667</ele><time>2026-05-02T17:40:00.413Z</time></trkpt><trkpt lat="32.2662061" lon="-110.7911653"><ele>790.3333333333333</ele><time>2026-05-02T17:40:01.414Z</time></trkpt><trkpt lat="32.2660628" lon="-110.7913637"><ele>790.0</ele><time>2026-05-02T17:40:02.414Z</time></trkpt><trkpt lat="32.2659189" lon="-110.791565"><ele>790.0</ele><time>2026-05-02T17:40:03.414Z</time></trkpt><trkpt lat="32.2657777" lon="-110.7917655"><ele>790.0</ele><time>2026-05-02T17:40:04.414Z</time></trkpt><trkpt lat="32.2656342" lon="-110.791959"><ele>790.0</ele><time>2026-05-02T17:40:05.414Z</time></trkpt><trkpt lat="32.2654935" lon="-110.7921542"><ele>790.0</ele><time>2026-05-02T17:40:06.414Z</time></trkpt><trkpt lat="32.2653535" lon="-110.7923461"><ele>790.0</ele><time>2026-05-02T17:40:07.415Z</time></trkpt><trkpt lat="32.2652141" lon="-110.7925356"><ele>790.0</ele><time>2026-05-02T17:40:08.414Z</time></trkpt><trkpt lat="32.2650721" lon="-110.7927308"><ele>789.3333333333333</ele><time>2026-05-02T17:40:09.414Z</time></trkpt><trkpt lat="32.2649302" lon="-110.7929295"><ele>788.6666666666667</ele><time>2026-05-02T17:40:10.415Z</time></trkpt><trkpt lat="32.2647894" lon="-110.7931263"><ele>788.0</ele><time>2026-05-02T17:40:11.414Z</time></trkpt><trkpt lat="32.2646479" lon="-110.7933214"><ele>787.0</ele><time>2026-05-02T17:40:12.415Z</time></trkpt><trkpt lat="32.2645041" lon="-110.7935143"><ele>786.0</ele><time>2026-05-02T17:40:13.414Z</time></trkpt><trkpt lat="32.2643613" lon="-110.7937047"><ele>785.0</ele><time>2026-05-02T17:40:14.414Z</time></trkpt><trkpt lat="32.2642228" lon="-110.7939003"><ele>785.0</ele><time>2026-05-02T17:40:15.414Z</time></trkpt><trkpt lat="32.2640841" lon="-110.7940947"><ele>785.0</ele><time>2026-05-02T17:40:16.415Z</time></trkpt><trkpt lat="32.2639436" lon="-110.7942875"><ele>785.0</ele><time>2026-05-02T17:40:17.414Z</time></trkpt><trkpt lat="32.2638048" lon="-110.7944818"><ele>784.6666666666667</ele><time>2026-05-02T17:40:18.414Z</time></trkpt><trkpt lat="32.2636631" lon="-110.7946787"><ele>784.3333333333333</ele><time>2026-05-02T17:40:19.414Z</time></trkpt><trkpt lat="32.2635226" lon="-110.7948781"><ele>784.0</ele><time>2026-05-02T17:40:20.415Z</time></trkpt><trkpt lat="32.2633792" lon="-110.7950772"><ele>784.0</ele><time>2026-05-02T17:40:21.414Z</time></trkpt><trkpt lat="32.2632373" lon="-110.7952729"><ele>784.0</ele><time>2026-05-02T17:40:22.415Z</time></trkpt><trkpt lat="32.2630945" lon="-110.7954699"><ele>784.0</ele><time>2026-05-02T17:40:23.414Z</time></trkpt><trkpt lat="32.2629552" lon="-110.7956642"><ele>784.0</ele><time>2026-05-02T17:40:24.415Z</time></trkpt><trkpt lat="32.2628196" lon="-110.7958552"><ele>784.0</ele><time>2026-05-02T17:40:25.415Z</time></trkpt><trkpt lat="32.2626896" lon="-110.7960409"><ele>784.0</ele><time>2026-05-02T17:40:26.414Z</time></trkpt><trkpt lat="32.2625614" lon="-110.7962248"><ele>784.6666666666666</ele><time>2026-05-02T17:40:27.415Z</time></trkpt><trkpt lat="32.2624329" lon="-110.7964098"><ele>785.3333333333333</ele><time>2026-05-02T17:40:28.414Z</time></trkpt><trkpt lat="32.2623017" lon="-110.7965942"><ele>786.0</ele><time>2026-05-02T17:40:29.414Z</time></trkpt><trkpt lat="32.2621738" lon="-110.7967774"><ele>785.3333333333333</ele><time>2026-05-02T17:40:30.414Z</time></trkpt><trkpt lat="32.2620487" lon="-110.7969579"><ele>784.6666666666666</ele><time>2026-05-02T17:40:31.414Z</time></trkpt><trkpt lat="32.2619178" lon="-110.797137"><ele>784.0</ele><time>2026-05-02T17:40:32.415Z</time></trkpt><trkpt lat="32.2617819" lon="-110.7973133"><ele>784.0</ele><time>2026-05-02T17:40:33.415Z</time></trkpt><trkpt lat="32.2616419" lon="-110.7974897"><ele>784.0</ele><time>2026-05-02T17:40:34.414Z</time></trkpt><trkpt lat="32.261495" lon="-110.7976589"><ele>784.0</ele><time>2026-05-02T17:40:35.415Z</time></trkpt><trkpt lat="32.261335" lon="-110.7978085"><ele>783.3333333333333</ele><time>2026-05-02T17:40:36.414Z</time></trkpt><trkpt lat="32.2611691" lon="-110.7979541"><ele>782.6666666666667</ele><time>2026-05-02T17:40:37.415Z</time></trkpt><trkpt lat="32.2610094" lon="-110.7980811"><ele>782.0</ele><time>2026-05-02T17:40:38.414Z</time></trkpt><trkpt lat="32.2608446" lon="-110.7981908"><ele>782.0</ele><time>2026-05-02T17:40:39.414Z</time></trkpt><trkpt lat="32.2606873" lon="-110.7982963"><ele>782.0</ele><time>2026-05-02T17:40:40.415Z</time></trkpt><trkpt lat="32.2605327" lon="-110.7983955"><ele>782.0</ele><time>2026-05-02T17:40:41.414Z</time></trkpt><trkpt lat="32.2603827" lon="-110.7984846"><ele>781.3333333333334</ele><time>2026-05-02T17:40:42.414Z</time></trkpt><trkpt lat="32.2602278" lon="-110.7985661"><ele>780.6666666666667</ele><time>2026-05-02T17:40:43.415Z</time></trkpt><trkpt lat="32.2600699" lon="-110.7986379"><ele>780.0</ele><time>2026-05-02T17:40:44.414Z</time></trkpt><trkpt lat="32.2599133" lon="-110.7987056"><ele>780.0</ele><time>2026-05-02T17:40:45.414Z</time></trkpt><trkpt lat="32.2597523" lon="-110.7987643"><ele>780.0</ele><time>2026-05-02T17:40:46.414Z</time></trkpt><trkpt lat="32.2595933" lon="-110.7988115"><ele>780.0</ele><time>2026-05-02T17:40:47.414Z</time></trkpt><trkpt lat="32.259436" lon="-110.7988556"><ele>780.0</ele><time>2026-05-02T17:40:48.415Z</time></trkpt><trkpt lat="32.2592852" lon="-110.7988891"><ele>780.0</ele><time>2026-05-02T17:40:49.414Z</time></trkpt><trkpt lat="32.259141" lon="-110.7989177"><ele>780.0</ele><time>2026-05-02T17:40:50.415Z</time></trkpt><trkpt lat="32.259007" lon="-110.7989416"><ele>780.0</ele><time>2026-05-02T17:40:51.414Z</time></trkpt><trkpt lat="32.2588819" lon="-110.7989647"><ele>779.2</ele><time>2026-05-02T17:40:52.414Z</time></trkpt><trkpt lat="32.2587622" lon="-110.7989871"><ele>778.4</ele><time>2026-05-02T17:40:53.415Z</time></trkpt><trkpt lat="32.2586486" lon="-110.7990093"><ele>777.5999999999999</ele><time>2026-05-02T17:40:54.415Z</time></trkpt><trkpt lat="32.2585421" lon="-110.7990304"><ele>776.8</ele><time>2026-05-02T17:40:55.415Z</time></trkpt><trkpt lat="32.2584465" lon="-110.7990491"><ele>776.0</ele><time>2026-05-02T17:40:56.415Z</time></trkpt><trkpt lat="32.2583635" lon="-110.7990667"><ele>776.0</ele><time>2026-05-02T17:40:57.414Z</time></trkpt><trkpt lat="32.2582931" lon="-110.7990856"><ele>776.0</ele><time>2026-05-02T17:40:58.414Z</time></trkpt><trkpt lat="32.2581867" lon="-110.7991448"><ele>776.0</ele><time>2026-05-02T17:41:00.414Z</time></trkpt><trkpt lat="32.2581235" lon="-110.7992645"><ele>776.0</ele><time>2026-05-02T17:41:02.414Z</time></trkpt><trkpt lat="32.2581123" lon="-110.7993481"><ele>776.0</ele><time>2026-05-02T17:41:03.414Z</time></trkpt><trkpt lat="32.2581157" lon="-110.7994583"><ele>776.25</ele><time>2026-05-02T17:41:04.414Z</time></trkpt><trkpt lat="32.2581319" lon="-110.7996057"><ele>776.5</ele><time>2026-05-02T17:41:05.415Z</time></trkpt><trkpt lat="32.258148" lon="-110.7997708"><ele>776.75</ele><time>2026-05-02T17:41:06.414Z</time></trkpt><trkpt lat="32.2581602" lon="-110.7999594"><ele>777.0</ele><time>2026-05-02T17:41:07.414Z</time></trkpt><trkpt lat="32.2581692" lon="-110.800161"><ele>777.6666666666667</ele><time>2026-05-02T17:41:08.415Z</time></trkpt><trkpt lat="32.258176" lon="-110.8003688"><ele>778.3333333333334</ele><time>2026-05-02T17:41:09.415Z</time></trkpt><trkpt lat="32.2581792" lon="-110.8005751"><ele>779.0</ele><time>2026-05-02T17:41:10.414Z</time></trkpt><trkpt lat="32.2581808" lon="-110.8007721"><ele>779.0</ele><time>2026-05-02T17:41:11.414Z</time></trkpt><trkpt lat="32.2581803" lon="-110.8009536"><ele>779.0</ele><time>2026-05-02T17:41:12.416Z</time></trkpt><trkpt lat="32.2581793" lon="-110.8011261"><ele>779.0</ele><time>2026-05-02T17:41:13.414Z</time></trkpt><trkpt lat="32.2581793" lon="-110.8012892"><ele>779.0</ele><time>2026-05-02T17:41:14.414Z</time></trkpt><trkpt lat="32.2581798" lon="-110.8014416"><ele>779.0</ele><time>2026-05-02T17:41:15.416Z</time></trkpt><trkpt lat="32.2581797" lon="-110.8015803"><ele>779.0</ele><time>2026-05-02T17:41:16.414Z</time></trkpt><trkpt lat="32.2581803" lon="-110.8016973"><ele>779.0</ele><time>2026-05-02T17:41:17.415Z</time></trkpt><trkpt lat="32.2581812" lon="-110.8017913"><ele>779.0</ele><time>2026-05-02T17:41:18.416Z</time></trkpt><trkpt lat="32.258183" lon="-110.8019016"><ele>779.0</ele><time>2026-05-02T17:41:20.415Z</time></trkpt><trkpt lat="32.2581842" lon="-110.802049"><ele>779.0</ele><time>2026-05-02T17:41:55.415Z</time></trkpt><trkpt lat="32.2581856" lon="-110.8021679"><ele>779.0</ele><time>2026-05-02T17:41:56.415Z</time></trkpt><trkpt lat="32.2581841" lon="-110.8023155"><ele>779.0</ele><time>2026-05-02T17:41:57.416Z</time></trkpt><trkpt lat="32.2581812" lon="-110.8024632"><ele>779.0</ele><time>2026-05-02T17:41:58.415Z</time></trkpt><trkpt lat="32.2581779" lon="-110.802629"><ele>778.25</ele><time>2026-05-02T17:41:59.416Z</time></trkpt><trkpt lat="32.2581818" lon="-110.8028084"><ele>777.5</ele><time>2026-05-02T17:42:00.416Z</time></trkpt><trkpt lat="32.2581838" lon="-110.8029804"><ele>776.75</ele><time>2026-05-02T17:42:01.416Z</time></trkpt><trkpt lat="32.2581842" lon="-110.8031481"><ele>776.0</ele><time>2026-05-02T17:42:02.416Z</time></trkpt><trkpt lat="32.2581838" lon="-110.8033105"><ele>776.0</ele><time>2026-05-02T17:42:03.416Z</time></trkpt><trkpt lat="32.2581831" lon="-110.8034715"><ele>776.0</ele><time>2026-05-02T17:42:04.415Z</time></trkpt><trkpt lat="32.2581826" lon="-110.8036339"><ele>776.0</ele><time>2026-05-02T17:42:05.415Z</time></trkpt><trkpt lat="32.2581813" lon="-110.803798"><ele>776.0</ele><time>2026-05-02T17:42:06.416Z</time></trkpt><trkpt lat="32.2581789" lon="-110.8039638"><ele>775.5</ele><time>2026-05-02T17:42:07.415Z</time></trkpt><trkpt lat="32.2581767" lon="-110.8041271"><ele>775.0</ele><time>2026-05-02T17:42:08.415Z</time></trkpt><trkpt lat="32.2581742" lon="-110.8042874"><ele>774.5</ele><time>2026-05-02T17:42:09.415Z</time></trkpt><trkpt lat="32.2581728" lon="-110.8044446"><ele>774.0</ele><time>2026-05-02T17:42:10.416Z</time></trkpt><trkpt lat="32.2581716" lon="-110.8046063"><ele>773.75</ele><time>2026-05-02T17:42:11.416Z</time></trkpt><trkpt lat="32.2581695" lon="-110.8047692"><ele>773.5</ele><time>2026-05-02T17:42:12.415Z</time></trkpt><trkpt lat="32.2581665" lon="-110.8049334"><ele>773.25</ele><time>2026-05-02T17:42:13.416Z</time></trkpt><trkpt lat="32.2581617" lon="-110.8051005"><ele>773.0</ele><time>2026-05-02T17:42:14.415Z</time></trkpt><trkpt lat="32.2581579" lon="-110.8052632"><ele>772.6666666666667</ele><time>2026-05-02T17:42:15.415Z</time></trkpt><trkpt lat="32.2581549" lon="-110.8054208"><ele>772.3333333333333</ele><time>2026-05-02T17:42:16.416Z</time></trkpt><trkpt lat="32.2581522" lon="-110.8057319"><ele>772.0</ele><time>2026-05-02T17:42:18.415Z</time></trkpt><trkpt lat="32.2581518" lon="-110.8058925"><ele>772.25</ele><time>2026-05-02T17:42:19.415Z</time></trkpt><trkpt lat="32.2581495" lon="-110.8060535"><ele>772.5</ele><time>2026-05-02T17:42:20.416Z</time></trkpt><trkpt lat="32.2581479" lon="-110.8062176"><ele>772.75</ele><time>2026-05-02T17:42:21.415Z</time></trkpt><trkpt lat="32.2581473" lon="-110.8063824"><ele>773.0</ele><time>2026-05-02T17:42:22.416Z</time></trkpt><trkpt lat="32.2581468" lon="-110.806548"><ele>773.0</ele><time>2026-05-02T17:42:23.416Z</time></trkpt><trkpt lat="32.2581461" lon="-110.8067134"><ele>773.0</ele><time>2026-05-02T17:42:24.415Z</time></trkpt><trkpt lat="32.2581451" lon="-110.8068786"><ele>773.0</ele><time>2026-05-02T17:42:25.415Z</time></trkpt><trkpt lat="32.2581441" lon="-110.8070422"><ele>773.0</ele><time>2026-05-02T17:42:26.415Z</time></trkpt><trkpt lat="32.2581434" lon="-110.8072029"><ele>773.0</ele><time>2026-05-02T17:42:27.415Z</time></trkpt><trkpt lat="32.2581431" lon="-110.8073611"><ele>773.0</ele><time>2026-05-02T17:42:28.416Z</time></trkpt><trkpt lat="32.2581429" lon="-110.8075184"><ele>773.0</ele><time>2026-05-02T17:42:29.416Z</time></trkpt><trkpt lat="32.2581432" lon="-110.807675"><ele>773.0</ele><time>2026-05-02T17:42:30.416Z</time></trkpt><trkpt lat="32.2581446" lon="-110.8078305"><ele>772.75</ele><time>2026-05-02T17:42:31.415Z</time></trkpt><trkpt lat="32.258146" lon="-110.8079836"><ele>772.5</ele><time>2026-05-02T17:42:32.415Z</time></trkpt><trkpt lat="32.2581462" lon="-110.8081306"><ele>772.25</ele><time>2026-05-02T17:42:33.416Z</time></trkpt><trkpt lat="32.2581455" lon="-110.8082717"><ele>772.0</ele><time>2026-05-02T17:42:34.415Z</time></trkpt><trkpt lat="32.258145" lon="-110.8084143"><ele>771.5</ele><time>2026-05-02T17:42:35.416Z</time></trkpt><trkpt lat="32.2581448" lon="-110.8085662"><ele>771.0</ele><time>2026-05-02T17:42:36.415Z</time></trkpt><trkpt lat="32.2581443" lon="-110.8087277"><ele>770.5</ele><time>2026-05-02T17:42:37.416Z</time></trkpt><trkpt lat="32.2581436" lon="-110.8088929"><ele>770.0</ele><time>2026-05-02T17:42:38.415Z</time></trkpt><trkpt lat="32.2581437" lon="-110.809056"><ele>770.0</ele><time>2026-05-02T17:42:39.415Z</time></trkpt><trkpt lat="32.2581437" lon="-110.8092179"><ele>770.0</ele><time>2026-05-02T17:42:40.416Z</time></trkpt><trkpt lat="32.2581435" lon="-110.8093778"><ele>770.0</ele><time>2026-05-02T17:42:41.415Z</time></trkpt><trkpt lat="32.2581434" lon="-110.8095375"><ele>770.0</ele><time>2026-05-02T17:42:42.415Z</time></trkpt><trkpt lat="32.2581435" lon="-110.8096988"><ele>769.5</ele><time>2026-05-02T17:42:43.415Z</time></trkpt><trkpt lat="32.2581439" lon="-110.809861"><ele>769.0</ele><time>2026-05-02T17:42:44.417Z</time></trkpt><trkpt lat="32.2581442" lon="-110.8100269"><ele>768.5</ele><time>2026-05-02T17:42:45.415Z</time></trkpt><trkpt lat="32.2581442" lon="-110.8101962"><ele>768.0</ele><time>2026-05-02T17:42:46.416Z</time></trkpt><trkpt lat="32.258144" lon="-110.8103722"><ele>768.0</ele><time>2026-05-02T17:42:47.416Z</time></trkpt><trkpt lat="32.258144" lon="-110.8105574"><ele>768.0</ele><time>2026-05-02T17:42:48.415Z</time></trkpt><trkpt lat="32.258144" lon="-110.810745"><ele>768.0</ele><time>2026-05-02T17:42:49.415Z</time></trkpt><trkpt lat="32.2581445" lon="-110.8109347"><ele>767.0</ele><time>2026-05-02T17:42:50.416Z</time></trkpt><trkpt lat="32.2581447" lon="-110.8111202"><ele>766.0</ele><time>2026-05-02T17:42:51.415Z</time></trkpt><trkpt lat="32.2581441" lon="-110.8113044"><ele>765.0</ele><time>2026-05-02T17:42:52.415Z</time></trkpt><trkpt lat="32.2581436" lon="-110.8114974"><ele>765.0</ele><time>2026-05-02T17:42:53.415Z</time></trkpt><trkpt lat="32.258143" lon="-110.8116891"><ele>765.0</ele><time>2026-05-02T17:42:54.416Z</time></trkpt><trkpt lat="32.2581434" lon="-110.8118842"><ele>765.0</ele><time>2026-05-02T17:42:55.415Z</time></trkpt><trkpt lat="32.2581434" lon="-110.812085"><ele>765.0</ele><time>2026-05-02T17:42:56.415Z</time></trkpt><trkpt lat="32.2581437" lon="-110.8122873"><ele>765.0</ele><time>2026-05-02T17:42:57.416Z</time></trkpt><trkpt lat="32.2581435" lon="-110.8124851"><ele>765.0</ele><time>2026-05-02T17:42:58.416Z</time></trkpt><trkpt lat="32.2581432" lon="-110.8126814"><ele>764.3333333333334</ele><time>2026-05-02T17:42:59.416Z</time></trkpt><trkpt lat="32.258143" lon="-110.8128782"><ele>763.6666666666667</ele><time>2026-05-02T17:43:00.415Z</time></trkpt><trkpt lat="32.2581429" lon="-110.8130776"><ele>763.0</ele><time>2026-05-02T17:43:01.416Z</time></trkpt><trkpt lat="32.2581432" lon="-110.81328"><ele>763.0</ele><time>2026-05-02T17:43:02.416Z</time></trkpt><trkpt lat="32.2581428" lon="-110.8134775"><ele>763.0</ele><time>2026-05-02T17:43:03.415Z</time></trkpt><trkpt lat="32.2581401" lon="-110.813671"><ele>763.0</ele><time>2026-05-02T17:43:04.416Z</time></trkpt><trkpt lat="32.2581407" lon="-110.8138622"><ele>763.6666666666667</ele><time>2026-05-02T17:43:05.415Z</time></trkpt><trkpt lat="32.2581393" lon="-110.8140566"><ele>764.3333333333334</ele><time>2026-05-02T17:43:06.415Z</time></trkpt><trkpt lat="32.2581378" lon="-110.8142561"><ele>765.0</ele><time>2026-05-02T17:43:07.417Z</time></trkpt><trkpt lat="32.2581393" lon="-110.8144602"><ele>765.3333333333334</ele><time>2026-05-02T17:43:08.415Z</time></trkpt><trkpt lat="32.2581401" lon="-110.8146683"><ele>765.6666666666667</ele><time>2026-05-02T17:43:09.415Z</time></trkpt><trkpt lat="32.2581396" lon="-110.8148862"><ele>766.0</ele><time>2026-05-02T17:43:10.415Z</time></trkpt><trkpt lat="32.2581384" lon="-110.815104"><ele>765.6666666666667</ele><time>2026-05-02T17:43:11.415Z</time></trkpt><trkpt lat="32.2581403" lon="-110.8153161"><ele>765.3333333333334</ele><time>2026-05-02T17:43:12.417Z</time></trkpt><trkpt lat="32.2581414" lon="-110.8155303"><ele>765.0</ele><time>2026-05-02T17:43:13.417Z</time></trkpt><trkpt lat="32.2581388" lon="-110.8157399"><ele>765.0</ele><time>2026-05-02T17:43:14.415Z</time></trkpt><trkpt lat="32.2581371" lon="-110.8159572"><ele>765.0</ele><time>2026-05-02T17:43:15.415Z</time></trkpt><trkpt lat="32.2581417" lon="-110.8161754"><ele>765.0</ele><time>2026-05-02T17:43:16.416Z</time></trkpt><trkpt lat="32.2581429" lon="-110.816397"><ele>764.6666666666666</ele><time>2026-05-02T17:43:17.416Z</time></trkpt><trkpt lat="32.2581432" lon="-110.816615"><ele>764.3333333333333</ele><time>2026-05-02T17:43:18.415Z</time></trkpt><trkpt lat="32.2581459" lon="-110.816832"><ele>764.0</ele><time>2026-05-02T17:43:19.415Z</time></trkpt><trkpt lat="32.258144" lon="-110.8170443"><ele>764.0</ele><time>2026-05-02T17:43:20.416Z</time></trkpt><trkpt lat="32.2581405" lon="-110.8172587"><ele>764.0</ele><time>2026-05-02T17:43:21.416Z</time></trkpt><trkpt lat="32.2581261" lon="-110.8174765"><ele>764.0</ele><time>2026-05-02T17:43:22.416Z</time></trkpt><trkpt lat="32.2581074" lon="-110.8176972"><ele>764.3333333333333</ele><time>2026-05-02T17:43:23.416Z</time></trkpt><trkpt lat="32.2580711" lon="-110.8179259"><ele>764.6666666666666</ele><time>2026-05-02T17:43:24.417Z</time></trkpt><trkpt lat="32.2580265" lon="-110.8181488"><ele>765.0</ele><time>2026-05-02T17:43:25.415Z</time></trkpt><trkpt lat="32.2579709" lon="-110.8183634"><ele>765.0</ele><time>2026-05-02T17:43:26.415Z</time></trkpt><trkpt lat="32.2579049" lon="-110.8185699"><ele>765.0</ele><time>2026-05-02T17:43:27.416Z</time></trkpt><trkpt lat="32.2578354" lon="-110.8187625"><ele>765.0</ele><time>2026-05-02T17:43:28.415Z</time></trkpt><trkpt lat="32.2577514" lon="-110.8189496"><ele>765.0</ele><time>2026-05-02T17:43:29.416Z</time></trkpt><trkpt lat="32.2576603" lon="-110.819135"><ele>765.0</ele><time>2026-05-02T17:43:30.415Z</time></trkpt><trkpt lat="32.257557" lon="-110.8193135"><ele>765.0</ele><time>2026-05-02T17:43:31.416Z</time></trkpt><trkpt lat="32.2574475" lon="-110.8194867"><ele>764.6666666666666</ele><time>2026-05-02T17:43:32.415Z</time></trkpt><trkpt lat="32.2573253" lon="-110.8196562"><ele>764.3333333333333</ele><time>2026-05-02T17:43:33.416Z</time></trkpt><trkpt lat="32.2571979" lon="-110.8198225"><ele>764.0</ele><time>2026-05-02T17:43:34.416Z</time></trkpt><trkpt lat="32.2570638" lon="-110.8199769"><ele>763.6666666666666</ele><time>2026-05-02T17:43:35.416Z</time></trkpt><trkpt lat="32.2569188" lon="-110.8201219"><ele>763.3333333333334</ele><time>2026-05-02T17:43:36.417Z</time></trkpt><trkpt lat="32.2567686" lon="-110.8202706"><ele>763.0</ele><time>2026-05-02T17:43:37.416Z</time></trkpt><trkpt lat="32.2566195" lon="-110.8204306"><ele>762.3333333333334</ele><time>2026-05-02T17:43:38.416Z</time></trkpt><trkpt lat="32.2564584" lon="-110.8205854"><ele>761.6666666666666</ele><time>2026-05-02T17:43:39.416Z</time></trkpt><trkpt lat="32.2562975" lon="-110.8207506"><ele>761.0</ele><time>2026-05-02T17:43:40.416Z</time></trkpt><trkpt lat="32.2561314" lon="-110.820909"><ele>761.3333333333333</ele><time>2026-05-02T17:43:41.416Z</time></trkpt><trkpt lat="32.255967" lon="-110.8210666"><ele>761.6666666666666</ele><time>2026-05-02T17:43:42.417Z</time></trkpt><trkpt lat="32.2558013" lon="-110.8212274"><ele>762.0</ele><time>2026-05-02T17:43:43.416Z</time></trkpt><trkpt lat="32.2556318" lon="-110.8213928"><ele>762.3333333333334</ele><time>2026-05-02T17:43:44.417Z</time></trkpt><trkpt lat="32.2554601" lon="-110.821563"><ele>762.6666666666667</ele><time>2026-05-02T17:43:45.417Z</time></trkpt><trkpt lat="32.2552879" lon="-110.8217331"><ele>763.0</ele><time>2026-05-02T17:43:46.416Z</time></trkpt><trkpt lat="32.2551158" lon="-110.8219048"><ele>763.5</ele><time>2026-05-02T17:43:47.417Z</time></trkpt><trkpt lat="32.2549422" lon="-110.8220747"><ele>764.0</ele><time>2026-05-02T17:43:48.417Z</time></trkpt><trkpt lat="32.2547711" lon="-110.8222464"><ele>764.0</ele><time>2026-05-02T17:43:49.417Z</time></trkpt><trkpt lat="32.2545988" lon="-110.8224178"><ele>764.0</ele><time>2026-05-02T17:43:50.416Z</time></trkpt><trkpt lat="32.2544301" lon="-110.8225862"><ele>764.0</ele><time>2026-05-02T17:43:51.416Z</time></trkpt><trkpt lat="32.2542663" lon="-110.8227533"><ele>763.6666666666666</ele><time>2026-05-02T17:43:52.416Z</time></trkpt><trkpt lat="32.2540988" lon="-110.8229257"><ele>763.3333333333334</ele><time>2026-05-02T17:43:53.417Z</time></trkpt><trkpt lat="32.253933" lon="-110.8230932"><ele>763.0</ele><time>2026-05-02T17:43:54.417Z</time></trkpt><trkpt lat="32.2537628" lon="-110.8232596"><ele>763.6666666666667</ele><time>2026-05-02T17:43:55.416Z</time></trkpt><trkpt lat="32.2535961" lon="-110.8234284"><ele>764.3333333333334</ele><time>2026-05-02T17:43:56.417Z</time></trkpt><trkpt lat="32.2534274" lon="-110.8235928"><ele>765.0</ele><time>2026-05-02T17:43:57.416Z</time></trkpt><trkpt lat="32.2532522" lon="-110.8237579"><ele>766.3333333333333</ele><time>2026-05-02T17:43:58.416Z</time></trkpt><trkpt lat="32.2530823" lon="-110.8239328"><ele>767.6666666666666</ele><time>2026-05-02T17:43:59.416Z</time></trkpt><trkpt lat="32.2529153" lon="-110.8241053"><ele>769.0</ele><time>2026-05-02T17:44:00.417Z</time></trkpt><trkpt lat="32.2527432" lon="-110.8242692"><ele>768.6666666666666</ele><time>2026-05-02T17:44:01.417Z</time></trkpt><trkpt lat="32.252578" lon="-110.8244344"><ele>768.3333333333333</ele><time>2026-05-02T17:44:02.416Z</time></trkpt><trkpt lat="32.2524108" lon="-110.824601"><ele>768.0</ele><time>2026-05-02T17:44:03.416Z</time></trkpt><trkpt lat="32.2522502" lon="-110.8247669"><ele>768.0</ele><time>2026-05-02T17:44:04.416Z</time></trkpt><trkpt lat="32.2520927" lon="-110.8249287"><ele>768.0</ele><time>2026-05-02T17:44:05.416Z</time></trkpt><trkpt lat="32.2519427" lon="-110.8250986"><ele>768.0</ele><time>2026-05-02T17:44:06.416Z</time></trkpt><trkpt lat="32.2518078" lon="-110.8252775"><ele>768.0</ele><time>2026-05-02T17:44:07.416Z</time></trkpt><trkpt lat="32.2516855" lon="-110.8254686"><ele>768.0</ele><time>2026-05-02T17:44:08.417Z</time></trkpt><trkpt lat="32.2515651" lon="-110.8256771"><ele>768.0</ele><time>2026-05-02T17:44:09.417Z</time></trkpt><trkpt lat="32.2514506" lon="-110.8258864"><ele>768.0</ele><time>2026-05-02T17:44:10.417Z</time></trkpt><trkpt lat="32.2513459" lon="-110.8261012"><ele>768.0</ele><time>2026-05-02T17:44:11.416Z</time></trkpt><trkpt lat="32.2512482" lon="-110.8263227"><ele>768.0</ele><time>2026-05-02T17:44:12.417Z</time></trkpt><trkpt lat="32.2511613" lon="-110.8265607"><ele>768.0</ele><time>2026-05-02T17:44:13.416Z</time></trkpt><trkpt lat="32.251085" lon="-110.8268007"><ele>768.0</ele><time>2026-05-02T17:44:14.416Z</time></trkpt><trkpt lat="32.2510212" lon="-110.8270388"><ele>768.0</ele><time>2026-05-02T17:44:15.416Z</time></trkpt><trkpt lat="32.2509702" lon="-110.8272847"><ele>767.6666666666666</ele><time>2026-05-02T17:44:16.417Z</time></trkpt><trkpt lat="32.2509263" lon="-110.8275328"><ele>767.3333333333333</ele><time>2026-05-02T17:44:17.416Z</time></trkpt><trkpt lat="32.250901" lon="-110.8277827"><ele>767.0</ele><time>2026-05-02T17:44:18.417Z</time></trkpt><trkpt lat="32.2508795" lon="-110.8280158"><ele>766.6666666666666</ele><time>2026-05-02T17:44:19.417Z</time></trkpt><trkpt lat="32.2508698" lon="-110.8282392"><ele>766.3333333333334</ele><time>2026-05-02T17:44:20.416Z</time></trkpt><trkpt lat="32.2508635" lon="-110.8284535"><ele>766.0</ele><time>2026-05-02T17:44:21.417Z</time></trkpt><trkpt lat="32.2508614" lon="-110.8286522"><ele>767.25</ele><time>2026-05-02T17:44:22.416Z</time></trkpt><trkpt lat="32.2508611" lon="-110.8288359"><ele>768.5</ele><time>2026-05-02T17:44:23.417Z</time></trkpt><trkpt lat="32.2508577" lon="-110.8289934"><ele>769.75</ele><time>2026-05-02T17:44:24.416Z</time></trkpt><trkpt lat="32.2508551" lon="-110.8291348"><ele>771.0</ele><time>2026-05-02T17:44:25.417Z</time></trkpt><trkpt lat="32.2508541" lon="-110.8292658"><ele>771.0</ele><time>2026-05-02T17:44:26.417Z</time></trkpt><trkpt lat="32.250852" lon="-110.8293787"><ele>771.0</ele><time>2026-05-02T17:44:27.416Z</time></trkpt><trkpt lat="32.2508522" lon="-110.8294636"><ele>771.0</ele><time>2026-05-02T17:44:28.416Z</time></trkpt><trkpt lat="32.2508508" lon="-110.8295399"><ele>771.0</ele><time>2026-05-02T17:44:29.416Z</time></trkpt><trkpt lat="32.2508529" lon="-110.8296633"><ele>771.0</ele><time>2026-05-02T17:44:31.417Z</time></trkpt><trkpt lat="32.2508477" lon="-110.8297516"><ele>771.0</ele><time>2026-05-02T17:44:33.417Z</time></trkpt><trkpt lat="32.2508616" lon="-110.8298309"><ele>771.0</ele><time>2026-05-02T17:44:35.416Z</time></trkpt><trkpt lat="32.2508661" lon="-110.8299438"><ele>771.0</ele><time>2026-05-02T17:44:37.417Z</time></trkpt><trkpt lat="32.2508637" lon="-110.8300525"><ele>771.0</ele><time>2026-05-02T17:44:39.416Z</time></trkpt><trkpt lat="32.2508607" lon="-110.8301431"><ele>771.0</ele><time>2026-05-02T17:44:41.416Z</time></trkpt><trkpt lat="32.2508573" lon="-110.830252"><ele>771.0</ele><time>2026-05-02T17:44:48.418Z</time></trkpt><trkpt lat="32.2508481" lon="-110.8303406"><ele>771.0</ele><time>2026-05-02T17:44:49.418Z</time></trkpt><trkpt lat="32.2508448" lon="-110.8304504"><ele>771.25</ele><time>2026-05-02T17:44:50.417Z</time></trkpt><trkpt lat="32.2508422" lon="-110.8305811"><ele>771.5</ele><time>2026-05-02T17:44:51.417Z</time></trkpt><trkpt lat="32.2508456" lon="-110.8307295"><ele>771.75</ele><time>2026-05-02T17:44:52.417Z</time></trkpt><trkpt lat="32.2508446" lon="-110.8308928"><ele>772.0</ele><time>2026-05-02T17:44:53.416Z</time></trkpt><trkpt lat="32.2508398" lon="-110.8310724"><ele>771.3333333333333</ele><time>2026-05-02T17:44:54.418Z</time></trkpt><trkpt lat="32.2508408" lon="-110.8312658"><ele>770.6666666666667</ele><time>2026-05-02T17:44:55.418Z</time></trkpt><trkpt lat="32.2508394" lon="-110.8314636"><ele>770.0</ele><time>2026-05-02T17:44:56.417Z</time></trkpt><trkpt lat="32.250838" lon="-110.8316716"><ele>769.6666666666667</ele><time>2026-05-02T17:44:57.418Z</time></trkpt><trkpt lat="32.2508351" lon="-110.8318785"><ele>769.3333333333333</ele><time>2026-05-02T17:44:58.417Z</time></trkpt><trkpt lat="32.2508308" lon="-110.8320841"><ele>769.0</ele><time>2026-05-02T17:44:59.417Z</time></trkpt><trkpt lat="32.2508276" lon="-110.8322936"><ele>769.0</ele><time>2026-05-02T17:45:00.418Z</time></trkpt><trkpt lat="32.2508257" lon="-110.8325045"><ele>769.0</ele><time>2026-05-02T17:45:01.416Z</time></trkpt><trkpt lat="32.2508253" lon="-110.8327163"><ele>769.0</ele><time>2026-05-02T17:45:02.417Z</time></trkpt><trkpt lat="32.2508272" lon="-110.8329253"><ele>768.6666666666666</ele><time>2026-05-02T17:45:03.416Z</time></trkpt><trkpt lat="32.2508293" lon="-110.8331299"><ele>768.3333333333333</ele><time>2026-05-02T17:45:04.418Z</time></trkpt><trkpt lat="32.2508307" lon="-110.8333314"><ele>768.0</ele><time>2026-05-02T17:45:05.417Z</time></trkpt><trkpt lat="32.2508317" lon="-110.833531"><ele>767.6666666666666</ele><time>2026-05-02T17:45:06.417Z</time></trkpt><trkpt lat="32.2508337" lon="-110.8337268"><ele>767.3333333333333</ele><time>2026-05-02T17:45:07.418Z</time></trkpt><trkpt lat="32.2508379" lon="-110.8339187"><ele>767.0</ele><time>2026-05-02T17:45:08.418Z</time></trkpt><trkpt lat="32.2508394" lon="-110.8341078"><ele>767.0</ele><time>2026-05-02T17:45:09.417Z</time></trkpt><trkpt lat="32.2508388" lon="-110.8342902"><ele>767.0</ele><time>2026-05-02T17:45:10.417Z</time></trkpt><trkpt lat="32.250835" lon="-110.8344664"><ele>767.0</ele><time>2026-05-02T17:45:11.416Z</time></trkpt><trkpt lat="32.2508384" lon="-110.8346268"><ele>767.0</ele><time>2026-05-02T17:45:12.417Z</time></trkpt><trkpt lat="32.2508425" lon="-110.8347783"><ele>767.2</ele><time>2026-05-02T17:45:13.417Z</time></trkpt><trkpt lat="32.2508463" lon="-110.8349175"><ele>767.4000000000001</ele><time>2026-05-02T17:45:14.418Z</time></trkpt><trkpt lat="32.2508473" lon="-110.8350336"><ele>767.5999999999999</ele><time>2026-05-02T17:45:15.416Z</time></trkpt><trkpt lat="32.2508468" lon="-110.8351285"><ele>767.8</ele><time>2026-05-02T17:45:16.418Z</time></trkpt><trkpt lat="32.2508537" lon="-110.8352493"><ele>768.0</ele><time>2026-05-02T17:45:18.417Z</time></trkpt><trkpt lat="32.2508438" lon="-110.8353716"><ele>767.25</ele><time>2026-05-02T17:45:39.417Z</time></trkpt><trkpt lat="32.2508444" lon="-110.8354741"><ele>766.5</ele><time>2026-05-02T17:45:40.418Z</time></trkpt><trkpt lat="32.2508455" lon="-110.8355948"><ele>765.75</ele><time>2026-05-02T17:45:41.417Z</time></trkpt><trkpt lat="32.2508449" lon="-110.8357488"><ele>765.0</ele><time>2026-05-02T17:45:42.418Z</time></trkpt><trkpt lat="32.2508461" lon="-110.8359213"><ele>765.6666666666666</ele><time>2026-05-02T17:45:43.417Z</time></trkpt><trkpt lat="32.2508467" lon="-110.8361139"><ele>766.3333333333333</ele><time>2026-05-02T17:45:44.418Z</time></trkpt><trkpt lat="32.2508508" lon="-110.8363238"><ele>767.0</ele><time>2026-05-02T17:45:45.417Z</time></trkpt><trkpt lat="32.2508541" lon="-110.8365349"><ele>767.0</ele><time>2026-05-02T17:45:46.417Z</time></trkpt><trkpt lat="32.2508566" lon="-110.8367476"><ele>767.0</ele><time>2026-05-02T17:45:47.418Z</time></trkpt><trkpt lat="32.2508603" lon="-110.8369638"><ele>767.0</ele><time>2026-05-02T17:45:48.418Z</time></trkpt><trkpt lat="32.2508626" lon="-110.837182"><ele>768.0</ele><time>2026-05-02T17:45:49.417Z</time></trkpt><trkpt lat="32.2508665" lon="-110.837397"><ele>769.0</ele><time>2026-05-02T17:45:50.417Z</time></trkpt><trkpt lat="32.2508675" lon="-110.8376104"><ele>770.0</ele><time>2026-05-02T17:45:51.418Z</time></trkpt><trkpt lat="32.250868" lon="-110.8378221"><ele>770.6666666666667</ele><time>2026-05-02T17:45:52.417Z</time></trkpt><trkpt lat="32.2508698" lon="-110.8380262"><ele>771.3333333333333</ele><time>2026-05-02T17:45:53.417Z</time></trkpt><trkpt lat="32.2508707" lon="-110.8382209"><ele>772.0</ele><time>2026-05-02T17:45:54.418Z</time></trkpt><trkpt lat="32.25087" lon="-110.8384098"><ele>771.25</ele><time>2026-05-02T17:45:55.418Z</time></trkpt><trkpt lat="32.2508695" lon="-110.8385879"><ele>770.5</ele><time>2026-05-02T17:45:56.417Z</time></trkpt><trkpt lat="32.2508681" lon="-110.8387627"><ele>769.75</ele><time>2026-05-02T17:45:57.418Z</time></trkpt><trkpt lat="32.2508676" lon="-110.8389318"><ele>769.0</ele><time>2026-05-02T17:45:58.418Z</time></trkpt><trkpt lat="32.2508658" lon="-110.8390963"><ele>769.0</ele><time>2026-05-02T17:45:59.417Z</time></trkpt><trkpt lat="32.2508655" lon="-110.8392592"><ele>769.0</ele><time>2026-05-02T17:46:00.417Z</time></trkpt><trkpt lat="32.2508677" lon="-110.8394179"><ele>769.0</ele><time>2026-05-02T17:46:01.417Z</time></trkpt><trkpt lat="32.2508695" lon="-110.8395639"><ele>769.0</ele><time>2026-05-02T17:46:02.417Z</time></trkpt><trkpt lat="32.2508701" lon="-110.8396926"><ele>768.6</ele><time>2026-05-02T17:46:03.418Z</time></trkpt><trkpt lat="32.2508703" lon="-110.8398092"><ele>768.2</ele><time>2026-05-02T17:46:04.418Z</time></trkpt><trkpt lat="32.2508719" lon="-110.8399189"><ele>767.8000000000001</ele><time>2026-05-02T17:46:05.418Z</time></trkpt><trkpt lat="32.2508734" lon="-110.840028"><ele>767.4000000000001</ele><time>2026-05-02T17:46:06.417Z</time></trkpt><trkpt lat="32.2508732" lon="-110.8401433"><ele>767.0</ele><time>2026-05-02T17:46:07.417Z</time></trkpt><trkpt lat="32.2508742" lon="-110.8402549"><ele>766.8</ele><time>2026-05-02T17:46:08.417Z</time></trkpt><trkpt lat="32.2508752" lon="-110.8403596"><ele>766.6</ele><time>2026-05-02T17:46:09.418Z</time></trkpt><trkpt lat="32.2508764" lon="-110.8404578"><ele>766.4</ele><time>2026-05-02T17:46:10.418Z</time></trkpt><trkpt lat="32.2508778" lon="-110.8405599"><ele>766.1999999999999</ele><time>2026-05-02T17:46:11.417Z</time></trkpt><trkpt lat="32.2508788" lon="-110.8406727"><ele>766.0</ele><time>2026-05-02T17:46:12.418Z</time></trkpt><trkpt lat="32.2508785" lon="-110.8407938"><ele>766.0</ele><time>2026-05-02T17:46:13.418Z</time></trkpt><trkpt lat="32.2508786" lon="-110.8409153"><ele>766.0</ele><time>2026-05-02T17:46:14.418Z</time></trkpt><trkpt lat="32.2508793" lon="-110.8410335"><ele>766.0</ele><time>2026-05-02T17:46:15.417Z</time></trkpt><trkpt lat="32.2508797" lon="-110.8411596"><ele>766.0</ele><time>2026-05-02T17:46:16.418Z</time></trkpt><trkpt lat="32.2508811" lon="-110.8412932"><ele>766.0</ele><time>2026-05-02T17:46:17.418Z</time></trkpt><trkpt lat="32.2508842" lon="-110.8414254"><ele>766.5999999999999</ele><time>2026-05-02T17:46:18.417Z</time></trkpt><trkpt lat="32.2508841" lon="-110.8415561"><ele>767.2</ele><time>2026-05-02T17:46:19.418Z</time></trkpt><trkpt lat="32.2508841" lon="-110.8416815"><ele>767.8</ele><time>2026-05-02T17:46:20.417Z</time></trkpt><trkpt lat="32.2508885" lon="-110.841811"><ele>768.4000000000001</ele><time>2026-05-02T17:46:21.418Z</time></trkpt><trkpt lat="32.2508966" lon="-110.841947"><ele>769.0</ele><time>2026-05-02T17:46:22.417Z</time></trkpt><trkpt lat="32.2509057" lon="-110.8420918"><ele>769.75</ele><time>2026-05-02T17:46:23.417Z</time></trkpt><trkpt lat="32.25091" lon="-110.8422515"><ele>770.5</ele><time>2026-05-02T17:46:24.417Z</time></trkpt><trkpt lat="32.2509128" lon="-110.8424193"><ele>771.25</ele><time>2026-05-02T17:46:25.418Z</time></trkpt><trkpt lat="32.2509131" lon="-110.8425883"><ele>772.0</ele><time>2026-05-02T17:46:26.417Z</time></trkpt><trkpt lat="32.2509135" lon="-110.8427587"><ele>772.5</ele><time>2026-05-02T17:46:27.417Z</time></trkpt><trkpt lat="32.2509122" lon="-110.8429295"><ele>773.0</ele><time>2026-05-02T17:46:28.418Z</time></trkpt><trkpt lat="32.2509114" lon="-110.8431001"><ele>773.5</ele><time>2026-05-02T17:46:29.418Z</time></trkpt><trkpt lat="32.2509107" lon="-110.8432685"><ele>774.0</ele><time>2026-05-02T17:46:30.417Z</time></trkpt><trkpt lat="32.250913" lon="-110.8434345"><ele>773.5</ele><time>2026-05-02T17:46:31.418Z</time></trkpt><trkpt lat="32.2509124" lon="-110.8436002"><ele>773.0</ele><time>2026-05-02T17:46:32.417Z</time></trkpt><trkpt lat="32.2509113" lon="-110.8437673"><ele>772.5</ele><time>2026-05-02T17:46:33.417Z</time></trkpt><trkpt lat="32.2509096" lon="-110.8439359"><ele>772.0</ele><time>2026-05-02T17:46:34.417Z</time></trkpt><trkpt lat="32.2509067" lon="-110.8441032"><ele>772.0</ele><time>2026-05-02T17:46:35.417Z</time></trkpt><trkpt lat="32.2509015" lon="-110.8442686"><ele>772.0</ele><time>2026-05-02T17:46:36.417Z</time></trkpt><trkpt lat="32.2508936" lon="-110.8444365"><ele>772.0</ele><time>2026-05-02T17:46:37.418Z</time></trkpt><trkpt lat="32.2508818" lon="-110.8446067"><ele>772.0</ele><time>2026-05-02T17:46:38.419Z</time></trkpt><trkpt lat="32.2508659" lon="-110.8447743"><ele>771.25</ele><time>2026-05-02T17:46:39.418Z</time></trkpt><trkpt lat="32.2508433" lon="-110.8449402"><ele>770.5</ele><time>2026-05-02T17:46:40.419Z</time></trkpt><trkpt lat="32.2508156" lon="-110.8451037"><ele>769.75</ele><time>2026-05-02T17:46:41.418Z</time></trkpt><trkpt lat="32.2507826" lon="-110.8452661"><ele>769.0</ele><time>2026-05-02T17:46:42.418Z</time></trkpt><trkpt lat="32.2507445" lon="-110.8454246"><ele>768.75</ele><time>2026-05-02T17:46:43.418Z</time></trkpt><trkpt lat="32.2507022" lon="-110.845576"><ele>768.5</ele><time>2026-05-02T17:46:44.418Z</time></trkpt><trkpt lat="32.2506581" lon="-110.8457195"><ele>768.25</ele><time>2026-05-02T17:46:45.417Z</time></trkpt><trkpt lat="32.250612" lon="-110.8458581"><ele>768.0</ele><time>2026-05-02T17:46:46.418Z</time></trkpt><trkpt lat="32.2505616" lon="-110.8459888"><ele>767.75</ele><time>2026-05-02T17:46:47.418Z</time></trkpt><trkpt lat="32.2505097" lon="-110.8461167"><ele>767.5</ele><time>2026-05-02T17:46:48.419Z</time></trkpt><trkpt lat="32.2504549" lon="-110.8462399"><ele>767.25</ele><time>2026-05-02T17:46:49.418Z</time></trkpt><trkpt lat="32.2503988" lon="-110.8463524"><ele>767.0</ele><time>2026-05-02T17:46:50.418Z</time></trkpt><trkpt lat="32.2503411" lon="-110.8464629"><ele>767.0</ele><time>2026-05-02T17:46:51.418Z</time></trkpt><trkpt lat="32.2502811" lon="-110.8465678"><ele>767.0</ele><time>2026-05-02T17:46:52.419Z</time></trkpt><trkpt lat="32.2502197" lon="-110.846671"><ele>767.0</ele><time>2026-05-02T17:46:53.419Z</time></trkpt><trkpt lat="32.2501587" lon="-110.8467742"><ele>767.0</ele><time>2026-05-02T17:46:54.418Z</time></trkpt><trkpt lat="32.2500973" lon="-110.8468762"><ele>767.0</ele><time>2026-05-02T17:46:55.418Z</time></trkpt><trkpt lat="32.2500365" lon="-110.8469788"><ele>766.4000000000001</ele><time>2026-05-02T17:46:56.419Z</time></trkpt><trkpt lat="32.2499798" lon="-110.8470721"><ele>765.8000000000001</ele><time>2026-05-02T17:46:57.418Z</time></trkpt><trkpt lat="32.2499287" lon="-110.8471588"><ele>765.2</ele><time>2026-05-02T17:46:58.419Z</time></trkpt><trkpt lat="32.2498789" lon="-110.8472436"><ele>764.6</ele><time>2026-05-02T17:46:59.419Z</time></trkpt><trkpt lat="32.249826" lon="-110.8473288"><ele>764.0</ele><time>2026-05-02T17:47:00.418Z</time></trkpt><trkpt lat="32.2497753" lon="-110.8474173"><ele>763.6666666666666</ele><time>2026-05-02T17:47:01.418Z</time></trkpt><trkpt lat="32.2497248" lon="-110.8475063"><ele>763.3333333333333</ele><time>2026-05-02T17:47:02.419Z</time></trkpt><trkpt lat="32.24968" lon="-110.8475829"><ele>763.0</ele><time>2026-05-02T17:47:03.417Z</time></trkpt><trkpt lat="32.2496297" lon="-110.8476696"><ele>762.6666666666666</ele><time>2026-05-02T17:47:05.418Z</time></trkpt><trkpt lat="32.2495998" lon="-110.8477475"><ele>762.3333333333334</ele><time>2026-05-02T17:47:07.418Z</time></trkpt><trkpt lat="32.2495668" lon="-110.8478154"><ele>762.0</ele><time>2026-05-02T17:47:08.418Z</time></trkpt><trkpt lat="32.2495198" lon="-110.8478993"><ele>761.5</ele><time>2026-05-02T17:47:09.417Z</time></trkpt><trkpt lat="32.2494722" lon="-110.8479819"><ele>761.0</ele><time>2026-05-02T17:47:10.418Z</time></trkpt><trkpt lat="32.2494268" lon="-110.8480585"><ele>760.5</ele><time>2026-05-02T17:47:11.417Z</time></trkpt><trkpt lat="32.2493867" lon="-110.8481336"><ele>760.0</ele><time>2026-05-02T17:47:12.419Z</time></trkpt><trkpt lat="32.2493401" lon="-110.8482089"><ele>759.5</ele><time>2026-05-02T17:47:13.418Z</time></trkpt><trkpt lat="32.2492852" lon="-110.848291"><ele>759.0</ele><time>2026-05-02T17:47:14.419Z</time></trkpt><trkpt lat="32.2492293" lon="-110.8483804"><ele>759.6666666666666</ele><time>2026-05-02T17:47:15.419Z</time></trkpt><trkpt lat="32.2491746" lon="-110.8484685"><ele>760.3333333333334</ele><time>2026-05-02T17:47:16.417Z</time></trkpt><trkpt lat="32.2491268" lon="-110.8485479"><ele>761.0</ele><time>2026-05-02T17:47:17.418Z</time></trkpt><trkpt lat="32.2490886" lon="-110.8486106"><ele>761.6666666666667</ele><time>2026-05-02T17:47:18.418Z</time></trkpt><trkpt lat="32.2490171" lon="-110.848687"><ele>762.3333333333334</ele><time>2026-05-02T17:47:20.418Z</time></trkpt><trkpt lat="32.2489754" lon="-110.8487436"><ele>763.0</ele><time>2026-05-02T17:47:22.418Z</time></trkpt><trkpt lat="32.2489596" lon="-110.8488207"><ele>763.0</ele><time>2026-05-02T17:47:24.419Z</time></trkpt><trkpt lat="32.2489226" lon="-110.8488924"><ele>763.0</ele><time>2026-05-02T17:47:25.418Z</time></trkpt><trkpt lat="32.2488706" lon="-110.8489953"><ele>763.0</ele><time>2026-05-02T17:47:26.418Z</time></trkpt><trkpt lat="32.2488025" lon="-110.8491228"><ele>763.0</ele><time>2026-05-02T17:47:27.419Z</time></trkpt><trkpt lat="32.2487248" lon="-110.8492679"><ele>763.0</ele><time>2026-05-02T17:47:28.419Z</time></trkpt><trkpt lat="32.2486415" lon="-110.8494092"><ele>763.0</ele><time>2026-05-02T17:47:29.419Z</time></trkpt><trkpt lat="32.2485658" lon="-110.84954"><ele>763.0</ele><time>2026-05-02T17:47:30.418Z</time></trkpt><trkpt lat="32.2485016" lon="-110.8496474"><ele>763.0</ele><time>2026-05-02T17:47:31.419Z</time></trkpt><trkpt lat="32.2484486" lon="-110.8497348"><ele>763.0</ele><time>2026-05-02T17:47:32.419Z</time></trkpt><trkpt lat="32.2484159" lon="-110.8498111"><ele>763.0</ele><time>2026-05-02T17:47:33.419Z</time></trkpt><trkpt lat="32.2484132" lon="-110.8498884"><ele>763.0</ele><time>2026-05-02T17:47:34.418Z</time></trkpt><trkpt lat="32.2484406" lon="-110.8499637"><ele>763.0</ele><time>2026-05-02T17:47:35.418Z</time></trkpt><trkpt lat="32.2484974" lon="-110.8500388"><ele>763.0</ele><time>2026-05-02T17:47:36.419Z</time></trkpt><trkpt lat="32.2485839" lon="-110.8501248"><ele>763.0</ele><time>2026-05-02T17:47:37.419Z</time></trkpt><trkpt lat="32.2486893" lon="-110.8502246"><ele>763.0</ele><time>2026-05-02T17:47:38.419Z</time></trkpt><trkpt lat="32.2488132" lon="-110.8503475"><ele>762.3333333333334</ele><time>2026-05-02T17:47:39.419Z</time></trkpt><trkpt lat="32.2489474" lon="-110.8504824"><ele>761.6666666666666</ele><time>2026-05-02T17:47:40.418Z</time></trkpt><trkpt lat="32.2490978" lon="-110.8506318"><ele>761.0</ele><time>2026-05-02T17:47:41.419Z</time></trkpt><trkpt lat="32.2492564" lon="-110.850794"><ele>761.3333333333333</ele><time>2026-05-02T17:47:42.419Z</time></trkpt><trkpt lat="32.2494122" lon="-110.8509628"><ele>761.6666666666666</ele><time>2026-05-02T17:47:43.418Z</time></trkpt><trkpt lat="32.249557" lon="-110.8511342"><ele>762.0</ele><time>2026-05-02T17:47:44.419Z</time></trkpt><trkpt lat="32.2496929" lon="-110.8513113"><ele>761.3333333333334</ele><time>2026-05-02T17:47:45.419Z</time></trkpt><trkpt lat="32.24982" lon="-110.8514955"><ele>760.6666666666667</ele><time>2026-05-02T17:47:46.419Z</time></trkpt><trkpt lat="32.2499409" lon="-110.8516855"><ele>760.0</ele><time>2026-05-02T17:47:47.418Z</time></trkpt><trkpt lat="32.2500545" lon="-110.8518832"><ele>759.3333333333334</ele><time>2026-05-02T17:47:48.419Z</time></trkpt><trkpt lat="32.2501638" lon="-110.8520866"><ele>758.6666666666666</ele><time>2026-05-02T17:47:49.418Z</time></trkpt><trkpt lat="32.2502614" lon="-110.8522961"><ele>758.0</ele><time>2026-05-02T17:47:50.418Z</time></trkpt><trkpt lat="32.2503511" lon="-110.8525143"><ele>758.0</ele><time>2026-05-02T17:47:51.418Z</time></trkpt><trkpt lat="32.2504329" lon="-110.8527402"><ele>758.0</ele><time>2026-05-02T17:47:52.418Z</time></trkpt><trkpt lat="32.2505052" lon="-110.8529722"><ele>758.0</ele><time>2026-05-02T17:47:53.42Z</time></trkpt><trkpt lat="32.250571" lon="-110.8532027"><ele>758.0</ele><time>2026-05-02T17:47:54.419Z</time></trkpt><trkpt lat="32.2506221" lon="-110.8534292"><ele>758.0</ele><time>2026-05-02T17:47:55.418Z</time></trkpt><trkpt lat="32.2506635" lon="-110.8536567"><ele>758.0</ele><time>2026-05-02T17:47:56.419Z</time></trkpt><trkpt lat="32.250698" lon="-110.8538801"><ele>758.0</ele><time>2026-05-02T17:47:57.418Z</time></trkpt><trkpt lat="32.2507233" lon="-110.8540804"><ele>758.0</ele><time>2026-05-02T17:47:58.418Z</time></trkpt><trkpt lat="32.2507382" lon="-110.8542717"><ele>758.0</ele><time>2026-05-02T17:47:59.418Z</time></trkpt><trkpt lat="32.250749" lon="-110.8544691"><ele>757.6666666666666</ele><time>2026-05-02T17:48:00.418Z</time></trkpt><trkpt lat="32.2507541" lon="-110.8546682"><ele>757.3333333333334</ele><time>2026-05-02T17:48:01.419Z</time></trkpt><trkpt lat="32.2507547" lon="-110.8548748"><ele>757.0</ele><time>2026-05-02T17:48:02.418Z</time></trkpt><trkpt lat="32.2507537" lon="-110.8550778"><ele>757.6666666666667</ele><time>2026-05-02T17:48:03.418Z</time></trkpt><trkpt lat="32.2507511" lon="-110.8552863"><ele>758.3333333333334</ele><time>2026-05-02T17:48:04.419Z</time></trkpt><trkpt lat="32.2507495" lon="-110.855498"><ele>759.0</ele><time>2026-05-02T17:48:05.419Z</time></trkpt><trkpt lat="32.2507474" lon="-110.8557133"><ele>759.0</ele><time>2026-05-02T17:48:06.419Z</time></trkpt><trkpt lat="32.2507473" lon="-110.8559278"><ele>759.0</ele><time>2026-05-02T17:48:07.419Z</time></trkpt><trkpt lat="32.2507446" lon="-110.8561415"><ele>759.0</ele><time>2026-05-02T17:48:08.419Z</time></trkpt><trkpt lat="32.2507356" lon="-110.856354"><ele>759.0</ele><time>2026-05-02T17:48:09.418Z</time></trkpt><trkpt lat="32.2507261" lon="-110.8565773"><ele>759.0</ele><time>2026-05-02T17:48:10.419Z</time></trkpt><trkpt lat="32.2507183" lon="-110.8568057"><ele>759.0</ele><time>2026-05-02T17:48:11.419Z</time></trkpt><trkpt lat="32.2507129" lon="-110.8570369"><ele>758.3333333333334</ele><time>2026-05-02T17:48:12.419Z</time></trkpt><trkpt lat="32.2507082" lon="-110.8572638"><ele>757.6666666666667</ele><time>2026-05-02T17:48:13.419Z</time></trkpt><trkpt lat="32.250705" lon="-110.8574874"><ele>757.0</ele><time>2026-05-02T17:48:14.419Z</time></trkpt><trkpt lat="32.2507042" lon="-110.857706"><ele>756.6666666666667</ele><time>2026-05-02T17:48:15.418Z</time></trkpt><trkpt lat="32.2507042" lon="-110.857926"><ele>756.3333333333334</ele><time>2026-05-02T17:48:16.418Z</time></trkpt><trkpt lat="32.2507017" lon="-110.8581426"><ele>756.0</ele><time>2026-05-02T17:48:17.419Z</time></trkpt><trkpt lat="32.2507025" lon="-110.8583651"><ele>756.3333333333334</ele><time>2026-05-02T17:48:18.419Z</time></trkpt><trkpt lat="32.2507042" lon="-110.8585862"><ele>756.6666666666667</ele><time>2026-05-02T17:48:19.419Z</time></trkpt><trkpt lat="32.2507066" lon="-110.8588062"><ele>757.0</ele><time>2026-05-02T17:48:20.419Z</time></trkpt><trkpt lat="32.2507076" lon="-110.8590267"><ele>757.0</ele><time>2026-05-02T17:48:21.419Z</time></trkpt><trkpt lat="32.2507083" lon="-110.8592471"><ele>757.0</ele><time>2026-05-02T17:48:22.418Z</time></trkpt><trkpt lat="32.2507091" lon="-110.8594706"><ele>757.0</ele><time>2026-05-02T17:48:23.419Z</time></trkpt><trkpt lat="32.2507098" lon="-110.8596952"><ele>757.0</ele><time>2026-05-02T17:48:24.418Z</time></trkpt><trkpt lat="32.25071" lon="-110.8599232"><ele>757.0</ele><time>2026-05-02T17:48:25.419Z</time></trkpt><trkpt lat="32.2507098" lon="-110.8601508"><ele>757.0</ele><time>2026-05-02T17:48:26.418Z</time></trkpt><trkpt lat="32.2507121" lon="-110.8603815"><ele>757.0</ele><time>2026-05-02T17:48:27.419Z</time></trkpt><trkpt lat="32.2507141" lon="-110.8606128"><ele>757.0</ele><time>2026-05-02T17:48:28.419Z</time></trkpt><trkpt lat="32.2507148" lon="-110.8608429"><ele>757.0</ele><time>2026-05-02T17:48:29.418Z</time></trkpt><trkpt lat="32.2507158" lon="-110.8610706"><ele>757.3333333333334</ele><time>2026-05-02T17:48:30.418Z</time></trkpt><trkpt lat="32.2507169" lon="-110.8613013"><ele>757.6666666666666</ele><time>2026-05-02T17:48:31.418Z</time></trkpt><trkpt lat="32.2507178" lon="-110.8615335"><ele>758.0</ele><time>2026-05-02T17:48:32.419Z</time></trkpt><trkpt lat="32.2507179" lon="-110.8617671"><ele>758.0</ele><time>2026-05-02T17:48:33.418Z</time></trkpt><trkpt lat="32.2507164" lon="-110.8620042"><ele>758.0</ele><time>2026-05-02T17:48:34.42Z</time></trkpt><trkpt lat="32.250717" lon="-110.8622398"><ele>758.0</ele><time>2026-05-02T17:48:35.418Z</time></trkpt><trkpt lat="32.250718" lon="-110.8624762"><ele>758.0</ele><time>2026-05-02T17:48:36.419Z</time></trkpt><trkpt lat="32.2507179" lon="-110.8627137"><ele>758.0</ele><time>2026-05-02T17:48:37.419Z</time></trkpt><trkpt lat="32.2507172" lon="-110.8629503"><ele>758.0</ele><time>2026-05-02T17:48:38.419Z</time></trkpt><trkpt lat="32.2507178" lon="-110.8631886"><ele>758.0</ele><time>2026-05-02T17:48:39.419Z</time></trkpt><trkpt lat="32.2507178" lon="-110.8634261"><ele>758.0</ele><time>2026-05-02T17:48:40.419Z</time></trkpt><trkpt lat="32.2507192" lon="-110.8636615"><ele>758.0</ele><time>2026-05-02T17:48:41.42Z</time></trkpt><trkpt lat="32.2507197" lon="-110.8638996"><ele>758.0</ele><time>2026-05-02T17:48:42.42Z</time></trkpt><trkpt lat="32.2507196" lon="-110.8641379"><ele>758.0</ele><time>2026-05-02T17:48:43.419Z</time></trkpt><trkpt lat="32.2507198" lon="-110.8643723"><ele>758.0</ele><time>2026-05-02T17:48:44.419Z</time></trkpt><trkpt lat="32.2507202" lon="-110.8646056"><ele>758.0</ele><time>2026-05-02T17:48:45.418Z</time></trkpt><trkpt lat="32.2507229" lon="-110.8648378"><ele>758.0</ele><time>2026-05-02T17:48:46.419Z</time></trkpt><trkpt lat="32.2507225" lon="-110.8650715"><ele>758.0</ele><time>2026-05-02T17:48:47.418Z</time></trkpt><trkpt lat="32.2507207" lon="-110.8653068"><ele>758.0</ele><time>2026-05-02T17:48:48.418Z</time></trkpt><trkpt lat="32.2507219" lon="-110.8655399"><ele>758.0</ele><time>2026-05-02T17:48:49.419Z</time></trkpt><trkpt lat="32.2507231" lon="-110.8657734"><ele>758.0</ele><time>2026-05-02T17:48:50.419Z</time></trkpt><trkpt lat="32.2507238" lon="-110.8660052"><ele>760.0</ele><time>2026-05-02T17:48:51.419Z</time></trkpt><trkpt lat="32.2507249" lon="-110.8662349"><ele>762.0</ele><time>2026-05-02T17:48:52.419Z</time></trkpt><trkpt lat="32.2507272" lon="-110.8664672"><ele>764.0</ele><time>2026-05-02T17:48:53.418Z</time></trkpt><trkpt lat="32.250729" lon="-110.8667034"><ele>763.6666666666666</ele><time>2026-05-02T17:48:54.42Z</time></trkpt><trkpt lat="32.2507275" lon="-110.8669434"><ele>763.3333333333334</ele><time>2026-05-02T17:48:55.42Z</time></trkpt><trkpt lat="32.2507259" lon="-110.8671871"><ele>763.0</ele><time>2026-05-02T17:48:56.419Z</time></trkpt><trkpt lat="32.2507257" lon="-110.8674319"><ele>762.0</ele><time>2026-05-02T17:48:57.42Z</time></trkpt><trkpt lat="32.250726" lon="-110.8676746"><ele>761.0</ele><time>2026-05-02T17:48:58.42Z</time></trkpt><trkpt lat="32.2507275" lon="-110.8679185"><ele>760.0</ele><time>2026-05-02T17:48:59.419Z</time></trkpt><trkpt lat="32.2507289" lon="-110.8681653"><ele>760.0</ele><time>2026-05-02T17:49:00.419Z</time></trkpt><trkpt lat="32.2507303" lon="-110.8684085"><ele>760.0</ele><time>2026-05-02T17:49:01.419Z</time></trkpt><trkpt lat="32.2507317" lon="-110.8686477"><ele>760.0</ele><time>2026-05-02T17:49:02.418Z</time></trkpt><trkpt lat="32.2507334" lon="-110.8688879"><ele>760.0</ele><time>2026-05-02T17:49:03.419Z</time></trkpt><trkpt lat="32.2507318" lon="-110.8691289"><ele>760.0</ele><time>2026-05-02T17:49:04.418Z</time></trkpt><trkpt lat="32.2507315" lon="-110.8693706"><ele>760.0</ele><time>2026-05-02T17:49:05.418Z</time></trkpt><trkpt lat="32.2507308" lon="-110.8696135"><ele>760.3333333333334</ele><time>2026-05-02T17:49:06.42Z</time></trkpt><trkpt lat="32.2507299" lon="-110.8698549"><ele>760.6666666666666</ele><time>2026-05-02T17:49:07.419Z</time></trkpt><trkpt lat="32.2507294" lon="-110.8700961"><ele>761.0</ele><time>2026-05-02T17:49:08.42Z</time></trkpt><trkpt lat="32.2507289" lon="-110.8703342"><ele>761.0</ele><time>2026-05-02T17:49:09.419Z</time></trkpt><trkpt lat="32.2507312" lon="-110.8705681"><ele>761.0</ele><time>2026-05-02T17:49:10.419Z</time></trkpt><trkpt lat="32.250734" lon="-110.8707994"><ele>761.0</ele><time>2026-05-02T17:49:11.419Z</time></trkpt><trkpt lat="32.2507366" lon="-110.8710333"><ele>759.6666666666666</ele><time>2026-05-02T17:49:12.419Z</time></trkpt><trkpt lat="32.2507383" lon="-110.8712663"><ele>758.3333333333334</ele><time>2026-05-02T17:49:13.42Z</time></trkpt><trkpt lat="32.2507413" lon="-110.8714927"><ele>757.0</ele><time>2026-05-02T17:49:14.42Z</time></trkpt><trkpt lat="32.2507423" lon="-110.8717196"><ele>756.6666666666667</ele><time>2026-05-02T17:49:15.419Z</time></trkpt><trkpt lat="32.2507407" lon="-110.8719449"><ele>756.3333333333334</ele><time>2026-05-02T17:49:16.42Z</time></trkpt><trkpt lat="32.2507392" lon="-110.8721632"><ele>756.0</ele><time>2026-05-02T17:49:17.42Z</time></trkpt><trkpt lat="32.2507411" lon="-110.8723791"><ele>756.0</ele><time>2026-05-02T17:49:18.42Z</time></trkpt><trkpt lat="32.250743" lon="-110.872592"><ele>756.0</ele><time>2026-05-02T17:49:19.42Z</time></trkpt><trkpt lat="32.2507423" lon="-110.8728055"><ele>756.0</ele><time>2026-05-02T17:49:20.42Z</time></trkpt><trkpt lat="32.250744" lon="-110.8730159"><ele>756.0</ele><time>2026-05-02T17:49:21.419Z</time></trkpt><trkpt lat="32.2507459" lon="-110.8732251"><ele>756.0</ele><time>2026-05-02T17:49:22.419Z</time></trkpt><trkpt lat="32.2507487" lon="-110.8734274"><ele>756.0</ele><time>2026-05-02T17:49:23.419Z</time></trkpt><trkpt lat="32.2507517" lon="-110.8736221"><ele>756.25</ele><time>2026-05-02T17:49:24.419Z</time></trkpt><trkpt lat="32.250754" lon="-110.8738005"><ele>756.5</ele><time>2026-05-02T17:49:25.419Z</time></trkpt><trkpt lat="32.2507552" lon="-110.8739637"><ele>756.75</ele><time>2026-05-02T17:49:26.42Z</time></trkpt><trkpt lat="32.2507562" lon="-110.8741148"><ele>757.0</ele><time>2026-05-02T17:49:27.42Z</time></trkpt><trkpt lat="32.2507554" lon="-110.8742611"><ele>756.75</ele><time>2026-05-02T17:49:28.419Z</time></trkpt><trkpt lat="32.2507573" lon="-110.8744002"><ele>756.5</ele><time>2026-05-02T17:49:29.42Z</time></trkpt><trkpt lat="32.2507575" lon="-110.8745347"><ele>756.25</ele><time>2026-05-02T17:49:30.419Z</time></trkpt><trkpt lat="32.2507578" lon="-110.8746671"><ele>756.0</ele><time>2026-05-02T17:49:31.419Z</time></trkpt><trkpt lat="32.2507576" lon="-110.874796"><ele>756.0</ele><time>2026-05-02T17:49:32.42Z</time></trkpt><trkpt lat="32.2507573" lon="-110.8749281"><ele>756.0</ele><time>2026-05-02T17:49:33.42Z</time></trkpt><trkpt lat="32.2507535" lon="-110.8750627"><ele>756.0</ele><time>2026-05-02T17:49:34.42Z</time></trkpt><trkpt lat="32.2507532" lon="-110.8752032"><ele>756.0</ele><time>2026-05-02T17:49:35.419Z</time></trkpt><trkpt lat="32.2507528" lon="-110.8753539"><ele>755.5</ele><time>2026-05-02T17:49:36.419Z</time></trkpt><trkpt lat="32.2507535" lon="-110.8755181"><ele>755.0</ele><time>2026-05-02T17:49:37.419Z</time></trkpt><trkpt lat="32.2507536" lon="-110.8756912"><ele>754.5</ele><time>2026-05-02T17:49:38.419Z</time></trkpt><trkpt lat="32.2507534" lon="-110.8758731"><ele>754.0</ele><time>2026-05-02T17:49:39.419Z</time></trkpt><trkpt lat="32.2507505" lon="-110.8760623"><ele>753.6666666666667</ele><time>2026-05-02T17:49:40.419Z</time></trkpt><trkpt lat="32.2507492" lon="-110.8762564"><ele>753.3333333333334</ele><time>2026-05-02T17:49:41.42Z</time></trkpt><trkpt lat="32.250748" lon="-110.876457"><ele>753.0</ele><time>2026-05-02T17:49:42.419Z</time></trkpt><trkpt lat="32.2507451" lon="-110.876665"><ele>754.0</ele><time>2026-05-02T17:49:43.42Z</time></trkpt><trkpt lat="32.2507419" lon="-110.8768784"><ele>755.0</ele><time>2026-05-02T17:49:44.42Z</time></trkpt><trkpt lat="32.2507387" lon="-110.8770943"><ele>756.0</ele><time>2026-05-02T17:49:45.42Z</time></trkpt><trkpt lat="32.2507374" lon="-110.8773099"><ele>756.0</ele><time>2026-05-02T17:49:46.419Z</time></trkpt><trkpt lat="32.2507373" lon="-110.8775246"><ele>756.0</ele><time>2026-05-02T17:49:47.42Z</time></trkpt><trkpt lat="32.2507379" lon="-110.8777382"><ele>756.0</ele><time>2026-05-02T17:49:48.419Z</time></trkpt><trkpt lat="32.2507385" lon="-110.8779521"><ele>755.0</ele><time>2026-05-02T17:49:49.419Z</time></trkpt><trkpt lat="32.2507371" lon="-110.8781658"><ele>754.0</ele><time>2026-05-02T17:49:50.42Z</time></trkpt><trkpt lat="32.2507382" lon="-110.8783861"><ele>753.0</ele><time>2026-05-02T17:49:51.42Z</time></trkpt><trkpt lat="32.250738" lon="-110.8786073"><ele>753.0</ele><time>2026-05-02T17:49:52.419Z</time></trkpt><trkpt lat="32.2507374" lon="-110.878832"><ele>753.0</ele><time>2026-05-02T17:49:53.42Z</time></trkpt><trkpt lat="32.2507343" lon="-110.8790578"><ele>753.0</ele><time>2026-05-02T17:49:54.42Z</time></trkpt><trkpt lat="32.2507343" lon="-110.8792801"><ele>753.3333333333334</ele><time>2026-05-02T17:49:55.419Z</time></trkpt><trkpt lat="32.2507334" lon="-110.8794979"><ele>753.6666666666667</ele><time>2026-05-02T17:49:56.42Z</time></trkpt><trkpt lat="32.2507309" lon="-110.8797125"><ele>754.0</ele><time>2026-05-02T17:49:57.419Z</time></trkpt><trkpt lat="32.250731" lon="-110.8799295"><ele>755.3333333333334</ele><time>2026-05-02T17:49:58.42Z</time></trkpt><trkpt lat="32.2507304" lon="-110.8801487"><ele>756.6666666666666</ele><time>2026-05-02T17:49:59.419Z</time></trkpt><trkpt lat="32.2507303" lon="-110.8803684"><ele>758.0</ele><time>2026-05-02T17:50:00.419Z</time></trkpt><trkpt lat="32.2507305" lon="-110.8805881"><ele>758.0</ele><time>2026-05-02T17:50:01.42Z</time></trkpt><trkpt lat="32.2507311" lon="-110.8808066"><ele>758.0</ele><time>2026-05-02T17:50:02.42Z</time></trkpt><trkpt lat="32.2507326" lon="-110.8810206"><ele>758.0</ele><time>2026-05-02T17:50:03.42Z</time></trkpt><trkpt lat="32.2507347" lon="-110.8812292"><ele>758.0</ele><time>2026-05-02T17:50:04.419Z</time></trkpt><trkpt lat="32.2507345" lon="-110.881434"><ele>758.0</ele><time>2026-05-02T17:50:05.419Z</time></trkpt><trkpt lat="32.2507335" lon="-110.8816342"><ele>758.0</ele><time>2026-05-02T17:50:06.419Z</time></trkpt><trkpt lat="32.2507323" lon="-110.8818297"><ele>757.3333333333333</ele><time>2026-05-02T17:50:07.42Z</time></trkpt><trkpt lat="32.2507321" lon="-110.8820225"><ele>756.6666666666666</ele><time>2026-05-02T17:50:08.42Z</time></trkpt><trkpt lat="32.250732" lon="-110.8822145"><ele>756.0</ele><time>2026-05-02T17:50:09.42Z</time></trkpt><trkpt lat="32.250731" lon="-110.8824001"><ele>756.0</ele><time>2026-05-02T17:50:10.42Z</time></trkpt><trkpt lat="32.2507301" lon="-110.8825791"><ele>756.0</ele><time>2026-05-02T17:50:11.419Z</time></trkpt><trkpt lat="32.2507299" lon="-110.8827444"><ele>756.0</ele><time>2026-05-02T17:50:12.419Z</time></trkpt><trkpt lat="32.2507306" lon="-110.8828888"><ele>756.0</ele><time>2026-05-02T17:50:13.419Z</time></trkpt><trkpt lat="32.2507325" lon="-110.8830142"><ele>754.8</ele><time>2026-05-02T17:50:14.42Z</time></trkpt><trkpt lat="32.2507318" lon="-110.8831272"><ele>753.5999999999999</ele><time>2026-05-02T17:50:15.42Z</time></trkpt><trkpt lat="32.2507316" lon="-110.8832294"><ele>752.4</ele><time>2026-05-02T17:50:16.42Z</time></trkpt><trkpt lat="32.2507303" lon="-110.8833159"><ele>751.2</ele><time>2026-05-02T17:50:17.419Z</time></trkpt><trkpt lat="32.250729" lon="-110.8834411"><ele>750.0</ele><time>2026-05-02T17:50:19.419Z</time></trkpt><trkpt lat="32.2507306" lon="-110.8835649"><ele>749.8</ele><time>2026-05-02T17:50:21.419Z</time></trkpt><trkpt lat="32.2507308" lon="-110.8837095"><ele>749.6</ele><time>2026-05-02T17:50:23.419Z</time></trkpt><trkpt lat="32.2507306" lon="-110.883795"><ele>749.4000000000001</ele><time>2026-05-02T17:50:24.419Z</time></trkpt><trkpt lat="32.2507304" lon="-110.8838928"><ele>749.2</ele><time>2026-05-02T17:50:25.42Z</time></trkpt><trkpt lat="32.2507303" lon="-110.884006"><ele>749.0</ele><time>2026-05-02T17:50:26.42Z</time></trkpt><trkpt lat="32.2507287" lon="-110.8841353"><ele>750.25</ele><time>2026-05-02T17:50:27.42Z</time></trkpt><trkpt lat="32.2507284" lon="-110.8842732"><ele>751.5</ele><time>2026-05-02T17:50:28.419Z</time></trkpt><trkpt lat="32.2507274" lon="-110.8844263"><ele>752.75</ele><time>2026-05-02T17:50:29.42Z</time></trkpt><trkpt lat="32.2507268" lon="-110.8845837"><ele>754.0</ele><time>2026-05-02T17:50:30.419Z</time></trkpt><trkpt lat="32.2507269" lon="-110.8847438"><ele>754.0</ele><time>2026-05-02T17:50:31.42Z</time></trkpt><trkpt lat="32.2507266" lon="-110.8849037"><ele>754.0</ele><time>2026-05-02T17:50:32.42Z</time></trkpt><trkpt lat="32.2507267" lon="-110.8850566"><ele>754.0</ele><time>2026-05-02T17:50:33.42Z</time></trkpt><trkpt lat="32.2507264" lon="-110.8852052"><ele>754.0</ele><time>2026-05-02T17:50:34.42Z</time></trkpt><trkpt lat="32.2507259" lon="-110.8853559"><ele>753.5</ele><time>2026-05-02T17:50:35.419Z</time></trkpt><trkpt lat="32.2507254" lon="-110.8855088"><ele>753.0</ele><time>2026-05-02T17:50:36.42Z</time></trkpt><trkpt lat="32.2507249" lon="-110.8856637"><ele>752.5</ele><time>2026-05-02T17:50:37.421Z</time></trkpt><trkpt lat="32.2507249" lon="-110.8858247"><ele>752.0</ele><time>2026-05-02T17:50:38.421Z</time></trkpt><trkpt lat="32.2507239" lon="-110.8860013"><ele>751.0</ele><time>2026-05-02T17:50:39.42Z</time></trkpt><trkpt lat="32.2507237" lon="-110.8861825"><ele>750.0</ele><time>2026-05-02T17:50:40.421Z</time></trkpt><trkpt lat="32.2507245" lon="-110.8863605"><ele>749.0</ele><time>2026-05-02T17:50:41.42Z</time></trkpt><trkpt lat="32.2507232" lon="-110.8865359"><ele>749.0</ele><time>2026-05-02T17:50:42.42Z</time></trkpt><trkpt lat="32.2507224" lon="-110.8867102"><ele>749.0</ele><time>2026-05-02T17:50:43.42Z</time></trkpt><trkpt lat="32.2507219" lon="-110.8868889"><ele>749.0</ele><time>2026-05-02T17:50:44.421Z</time></trkpt><trkpt lat="32.2507203" lon="-110.8870719"><ele>749.3333333333333</ele><time>2026-05-02T17:50:45.42Z</time></trkpt><trkpt lat="32.2507185" lon="-110.8872626"><ele>749.6666666666666</ele><time>2026-05-02T17:50:46.419Z</time></trkpt><trkpt lat="32.2507173" lon="-110.8874588"><ele>750.0</ele><time>2026-05-02T17:50:47.419Z</time></trkpt><trkpt lat="32.2507177" lon="-110.887662"><ele>751.0</ele><time>2026-05-02T17:50:48.419Z</time></trkpt><trkpt lat="32.2507189" lon="-110.8878669"><ele>752.0</ele><time>2026-05-02T17:50:49.42Z</time></trkpt><trkpt lat="32.2507199" lon="-110.8880716"><ele>753.0</ele><time>2026-05-02T17:50:50.419Z</time></trkpt><trkpt lat="32.2507208" lon="-110.8882722"><ele>752.6666666666666</ele><time>2026-05-02T17:50:51.421Z</time></trkpt><trkpt lat="32.2507224" lon="-110.8884693"><ele>752.3333333333333</ele><time>2026-05-02T17:50:52.42Z</time></trkpt><trkpt lat="32.2507271" lon="-110.8886676"><ele>752.0</ele><time>2026-05-02T17:50:53.42Z</time></trkpt><trkpt lat="32.2507351" lon="-110.8888781"><ele>752.0</ele><time>2026-05-02T17:50:54.421Z</time></trkpt><trkpt lat="32.2507424" lon="-110.8890898"><ele>752.0</ele><time>2026-05-02T17:50:55.419Z</time></trkpt><trkpt lat="32.2507466" lon="-110.8892961"><ele>752.0</ele><time>2026-05-02T17:50:56.42Z</time></trkpt><trkpt lat="32.2507483" lon="-110.8894943"><ele>751.3333333333333</ele><time>2026-05-02T17:50:57.421Z</time></trkpt><trkpt lat="32.2507483" lon="-110.8896827"><ele>750.6666666666666</ele><time>2026-05-02T17:50:58.419Z</time></trkpt><trkpt lat="32.2507477" lon="-110.8898655"><ele>750.0</ele><time>2026-05-02T17:50:59.421Z</time></trkpt><trkpt lat="32.2507471" lon="-110.8900393"><ele>750.0</ele><time>2026-05-02T17:51:00.42Z</time></trkpt><trkpt lat="32.2507471" lon="-110.8902074"><ele>750.0</ele><time>2026-05-02T17:51:01.42Z</time></trkpt><trkpt lat="32.2507461" lon="-110.8903674"><ele>750.0</ele><time>2026-05-02T17:51:02.42Z</time></trkpt><trkpt lat="32.2507447" lon="-110.8905287"><ele>750.0</ele><time>2026-05-02T17:51:03.42Z</time></trkpt><trkpt lat="32.2507449" lon="-110.8906955"><ele>750.0</ele><time>2026-05-02T17:51:04.421Z</time></trkpt><trkpt lat="32.2507447" lon="-110.8908591"><ele>750.0</ele><time>2026-05-02T17:51:05.42Z</time></trkpt><trkpt lat="32.2507463" lon="-110.8910252"><ele>750.0</ele><time>2026-05-02T17:51:06.421Z</time></trkpt><trkpt lat="32.2507478" lon="-110.8912021"><ele>750.0</ele><time>2026-05-02T17:51:07.421Z</time></trkpt><trkpt lat="32.2507426" lon="-110.8913791"><ele>750.25</ele><time>2026-05-02T17:51:08.42Z</time></trkpt><trkpt lat="32.2507287" lon="-110.8915475"><ele>750.5</ele><time>2026-05-02T17:51:09.42Z</time></trkpt><trkpt lat="32.2507118" lon="-110.8917085"><ele>750.75</ele><time>2026-05-02T17:51:10.42Z</time></trkpt><trkpt lat="32.2506979" lon="-110.8918631"><ele>751.0</ele><time>2026-05-02T17:51:11.42Z</time></trkpt><trkpt lat="32.2506897" lon="-110.8920019"><ele>751.0</ele><time>2026-05-02T17:51:12.42Z</time></trkpt><trkpt lat="32.2506856" lon="-110.8921239"><ele>751.0</ele><time>2026-05-02T17:51:13.421Z</time></trkpt><trkpt lat="32.2506828" lon="-110.8922283"><ele>751.0</ele><time>2026-05-02T17:51:14.42Z</time></trkpt><trkpt lat="32.2506804" lon="-110.892313"><ele>751.0</ele><time>2026-05-02T17:51:15.421Z</time></trkpt><trkpt lat="32.2506797" lon="-110.8924196"><ele>751.0</ele><time>2026-05-02T17:51:17.42Z</time></trkpt><trkpt lat="32.2506629" lon="-110.8925077"><ele>751.0</ele><time>2026-05-02T17:51:28.42Z</time></trkpt><trkpt lat="32.2506413" lon="-110.8925847"><ele>750.8</ele><time>2026-05-02T17:51:29.421Z</time></trkpt><trkpt lat="32.2506032" lon="-110.8926638"><ele>750.5999999999999</ele><time>2026-05-02T17:51:30.421Z</time></trkpt><trkpt lat="32.2505276" lon="-110.8927082"><ele>750.4</ele><time>2026-05-02T17:51:31.421Z</time></trkpt><trkpt lat="32.2504325" lon="-110.8927305"><ele>750.2</ele><time>2026-05-02T17:51:32.421Z</time></trkpt><trkpt lat="32.2503146" lon="-110.8927403"><ele>750.0</ele><time>2026-05-02T17:51:33.421Z</time></trkpt><trkpt lat="32.2501732" lon="-110.8927495"><ele>750.0</ele><time>2026-05-02T17:51:34.421Z</time></trkpt><trkpt lat="32.2499902" lon="-110.8927571"><ele>750.0</ele><time>2026-05-02T17:51:35.42Z</time></trkpt><trkpt lat="32.2497805" lon="-110.8927597"><ele>750.0</ele><time>2026-05-02T17:51:36.42Z</time></trkpt><trkpt lat="32.249558" lon="-110.8927574"><ele>750.6666666666666</ele><time>2026-05-02T17:51:37.421Z</time></trkpt><trkpt lat="32.2493369" lon="-110.8927539"><ele>751.3333333333333</ele><time>2026-05-02T17:51:38.42Z</time></trkpt><trkpt lat="32.2491202" lon="-110.8927471"><ele>752.0</ele><time>2026-05-02T17:51:39.421Z</time></trkpt><trkpt lat="32.2489079" lon="-110.8927404"><ele>752.0</ele><time>2026-05-02T17:51:40.42Z</time></trkpt><trkpt lat="32.2486993" lon="-110.8927348"><ele>752.0</ele><time>2026-05-02T17:51:41.42Z</time></trkpt><trkpt lat="32.2484937" lon="-110.8927328"><ele>752.0</ele><time>2026-05-02T17:51:42.42Z</time></trkpt><trkpt lat="32.2482846" lon="-110.8927317"><ele>751.6666666666666</ele><time>2026-05-02T17:51:43.421Z</time></trkpt><trkpt lat="32.2480757" lon="-110.8927272"><ele>751.3333333333334</ele><time>2026-05-02T17:51:44.42Z</time></trkpt><trkpt lat="32.2478657" lon="-110.8927214"><ele>751.0</ele><time>2026-05-02T17:51:45.42Z</time></trkpt><trkpt lat="32.2476545" lon="-110.8927189"><ele>751.0</ele><time>2026-05-02T17:51:46.421Z</time></trkpt><trkpt lat="32.2474441" lon="-110.8927158"><ele>751.0</ele><time>2026-05-02T17:51:47.421Z</time></trkpt><trkpt lat="32.2472339" lon="-110.8927145"><ele>751.0</ele><time>2026-05-02T17:51:48.42Z</time></trkpt><trkpt lat="32.2470268" lon="-110.8927182"><ele>750.6666666666667</ele><time>2026-05-02T17:51:49.42Z</time></trkpt><trkpt lat="32.2468238" lon="-110.8927196"><ele>750.3333333333334</ele><time>2026-05-02T17:51:50.42Z</time></trkpt><trkpt lat="32.2466222" lon="-110.8927202"><ele>750.0</ele><time>2026-05-02T17:51:51.42Z</time></trkpt><trkpt lat="32.2464225" lon="-110.8927217"><ele>751.3333333333334</ele><time>2026-05-02T17:51:52.421Z</time></trkpt><trkpt lat="32.2462264" lon="-110.8927241"><ele>752.6666666666667</ele><time>2026-05-02T17:51:53.421Z</time></trkpt><trkpt lat="32.2460318" lon="-110.8927249"><ele>754.0</ele><time>2026-05-02T17:51:54.421Z</time></trkpt><trkpt lat="32.2458442" lon="-110.8927267"><ele>754.0</ele><time>2026-05-02T17:51:55.42Z</time></trkpt><trkpt lat="32.2456635" lon="-110.8927283"><ele>754.0</ele><time>2026-05-02T17:51:56.42Z</time></trkpt><trkpt lat="32.2454908" lon="-110.8927311"><ele>754.0</ele><time>2026-05-02T17:51:57.42Z</time></trkpt><trkpt lat="32.2453233" lon="-110.892735"><ele>754.6666666666667</ele><time>2026-05-02T17:51:58.42Z</time></trkpt><trkpt lat="32.2451598" lon="-110.8927388"><ele>755.3333333333334</ele><time>2026-05-02T17:51:59.42Z</time></trkpt><trkpt lat="32.2449973" lon="-110.892741"><ele>756.0</ele><time>2026-05-02T17:52:00.421Z</time></trkpt><trkpt lat="32.2448398" lon="-110.8927421"><ele>756.0</ele><time>2026-05-02T17:52:01.421Z</time></trkpt><trkpt lat="32.2446908" lon="-110.8927424"><ele>756.0</ele><time>2026-05-02T17:52:02.42Z</time></trkpt><trkpt lat="32.2445448" lon="-110.892743"><ele>756.0</ele><time>2026-05-02T17:52:03.421Z</time></trkpt><trkpt lat="32.244406" lon="-110.8927429"><ele>756.0</ele><time>2026-05-02T17:52:04.421Z</time></trkpt><trkpt lat="32.2442844" lon="-110.8927427"><ele>756.0</ele><time>2026-05-02T17:52:05.421Z</time></trkpt><trkpt lat="32.2441775" lon="-110.8927375"><ele>756.0</ele><time>2026-05-02T17:52:06.42Z</time></trkpt><trkpt lat="32.2440784" lon="-110.8927252"><ele>756.0</ele><time>2026-05-02T17:52:07.421Z</time></trkpt><trkpt lat="32.2439859" lon="-110.8927132"><ele>756.0</ele><time>2026-05-02T17:52:08.42Z</time></trkpt><trkpt lat="32.2439023" lon="-110.8927064"><ele>756.0</ele><time>2026-05-02T17:52:09.421Z</time></trkpt><trkpt lat="32.2438231" lon="-110.892702"><ele>756.4</ele><time>2026-05-02T17:52:10.421Z</time></trkpt><trkpt lat="32.2437139" lon="-110.8927"><ele>756.8</ele><time>2026-05-02T17:52:12.421Z</time></trkpt><trkpt lat="32.2436421" lon="-110.8926963"><ele>757.1999999999999</ele><time>2026-05-02T17:52:15.421Z</time></trkpt><trkpt lat="32.2435261" lon="-110.8926912"><ele>757.5999999999999</ele><time>2026-05-02T17:52:43.422Z</time></trkpt><trkpt lat="32.2434418" lon="-110.8926908"><ele>758.0</ele><time>2026-05-02T17:52:44.42Z</time></trkpt><trkpt lat="32.2433393" lon="-110.8926879"><ele>758.0</ele><time>2026-05-02T17:52:45.421Z</time></trkpt><trkpt lat="32.2432122" lon="-110.8926869"><ele>758.0</ele><time>2026-05-02T17:52:46.421Z</time></trkpt><trkpt lat="32.2430692" lon="-110.8926853"><ele>758.0</ele><time>2026-05-02T17:52:47.42Z</time></trkpt><trkpt lat="32.242904" lon="-110.8926863"><ele>758.0</ele><time>2026-05-02T17:52:48.421Z</time></trkpt><trkpt lat="32.2427191" lon="-110.8926884"><ele>758.0</ele><time>2026-05-02T17:52:49.42Z</time></trkpt><trkpt lat="32.2425153" lon="-110.8926934"><ele>758.0</ele><time>2026-05-02T17:52:50.421Z</time></trkpt><trkpt lat="32.2422903" lon="-110.892706"><ele>758.0</ele><time>2026-05-02T17:52:51.421Z</time></trkpt><trkpt lat="32.2420552" lon="-110.8927129"><ele>758.0</ele><time>2026-05-02T17:52:52.42Z</time></trkpt><trkpt lat="32.2418285" lon="-110.8927145"><ele>758.0</ele><time>2026-05-02T17:52:53.422Z</time></trkpt><trkpt lat="32.2416117" lon="-110.8927118"><ele>758.0</ele><time>2026-05-02T17:52:54.422Z</time></trkpt><trkpt lat="32.2414002" lon="-110.8927079"><ele>758.6666666666666</ele><time>2026-05-02T17:52:55.422Z</time></trkpt><trkpt lat="32.2411953" lon="-110.8927051"><ele>759.3333333333334</ele><time>2026-05-02T17:52:56.421Z</time></trkpt><trkpt lat="32.2409917" lon="-110.8927057"><ele>760.0</ele><time>2026-05-02T17:52:57.422Z</time></trkpt><trkpt lat="32.2407933" lon="-110.8927064"><ele>759.0</ele><time>2026-05-02T17:52:58.422Z</time></trkpt><trkpt lat="32.2405961" lon="-110.8927068"><ele>758.0</ele><time>2026-05-02T17:52:59.421Z</time></trkpt><trkpt lat="32.2404004" lon="-110.8927068"><ele>757.0</ele><time>2026-05-02T17:53:00.421Z</time></trkpt><trkpt lat="32.2402061" lon="-110.8927044"><ele>757.0</ele><time>2026-05-02T17:53:01.422Z</time></trkpt><trkpt lat="32.2400141" lon="-110.8927023"><ele>757.0</ele><time>2026-05-02T17:53:02.421Z</time></trkpt><trkpt lat="32.2398237" lon="-110.8927047"><ele>757.0</ele><time>2026-05-02T17:53:03.422Z</time></trkpt><trkpt lat="32.239635" lon="-110.8927069"><ele>757.6666666666667</ele><time>2026-05-02T17:53:04.421Z</time></trkpt><trkpt lat="32.2394474" lon="-110.8927087"><ele>758.3333333333334</ele><time>2026-05-02T17:53:05.421Z</time></trkpt><trkpt lat="32.2392575" lon="-110.8927112"><ele>759.0</ele><time>2026-05-02T17:53:06.422Z</time></trkpt><trkpt lat="32.2390668" lon="-110.8927125"><ele>760.0</ele><time>2026-05-02T17:53:07.422Z</time></trkpt><trkpt lat="32.2388723" lon="-110.8927135"><ele>761.0</ele><time>2026-05-02T17:53:08.422Z</time></trkpt><trkpt lat="32.238676" lon="-110.8927128"><ele>762.0</ele><time>2026-05-02T17:53:09.421Z</time></trkpt><trkpt lat="32.2384848" lon="-110.8927106"><ele>762.0</ele><time>2026-05-02T17:53:10.421Z</time></trkpt><trkpt lat="32.2382981" lon="-110.8927082"><ele>762.0</ele><time>2026-05-02T17:53:11.422Z</time></trkpt><trkpt lat="32.2381168" lon="-110.8927072"><ele>762.0</ele><time>2026-05-02T17:53:12.422Z</time></trkpt><trkpt lat="32.2379383" lon="-110.892707"><ele>762.3333333333334</ele><time>2026-05-02T17:53:13.422Z</time></trkpt><trkpt lat="32.2377645" lon="-110.8927052"><ele>762.6666666666667</ele><time>2026-05-02T17:53:14.421Z</time></trkpt><trkpt lat="32.2376021" lon="-110.8927048"><ele>763.0</ele><time>2026-05-02T17:53:15.421Z</time></trkpt><trkpt lat="32.2374488" lon="-110.8927073"><ele>762.75</ele><time>2026-05-02T17:53:16.422Z</time></trkpt><trkpt lat="32.2372979" lon="-110.8927154"><ele>762.5</ele><time>2026-05-02T17:53:17.421Z</time></trkpt><trkpt lat="32.2371492" lon="-110.8927289"><ele>762.25</ele><time>2026-05-02T17:53:18.421Z</time></trkpt><trkpt lat="32.2370074" lon="-110.8927454"><ele>762.0</ele><time>2026-05-02T17:53:19.421Z</time></trkpt><trkpt lat="32.2368742" lon="-110.8927582"><ele>762.0</ele><time>2026-05-02T17:53:20.421Z</time></trkpt><trkpt lat="32.2367529" lon="-110.892766"><ele>762.0</ele><time>2026-05-02T17:53:21.422Z</time></trkpt><trkpt lat="32.2366305" lon="-110.8927621"><ele>762.0</ele><time>2026-05-02T17:53:22.422Z</time></trkpt><trkpt lat="32.2365386" lon="-110.8927624"><ele>762.0</ele><time>2026-05-02T17:53:23.421Z</time></trkpt><trkpt lat="32.2364665" lon="-110.8927625"><ele>762.0</ele><time>2026-05-02T17:53:24.421Z</time></trkpt><trkpt lat="32.2363901" lon="-110.8927702"><ele>762.4000000000001</ele><time>2026-05-02T17:53:26.421Z</time></trkpt><trkpt lat="32.2363318" lon="-110.8928823"><ele>762.8000000000001</ele><time>2026-05-02T17:53:33.421Z</time></trkpt><trkpt lat="32.2363168" lon="-110.8929662"><ele>763.2</ele><time>2026-05-02T17:53:34.421Z</time></trkpt><trkpt lat="32.2363067" lon="-110.8930655"><ele>763.6</ele><time>2026-05-02T17:53:35.422Z</time></trkpt><trkpt lat="32.2363114" lon="-110.8932111"><ele>764.0</ele><time>2026-05-02T17:53:36.421Z</time></trkpt><trkpt lat="32.2363156" lon="-110.8933616"><ele>763.0</ele><time>2026-05-02T17:53:37.422Z</time></trkpt><trkpt lat="32.2363178" lon="-110.8935225"><ele>762.0</ele><time>2026-05-02T17:53:38.422Z</time></trkpt><trkpt lat="32.2363083" lon="-110.8936947"><ele>761.0</ele><time>2026-05-02T17:53:39.422Z</time></trkpt><trkpt lat="32.2362976" lon="-110.8938874"><ele>760.0</ele><time>2026-05-02T17:53:40.421Z</time></trkpt><trkpt lat="32.2362859" lon="-110.8941071"><ele>759.5</ele><time>2026-05-02T17:53:41.421Z</time></trkpt><trkpt lat="32.2362823" lon="-110.894367"><ele>759.0</ele><time>2026-05-02T17:53:42.421Z</time></trkpt><trkpt lat="32.2362842" lon="-110.894651"><ele>759.0</ele><time>2026-05-02T17:53:43.421Z</time></trkpt><trkpt lat="32.236283" lon="-110.8949324"><ele>759.0</ele><time>2026-05-02T17:53:44.421Z</time></trkpt><trkpt lat="32.2362824" lon="-110.8952029"><ele>759.0</ele><time>2026-05-02T17:53:45.422Z</time></trkpt><trkpt lat="32.2362813" lon="-110.8954713"><ele>759.0</ele><time>2026-05-02T17:53:46.421Z</time></trkpt><trkpt lat="32.2362786" lon="-110.8957383"><ele>759.6666666666666</ele><time>2026-05-02T17:53:47.421Z</time></trkpt><trkpt lat="32.2362782" lon="-110.8959981"><ele>760.3333333333333</ele><time>2026-05-02T17:53:48.421Z</time></trkpt><trkpt lat="32.2362754" lon="-110.896266"><ele>761.0</ele><time>2026-05-02T17:53:49.421Z</time></trkpt><trkpt lat="32.2362746" lon="-110.8965434"><ele>760.0</ele><time>2026-05-02T17:53:50.421Z</time></trkpt><trkpt lat="32.2362747" lon="-110.8968159"><ele>759.0</ele><time>2026-05-02T17:53:51.421Z</time></trkpt><trkpt lat="32.2362762" lon="-110.8970762"><ele>759.0</ele><time>2026-05-02T17:53:52.423Z</time></trkpt><trkpt lat="32.2362748" lon="-110.8973277"><ele>759.0</ele><time>2026-05-02T17:53:53.422Z</time></trkpt><trkpt lat="32.2362741" lon="-110.8975699"><ele>759.0</ele><time>2026-05-02T17:53:54.422Z</time></trkpt><trkpt lat="32.2362726" lon="-110.8978087"><ele>758.3333333333334</ele><time>2026-05-02T17:53:55.421Z</time></trkpt><trkpt lat="32.2362733" lon="-110.8980443"><ele>757.6666666666667</ele><time>2026-05-02T17:53:56.422Z</time></trkpt><trkpt lat="32.2362747" lon="-110.8982809"><ele>757.0</ele><time>2026-05-02T17:53:57.422Z</time></trkpt><trkpt lat="32.236273" lon="-110.8985166"><ele>757.0</ele><time>2026-05-02T17:53:58.421Z</time></trkpt><trkpt lat="32.2362708" lon="-110.8987545"><ele>757.0</ele><time>2026-05-02T17:53:59.421Z</time></trkpt><trkpt lat="32.2362657" lon="-110.8989898"><ele>757.0</ele><time>2026-05-02T17:54:00.422Z</time></trkpt><trkpt lat="32.2362629" lon="-110.8992212"><ele>757.3333333333334</ele><time>2026-05-02T17:54:01.422Z</time></trkpt><trkpt lat="32.2362639" lon="-110.8994521"><ele>757.6666666666666</ele><time>2026-05-02T17:54:02.421Z</time></trkpt><trkpt lat="32.2362646" lon="-110.8996808"><ele>758.0</ele><time>2026-05-02T17:54:03.422Z</time></trkpt><trkpt lat="32.2362653" lon="-110.8999123"><ele>758.0</ele><time>2026-05-02T17:54:04.421Z</time></trkpt><trkpt lat="32.2362652" lon="-110.9001433"><ele>758.0</ele><time>2026-05-02T17:54:05.421Z</time></trkpt><trkpt lat="32.2362665" lon="-110.9003764"><ele>758.0</ele><time>2026-05-02T17:54:06.421Z</time></trkpt><trkpt lat="32.2362686" lon="-110.9006138"><ele>758.0</ele><time>2026-05-02T17:54:07.421Z</time></trkpt><trkpt lat="32.2362691" lon="-110.9008489"><ele>758.0</ele><time>2026-05-02T17:54:08.422Z</time></trkpt><trkpt lat="32.2362646" lon="-110.9010823"><ele>758.0</ele><time>2026-05-02T17:54:09.422Z</time></trkpt><trkpt lat="32.2362601" lon="-110.9013144"><ele>758.0</ele><time>2026-05-02T17:54:10.422Z</time></trkpt><trkpt lat="32.236258" lon="-110.9015518"><ele>758.0</ele><time>2026-05-02T17:54:11.422Z</time></trkpt><trkpt lat="32.2362575" lon="-110.9017884"><ele>758.0</ele><time>2026-05-02T17:54:12.422Z</time></trkpt><trkpt lat="32.2362591" lon="-110.9020266"><ele>758.3333333333333</ele><time>2026-05-02T17:54:13.421Z</time></trkpt><trkpt lat="32.2362611" lon="-110.9022659"><ele>758.6666666666666</ele><time>2026-05-02T17:54:14.423Z</time></trkpt><trkpt lat="32.2362626" lon="-110.9025066"><ele>759.0</ele><time>2026-05-02T17:54:15.423Z</time></trkpt><trkpt lat="32.2362644" lon="-110.9027456"><ele>759.3333333333334</ele><time>2026-05-02T17:54:16.423Z</time></trkpt><trkpt lat="32.2362648" lon="-110.9029869"><ele>759.6666666666667</ele><time>2026-05-02T17:54:17.421Z</time></trkpt><trkpt lat="32.2362655" lon="-110.9032352"><ele>760.0</ele><time>2026-05-02T17:54:18.422Z</time></trkpt><trkpt lat="32.2362639" lon="-110.9034819"><ele>760.6666666666667</ele><time>2026-05-02T17:54:19.423Z</time></trkpt><trkpt lat="32.236263" lon="-110.9037271"><ele>761.3333333333334</ele><time>2026-05-02T17:54:20.421Z</time></trkpt><trkpt lat="32.2362618" lon="-110.9039706"><ele>762.0</ele><time>2026-05-02T17:54:21.422Z</time></trkpt><trkpt lat="32.2362629" lon="-110.9042123"><ele>761.6666666666666</ele><time>2026-05-02T17:54:22.421Z</time></trkpt><trkpt lat="32.2362641" lon="-110.9044537"><ele>761.3333333333333</ele><time>2026-05-02T17:54:23.422Z</time></trkpt><trkpt lat="32.236264" lon="-110.9046882"><ele>761.0</ele><time>2026-05-02T17:54:24.422Z</time></trkpt><trkpt lat="32.2362651" lon="-110.9049145"><ele>761.0</ele><time>2026-05-02T17:54:25.421Z</time></trkpt><trkpt lat="32.2362643" lon="-110.9051325"><ele>761.0</ele><time>2026-05-02T17:54:26.423Z</time></trkpt><trkpt lat="32.2362628" lon="-110.905347"><ele>761.0</ele><time>2026-05-02T17:54:27.421Z</time></trkpt><trkpt lat="32.2362614" lon="-110.9055567"><ele>761.0</ele><time>2026-05-02T17:54:28.421Z</time></trkpt><trkpt lat="32.2362611" lon="-110.9057631"><ele>761.0</ele><time>2026-05-02T17:54:29.422Z</time></trkpt><trkpt lat="32.2362601" lon="-110.9059674"><ele>761.0</ele><time>2026-05-02T17:54:30.422Z</time></trkpt><trkpt lat="32.2362581" lon="-110.9061645"><ele>760.3333333333333</ele><time>2026-05-02T17:54:31.422Z</time></trkpt><trkpt lat="32.2362583" lon="-110.9063563"><ele>759.6666666666666</ele><time>2026-05-02T17:54:32.422Z</time></trkpt><trkpt lat="32.2362573" lon="-110.9065435"><ele>759.0</ele><time>2026-05-02T17:54:33.422Z</time></trkpt><trkpt lat="32.2362575" lon="-110.906725"><ele>758.3333333333334</ele><time>2026-05-02T17:54:34.421Z</time></trkpt><trkpt lat="32.2362586" lon="-110.9069051"><ele>757.6666666666667</ele><time>2026-05-02T17:54:35.421Z</time></trkpt><trkpt lat="32.2362601" lon="-110.907085"><ele>757.0</ele><time>2026-05-02T17:54:36.423Z</time></trkpt><trkpt lat="32.2362596" lon="-110.9072668"><ele>757.0</ele><time>2026-05-02T17:54:37.423Z</time></trkpt><trkpt lat="32.2362609" lon="-110.9074458"><ele>757.0</ele><time>2026-05-02T17:54:38.421Z</time></trkpt><trkpt lat="32.2362642" lon="-110.9076287"><ele>757.0</ele><time>2026-05-02T17:54:39.422Z</time></trkpt><trkpt lat="32.2362642" lon="-110.9078091"><ele>756.6666666666667</ele><time>2026-05-02T17:54:40.422Z</time></trkpt><trkpt lat="32.236265" lon="-110.9079938"><ele>756.3333333333334</ele><time>2026-05-02T17:54:41.422Z</time></trkpt><trkpt lat="32.2362661" lon="-110.9081814"><ele>756.0</ele><time>2026-05-02T17:54:42.423Z</time></trkpt><trkpt lat="32.2362672" lon="-110.9083657"><ele>757.3333333333334</ele><time>2026-05-02T17:54:43.422Z</time></trkpt><trkpt lat="32.2362715" lon="-110.9085467"><ele>758.6666666666667</ele><time>2026-05-02T17:54:44.422Z</time></trkpt><trkpt lat="32.236276" lon="-110.9087266"><ele>760.0</ele><time>2026-05-02T17:54:45.423Z</time></trkpt><trkpt lat="32.2362775" lon="-110.9089055"><ele>760.0</ele><time>2026-05-02T17:54:46.423Z</time></trkpt><trkpt lat="32.2362821" lon="-110.9090895"><ele>760.0</ele><time>2026-05-02T17:54:47.422Z</time></trkpt><trkpt lat="32.2362876" lon="-110.9092876"><ele>760.0</ele><time>2026-05-02T17:54:48.422Z</time></trkpt><trkpt lat="32.2362959" lon="-110.909507"><ele>760.0</ele><time>2026-05-02T17:54:49.423Z</time></trkpt><trkpt lat="32.2363018" lon="-110.9097291"><ele>760.0</ele><time>2026-05-02T17:54:50.422Z</time></trkpt><trkpt lat="32.2363018" lon="-110.9099368"><ele>760.0</ele><time>2026-05-02T17:54:51.422Z</time></trkpt><trkpt lat="32.2362972" lon="-110.9101313"><ele>759.0</ele><time>2026-05-02T17:54:52.422Z</time></trkpt><trkpt lat="32.2362924" lon="-110.9103193"><ele>758.0</ele><time>2026-05-02T17:54:53.423Z</time></trkpt><trkpt lat="32.2362883" lon="-110.9105109"><ele>757.0</ele><time>2026-05-02T17:54:54.422Z</time></trkpt><trkpt lat="32.2362858" lon="-110.9107018"><ele>757.0</ele><time>2026-05-02T17:54:55.423Z</time></trkpt><trkpt lat="32.2362856" lon="-110.9108838"><ele>757.0</ele><time>2026-05-02T17:54:56.423Z</time></trkpt><trkpt lat="32.236285" lon="-110.9110581"><ele>757.0</ele><time>2026-05-02T17:54:57.423Z</time></trkpt><trkpt lat="32.23628" lon="-110.9112357"><ele>757.3333333333334</ele><time>2026-05-02T17:54:58.422Z</time></trkpt><trkpt lat="32.2362709" lon="-110.9114262"><ele>757.6666666666666</ele><time>2026-05-02T17:54:59.422Z</time></trkpt><trkpt lat="32.2362624" lon="-110.911622"><ele>758.0</ele><time>2026-05-02T17:55:00.423Z</time></trkpt><trkpt lat="32.2362616" lon="-110.9118108"><ele>758.0</ele><time>2026-05-02T17:55:01.423Z</time></trkpt><trkpt lat="32.2362633" lon="-110.9119948"><ele>758.0</ele><time>2026-05-02T17:55:02.423Z</time></trkpt><trkpt lat="32.2362658" lon="-110.9121657"><ele>758.0</ele><time>2026-05-02T17:55:03.422Z</time></trkpt><trkpt lat="32.2362661" lon="-110.9123296"><ele>758.0</ele><time>2026-05-02T17:55:04.422Z</time></trkpt><trkpt lat="32.2362657" lon="-110.9124898"><ele>757.75</ele><time>2026-05-02T17:55:05.422Z</time></trkpt><trkpt lat="32.2362643" lon="-110.9126491"><ele>757.5</ele><time>2026-05-02T17:55:06.423Z</time></trkpt><trkpt lat="32.2362634" lon="-110.9128093"><ele>757.25</ele><time>2026-05-02T17:55:07.422Z</time></trkpt><trkpt lat="32.2362629" lon="-110.9129758"><ele>757.0</ele><time>2026-05-02T17:55:08.423Z</time></trkpt><trkpt lat="32.2362613" lon="-110.9131463"><ele>757.0</ele><time>2026-05-02T17:55:09.422Z</time></trkpt><trkpt lat="32.2362588" lon="-110.9133195"><ele>757.0</ele><time>2026-05-02T17:55:10.423Z</time></trkpt><trkpt lat="32.2362569" lon="-110.9134941"><ele>757.0</ele><time>2026-05-02T17:55:11.422Z</time></trkpt><trkpt lat="32.2362565" lon="-110.9136705"><ele>757.0</ele><time>2026-05-02T17:55:12.422Z</time></trkpt><trkpt lat="32.2362539" lon="-110.9138492"><ele>756.3333333333334</ele><time>2026-05-02T17:55:13.423Z</time></trkpt><trkpt lat="32.2362525" lon="-110.9140361"><ele>755.6666666666666</ele><time>2026-05-02T17:55:14.422Z</time></trkpt><trkpt lat="32.2362525" lon="-110.9142308"><ele>755.0</ele><time>2026-05-02T17:55:15.422Z</time></trkpt><trkpt lat="32.2362516" lon="-110.914428"><ele>754.6666666666666</ele><time>2026-05-02T17:55:16.422Z</time></trkpt><trkpt lat="32.2362498" lon="-110.9146302"><ele>754.3333333333334</ele><time>2026-05-02T17:55:17.423Z</time></trkpt><trkpt lat="32.23625" lon="-110.9148299"><ele>754.0</ele><time>2026-05-02T17:55:18.423Z</time></trkpt><trkpt lat="32.2362504" lon="-110.9150254"><ele>753.3333333333334</ele><time>2026-05-02T17:55:19.423Z</time></trkpt><trkpt lat="32.23625" lon="-110.9152167"><ele>752.6666666666666</ele><time>2026-05-02T17:55:20.422Z</time></trkpt><trkpt lat="32.2362494" lon="-110.915403"><ele>752.0</ele><time>2026-05-02T17:55:21.423Z</time></trkpt><trkpt lat="32.2362497" lon="-110.9155864"><ele>752.0</ele><time>2026-05-02T17:55:22.423Z</time></trkpt><trkpt lat="32.2362487" lon="-110.9157689"><ele>752.0</ele><time>2026-05-02T17:55:23.422Z</time></trkpt><trkpt lat="32.2362457" lon="-110.9159554"><ele>752.0</ele><time>2026-05-02T17:55:24.423Z</time></trkpt><trkpt lat="32.2362417" lon="-110.9161422"><ele>752.6666666666666</ele><time>2026-05-02T17:55:25.422Z</time></trkpt><trkpt lat="32.2362395" lon="-110.9163288"><ele>753.3333333333334</ele><time>2026-05-02T17:55:26.423Z</time></trkpt><trkpt lat="32.2362358" lon="-110.9165216"><ele>754.0</ele><time>2026-05-02T17:55:27.422Z</time></trkpt><trkpt lat="32.2362336" lon="-110.916716"><ele>754.0</ele><time>2026-05-02T17:55:28.423Z</time></trkpt><trkpt lat="32.2362331" lon="-110.9169066"><ele>754.0</ele><time>2026-05-02T17:55:29.422Z</time></trkpt><trkpt lat="32.2362313" lon="-110.9170896"><ele>754.0</ele><time>2026-05-02T17:55:30.423Z</time></trkpt><trkpt lat="32.2362304" lon="-110.9172691"><ele>754.0</ele><time>2026-05-02T17:55:31.423Z</time></trkpt><trkpt lat="32.2362282" lon="-110.9174508"><ele>754.0</ele><time>2026-05-02T17:55:32.422Z</time></trkpt><trkpt lat="32.2362256" lon="-110.9176346"><ele>754.0</ele><time>2026-05-02T17:55:33.422Z</time></trkpt><trkpt lat="32.2362224" lon="-110.9178194"><ele>754.3333333333334</ele><time>2026-05-02T17:55:34.422Z</time></trkpt><trkpt lat="32.2362203" lon="-110.9180058"><ele>754.6666666666666</ele><time>2026-05-02T17:55:35.423Z</time></trkpt><trkpt lat="32.2362195" lon="-110.9181914"><ele>755.0</ele><time>2026-05-02T17:55:36.423Z</time></trkpt><trkpt lat="32.2362187" lon="-110.918374"><ele>754.25</ele><time>2026-05-02T17:55:37.422Z</time></trkpt><trkpt lat="32.2362187" lon="-110.918551"><ele>753.5</ele><time>2026-05-02T17:55:38.422Z</time></trkpt><trkpt lat="32.2362193" lon="-110.9187187"><ele>752.75</ele><time>2026-05-02T17:55:39.423Z</time></trkpt><trkpt lat="32.2362185" lon="-110.9188791"><ele>752.0</ele><time>2026-05-02T17:55:40.422Z</time></trkpt><trkpt lat="32.2362176" lon="-110.9190351"><ele>752.0</ele><time>2026-05-02T17:55:41.422Z</time></trkpt><trkpt lat="32.2362254" lon="-110.9191963"><ele>752.0</ele><time>2026-05-02T17:55:42.423Z</time></trkpt><trkpt lat="32.2362378" lon="-110.919369"><ele>752.0</ele><time>2026-05-02T17:55:43.423Z</time></trkpt><trkpt lat="32.2362471" lon="-110.9195541"><ele>752.0</ele><time>2026-05-02T17:55:44.422Z</time></trkpt><trkpt lat="32.2362486" lon="-110.9197393"><ele>751.75</ele><time>2026-05-02T17:55:45.423Z</time></trkpt><trkpt lat="32.2362477" lon="-110.9199148"><ele>751.5</ele><time>2026-05-02T17:55:46.423Z</time></trkpt><trkpt lat="32.2362389" lon="-110.9200811"><ele>751.25</ele><time>2026-05-02T17:55:47.423Z</time></trkpt><trkpt lat="32.2362356" lon="-110.9202482"><ele>751.0</ele><time>2026-05-02T17:55:48.422Z</time></trkpt><trkpt lat="32.2362368" lon="-110.9204167"><ele>751.0</ele><time>2026-05-02T17:55:49.422Z</time></trkpt><trkpt lat="32.2362361" lon="-110.920594"><ele>751.0</ele><time>2026-05-02T17:55:50.423Z</time></trkpt><trkpt lat="32.236235" lon="-110.9207688"><ele>751.0</ele><time>2026-05-02T17:55:51.423Z</time></trkpt><trkpt lat="32.2362344" lon="-110.9209469"><ele>751.0</ele><time>2026-05-02T17:55:52.422Z</time></trkpt><trkpt lat="32.2362326" lon="-110.9211243"><ele>750.6666666666667</ele><time>2026-05-02T17:55:53.423Z</time></trkpt><trkpt lat="32.23623" lon="-110.9213048"><ele>750.3333333333334</ele><time>2026-05-02T17:55:54.422Z</time></trkpt><trkpt lat="32.2362319" lon="-110.92148"><ele>750.0</ele><time>2026-05-02T17:55:55.423Z</time></trkpt><trkpt lat="32.2362318" lon="-110.9216575"><ele>749.75</ele><time>2026-05-02T17:55:56.422Z</time></trkpt><trkpt lat="32.2362306" lon="-110.9218351"><ele>749.5</ele><time>2026-05-02T17:55:57.422Z</time></trkpt><trkpt lat="32.2362262" lon="-110.922009"><ele>749.25</ele><time>2026-05-02T17:55:58.423Z</time></trkpt><trkpt lat="32.2362263" lon="-110.922181"><ele>749.0</ele><time>2026-05-02T17:55:59.422Z</time></trkpt><trkpt lat="32.2362261" lon="-110.9223537"><ele>749.0</ele><time>2026-05-02T17:56:00.424Z</time></trkpt><trkpt lat="32.2362262" lon="-110.9225264"><ele>749.0</ele><time>2026-05-02T17:56:01.423Z</time></trkpt><trkpt lat="32.2362273" lon="-110.9226945"><ele>749.0</ele><time>2026-05-02T17:56:02.424Z</time></trkpt><trkpt lat="32.2362273" lon="-110.9228555"><ele>749.0</ele><time>2026-05-02T17:56:03.423Z</time></trkpt><trkpt lat="32.2362262" lon="-110.923016"><ele>749.5</ele><time>2026-05-02T17:56:04.423Z</time></trkpt><trkpt lat="32.2362198" lon="-110.9231796"><ele>750.0</ele><time>2026-05-02T17:56:05.424Z</time></trkpt><trkpt lat="32.2362089" lon="-110.9233446"><ele>750.5</ele><time>2026-05-02T17:56:06.423Z</time></trkpt><trkpt lat="32.2361962" lon="-110.9235102"><ele>751.0</ele><time>2026-05-02T17:56:07.423Z</time></trkpt><trkpt lat="32.2361842" lon="-110.9236714"><ele>751.0</ele><time>2026-05-02T17:56:08.423Z</time></trkpt><trkpt lat="32.236172" lon="-110.9238251"><ele>751.0</ele><time>2026-05-02T17:56:09.422Z</time></trkpt><trkpt lat="32.2361636" lon="-110.9239715"><ele>751.0</ele><time>2026-05-02T17:56:10.422Z</time></trkpt><trkpt lat="32.2361586" lon="-110.9241081"><ele>751.0</ele><time>2026-05-02T17:56:11.423Z</time></trkpt><trkpt lat="32.2361581" lon="-110.9242314"><ele>751.0</ele><time>2026-05-02T17:56:12.424Z</time></trkpt><trkpt lat="32.2361641" lon="-110.9243292"><ele>751.0</ele><time>2026-05-02T17:56:13.424Z</time></trkpt><trkpt lat="32.2361666" lon="-110.9244096"><ele>751.0</ele><time>2026-05-02T17:56:14.422Z</time></trkpt><trkpt lat="32.2361666" lon="-110.9245177"><ele>751.0</ele><time>2026-05-02T17:56:16.423Z</time></trkpt><trkpt lat="32.2361649" lon="-110.9245984"><ele>751.0</ele><time>2026-05-02T17:56:18.422Z</time></trkpt><trkpt lat="32.2361451" lon="-110.9247237"><ele>751.0</ele><time>2026-05-02T17:56:22.423Z</time></trkpt><trkpt lat="32.2361374" lon="-110.9248174"><ele>751.0</ele><time>2026-05-02T17:56:23.424Z</time></trkpt><trkpt lat="32.2361333" lon="-110.9249392"><ele>751.0</ele><time>2026-05-02T17:56:25.422Z</time></trkpt><trkpt lat="32.2361369" lon="-110.9250311"><ele>751.0</ele><time>2026-05-02T17:56:28.423Z</time></trkpt><trkpt lat="32.2361588" lon="-110.9252721"><ele>751.0</ele><time>2026-05-02T17:56:36.424Z</time></trkpt><trkpt lat="32.2361512" lon="-110.9253723"><ele>751.3333333333334</ele><time>2026-05-02T17:56:37.423Z</time></trkpt><trkpt lat="32.2361482" lon="-110.9254577"><ele>751.6666666666667</ele><time>2026-05-02T17:56:38.423Z</time></trkpt><trkpt lat="32.2361449" lon="-110.9255378"><ele>752.0</ele><time>2026-05-02T17:56:39.423Z</time></trkpt><trkpt lat="32.2361342" lon="-110.9256902"><ele>752.3333333333334</ele><time>2026-05-02T17:56:41.423Z</time></trkpt><trkpt lat="32.2361326" lon="-110.92578"><ele>752.6666666666666</ele><time>2026-05-02T17:56:42.423Z</time></trkpt><trkpt lat="32.2361346" lon="-110.9258853"><ele>753.0</ele><time>2026-05-02T17:56:43.423Z</time></trkpt><trkpt lat="32.2361314" lon="-110.9260034"><ele>753.8</ele><time>2026-05-02T17:56:44.423Z</time></trkpt><trkpt lat="32.2361228" lon="-110.9261275"><ele>754.5999999999999</ele><time>2026-05-02T17:56:45.423Z</time></trkpt><trkpt lat="32.2361151" lon="-110.9262435"><ele>755.4000000000001</ele><time>2026-05-02T17:56:46.424Z</time></trkpt><trkpt lat="32.2361109" lon="-110.9263504"><ele>756.2</ele><time>2026-05-02T17:56:47.424Z</time></trkpt><trkpt lat="32.2361095" lon="-110.9264498"><ele>757.0</ele><time>2026-05-02T17:56:48.424Z</time></trkpt><trkpt lat="32.2361084" lon="-110.9265545"><ele>757.0</ele><time>2026-05-02T17:56:49.423Z</time></trkpt><trkpt lat="32.2361074" lon="-110.9266624"><ele>757.0</ele><time>2026-05-02T17:56:50.423Z</time></trkpt><trkpt lat="32.236105" lon="-110.9267703"><ele>757.0</ele><time>2026-05-02T17:56:51.424Z</time></trkpt><trkpt lat="32.2361036" lon="-110.9268787"><ele>757.0</ele><time>2026-05-02T17:56:52.423Z</time></trkpt><trkpt lat="32.2361039" lon="-110.9269931"><ele>757.0</ele><time>2026-05-02T17:56:53.424Z</time></trkpt><trkpt lat="32.2361056" lon="-110.9271186"><ele>756.75</ele><time>2026-05-02T17:56:54.424Z</time></trkpt><trkpt lat="32.2361059" lon="-110.9272491"><ele>756.5</ele><time>2026-05-02T17:56:55.423Z</time></trkpt><trkpt lat="32.2361063" lon="-110.9273849"><ele>756.25</ele><time>2026-05-02T17:56:56.423Z</time></trkpt><trkpt lat="32.2361084" lon="-110.9275214"><ele>756.0</ele><time>2026-05-02T17:56:57.423Z</time></trkpt><trkpt lat="32.2361128" lon="-110.9276597"><ele>755.75</ele><time>2026-05-02T17:56:58.423Z</time></trkpt><trkpt lat="32.23612" lon="-110.9277985"><ele>755.5</ele><time>2026-05-02T17:56:59.423Z</time></trkpt><trkpt lat="32.2361271" lon="-110.9279339"><ele>755.25</ele><time>2026-05-02T17:57:00.424Z</time></trkpt><trkpt lat="32.2361318" lon="-110.928068"><ele>755.0</ele><time>2026-05-02T17:57:01.424Z</time></trkpt><trkpt lat="32.2361341" lon="-110.9282045"><ele>755.0</ele><time>2026-05-02T17:57:02.424Z</time></trkpt><trkpt lat="32.2361343" lon="-110.9283424"><ele>755.0</ele><time>2026-05-02T17:57:03.423Z</time></trkpt><trkpt lat="32.2361339" lon="-110.9284766"><ele>755.0</ele><time>2026-05-02T17:57:04.423Z</time></trkpt><trkpt lat="32.2361309" lon="-110.9286009"><ele>755.0</ele><time>2026-05-02T17:57:05.423Z</time></trkpt><trkpt lat="32.2361297" lon="-110.928723"><ele>755.0</ele><time>2026-05-02T17:57:06.423Z</time></trkpt><trkpt lat="32.23613" lon="-110.9288445"><ele>755.5</ele><time>2026-05-02T17:57:07.423Z</time></trkpt><trkpt lat="32.2361302" lon="-110.9289671"><ele>756.0</ele><time>2026-05-02T17:57:08.424Z</time></trkpt><trkpt lat="32.2361299" lon="-110.9290983"><ele>756.5</ele><time>2026-05-02T17:57:09.423Z</time></trkpt><trkpt lat="32.2361291" lon="-110.9292412"><ele>757.0</ele><time>2026-05-02T17:57:10.424Z</time></trkpt><trkpt lat="32.2361287" lon="-110.929397"><ele>757.0</ele><time>2026-05-02T17:57:11.423Z</time></trkpt><trkpt lat="32.2361291" lon="-110.9295615"><ele>757.0</ele><time>2026-05-02T17:57:12.423Z</time></trkpt><trkpt lat="32.236129" lon="-110.9297249"><ele>757.0</ele><time>2026-05-02T17:57:13.424Z</time></trkpt><trkpt lat="32.2361283" lon="-110.9298836"><ele>757.0</ele><time>2026-05-02T17:57:14.424Z</time></trkpt><trkpt lat="32.2361267" lon="-110.93004"><ele>756.25</ele><time>2026-05-02T17:57:15.423Z</time></trkpt><trkpt lat="32.2361259" lon="-110.9301939"><ele>755.5</ele><time>2026-05-02T17:57:16.425Z</time></trkpt><trkpt lat="32.2361253" lon="-110.9303478"><ele>754.75</ele><time>2026-05-02T17:57:17.423Z</time></trkpt><trkpt lat="32.2361252" lon="-110.9305011"><ele>754.0</ele><time>2026-05-02T17:57:18.423Z</time></trkpt><trkpt lat="32.2361249" lon="-110.9306551"><ele>754.0</ele><time>2026-05-02T17:57:19.424Z</time></trkpt><trkpt lat="32.2361242" lon="-110.93081"><ele>754.0</ele><time>2026-05-02T17:57:20.424Z</time></trkpt><trkpt lat="32.2361241" lon="-110.9309638"><ele>754.0</ele><time>2026-05-02T17:57:21.424Z</time></trkpt><trkpt lat="32.2361239" lon="-110.931117"><ele>754.0</ele><time>2026-05-02T17:57:22.423Z</time></trkpt><trkpt lat="32.2361238" lon="-110.9312723"><ele>754.0</ele><time>2026-05-02T17:57:23.423Z</time></trkpt><trkpt lat="32.2361239" lon="-110.9314323"><ele>754.0</ele><time>2026-05-02T17:57:24.423Z</time></trkpt><trkpt lat="32.2361234" lon="-110.9315989"><ele>754.0</ele><time>2026-05-02T17:57:25.424Z</time></trkpt><trkpt lat="32.2361239" lon="-110.9317669"><ele>754.0</ele><time>2026-05-02T17:57:26.424Z</time></trkpt><trkpt lat="32.2361254" lon="-110.9319295"><ele>753.75</ele><time>2026-05-02T17:57:27.423Z</time></trkpt><trkpt lat="32.236128" lon="-110.9320917"><ele>753.5</ele><time>2026-05-02T17:57:28.424Z</time></trkpt><trkpt lat="32.2361314" lon="-110.9322562"><ele>753.25</ele><time>2026-05-02T17:57:29.424Z</time></trkpt><trkpt lat="32.2361346" lon="-110.9324292"><ele>753.0</ele><time>2026-05-02T17:57:30.424Z</time></trkpt><trkpt lat="32.2361382" lon="-110.9326072"><ele>753.0</ele><time>2026-05-02T17:57:31.424Z</time></trkpt><trkpt lat="32.2361422" lon="-110.9327806"><ele>753.0</ele><time>2026-05-02T17:57:32.424Z</time></trkpt><trkpt lat="32.2361461" lon="-110.9329536"><ele>753.0</ele><time>2026-05-02T17:57:33.424Z</time></trkpt><trkpt lat="32.2361491" lon="-110.9331278"><ele>753.0</ele><time>2026-05-02T17:57:34.424Z</time></trkpt><trkpt lat="32.2361521" lon="-110.9333023"><ele>752.75</ele><time>2026-05-02T17:57:35.423Z</time></trkpt><trkpt lat="32.2361546" lon="-110.9334733"><ele>752.5</ele><time>2026-05-02T17:57:36.423Z</time></trkpt><trkpt lat="32.2361575" lon="-110.9336427"><ele>752.25</ele><time>2026-05-02T17:57:37.423Z</time></trkpt><trkpt lat="32.2361615" lon="-110.9338103"><ele>752.0</ele><time>2026-05-02T17:57:38.423Z</time></trkpt><trkpt lat="32.2361661" lon="-110.9339758"><ele>752.0</ele><time>2026-05-02T17:57:39.424Z</time></trkpt><trkpt lat="32.2361698" lon="-110.9341414"><ele>752.0</ele><time>2026-05-02T17:57:40.423Z</time></trkpt><trkpt lat="32.2361734" lon="-110.9343075"><ele>752.0</ele><time>2026-05-02T17:57:41.424Z</time></trkpt><trkpt lat="32.2361758" lon="-110.9344764"><ele>752.0</ele><time>2026-05-02T17:57:42.424Z</time></trkpt><trkpt lat="32.2361777" lon="-110.9346458"><ele>752.25</ele><time>2026-05-02T17:57:43.424Z</time></trkpt><trkpt lat="32.2361783" lon="-110.9348141"><ele>752.5</ele><time>2026-05-02T17:57:44.424Z</time></trkpt><trkpt lat="32.2361783" lon="-110.934983"><ele>752.75</ele><time>2026-05-02T17:57:45.424Z</time></trkpt><trkpt lat="32.2361788" lon="-110.9351595"><ele>753.0</ele><time>2026-05-02T17:57:46.423Z</time></trkpt><trkpt lat="32.2361794" lon="-110.9353457"><ele>753.0</ele><time>2026-05-02T17:57:47.423Z</time></trkpt><trkpt lat="32.2361789" lon="-110.9355311"><ele>753.0</ele><time>2026-05-02T17:57:48.423Z</time></trkpt><trkpt lat="32.2361787" lon="-110.9357185"><ele>753.0</ele><time>2026-05-02T17:57:49.423Z</time></trkpt><trkpt lat="32.2361776" lon="-110.9359105"><ele>752.3333333333334</ele><time>2026-05-02T17:57:50.424Z</time></trkpt><trkpt lat="32.2361773" lon="-110.9361061"><ele>751.6666666666667</ele><time>2026-05-02T17:57:51.423Z</time></trkpt><trkpt lat="32.23618" lon="-110.9362956"><ele>751.0</ele><time>2026-05-02T17:57:52.424Z</time></trkpt><trkpt lat="32.2361831" lon="-110.9364851"><ele>751.0</ele><time>2026-05-02T17:57:53.424Z</time></trkpt><trkpt lat="32.2361887" lon="-110.936683"><ele>751.0</ele><time>2026-05-02T17:57:54.424Z</time></trkpt><trkpt lat="32.2361997" lon="-110.9369045"><ele>751.0</ele><time>2026-05-02T17:57:55.425Z</time></trkpt><trkpt lat="32.2362063" lon="-110.9371538"><ele>751.0</ele><time>2026-05-02T17:57:56.423Z</time></trkpt><trkpt lat="32.2362084" lon="-110.9374383"><ele>751.0</ele><time>2026-05-02T17:57:57.423Z</time></trkpt><trkpt lat="32.2362075" lon="-110.9377318"><ele>751.0</ele><time>2026-05-02T17:57:58.424Z</time></trkpt><trkpt lat="32.2362033" lon="-110.9380023"><ele>751.0</ele><time>2026-05-02T17:57:59.425Z</time></trkpt><trkpt lat="32.2361982" lon="-110.9382583"><ele>751.0</ele><time>2026-05-02T17:58:00.423Z</time></trkpt><trkpt lat="32.236194" lon="-110.9385075"><ele>751.6666666666667</ele><time>2026-05-02T17:58:01.425Z</time></trkpt><trkpt lat="32.2361893" lon="-110.9387484"><ele>752.3333333333334</ele><time>2026-05-02T17:58:02.424Z</time></trkpt><trkpt lat="32.2361849" lon="-110.9389853"><ele>753.0</ele><time>2026-05-02T17:58:03.424Z</time></trkpt><trkpt lat="32.2361831" lon="-110.9392246"><ele>753.3333333333334</ele><time>2026-05-02T17:58:04.423Z</time></trkpt><trkpt lat="32.2361816" lon="-110.9394656"><ele>753.6666666666667</ele><time>2026-05-02T17:58:05.424Z</time></trkpt><trkpt lat="32.2361813" lon="-110.9397032"><ele>754.0</ele><time>2026-05-02T17:58:06.425Z</time></trkpt><trkpt lat="32.2361818" lon="-110.9399371"><ele>753.3333333333334</ele><time>2026-05-02T17:58:07.424Z</time></trkpt><trkpt lat="32.2361834" lon="-110.9401651"><ele>752.6666666666666</ele><time>2026-05-02T17:58:08.423Z</time></trkpt><trkpt lat="32.23618" lon="-110.9403936"><ele>752.0</ele><time>2026-05-02T17:58:09.423Z</time></trkpt><trkpt lat="32.2361802" lon="-110.9406112"><ele>752.0</ele><time>2026-05-02T17:58:10.425Z</time></trkpt><trkpt lat="32.2361816" lon="-110.9408242"><ele>752.0</ele><time>2026-05-02T17:58:11.423Z</time></trkpt><trkpt lat="32.2361849" lon="-110.9410493"><ele>752.0</ele><time>2026-05-02T17:58:12.424Z</time></trkpt><trkpt lat="32.2361799" lon="-110.9412844"><ele>752.3333333333333</ele><time>2026-05-02T17:58:13.423Z</time></trkpt><trkpt lat="32.2361746" lon="-110.9415129"><ele>752.6666666666666</ele><time>2026-05-02T17:58:14.424Z</time></trkpt><trkpt lat="32.2361661" lon="-110.9417371"><ele>753.0</ele><time>2026-05-02T17:58:15.424Z</time></trkpt><trkpt lat="32.2361536" lon="-110.9419397"><ele>752.25</ele><time>2026-05-02T17:58:16.425Z</time></trkpt><trkpt lat="32.2361452" lon="-110.9421068"><ele>751.5</ele><time>2026-05-02T17:58:17.425Z</time></trkpt><trkpt lat="32.2361438" lon="-110.9422516"><ele>750.75</ele><time>2026-05-02T17:58:18.423Z</time></trkpt><trkpt lat="32.2361471" lon="-110.9423849"><ele>750.0</ele><time>2026-05-02T17:58:19.424Z</time></trkpt><trkpt lat="32.2361461" lon="-110.9425099"><ele>750.75</ele><time>2026-05-02T17:58:20.425Z</time></trkpt><trkpt lat="32.2361474" lon="-110.9426485"><ele>751.5</ele><time>2026-05-02T17:58:21.423Z</time></trkpt><trkpt lat="32.2361435" lon="-110.9428066"><ele>752.25</ele><time>2026-05-02T17:58:22.424Z</time></trkpt><trkpt lat="32.2361338" lon="-110.9429755"><ele>753.0</ele><time>2026-05-02T17:58:23.423Z</time></trkpt><trkpt lat="32.2361281" lon="-110.9431387"><ele>753.0</ele><time>2026-05-02T17:58:24.425Z</time></trkpt><trkpt lat="32.2361254" lon="-110.9432984"><ele>753.0</ele><time>2026-05-02T17:58:25.425Z</time></trkpt><trkpt lat="32.2361253" lon="-110.9434624"><ele>753.0</ele><time>2026-05-02T17:58:26.424Z</time></trkpt><trkpt lat="32.2361259" lon="-110.9436312"><ele>753.0</ele><time>2026-05-02T17:58:27.423Z</time></trkpt><trkpt lat="32.2361236" lon="-110.9438059"><ele>752.25</ele><time>2026-05-02T17:58:28.425Z</time></trkpt><trkpt lat="32.2361221" lon="-110.9439742"><ele>751.5</ele><time>2026-05-02T17:58:29.424Z</time></trkpt><trkpt lat="32.2361181" lon="-110.9441442"><ele>750.75</ele><time>2026-05-02T17:58:30.425Z</time></trkpt><trkpt lat="32.2361208" lon="-110.9443186"><ele>750.0</ele><time>2026-05-02T17:58:31.425Z</time></trkpt><trkpt lat="32.2361194" lon="-110.9445008"><ele>749.6666666666666</ele><time>2026-05-02T17:58:32.425Z</time></trkpt><trkpt lat="32.236114" lon="-110.9446818"><ele>749.3333333333333</ele><time>2026-05-02T17:58:33.425Z</time></trkpt><trkpt lat="32.2361115" lon="-110.9448622"><ele>749.0</ele><time>2026-05-02T17:58:34.425Z</time></trkpt><trkpt lat="32.2361073" lon="-110.9450454"><ele>749.0</ele><time>2026-05-02T17:58:35.425Z</time></trkpt><trkpt lat="32.236104" lon="-110.9452261"><ele>749.0</ele><time>2026-05-02T17:58:36.424Z</time></trkpt><trkpt lat="32.2361039" lon="-110.9454086"><ele>749.0</ele><time>2026-05-02T17:58:37.425Z</time></trkpt><trkpt lat="32.236104" lon="-110.9455877"><ele>749.0</ele><time>2026-05-02T17:58:38.424Z</time></trkpt><trkpt lat="32.2361017" lon="-110.9457603"><ele>749.0</ele><time>2026-05-02T17:58:39.425Z</time></trkpt><trkpt lat="32.2360985" lon="-110.9459296"><ele>749.0</ele><time>2026-05-02T17:58:40.425Z</time></trkpt><trkpt lat="32.2360996" lon="-110.9460971"><ele>749.0</ele><time>2026-05-02T17:58:41.424Z</time></trkpt><trkpt lat="32.2361004" lon="-110.9462696"><ele>749.25</ele><time>2026-05-02T17:58:42.425Z</time></trkpt><trkpt lat="32.2360998" lon="-110.9464341"><ele>749.5</ele><time>2026-05-02T17:58:43.424Z</time></trkpt><trkpt lat="32.2361" lon="-110.9465969"><ele>749.75</ele><time>2026-05-02T17:58:44.424Z</time></trkpt><trkpt lat="32.2361001" lon="-110.9467551"><ele>750.0</ele><time>2026-05-02T17:58:45.425Z</time></trkpt><trkpt lat="32.2360982" lon="-110.9469089"><ele>749.5</ele><time>2026-05-02T17:58:46.425Z</time></trkpt><trkpt lat="32.2360892" lon="-110.9470581"><ele>749.0</ele><time>2026-05-02T17:58:47.424Z</time></trkpt><trkpt lat="32.2360817" lon="-110.9472043"><ele>748.5</ele><time>2026-05-02T17:58:48.424Z</time></trkpt><trkpt lat="32.2360811" lon="-110.94734"><ele>748.0</ele><time>2026-05-02T17:58:49.424Z</time></trkpt><trkpt lat="32.2360781" lon="-110.9474544"><ele>747.8333333333334</ele><time>2026-05-02T17:58:50.424Z</time></trkpt><trkpt lat="32.2360759" lon="-110.9475478"><ele>747.6666666666667</ele><time>2026-05-02T17:58:51.425Z</time></trkpt><trkpt lat="32.2360756" lon="-110.9476246"><ele>747.5</ele><time>2026-05-02T17:58:52.425Z</time></trkpt><trkpt lat="32.2360788" lon="-110.9477571"><ele>747.3333333333334</ele><time>2026-05-02T17:58:54.425Z</time></trkpt><trkpt lat="32.2360845" lon="-110.947871"><ele>747.1666666666666</ele><time>2026-05-02T17:58:56.425Z</time></trkpt><trkpt lat="32.2360828" lon="-110.9479572"><ele>747.0</ele><time>2026-05-02T17:58:58.425Z</time></trkpt><trkpt lat="32.2360911" lon="-110.9480611"><ele>747.0</ele><time>2026-05-02T17:59:21.425Z</time></trkpt><trkpt lat="32.236091" lon="-110.9482064"><ele>747.0</ele><time>2026-05-02T17:59:22.425Z</time></trkpt><trkpt lat="32.236087" lon="-110.9483694"><ele>747.0</ele><time>2026-05-02T17:59:23.425Z</time></trkpt><trkpt lat="32.2360828" lon="-110.9485625"><ele>747.0</ele><time>2026-05-02T17:59:24.424Z</time></trkpt><trkpt lat="32.2360801" lon="-110.9487768"><ele>746.6666666666666</ele><time>2026-05-02T17:59:25.426Z</time></trkpt><trkpt lat="32.2360773" lon="-110.9490062"><ele>746.3333333333333</ele><time>2026-05-02T17:59:26.424Z</time></trkpt><trkpt lat="32.2360721" lon="-110.9492449"><ele>746.0</ele><time>2026-05-02T17:59:27.425Z</time></trkpt><trkpt lat="32.2360698" lon="-110.9494764"><ele>746.0</ele><time>2026-05-02T17:59:28.425Z</time></trkpt><trkpt lat="32.2360694" lon="-110.9496941"><ele>746.0</ele><time>2026-05-02T17:59:29.424Z</time></trkpt><trkpt lat="32.2360657" lon="-110.949909"><ele>746.0</ele><time>2026-05-02T17:59:30.424Z</time></trkpt><trkpt lat="32.2360594" lon="-110.9501345"><ele>746.0</ele><time>2026-05-02T17:59:31.424Z</time></trkpt><trkpt lat="32.2360507" lon="-110.9503845"><ele>746.0</ele><time>2026-05-02T17:59:32.424Z</time></trkpt><trkpt lat="32.236043" lon="-110.9506401"><ele>746.0</ele><time>2026-05-02T17:59:33.425Z</time></trkpt><trkpt lat="32.236036" lon="-110.9508825"><ele>746.6666666666666</ele><time>2026-05-02T17:59:34.425Z</time></trkpt><trkpt lat="32.2360327" lon="-110.9511101"><ele>747.3333333333334</ele><time>2026-05-02T17:59:35.426Z</time></trkpt><trkpt lat="32.2360302" lon="-110.9513297"><ele>748.0</ele><time>2026-05-02T17:59:36.424Z</time></trkpt><trkpt lat="32.2360316" lon="-110.9515421"><ele>748.3333333333334</ele><time>2026-05-02T17:59:37.425Z</time></trkpt><trkpt lat="32.2360304" lon="-110.9517593"><ele>748.6666666666666</ele><time>2026-05-02T17:59:38.425Z</time></trkpt><trkpt lat="32.236028" lon="-110.9519728"><ele>749.0</ele><time>2026-05-02T17:59:39.425Z</time></trkpt><trkpt lat="32.2360245" lon="-110.9521872"><ele>749.0</ele><time>2026-05-02T17:59:40.425Z</time></trkpt><trkpt lat="32.2360234" lon="-110.9523993"><ele>749.0</ele><time>2026-05-02T17:59:41.424Z</time></trkpt><trkpt lat="32.2360219" lon="-110.9526108"><ele>749.0</ele><time>2026-05-02T17:59:42.425Z</time></trkpt><trkpt lat="32.2360199" lon="-110.9528241"><ele>749.0</ele><time>2026-05-02T17:59:43.424Z</time></trkpt><trkpt lat="32.2360192" lon="-110.9530313"><ele>749.0</ele><time>2026-05-02T17:59:44.425Z</time></trkpt><trkpt lat="32.2360185" lon="-110.9532361"><ele>749.0</ele><time>2026-05-02T17:59:45.426Z</time></trkpt><trkpt lat="32.236016" lon="-110.953431"><ele>748.3333333333333</ele><time>2026-05-02T17:59:46.426Z</time></trkpt><trkpt lat="32.2360119" lon="-110.9536253"><ele>747.6666666666666</ele><time>2026-05-02T17:59:47.425Z</time></trkpt><trkpt lat="32.2360119" lon="-110.9538103"><ele>747.0</ele><time>2026-05-02T17:59:48.425Z</time></trkpt><trkpt lat="32.2360204" lon="-110.9539853"><ele>747.0</ele><time>2026-05-02T17:59:49.424Z</time></trkpt><trkpt lat="32.2360321" lon="-110.9541584"><ele>747.0</ele><time>2026-05-02T17:59:50.425Z</time></trkpt><trkpt lat="32.2360414" lon="-110.9543246"><ele>747.0</ele><time>2026-05-02T17:59:51.425Z</time></trkpt><trkpt lat="32.2360437" lon="-110.9544791"><ele>747.0</ele><time>2026-05-02T17:59:52.425Z</time></trkpt><trkpt lat="32.2360495" lon="-110.9546215"><ele>746.5</ele><time>2026-05-02T17:59:53.425Z</time></trkpt><trkpt lat="32.2360616" lon="-110.9547663"><ele>746.0</ele><time>2026-05-02T17:59:54.426Z</time></trkpt><trkpt lat="32.2360724" lon="-110.954903"><ele>745.5</ele><time>2026-05-02T17:59:55.425Z</time></trkpt><trkpt lat="32.2360801" lon="-110.9550337"><ele>745.0</ele><time>2026-05-02T17:59:56.424Z</time></trkpt><trkpt lat="32.236082" lon="-110.9551599"><ele>745.0</ele><time>2026-05-02T17:59:57.426Z</time></trkpt><trkpt lat="32.2360876" lon="-110.9552789"><ele>745.0</ele><time>2026-05-02T17:59:58.425Z</time></trkpt><trkpt lat="32.2360921" lon="-110.9554021"><ele>745.0</ele><time>2026-05-02T17:59:59.425Z</time></trkpt><trkpt lat="32.2360953" lon="-110.9555255"><ele>745.0</ele><time>2026-05-02T18:00:00.424Z</time></trkpt><trkpt lat="32.2360965" lon="-110.9556472"><ele>745.0</ele><time>2026-05-02T18:00:01.425Z</time></trkpt><trkpt lat="32.2360967" lon="-110.9557667"><ele>745.0</ele><time>2026-05-02T18:00:02.426Z</time></trkpt><trkpt lat="32.2360948" lon="-110.9558773"><ele>745.0</ele><time>2026-05-02T18:00:03.424Z</time></trkpt><trkpt lat="32.2360899" lon="-110.9559786"><ele>745.0</ele><time>2026-05-02T18:00:04.426Z</time></trkpt><trkpt lat="32.2360846" lon="-110.9560781"><ele>745.0</ele><time>2026-05-02T18:00:05.426Z</time></trkpt><trkpt lat="32.2360799" lon="-110.9561879"><ele>745.0</ele><time>2026-05-02T18:00:06.424Z</time></trkpt><trkpt lat="32.2360812" lon="-110.9563062"><ele>745.0</ele><time>2026-05-02T18:00:07.425Z</time></trkpt><trkpt lat="32.2360815" lon="-110.95643"><ele>745.0</ele><time>2026-05-02T18:00:08.424Z</time></trkpt><trkpt lat="32.2360805" lon="-110.9565577"><ele>745.0</ele><time>2026-05-02T18:00:09.426Z</time></trkpt><trkpt lat="32.2360798" lon="-110.9566888"><ele>745.0</ele><time>2026-05-02T18:00:10.426Z</time></trkpt><trkpt lat="32.2360778" lon="-110.9568233"><ele>745.0</ele><time>2026-05-02T18:00:11.426Z</time></trkpt><trkpt lat="32.2360778" lon="-110.9569647"><ele>744.25</ele><time>2026-05-02T18:00:12.425Z</time></trkpt><trkpt lat="32.2360754" lon="-110.9571063"><ele>743.5</ele><time>2026-05-02T18:00:13.424Z</time></trkpt><trkpt lat="32.2360741" lon="-110.957246"><ele>742.75</ele><time>2026-05-02T18:00:14.425Z</time></trkpt><trkpt lat="32.2360747" lon="-110.9573832"><ele>742.0</ele><time>2026-05-02T18:00:15.426Z</time></trkpt><trkpt lat="32.2360748" lon="-110.957515"><ele>741.4000000000001</ele><time>2026-05-02T18:00:16.425Z</time></trkpt><trkpt lat="32.2360741" lon="-110.9576405"><ele>740.8000000000001</ele><time>2026-05-02T18:00:17.426Z</time></trkpt><trkpt lat="32.236073" lon="-110.9577596"><ele>740.2</ele><time>2026-05-02T18:00:18.426Z</time></trkpt><trkpt lat="32.2360712" lon="-110.9578729"><ele>739.6</ele><time>2026-05-02T18:00:19.424Z</time></trkpt><trkpt lat="32.2360696" lon="-110.9579815"><ele>739.0</ele><time>2026-05-02T18:00:20.426Z</time></trkpt><trkpt lat="32.2360689" lon="-110.9580881"><ele>739.0</ele><time>2026-05-02T18:00:21.425Z</time></trkpt><trkpt lat="32.2360674" lon="-110.9581914"><ele>739.0</ele><time>2026-05-02T18:00:22.426Z</time></trkpt><trkpt lat="32.2360661" lon="-110.9582824"><ele>739.0</ele><time>2026-05-02T18:00:23.426Z</time></trkpt><trkpt lat="32.2360659" lon="-110.9583575"><ele>739.0</ele><time>2026-05-02T18:00:24.425Z</time></trkpt><trkpt lat="32.2360662" lon="-110.958479"><ele>739.0</ele><time>2026-05-02T18:00:26.425Z</time></trkpt><trkpt lat="32.2360834" lon="-110.9587049"><ele>738.8000000000001</ele><time>2026-05-02T18:00:31.425Z</time></trkpt><trkpt lat="32.2360798" lon="-110.9588441"><ele>738.6</ele><time>2026-05-02T18:00:33.425Z</time></trkpt><trkpt lat="32.2360797" lon="-110.9589796"><ele>738.4</ele><time>2026-05-02T18:00:35.426Z</time></trkpt><trkpt lat="32.2360834" lon="-110.9590999"><ele>738.2</ele><time>2026-05-02T18:00:37.425Z</time></trkpt><trkpt lat="32.2360832" lon="-110.9592188"><ele>738.0</ele><time>2026-05-02T18:00:39.426Z</time></trkpt><trkpt lat="32.2360833" lon="-110.9593067"><ele>737.5</ele><time>2026-05-02T18:00:41.426Z</time></trkpt><trkpt lat="32.2360725" lon="-110.9594771"><ele>737.0</ele><time>2026-05-02T18:01:00.425Z</time></trkpt><trkpt lat="32.2360646" lon="-110.9596164"><ele>736.5</ele><time>2026-05-02T18:01:01.425Z</time></trkpt><trkpt lat="32.2360643" lon="-110.9598225"><ele>736.0</ele><time>2026-05-02T18:01:02.426Z</time></trkpt><trkpt lat="32.2360609" lon="-110.9600571"><ele>734.5</ele><time>2026-05-02T18:01:03.425Z</time></trkpt><trkpt lat="32.2360575" lon="-110.9603253"><ele>733.0</ele><time>2026-05-02T18:01:04.425Z</time></trkpt><trkpt lat="32.2360508" lon="-110.960596"><ele>733.0</ele><time>2026-05-02T18:01:05.425Z</time></trkpt><trkpt lat="32.2360426" lon="-110.9608603"><ele>733.0</ele><time>2026-05-02T18:01:06.426Z</time></trkpt><trkpt lat="32.2360351" lon="-110.9611151"><ele>733.0</ele><time>2026-05-02T18:01:07.426Z</time></trkpt><trkpt lat="32.2360267" lon="-110.961356"><ele>733.3333333333334</ele><time>2026-05-02T18:01:08.425Z</time></trkpt><trkpt lat="32.2360184" lon="-110.9615907"><ele>733.6666666666666</ele><time>2026-05-02T18:01:09.425Z</time></trkpt><trkpt lat="32.2360099" lon="-110.9618219"><ele>734.0</ele><time>2026-05-02T18:01:10.426Z</time></trkpt><trkpt lat="32.236002" lon="-110.9620477"><ele>734.0</ele><time>2026-05-02T18:01:11.426Z</time></trkpt><trkpt lat="32.2359952" lon="-110.9622691"><ele>734.0</ele><time>2026-05-02T18:01:12.426Z</time></trkpt><trkpt lat="32.2359896" lon="-110.9624874"><ele>734.0</ele><time>2026-05-02T18:01:13.426Z</time></trkpt><trkpt lat="32.2359819" lon="-110.9627088"><ele>734.0</ele><time>2026-05-02T18:01:14.425Z</time></trkpt><trkpt lat="32.2359723" lon="-110.9629281"><ele>734.0</ele><time>2026-05-02T18:01:15.426Z</time></trkpt><trkpt lat="32.2359654" lon="-110.963148"><ele>734.0</ele><time>2026-05-02T18:01:16.426Z</time></trkpt><trkpt lat="32.2359714" lon="-110.9633786"><ele>733.6666666666666</ele><time>2026-05-02T18:01:17.425Z</time></trkpt><trkpt lat="32.2359738" lon="-110.9636051"><ele>733.3333333333334</ele><time>2026-05-02T18:01:18.425Z</time></trkpt><trkpt lat="32.235974" lon="-110.9638322"><ele>733.0</ele><time>2026-05-02T18:01:19.425Z</time></trkpt><trkpt lat="32.2359738" lon="-110.9640587"><ele>733.3333333333334</ele><time>2026-05-02T18:01:20.426Z</time></trkpt><trkpt lat="32.2359681" lon="-110.9642798"><ele>733.6666666666666</ele><time>2026-05-02T18:01:21.426Z</time></trkpt><trkpt lat="32.2359641" lon="-110.9644987"><ele>734.0</ele><time>2026-05-02T18:01:22.425Z</time></trkpt><trkpt lat="32.2359631" lon="-110.9647178"><ele>734.0</ele><time>2026-05-02T18:01:23.427Z</time></trkpt><trkpt lat="32.2359585" lon="-110.9649397"><ele>734.0</ele><time>2026-05-02T18:01:24.425Z</time></trkpt><trkpt lat="32.2359518" lon="-110.9651644"><ele>734.0</ele><time>2026-05-02T18:01:25.425Z</time></trkpt><trkpt lat="32.23595" lon="-110.9653841"><ele>732.3333333333333</ele><time>2026-05-02T18:01:26.427Z</time></trkpt><trkpt lat="32.2359488" lon="-110.9656053"><ele>730.6666666666666</ele><time>2026-05-02T18:01:27.426Z</time></trkpt><trkpt lat="32.2359499" lon="-110.9658187"><ele>729.0</ele><time>2026-05-02T18:01:28.425Z</time></trkpt><trkpt lat="32.2359508" lon="-110.9660266"><ele>728.6666666666666</ele><time>2026-05-02T18:01:29.425Z</time></trkpt><trkpt lat="32.2359539" lon="-110.9662274"><ele>728.3333333333333</ele><time>2026-05-02T18:01:30.425Z</time></trkpt><trkpt lat="32.235954" lon="-110.9664236"><ele>728.0</ele><time>2026-05-02T18:01:31.426Z</time></trkpt><trkpt lat="32.2359539" lon="-110.9666159"><ele>728.6666666666666</ele><time>2026-05-02T18:01:32.425Z</time></trkpt><trkpt lat="32.2359519" lon="-110.9668063"><ele>729.3333333333334</ele><time>2026-05-02T18:01:33.425Z</time></trkpt><trkpt lat="32.2359517" lon="-110.9669995"><ele>730.0</ele><time>2026-05-02T18:01:34.427Z</time></trkpt><trkpt lat="32.2359585" lon="-110.9671928"><ele>730.0</ele><time>2026-05-02T18:01:35.426Z</time></trkpt><trkpt lat="32.2359693" lon="-110.9673851"><ele>730.0</ele><time>2026-05-02T18:01:36.425Z</time></trkpt><trkpt lat="32.235979" lon="-110.9675826"><ele>730.0</ele><time>2026-05-02T18:01:37.425Z</time></trkpt><trkpt lat="32.2359829" lon="-110.9677706"><ele>730.3333333333334</ele><time>2026-05-02T18:01:38.426Z</time></trkpt><trkpt lat="32.2359805" lon="-110.9679564"><ele>730.6666666666666</ele><time>2026-05-02T18:01:39.427Z</time></trkpt><trkpt lat="32.2359794" lon="-110.968141"><ele>731.0</ele><time>2026-05-02T18:01:40.426Z</time></trkpt><trkpt lat="32.2359757" lon="-110.9683204"><ele>730.3333333333333</ele><time>2026-05-02T18:01:41.426Z</time></trkpt><trkpt lat="32.2359767" lon="-110.9684951"><ele>729.6666666666666</ele><time>2026-05-02T18:01:42.426Z</time></trkpt><trkpt lat="32.2359742" lon="-110.9686781"><ele>729.0</ele><time>2026-05-02T18:01:43.426Z</time></trkpt><trkpt lat="32.2359633" lon="-110.9688672"><ele>729.0</ele><time>2026-05-02T18:01:44.426Z</time></trkpt><trkpt lat="32.2359602" lon="-110.9690626"><ele>729.0</ele><time>2026-05-02T18:01:45.426Z</time></trkpt><trkpt lat="32.2359585" lon="-110.9692648"><ele>729.0</ele><time>2026-05-02T18:01:46.426Z</time></trkpt><trkpt lat="32.2359571" lon="-110.969472"><ele>729.0</ele><time>2026-05-02T18:01:47.425Z</time></trkpt><trkpt lat="32.2359576" lon="-110.9696795"><ele>729.0</ele><time>2026-05-02T18:01:48.426Z</time></trkpt><trkpt lat="32.2359592" lon="-110.969891"><ele>729.0</ele><time>2026-05-02T18:01:49.426Z</time></trkpt><trkpt lat="32.2359642" lon="-110.9701048"><ele>729.0</ele><time>2026-05-02T18:01:50.426Z</time></trkpt><trkpt lat="32.2359672" lon="-110.9703186"><ele>729.0</ele><time>2026-05-02T18:01:51.426Z</time></trkpt><trkpt lat="32.2359674" lon="-110.9705282"><ele>729.0</ele><time>2026-05-02T18:01:52.425Z</time></trkpt><trkpt lat="32.2359719" lon="-110.9707366"><ele>729.0</ele><time>2026-05-02T18:01:53.427Z</time></trkpt><trkpt lat="32.2359773" lon="-110.970945"><ele>729.0</ele><time>2026-05-02T18:01:54.427Z</time></trkpt><trkpt lat="32.2359823" lon="-110.9711503"><ele>729.0</ele><time>2026-05-02T18:01:55.426Z</time></trkpt><trkpt lat="32.2359864" lon="-110.9713543"><ele>729.0</ele><time>2026-05-02T18:01:56.427Z</time></trkpt><trkpt lat="32.2359913" lon="-110.9715578"><ele>729.0</ele><time>2026-05-02T18:01:57.427Z</time></trkpt><trkpt lat="32.2359969" lon="-110.9717671"><ele>729.0</ele><time>2026-05-02T18:01:58.426Z</time></trkpt><trkpt lat="32.2360018" lon="-110.9719895"><ele>727.3333333333334</ele><time>2026-05-02T18:01:59.426Z</time></trkpt><trkpt lat="32.2360074" lon="-110.9722245"><ele>725.6666666666667</ele><time>2026-05-02T18:02:00.427Z</time></trkpt><trkpt lat="32.2360139" lon="-110.9724737"><ele>724.0</ele><time>2026-05-02T18:02:01.426Z</time></trkpt><trkpt lat="32.2360227" lon="-110.9727396"><ele>723.6666666666667</ele><time>2026-05-02T18:02:02.426Z</time></trkpt><trkpt lat="32.2360275" lon="-110.972992"><ele>723.3333333333334</ele><time>2026-05-02T18:02:03.427Z</time></trkpt><trkpt lat="32.2360294" lon="-110.9732386"><ele>723.0</ele><time>2026-05-02T18:02:04.427Z</time></trkpt><trkpt lat="32.2360301" lon="-110.9734752"><ele>721.6666666666666</ele><time>2026-05-02T18:02:05.427Z</time></trkpt><trkpt lat="32.2360278" lon="-110.9737006"><ele>720.3333333333333</ele><time>2026-05-02T18:02:06.426Z</time></trkpt><trkpt lat="32.2360303" lon="-110.9739236"><ele>719.0</ele><time>2026-05-02T18:02:07.425Z</time></trkpt><trkpt lat="32.2360277" lon="-110.9741444"><ele>719.6666666666666</ele><time>2026-05-02T18:02:08.426Z</time></trkpt><trkpt lat="32.2360261" lon="-110.9743578"><ele>720.3333333333334</ele><time>2026-05-02T18:02:09.425Z</time></trkpt><trkpt lat="32.2360269" lon="-110.9745702"><ele>721.0</ele><time>2026-05-02T18:02:10.426Z</time></trkpt><trkpt lat="32.2360254" lon="-110.9747828"><ele>721.0</ele><time>2026-05-02T18:02:11.425Z</time></trkpt><trkpt lat="32.2360263" lon="-110.9749858"><ele>721.0</ele><time>2026-05-02T18:02:12.425Z</time></trkpt><trkpt lat="32.2360234" lon="-110.9751764"><ele>721.0</ele><time>2026-05-02T18:02:13.426Z</time></trkpt><trkpt lat="32.2360191" lon="-110.9753591"><ele>720.0</ele><time>2026-05-02T18:02:14.427Z</time></trkpt><trkpt lat="32.236013" lon="-110.9755408"><ele>719.0</ele><time>2026-05-02T18:02:15.427Z</time></trkpt><trkpt lat="32.2360056" lon="-110.9757286"><ele>718.0</ele><time>2026-05-02T18:02:16.426Z</time></trkpt><trkpt lat="32.2359984" lon="-110.9759208"><ele>717.6666666666667</ele><time>2026-05-02T18:02:17.427Z</time></trkpt><trkpt lat="32.2359914" lon="-110.9761103"><ele>717.3333333333334</ele><time>2026-05-02T18:02:18.427Z</time></trkpt><trkpt lat="32.2359845" lon="-110.976291"><ele>717.0</ele><time>2026-05-02T18:02:19.427Z</time></trkpt><trkpt lat="32.235979" lon="-110.9764641"><ele>717.0</ele><time>2026-05-02T18:02:20.427Z</time></trkpt><trkpt lat="32.2359711" lon="-110.9766349"><ele>717.0</ele><time>2026-05-02T18:02:21.426Z</time></trkpt><trkpt lat="32.2359618" lon="-110.9768077"><ele>717.0</ele><time>2026-05-02T18:02:22.427Z</time></trkpt><trkpt lat="32.2359547" lon="-110.9769869"><ele>717.0</ele><time>2026-05-02T18:02:23.426Z</time></trkpt><trkpt lat="32.2359489" lon="-110.9771662"><ele>716.25</ele><time>2026-05-02T18:02:24.427Z</time></trkpt><trkpt lat="32.2359439" lon="-110.9773415"><ele>715.5</ele><time>2026-05-02T18:02:25.426Z</time></trkpt><trkpt lat="32.2359391" lon="-110.9775159"><ele>714.75</ele><time>2026-05-02T18:02:26.427Z</time></trkpt><trkpt lat="32.2359362" lon="-110.9776906"><ele>714.0</ele><time>2026-05-02T18:02:27.426Z</time></trkpt><trkpt lat="32.2359348" lon="-110.9778643"><ele>714.0</ele><time>2026-05-02T18:02:28.427Z</time></trkpt><trkpt lat="32.235933" lon="-110.9780342"><ele>714.0</ele><time>2026-05-02T18:02:29.426Z</time></trkpt><trkpt lat="32.2359309" lon="-110.9782089"><ele>714.0</ele><time>2026-05-02T18:02:30.426Z</time></trkpt><trkpt lat="32.2359262" lon="-110.9783889"><ele>714.0</ele><time>2026-05-02T18:02:31.427Z</time></trkpt><trkpt lat="32.2359222" lon="-110.9785774"><ele>715.0</ele><time>2026-05-02T18:02:32.427Z</time></trkpt><trkpt lat="32.2359145" lon="-110.9787691"><ele>716.0</ele><time>2026-05-02T18:02:33.426Z</time></trkpt><trkpt lat="32.235902" lon="-110.978956"><ele>717.0</ele><time>2026-05-02T18:02:34.427Z</time></trkpt><trkpt lat="32.2358977" lon="-110.9791483"><ele>716.6666666666666</ele><time>2026-05-02T18:02:35.426Z</time></trkpt><trkpt lat="32.2358911" lon="-110.9793382"><ele>716.3333333333333</ele><time>2026-05-02T18:02:36.426Z</time></trkpt><trkpt lat="32.2358877" lon="-110.9795303"><ele>716.0</ele><time>2026-05-02T18:02:37.427Z</time></trkpt><trkpt lat="32.2358867" lon="-110.9797225"><ele>716.0</ele><time>2026-05-02T18:02:38.426Z</time></trkpt><trkpt lat="32.2358846" lon="-110.9799128"><ele>716.0</ele><time>2026-05-02T18:02:39.427Z</time></trkpt><trkpt lat="32.2358822" lon="-110.9801002"><ele>716.0</ele><time>2026-05-02T18:02:40.427Z</time></trkpt><trkpt lat="32.2358797" lon="-110.9802851"><ele>715.0</ele><time>2026-05-02T18:02:41.426Z</time></trkpt><trkpt lat="32.2358786" lon="-110.9804726"><ele>714.0</ele><time>2026-05-02T18:02:42.427Z</time></trkpt><trkpt lat="32.2358781" lon="-110.9806604"><ele>713.0</ele><time>2026-05-02T18:02:43.426Z</time></trkpt><trkpt lat="32.2358817" lon="-110.9808493"><ele>712.6666666666666</ele><time>2026-05-02T18:02:44.427Z</time></trkpt><trkpt lat="32.2358811" lon="-110.9810432"><ele>712.3333333333334</ele><time>2026-05-02T18:02:45.427Z</time></trkpt><trkpt lat="32.2358807" lon="-110.981232"><ele>712.0</ele><time>2026-05-02T18:02:46.427Z</time></trkpt><trkpt lat="32.2358828" lon="-110.9814115"><ele>712.0</ele><time>2026-05-02T18:02:47.426Z</time></trkpt><trkpt lat="32.235883" lon="-110.9815951"><ele>712.0</ele><time>2026-05-02T18:02:48.426Z</time></trkpt><trkpt lat="32.2358736" lon="-110.9817652"><ele>712.0</ele><time>2026-05-02T18:02:49.427Z</time></trkpt><trkpt lat="32.2358669" lon="-110.9819333"><ele>712.0</ele><time>2026-05-02T18:02:50.426Z</time></trkpt><trkpt lat="32.235865" lon="-110.9820872"><ele>712.0</ele><time>2026-05-02T18:02:51.426Z</time></trkpt><trkpt lat="32.2358815" lon="-110.982221"><ele>712.0</ele><time>2026-05-02T18:02:52.427Z</time></trkpt><trkpt lat="32.2358804" lon="-110.9823498"><ele>712.0</ele><time>2026-05-02T18:02:53.427Z</time></trkpt><trkpt lat="32.2358779" lon="-110.9824735"><ele>712.0</ele><time>2026-05-02T18:02:54.427Z</time></trkpt><trkpt lat="32.2358715" lon="-110.982602"><ele>712.0</ele><time>2026-05-02T18:02:55.426Z</time></trkpt><trkpt lat="32.235863" lon="-110.9827307"><ele>710.6</ele><time>2026-05-02T18:02:56.426Z</time></trkpt><trkpt lat="32.2358583" lon="-110.9828512"><ele>709.2</ele><time>2026-05-02T18:02:57.426Z</time></trkpt><trkpt lat="32.2358564" lon="-110.9829475"><ele>707.8</ele><time>2026-05-02T18:02:58.426Z</time></trkpt><trkpt lat="32.2358425" lon="-110.9830963"><ele>706.4</ele><time>2026-05-02T18:03:00.426Z</time></trkpt><trkpt lat="32.2358377" lon="-110.9831972"><ele>705.0</ele><time>2026-05-02T18:03:01.426Z</time></trkpt><trkpt lat="32.235835" lon="-110.9832929"><ele>705.0</ele><time>2026-05-02T18:03:02.427Z</time></trkpt><trkpt lat="32.2358364" lon="-110.9833853"><ele>705.0</ele><time>2026-05-02T18:03:03.426Z</time></trkpt><trkpt lat="32.2358347" lon="-110.98347"><ele>705.0</ele><time>2026-05-02T18:03:04.427Z</time></trkpt><trkpt lat="32.235834" lon="-110.9835631"><ele>705.0</ele><time>2026-05-02T18:03:05.427Z</time></trkpt><trkpt lat="32.2358319" lon="-110.9836448"><ele>705.0</ele><time>2026-05-02T18:03:06.426Z</time></trkpt><trkpt lat="32.2358167" lon="-110.9837722"><ele>705.0</ele><time>2026-05-02T18:03:08.426Z</time></trkpt><trkpt lat="32.2358031" lon="-110.983908"><ele>705.0</ele><time>2026-05-02T18:03:10.427Z</time></trkpt><trkpt lat="32.2357923" lon="-110.9840415"><ele>705.0</ele><time>2026-05-02T18:03:13.427Z</time></trkpt><trkpt lat="32.2357838" lon="-110.9841426"><ele>705.0</ele><time>2026-05-02T18:03:15.426Z</time></trkpt><trkpt lat="32.2357936" lon="-110.9842394"><ele>705.0</ele><time>2026-05-02T18:03:16.426Z</time></trkpt><trkpt lat="32.2358063" lon="-110.984343"><ele>705.0</ele><time>2026-05-02T18:03:17.427Z</time></trkpt><trkpt lat="32.2357967" lon="-110.9844563"><ele>704.6</ele><time>2026-05-02T18:03:18.427Z</time></trkpt><trkpt lat="32.2357878" lon="-110.9845685"><ele>704.2</ele><time>2026-05-02T18:03:19.426Z</time></trkpt><trkpt lat="32.2357787" lon="-110.9846857"><ele>703.8</ele><time>2026-05-02T18:03:20.427Z</time></trkpt><trkpt lat="32.2357634" lon="-110.9848139"><ele>703.4</ele><time>2026-05-02T18:03:21.427Z</time></trkpt><trkpt lat="32.2357487" lon="-110.9849489"><ele>703.0</ele><time>2026-05-02T18:03:22.426Z</time></trkpt><trkpt lat="32.2357323" lon="-110.9850932"><ele>703.0</ele><time>2026-05-02T18:03:23.426Z</time></trkpt><trkpt lat="32.2357191" lon="-110.9852328"><ele>703.0</ele><time>2026-05-02T18:03:24.427Z</time></trkpt><trkpt lat="32.2357045" lon="-110.9853748"><ele>703.0</ele><time>2026-05-02T18:03:25.427Z</time></trkpt><trkpt lat="32.2356949" lon="-110.9855174"><ele>703.0</ele><time>2026-05-02T18:03:26.427Z</time></trkpt><trkpt lat="32.2356862" lon="-110.9856616"><ele>703.0</ele><time>2026-05-02T18:03:27.426Z</time></trkpt><trkpt lat="32.2356793" lon="-110.9858073"><ele>703.0</ele><time>2026-05-02T18:03:28.426Z</time></trkpt><trkpt lat="32.2356724" lon="-110.9859547"><ele>703.0</ele><time>2026-05-02T18:03:29.427Z</time></trkpt><trkpt lat="32.235666" lon="-110.9861033"><ele>703.0</ele><time>2026-05-02T18:03:30.427Z</time></trkpt><trkpt lat="32.2356609" lon="-110.9862511"><ele>703.75</ele><time>2026-05-02T18:03:31.426Z</time></trkpt><trkpt lat="32.235657" lon="-110.9864021"><ele>704.5</ele><time>2026-05-02T18:03:32.427Z</time></trkpt><trkpt lat="32.235654" lon="-110.9865586"><ele>705.25</ele><time>2026-05-02T18:03:33.427Z</time></trkpt><trkpt lat="32.2356518" lon="-110.9867134"><ele>706.0</ele><time>2026-05-02T18:03:34.427Z</time></trkpt><trkpt lat="32.2356515" lon="-110.9868642"><ele>706.0</ele><time>2026-05-02T18:03:35.427Z</time></trkpt><trkpt lat="32.2356506" lon="-110.9870135"><ele>706.0</ele><time>2026-05-02T18:03:36.428Z</time></trkpt><trkpt lat="32.2356501" lon="-110.9871732"><ele>706.0</ele><time>2026-05-02T18:03:37.427Z</time></trkpt><trkpt lat="32.2356516" lon="-110.9873451"><ele>706.0</ele><time>2026-05-02T18:03:38.427Z</time></trkpt><trkpt lat="32.2356538" lon="-110.9875167"><ele>706.25</ele><time>2026-05-02T18:03:39.427Z</time></trkpt><trkpt lat="32.2356563" lon="-110.9876819"><ele>706.5</ele><time>2026-05-02T18:03:40.428Z</time></trkpt><trkpt lat="32.2356574" lon="-110.9878437"><ele>706.75</ele><time>2026-05-02T18:03:41.427Z</time></trkpt><trkpt lat="32.2356577" lon="-110.9880087"><ele>707.0</ele><time>2026-05-02T18:03:42.428Z</time></trkpt><trkpt lat="32.2356574" lon="-110.9881786"><ele>707.5</ele><time>2026-05-02T18:03:43.427Z</time></trkpt><trkpt lat="32.2356568" lon="-110.988347"><ele>708.0</ele><time>2026-05-02T18:03:44.427Z</time></trkpt><trkpt lat="32.2356567" lon="-110.9885154"><ele>708.5</ele><time>2026-05-02T18:03:45.429Z</time></trkpt><trkpt lat="32.2356582" lon="-110.988681"><ele>709.0</ele><time>2026-05-02T18:03:46.427Z</time></trkpt><trkpt lat="32.235659" lon="-110.9888417"><ele>709.0</ele><time>2026-05-02T18:03:47.428Z</time></trkpt><trkpt lat="32.2356616" lon="-110.9890029"><ele>709.0</ele><time>2026-05-02T18:03:48.428Z</time></trkpt><trkpt lat="32.2356646" lon="-110.9891582"><ele>709.0</ele><time>2026-05-02T18:03:49.428Z</time></trkpt><trkpt lat="32.235666" lon="-110.9893076"><ele>709.0</ele><time>2026-05-02T18:03:50.426Z</time></trkpt><trkpt lat="32.2356683" lon="-110.989454"><ele>708.8333333333334</ele><time>2026-05-02T18:03:51.426Z</time></trkpt><trkpt lat="32.2356698" lon="-110.9895859"><ele>708.6666666666667</ele><time>2026-05-02T18:03:52.427Z</time></trkpt><trkpt lat="32.2356722" lon="-110.9897001"><ele>708.5</ele><time>2026-05-02T18:03:53.428Z</time></trkpt><trkpt lat="32.2356741" lon="-110.9898001"><ele>708.3333333333334</ele><time>2026-05-02T18:03:54.427Z</time></trkpt><trkpt lat="32.2356749" lon="-110.9898895"><ele>708.1666666666666</ele><time>2026-05-02T18:03:55.428Z</time></trkpt><trkpt lat="32.2356764" lon="-110.9899688"><ele>708.0</ele><time>2026-05-02T18:03:56.427Z</time></trkpt><trkpt lat="32.2356851" lon="-110.9900949"><ele>708.75</ele><time>2026-05-02T18:03:58.428Z</time></trkpt><trkpt lat="32.2356901" lon="-110.990208"><ele>709.5</ele><time>2026-05-02T18:04:19.428Z</time></trkpt><trkpt lat="32.2356942" lon="-110.9903143"><ele>710.25</ele><time>2026-05-02T18:04:20.428Z</time></trkpt><trkpt lat="32.2356987" lon="-110.9904865"><ele>711.0</ele><time>2026-05-02T18:04:21.428Z</time></trkpt><trkpt lat="32.2357003" lon="-110.9906824"><ele>710.6666666666666</ele><time>2026-05-02T18:04:22.427Z</time></trkpt><trkpt lat="32.2357" lon="-110.9909027"><ele>710.3333333333333</ele><time>2026-05-02T18:04:23.427Z</time></trkpt><trkpt lat="32.2357009" lon="-110.9911419"><ele>710.0</ele><time>2026-05-02T18:04:24.427Z</time></trkpt><trkpt lat="32.2357035" lon="-110.9913882"><ele>710.0</ele><time>2026-05-02T18:04:25.428Z</time></trkpt><trkpt lat="32.2357069" lon="-110.9916234"><ele>710.0</ele><time>2026-05-02T18:04:26.427Z</time></trkpt><trkpt lat="32.2357108" lon="-110.9918447"><ele>710.0</ele><time>2026-05-02T18:04:27.428Z</time></trkpt><trkpt lat="32.2357181" lon="-110.99205"><ele>709.0</ele><time>2026-05-02T18:04:28.428Z</time></trkpt><trkpt lat="32.2357284" lon="-110.9922435"><ele>708.0</ele><time>2026-05-02T18:04:29.428Z</time></trkpt><trkpt lat="32.2357387" lon="-110.9924342"><ele>707.0</ele><time>2026-05-02T18:04:30.427Z</time></trkpt><trkpt lat="32.235748" lon="-110.9926225"><ele>707.0</ele><time>2026-05-02T18:04:31.428Z</time></trkpt><trkpt lat="32.2357566" lon="-110.9928061"><ele>707.0</ele><time>2026-05-02T18:04:32.427Z</time></trkpt><trkpt lat="32.2357632" lon="-110.9929798"><ele>707.0</ele><time>2026-05-02T18:04:33.428Z</time></trkpt><trkpt lat="32.2357676" lon="-110.9931451"><ele>707.0</ele><time>2026-05-02T18:04:34.427Z</time></trkpt><trkpt lat="32.2357711" lon="-110.9933002"><ele>708.0</ele><time>2026-05-02T18:04:35.428Z</time></trkpt><trkpt lat="32.2357742" lon="-110.99345"><ele>709.0</ele><time>2026-05-02T18:04:36.428Z</time></trkpt><trkpt lat="32.2357758" lon="-110.9936084"><ele>710.0</ele><time>2026-05-02T18:04:37.428Z</time></trkpt><trkpt lat="32.2357743" lon="-110.9937798"><ele>711.0</ele><time>2026-05-02T18:04:38.428Z</time></trkpt><trkpt lat="32.2357698" lon="-110.993964"><ele>711.0</ele><time>2026-05-02T18:04:39.427Z</time></trkpt><trkpt lat="32.2357669" lon="-110.9941546"><ele>711.0</ele><time>2026-05-02T18:04:40.428Z</time></trkpt><trkpt lat="32.2357688" lon="-110.9943411"><ele>711.0</ele><time>2026-05-02T18:04:41.427Z</time></trkpt><trkpt lat="32.2357721" lon="-110.9945197"><ele>711.0</ele><time>2026-05-02T18:04:42.427Z</time></trkpt><trkpt lat="32.2357743" lon="-110.9946952"><ele>711.0</ele><time>2026-05-02T18:04:43.427Z</time></trkpt><trkpt lat="32.235776" lon="-110.9948698"><ele>711.0</ele><time>2026-05-02T18:04:44.427Z</time></trkpt><trkpt lat="32.2357774" lon="-110.9950482"><ele>711.0</ele><time>2026-05-02T18:04:45.427Z</time></trkpt><trkpt lat="32.2357753" lon="-110.9952408"><ele>711.0</ele><time>2026-05-02T18:04:46.428Z</time></trkpt><trkpt lat="32.2357739" lon="-110.9954429"><ele>711.0</ele><time>2026-05-02T18:04:47.428Z</time></trkpt><trkpt lat="32.2357709" lon="-110.9956437"><ele>711.0</ele><time>2026-05-02T18:04:48.428Z</time></trkpt><trkpt lat="32.2357678" lon="-110.9958438"><ele>710.3333333333334</ele><time>2026-05-02T18:04:49.428Z</time></trkpt><trkpt lat="32.2357658" lon="-110.9960494"><ele>709.6666666666667</ele><time>2026-05-02T18:04:50.427Z</time></trkpt><trkpt lat="32.2357652" lon="-110.9962559"><ele>709.0</ele><time>2026-05-02T18:04:51.428Z</time></trkpt><trkpt lat="32.2357623" lon="-110.9964604"><ele>709.0</ele><time>2026-05-02T18:04:52.427Z</time></trkpt><trkpt lat="32.2357592" lon="-110.9966655"><ele>709.0</ele><time>2026-05-02T18:04:53.428Z</time></trkpt><trkpt lat="32.2357561" lon="-110.9968713"><ele>709.0</ele><time>2026-05-02T18:04:54.427Z</time></trkpt><trkpt lat="32.2357534" lon="-110.9970771"><ele>709.0</ele><time>2026-05-02T18:04:55.427Z</time></trkpt><trkpt lat="32.2357518" lon="-110.9972841"><ele>709.0</ele><time>2026-05-02T18:04:56.427Z</time></trkpt><trkpt lat="32.2357514" lon="-110.9974872"><ele>709.0</ele><time>2026-05-02T18:04:57.428Z</time></trkpt><trkpt lat="32.2357489" lon="-110.9976846"><ele>709.0</ele><time>2026-05-02T18:04:58.428Z</time></trkpt><trkpt lat="32.2357424" lon="-110.9978835"><ele>709.0</ele><time>2026-05-02T18:04:59.428Z</time></trkpt><trkpt lat="32.2357355" lon="-110.9980853"><ele>709.0</ele><time>2026-05-02T18:05:00.428Z</time></trkpt><trkpt lat="32.2357326" lon="-110.9982883"><ele>709.6666666666667</ele><time>2026-05-02T18:05:01.428Z</time></trkpt><trkpt lat="32.2357323" lon="-110.9984895"><ele>710.3333333333334</ele><time>2026-05-02T18:05:02.428Z</time></trkpt><trkpt lat="32.2357282" lon="-110.9986925"><ele>711.0</ele><time>2026-05-02T18:05:03.428Z</time></trkpt><trkpt lat="32.235722" lon="-110.998899"><ele>711.0</ele><time>2026-05-02T18:05:04.428Z</time></trkpt><trkpt lat="32.2357218" lon="-110.999129"><ele>711.0</ele><time>2026-05-02T18:05:05.427Z</time></trkpt><trkpt lat="32.2357256" lon="-110.9993954"><ele>711.0</ele><time>2026-05-02T18:05:06.428Z</time></trkpt><trkpt lat="32.2357288" lon="-110.9996815"><ele>712.0</ele><time>2026-05-02T18:05:07.427Z</time></trkpt><trkpt lat="32.2357247" lon="-110.9999576"><ele>713.0</ele><time>2026-05-02T18:05:08.427Z</time></trkpt><trkpt lat="32.2357171" lon="-111.0002258"><ele>713.0</ele><time>2026-05-02T18:05:09.428Z</time></trkpt><trkpt lat="32.2357037" lon="-111.0004915"><ele>713.0</ele><time>2026-05-02T18:05:10.427Z</time></trkpt><trkpt lat="32.2356937" lon="-111.0007754"><ele>713.0</ele><time>2026-05-02T18:05:11.428Z</time></trkpt><trkpt lat="32.2356825" lon="-111.0010591"><ele>713.0</ele><time>2026-05-02T18:05:12.428Z</time></trkpt><trkpt lat="32.2356776" lon="-111.0013264"><ele>713.0</ele><time>2026-05-02T18:05:13.427Z</time></trkpt><trkpt lat="32.2356794" lon="-111.0015754"><ele>713.0</ele><time>2026-05-02T18:05:14.428Z</time></trkpt><trkpt lat="32.2356791" lon="-111.0018169"><ele>713.0</ele><time>2026-05-02T18:05:15.428Z</time></trkpt><trkpt lat="32.2356779" lon="-111.0020531"><ele>712.0</ele><time>2026-05-02T18:05:16.428Z</time></trkpt><trkpt lat="32.2356759" lon="-111.0022857"><ele>711.0</ele><time>2026-05-02T18:05:17.427Z</time></trkpt><trkpt lat="32.2356745" lon="-111.0025175"><ele>710.0</ele><time>2026-05-02T18:05:18.427Z</time></trkpt><trkpt lat="32.2356791" lon="-111.0027448"><ele>709.3333333333333</ele><time>2026-05-02T18:05:19.428Z</time></trkpt><trkpt lat="32.2356798" lon="-111.0029561"><ele>708.6666666666666</ele><time>2026-05-02T18:05:20.427Z</time></trkpt><trkpt lat="32.235683" lon="-111.0031514"><ele>708.0</ele><time>2026-05-02T18:05:21.429Z</time></trkpt><trkpt lat="32.2356737" lon="-111.0033217"><ele>708.4</ele><time>2026-05-02T18:05:22.428Z</time></trkpt><trkpt lat="32.2356847" lon="-111.0034855"><ele>708.8</ele><time>2026-05-02T18:05:23.427Z</time></trkpt><trkpt lat="32.2356895" lon="-111.0036195"><ele>709.2</ele><time>2026-05-02T18:05:24.427Z</time></trkpt><trkpt lat="32.2356905" lon="-111.0037267"><ele>709.6</ele><time>2026-05-02T18:05:25.428Z</time></trkpt><trkpt lat="32.23569" lon="-111.0038146"><ele>710.0</ele><time>2026-05-02T18:05:26.427Z</time></trkpt><trkpt lat="32.2356873" lon="-111.003924"><ele>710.0</ele><time>2026-05-02T18:05:28.428Z</time></trkpt><trkpt lat="32.2356454" lon="-111.0039847"><ele>710.0</ele><time>2026-05-02T18:05:42.428Z</time></trkpt><trkpt lat="32.2356472" lon="-111.0041072"><ele>710.0</ele><time>2026-05-02T18:05:43.427Z</time></trkpt><trkpt lat="32.235643" lon="-111.0042439"><ele>710.0</ele><time>2026-05-02T18:05:44.428Z</time></trkpt><trkpt lat="32.2356458" lon="-111.0044031"><ele>710.0</ele><time>2026-05-02T18:05:45.427Z</time></trkpt><trkpt lat="32.2356523" lon="-111.0046032"><ele>710.0</ele><time>2026-05-02T18:05:46.428Z</time></trkpt><trkpt lat="32.2356603" lon="-111.0048377"><ele>710.0</ele><time>2026-05-02T18:05:47.428Z</time></trkpt><trkpt lat="32.2356594" lon="-111.0051043"><ele>710.0</ele><time>2026-05-02T18:05:48.427Z</time></trkpt><trkpt lat="32.2356565" lon="-111.0053924"><ele>710.3333333333333</ele><time>2026-05-02T18:05:49.427Z</time></trkpt><trkpt lat="32.235647" lon="-111.005652"><ele>710.6666666666666</ele><time>2026-05-02T18:05:50.428Z</time></trkpt><trkpt lat="32.2356225" lon="-111.0058736"><ele>711.0</ele><time>2026-05-02T18:05:51.429Z</time></trkpt><trkpt lat="32.2355922" lon="-111.0060916"><ele>711.3333333333334</ele><time>2026-05-02T18:05:52.427Z</time></trkpt><trkpt lat="32.2355586" lon="-111.0062949"><ele>711.6666666666667</ele><time>2026-05-02T18:05:53.429Z</time></trkpt><trkpt lat="32.2355168" lon="-111.0064796"><ele>712.0</ele><time>2026-05-02T18:05:54.428Z</time></trkpt><trkpt lat="32.2354791" lon="-111.0066561"><ele>713.0</ele><time>2026-05-02T18:05:55.428Z</time></trkpt><trkpt lat="32.2354399" lon="-111.0068202"><ele>714.0</ele><time>2026-05-02T18:05:56.429Z</time></trkpt><trkpt lat="32.2354087" lon="-111.0069768"><ele>715.0</ele><time>2026-05-02T18:05:57.427Z</time></trkpt><trkpt lat="32.2353789" lon="-111.0071182"><ele>716.0</ele><time>2026-05-02T18:05:58.428Z</time></trkpt><trkpt lat="32.2353518" lon="-111.0072535"><ele>716.0</ele><time>2026-05-02T18:05:59.429Z</time></trkpt><trkpt lat="32.2353242" lon="-111.0073844"><ele>716.0</ele><time>2026-05-02T18:06:00.427Z</time></trkpt><trkpt lat="32.2352976" lon="-111.007524"><ele>716.0</ele><time>2026-05-02T18:06:01.427Z</time></trkpt><trkpt lat="32.2352743" lon="-111.007669"><ele>716.0</ele><time>2026-05-02T18:06:02.427Z</time></trkpt><trkpt lat="32.2352598" lon="-111.0078192"><ele>716.5</ele><time>2026-05-02T18:06:03.427Z</time></trkpt><trkpt lat="32.2352486" lon="-111.007973"><ele>717.0</ele><time>2026-05-02T18:06:04.428Z</time></trkpt><trkpt lat="32.2352407" lon="-111.0081258"><ele>717.5</ele><time>2026-05-02T18:06:05.427Z</time></trkpt><trkpt lat="32.2352318" lon="-111.0082794"><ele>718.0</ele><time>2026-05-02T18:06:06.427Z</time></trkpt><trkpt lat="32.2352167" lon="-111.0084291"><ele>720.0</ele><time>2026-05-02T18:06:07.427Z</time></trkpt><trkpt lat="32.2352154" lon="-111.0085887"><ele>722.0</ele><time>2026-05-02T18:06:08.429Z</time></trkpt><trkpt lat="32.2352152" lon="-111.0087486"><ele>724.0</ele><time>2026-05-02T18:06:09.427Z</time></trkpt><trkpt lat="32.2352227" lon="-111.008905"><ele>726.0</ele><time>2026-05-02T18:06:10.427Z</time></trkpt><trkpt lat="32.2352334" lon="-111.0090705"><ele>726.6666666666666</ele><time>2026-05-02T18:06:11.427Z</time></trkpt><trkpt lat="32.2352484" lon="-111.0092477"><ele>727.3333333333333</ele><time>2026-05-02T18:06:12.429Z</time></trkpt><trkpt lat="32.2352717" lon="-111.0094322"><ele>728.0</ele><time>2026-05-02T18:06:13.429Z</time></trkpt><trkpt lat="32.2353016" lon="-111.0096289"><ele>728.0</ele><time>2026-05-02T18:06:14.429Z</time></trkpt><trkpt lat="32.2353344" lon="-111.0098206"><ele>728.0</ele><time>2026-05-02T18:06:15.429Z</time></trkpt><trkpt lat="32.2353698" lon="-111.0100008"><ele>728.0</ele><time>2026-05-02T18:06:16.428Z</time></trkpt><trkpt lat="32.2354107" lon="-111.0101652"><ele>728.75</ele><time>2026-05-02T18:06:17.428Z</time></trkpt><trkpt lat="32.2354567" lon="-111.0103179"><ele>729.5</ele><time>2026-05-02T18:06:18.428Z</time></trkpt><trkpt lat="32.2354969" lon="-111.0104637"><ele>730.25</ele><time>2026-05-02T18:06:19.429Z</time></trkpt><trkpt lat="32.2355329" lon="-111.0106086"><ele>731.0</ele><time>2026-05-02T18:06:20.429Z</time></trkpt><trkpt lat="32.235572" lon="-111.010757"><ele>730.75</ele><time>2026-05-02T18:06:21.428Z</time></trkpt><trkpt lat="32.2356068" lon="-111.0109061"><ele>730.5</ele><time>2026-05-02T18:06:22.429Z</time></trkpt><trkpt lat="32.2356533" lon="-111.0110465"><ele>730.25</ele><time>2026-05-02T18:06:23.428Z</time></trkpt><trkpt lat="32.2357041" lon="-111.0111762"><ele>730.0</ele><time>2026-05-02T18:06:24.428Z</time></trkpt><trkpt lat="32.2357397" lon="-111.0113256"><ele>729.75</ele><time>2026-05-02T18:06:25.428Z</time></trkpt><trkpt lat="32.2357776" lon="-111.0114763"><ele>729.5</ele><time>2026-05-02T18:06:26.429Z</time></trkpt><trkpt lat="32.2358136" lon="-111.0116287"><ele>729.25</ele><time>2026-05-02T18:06:27.428Z</time></trkpt><trkpt lat="32.2358493" lon="-111.0117837"><ele>729.0</ele><time>2026-05-02T18:06:28.428Z</time></trkpt><trkpt lat="32.2358867" lon="-111.0119404"><ele>729.5</ele><time>2026-05-02T18:06:29.428Z</time></trkpt><trkpt lat="32.235916" lon="-111.0120999"><ele>730.0</ele><time>2026-05-02T18:06:30.429Z</time></trkpt><trkpt lat="32.2359373" lon="-111.0122562"><ele>730.5</ele><time>2026-05-02T18:06:31.429Z</time></trkpt><trkpt lat="32.2359533" lon="-111.0124173"><ele>731.0</ele><time>2026-05-02T18:06:32.428Z</time></trkpt><trkpt lat="32.2359665" lon="-111.0125872"><ele>732.0</ele><time>2026-05-02T18:06:33.429Z</time></trkpt><trkpt lat="32.2359794" lon="-111.0127637"><ele>733.0</ele><time>2026-05-02T18:06:34.428Z</time></trkpt><trkpt lat="32.2359882" lon="-111.0129417"><ele>734.0</ele><time>2026-05-02T18:06:35.428Z</time></trkpt><trkpt lat="32.2359896" lon="-111.0131153"><ele>735.0</ele><time>2026-05-02T18:06:36.428Z</time></trkpt><trkpt lat="32.2359874" lon="-111.0132892"><ele>734.0</ele><time>2026-05-02T18:06:37.429Z</time></trkpt><trkpt lat="32.235988" lon="-111.0134624"><ele>733.0</ele><time>2026-05-02T18:06:38.428Z</time></trkpt><trkpt lat="32.235989" lon="-111.0136374"><ele>732.0</ele><time>2026-05-02T18:06:39.429Z</time></trkpt><trkpt lat="32.2359902" lon="-111.0138113"><ele>731.0</ele><time>2026-05-02T18:06:40.429Z</time></trkpt><trkpt lat="32.2359934" lon="-111.01398"><ele>731.0</ele><time>2026-05-02T18:06:41.428Z</time></trkpt><trkpt lat="32.2359966" lon="-111.0141491"><ele>731.0</ele><time>2026-05-02T18:06:42.429Z</time></trkpt><trkpt lat="32.2359936" lon="-111.0143228"><ele>731.0</ele><time>2026-05-02T18:06:43.429Z</time></trkpt><trkpt lat="32.2359912" lon="-111.0145013"><ele>731.0</ele><time>2026-05-02T18:06:44.429Z</time></trkpt><trkpt lat="32.2359906" lon="-111.0146811"><ele>730.3333333333333</ele><time>2026-05-02T18:06:45.429Z</time></trkpt><trkpt lat="32.23599" lon="-111.0148622"><ele>729.6666666666666</ele><time>2026-05-02T18:06:46.428Z</time></trkpt><trkpt lat="32.2359903" lon="-111.0150455"><ele>729.0</ele><time>2026-05-02T18:06:47.428Z</time></trkpt><trkpt lat="32.2359905" lon="-111.0152296"><ele>728.6666666666666</ele><time>2026-05-02T18:06:48.428Z</time></trkpt><trkpt lat="32.2359903" lon="-111.0154147"><ele>728.3333333333333</ele><time>2026-05-02T18:06:49.428Z</time></trkpt><trkpt lat="32.2359897" lon="-111.0155976"><ele>728.0</ele><time>2026-05-02T18:06:50.429Z</time></trkpt><trkpt lat="32.2359896" lon="-111.0157775"><ele>728.0</ele><time>2026-05-02T18:06:51.428Z</time></trkpt><trkpt lat="32.2359902" lon="-111.0159554"><ele>728.0</ele><time>2026-05-02T18:06:52.429Z</time></trkpt><trkpt lat="32.2359911" lon="-111.0161359"><ele>728.0</ele><time>2026-05-02T18:06:53.428Z</time></trkpt><trkpt lat="32.2359907" lon="-111.0163135"><ele>728.0</ele><time>2026-05-02T18:06:54.428Z</time></trkpt><trkpt lat="32.2359897" lon="-111.0164852"><ele>728.0</ele><time>2026-05-02T18:06:55.429Z</time></trkpt><trkpt lat="32.235991" lon="-111.0166501"><ele>728.0</ele><time>2026-05-02T18:06:56.428Z</time></trkpt><trkpt lat="32.2359841" lon="-111.0168055"><ele>728.0</ele><time>2026-05-02T18:06:57.428Z</time></trkpt><trkpt lat="32.2359807" lon="-111.0169479"><ele>728.75</ele><time>2026-05-02T18:06:58.429Z</time></trkpt><trkpt lat="32.2359823" lon="-111.0171008"><ele>729.5</ele><time>2026-05-02T18:06:59.428Z</time></trkpt><trkpt lat="32.2359798" lon="-111.0172553"><ele>730.25</ele><time>2026-05-02T18:07:00.428Z</time></trkpt><trkpt lat="32.2359795" lon="-111.0174168"><ele>731.0</ele><time>2026-05-02T18:07:01.428Z</time></trkpt><trkpt lat="32.2359784" lon="-111.0175764"><ele>732.5</ele><time>2026-05-02T18:07:02.429Z</time></trkpt><trkpt lat="32.235977" lon="-111.0177364"><ele>734.0</ele><time>2026-05-02T18:07:03.429Z</time></trkpt><trkpt lat="32.2359754" lon="-111.0178963"><ele>735.5</ele><time>2026-05-02T18:07:04.428Z</time></trkpt><trkpt lat="32.2359743" lon="-111.0180565"><ele>737.0</ele><time>2026-05-02T18:07:05.428Z</time></trkpt><trkpt lat="32.2359736" lon="-111.0182185"><ele>738.75</ele><time>2026-05-02T18:07:06.428Z</time></trkpt><trkpt lat="32.2359734" lon="-111.0183807"><ele>740.5</ele><time>2026-05-02T18:07:07.428Z</time></trkpt><trkpt lat="32.2359723" lon="-111.0185418"><ele>742.25</ele><time>2026-05-02T18:07:08.428Z</time></trkpt><trkpt lat="32.2359713" lon="-111.0186957"><ele>744.0</ele><time>2026-05-02T18:07:09.428Z</time></trkpt><trkpt lat="32.2359718" lon="-111.0188461"><ele>744.0</ele><time>2026-05-02T18:07:10.429Z</time></trkpt><trkpt lat="32.2359707" lon="-111.0190038"><ele>744.0</ele><time>2026-05-02T18:07:11.429Z</time></trkpt><trkpt lat="32.235973" lon="-111.0191618"><ele>744.0</ele><time>2026-05-02T18:07:12.429Z</time></trkpt><trkpt lat="32.2359755" lon="-111.0193232"><ele>744.0</ele><time>2026-05-02T18:07:13.429Z</time></trkpt><trkpt lat="32.2359788" lon="-111.0194787"><ele>744.0</ele><time>2026-05-02T18:07:14.43Z</time></trkpt><trkpt lat="32.235981" lon="-111.0196302"><ele>744.0</ele><time>2026-05-02T18:07:15.428Z</time></trkpt><trkpt lat="32.235982" lon="-111.0197711"><ele>744.0</ele><time>2026-05-02T18:07:16.428Z</time></trkpt><trkpt lat="32.2359829" lon="-111.0199049"><ele>744.0</ele><time>2026-05-02T18:07:17.428Z</time></trkpt><trkpt lat="32.2359829" lon="-111.0200397"><ele>743.4000000000001</ele><time>2026-05-02T18:07:18.429Z</time></trkpt><trkpt lat="32.2359823" lon="-111.0201745"><ele>742.8</ele><time>2026-05-02T18:07:19.428Z</time></trkpt><trkpt lat="32.2359792" lon="-111.0203093"><ele>742.2</ele><time>2026-05-02T18:07:20.428Z</time></trkpt><trkpt lat="32.2359744" lon="-111.0204391"><ele>741.5999999999999</ele><time>2026-05-02T18:07:21.428Z</time></trkpt><trkpt lat="32.2359687" lon="-111.0205656"><ele>741.0</ele><time>2026-05-02T18:07:22.429Z</time></trkpt><trkpt lat="32.2359628" lon="-111.0206868"><ele>740.1999999999999</ele><time>2026-05-02T18:07:23.428Z</time></trkpt><trkpt lat="32.235958" lon="-111.0208228"><ele>739.4</ele><time>2026-05-02T18:07:24.428Z</time></trkpt><trkpt lat="32.2359562" lon="-111.0209624"><ele>738.6</ele><time>2026-05-02T18:07:25.428Z</time></trkpt><trkpt lat="32.2359595" lon="-111.0210959"><ele>737.8</ele><time>2026-05-02T18:07:26.429Z</time></trkpt><trkpt lat="32.2359633" lon="-111.021204"><ele>737.0</ele><time>2026-05-02T18:07:27.428Z</time></trkpt><trkpt lat="32.235966" lon="-111.0212901"><ele>737.0</ele><time>2026-05-02T18:07:28.428Z</time></trkpt><trkpt lat="32.2359669" lon="-111.0214034"><ele>737.0</ele><time>2026-05-02T18:07:30.428Z</time></trkpt><trkpt lat="32.2359269" lon="-111.0214616"><ele>737.0</ele><time>2026-05-02T18:07:48.429Z</time></trkpt><trkpt lat="32.235881" lon="-111.0215387"><ele>737.0</ele><time>2026-05-02T18:07:49.429Z</time></trkpt><trkpt lat="32.2358073" lon="-111.0215981"><ele>737.0</ele><time>2026-05-02T18:07:50.428Z</time></trkpt><trkpt lat="32.2357047" lon="-111.0216337"><ele>737.0</ele><time>2026-05-02T18:07:51.428Z</time></trkpt><trkpt lat="32.2355831" lon="-111.0216588"><ele>736.3333333333333</ele><time>2026-05-02T18:07:52.429Z</time></trkpt><trkpt lat="32.2354238" lon="-111.0216491"><ele>735.6666666666666</ele><time>2026-05-02T18:07:53.43Z</time></trkpt><trkpt lat="32.2352346" lon="-111.0216003"><ele>735.0</ele><time>2026-05-02T18:07:54.43Z</time></trkpt><trkpt lat="32.235035" lon="-111.0215296"><ele>738.5</ele><time>2026-05-02T18:07:55.429Z</time></trkpt><trkpt lat="32.2348219" lon="-111.0214353"><ele>742.0</ele><time>2026-05-02T18:07:56.429Z</time></trkpt><trkpt lat="32.2345962" lon="-111.0213345"><ele>742.6666666666667</ele><time>2026-05-02T18:07:57.43Z</time></trkpt><trkpt lat="32.2343855" lon="-111.0212418"><ele>743.3333333333334</ele><time>2026-05-02T18:07:58.429Z</time></trkpt><trkpt lat="32.2341907" lon="-111.0211558"><ele>744.0</ele><time>2026-05-02T18:07:59.429Z</time></trkpt><trkpt lat="32.2340079" lon="-111.0210746"><ele>745.0</ele><time>2026-05-02T18:08:00.429Z</time></trkpt><trkpt lat="32.23383" lon="-111.0209972"><ele>746.0</ele><time>2026-05-02T18:08:01.428Z</time></trkpt><trkpt lat="32.233654" lon="-111.0209232"><ele>747.0</ele><time>2026-05-02T18:08:02.428Z</time></trkpt><trkpt lat="32.2334718" lon="-111.0208501"><ele>746.3333333333334</ele><time>2026-05-02T18:08:03.429Z</time></trkpt><trkpt lat="32.2332858" lon="-111.0207755"><ele>745.6666666666667</ele><time>2026-05-02T18:08:04.429Z</time></trkpt><trkpt lat="32.2331028" lon="-111.0207031"><ele>745.0</ele><time>2026-05-02T18:08:05.43Z</time></trkpt><trkpt lat="32.2329289" lon="-111.0206392"><ele>744.0</ele><time>2026-05-02T18:08:06.429Z</time></trkpt><trkpt lat="32.2327596" lon="-111.0205791"><ele>743.0</ele><time>2026-05-02T18:08:07.43Z</time></trkpt><trkpt lat="32.2325851" lon="-111.0205251"><ele>742.0</ele><time>2026-05-02T18:08:08.429Z</time></trkpt><trkpt lat="32.2324039" lon="-111.0204765"><ele>741.3333333333334</ele><time>2026-05-02T18:08:09.43Z</time></trkpt><trkpt lat="32.2322219" lon="-111.020441"><ele>740.6666666666666</ele><time>2026-05-02T18:08:10.429Z</time></trkpt><trkpt lat="32.2320341" lon="-111.0204155"><ele>740.0</ele><time>2026-05-02T18:08:11.43Z</time></trkpt><trkpt lat="32.231832" lon="-111.0203988"><ele>740.0</ele><time>2026-05-02T18:08:12.429Z</time></trkpt><trkpt lat="32.231621" lon="-111.0203924"><ele>740.0</ele><time>2026-05-02T18:08:13.43Z</time></trkpt><trkpt lat="32.2314144" lon="-111.0203891"><ele>740.0</ele><time>2026-05-02T18:08:14.429Z</time></trkpt><trkpt lat="32.2312068" lon="-111.0203866"><ele>740.0</ele><time>2026-05-02T18:08:15.429Z</time></trkpt><trkpt lat="32.2310063" lon="-111.0203885"><ele>740.0</ele><time>2026-05-02T18:08:16.429Z</time></trkpt><trkpt lat="32.230805" lon="-111.020396"><ele>740.0</ele><time>2026-05-02T18:08:17.43Z</time></trkpt><trkpt lat="32.230603" lon="-111.020395"><ele>740.0</ele><time>2026-05-02T18:08:18.43Z</time></trkpt><trkpt lat="32.230398" lon="-111.0203922"><ele>740.0</ele><time>2026-05-02T18:08:19.43Z</time></trkpt><trkpt lat="32.2301997" lon="-111.0203916"><ele>740.0</ele><time>2026-05-02T18:08:20.429Z</time></trkpt><trkpt lat="32.2299963" lon="-111.020389"><ele>740.0</ele><time>2026-05-02T18:08:21.429Z</time></trkpt><trkpt lat="32.2297954" lon="-111.0203856"><ele>740.0</ele><time>2026-05-02T18:08:22.43Z</time></trkpt><trkpt lat="32.2295901" lon="-111.0203891"><ele>740.0</ele><time>2026-05-02T18:08:23.43Z</time></trkpt><trkpt lat="32.229391" lon="-111.0203904"><ele>740.0</ele><time>2026-05-02T18:08:24.429Z</time></trkpt><trkpt lat="32.2291877" lon="-111.0203821"><ele>740.0</ele><time>2026-05-02T18:08:25.43Z</time></trkpt><trkpt lat="32.2289883" lon="-111.020379"><ele>740.0</ele><time>2026-05-02T18:08:26.429Z</time></trkpt><trkpt lat="32.2288011" lon="-111.0203887"><ele>742.0</ele><time>2026-05-02T18:08:27.429Z</time></trkpt><trkpt lat="32.2286043" lon="-111.0203816"><ele>744.0</ele><time>2026-05-02T18:08:28.429Z</time></trkpt><trkpt lat="32.2284113" lon="-111.0203797"><ele>746.0</ele><time>2026-05-02T18:08:29.43Z</time></trkpt><trkpt lat="32.2282174" lon="-111.0203794"><ele>747.3333333333333</ele><time>2026-05-02T18:08:30.43Z</time></trkpt><trkpt lat="32.2280214" lon="-111.0203792"><ele>748.6666666666666</ele><time>2026-05-02T18:08:31.429Z</time></trkpt><trkpt lat="32.227829" lon="-111.020376"><ele>750.0</ele><time>2026-05-02T18:08:32.429Z</time></trkpt><trkpt lat="32.2276384" lon="-111.0203737"><ele>750.0</ele><time>2026-05-02T18:08:33.43Z</time></trkpt><trkpt lat="32.2274491" lon="-111.0203703"><ele>750.0</ele><time>2026-05-02T18:08:34.429Z</time></trkpt><trkpt lat="32.2272617" lon="-111.0203651"><ele>750.0</ele><time>2026-05-02T18:08:35.429Z</time></trkpt><trkpt lat="32.227074" lon="-111.0203576"><ele>749.3333333333334</ele><time>2026-05-02T18:08:36.43Z</time></trkpt><trkpt lat="32.2268871" lon="-111.0203556"><ele>748.6666666666667</ele><time>2026-05-02T18:08:37.43Z</time></trkpt><trkpt lat="32.2267058" lon="-111.0203517"><ele>748.0</ele><time>2026-05-02T18:08:38.429Z</time></trkpt><trkpt lat="32.2265224" lon="-111.020349"><ele>748.3333333333334</ele><time>2026-05-02T18:08:39.429Z</time></trkpt><trkpt lat="32.2263354" lon="-111.0203519"><ele>748.6666666666666</ele><time>2026-05-02T18:08:40.429Z</time></trkpt><trkpt lat="32.2261568" lon="-111.0203521"><ele>749.0</ele><time>2026-05-02T18:08:41.429Z</time></trkpt><trkpt lat="32.225983" lon="-111.020357"><ele>749.0</ele><time>2026-05-02T18:08:42.43Z</time></trkpt><trkpt lat="32.2258194" lon="-111.0203613"><ele>749.0</ele><time>2026-05-02T18:08:43.43Z</time></trkpt><trkpt lat="32.2256676" lon="-111.0203685"><ele>749.0</ele><time>2026-05-02T18:08:44.43Z</time></trkpt><trkpt lat="32.2255279" lon="-111.0203758"><ele>748.8000000000001</ele><time>2026-05-02T18:08:45.43Z</time></trkpt><trkpt lat="32.2254042" lon="-111.0203818"><ele>748.6</ele><time>2026-05-02T18:08:46.43Z</time></trkpt><trkpt lat="32.2252973" lon="-111.0203914"><ele>748.4</ele><time>2026-05-02T18:08:47.43Z</time></trkpt><trkpt lat="32.2252106" lon="-111.0204038"><ele>748.2</ele><time>2026-05-02T18:08:48.429Z</time></trkpt><trkpt lat="32.2251446" lon="-111.0204194"><ele>748.0</ele><time>2026-05-02T18:08:49.43Z</time></trkpt><trkpt lat="32.225074" lon="-111.0204667"><ele>748.0</ele><time>2026-05-02T18:08:51.43Z</time></trkpt><trkpt lat="32.2250237" lon="-111.0206196"><ele>748.0</ele><time>2026-05-02T18:08:54.43Z</time></trkpt><trkpt lat="32.2250192" lon="-111.0207346"><ele>748.0</ele><time>2026-05-02T18:08:55.429Z</time></trkpt><trkpt lat="32.2250176" lon="-111.020871"><ele>748.0</ele><time>2026-05-02T18:08:56.429Z</time></trkpt><trkpt lat="32.2250171" lon="-111.0210276"><ele>749.0</ele><time>2026-05-02T18:08:57.43Z</time></trkpt><trkpt lat="32.2250106" lon="-111.0211871"><ele>750.0</ele><time>2026-05-02T18:08:58.429Z</time></trkpt><trkpt lat="32.2249987" lon="-111.021318"><ele>751.0</ele><time>2026-05-02T18:08:59.429Z</time></trkpt><trkpt lat="32.2249768" lon="-111.0214222"><ele>752.0</ele><time>2026-05-02T18:09:00.429Z</time></trkpt><trkpt lat="32.2249742" lon="-111.0215103"><ele>753.0</ele><time>2026-05-02T18:09:01.43Z</time></trkpt><trkpt lat="32.2249276" lon="-111.0216194"><ele>753.5</ele><time>2026-05-02T18:09:03.43Z</time></trkpt><trkpt lat="32.2248123" lon="-111.0216708"><ele>754.0</ele><time>2026-05-02T18:09:05.429Z</time></trkpt><trkpt lat="32.2247361" lon="-111.0216677"><ele>754.5</ele><time>2026-05-02T18:09:06.431Z</time></trkpt><trkpt lat="32.2246795" lon="-111.0216331"><ele>755.0</ele><time>2026-05-02T18:10:22.431Z</time></trkpt><trkpt lat="32.2246245" lon="-111.0216911"><ele>755.5</ele><time>2026-05-02T18:11:18.465Z</time></trkpt><trkpt lat="32.2245691" lon="-111.021637"><ele>756.0</ele><time>2026-05-02T18:12:07.486Z</time></trkpt><trkpt lat="32.2246561" lon="-111.0216544"><ele>758.0</ele><time>2026-05-02T18:13:51.558Z</time></trkpt><trkpt lat="32.2246758" lon="-111.0217271"><ele>758.0</ele><time>2026-05-02T18:14:54.558Z</time></trkpt></trkseg></trk></gpx>